<?xml version="1.0" encoding="UTF-8" standalone="no" ?>
<gpx xmlns="http://www.topografix.com/GPX/1/1" xmlns:xsi="http://www.w3.org/2001/XMLSchema-instance" xsi:schemaLocation="http://www.topografix.com/GPX/1/1 http://www.topografix.com/GPX/1/1/gpx.xsd" version="1.1" creator="VisuGPX - https://www.visugpx.com">
  <metadata>
    <name>O 805</name>
  </metadata>
  <trk>
    <name><![CDATA[Vélo dans l'après-midi]]></name>
    <trkseg>
      <trkpt lat="49.28631" lon="-0.11946">
        <ele>4.8</ele>
        <time>2023-07-05T11:53:54Z</time>
      </trkpt>
      <trkpt lat="49.28634" lon="-0.11938">
        <ele>4.9</ele>
        <time>2023-07-05T11:53:56Z</time>
      </trkpt>
      <trkpt lat="49.28635" lon="-0.11935">
        <ele>4.9</ele>
        <time>2023-07-05T11:53:57Z</time>
      </trkpt>
      <trkpt lat="49.28636" lon="-0.11934">
        <ele>4.9</ele>
        <time>2023-07-05T11:53:58Z</time>
      </trkpt>
      <trkpt lat="49.28636" lon="-0.11934">
        <ele>4.9</ele>
        <time>2023-07-05T11:53:59Z</time>
      </trkpt>
      <trkpt lat="49.28636" lon="-0.11933">
        <ele>4.9</ele>
        <time>2023-07-05T11:54:00Z</time>
      </trkpt>
      <trkpt lat="49.28636" lon="-0.11933">
        <ele>4.9</ele>
        <time>2023-07-05T11:54:01Z</time>
      </trkpt>
      <trkpt lat="49.28636" lon="-0.11933">
        <ele>4.9</ele>
        <time>2023-07-05T11:54:02Z</time>
      </trkpt>
      <trkpt lat="49.28636" lon="-0.11933">
        <ele>4.9</ele>
        <time>2023-07-05T11:54:03Z</time>
      </trkpt>
      <trkpt lat="49.28636" lon="-0.11933">
        <ele>4.9</ele>
        <time>2023-07-05T11:54:04Z</time>
      </trkpt>
      <trkpt lat="49.28636" lon="-0.11933">
        <ele>4.9</ele>
        <time>2023-07-05T11:54:05Z</time>
      </trkpt>
      <trkpt lat="49.28637" lon="-0.11933">
        <ele>4.9</ele>
        <time>2023-07-05T11:54:06Z</time>
      </trkpt>
      <trkpt lat="49.28637" lon="-0.11934">
        <ele>4.9</ele>
        <time>2023-07-05T11:54:07Z</time>
      </trkpt>
      <trkpt lat="49.28638" lon="-0.11934">
        <ele>4.9</ele>
        <time>2023-07-05T11:54:08Z</time>
      </trkpt>
      <trkpt lat="49.28638" lon="-0.11934">
        <ele>4.9</ele>
        <time>2023-07-05T11:54:09Z</time>
      </trkpt>
      <trkpt lat="49.28638" lon="-0.11934">
        <ele>4.9</ele>
        <time>2023-07-05T11:54:10Z</time>
      </trkpt>
      <trkpt lat="49.28638" lon="-0.11935">
        <ele>4.9</ele>
        <time>2023-07-05T11:54:11Z</time>
      </trkpt>
      <trkpt lat="49.28638" lon="-0.11935">
        <ele>4.9</ele>
        <time>2023-07-05T11:54:12Z</time>
      </trkpt>
      <trkpt lat="49.28638" lon="-0.11935">
        <ele>4.9</ele>
        <time>2023-07-05T11:54:13Z</time>
      </trkpt>
      <trkpt lat="49.28638" lon="-0.11935">
        <ele>4.9</ele>
        <time>2023-07-05T11:54:14Z</time>
      </trkpt>
      <trkpt lat="49.28639" lon="-0.11935">
        <ele>4.9</ele>
        <time>2023-07-05T11:54:15Z</time>
      </trkpt>
      <trkpt lat="49.28639" lon="-0.11936">
        <ele>4.9</ele>
        <time>2023-07-05T11:54:16Z</time>
      </trkpt>
      <trkpt lat="49.2864" lon="-0.11936">
        <ele>4.9</ele>
        <time>2023-07-05T11:54:17Z</time>
      </trkpt>
      <trkpt lat="49.2864" lon="-0.11937">
        <ele>4.9</ele>
        <time>2023-07-05T11:54:18Z</time>
      </trkpt>
      <trkpt lat="49.28641" lon="-0.11937">
        <ele>4.9</ele>
        <time>2023-07-05T11:54:19Z</time>
      </trkpt>
      <trkpt lat="49.28641" lon="-0.11938">
        <ele>4.9</ele>
        <time>2023-07-05T11:54:20Z</time>
      </trkpt>
      <trkpt lat="49.28641" lon="-0.11938">
        <ele>4.9</ele>
        <time>2023-07-05T11:54:21Z</time>
      </trkpt>
      <trkpt lat="49.28641" lon="-0.11938">
        <ele>4.9</ele>
        <time>2023-07-05T11:54:22Z</time>
      </trkpt>
      <trkpt lat="49.28641" lon="-0.11938">
        <ele>4.9</ele>
        <time>2023-07-05T11:54:23Z</time>
      </trkpt>
      <trkpt lat="49.28641" lon="-0.11938">
        <ele>4.9</ele>
        <time>2023-07-05T11:54:24Z</time>
      </trkpt>
      <trkpt lat="49.28641" lon="-0.11938">
        <ele>4.9</ele>
        <time>2023-07-05T11:54:25Z</time>
      </trkpt>
      <trkpt lat="49.28641" lon="-0.11938">
        <ele>4.9</ele>
        <time>2023-07-05T11:54:26Z</time>
      </trkpt>
      <trkpt lat="49.28641" lon="-0.11938">
        <ele>4.9</ele>
        <time>2023-07-05T11:54:27Z</time>
      </trkpt>
      <trkpt lat="49.28641" lon="-0.11938">
        <ele>4.9</ele>
        <time>2023-07-05T11:54:28Z</time>
      </trkpt>
      <trkpt lat="49.28641" lon="-0.11938">
        <ele>4.9</ele>
        <time>2023-07-05T11:54:29Z</time>
      </trkpt>
      <trkpt lat="49.28641" lon="-0.11938">
        <ele>4.9</ele>
        <time>2023-07-05T11:54:30Z</time>
      </trkpt>
      <trkpt lat="49.28639" lon="-0.11945">
        <ele>4.9</ele>
        <time>2023-07-05T11:54:51Z</time>
      </trkpt>
      <trkpt lat="49.28638" lon="-0.11946">
        <ele>4.9</ele>
        <time>2023-07-05T11:54:52Z</time>
      </trkpt>
      <trkpt lat="49.28638" lon="-0.11947">
        <ele>4.9</ele>
        <time>2023-07-05T11:54:53Z</time>
      </trkpt>
      <trkpt lat="49.28638" lon="-0.11947">
        <ele>4.9</ele>
        <time>2023-07-05T11:54:54Z</time>
      </trkpt>
      <trkpt lat="49.28638" lon="-0.11947">
        <ele>4.9</ele>
        <time>2023-07-05T11:54:55Z</time>
      </trkpt>
      <trkpt lat="49.28638" lon="-0.11947">
        <ele>4.9</ele>
        <time>2023-07-05T11:54:56Z</time>
      </trkpt>
      <trkpt lat="49.28638" lon="-0.11947">
        <ele>4.9</ele>
        <time>2023-07-05T11:54:57Z</time>
      </trkpt>
      <trkpt lat="49.28638" lon="-0.11947">
        <ele>4.9</ele>
        <time>2023-07-05T11:54:58Z</time>
      </trkpt>
      <trkpt lat="49.28638" lon="-0.11946">
        <ele>4.9</ele>
        <time>2023-07-05T11:54:59Z</time>
      </trkpt>
      <trkpt lat="49.28638" lon="-0.11946">
        <ele>4.9</ele>
        <time>2023-07-05T11:55:00Z</time>
      </trkpt>
      <trkpt lat="49.28638" lon="-0.11945">
        <ele>4.9</ele>
        <time>2023-07-05T11:55:01Z</time>
      </trkpt>
      <trkpt lat="49.28638" lon="-0.11944">
        <ele>4.9</ele>
        <time>2023-07-05T11:55:02Z</time>
      </trkpt>
      <trkpt lat="49.28638" lon="-0.11943">
        <ele>4.9</ele>
        <time>2023-07-05T11:55:03Z</time>
      </trkpt>
      <trkpt lat="49.28638" lon="-0.11942">
        <ele>4.9</ele>
        <time>2023-07-05T11:55:04Z</time>
      </trkpt>
      <trkpt lat="49.28638" lon="-0.11941">
        <ele>4.9</ele>
        <time>2023-07-05T11:55:05Z</time>
      </trkpt>
      <trkpt lat="49.28638" lon="-0.1194">
        <ele>4.9</ele>
        <time>2023-07-05T11:55:06Z</time>
      </trkpt>
      <trkpt lat="49.28638" lon="-0.11939">
        <ele>4.9</ele>
        <time>2023-07-05T11:55:07Z</time>
      </trkpt>
      <trkpt lat="49.28638" lon="-0.11938">
        <ele>4.9</ele>
        <time>2023-07-05T11:55:08Z</time>
      </trkpt>
      <trkpt lat="49.28638" lon="-0.11937">
        <ele>4.9</ele>
        <time>2023-07-05T11:55:09Z</time>
      </trkpt>
      <trkpt lat="49.28638" lon="-0.11936">
        <ele>4.9</ele>
        <time>2023-07-05T11:55:10Z</time>
      </trkpt>
      <trkpt lat="49.28638" lon="-0.11935">
        <ele>4.9</ele>
        <time>2023-07-05T11:55:11Z</time>
      </trkpt>
      <trkpt lat="49.28638" lon="-0.11934">
        <ele>4.9</ele>
        <time>2023-07-05T11:55:12Z</time>
      </trkpt>
      <trkpt lat="49.28638" lon="-0.11932">
        <ele>4.9</ele>
        <time>2023-07-05T11:55:13Z</time>
      </trkpt>
      <trkpt lat="49.28638" lon="-0.11931">
        <ele>4.9</ele>
        <time>2023-07-05T11:55:14Z</time>
      </trkpt>
      <trkpt lat="49.28639" lon="-0.1193">
        <ele>4.9</ele>
        <time>2023-07-05T11:55:15Z</time>
      </trkpt>
      <trkpt lat="49.28639" lon="-0.11929">
        <ele>4.9</ele>
        <time>2023-07-05T11:55:16Z</time>
      </trkpt>
      <trkpt lat="49.28639" lon="-0.11928">
        <ele>4.9</ele>
        <time>2023-07-05T11:55:17Z</time>
      </trkpt>
      <trkpt lat="49.28639" lon="-0.11927">
        <ele>4.9</ele>
        <time>2023-07-05T11:55:18Z</time>
      </trkpt>
      <trkpt lat="49.28639" lon="-0.11927">
        <ele>4.9</ele>
        <time>2023-07-05T11:55:19Z</time>
      </trkpt>
      <trkpt lat="49.28639" lon="-0.11927">
        <ele>4.9</ele>
        <time>2023-07-05T11:55:20Z</time>
      </trkpt>
      <trkpt lat="49.28639" lon="-0.11927">
        <ele>4.9</ele>
        <time>2023-07-05T11:55:21Z</time>
      </trkpt>
      <trkpt lat="49.28639" lon="-0.11925">
        <ele>4.9</ele>
        <time>2023-07-05T11:55:22Z</time>
      </trkpt>
      <trkpt lat="49.28639" lon="-0.11924">
        <ele>4.9</ele>
        <time>2023-07-05T11:55:23Z</time>
      </trkpt>
      <trkpt lat="49.28638" lon="-0.11923">
        <ele>4.9</ele>
        <time>2023-07-05T11:55:24Z</time>
      </trkpt>
      <trkpt lat="49.28638" lon="-0.11922">
        <ele>4.9</ele>
        <time>2023-07-05T11:55:25Z</time>
      </trkpt>
      <trkpt lat="49.28638" lon="-0.11922">
        <ele>4.9</ele>
        <time>2023-07-05T11:55:26Z</time>
      </trkpt>
      <trkpt lat="49.28638" lon="-0.11921">
        <ele>4.9</ele>
        <time>2023-07-05T11:55:27Z</time>
      </trkpt>
      <trkpt lat="49.28638" lon="-0.11921">
        <ele>4.9</ele>
        <time>2023-07-05T11:55:28Z</time>
      </trkpt>
      <trkpt lat="49.28638" lon="-0.11926">
        <ele>4.9</ele>
        <time>2023-07-05T12:06:13Z</time>
      </trkpt>
      <trkpt lat="49.28637" lon="-0.1193">
        <ele>4.9</ele>
        <time>2023-07-05T12:06:14Z</time>
      </trkpt>
      <trkpt lat="49.28636" lon="-0.11934">
        <ele>4.9</ele>
        <time>2023-07-05T12:06:15Z</time>
      </trkpt>
      <trkpt lat="49.28634" lon="-0.11938">
        <ele>4.9</ele>
        <time>2023-07-05T12:06:16Z</time>
      </trkpt>
      <trkpt lat="49.28632" lon="-0.11942">
        <ele>4.9</ele>
        <time>2023-07-05T12:06:17Z</time>
      </trkpt>
      <trkpt lat="49.28631" lon="-0.11946">
        <ele>5</ele>
        <time>2023-07-05T12:06:18Z</time>
      </trkpt>
      <trkpt lat="49.28629" lon="-0.1195">
        <ele>5</ele>
        <time>2023-07-05T12:06:19Z</time>
      </trkpt>
      <trkpt lat="49.28627" lon="-0.11954">
        <ele>5</ele>
        <time>2023-07-05T12:06:20Z</time>
      </trkpt>
      <trkpt lat="49.28625" lon="-0.11957">
        <ele>5</ele>
        <time>2023-07-05T12:06:21Z</time>
      </trkpt>
      <trkpt lat="49.28623" lon="-0.1196">
        <ele>5</ele>
        <time>2023-07-05T12:06:22Z</time>
      </trkpt>
      <trkpt lat="49.28621" lon="-0.11963">
        <ele>5</ele>
        <time>2023-07-05T12:06:23Z</time>
      </trkpt>
      <trkpt lat="49.28619" lon="-0.11966">
        <ele>5</ele>
        <time>2023-07-05T12:06:24Z</time>
      </trkpt>
      <trkpt lat="49.28616" lon="-0.11968">
        <ele>5</ele>
        <time>2023-07-05T12:06:25Z</time>
      </trkpt>
      <trkpt lat="49.28613" lon="-0.1197">
        <ele>5</ele>
        <time>2023-07-05T12:06:26Z</time>
      </trkpt>
      <trkpt lat="49.2861" lon="-0.11971">
        <ele>5</ele>
        <time>2023-07-05T12:06:27Z</time>
      </trkpt>
      <trkpt lat="49.28607" lon="-0.11971">
        <ele>4.9</ele>
        <time>2023-07-05T12:06:28Z</time>
      </trkpt>
      <trkpt lat="49.28604" lon="-0.11972">
        <ele>4.9</ele>
        <time>2023-07-05T12:06:29Z</time>
      </trkpt>
      <trkpt lat="49.28601" lon="-0.11975">
        <ele>4.9</ele>
        <time>2023-07-05T12:06:30Z</time>
      </trkpt>
      <trkpt lat="49.28599" lon="-0.11978">
        <ele>4.9</ele>
        <time>2023-07-05T12:06:31Z</time>
      </trkpt>
      <trkpt lat="49.28597" lon="-0.11982">
        <ele>4.9</ele>
        <time>2023-07-05T12:06:32Z</time>
      </trkpt>
      <trkpt lat="49.28593" lon="-0.11986">
        <ele>4.8</ele>
        <time>2023-07-05T12:06:33Z</time>
      </trkpt>
      <trkpt lat="49.2859" lon="-0.11991">
        <ele>4.8</ele>
        <time>2023-07-05T12:06:34Z</time>
      </trkpt>
      <trkpt lat="49.28587" lon="-0.11996">
        <ele>4.8</ele>
        <time>2023-07-05T12:06:35Z</time>
      </trkpt>
      <trkpt lat="49.28584" lon="-0.12001">
        <ele>4.8</ele>
        <time>2023-07-05T12:06:36Z</time>
      </trkpt>
      <trkpt lat="49.28581" lon="-0.12006">
        <ele>4.8</ele>
        <time>2023-07-05T12:06:37Z</time>
      </trkpt>
      <trkpt lat="49.28577" lon="-0.12012">
        <ele>4.8</ele>
        <time>2023-07-05T12:06:38Z</time>
      </trkpt>
      <trkpt lat="49.28574" lon="-0.12017">
        <ele>4.9</ele>
        <time>2023-07-05T12:06:39Z</time>
      </trkpt>
      <trkpt lat="49.28571" lon="-0.12022">
        <ele>4.9</ele>
        <time>2023-07-05T12:06:40Z</time>
      </trkpt>
      <trkpt lat="49.28567" lon="-0.12028">
        <ele>4.9</ele>
        <time>2023-07-05T12:06:41Z</time>
      </trkpt>
      <trkpt lat="49.28563" lon="-0.12034">
        <ele>4.9</ele>
        <time>2023-07-05T12:06:42Z</time>
      </trkpt>
      <trkpt lat="49.2856" lon="-0.12041">
        <ele>4.9</ele>
        <time>2023-07-05T12:06:43Z</time>
      </trkpt>
      <trkpt lat="49.28557" lon="-0.12047">
        <ele>4.9</ele>
        <time>2023-07-05T12:06:44Z</time>
      </trkpt>
      <trkpt lat="49.28554" lon="-0.12053">
        <ele>4.9</ele>
        <time>2023-07-05T12:06:45Z</time>
      </trkpt>
      <trkpt lat="49.2855" lon="-0.12058">
        <ele>4.9</ele>
        <time>2023-07-05T12:06:46Z</time>
      </trkpt>
      <trkpt lat="49.28547" lon="-0.12064">
        <ele>4.9</ele>
        <time>2023-07-05T12:06:47Z</time>
      </trkpt>
      <trkpt lat="49.28544" lon="-0.12069">
        <ele>4.9</ele>
        <time>2023-07-05T12:06:48Z</time>
      </trkpt>
      <trkpt lat="49.2854" lon="-0.12075">
        <ele>4.9</ele>
        <time>2023-07-05T12:06:49Z</time>
      </trkpt>
      <trkpt lat="49.28537" lon="-0.12082">
        <ele>4.9</ele>
        <time>2023-07-05T12:06:50Z</time>
      </trkpt>
      <trkpt lat="49.28534" lon="-0.12088">
        <ele>4.9</ele>
        <time>2023-07-05T12:06:51Z</time>
      </trkpt>
      <trkpt lat="49.2853" lon="-0.12093">
        <ele>4.9</ele>
        <time>2023-07-05T12:06:52Z</time>
      </trkpt>
      <trkpt lat="49.28527" lon="-0.12099">
        <ele>4.8</ele>
        <time>2023-07-05T12:06:53Z</time>
      </trkpt>
      <trkpt lat="49.28524" lon="-0.12105">
        <ele>4.8</ele>
        <time>2023-07-05T12:06:54Z</time>
      </trkpt>
      <trkpt lat="49.2852" lon="-0.12111">
        <ele>4.8</ele>
        <time>2023-07-05T12:06:55Z</time>
      </trkpt>
      <trkpt lat="49.28517" lon="-0.12117">
        <ele>4.8</ele>
        <time>2023-07-05T12:06:56Z</time>
      </trkpt>
      <trkpt lat="49.28513" lon="-0.12124">
        <ele>4.7</ele>
        <time>2023-07-05T12:06:57Z</time>
      </trkpt>
      <trkpt lat="49.2851" lon="-0.1213">
        <ele>4.7</ele>
        <time>2023-07-05T12:06:58Z</time>
      </trkpt>
      <trkpt lat="49.28507" lon="-0.12136">
        <ele>4.6</ele>
        <time>2023-07-05T12:06:59Z</time>
      </trkpt>
      <trkpt lat="49.28503" lon="-0.12142">
        <ele>4.6</ele>
        <time>2023-07-05T12:07:00Z</time>
      </trkpt>
      <trkpt lat="49.285" lon="-0.12148">
        <ele>4.5</ele>
        <time>2023-07-05T12:07:01Z</time>
      </trkpt>
      <trkpt lat="49.28496" lon="-0.12154">
        <ele>4.5</ele>
        <time>2023-07-05T12:07:02Z</time>
      </trkpt>
      <trkpt lat="49.28493" lon="-0.1216">
        <ele>4.5</ele>
        <time>2023-07-05T12:07:03Z</time>
      </trkpt>
      <trkpt lat="49.28489" lon="-0.12165">
        <ele>4.4</ele>
        <time>2023-07-05T12:07:04Z</time>
      </trkpt>
      <trkpt lat="49.28486" lon="-0.12171">
        <ele>4.4</ele>
        <time>2023-07-05T12:07:05Z</time>
      </trkpt>
      <trkpt lat="49.28482" lon="-0.12177">
        <ele>4.3</ele>
        <time>2023-07-05T12:07:06Z</time>
      </trkpt>
      <trkpt lat="49.28479" lon="-0.12183">
        <ele>4.3</ele>
        <time>2023-07-05T12:07:07Z</time>
      </trkpt>
      <trkpt lat="49.28477" lon="-0.12189">
        <ele>4.3</ele>
        <time>2023-07-05T12:07:08Z</time>
      </trkpt>
      <trkpt lat="49.28475" lon="-0.12193">
        <ele>4.3</ele>
        <time>2023-07-05T12:07:09Z</time>
      </trkpt>
      <trkpt lat="49.28473" lon="-0.12198">
        <ele>4.1</ele>
        <time>2023-07-05T12:07:10Z</time>
      </trkpt>
      <trkpt lat="49.28473" lon="-0.122">
        <ele>4</ele>
        <time>2023-07-05T12:07:11Z</time>
      </trkpt>
      <trkpt lat="49.28471" lon="-0.12204">
        <ele>3.9</ele>
        <time>2023-07-05T12:07:12Z</time>
      </trkpt>
      <trkpt lat="49.28468" lon="-0.12208">
        <ele>3.9</ele>
        <time>2023-07-05T12:07:13Z</time>
      </trkpt>
      <trkpt lat="49.28465" lon="-0.12213">
        <ele>3.9</ele>
        <time>2023-07-05T12:07:14Z</time>
      </trkpt>
      <trkpt lat="49.28462" lon="-0.12219">
        <ele>3.9</ele>
        <time>2023-07-05T12:07:15Z</time>
      </trkpt>
      <trkpt lat="49.28459" lon="-0.12225">
        <ele>4</ele>
        <time>2023-07-05T12:07:16Z</time>
      </trkpt>
      <trkpt lat="49.28456" lon="-0.12231">
        <ele>4</ele>
        <time>2023-07-05T12:07:17Z</time>
      </trkpt>
      <trkpt lat="49.28453" lon="-0.12237">
        <ele>4</ele>
        <time>2023-07-05T12:07:18Z</time>
      </trkpt>
      <trkpt lat="49.2845" lon="-0.12243">
        <ele>4</ele>
        <time>2023-07-05T12:07:19Z</time>
      </trkpt>
      <trkpt lat="49.28446" lon="-0.12249">
        <ele>4</ele>
        <time>2023-07-05T12:07:20Z</time>
      </trkpt>
      <trkpt lat="49.28443" lon="-0.12255">
        <ele>4.1</ele>
        <time>2023-07-05T12:07:21Z</time>
      </trkpt>
      <trkpt lat="49.28439" lon="-0.12261">
        <ele>4.1</ele>
        <time>2023-07-05T12:07:22Z</time>
      </trkpt>
      <trkpt lat="49.28436" lon="-0.12268">
        <ele>4.2</ele>
        <time>2023-07-05T12:07:23Z</time>
      </trkpt>
      <trkpt lat="49.28432" lon="-0.12274">
        <ele>4.2</ele>
        <time>2023-07-05T12:07:24Z</time>
      </trkpt>
      <trkpt lat="49.28429" lon="-0.1228">
        <ele>4.2</ele>
        <time>2023-07-05T12:07:25Z</time>
      </trkpt>
      <trkpt lat="49.28426" lon="-0.12286">
        <ele>4.2</ele>
        <time>2023-07-05T12:07:26Z</time>
      </trkpt>
      <trkpt lat="49.28422" lon="-0.12292">
        <ele>4.3</ele>
        <time>2023-07-05T12:07:27Z</time>
      </trkpt>
      <trkpt lat="49.28419" lon="-0.12298">
        <ele>4.3</ele>
        <time>2023-07-05T12:07:28Z</time>
      </trkpt>
      <trkpt lat="49.28415" lon="-0.12305">
        <ele>4.3</ele>
        <time>2023-07-05T12:07:29Z</time>
      </trkpt>
      <trkpt lat="49.28412" lon="-0.12311">
        <ele>4.3</ele>
        <time>2023-07-05T12:07:30Z</time>
      </trkpt>
      <trkpt lat="49.28408" lon="-0.12318">
        <ele>4.3</ele>
        <time>2023-07-05T12:07:31Z</time>
      </trkpt>
      <trkpt lat="49.28404" lon="-0.12325">
        <ele>4.3</ele>
        <time>2023-07-05T12:07:32Z</time>
      </trkpt>
      <trkpt lat="49.28401" lon="-0.1233">
        <ele>4.3</ele>
        <time>2023-07-05T12:07:33Z</time>
      </trkpt>
      <trkpt lat="49.28397" lon="-0.12337">
        <ele>4.3</ele>
        <time>2023-07-05T12:07:34Z</time>
      </trkpt>
      <trkpt lat="49.28393" lon="-0.12343">
        <ele>4.3</ele>
        <time>2023-07-05T12:07:35Z</time>
      </trkpt>
      <trkpt lat="49.2839" lon="-0.1235">
        <ele>4.3</ele>
        <time>2023-07-05T12:07:36Z</time>
      </trkpt>
      <trkpt lat="49.28387" lon="-0.12356">
        <ele>4.3</ele>
        <time>2023-07-05T12:07:37Z</time>
      </trkpt>
      <trkpt lat="49.28383" lon="-0.12362">
        <ele>4.3</ele>
        <time>2023-07-05T12:07:38Z</time>
      </trkpt>
      <trkpt lat="49.28379" lon="-0.12367">
        <ele>4.3</ele>
        <time>2023-07-05T12:07:39Z</time>
      </trkpt>
      <trkpt lat="49.28375" lon="-0.12374">
        <ele>4.3</ele>
        <time>2023-07-05T12:07:40Z</time>
      </trkpt>
      <trkpt lat="49.28372" lon="-0.1238">
        <ele>4.3</ele>
        <time>2023-07-05T12:07:41Z</time>
      </trkpt>
      <trkpt lat="49.28368" lon="-0.12387">
        <ele>4.3</ele>
        <time>2023-07-05T12:07:42Z</time>
      </trkpt>
      <trkpt lat="49.28364" lon="-0.12393">
        <ele>4.4</ele>
        <time>2023-07-05T12:07:43Z</time>
      </trkpt>
      <trkpt lat="49.28361" lon="-0.124">
        <ele>4.4</ele>
        <time>2023-07-05T12:07:44Z</time>
      </trkpt>
      <trkpt lat="49.28357" lon="-0.12406">
        <ele>4.4</ele>
        <time>2023-07-05T12:07:45Z</time>
      </trkpt>
      <trkpt lat="49.28353" lon="-0.12412">
        <ele>4.4</ele>
        <time>2023-07-05T12:07:46Z</time>
      </trkpt>
      <trkpt lat="49.28349" lon="-0.12419">
        <ele>4.4</ele>
        <time>2023-07-05T12:07:47Z</time>
      </trkpt>
      <trkpt lat="49.28345" lon="-0.12426">
        <ele>4.4</ele>
        <time>2023-07-05T12:07:48Z</time>
      </trkpt>
      <trkpt lat="49.28341" lon="-0.12432">
        <ele>4.4</ele>
        <time>2023-07-05T12:07:49Z</time>
      </trkpt>
      <trkpt lat="49.28338" lon="-0.12439">
        <ele>4.3</ele>
        <time>2023-07-05T12:07:50Z</time>
      </trkpt>
      <trkpt lat="49.28333" lon="-0.12446">
        <ele>4.3</ele>
        <time>2023-07-05T12:07:51Z</time>
      </trkpt>
      <trkpt lat="49.28329" lon="-0.12453">
        <ele>4.2</ele>
        <time>2023-07-05T12:07:52Z</time>
      </trkpt>
      <trkpt lat="49.28325" lon="-0.1246">
        <ele>4.2</ele>
        <time>2023-07-05T12:07:53Z</time>
      </trkpt>
      <trkpt lat="49.28321" lon="-0.12467">
        <ele>4.2</ele>
        <time>2023-07-05T12:07:54Z</time>
      </trkpt>
      <trkpt lat="49.28317" lon="-0.12474">
        <ele>4.1</ele>
        <time>2023-07-05T12:07:55Z</time>
      </trkpt>
      <trkpt lat="49.28313" lon="-0.12481">
        <ele>4.1</ele>
        <time>2023-07-05T12:07:56Z</time>
      </trkpt>
      <trkpt lat="49.28309" lon="-0.12488">
        <ele>4</ele>
        <time>2023-07-05T12:07:57Z</time>
      </trkpt>
      <trkpt lat="49.28305" lon="-0.12495">
        <ele>4</ele>
        <time>2023-07-05T12:07:58Z</time>
      </trkpt>
      <trkpt lat="49.28301" lon="-0.12502">
        <ele>4</ele>
        <time>2023-07-05T12:07:59Z</time>
      </trkpt>
      <trkpt lat="49.28297" lon="-0.12509">
        <ele>3.9</ele>
        <time>2023-07-05T12:08:00Z</time>
      </trkpt>
      <trkpt lat="49.28294" lon="-0.12516">
        <ele>3.9</ele>
        <time>2023-07-05T12:08:01Z</time>
      </trkpt>
      <trkpt lat="49.2829" lon="-0.12523">
        <ele>3.8</ele>
        <time>2023-07-05T12:08:02Z</time>
      </trkpt>
      <trkpt lat="49.28285" lon="-0.12531">
        <ele>3.8</ele>
        <time>2023-07-05T12:08:03Z</time>
      </trkpt>
      <trkpt lat="49.28281" lon="-0.12539">
        <ele>3.8</ele>
        <time>2023-07-05T12:08:04Z</time>
      </trkpt>
      <trkpt lat="49.28277" lon="-0.12546">
        <ele>3.7</ele>
        <time>2023-07-05T12:08:05Z</time>
      </trkpt>
      <trkpt lat="49.28272" lon="-0.12554">
        <ele>3.7</ele>
        <time>2023-07-05T12:08:06Z</time>
      </trkpt>
      <trkpt lat="49.28267" lon="-0.12562">
        <ele>3.6</ele>
        <time>2023-07-05T12:08:07Z</time>
      </trkpt>
      <trkpt lat="49.28263" lon="-0.12569">
        <ele>3.6</ele>
        <time>2023-07-05T12:08:08Z</time>
      </trkpt>
      <trkpt lat="49.28258" lon="-0.12577">
        <ele>3.5</ele>
        <time>2023-07-05T12:08:09Z</time>
      </trkpt>
      <trkpt lat="49.28254" lon="-0.12584">
        <ele>3.5</ele>
        <time>2023-07-05T12:08:10Z</time>
      </trkpt>
      <trkpt lat="49.28249" lon="-0.12591">
        <ele>3.5</ele>
        <time>2023-07-05T12:08:11Z</time>
      </trkpt>
      <trkpt lat="49.28245" lon="-0.12598">
        <ele>3.5</ele>
        <time>2023-07-05T12:08:12Z</time>
      </trkpt>
      <trkpt lat="49.28241" lon="-0.12606">
        <ele>3.4</ele>
        <time>2023-07-05T12:08:13Z</time>
      </trkpt>
      <trkpt lat="49.28237" lon="-0.12614">
        <ele>3.4</ele>
        <time>2023-07-05T12:08:14Z</time>
      </trkpt>
      <trkpt lat="49.28233" lon="-0.12621">
        <ele>3.4</ele>
        <time>2023-07-05T12:08:15Z</time>
      </trkpt>
      <trkpt lat="49.2823" lon="-0.12628">
        <ele>3.4</ele>
        <time>2023-07-05T12:08:16Z</time>
      </trkpt>
      <trkpt lat="49.28226" lon="-0.12635">
        <ele>3.4</ele>
        <time>2023-07-05T12:08:17Z</time>
      </trkpt>
      <trkpt lat="49.28222" lon="-0.12642">
        <ele>3.4</ele>
        <time>2023-07-05T12:08:18Z</time>
      </trkpt>
      <trkpt lat="49.28218" lon="-0.12649">
        <ele>3.4</ele>
        <time>2023-07-05T12:08:19Z</time>
      </trkpt>
      <trkpt lat="49.28214" lon="-0.12656">
        <ele>3.4</ele>
        <time>2023-07-05T12:08:20Z</time>
      </trkpt>
      <trkpt lat="49.2821" lon="-0.12663">
        <ele>3.4</ele>
        <time>2023-07-05T12:08:21Z</time>
      </trkpt>
      <trkpt lat="49.28206" lon="-0.1267">
        <ele>3.4</ele>
        <time>2023-07-05T12:08:22Z</time>
      </trkpt>
      <trkpt lat="49.28202" lon="-0.12678">
        <ele>3.4</ele>
        <time>2023-07-05T12:08:23Z</time>
      </trkpt>
      <trkpt lat="49.28197" lon="-0.12685">
        <ele>3.4</ele>
        <time>2023-07-05T12:08:24Z</time>
      </trkpt>
      <trkpt lat="49.28193" lon="-0.12692">
        <ele>3.4</ele>
        <time>2023-07-05T12:08:25Z</time>
      </trkpt>
      <trkpt lat="49.2819" lon="-0.12698">
        <ele>3.4</ele>
        <time>2023-07-05T12:08:26Z</time>
      </trkpt>
      <trkpt lat="49.28187" lon="-0.12704">
        <ele>3.4</ele>
        <time>2023-07-05T12:08:27Z</time>
      </trkpt>
      <trkpt lat="49.28183" lon="-0.1271">
        <ele>3.4</ele>
        <time>2023-07-05T12:08:28Z</time>
      </trkpt>
      <trkpt lat="49.2818" lon="-0.12717">
        <ele>3.4</ele>
        <time>2023-07-05T12:08:29Z</time>
      </trkpt>
      <trkpt lat="49.28176" lon="-0.12723">
        <ele>3.4</ele>
        <time>2023-07-05T12:08:30Z</time>
      </trkpt>
      <trkpt lat="49.28172" lon="-0.12729">
        <ele>3.4</ele>
        <time>2023-07-05T12:08:31Z</time>
      </trkpt>
      <trkpt lat="49.28167" lon="-0.12736">
        <ele>3.4</ele>
        <time>2023-07-05T12:08:32Z</time>
      </trkpt>
      <trkpt lat="49.28163" lon="-0.12744">
        <ele>3.5</ele>
        <time>2023-07-05T12:08:33Z</time>
      </trkpt>
      <trkpt lat="49.28159" lon="-0.12752">
        <ele>3.5</ele>
        <time>2023-07-05T12:08:34Z</time>
      </trkpt>
      <trkpt lat="49.28155" lon="-0.1276">
        <ele>3.5</ele>
        <time>2023-07-05T12:08:35Z</time>
      </trkpt>
      <trkpt lat="49.28151" lon="-0.12767">
        <ele>3.5</ele>
        <time>2023-07-05T12:08:36Z</time>
      </trkpt>
      <trkpt lat="49.28147" lon="-0.12774">
        <ele>3.5</ele>
        <time>2023-07-05T12:08:37Z</time>
      </trkpt>
      <trkpt lat="49.28143" lon="-0.12781">
        <ele>3.5</ele>
        <time>2023-07-05T12:08:38Z</time>
      </trkpt>
      <trkpt lat="49.28139" lon="-0.12789">
        <ele>3.5</ele>
        <time>2023-07-05T12:08:39Z</time>
      </trkpt>
      <trkpt lat="49.28135" lon="-0.12796">
        <ele>3.6</ele>
        <time>2023-07-05T12:08:40Z</time>
      </trkpt>
      <trkpt lat="49.2813" lon="-0.12804">
        <ele>3.6</ele>
        <time>2023-07-05T12:08:41Z</time>
      </trkpt>
      <trkpt lat="49.28126" lon="-0.12812">
        <ele>3.6</ele>
        <time>2023-07-05T12:08:42Z</time>
      </trkpt>
      <trkpt lat="49.28121" lon="-0.12819">
        <ele>3.6</ele>
        <time>2023-07-05T12:08:43Z</time>
      </trkpt>
      <trkpt lat="49.28117" lon="-0.12827">
        <ele>3.6</ele>
        <time>2023-07-05T12:08:44Z</time>
      </trkpt>
      <trkpt lat="49.28112" lon="-0.12835">
        <ele>3.5</ele>
        <time>2023-07-05T12:08:45Z</time>
      </trkpt>
      <trkpt lat="49.28108" lon="-0.12843">
        <ele>3.5</ele>
        <time>2023-07-05T12:08:46Z</time>
      </trkpt>
      <trkpt lat="49.28104" lon="-0.12852">
        <ele>3.5</ele>
        <time>2023-07-05T12:08:47Z</time>
      </trkpt>
      <trkpt lat="49.281" lon="-0.12859">
        <ele>3.5</ele>
        <time>2023-07-05T12:08:48Z</time>
      </trkpt>
      <trkpt lat="49.28095" lon="-0.12867">
        <ele>3.5</ele>
        <time>2023-07-05T12:08:49Z</time>
      </trkpt>
      <trkpt lat="49.2809" lon="-0.12875">
        <ele>3.6</ele>
        <time>2023-07-05T12:08:50Z</time>
      </trkpt>
      <trkpt lat="49.28086" lon="-0.12883">
        <ele>3.6</ele>
        <time>2023-07-05T12:08:51Z</time>
      </trkpt>
      <trkpt lat="49.28081" lon="-0.1289">
        <ele>3.6</ele>
        <time>2023-07-05T12:08:52Z</time>
      </trkpt>
      <trkpt lat="49.28077" lon="-0.12899">
        <ele>3.7</ele>
        <time>2023-07-05T12:08:53Z</time>
      </trkpt>
      <trkpt lat="49.28072" lon="-0.12907">
        <ele>3.7</ele>
        <time>2023-07-05T12:08:54Z</time>
      </trkpt>
      <trkpt lat="49.28068" lon="-0.12915">
        <ele>3.7</ele>
        <time>2023-07-05T12:08:55Z</time>
      </trkpt>
      <trkpt lat="49.28063" lon="-0.12924">
        <ele>3.7</ele>
        <time>2023-07-05T12:08:56Z</time>
      </trkpt>
      <trkpt lat="49.28058" lon="-0.12933">
        <ele>3.8</ele>
        <time>2023-07-05T12:08:57Z</time>
      </trkpt>
      <trkpt lat="49.28054" lon="-0.12941">
        <ele>3.8</ele>
        <time>2023-07-05T12:08:58Z</time>
      </trkpt>
      <trkpt lat="49.28049" lon="-0.12949">
        <ele>3.8</ele>
        <time>2023-07-05T12:08:59Z</time>
      </trkpt>
      <trkpt lat="49.28045" lon="-0.12957">
        <ele>3.9</ele>
        <time>2023-07-05T12:09:00Z</time>
      </trkpt>
      <trkpt lat="49.2804" lon="-0.12965">
        <ele>3.9</ele>
        <time>2023-07-05T12:09:01Z</time>
      </trkpt>
      <trkpt lat="49.28036" lon="-0.12972">
        <ele>3.9</ele>
        <time>2023-07-05T12:09:02Z</time>
      </trkpt>
      <trkpt lat="49.28032" lon="-0.1298">
        <ele>3.9</ele>
        <time>2023-07-05T12:09:03Z</time>
      </trkpt>
      <trkpt lat="49.28028" lon="-0.12988">
        <ele>4.1</ele>
        <time>2023-07-05T12:09:04Z</time>
      </trkpt>
      <trkpt lat="49.28023" lon="-0.12995">
        <ele>4.2</ele>
        <time>2023-07-05T12:09:05Z</time>
      </trkpt>
      <trkpt lat="49.28019" lon="-0.13004">
        <ele>4.2</ele>
        <time>2023-07-05T12:09:06Z</time>
      </trkpt>
      <trkpt lat="49.28015" lon="-0.13011">
        <ele>4.2</ele>
        <time>2023-07-05T12:09:07Z</time>
      </trkpt>
      <trkpt lat="49.28011" lon="-0.13019">
        <ele>4.2</ele>
        <time>2023-07-05T12:09:08Z</time>
      </trkpt>
      <trkpt lat="49.28006" lon="-0.13027">
        <ele>4.3</ele>
        <time>2023-07-05T12:09:09Z</time>
      </trkpt>
      <trkpt lat="49.28002" lon="-0.13035">
        <ele>4.3</ele>
        <time>2023-07-05T12:09:10Z</time>
      </trkpt>
      <trkpt lat="49.27997" lon="-0.13044">
        <ele>4.2</ele>
        <time>2023-07-05T12:09:11Z</time>
      </trkpt>
      <trkpt lat="49.27992" lon="-0.13052">
        <ele>4.2</ele>
        <time>2023-07-05T12:09:12Z</time>
      </trkpt>
      <trkpt lat="49.27987" lon="-0.13061">
        <ele>4.2</ele>
        <time>2023-07-05T12:09:13Z</time>
      </trkpt>
      <trkpt lat="49.27982" lon="-0.1307">
        <ele>4.2</ele>
        <time>2023-07-05T12:09:14Z</time>
      </trkpt>
      <trkpt lat="49.27977" lon="-0.13079">
        <ele>4.2</ele>
        <time>2023-07-05T12:09:15Z</time>
      </trkpt>
      <trkpt lat="49.27972" lon="-0.13087">
        <ele>4.2</ele>
        <time>2023-07-05T12:09:16Z</time>
      </trkpt>
      <trkpt lat="49.27967" lon="-0.13096">
        <ele>4.2</ele>
        <time>2023-07-05T12:09:17Z</time>
      </trkpt>
      <trkpt lat="49.27962" lon="-0.13104">
        <ele>4.2</ele>
        <time>2023-07-05T12:09:18Z</time>
      </trkpt>
      <trkpt lat="49.27958" lon="-0.13112">
        <ele>4.2</ele>
        <time>2023-07-05T12:09:19Z</time>
      </trkpt>
      <trkpt lat="49.27953" lon="-0.13121">
        <ele>4.2</ele>
        <time>2023-07-05T12:09:20Z</time>
      </trkpt>
      <trkpt lat="49.27949" lon="-0.13129">
        <ele>4.2</ele>
        <time>2023-07-05T12:09:21Z</time>
      </trkpt>
      <trkpt lat="49.27944" lon="-0.13138">
        <ele>4.2</ele>
        <time>2023-07-05T12:09:22Z</time>
      </trkpt>
      <trkpt lat="49.27939" lon="-0.13146">
        <ele>4.2</ele>
        <time>2023-07-05T12:09:23Z</time>
      </trkpt>
      <trkpt lat="49.27934" lon="-0.13155">
        <ele>4.1</ele>
        <time>2023-07-05T12:09:24Z</time>
      </trkpt>
      <trkpt lat="49.27929" lon="-0.13163">
        <ele>4.1</ele>
        <time>2023-07-05T12:09:25Z</time>
      </trkpt>
      <trkpt lat="49.27924" lon="-0.13171">
        <ele>4.1</ele>
        <time>2023-07-05T12:09:26Z</time>
      </trkpt>
      <trkpt lat="49.2792" lon="-0.13179">
        <ele>4.1</ele>
        <time>2023-07-05T12:09:27Z</time>
      </trkpt>
      <trkpt lat="49.27915" lon="-0.13188">
        <ele>4</ele>
        <time>2023-07-05T12:09:28Z</time>
      </trkpt>
      <trkpt lat="49.2791" lon="-0.13196">
        <ele>4</ele>
        <time>2023-07-05T12:09:29Z</time>
      </trkpt>
      <trkpt lat="49.27905" lon="-0.13205">
        <ele>4</ele>
        <time>2023-07-05T12:09:30Z</time>
      </trkpt>
      <trkpt lat="49.27901" lon="-0.13213">
        <ele>3.8</ele>
        <time>2023-07-05T12:09:31Z</time>
      </trkpt>
      <trkpt lat="49.27896" lon="-0.13222">
        <ele>3.7</ele>
        <time>2023-07-05T12:09:32Z</time>
      </trkpt>
      <trkpt lat="49.27892" lon="-0.1323">
        <ele>3.7</ele>
        <time>2023-07-05T12:09:33Z</time>
      </trkpt>
      <trkpt lat="49.27887" lon="-0.13238">
        <ele>3.6</ele>
        <time>2023-07-05T12:09:34Z</time>
      </trkpt>
      <trkpt lat="49.27883" lon="-0.13246">
        <ele>3.6</ele>
        <time>2023-07-05T12:09:35Z</time>
      </trkpt>
      <trkpt lat="49.27878" lon="-0.13254">
        <ele>3.6</ele>
        <time>2023-07-05T12:09:36Z</time>
      </trkpt>
      <trkpt lat="49.27873" lon="-0.13263">
        <ele>3.6</ele>
        <time>2023-07-05T12:09:37Z</time>
      </trkpt>
      <trkpt lat="49.27869" lon="-0.13271">
        <ele>3.6</ele>
        <time>2023-07-05T12:09:38Z</time>
      </trkpt>
      <trkpt lat="49.27865" lon="-0.13279">
        <ele>3.7</ele>
        <time>2023-07-05T12:09:39Z</time>
      </trkpt>
      <trkpt lat="49.27861" lon="-0.13287">
        <ele>3.7</ele>
        <time>2023-07-05T12:09:40Z</time>
      </trkpt>
      <trkpt lat="49.27858" lon="-0.13296">
        <ele>3.7</ele>
        <time>2023-07-05T12:09:41Z</time>
      </trkpt>
      <trkpt lat="49.27856" lon="-0.13305">
        <ele>3.8</ele>
        <time>2023-07-05T12:09:42Z</time>
      </trkpt>
      <trkpt lat="49.27855" lon="-0.13314">
        <ele>3.9</ele>
        <time>2023-07-05T12:09:43Z</time>
      </trkpt>
      <trkpt lat="49.27854" lon="-0.13322">
        <ele>3.9</ele>
        <time>2023-07-05T12:09:44Z</time>
      </trkpt>
      <trkpt lat="49.27855" lon="-0.13332">
        <ele>4.1</ele>
        <time>2023-07-05T12:09:45Z</time>
      </trkpt>
      <trkpt lat="49.27857" lon="-0.1334">
        <ele>4.2</ele>
        <time>2023-07-05T12:09:46Z</time>
      </trkpt>
      <trkpt lat="49.2786" lon="-0.13348">
        <ele>4.2</ele>
        <time>2023-07-05T12:09:47Z</time>
      </trkpt>
      <trkpt lat="49.27863" lon="-0.13356">
        <ele>4.3</ele>
        <time>2023-07-05T12:09:48Z</time>
      </trkpt>
      <trkpt lat="49.27867" lon="-0.13364">
        <ele>4.3</ele>
        <time>2023-07-05T12:09:49Z</time>
      </trkpt>
      <trkpt lat="49.27872" lon="-0.13372">
        <ele>4.3</ele>
        <time>2023-07-05T12:09:50Z</time>
      </trkpt>
      <trkpt lat="49.27878" lon="-0.13377">
        <ele>4.3</ele>
        <time>2023-07-05T12:09:51Z</time>
      </trkpt>
      <trkpt lat="49.27884" lon="-0.13382">
        <ele>4.3</ele>
        <time>2023-07-05T12:09:52Z</time>
      </trkpt>
      <trkpt lat="49.27891" lon="-0.13387">
        <ele>4.3</ele>
        <time>2023-07-05T12:09:53Z</time>
      </trkpt>
      <trkpt lat="49.27897" lon="-0.13392">
        <ele>4.3</ele>
        <time>2023-07-05T12:09:54Z</time>
      </trkpt>
      <trkpt lat="49.27903" lon="-0.13396">
        <ele>4.3</ele>
        <time>2023-07-05T12:09:55Z</time>
      </trkpt>
      <trkpt lat="49.27909" lon="-0.13401">
        <ele>4.3</ele>
        <time>2023-07-05T12:09:56Z</time>
      </trkpt>
      <trkpt lat="49.27915" lon="-0.13405">
        <ele>4.3</ele>
        <time>2023-07-05T12:09:57Z</time>
      </trkpt>
      <trkpt lat="49.27921" lon="-0.13409">
        <ele>4.2</ele>
        <time>2023-07-05T12:09:58Z</time>
      </trkpt>
      <trkpt lat="49.27927" lon="-0.13414">
        <ele>4.2</ele>
        <time>2023-07-05T12:09:59Z</time>
      </trkpt>
      <trkpt lat="49.27933" lon="-0.13418">
        <ele>4.2</ele>
        <time>2023-07-05T12:10:00Z</time>
      </trkpt>
      <trkpt lat="49.27939" lon="-0.13423">
        <ele>4.2</ele>
        <time>2023-07-05T12:10:01Z</time>
      </trkpt>
      <trkpt lat="49.27945" lon="-0.13427">
        <ele>4.2</ele>
        <time>2023-07-05T12:10:02Z</time>
      </trkpt>
      <trkpt lat="49.27951" lon="-0.13431">
        <ele>4.2</ele>
        <time>2023-07-05T12:10:03Z</time>
      </trkpt>
      <trkpt lat="49.27957" lon="-0.13436">
        <ele>4.2</ele>
        <time>2023-07-05T12:10:04Z</time>
      </trkpt>
      <trkpt lat="49.27963" lon="-0.1344">
        <ele>4.2</ele>
        <time>2023-07-05T12:10:05Z</time>
      </trkpt>
      <trkpt lat="49.27969" lon="-0.13444">
        <ele>4.3</ele>
        <time>2023-07-05T12:10:06Z</time>
      </trkpt>
      <trkpt lat="49.27976" lon="-0.13448">
        <ele>4.3</ele>
        <time>2023-07-05T12:10:07Z</time>
      </trkpt>
      <trkpt lat="49.27982" lon="-0.13452">
        <ele>4.3</ele>
        <time>2023-07-05T12:10:08Z</time>
      </trkpt>
      <trkpt lat="49.27988" lon="-0.13456">
        <ele>4.3</ele>
        <time>2023-07-05T12:10:09Z</time>
      </trkpt>
      <trkpt lat="49.27995" lon="-0.1346">
        <ele>4.3</ele>
        <time>2023-07-05T12:10:10Z</time>
      </trkpt>
      <trkpt lat="49.28001" lon="-0.13464">
        <ele>4.3</ele>
        <time>2023-07-05T12:10:11Z</time>
      </trkpt>
      <trkpt lat="49.28008" lon="-0.13468">
        <ele>4.3</ele>
        <time>2023-07-05T12:10:12Z</time>
      </trkpt>
      <trkpt lat="49.28014" lon="-0.13471">
        <ele>4.3</ele>
        <time>2023-07-05T12:10:13Z</time>
      </trkpt>
      <trkpt lat="49.28021" lon="-0.13474">
        <ele>4.3</ele>
        <time>2023-07-05T12:10:14Z</time>
      </trkpt>
      <trkpt lat="49.28028" lon="-0.13478">
        <ele>4.4</ele>
        <time>2023-07-05T12:10:15Z</time>
      </trkpt>
      <trkpt lat="49.28034" lon="-0.13482">
        <ele>4.4</ele>
        <time>2023-07-05T12:10:16Z</time>
      </trkpt>
      <trkpt lat="49.28041" lon="-0.13485">
        <ele>4.4</ele>
        <time>2023-07-05T12:10:17Z</time>
      </trkpt>
      <trkpt lat="49.28048" lon="-0.13489">
        <ele>4.4</ele>
        <time>2023-07-05T12:10:18Z</time>
      </trkpt>
      <trkpt lat="49.28054" lon="-0.13493">
        <ele>4.4</ele>
        <time>2023-07-05T12:10:19Z</time>
      </trkpt>
      <trkpt lat="49.28061" lon="-0.13498">
        <ele>4.4</ele>
        <time>2023-07-05T12:10:20Z</time>
      </trkpt>
      <trkpt lat="49.28068" lon="-0.13502">
        <ele>4.4</ele>
        <time>2023-07-05T12:10:21Z</time>
      </trkpt>
      <trkpt lat="49.28075" lon="-0.13506">
        <ele>4.4</ele>
        <time>2023-07-05T12:10:22Z</time>
      </trkpt>
      <trkpt lat="49.28081" lon="-0.13511">
        <ele>4.4</ele>
        <time>2023-07-05T12:10:23Z</time>
      </trkpt>
      <trkpt lat="49.28088" lon="-0.13515">
        <ele>4.5</ele>
        <time>2023-07-05T12:10:24Z</time>
      </trkpt>
      <trkpt lat="49.28094" lon="-0.13519">
        <ele>4.5</ele>
        <time>2023-07-05T12:10:25Z</time>
      </trkpt>
      <trkpt lat="49.28101" lon="-0.13523">
        <ele>4.5</ele>
        <time>2023-07-05T12:10:26Z</time>
      </trkpt>
      <trkpt lat="49.28108" lon="-0.13527">
        <ele>4.5</ele>
        <time>2023-07-05T12:10:27Z</time>
      </trkpt>
      <trkpt lat="49.28114" lon="-0.13531">
        <ele>4.5</ele>
        <time>2023-07-05T12:10:28Z</time>
      </trkpt>
      <trkpt lat="49.28121" lon="-0.13535">
        <ele>4.6</ele>
        <time>2023-07-05T12:10:29Z</time>
      </trkpt>
      <trkpt lat="49.28127" lon="-0.13539">
        <ele>4.6</ele>
        <time>2023-07-05T12:10:30Z</time>
      </trkpt>
      <trkpt lat="49.28134" lon="-0.13542">
        <ele>4.6</ele>
        <time>2023-07-05T12:10:31Z</time>
      </trkpt>
      <trkpt lat="49.2814" lon="-0.13546">
        <ele>4.6</ele>
        <time>2023-07-05T12:10:32Z</time>
      </trkpt>
      <trkpt lat="49.28146" lon="-0.1355">
        <ele>4.6</ele>
        <time>2023-07-05T12:10:33Z</time>
      </trkpt>
      <trkpt lat="49.28153" lon="-0.13554">
        <ele>4.6</ele>
        <time>2023-07-05T12:10:34Z</time>
      </trkpt>
      <trkpt lat="49.2816" lon="-0.13558">
        <ele>4.6</ele>
        <time>2023-07-05T12:10:35Z</time>
      </trkpt>
      <trkpt lat="49.28167" lon="-0.13562">
        <ele>4.6</ele>
        <time>2023-07-05T12:10:36Z</time>
      </trkpt>
      <trkpt lat="49.28173" lon="-0.13566">
        <ele>4.7</ele>
        <time>2023-07-05T12:10:37Z</time>
      </trkpt>
      <trkpt lat="49.2818" lon="-0.1357">
        <ele>4.7</ele>
        <time>2023-07-05T12:10:38Z</time>
      </trkpt>
      <trkpt lat="49.28186" lon="-0.13573">
        <ele>4.7</ele>
        <time>2023-07-05T12:10:39Z</time>
      </trkpt>
      <trkpt lat="49.28193" lon="-0.13576">
        <ele>4.7</ele>
        <time>2023-07-05T12:10:40Z</time>
      </trkpt>
      <trkpt lat="49.28199" lon="-0.1358">
        <ele>4.7</ele>
        <time>2023-07-05T12:10:41Z</time>
      </trkpt>
      <trkpt lat="49.28206" lon="-0.13583">
        <ele>4.7</ele>
        <time>2023-07-05T12:10:42Z</time>
      </trkpt>
      <trkpt lat="49.28213" lon="-0.13587">
        <ele>4.6</ele>
        <time>2023-07-05T12:10:43Z</time>
      </trkpt>
      <trkpt lat="49.28219" lon="-0.1359">
        <ele>4.5</ele>
        <time>2023-07-05T12:10:44Z</time>
      </trkpt>
      <trkpt lat="49.28225" lon="-0.13594">
        <ele>4.5</ele>
        <time>2023-07-05T12:10:45Z</time>
      </trkpt>
      <trkpt lat="49.28232" lon="-0.13597">
        <ele>4.5</ele>
        <time>2023-07-05T12:10:46Z</time>
      </trkpt>
      <trkpt lat="49.28238" lon="-0.136">
        <ele>4.5</ele>
        <time>2023-07-05T12:10:47Z</time>
      </trkpt>
      <trkpt lat="49.28244" lon="-0.13603">
        <ele>4.5</ele>
        <time>2023-07-05T12:10:48Z</time>
      </trkpt>
      <trkpt lat="49.28251" lon="-0.13607">
        <ele>4.5</ele>
        <time>2023-07-05T12:10:49Z</time>
      </trkpt>
      <trkpt lat="49.28257" lon="-0.1361">
        <ele>4.5</ele>
        <time>2023-07-05T12:10:50Z</time>
      </trkpt>
      <trkpt lat="49.28263" lon="-0.13614">
        <ele>4.6</ele>
        <time>2023-07-05T12:10:51Z</time>
      </trkpt>
      <trkpt lat="49.28269" lon="-0.13617">
        <ele>4.6</ele>
        <time>2023-07-05T12:10:52Z</time>
      </trkpt>
      <trkpt lat="49.28274" lon="-0.13619">
        <ele>4.7</ele>
        <time>2023-07-05T12:10:53Z</time>
      </trkpt>
      <trkpt lat="49.2828" lon="-0.13622">
        <ele>4.7</ele>
        <time>2023-07-05T12:10:54Z</time>
      </trkpt>
      <trkpt lat="49.28285" lon="-0.13625">
        <ele>4.8</ele>
        <time>2023-07-05T12:10:55Z</time>
      </trkpt>
      <trkpt lat="49.28291" lon="-0.13627">
        <ele>4.8</ele>
        <time>2023-07-05T12:10:56Z</time>
      </trkpt>
      <trkpt lat="49.28297" lon="-0.13628">
        <ele>4.9</ele>
        <time>2023-07-05T12:10:57Z</time>
      </trkpt>
      <trkpt lat="49.28302" lon="-0.13628">
        <ele>4.9</ele>
        <time>2023-07-05T12:10:58Z</time>
      </trkpt>
      <trkpt lat="49.28308" lon="-0.13627">
        <ele>4.9</ele>
        <time>2023-07-05T12:10:59Z</time>
      </trkpt>
      <trkpt lat="49.28314" lon="-0.13626">
        <ele>4.9</ele>
        <time>2023-07-05T12:11:00Z</time>
      </trkpt>
      <trkpt lat="49.28319" lon="-0.13626">
        <ele>4.9</ele>
        <time>2023-07-05T12:11:01Z</time>
      </trkpt>
      <trkpt lat="49.28324" lon="-0.13629">
        <ele>4.9</ele>
        <time>2023-07-05T12:11:02Z</time>
      </trkpt>
      <trkpt lat="49.28326" lon="-0.13636">
        <ele>5</ele>
        <time>2023-07-05T12:11:03Z</time>
      </trkpt>
      <trkpt lat="49.28325" lon="-0.13645">
        <ele>5</ele>
        <time>2023-07-05T12:11:04Z</time>
      </trkpt>
      <trkpt lat="49.28322" lon="-0.13654">
        <ele>5</ele>
        <time>2023-07-05T12:11:05Z</time>
      </trkpt>
      <trkpt lat="49.28317" lon="-0.13661">
        <ele>5</ele>
        <time>2023-07-05T12:11:06Z</time>
      </trkpt>
      <trkpt lat="49.28312" lon="-0.13669">
        <ele>5</ele>
        <time>2023-07-05T12:11:07Z</time>
      </trkpt>
      <trkpt lat="49.28308" lon="-0.13678">
        <ele>5</ele>
        <time>2023-07-05T12:11:08Z</time>
      </trkpt>
      <trkpt lat="49.28306" lon="-0.13687">
        <ele>5</ele>
        <time>2023-07-05T12:11:09Z</time>
      </trkpt>
      <trkpt lat="49.28304" lon="-0.13696">
        <ele>5</ele>
        <time>2023-07-05T12:11:10Z</time>
      </trkpt>
      <trkpt lat="49.28302" lon="-0.13704">
        <ele>5</ele>
        <time>2023-07-05T12:11:11Z</time>
      </trkpt>
      <trkpt lat="49.283" lon="-0.13713">
        <ele>5</ele>
        <time>2023-07-05T12:11:12Z</time>
      </trkpt>
      <trkpt lat="49.28298" lon="-0.13721">
        <ele>5</ele>
        <time>2023-07-05T12:11:13Z</time>
      </trkpt>
      <trkpt lat="49.28296" lon="-0.13729">
        <ele>5</ele>
        <time>2023-07-05T12:11:14Z</time>
      </trkpt>
      <trkpt lat="49.28293" lon="-0.13737">
        <ele>5</ele>
        <time>2023-07-05T12:11:15Z</time>
      </trkpt>
      <trkpt lat="49.28291" lon="-0.13744">
        <ele>5</ele>
        <time>2023-07-05T12:11:16Z</time>
      </trkpt>
      <trkpt lat="49.28289" lon="-0.13751">
        <ele>5</ele>
        <time>2023-07-05T12:11:17Z</time>
      </trkpt>
      <trkpt lat="49.28287" lon="-0.13759">
        <ele>5</ele>
        <time>2023-07-05T12:11:18Z</time>
      </trkpt>
      <trkpt lat="49.28284" lon="-0.13766">
        <ele>5</ele>
        <time>2023-07-05T12:11:19Z</time>
      </trkpt>
      <trkpt lat="49.28282" lon="-0.13773">
        <ele>5</ele>
        <time>2023-07-05T12:11:20Z</time>
      </trkpt>
      <trkpt lat="49.2828" lon="-0.13781">
        <ele>5</ele>
        <time>2023-07-05T12:11:21Z</time>
      </trkpt>
      <trkpt lat="49.28277" lon="-0.1379">
        <ele>5</ele>
        <time>2023-07-05T12:11:22Z</time>
      </trkpt>
      <trkpt lat="49.28274" lon="-0.13799">
        <ele>5</ele>
        <time>2023-07-05T12:11:23Z</time>
      </trkpt>
      <trkpt lat="49.28272" lon="-0.13808">
        <ele>5</ele>
        <time>2023-07-05T12:11:24Z</time>
      </trkpt>
      <trkpt lat="49.28269" lon="-0.13817">
        <ele>5</ele>
        <time>2023-07-05T12:11:25Z</time>
      </trkpt>
      <trkpt lat="49.28266" lon="-0.13826">
        <ele>4.9</ele>
        <time>2023-07-05T12:11:26Z</time>
      </trkpt>
      <trkpt lat="49.28263" lon="-0.13835">
        <ele>4.9</ele>
        <time>2023-07-05T12:11:27Z</time>
      </trkpt>
      <trkpt lat="49.28259" lon="-0.13844">
        <ele>4.9</ele>
        <time>2023-07-05T12:11:28Z</time>
      </trkpt>
      <trkpt lat="49.28256" lon="-0.13854">
        <ele>4.9</ele>
        <time>2023-07-05T12:11:29Z</time>
      </trkpt>
      <trkpt lat="49.28253" lon="-0.13863">
        <ele>4.9</ele>
        <time>2023-07-05T12:11:30Z</time>
      </trkpt>
      <trkpt lat="49.2825" lon="-0.13871">
        <ele>4.9</ele>
        <time>2023-07-05T12:11:31Z</time>
      </trkpt>
      <trkpt lat="49.28247" lon="-0.1388">
        <ele>4.9</ele>
        <time>2023-07-05T12:11:32Z</time>
      </trkpt>
      <trkpt lat="49.28244" lon="-0.13889">
        <ele>4.9</ele>
        <time>2023-07-05T12:11:33Z</time>
      </trkpt>
      <trkpt lat="49.2824" lon="-0.13898">
        <ele>4.9</ele>
        <time>2023-07-05T12:11:34Z</time>
      </trkpt>
      <trkpt lat="49.28237" lon="-0.13906">
        <ele>4.9</ele>
        <time>2023-07-05T12:11:35Z</time>
      </trkpt>
      <trkpt lat="49.28233" lon="-0.13915">
        <ele>4.9</ele>
        <time>2023-07-05T12:11:36Z</time>
      </trkpt>
      <trkpt lat="49.28229" lon="-0.13924">
        <ele>4.8</ele>
        <time>2023-07-05T12:11:37Z</time>
      </trkpt>
      <trkpt lat="49.28225" lon="-0.13932">
        <ele>4.8</ele>
        <time>2023-07-05T12:11:38Z</time>
      </trkpt>
      <trkpt lat="49.28221" lon="-0.13941">
        <ele>4.7</ele>
        <time>2023-07-05T12:11:39Z</time>
      </trkpt>
      <trkpt lat="49.28217" lon="-0.1395">
        <ele>4.7</ele>
        <time>2023-07-05T12:11:40Z</time>
      </trkpt>
      <trkpt lat="49.28213" lon="-0.13959">
        <ele>4.7</ele>
        <time>2023-07-05T12:11:41Z</time>
      </trkpt>
      <trkpt lat="49.28208" lon="-0.13968">
        <ele>4.7</ele>
        <time>2023-07-05T12:11:42Z</time>
      </trkpt>
      <trkpt lat="49.28204" lon="-0.13977">
        <ele>4.7</ele>
        <time>2023-07-05T12:11:43Z</time>
      </trkpt>
      <trkpt lat="49.282" lon="-0.13986">
        <ele>4.7</ele>
        <time>2023-07-05T12:11:44Z</time>
      </trkpt>
      <trkpt lat="49.28196" lon="-0.13995">
        <ele>4.7</ele>
        <time>2023-07-05T12:11:45Z</time>
      </trkpt>
      <trkpt lat="49.28191" lon="-0.14003">
        <ele>4.7</ele>
        <time>2023-07-05T12:11:46Z</time>
      </trkpt>
      <trkpt lat="49.28186" lon="-0.14012">
        <ele>4.7</ele>
        <time>2023-07-05T12:11:47Z</time>
      </trkpt>
      <trkpt lat="49.28182" lon="-0.14021">
        <ele>4.7</ele>
        <time>2023-07-05T12:11:48Z</time>
      </trkpt>
      <trkpt lat="49.28177" lon="-0.1403">
        <ele>4.7</ele>
        <time>2023-07-05T12:11:49Z</time>
      </trkpt>
      <trkpt lat="49.28173" lon="-0.14038">
        <ele>4.7</ele>
        <time>2023-07-05T12:11:50Z</time>
      </trkpt>
      <trkpt lat="49.28168" lon="-0.14046">
        <ele>4.7</ele>
        <time>2023-07-05T12:11:51Z</time>
      </trkpt>
      <trkpt lat="49.28163" lon="-0.14054">
        <ele>4.8</ele>
        <time>2023-07-05T12:11:52Z</time>
      </trkpt>
      <trkpt lat="49.28159" lon="-0.14062">
        <ele>4.8</ele>
        <time>2023-07-05T12:11:53Z</time>
      </trkpt>
      <trkpt lat="49.28154" lon="-0.1407">
        <ele>4.8</ele>
        <time>2023-07-05T12:11:54Z</time>
      </trkpt>
      <trkpt lat="49.28149" lon="-0.14078">
        <ele>4.8</ele>
        <time>2023-07-05T12:11:55Z</time>
      </trkpt>
      <trkpt lat="49.28145" lon="-0.14086">
        <ele>4.8</ele>
        <time>2023-07-05T12:11:56Z</time>
      </trkpt>
      <trkpt lat="49.2814" lon="-0.14094">
        <ele>4.8</ele>
        <time>2023-07-05T12:11:57Z</time>
      </trkpt>
      <trkpt lat="49.28135" lon="-0.14101">
        <ele>4.8</ele>
        <time>2023-07-05T12:11:58Z</time>
      </trkpt>
      <trkpt lat="49.2813" lon="-0.14109">
        <ele>4.8</ele>
        <time>2023-07-05T12:11:59Z</time>
      </trkpt>
      <trkpt lat="49.28125" lon="-0.14116">
        <ele>4.9</ele>
        <time>2023-07-05T12:12:00Z</time>
      </trkpt>
      <trkpt lat="49.2812" lon="-0.14124">
        <ele>4.9</ele>
        <time>2023-07-05T12:12:01Z</time>
      </trkpt>
      <trkpt lat="49.28114" lon="-0.14131">
        <ele>4.9</ele>
        <time>2023-07-05T12:12:02Z</time>
      </trkpt>
      <trkpt lat="49.28109" lon="-0.14139">
        <ele>4.9</ele>
        <time>2023-07-05T12:12:03Z</time>
      </trkpt>
      <trkpt lat="49.28104" lon="-0.14147">
        <ele>4.9</ele>
        <time>2023-07-05T12:12:04Z</time>
      </trkpt>
      <trkpt lat="49.28099" lon="-0.14155">
        <ele>4.9</ele>
        <time>2023-07-05T12:12:05Z</time>
      </trkpt>
      <trkpt lat="49.28093" lon="-0.14163">
        <ele>4.9</ele>
        <time>2023-07-05T12:12:06Z</time>
      </trkpt>
      <trkpt lat="49.28088" lon="-0.14171">
        <ele>4.9</ele>
        <time>2023-07-05T12:12:07Z</time>
      </trkpt>
      <trkpt lat="49.28083" lon="-0.14179">
        <ele>4.9</ele>
        <time>2023-07-05T12:12:08Z</time>
      </trkpt>
      <trkpt lat="49.28078" lon="-0.14187">
        <ele>4.9</ele>
        <time>2023-07-05T12:12:09Z</time>
      </trkpt>
      <trkpt lat="49.28073" lon="-0.14194">
        <ele>4.9</ele>
        <time>2023-07-05T12:12:10Z</time>
      </trkpt>
      <trkpt lat="49.28068" lon="-0.14202">
        <ele>4.9</ele>
        <time>2023-07-05T12:12:11Z</time>
      </trkpt>
      <trkpt lat="49.28063" lon="-0.14209">
        <ele>4.9</ele>
        <time>2023-07-05T12:12:12Z</time>
      </trkpt>
      <trkpt lat="49.28057" lon="-0.14216">
        <ele>5</ele>
        <time>2023-07-05T12:12:13Z</time>
      </trkpt>
      <trkpt lat="49.28052" lon="-0.14224">
        <ele>5</ele>
        <time>2023-07-05T12:12:14Z</time>
      </trkpt>
      <trkpt lat="49.28047" lon="-0.14232">
        <ele>5</ele>
        <time>2023-07-05T12:12:15Z</time>
      </trkpt>
      <trkpt lat="49.28042" lon="-0.1424">
        <ele>5</ele>
        <time>2023-07-05T12:12:16Z</time>
      </trkpt>
      <trkpt lat="49.28037" lon="-0.14247">
        <ele>5</ele>
        <time>2023-07-05T12:12:17Z</time>
      </trkpt>
      <trkpt lat="49.28031" lon="-0.14255">
        <ele>5</ele>
        <time>2023-07-05T12:12:18Z</time>
      </trkpt>
      <trkpt lat="49.28026" lon="-0.14263">
        <ele>5</ele>
        <time>2023-07-05T12:12:19Z</time>
      </trkpt>
      <trkpt lat="49.28021" lon="-0.14271">
        <ele>5</ele>
        <time>2023-07-05T12:12:20Z</time>
      </trkpt>
      <trkpt lat="49.28015" lon="-0.14278">
        <ele>5</ele>
        <time>2023-07-05T12:12:21Z</time>
      </trkpt>
      <trkpt lat="49.2801" lon="-0.14285">
        <ele>5</ele>
        <time>2023-07-05T12:12:22Z</time>
      </trkpt>
      <trkpt lat="49.28006" lon="-0.14292">
        <ele>5</ele>
        <time>2023-07-05T12:12:23Z</time>
      </trkpt>
      <trkpt lat="49.28001" lon="-0.14299">
        <ele>5.1</ele>
        <time>2023-07-05T12:12:24Z</time>
      </trkpt>
      <trkpt lat="49.27996" lon="-0.14307">
        <ele>5.1</ele>
        <time>2023-07-05T12:12:25Z</time>
      </trkpt>
      <trkpt lat="49.2799" lon="-0.14314">
        <ele>5.1</ele>
        <time>2023-07-05T12:12:26Z</time>
      </trkpt>
      <trkpt lat="49.27985" lon="-0.14321">
        <ele>5.1</ele>
        <time>2023-07-05T12:12:27Z</time>
      </trkpt>
      <trkpt lat="49.2798" lon="-0.14329">
        <ele>5.1</ele>
        <time>2023-07-05T12:12:28Z</time>
      </trkpt>
      <trkpt lat="49.27975" lon="-0.14337">
        <ele>5.1</ele>
        <time>2023-07-05T12:12:29Z</time>
      </trkpt>
      <trkpt lat="49.27969" lon="-0.14345">
        <ele>5.1</ele>
        <time>2023-07-05T12:12:30Z</time>
      </trkpt>
      <trkpt lat="49.27964" lon="-0.14353">
        <ele>5.1</ele>
        <time>2023-07-05T12:12:31Z</time>
      </trkpt>
      <trkpt lat="49.27959" lon="-0.1436">
        <ele>5.1</ele>
        <time>2023-07-05T12:12:32Z</time>
      </trkpt>
      <trkpt lat="49.27953" lon="-0.14368">
        <ele>5.1</ele>
        <time>2023-07-05T12:12:33Z</time>
      </trkpt>
      <trkpt lat="49.27948" lon="-0.14375">
        <ele>5.2</ele>
        <time>2023-07-05T12:12:34Z</time>
      </trkpt>
      <trkpt lat="49.27943" lon="-0.14383">
        <ele>5.2</ele>
        <time>2023-07-05T12:12:35Z</time>
      </trkpt>
      <trkpt lat="49.27937" lon="-0.14391">
        <ele>5.2</ele>
        <time>2023-07-05T12:12:36Z</time>
      </trkpt>
      <trkpt lat="49.27932" lon="-0.14398">
        <ele>5.2</ele>
        <time>2023-07-05T12:12:37Z</time>
      </trkpt>
      <trkpt lat="49.27927" lon="-0.14406">
        <ele>5.2</ele>
        <time>2023-07-05T12:12:38Z</time>
      </trkpt>
      <trkpt lat="49.27922" lon="-0.14413">
        <ele>5.2</ele>
        <time>2023-07-05T12:12:39Z</time>
      </trkpt>
      <trkpt lat="49.27917" lon="-0.1442">
        <ele>5.2</ele>
        <time>2023-07-05T12:12:40Z</time>
      </trkpt>
      <trkpt lat="49.27912" lon="-0.14428">
        <ele>5.2</ele>
        <time>2023-07-05T12:12:41Z</time>
      </trkpt>
      <trkpt lat="49.27907" lon="-0.14435">
        <ele>5.3</ele>
        <time>2023-07-05T12:12:42Z</time>
      </trkpt>
      <trkpt lat="49.27902" lon="-0.14442">
        <ele>5.3</ele>
        <time>2023-07-05T12:12:43Z</time>
      </trkpt>
      <trkpt lat="49.27898" lon="-0.14448">
        <ele>5.3</ele>
        <time>2023-07-05T12:12:44Z</time>
      </trkpt>
      <trkpt lat="49.27893" lon="-0.14455">
        <ele>5.3</ele>
        <time>2023-07-05T12:12:45Z</time>
      </trkpt>
      <trkpt lat="49.27889" lon="-0.14461">
        <ele>5.3</ele>
        <time>2023-07-05T12:12:46Z</time>
      </trkpt>
      <trkpt lat="49.27884" lon="-0.14467">
        <ele>5.3</ele>
        <time>2023-07-05T12:12:47Z</time>
      </trkpt>
      <trkpt lat="49.27881" lon="-0.14473">
        <ele>5.3</ele>
        <time>2023-07-05T12:12:48Z</time>
      </trkpt>
      <trkpt lat="49.27877" lon="-0.14478">
        <ele>5.3</ele>
        <time>2023-07-05T12:12:49Z</time>
      </trkpt>
      <trkpt lat="49.27874" lon="-0.14482">
        <ele>5.2</ele>
        <time>2023-07-05T12:12:50Z</time>
      </trkpt>
      <trkpt lat="49.27871" lon="-0.14487">
        <ele>5.2</ele>
        <time>2023-07-05T12:12:51Z</time>
      </trkpt>
      <trkpt lat="49.27869" lon="-0.14492">
        <ele>5.2</ele>
        <time>2023-07-05T12:12:52Z</time>
      </trkpt>
      <trkpt lat="49.27866" lon="-0.14496">
        <ele>5.2</ele>
        <time>2023-07-05T12:12:53Z</time>
      </trkpt>
      <trkpt lat="49.27865" lon="-0.145">
        <ele>5.2</ele>
        <time>2023-07-05T12:12:54Z</time>
      </trkpt>
      <trkpt lat="49.27863" lon="-0.14504">
        <ele>5.2</ele>
        <time>2023-07-05T12:12:55Z</time>
      </trkpt>
      <trkpt lat="49.27861" lon="-0.14507">
        <ele>5.2</ele>
        <time>2023-07-05T12:12:56Z</time>
      </trkpt>
      <trkpt lat="49.27858" lon="-0.1451">
        <ele>5.2</ele>
        <time>2023-07-05T12:12:57Z</time>
      </trkpt>
      <trkpt lat="49.27856" lon="-0.14514">
        <ele>5.2</ele>
        <time>2023-07-05T12:12:58Z</time>
      </trkpt>
      <trkpt lat="49.27855" lon="-0.14515">
        <ele>5.2</ele>
        <time>2023-07-05T12:12:59Z</time>
      </trkpt>
      <trkpt lat="49.27853" lon="-0.14519">
        <ele>5.2</ele>
        <time>2023-07-05T12:13:00Z</time>
      </trkpt>
      <trkpt lat="49.27852" lon="-0.1452">
        <ele>5.2</ele>
        <time>2023-07-05T12:13:01Z</time>
      </trkpt>
      <trkpt lat="49.2785" lon="-0.14524">
        <ele>5.2</ele>
        <time>2023-07-05T12:13:02Z</time>
      </trkpt>
      <trkpt lat="49.27849" lon="-0.14525">
        <ele>5.2</ele>
        <time>2023-07-05T12:13:03Z</time>
      </trkpt>
      <trkpt lat="49.27847" lon="-0.14529">
        <ele>5.2</ele>
        <time>2023-07-05T12:13:04Z</time>
      </trkpt>
      <trkpt lat="49.27846" lon="-0.1453">
        <ele>5.2</ele>
        <time>2023-07-05T12:13:05Z</time>
      </trkpt>
      <trkpt lat="49.27844" lon="-0.14533">
        <ele>5.2</ele>
        <time>2023-07-05T12:13:06Z</time>
      </trkpt>
      <trkpt lat="49.27843" lon="-0.14533">
        <ele>5.2</ele>
        <time>2023-07-05T12:13:07Z</time>
      </trkpt>
      <trkpt lat="49.2784" lon="-0.14536">
        <ele>5.2</ele>
        <time>2023-07-05T12:13:08Z</time>
      </trkpt>
      <trkpt lat="49.2784" lon="-0.14537">
        <ele>5.2</ele>
        <time>2023-07-05T12:13:09Z</time>
      </trkpt>
      <trkpt lat="49.27839" lon="-0.14539">
        <ele>5.2</ele>
        <time>2023-07-05T12:13:10Z</time>
      </trkpt>
      <trkpt lat="49.27839" lon="-0.14539">
        <ele>5.2</ele>
        <time>2023-07-05T12:13:11Z</time>
      </trkpt>
      <trkpt lat="49.27839" lon="-0.14538">
        <ele>5.2</ele>
        <time>2023-07-05T12:13:12Z</time>
      </trkpt>
      <trkpt lat="49.27839" lon="-0.14538">
        <ele>5.2</ele>
        <time>2023-07-05T12:13:13Z</time>
      </trkpt>
      <trkpt lat="49.27839" lon="-0.14538">
        <ele>5.2</ele>
        <time>2023-07-05T12:13:14Z</time>
      </trkpt>
      <trkpt lat="49.27839" lon="-0.14538">
        <ele>5.2</ele>
        <time>2023-07-05T12:13:15Z</time>
      </trkpt>
      <trkpt lat="49.27839" lon="-0.14538">
        <ele>5.2</ele>
        <time>2023-07-05T12:13:16Z</time>
      </trkpt>
      <trkpt lat="49.27839" lon="-0.14538">
        <ele>5.2</ele>
        <time>2023-07-05T12:13:17Z</time>
      </trkpt>
      <trkpt lat="49.27839" lon="-0.14538">
        <ele>5.2</ele>
        <time>2023-07-05T12:13:18Z</time>
      </trkpt>
      <trkpt lat="49.27839" lon="-0.14538">
        <ele>5.2</ele>
        <time>2023-07-05T12:13:19Z</time>
      </trkpt>
      <trkpt lat="49.27839" lon="-0.14538">
        <ele>5.2</ele>
        <time>2023-07-05T12:13:20Z</time>
      </trkpt>
      <trkpt lat="49.27839" lon="-0.14538">
        <ele>5.2</ele>
        <time>2023-07-05T12:13:21Z</time>
      </trkpt>
      <trkpt lat="49.27838" lon="-0.14541">
        <ele>5.2</ele>
        <time>2023-07-05T12:13:27Z</time>
      </trkpt>
      <trkpt lat="49.27837" lon="-0.14543">
        <ele>5.2</ele>
        <time>2023-07-05T12:13:28Z</time>
      </trkpt>
      <trkpt lat="49.27836" lon="-0.14544">
        <ele>5.1</ele>
        <time>2023-07-05T12:13:29Z</time>
      </trkpt>
      <trkpt lat="49.27834" lon="-0.14547">
        <ele>5.1</ele>
        <time>2023-07-05T12:13:30Z</time>
      </trkpt>
      <trkpt lat="49.27833" lon="-0.14549">
        <ele>5.1</ele>
        <time>2023-07-05T12:13:31Z</time>
      </trkpt>
      <trkpt lat="49.2783" lon="-0.14551">
        <ele>5.1</ele>
        <time>2023-07-05T12:13:32Z</time>
      </trkpt>
      <trkpt lat="49.27827" lon="-0.14554">
        <ele>5.1</ele>
        <time>2023-07-05T12:13:33Z</time>
      </trkpt>
      <trkpt lat="49.27824" lon="-0.14559">
        <ele>5.1</ele>
        <time>2023-07-05T12:13:34Z</time>
      </trkpt>
      <trkpt lat="49.2782" lon="-0.14564">
        <ele>5.1</ele>
        <time>2023-07-05T12:13:35Z</time>
      </trkpt>
      <trkpt lat="49.27816" lon="-0.14569">
        <ele>5.1</ele>
        <time>2023-07-05T12:13:36Z</time>
      </trkpt>
      <trkpt lat="49.27811" lon="-0.14576">
        <ele>5.1</ele>
        <time>2023-07-05T12:13:37Z</time>
      </trkpt>
      <trkpt lat="49.27806" lon="-0.14582">
        <ele>5</ele>
        <time>2023-07-05T12:13:38Z</time>
      </trkpt>
      <trkpt lat="49.27801" lon="-0.14589">
        <ele>5</ele>
        <time>2023-07-05T12:13:39Z</time>
      </trkpt>
      <trkpt lat="49.27797" lon="-0.14597">
        <ele>5</ele>
        <time>2023-07-05T12:13:40Z</time>
      </trkpt>
      <trkpt lat="49.27793" lon="-0.14605">
        <ele>5</ele>
        <time>2023-07-05T12:13:41Z</time>
      </trkpt>
      <trkpt lat="49.27788" lon="-0.14613">
        <ele>4.9</ele>
        <time>2023-07-05T12:13:42Z</time>
      </trkpt>
      <trkpt lat="49.27783" lon="-0.14621">
        <ele>4.9</ele>
        <time>2023-07-05T12:13:43Z</time>
      </trkpt>
      <trkpt lat="49.27777" lon="-0.1463">
        <ele>4.9</ele>
        <time>2023-07-05T12:13:44Z</time>
      </trkpt>
      <trkpt lat="49.27772" lon="-0.14638">
        <ele>4.9</ele>
        <time>2023-07-05T12:13:45Z</time>
      </trkpt>
      <trkpt lat="49.27766" lon="-0.14646">
        <ele>4.9</ele>
        <time>2023-07-05T12:13:46Z</time>
      </trkpt>
      <trkpt lat="49.27761" lon="-0.14653">
        <ele>4.9</ele>
        <time>2023-07-05T12:13:47Z</time>
      </trkpt>
      <trkpt lat="49.27756" lon="-0.14661">
        <ele>4.8</ele>
        <time>2023-07-05T12:13:48Z</time>
      </trkpt>
      <trkpt lat="49.2775" lon="-0.1467">
        <ele>4.8</ele>
        <time>2023-07-05T12:13:49Z</time>
      </trkpt>
      <trkpt lat="49.27744" lon="-0.14678">
        <ele>4.8</ele>
        <time>2023-07-05T12:13:50Z</time>
      </trkpt>
      <trkpt lat="49.27739" lon="-0.14686">
        <ele>4.8</ele>
        <time>2023-07-05T12:13:51Z</time>
      </trkpt>
      <trkpt lat="49.27733" lon="-0.14693">
        <ele>4.8</ele>
        <time>2023-07-05T12:13:52Z</time>
      </trkpt>
      <trkpt lat="49.27728" lon="-0.147">
        <ele>4.8</ele>
        <time>2023-07-05T12:13:53Z</time>
      </trkpt>
      <trkpt lat="49.27723" lon="-0.14707">
        <ele>4.8</ele>
        <time>2023-07-05T12:13:54Z</time>
      </trkpt>
      <trkpt lat="49.27719" lon="-0.14714">
        <ele>4.8</ele>
        <time>2023-07-05T12:13:55Z</time>
      </trkpt>
      <trkpt lat="49.27714" lon="-0.14721">
        <ele>4.8</ele>
        <time>2023-07-05T12:13:56Z</time>
      </trkpt>
      <trkpt lat="49.2771" lon="-0.14728">
        <ele>4.8</ele>
        <time>2023-07-05T12:13:57Z</time>
      </trkpt>
      <trkpt lat="49.27705" lon="-0.14734">
        <ele>4.8</ele>
        <time>2023-07-05T12:13:58Z</time>
      </trkpt>
      <trkpt lat="49.27701" lon="-0.14741">
        <ele>4.8</ele>
        <time>2023-07-05T12:13:59Z</time>
      </trkpt>
      <trkpt lat="49.27697" lon="-0.14747">
        <ele>4.8</ele>
        <time>2023-07-05T12:14:00Z</time>
      </trkpt>
      <trkpt lat="49.27692" lon="-0.14754">
        <ele>4.8</ele>
        <time>2023-07-05T12:14:01Z</time>
      </trkpt>
      <trkpt lat="49.27688" lon="-0.1476">
        <ele>4.7</ele>
        <time>2023-07-05T12:14:02Z</time>
      </trkpt>
      <trkpt lat="49.27684" lon="-0.14766">
        <ele>4.7</ele>
        <time>2023-07-05T12:14:03Z</time>
      </trkpt>
      <trkpt lat="49.27679" lon="-0.14773">
        <ele>4.7</ele>
        <time>2023-07-05T12:14:04Z</time>
      </trkpt>
      <trkpt lat="49.27675" lon="-0.14779">
        <ele>4.7</ele>
        <time>2023-07-05T12:14:05Z</time>
      </trkpt>
      <trkpt lat="49.2767" lon="-0.14786">
        <ele>4.7</ele>
        <time>2023-07-05T12:14:06Z</time>
      </trkpt>
      <trkpt lat="49.27665" lon="-0.14793">
        <ele>4.7</ele>
        <time>2023-07-05T12:14:07Z</time>
      </trkpt>
      <trkpt lat="49.2766" lon="-0.148">
        <ele>4.7</ele>
        <time>2023-07-05T12:14:08Z</time>
      </trkpt>
      <trkpt lat="49.27655" lon="-0.14807">
        <ele>4.7</ele>
        <time>2023-07-05T12:14:09Z</time>
      </trkpt>
      <trkpt lat="49.27651" lon="-0.14814">
        <ele>4.7</ele>
        <time>2023-07-05T12:14:10Z</time>
      </trkpt>
      <trkpt lat="49.27646" lon="-0.14822">
        <ele>4.7</ele>
        <time>2023-07-05T12:14:11Z</time>
      </trkpt>
      <trkpt lat="49.27641" lon="-0.14829">
        <ele>4.7</ele>
        <time>2023-07-05T12:14:12Z</time>
      </trkpt>
      <trkpt lat="49.27636" lon="-0.14836">
        <ele>4.7</ele>
        <time>2023-07-05T12:14:13Z</time>
      </trkpt>
      <trkpt lat="49.27631" lon="-0.14844">
        <ele>4.7</ele>
        <time>2023-07-05T12:14:14Z</time>
      </trkpt>
      <trkpt lat="49.27625" lon="-0.14852">
        <ele>4.7</ele>
        <time>2023-07-05T12:14:15Z</time>
      </trkpt>
      <trkpt lat="49.2762" lon="-0.14861">
        <ele>4.7</ele>
        <time>2023-07-05T12:14:16Z</time>
      </trkpt>
      <trkpt lat="49.27614" lon="-0.14869">
        <ele>4.7</ele>
        <time>2023-07-05T12:14:17Z</time>
      </trkpt>
      <trkpt lat="49.27608" lon="-0.14877">
        <ele>4.6</ele>
        <time>2023-07-05T12:14:18Z</time>
      </trkpt>
      <trkpt lat="49.27603" lon="-0.14886">
        <ele>4.6</ele>
        <time>2023-07-05T12:14:19Z</time>
      </trkpt>
      <trkpt lat="49.27598" lon="-0.14894">
        <ele>4.6</ele>
        <time>2023-07-05T12:14:20Z</time>
      </trkpt>
      <trkpt lat="49.27592" lon="-0.14902">
        <ele>4.6</ele>
        <time>2023-07-05T12:14:21Z</time>
      </trkpt>
      <trkpt lat="49.27587" lon="-0.1491">
        <ele>4.6</ele>
        <time>2023-07-05T12:14:22Z</time>
      </trkpt>
      <trkpt lat="49.27582" lon="-0.14918">
        <ele>4.5</ele>
        <time>2023-07-05T12:14:23Z</time>
      </trkpt>
      <trkpt lat="49.27577" lon="-0.14925">
        <ele>4.5</ele>
        <time>2023-07-05T12:14:24Z</time>
      </trkpt>
      <trkpt lat="49.27572" lon="-0.14933">
        <ele>4.5</ele>
        <time>2023-07-05T12:14:25Z</time>
      </trkpt>
      <trkpt lat="49.27567" lon="-0.14941">
        <ele>4.5</ele>
        <time>2023-07-05T12:14:26Z</time>
      </trkpt>
      <trkpt lat="49.27561" lon="-0.14948">
        <ele>4.5</ele>
        <time>2023-07-05T12:14:27Z</time>
      </trkpt>
      <trkpt lat="49.27556" lon="-0.14956">
        <ele>4.5</ele>
        <time>2023-07-05T12:14:28Z</time>
      </trkpt>
      <trkpt lat="49.27551" lon="-0.14964">
        <ele>4.5</ele>
        <time>2023-07-05T12:14:29Z</time>
      </trkpt>
      <trkpt lat="49.27546" lon="-0.14972">
        <ele>4.6</ele>
        <time>2023-07-05T12:14:30Z</time>
      </trkpt>
      <trkpt lat="49.2754" lon="-0.1498">
        <ele>4.6</ele>
        <time>2023-07-05T12:14:31Z</time>
      </trkpt>
      <trkpt lat="49.27535" lon="-0.14988">
        <ele>4.6</ele>
        <time>2023-07-05T12:14:32Z</time>
      </trkpt>
      <trkpt lat="49.27529" lon="-0.14995">
        <ele>4.6</ele>
        <time>2023-07-05T12:14:33Z</time>
      </trkpt>
      <trkpt lat="49.27524" lon="-0.15002">
        <ele>4.6</ele>
        <time>2023-07-05T12:14:34Z</time>
      </trkpt>
      <trkpt lat="49.27518" lon="-0.1501">
        <ele>4.6</ele>
        <time>2023-07-05T12:14:35Z</time>
      </trkpt>
      <trkpt lat="49.27512" lon="-0.15018">
        <ele>4.5</ele>
        <time>2023-07-05T12:14:36Z</time>
      </trkpt>
      <trkpt lat="49.27506" lon="-0.15025">
        <ele>4.5</ele>
        <time>2023-07-05T12:14:37Z</time>
      </trkpt>
      <trkpt lat="49.275" lon="-0.15033">
        <ele>4.5</ele>
        <time>2023-07-05T12:14:38Z</time>
      </trkpt>
      <trkpt lat="49.27494" lon="-0.1504">
        <ele>4.5</ele>
        <time>2023-07-05T12:14:39Z</time>
      </trkpt>
      <trkpt lat="49.27489" lon="-0.15046">
        <ele>4.5</ele>
        <time>2023-07-05T12:14:40Z</time>
      </trkpt>
      <trkpt lat="49.27483" lon="-0.15053">
        <ele>4.5</ele>
        <time>2023-07-05T12:14:41Z</time>
      </trkpt>
      <trkpt lat="49.27477" lon="-0.15059">
        <ele>4.5</ele>
        <time>2023-07-05T12:14:42Z</time>
      </trkpt>
      <trkpt lat="49.2747" lon="-0.15065">
        <ele>4.5</ele>
        <time>2023-07-05T12:14:43Z</time>
      </trkpt>
      <trkpt lat="49.27464" lon="-0.15071">
        <ele>4.4</ele>
        <time>2023-07-05T12:14:44Z</time>
      </trkpt>
      <trkpt lat="49.27458" lon="-0.15078">
        <ele>4.4</ele>
        <time>2023-07-05T12:14:45Z</time>
      </trkpt>
      <trkpt lat="49.27451" lon="-0.15083">
        <ele>4.4</ele>
        <time>2023-07-05T12:14:46Z</time>
      </trkpt>
      <trkpt lat="49.27444" lon="-0.15089">
        <ele>4.4</ele>
        <time>2023-07-05T12:14:47Z</time>
      </trkpt>
      <trkpt lat="49.27438" lon="-0.15096">
        <ele>4.4</ele>
        <time>2023-07-05T12:14:48Z</time>
      </trkpt>
      <trkpt lat="49.27431" lon="-0.15102">
        <ele>4.3</ele>
        <time>2023-07-05T12:14:49Z</time>
      </trkpt>
      <trkpt lat="49.27425" lon="-0.15108">
        <ele>4.3</ele>
        <time>2023-07-05T12:14:50Z</time>
      </trkpt>
      <trkpt lat="49.27419" lon="-0.15115">
        <ele>4.4</ele>
        <time>2023-07-05T12:14:51Z</time>
      </trkpt>
      <trkpt lat="49.27412" lon="-0.15121">
        <ele>4.4</ele>
        <time>2023-07-05T12:14:52Z</time>
      </trkpt>
      <trkpt lat="49.27405" lon="-0.15127">
        <ele>4.3</ele>
        <time>2023-07-05T12:14:53Z</time>
      </trkpt>
      <trkpt lat="49.27398" lon="-0.15134">
        <ele>4.3</ele>
        <time>2023-07-05T12:14:54Z</time>
      </trkpt>
      <trkpt lat="49.27391" lon="-0.1514">
        <ele>4.3</ele>
        <time>2023-07-05T12:14:55Z</time>
      </trkpt>
      <trkpt lat="49.27385" lon="-0.15146">
        <ele>4.3</ele>
        <time>2023-07-05T12:14:56Z</time>
      </trkpt>
      <trkpt lat="49.27378" lon="-0.15152">
        <ele>4.3</ele>
        <time>2023-07-05T12:14:57Z</time>
      </trkpt>
      <trkpt lat="49.27372" lon="-0.15159">
        <ele>4.3</ele>
        <time>2023-07-05T12:14:58Z</time>
      </trkpt>
      <trkpt lat="49.27366" lon="-0.15166">
        <ele>4.3</ele>
        <time>2023-07-05T12:14:59Z</time>
      </trkpt>
      <trkpt lat="49.27359" lon="-0.15173">
        <ele>4.3</ele>
        <time>2023-07-05T12:15:00Z</time>
      </trkpt>
      <trkpt lat="49.27353" lon="-0.1518">
        <ele>4.3</ele>
        <time>2023-07-05T12:15:01Z</time>
      </trkpt>
      <trkpt lat="49.27347" lon="-0.15186">
        <ele>4.3</ele>
        <time>2023-07-05T12:15:02Z</time>
      </trkpt>
      <trkpt lat="49.2734" lon="-0.15192">
        <ele>4.3</ele>
        <time>2023-07-05T12:15:03Z</time>
      </trkpt>
      <trkpt lat="49.27334" lon="-0.15197">
        <ele>4.3</ele>
        <time>2023-07-05T12:15:04Z</time>
      </trkpt>
      <trkpt lat="49.27328" lon="-0.15203">
        <ele>4.2</ele>
        <time>2023-07-05T12:15:05Z</time>
      </trkpt>
      <trkpt lat="49.27321" lon="-0.15209">
        <ele>4.2</ele>
        <time>2023-07-05T12:15:06Z</time>
      </trkpt>
      <trkpt lat="49.27315" lon="-0.15215">
        <ele>4.2</ele>
        <time>2023-07-05T12:15:07Z</time>
      </trkpt>
      <trkpt lat="49.27309" lon="-0.15221">
        <ele>4.2</ele>
        <time>2023-07-05T12:15:08Z</time>
      </trkpt>
      <trkpt lat="49.27303" lon="-0.15227">
        <ele>4.2</ele>
        <time>2023-07-05T12:15:09Z</time>
      </trkpt>
      <trkpt lat="49.27297" lon="-0.15234">
        <ele>4.2</ele>
        <time>2023-07-05T12:15:10Z</time>
      </trkpt>
      <trkpt lat="49.27291" lon="-0.1524">
        <ele>4.2</ele>
        <time>2023-07-05T12:15:11Z</time>
      </trkpt>
      <trkpt lat="49.27284" lon="-0.15247">
        <ele>4.2</ele>
        <time>2023-07-05T12:15:12Z</time>
      </trkpt>
      <trkpt lat="49.27278" lon="-0.15254">
        <ele>4.2</ele>
        <time>2023-07-05T12:15:13Z</time>
      </trkpt>
      <trkpt lat="49.27272" lon="-0.15261">
        <ele>4.2</ele>
        <time>2023-07-05T12:15:14Z</time>
      </trkpt>
      <trkpt lat="49.27266" lon="-0.15269">
        <ele>4.2</ele>
        <time>2023-07-05T12:15:15Z</time>
      </trkpt>
      <trkpt lat="49.2726" lon="-0.15276">
        <ele>4.1</ele>
        <time>2023-07-05T12:15:16Z</time>
      </trkpt>
      <trkpt lat="49.27255" lon="-0.15284">
        <ele>4.1</ele>
        <time>2023-07-05T12:15:17Z</time>
      </trkpt>
      <trkpt lat="49.27249" lon="-0.15291">
        <ele>4.1</ele>
        <time>2023-07-05T12:15:18Z</time>
      </trkpt>
      <trkpt lat="49.27243" lon="-0.15299">
        <ele>4.1</ele>
        <time>2023-07-05T12:15:19Z</time>
      </trkpt>
      <trkpt lat="49.27237" lon="-0.15307">
        <ele>4.1</ele>
        <time>2023-07-05T12:15:20Z</time>
      </trkpt>
      <trkpt lat="49.27232" lon="-0.15315">
        <ele>4.1</ele>
        <time>2023-07-05T12:15:21Z</time>
      </trkpt>
      <trkpt lat="49.27227" lon="-0.15323">
        <ele>4.1</ele>
        <time>2023-07-05T12:15:22Z</time>
      </trkpt>
      <trkpt lat="49.27221" lon="-0.15331">
        <ele>4.1</ele>
        <time>2023-07-05T12:15:23Z</time>
      </trkpt>
      <trkpt lat="49.27216" lon="-0.1534">
        <ele>4.1</ele>
        <time>2023-07-05T12:15:24Z</time>
      </trkpt>
      <trkpt lat="49.27211" lon="-0.15348">
        <ele>4.1</ele>
        <time>2023-07-05T12:15:25Z</time>
      </trkpt>
      <trkpt lat="49.27206" lon="-0.15357">
        <ele>4.1</ele>
        <time>2023-07-05T12:15:26Z</time>
      </trkpt>
      <trkpt lat="49.27201" lon="-0.15365">
        <ele>4.1</ele>
        <time>2023-07-05T12:15:27Z</time>
      </trkpt>
      <trkpt lat="49.27195" lon="-0.15373">
        <ele>4.1</ele>
        <time>2023-07-05T12:15:28Z</time>
      </trkpt>
      <trkpt lat="49.2719" lon="-0.15381">
        <ele>4.1</ele>
        <time>2023-07-05T12:15:29Z</time>
      </trkpt>
      <trkpt lat="49.27185" lon="-0.15389">
        <ele>4.1</ele>
        <time>2023-07-05T12:15:30Z</time>
      </trkpt>
      <trkpt lat="49.2718" lon="-0.15398">
        <ele>4</ele>
        <time>2023-07-05T12:15:31Z</time>
      </trkpt>
      <trkpt lat="49.27174" lon="-0.15406">
        <ele>4</ele>
        <time>2023-07-05T12:15:32Z</time>
      </trkpt>
      <trkpt lat="49.27169" lon="-0.15415">
        <ele>4</ele>
        <time>2023-07-05T12:15:33Z</time>
      </trkpt>
      <trkpt lat="49.27164" lon="-0.15423">
        <ele>4</ele>
        <time>2023-07-05T12:15:34Z</time>
      </trkpt>
      <trkpt lat="49.27159" lon="-0.15431">
        <ele>4</ele>
        <time>2023-07-05T12:15:35Z</time>
      </trkpt>
      <trkpt lat="49.27153" lon="-0.15439">
        <ele>4</ele>
        <time>2023-07-05T12:15:36Z</time>
      </trkpt>
      <trkpt lat="49.27148" lon="-0.15447">
        <ele>4</ele>
        <time>2023-07-05T12:15:37Z</time>
      </trkpt>
      <trkpt lat="49.27143" lon="-0.15456">
        <ele>4</ele>
        <time>2023-07-05T12:15:38Z</time>
      </trkpt>
      <trkpt lat="49.27138" lon="-0.15464">
        <ele>4</ele>
        <time>2023-07-05T12:15:39Z</time>
      </trkpt>
      <trkpt lat="49.27133" lon="-0.15473">
        <ele>4</ele>
        <time>2023-07-05T12:15:40Z</time>
      </trkpt>
      <trkpt lat="49.27127" lon="-0.15481">
        <ele>4</ele>
        <time>2023-07-05T12:15:41Z</time>
      </trkpt>
      <trkpt lat="49.27122" lon="-0.15489">
        <ele>4</ele>
        <time>2023-07-05T12:15:42Z</time>
      </trkpt>
      <trkpt lat="49.27117" lon="-0.15497">
        <ele>4</ele>
        <time>2023-07-05T12:15:43Z</time>
      </trkpt>
      <trkpt lat="49.27112" lon="-0.15505">
        <ele>4</ele>
        <time>2023-07-05T12:15:44Z</time>
      </trkpt>
      <trkpt lat="49.27106" lon="-0.15513">
        <ele>4</ele>
        <time>2023-07-05T12:15:45Z</time>
      </trkpt>
      <trkpt lat="49.271" lon="-0.15522">
        <ele>4</ele>
        <time>2023-07-05T12:15:46Z</time>
      </trkpt>
      <trkpt lat="49.27095" lon="-0.15531">
        <ele>4</ele>
        <time>2023-07-05T12:15:47Z</time>
      </trkpt>
      <trkpt lat="49.27089" lon="-0.15541">
        <ele>4</ele>
        <time>2023-07-05T12:15:48Z</time>
      </trkpt>
      <trkpt lat="49.27084" lon="-0.1555">
        <ele>4</ele>
        <time>2023-07-05T12:15:49Z</time>
      </trkpt>
      <trkpt lat="49.27079" lon="-0.15559">
        <ele>4.1</ele>
        <time>2023-07-05T12:15:50Z</time>
      </trkpt>
      <trkpt lat="49.27074" lon="-0.15568">
        <ele>4.1</ele>
        <time>2023-07-05T12:15:51Z</time>
      </trkpt>
      <trkpt lat="49.27069" lon="-0.15576">
        <ele>4.1</ele>
        <time>2023-07-05T12:15:52Z</time>
      </trkpt>
      <trkpt lat="49.27063" lon="-0.15585">
        <ele>4.1</ele>
        <time>2023-07-05T12:15:53Z</time>
      </trkpt>
      <trkpt lat="49.27058" lon="-0.15593">
        <ele>4.1</ele>
        <time>2023-07-05T12:15:54Z</time>
      </trkpt>
      <trkpt lat="49.27053" lon="-0.15601">
        <ele>4.1</ele>
        <time>2023-07-05T12:15:55Z</time>
      </trkpt>
      <trkpt lat="49.27047" lon="-0.15609">
        <ele>4.1</ele>
        <time>2023-07-05T12:15:56Z</time>
      </trkpt>
      <trkpt lat="49.27042" lon="-0.15618">
        <ele>4.1</ele>
        <time>2023-07-05T12:15:57Z</time>
      </trkpt>
      <trkpt lat="49.27037" lon="-0.15626">
        <ele>4.1</ele>
        <time>2023-07-05T12:15:58Z</time>
      </trkpt>
      <trkpt lat="49.27032" lon="-0.15634">
        <ele>4.1</ele>
        <time>2023-07-05T12:15:59Z</time>
      </trkpt>
      <trkpt lat="49.27027" lon="-0.15642">
        <ele>4.1</ele>
        <time>2023-07-05T12:16:00Z</time>
      </trkpt>
      <trkpt lat="49.27021" lon="-0.15651">
        <ele>4.1</ele>
        <time>2023-07-05T12:16:01Z</time>
      </trkpt>
      <trkpt lat="49.27016" lon="-0.15659">
        <ele>4.1</ele>
        <time>2023-07-05T12:16:02Z</time>
      </trkpt>
      <trkpt lat="49.27011" lon="-0.15667">
        <ele>4.1</ele>
        <time>2023-07-05T12:16:03Z</time>
      </trkpt>
      <trkpt lat="49.27005" lon="-0.15675">
        <ele>4.2</ele>
        <time>2023-07-05T12:16:04Z</time>
      </trkpt>
      <trkpt lat="49.27" lon="-0.15684">
        <ele>4.2</ele>
        <time>2023-07-05T12:16:05Z</time>
      </trkpt>
      <trkpt lat="49.26994" lon="-0.15692">
        <ele>4.2</ele>
        <time>2023-07-05T12:16:06Z</time>
      </trkpt>
      <trkpt lat="49.26989" lon="-0.157">
        <ele>4.2</ele>
        <time>2023-07-05T12:16:07Z</time>
      </trkpt>
      <trkpt lat="49.26983" lon="-0.15708">
        <ele>4.2</ele>
        <time>2023-07-05T12:16:08Z</time>
      </trkpt>
      <trkpt lat="49.26977" lon="-0.15716">
        <ele>4.2</ele>
        <time>2023-07-05T12:16:09Z</time>
      </trkpt>
      <trkpt lat="49.2697" lon="-0.15723">
        <ele>4.1</ele>
        <time>2023-07-05T12:16:10Z</time>
      </trkpt>
      <trkpt lat="49.26964" lon="-0.15731">
        <ele>4.1</ele>
        <time>2023-07-05T12:16:11Z</time>
      </trkpt>
      <trkpt lat="49.26958" lon="-0.15738">
        <ele>4.1</ele>
        <time>2023-07-05T12:16:12Z</time>
      </trkpt>
      <trkpt lat="49.26951" lon="-0.15745">
        <ele>4.1</ele>
        <time>2023-07-05T12:16:13Z</time>
      </trkpt>
      <trkpt lat="49.26945" lon="-0.15751">
        <ele>4.1</ele>
        <time>2023-07-05T12:16:14Z</time>
      </trkpt>
      <trkpt lat="49.26938" lon="-0.15758">
        <ele>4.1</ele>
        <time>2023-07-05T12:16:15Z</time>
      </trkpt>
      <trkpt lat="49.26931" lon="-0.15764">
        <ele>4.1</ele>
        <time>2023-07-05T12:16:16Z</time>
      </trkpt>
      <trkpt lat="49.26924" lon="-0.15769">
        <ele>4.2</ele>
        <time>2023-07-05T12:16:17Z</time>
      </trkpt>
      <trkpt lat="49.26918" lon="-0.15775">
        <ele>4.2</ele>
        <time>2023-07-05T12:16:18Z</time>
      </trkpt>
      <trkpt lat="49.26911" lon="-0.15779">
        <ele>4.2</ele>
        <time>2023-07-05T12:16:19Z</time>
      </trkpt>
      <trkpt lat="49.26904" lon="-0.15785">
        <ele>4.3</ele>
        <time>2023-07-05T12:16:20Z</time>
      </trkpt>
      <trkpt lat="49.26897" lon="-0.15789">
        <ele>4.3</ele>
        <time>2023-07-05T12:16:21Z</time>
      </trkpt>
      <trkpt lat="49.26891" lon="-0.15794">
        <ele>4.3</ele>
        <time>2023-07-05T12:16:22Z</time>
      </trkpt>
      <trkpt lat="49.26883" lon="-0.15799">
        <ele>4.2</ele>
        <time>2023-07-05T12:16:23Z</time>
      </trkpt>
      <trkpt lat="49.26876" lon="-0.15803">
        <ele>4.2</ele>
        <time>2023-07-05T12:16:24Z</time>
      </trkpt>
      <trkpt lat="49.26869" lon="-0.15808">
        <ele>4.1</ele>
        <time>2023-07-05T12:16:25Z</time>
      </trkpt>
      <trkpt lat="49.26862" lon="-0.15811">
        <ele>4.1</ele>
        <time>2023-07-05T12:16:26Z</time>
      </trkpt>
      <trkpt lat="49.26855" lon="-0.15815">
        <ele>4.1</ele>
        <time>2023-07-05T12:16:27Z</time>
      </trkpt>
      <trkpt lat="49.26847" lon="-0.15818">
        <ele>4.1</ele>
        <time>2023-07-05T12:16:28Z</time>
      </trkpt>
      <trkpt lat="49.2684" lon="-0.15821">
        <ele>4.1</ele>
        <time>2023-07-05T12:16:29Z</time>
      </trkpt>
      <trkpt lat="49.26832" lon="-0.15824">
        <ele>4.1</ele>
        <time>2023-07-05T12:16:30Z</time>
      </trkpt>
      <trkpt lat="49.26825" lon="-0.15827">
        <ele>4.1</ele>
        <time>2023-07-05T12:16:31Z</time>
      </trkpt>
      <trkpt lat="49.26817" lon="-0.15829">
        <ele>4.1</ele>
        <time>2023-07-05T12:16:32Z</time>
      </trkpt>
      <trkpt lat="49.26809" lon="-0.15832">
        <ele>4.2</ele>
        <time>2023-07-05T12:16:33Z</time>
      </trkpt>
      <trkpt lat="49.26801" lon="-0.15833">
        <ele>4.2</ele>
        <time>2023-07-05T12:16:34Z</time>
      </trkpt>
      <trkpt lat="49.26793" lon="-0.15835">
        <ele>4.2</ele>
        <time>2023-07-05T12:16:35Z</time>
      </trkpt>
      <trkpt lat="49.26786" lon="-0.15836">
        <ele>4.2</ele>
        <time>2023-07-05T12:16:36Z</time>
      </trkpt>
      <trkpt lat="49.26778" lon="-0.15837">
        <ele>4.2</ele>
        <time>2023-07-05T12:16:37Z</time>
      </trkpt>
      <trkpt lat="49.26771" lon="-0.15838">
        <ele>4.2</ele>
        <time>2023-07-05T12:16:38Z</time>
      </trkpt>
      <trkpt lat="49.26763" lon="-0.15839">
        <ele>4.2</ele>
        <time>2023-07-05T12:16:39Z</time>
      </trkpt>
      <trkpt lat="49.26755" lon="-0.1584">
        <ele>4.2</ele>
        <time>2023-07-05T12:16:40Z</time>
      </trkpt>
      <trkpt lat="49.26747" lon="-0.15841">
        <ele>4.1</ele>
        <time>2023-07-05T12:16:41Z</time>
      </trkpt>
      <trkpt lat="49.26739" lon="-0.15842">
        <ele>4.1</ele>
        <time>2023-07-05T12:16:42Z</time>
      </trkpt>
      <trkpt lat="49.26731" lon="-0.15843">
        <ele>4.1</ele>
        <time>2023-07-05T12:16:43Z</time>
      </trkpt>
      <trkpt lat="49.26723" lon="-0.15844">
        <ele>4.1</ele>
        <time>2023-07-05T12:16:44Z</time>
      </trkpt>
      <trkpt lat="49.26716" lon="-0.15845">
        <ele>4.1</ele>
        <time>2023-07-05T12:16:45Z</time>
      </trkpt>
      <trkpt lat="49.26708" lon="-0.15846">
        <ele>4.1</ele>
        <time>2023-07-05T12:16:46Z</time>
      </trkpt>
      <trkpt lat="49.26699" lon="-0.15847">
        <ele>4.1</ele>
        <time>2023-07-05T12:16:47Z</time>
      </trkpt>
      <trkpt lat="49.26691" lon="-0.15848">
        <ele>4.1</ele>
        <time>2023-07-05T12:16:48Z</time>
      </trkpt>
      <trkpt lat="49.26683" lon="-0.15849">
        <ele>4.1</ele>
        <time>2023-07-05T12:16:49Z</time>
      </trkpt>
      <trkpt lat="49.26676" lon="-0.15849">
        <ele>4</ele>
        <time>2023-07-05T12:16:50Z</time>
      </trkpt>
      <trkpt lat="49.26668" lon="-0.1585">
        <ele>4</ele>
        <time>2023-07-05T12:16:51Z</time>
      </trkpt>
      <trkpt lat="49.26661" lon="-0.15851">
        <ele>4</ele>
        <time>2023-07-05T12:16:52Z</time>
      </trkpt>
      <trkpt lat="49.26653" lon="-0.15852">
        <ele>4</ele>
        <time>2023-07-05T12:16:53Z</time>
      </trkpt>
      <trkpt lat="49.26645" lon="-0.15852">
        <ele>4</ele>
        <time>2023-07-05T12:16:54Z</time>
      </trkpt>
      <trkpt lat="49.26637" lon="-0.15853">
        <ele>3.9</ele>
        <time>2023-07-05T12:16:55Z</time>
      </trkpt>
      <trkpt lat="49.2663" lon="-0.15853">
        <ele>3.9</ele>
        <time>2023-07-05T12:16:56Z</time>
      </trkpt>
      <trkpt lat="49.26621" lon="-0.15855">
        <ele>3.8</ele>
        <time>2023-07-05T12:16:57Z</time>
      </trkpt>
      <trkpt lat="49.26613" lon="-0.15856">
        <ele>3.8</ele>
        <time>2023-07-05T12:16:58Z</time>
      </trkpt>
      <trkpt lat="49.26606" lon="-0.15856">
        <ele>3.8</ele>
        <time>2023-07-05T12:16:59Z</time>
      </trkpt>
      <trkpt lat="49.26598" lon="-0.15857">
        <ele>3.7</ele>
        <time>2023-07-05T12:17:00Z</time>
      </trkpt>
      <trkpt lat="49.2659" lon="-0.15858">
        <ele>3.7</ele>
        <time>2023-07-05T12:17:01Z</time>
      </trkpt>
      <trkpt lat="49.26582" lon="-0.1586">
        <ele>3.7</ele>
        <time>2023-07-05T12:17:02Z</time>
      </trkpt>
      <trkpt lat="49.26574" lon="-0.15861">
        <ele>3.7</ele>
        <time>2023-07-05T12:17:03Z</time>
      </trkpt>
      <trkpt lat="49.26566" lon="-0.15864">
        <ele>3.7</ele>
        <time>2023-07-05T12:17:04Z</time>
      </trkpt>
      <trkpt lat="49.26558" lon="-0.15866">
        <ele>3.7</ele>
        <time>2023-07-05T12:17:05Z</time>
      </trkpt>
      <trkpt lat="49.2655" lon="-0.15868">
        <ele>3.7</ele>
        <time>2023-07-05T12:17:06Z</time>
      </trkpt>
      <trkpt lat="49.26543" lon="-0.1587">
        <ele>3.6</ele>
        <time>2023-07-05T12:17:07Z</time>
      </trkpt>
      <trkpt lat="49.26535" lon="-0.15873">
        <ele>3.6</ele>
        <time>2023-07-05T12:17:08Z</time>
      </trkpt>
      <trkpt lat="49.26527" lon="-0.15876">
        <ele>3.6</ele>
        <time>2023-07-05T12:17:09Z</time>
      </trkpt>
      <trkpt lat="49.26519" lon="-0.15879">
        <ele>3.6</ele>
        <time>2023-07-05T12:17:10Z</time>
      </trkpt>
      <trkpt lat="49.26512" lon="-0.15882">
        <ele>3.6</ele>
        <time>2023-07-05T12:17:11Z</time>
      </trkpt>
      <trkpt lat="49.26505" lon="-0.15885">
        <ele>3.5</ele>
        <time>2023-07-05T12:17:12Z</time>
      </trkpt>
      <trkpt lat="49.26498" lon="-0.15889">
        <ele>3.5</ele>
        <time>2023-07-05T12:17:13Z</time>
      </trkpt>
      <trkpt lat="49.2649" lon="-0.15893">
        <ele>3.5</ele>
        <time>2023-07-05T12:17:14Z</time>
      </trkpt>
      <trkpt lat="49.26483" lon="-0.15897">
        <ele>3.5</ele>
        <time>2023-07-05T12:17:15Z</time>
      </trkpt>
      <trkpt lat="49.26476" lon="-0.15901">
        <ele>3.5</ele>
        <time>2023-07-05T12:17:16Z</time>
      </trkpt>
      <trkpt lat="49.26469" lon="-0.15904">
        <ele>3.5</ele>
        <time>2023-07-05T12:17:17Z</time>
      </trkpt>
      <trkpt lat="49.26461" lon="-0.15907">
        <ele>3.6</ele>
        <time>2023-07-05T12:17:18Z</time>
      </trkpt>
      <trkpt lat="49.26454" lon="-0.15911">
        <ele>3.6</ele>
        <time>2023-07-05T12:17:19Z</time>
      </trkpt>
      <trkpt lat="49.26447" lon="-0.15915">
        <ele>3.6</ele>
        <time>2023-07-05T12:17:20Z</time>
      </trkpt>
      <trkpt lat="49.26439" lon="-0.15918">
        <ele>3.6</ele>
        <time>2023-07-05T12:17:21Z</time>
      </trkpt>
      <trkpt lat="49.26432" lon="-0.15922">
        <ele>3.6</ele>
        <time>2023-07-05T12:17:22Z</time>
      </trkpt>
      <trkpt lat="49.26425" lon="-0.15926">
        <ele>3.6</ele>
        <time>2023-07-05T12:17:23Z</time>
      </trkpt>
      <trkpt lat="49.26418" lon="-0.1593">
        <ele>3.6</ele>
        <time>2023-07-05T12:17:24Z</time>
      </trkpt>
      <trkpt lat="49.26411" lon="-0.15933">
        <ele>3.6</ele>
        <time>2023-07-05T12:17:25Z</time>
      </trkpt>
      <trkpt lat="49.26404" lon="-0.15937">
        <ele>3.6</ele>
        <time>2023-07-05T12:17:26Z</time>
      </trkpt>
      <trkpt lat="49.26397" lon="-0.1594">
        <ele>3.6</ele>
        <time>2023-07-05T12:17:27Z</time>
      </trkpt>
      <trkpt lat="49.2639" lon="-0.15944">
        <ele>3.6</ele>
        <time>2023-07-05T12:17:28Z</time>
      </trkpt>
      <trkpt lat="49.26382" lon="-0.15948">
        <ele>3.6</ele>
        <time>2023-07-05T12:17:29Z</time>
      </trkpt>
      <trkpt lat="49.26374" lon="-0.15952">
        <ele>3.6</ele>
        <time>2023-07-05T12:17:30Z</time>
      </trkpt>
      <trkpt lat="49.26367" lon="-0.15956">
        <ele>3.5</ele>
        <time>2023-07-05T12:17:31Z</time>
      </trkpt>
      <trkpt lat="49.26359" lon="-0.1596">
        <ele>3.5</ele>
        <time>2023-07-05T12:17:32Z</time>
      </trkpt>
      <trkpt lat="49.26352" lon="-0.15964">
        <ele>3.5</ele>
        <time>2023-07-05T12:17:33Z</time>
      </trkpt>
      <trkpt lat="49.26345" lon="-0.15968">
        <ele>3.5</ele>
        <time>2023-07-05T12:17:34Z</time>
      </trkpt>
      <trkpt lat="49.26338" lon="-0.15971">
        <ele>3.5</ele>
        <time>2023-07-05T12:17:35Z</time>
      </trkpt>
      <trkpt lat="49.2633" lon="-0.15975">
        <ele>3.5</ele>
        <time>2023-07-05T12:17:36Z</time>
      </trkpt>
      <trkpt lat="49.26323" lon="-0.15978">
        <ele>3.5</ele>
        <time>2023-07-05T12:17:37Z</time>
      </trkpt>
      <trkpt lat="49.26315" lon="-0.15982">
        <ele>3.5</ele>
        <time>2023-07-05T12:17:38Z</time>
      </trkpt>
      <trkpt lat="49.26308" lon="-0.15986">
        <ele>3.5</ele>
        <time>2023-07-05T12:17:39Z</time>
      </trkpt>
      <trkpt lat="49.26301" lon="-0.1599">
        <ele>3.5</ele>
        <time>2023-07-05T12:17:40Z</time>
      </trkpt>
      <trkpt lat="49.26293" lon="-0.15993">
        <ele>3.5</ele>
        <time>2023-07-05T12:17:41Z</time>
      </trkpt>
      <trkpt lat="49.26286" lon="-0.15997">
        <ele>3.5</ele>
        <time>2023-07-05T12:17:42Z</time>
      </trkpt>
      <trkpt lat="49.26279" lon="-0.16">
        <ele>3.5</ele>
        <time>2023-07-05T12:17:43Z</time>
      </trkpt>
      <trkpt lat="49.26272" lon="-0.16004">
        <ele>3.5</ele>
        <time>2023-07-05T12:17:44Z</time>
      </trkpt>
      <trkpt lat="49.26265" lon="-0.16008">
        <ele>3.5</ele>
        <time>2023-07-05T12:17:45Z</time>
      </trkpt>
      <trkpt lat="49.26258" lon="-0.16011">
        <ele>3.5</ele>
        <time>2023-07-05T12:17:46Z</time>
      </trkpt>
      <trkpt lat="49.26251" lon="-0.16015">
        <ele>3.5</ele>
        <time>2023-07-05T12:17:47Z</time>
      </trkpt>
      <trkpt lat="49.26244" lon="-0.16019">
        <ele>3.6</ele>
        <time>2023-07-05T12:17:48Z</time>
      </trkpt>
      <trkpt lat="49.26237" lon="-0.16023">
        <ele>3.6</ele>
        <time>2023-07-05T12:17:49Z</time>
      </trkpt>
      <trkpt lat="49.2623" lon="-0.16027">
        <ele>3.6</ele>
        <time>2023-07-05T12:17:50Z</time>
      </trkpt>
      <trkpt lat="49.26223" lon="-0.16031">
        <ele>3.6</ele>
        <time>2023-07-05T12:17:51Z</time>
      </trkpt>
      <trkpt lat="49.26216" lon="-0.16035">
        <ele>3.6</ele>
        <time>2023-07-05T12:17:52Z</time>
      </trkpt>
      <trkpt lat="49.26209" lon="-0.16038">
        <ele>3.7</ele>
        <time>2023-07-05T12:17:53Z</time>
      </trkpt>
      <trkpt lat="49.26202" lon="-0.16042">
        <ele>3.7</ele>
        <time>2023-07-05T12:17:54Z</time>
      </trkpt>
      <trkpt lat="49.26194" lon="-0.16045">
        <ele>3.7</ele>
        <time>2023-07-05T12:17:55Z</time>
      </trkpt>
      <trkpt lat="49.26187" lon="-0.16048">
        <ele>3.6</ele>
        <time>2023-07-05T12:17:56Z</time>
      </trkpt>
      <trkpt lat="49.26179" lon="-0.16051">
        <ele>3.6</ele>
        <time>2023-07-05T12:17:57Z</time>
      </trkpt>
      <trkpt lat="49.26171" lon="-0.16054">
        <ele>3.6</ele>
        <time>2023-07-05T12:17:58Z</time>
      </trkpt>
      <trkpt lat="49.26164" lon="-0.16056">
        <ele>3.6</ele>
        <time>2023-07-05T12:17:59Z</time>
      </trkpt>
      <trkpt lat="49.26156" lon="-0.16059">
        <ele>3.7</ele>
        <time>2023-07-05T12:18:00Z</time>
      </trkpt>
      <trkpt lat="49.26148" lon="-0.16061">
        <ele>3.7</ele>
        <time>2023-07-05T12:18:01Z</time>
      </trkpt>
      <trkpt lat="49.2614" lon="-0.16063">
        <ele>3.7</ele>
        <time>2023-07-05T12:18:02Z</time>
      </trkpt>
      <trkpt lat="49.26133" lon="-0.16065">
        <ele>3.7</ele>
        <time>2023-07-05T12:18:03Z</time>
      </trkpt>
      <trkpt lat="49.26125" lon="-0.16067">
        <ele>3.7</ele>
        <time>2023-07-05T12:18:04Z</time>
      </trkpt>
      <trkpt lat="49.26117" lon="-0.16068">
        <ele>3.7</ele>
        <time>2023-07-05T12:18:05Z</time>
      </trkpt>
      <trkpt lat="49.2611" lon="-0.16069">
        <ele>3.7</ele>
        <time>2023-07-05T12:18:06Z</time>
      </trkpt>
      <trkpt lat="49.26102" lon="-0.1607">
        <ele>3.7</ele>
        <time>2023-07-05T12:18:07Z</time>
      </trkpt>
      <trkpt lat="49.26093" lon="-0.16071">
        <ele>3.7</ele>
        <time>2023-07-05T12:18:08Z</time>
      </trkpt>
      <trkpt lat="49.26085" lon="-0.16071">
        <ele>3.7</ele>
        <time>2023-07-05T12:18:09Z</time>
      </trkpt>
      <trkpt lat="49.26077" lon="-0.16071">
        <ele>3.7</ele>
        <time>2023-07-05T12:18:10Z</time>
      </trkpt>
      <trkpt lat="49.26068" lon="-0.16072">
        <ele>3.8</ele>
        <time>2023-07-05T12:18:11Z</time>
      </trkpt>
      <trkpt lat="49.2606" lon="-0.16072">
        <ele>3.8</ele>
        <time>2023-07-05T12:18:12Z</time>
      </trkpt>
      <trkpt lat="49.26052" lon="-0.16072">
        <ele>3.7</ele>
        <time>2023-07-05T12:18:13Z</time>
      </trkpt>
      <trkpt lat="49.26045" lon="-0.16072">
        <ele>3.7</ele>
        <time>2023-07-05T12:18:14Z</time>
      </trkpt>
      <trkpt lat="49.26037" lon="-0.16072">
        <ele>3.7</ele>
        <time>2023-07-05T12:18:15Z</time>
      </trkpt>
      <trkpt lat="49.26029" lon="-0.16071">
        <ele>3.7</ele>
        <time>2023-07-05T12:18:16Z</time>
      </trkpt>
      <trkpt lat="49.26021" lon="-0.1607">
        <ele>3.7</ele>
        <time>2023-07-05T12:18:17Z</time>
      </trkpt>
      <trkpt lat="49.26013" lon="-0.16069">
        <ele>3.7</ele>
        <time>2023-07-05T12:18:18Z</time>
      </trkpt>
      <trkpt lat="49.26005" lon="-0.16067">
        <ele>3.6</ele>
        <time>2023-07-05T12:18:19Z</time>
      </trkpt>
      <trkpt lat="49.25997" lon="-0.16065">
        <ele>3.6</ele>
        <time>2023-07-05T12:18:20Z</time>
      </trkpt>
      <trkpt lat="49.2599" lon="-0.16063">
        <ele>3.6</ele>
        <time>2023-07-05T12:18:21Z</time>
      </trkpt>
      <trkpt lat="49.25982" lon="-0.16061">
        <ele>3.6</ele>
        <time>2023-07-05T12:18:22Z</time>
      </trkpt>
      <trkpt lat="49.25975" lon="-0.16059">
        <ele>3.6</ele>
        <time>2023-07-05T12:18:23Z</time>
      </trkpt>
      <trkpt lat="49.25967" lon="-0.16058">
        <ele>3.6</ele>
        <time>2023-07-05T12:18:24Z</time>
      </trkpt>
      <trkpt lat="49.2596" lon="-0.16056">
        <ele>3.6</ele>
        <time>2023-07-05T12:18:25Z</time>
      </trkpt>
      <trkpt lat="49.25952" lon="-0.16054">
        <ele>3.6</ele>
        <time>2023-07-05T12:18:26Z</time>
      </trkpt>
      <trkpt lat="49.25944" lon="-0.16051">
        <ele>3.6</ele>
        <time>2023-07-05T12:18:27Z</time>
      </trkpt>
      <trkpt lat="49.25936" lon="-0.16049">
        <ele>3.6</ele>
        <time>2023-07-05T12:18:28Z</time>
      </trkpt>
      <trkpt lat="49.25929" lon="-0.16047">
        <ele>3.6</ele>
        <time>2023-07-05T12:18:29Z</time>
      </trkpt>
      <trkpt lat="49.25921" lon="-0.16045">
        <ele>3.6</ele>
        <time>2023-07-05T12:18:30Z</time>
      </trkpt>
      <trkpt lat="49.25913" lon="-0.16043">
        <ele>3.6</ele>
        <time>2023-07-05T12:18:31Z</time>
      </trkpt>
      <trkpt lat="49.25905" lon="-0.16041">
        <ele>3.6</ele>
        <time>2023-07-05T12:18:32Z</time>
      </trkpt>
      <trkpt lat="49.25898" lon="-0.16039">
        <ele>3.6</ele>
        <time>2023-07-05T12:18:33Z</time>
      </trkpt>
      <trkpt lat="49.2589" lon="-0.16036">
        <ele>3.6</ele>
        <time>2023-07-05T12:18:34Z</time>
      </trkpt>
      <trkpt lat="49.25883" lon="-0.16034">
        <ele>3.6</ele>
        <time>2023-07-05T12:18:35Z</time>
      </trkpt>
      <trkpt lat="49.25875" lon="-0.16032">
        <ele>3.6</ele>
        <time>2023-07-05T12:18:36Z</time>
      </trkpt>
      <trkpt lat="49.25867" lon="-0.1603">
        <ele>3.5</ele>
        <time>2023-07-05T12:18:37Z</time>
      </trkpt>
      <trkpt lat="49.25859" lon="-0.16028">
        <ele>3.5</ele>
        <time>2023-07-05T12:18:38Z</time>
      </trkpt>
      <trkpt lat="49.25851" lon="-0.16026">
        <ele>3.5</ele>
        <time>2023-07-05T12:18:39Z</time>
      </trkpt>
      <trkpt lat="49.25843" lon="-0.16025">
        <ele>3.5</ele>
        <time>2023-07-05T12:18:40Z</time>
      </trkpt>
      <trkpt lat="49.25835" lon="-0.16023">
        <ele>3.5</ele>
        <time>2023-07-05T12:18:41Z</time>
      </trkpt>
      <trkpt lat="49.25827" lon="-0.16021">
        <ele>3.5</ele>
        <time>2023-07-05T12:18:42Z</time>
      </trkpt>
      <trkpt lat="49.2582" lon="-0.16019">
        <ele>3.5</ele>
        <time>2023-07-05T12:18:43Z</time>
      </trkpt>
      <trkpt lat="49.25812" lon="-0.16017">
        <ele>3.5</ele>
        <time>2023-07-05T12:18:44Z</time>
      </trkpt>
      <trkpt lat="49.25804" lon="-0.16015">
        <ele>3.6</ele>
        <time>2023-07-05T12:18:45Z</time>
      </trkpt>
      <trkpt lat="49.25796" lon="-0.16013">
        <ele>3.6</ele>
        <time>2023-07-05T12:18:46Z</time>
      </trkpt>
      <trkpt lat="49.25788" lon="-0.16011">
        <ele>3.6</ele>
        <time>2023-07-05T12:18:47Z</time>
      </trkpt>
      <trkpt lat="49.2578" lon="-0.1601">
        <ele>3.5</ele>
        <time>2023-07-05T12:18:48Z</time>
      </trkpt>
      <trkpt lat="49.25772" lon="-0.16008">
        <ele>3.5</ele>
        <time>2023-07-05T12:18:49Z</time>
      </trkpt>
      <trkpt lat="49.25764" lon="-0.16006">
        <ele>3.5</ele>
        <time>2023-07-05T12:18:50Z</time>
      </trkpt>
      <trkpt lat="49.25757" lon="-0.16004">
        <ele>3.5</ele>
        <time>2023-07-05T12:18:51Z</time>
      </trkpt>
      <trkpt lat="49.25749" lon="-0.16002">
        <ele>3.5</ele>
        <time>2023-07-05T12:18:52Z</time>
      </trkpt>
      <trkpt lat="49.25741" lon="-0.15999">
        <ele>3.5</ele>
        <time>2023-07-05T12:18:53Z</time>
      </trkpt>
      <trkpt lat="49.25733" lon="-0.15997">
        <ele>3.5</ele>
        <time>2023-07-05T12:18:54Z</time>
      </trkpt>
      <trkpt lat="49.25726" lon="-0.15994">
        <ele>3.5</ele>
        <time>2023-07-05T12:18:55Z</time>
      </trkpt>
      <trkpt lat="49.25718" lon="-0.15992">
        <ele>3.5</ele>
        <time>2023-07-05T12:18:56Z</time>
      </trkpt>
      <trkpt lat="49.2571" lon="-0.15989">
        <ele>3.5</ele>
        <time>2023-07-05T12:18:57Z</time>
      </trkpt>
      <trkpt lat="49.25702" lon="-0.15988">
        <ele>3.5</ele>
        <time>2023-07-05T12:18:58Z</time>
      </trkpt>
      <trkpt lat="49.25694" lon="-0.15986">
        <ele>3.5</ele>
        <time>2023-07-05T12:18:59Z</time>
      </trkpt>
      <trkpt lat="49.25686" lon="-0.15984">
        <ele>3.5</ele>
        <time>2023-07-05T12:19:00Z</time>
      </trkpt>
      <trkpt lat="49.25678" lon="-0.15982">
        <ele>3.5</ele>
        <time>2023-07-05T12:19:01Z</time>
      </trkpt>
      <trkpt lat="49.2567" lon="-0.1598">
        <ele>3.5</ele>
        <time>2023-07-05T12:19:02Z</time>
      </trkpt>
      <trkpt lat="49.25662" lon="-0.15978">
        <ele>3.6</ele>
        <time>2023-07-05T12:19:03Z</time>
      </trkpt>
      <trkpt lat="49.25655" lon="-0.15977">
        <ele>3.6</ele>
        <time>2023-07-05T12:19:04Z</time>
      </trkpt>
      <trkpt lat="49.25647" lon="-0.15975">
        <ele>3.6</ele>
        <time>2023-07-05T12:19:05Z</time>
      </trkpt>
      <trkpt lat="49.25639" lon="-0.15975">
        <ele>3.6</ele>
        <time>2023-07-05T12:19:06Z</time>
      </trkpt>
      <trkpt lat="49.25632" lon="-0.15974">
        <ele>3.7</ele>
        <time>2023-07-05T12:19:07Z</time>
      </trkpt>
      <trkpt lat="49.25624" lon="-0.15973">
        <ele>3.7</ele>
        <time>2023-07-05T12:19:08Z</time>
      </trkpt>
      <trkpt lat="49.25617" lon="-0.15972">
        <ele>3.7</ele>
        <time>2023-07-05T12:19:09Z</time>
      </trkpt>
      <trkpt lat="49.25609" lon="-0.15972">
        <ele>3.8</ele>
        <time>2023-07-05T12:19:10Z</time>
      </trkpt>
      <trkpt lat="49.25601" lon="-0.15972">
        <ele>3.8</ele>
        <time>2023-07-05T12:19:11Z</time>
      </trkpt>
      <trkpt lat="49.25593" lon="-0.15972">
        <ele>3.9</ele>
        <time>2023-07-05T12:19:12Z</time>
      </trkpt>
      <trkpt lat="49.25585" lon="-0.15973">
        <ele>3.9</ele>
        <time>2023-07-05T12:19:13Z</time>
      </trkpt>
      <trkpt lat="49.25577" lon="-0.15974">
        <ele>3.9</ele>
        <time>2023-07-05T12:19:14Z</time>
      </trkpt>
      <trkpt lat="49.25569" lon="-0.15975">
        <ele>4</ele>
        <time>2023-07-05T12:19:15Z</time>
      </trkpt>
      <trkpt lat="49.25561" lon="-0.15976">
        <ele>4</ele>
        <time>2023-07-05T12:19:16Z</time>
      </trkpt>
      <trkpt lat="49.25554" lon="-0.15977">
        <ele>4</ele>
        <time>2023-07-05T12:19:17Z</time>
      </trkpt>
      <trkpt lat="49.25546" lon="-0.15979">
        <ele>4</ele>
        <time>2023-07-05T12:19:18Z</time>
      </trkpt>
      <trkpt lat="49.25538" lon="-0.15981">
        <ele>4.1</ele>
        <time>2023-07-05T12:19:19Z</time>
      </trkpt>
      <trkpt lat="49.25531" lon="-0.15984">
        <ele>4.1</ele>
        <time>2023-07-05T12:19:20Z</time>
      </trkpt>
      <trkpt lat="49.25523" lon="-0.15986">
        <ele>4.1</ele>
        <time>2023-07-05T12:19:21Z</time>
      </trkpt>
      <trkpt lat="49.25516" lon="-0.15989">
        <ele>4.2</ele>
        <time>2023-07-05T12:19:22Z</time>
      </trkpt>
      <trkpt lat="49.25508" lon="-0.15991">
        <ele>4.2</ele>
        <time>2023-07-05T12:19:23Z</time>
      </trkpt>
      <trkpt lat="49.25501" lon="-0.15994">
        <ele>4.3</ele>
        <time>2023-07-05T12:19:24Z</time>
      </trkpt>
      <trkpt lat="49.25494" lon="-0.15998">
        <ele>4.3</ele>
        <time>2023-07-05T12:19:25Z</time>
      </trkpt>
      <trkpt lat="49.25488" lon="-0.16001">
        <ele>4.4</ele>
        <time>2023-07-05T12:19:26Z</time>
      </trkpt>
      <trkpt lat="49.25481" lon="-0.16005">
        <ele>4.4</ele>
        <time>2023-07-05T12:19:27Z</time>
      </trkpt>
      <trkpt lat="49.25474" lon="-0.16008">
        <ele>4.5</ele>
        <time>2023-07-05T12:19:28Z</time>
      </trkpt>
      <trkpt lat="49.25467" lon="-0.16012">
        <ele>4.6</ele>
        <time>2023-07-05T12:19:29Z</time>
      </trkpt>
      <trkpt lat="49.2546" lon="-0.16016">
        <ele>4.6</ele>
        <time>2023-07-05T12:19:30Z</time>
      </trkpt>
      <trkpt lat="49.25453" lon="-0.16021">
        <ele>4.7</ele>
        <time>2023-07-05T12:19:31Z</time>
      </trkpt>
      <trkpt lat="49.25446" lon="-0.16026">
        <ele>4.8</ele>
        <time>2023-07-05T12:19:32Z</time>
      </trkpt>
      <trkpt lat="49.25439" lon="-0.16031">
        <ele>4.9</ele>
        <time>2023-07-05T12:19:33Z</time>
      </trkpt>
      <trkpt lat="49.25433" lon="-0.16036">
        <ele>5</ele>
        <time>2023-07-05T12:19:34Z</time>
      </trkpt>
      <trkpt lat="49.25426" lon="-0.16041">
        <ele>5.2</ele>
        <time>2023-07-05T12:19:35Z</time>
      </trkpt>
      <trkpt lat="49.25419" lon="-0.16047">
        <ele>5.3</ele>
        <time>2023-07-05T12:19:36Z</time>
      </trkpt>
      <trkpt lat="49.25413" lon="-0.16051">
        <ele>5.5</ele>
        <time>2023-07-05T12:19:37Z</time>
      </trkpt>
      <trkpt lat="49.25406" lon="-0.16056">
        <ele>5.7</ele>
        <time>2023-07-05T12:19:38Z</time>
      </trkpt>
      <trkpt lat="49.254" lon="-0.16061">
        <ele>6</ele>
        <time>2023-07-05T12:19:39Z</time>
      </trkpt>
      <trkpt lat="49.25394" lon="-0.16066">
        <ele>6.2</ele>
        <time>2023-07-05T12:19:40Z</time>
      </trkpt>
      <trkpt lat="49.25388" lon="-0.1607">
        <ele>6.4</ele>
        <time>2023-07-05T12:19:41Z</time>
      </trkpt>
      <trkpt lat="49.25382" lon="-0.16075">
        <ele>6.5</ele>
        <time>2023-07-05T12:19:42Z</time>
      </trkpt>
      <trkpt lat="49.25376" lon="-0.1608">
        <ele>6.7</ele>
        <time>2023-07-05T12:19:43Z</time>
      </trkpt>
      <trkpt lat="49.2537" lon="-0.16084">
        <ele>6.9</ele>
        <time>2023-07-05T12:19:44Z</time>
      </trkpt>
      <trkpt lat="49.25364" lon="-0.16089">
        <ele>7.1</ele>
        <time>2023-07-05T12:19:45Z</time>
      </trkpt>
      <trkpt lat="49.25358" lon="-0.16094">
        <ele>7.3</ele>
        <time>2023-07-05T12:19:46Z</time>
      </trkpt>
      <trkpt lat="49.25352" lon="-0.16099">
        <ele>7.5</ele>
        <time>2023-07-05T12:19:47Z</time>
      </trkpt>
      <trkpt lat="49.25346" lon="-0.16104">
        <ele>7.6</ele>
        <time>2023-07-05T12:19:48Z</time>
      </trkpt>
      <trkpt lat="49.2534" lon="-0.16108">
        <ele>7.7</ele>
        <time>2023-07-05T12:19:49Z</time>
      </trkpt>
      <trkpt lat="49.25333" lon="-0.16112">
        <ele>7.8</ele>
        <time>2023-07-05T12:19:50Z</time>
      </trkpt>
      <trkpt lat="49.25327" lon="-0.16116">
        <ele>7.9</ele>
        <time>2023-07-05T12:19:51Z</time>
      </trkpt>
      <trkpt lat="49.25321" lon="-0.1612">
        <ele>8</ele>
        <time>2023-07-05T12:19:52Z</time>
      </trkpt>
      <trkpt lat="49.25315" lon="-0.16124">
        <ele>8</ele>
        <time>2023-07-05T12:19:53Z</time>
      </trkpt>
      <trkpt lat="49.25309" lon="-0.16128">
        <ele>8.1</ele>
        <time>2023-07-05T12:19:54Z</time>
      </trkpt>
      <trkpt lat="49.25303" lon="-0.16132">
        <ele>8.2</ele>
        <time>2023-07-05T12:19:55Z</time>
      </trkpt>
      <trkpt lat="49.25297" lon="-0.16136">
        <ele>8.2</ele>
        <time>2023-07-05T12:19:56Z</time>
      </trkpt>
      <trkpt lat="49.2529" lon="-0.16141">
        <ele>8.3</ele>
        <time>2023-07-05T12:19:57Z</time>
      </trkpt>
      <trkpt lat="49.25284" lon="-0.16145">
        <ele>8.4</ele>
        <time>2023-07-05T12:19:58Z</time>
      </trkpt>
      <trkpt lat="49.25277" lon="-0.1615">
        <ele>8.4</ele>
        <time>2023-07-05T12:19:59Z</time>
      </trkpt>
      <trkpt lat="49.2527" lon="-0.16155">
        <ele>8.5</ele>
        <time>2023-07-05T12:20:00Z</time>
      </trkpt>
      <trkpt lat="49.25264" lon="-0.1616">
        <ele>8.6</ele>
        <time>2023-07-05T12:20:01Z</time>
      </trkpt>
      <trkpt lat="49.25257" lon="-0.16165">
        <ele>8.7</ele>
        <time>2023-07-05T12:20:02Z</time>
      </trkpt>
      <trkpt lat="49.2525" lon="-0.1617">
        <ele>8.8</ele>
        <time>2023-07-05T12:20:03Z</time>
      </trkpt>
      <trkpt lat="49.25244" lon="-0.16175">
        <ele>8.9</ele>
        <time>2023-07-05T12:20:04Z</time>
      </trkpt>
      <trkpt lat="49.25237" lon="-0.1618">
        <ele>9</ele>
        <time>2023-07-05T12:20:05Z</time>
      </trkpt>
      <trkpt lat="49.25231" lon="-0.16185">
        <ele>9.1</ele>
        <time>2023-07-05T12:20:06Z</time>
      </trkpt>
      <trkpt lat="49.25225" lon="-0.16191">
        <ele>9.2</ele>
        <time>2023-07-05T12:20:07Z</time>
      </trkpt>
      <trkpt lat="49.25219" lon="-0.16197">
        <ele>9.4</ele>
        <time>2023-07-05T12:20:08Z</time>
      </trkpt>
      <trkpt lat="49.25212" lon="-0.16203">
        <ele>9.5</ele>
        <time>2023-07-05T12:20:09Z</time>
      </trkpt>
      <trkpt lat="49.25206" lon="-0.16209">
        <ele>9.6</ele>
        <time>2023-07-05T12:20:10Z</time>
      </trkpt>
      <trkpt lat="49.252" lon="-0.16214">
        <ele>9.8</ele>
        <time>2023-07-05T12:20:11Z</time>
      </trkpt>
      <trkpt lat="49.25194" lon="-0.1622">
        <ele>9.9</ele>
        <time>2023-07-05T12:20:12Z</time>
      </trkpt>
      <trkpt lat="49.25188" lon="-0.16226">
        <ele>10</ele>
        <time>2023-07-05T12:20:13Z</time>
      </trkpt>
      <trkpt lat="49.25183" lon="-0.16232">
        <ele>10.2</ele>
        <time>2023-07-05T12:20:14Z</time>
      </trkpt>
      <trkpt lat="49.25177" lon="-0.16238">
        <ele>10.4</ele>
        <time>2023-07-05T12:20:15Z</time>
      </trkpt>
      <trkpt lat="49.25171" lon="-0.16245">
        <ele>10.5</ele>
        <time>2023-07-05T12:20:16Z</time>
      </trkpt>
      <trkpt lat="49.25167" lon="-0.16251">
        <ele>10.7</ele>
        <time>2023-07-05T12:20:17Z</time>
      </trkpt>
      <trkpt lat="49.25162" lon="-0.16256">
        <ele>10.8</ele>
        <time>2023-07-05T12:20:18Z</time>
      </trkpt>
      <trkpt lat="49.25158" lon="-0.16258">
        <ele>10.9</ele>
        <time>2023-07-05T12:20:19Z</time>
      </trkpt>
      <trkpt lat="49.25153" lon="-0.16254">
        <ele>11</ele>
        <time>2023-07-05T12:20:20Z</time>
      </trkpt>
      <trkpt lat="49.25149" lon="-0.16247">
        <ele>11</ele>
        <time>2023-07-05T12:20:21Z</time>
      </trkpt>
      <trkpt lat="49.25146" lon="-0.1624">
        <ele>11</ele>
        <time>2023-07-05T12:20:22Z</time>
      </trkpt>
      <trkpt lat="49.25142" lon="-0.16233">
        <ele>11</ele>
        <time>2023-07-05T12:20:23Z</time>
      </trkpt>
      <trkpt lat="49.25137" lon="-0.16229">
        <ele>11</ele>
        <time>2023-07-05T12:20:24Z</time>
      </trkpt>
      <trkpt lat="49.25131" lon="-0.16225">
        <ele>11</ele>
        <time>2023-07-05T12:20:25Z</time>
      </trkpt>
      <trkpt lat="49.25125" lon="-0.16222">
        <ele>11.1</ele>
        <time>2023-07-05T12:20:26Z</time>
      </trkpt>
      <trkpt lat="49.25119" lon="-0.16219">
        <ele>11.1</ele>
        <time>2023-07-05T12:20:27Z</time>
      </trkpt>
      <trkpt lat="49.25114" lon="-0.16216">
        <ele>11.2</ele>
        <time>2023-07-05T12:20:28Z</time>
      </trkpt>
      <trkpt lat="49.25109" lon="-0.16213">
        <ele>11.2</ele>
        <time>2023-07-05T12:20:29Z</time>
      </trkpt>
      <trkpt lat="49.25104" lon="-0.16209">
        <ele>11.3</ele>
        <time>2023-07-05T12:20:30Z</time>
      </trkpt>
      <trkpt lat="49.25099" lon="-0.16206">
        <ele>11.4</ele>
        <time>2023-07-05T12:20:31Z</time>
      </trkpt>
      <trkpt lat="49.25093" lon="-0.16203">
        <ele>11.4</ele>
        <time>2023-07-05T12:20:32Z</time>
      </trkpt>
      <trkpt lat="49.25088" lon="-0.162">
        <ele>11.5</ele>
        <time>2023-07-05T12:20:33Z</time>
      </trkpt>
      <trkpt lat="49.25083" lon="-0.16197">
        <ele>11.6</ele>
        <time>2023-07-05T12:20:34Z</time>
      </trkpt>
      <trkpt lat="49.25077" lon="-0.16194">
        <ele>11.6</ele>
        <time>2023-07-05T12:20:35Z</time>
      </trkpt>
      <trkpt lat="49.25072" lon="-0.16191">
        <ele>11.6</ele>
        <time>2023-07-05T12:20:36Z</time>
      </trkpt>
      <trkpt lat="49.25065" lon="-0.16188">
        <ele>11.7</ele>
        <time>2023-07-05T12:20:37Z</time>
      </trkpt>
      <trkpt lat="49.2506" lon="-0.16186">
        <ele>11.7</ele>
        <time>2023-07-05T12:20:38Z</time>
      </trkpt>
      <trkpt lat="49.25054" lon="-0.16183">
        <ele>11.8</ele>
        <time>2023-07-05T12:20:39Z</time>
      </trkpt>
      <trkpt lat="49.25047" lon="-0.1618">
        <ele>11.8</ele>
        <time>2023-07-05T12:20:40Z</time>
      </trkpt>
      <trkpt lat="49.25041" lon="-0.16178">
        <ele>11.9</ele>
        <time>2023-07-05T12:20:41Z</time>
      </trkpt>
      <trkpt lat="49.25035" lon="-0.16177">
        <ele>12</ele>
        <time>2023-07-05T12:20:42Z</time>
      </trkpt>
      <trkpt lat="49.25028" lon="-0.16175">
        <ele>12</ele>
        <time>2023-07-05T12:20:43Z</time>
      </trkpt>
      <trkpt lat="49.25022" lon="-0.16173">
        <ele>12</ele>
        <time>2023-07-05T12:20:44Z</time>
      </trkpt>
      <trkpt lat="49.25016" lon="-0.16172">
        <ele>12.1</ele>
        <time>2023-07-05T12:20:45Z</time>
      </trkpt>
      <trkpt lat="49.25009" lon="-0.16171">
        <ele>12.1</ele>
        <time>2023-07-05T12:20:46Z</time>
      </trkpt>
      <trkpt lat="49.25003" lon="-0.1617">
        <ele>12.1</ele>
        <time>2023-07-05T12:20:47Z</time>
      </trkpt>
      <trkpt lat="49.24996" lon="-0.1617">
        <ele>12.1</ele>
        <time>2023-07-05T12:20:48Z</time>
      </trkpt>
      <trkpt lat="49.24989" lon="-0.16169">
        <ele>12.1</ele>
        <time>2023-07-05T12:20:49Z</time>
      </trkpt>
      <trkpt lat="49.24982" lon="-0.16168">
        <ele>12.1</ele>
        <time>2023-07-05T12:20:50Z</time>
      </trkpt>
      <trkpt lat="49.24976" lon="-0.16168">
        <ele>12.2</ele>
        <time>2023-07-05T12:20:51Z</time>
      </trkpt>
      <trkpt lat="49.2497" lon="-0.16168">
        <ele>12.2</ele>
        <time>2023-07-05T12:20:52Z</time>
      </trkpt>
      <trkpt lat="49.24964" lon="-0.16168">
        <ele>12.2</ele>
        <time>2023-07-05T12:20:53Z</time>
      </trkpt>
      <trkpt lat="49.24958" lon="-0.16168">
        <ele>12.2</ele>
        <time>2023-07-05T12:20:54Z</time>
      </trkpt>
      <trkpt lat="49.24953" lon="-0.16168">
        <ele>12.3</ele>
        <time>2023-07-05T12:20:55Z</time>
      </trkpt>
      <trkpt lat="49.24948" lon="-0.16168">
        <ele>12.3</ele>
        <time>2023-07-05T12:20:56Z</time>
      </trkpt>
      <trkpt lat="49.24943" lon="-0.16169">
        <ele>12.3</ele>
        <time>2023-07-05T12:20:57Z</time>
      </trkpt>
      <trkpt lat="49.24939" lon="-0.16169">
        <ele>12.3</ele>
        <time>2023-07-05T12:20:58Z</time>
      </trkpt>
      <trkpt lat="49.24934" lon="-0.1617">
        <ele>12.3</ele>
        <time>2023-07-05T12:20:59Z</time>
      </trkpt>
      <trkpt lat="49.24929" lon="-0.16171">
        <ele>12.3</ele>
        <time>2023-07-05T12:21:00Z</time>
      </trkpt>
      <trkpt lat="49.24924" lon="-0.16172">
        <ele>12.3</ele>
        <time>2023-07-05T12:21:01Z</time>
      </trkpt>
      <trkpt lat="49.24919" lon="-0.16173">
        <ele>12.3</ele>
        <time>2023-07-05T12:21:02Z</time>
      </trkpt>
      <trkpt lat="49.24914" lon="-0.16173">
        <ele>12.3</ele>
        <time>2023-07-05T12:21:03Z</time>
      </trkpt>
      <trkpt lat="49.24909" lon="-0.16174">
        <ele>12.4</ele>
        <time>2023-07-05T12:21:04Z</time>
      </trkpt>
      <trkpt lat="49.24904" lon="-0.16176">
        <ele>12.4</ele>
        <time>2023-07-05T12:21:05Z</time>
      </trkpt>
      <trkpt lat="49.24898" lon="-0.16177">
        <ele>12.4</ele>
        <time>2023-07-05T12:21:06Z</time>
      </trkpt>
      <trkpt lat="49.24892" lon="-0.16178">
        <ele>12.4</ele>
        <time>2023-07-05T12:21:07Z</time>
      </trkpt>
      <trkpt lat="49.24886" lon="-0.1618">
        <ele>12.4</ele>
        <time>2023-07-05T12:21:08Z</time>
      </trkpt>
      <trkpt lat="49.2488" lon="-0.16182">
        <ele>12.5</ele>
        <time>2023-07-05T12:21:09Z</time>
      </trkpt>
      <trkpt lat="49.24878" lon="-0.16183">
        <ele>12.5</ele>
        <time>2023-07-05T12:21:10Z</time>
      </trkpt>
      <trkpt lat="49.24875" lon="-0.16183">
        <ele>12.5</ele>
        <time>2023-07-05T12:21:11Z</time>
      </trkpt>
      <trkpt lat="49.24873" lon="-0.16184">
        <ele>12.5</ele>
        <time>2023-07-05T12:21:12Z</time>
      </trkpt>
      <trkpt lat="49.24867" lon="-0.16185">
        <ele>12.5</ele>
        <time>2023-07-05T12:21:13Z</time>
      </trkpt>
      <trkpt lat="49.24861" lon="-0.16186">
        <ele>12.6</ele>
        <time>2023-07-05T12:21:14Z</time>
      </trkpt>
      <trkpt lat="49.24855" lon="-0.16188">
        <ele>12.6</ele>
        <time>2023-07-05T12:21:15Z</time>
      </trkpt>
      <trkpt lat="49.24849" lon="-0.1619">
        <ele>12.7</ele>
        <time>2023-07-05T12:21:16Z</time>
      </trkpt>
      <trkpt lat="49.24843" lon="-0.16192">
        <ele>12.7</ele>
        <time>2023-07-05T12:21:17Z</time>
      </trkpt>
      <trkpt lat="49.24838" lon="-0.16192">
        <ele>12.8</ele>
        <time>2023-07-05T12:21:18Z</time>
      </trkpt>
      <trkpt lat="49.24832" lon="-0.16194">
        <ele>12.8</ele>
        <time>2023-07-05T12:21:19Z</time>
      </trkpt>
      <trkpt lat="49.24826" lon="-0.16195">
        <ele>12.9</ele>
        <time>2023-07-05T12:21:20Z</time>
      </trkpt>
      <trkpt lat="49.2482" lon="-0.16196">
        <ele>12.9</ele>
        <time>2023-07-05T12:21:21Z</time>
      </trkpt>
      <trkpt lat="49.24814" lon="-0.16197">
        <ele>13</ele>
        <time>2023-07-05T12:21:22Z</time>
      </trkpt>
      <trkpt lat="49.24808" lon="-0.16198">
        <ele>13</ele>
        <time>2023-07-05T12:21:23Z</time>
      </trkpt>
      <trkpt lat="49.24802" lon="-0.16199">
        <ele>13</ele>
        <time>2023-07-05T12:21:24Z</time>
      </trkpt>
      <trkpt lat="49.24796" lon="-0.162">
        <ele>13.1</ele>
        <time>2023-07-05T12:21:25Z</time>
      </trkpt>
      <trkpt lat="49.2479" lon="-0.16201">
        <ele>13.1</ele>
        <time>2023-07-05T12:21:26Z</time>
      </trkpt>
      <trkpt lat="49.24784" lon="-0.16202">
        <ele>13.2</ele>
        <time>2023-07-05T12:21:27Z</time>
      </trkpt>
      <trkpt lat="49.24778" lon="-0.16204">
        <ele>13.2</ele>
        <time>2023-07-05T12:21:28Z</time>
      </trkpt>
      <trkpt lat="49.24771" lon="-0.16205">
        <ele>13.3</ele>
        <time>2023-07-05T12:21:29Z</time>
      </trkpt>
      <trkpt lat="49.24765" lon="-0.16207">
        <ele>13.3</ele>
        <time>2023-07-05T12:21:30Z</time>
      </trkpt>
      <trkpt lat="49.24759" lon="-0.16209">
        <ele>13.3</ele>
        <time>2023-07-05T12:21:31Z</time>
      </trkpt>
      <trkpt lat="49.24753" lon="-0.16211">
        <ele>13.3</ele>
        <time>2023-07-05T12:21:32Z</time>
      </trkpt>
      <trkpt lat="49.24747" lon="-0.16212">
        <ele>13.4</ele>
        <time>2023-07-05T12:21:33Z</time>
      </trkpt>
      <trkpt lat="49.24741" lon="-0.16213">
        <ele>13.4</ele>
        <time>2023-07-05T12:21:34Z</time>
      </trkpt>
      <trkpt lat="49.24735" lon="-0.16215">
        <ele>13.4</ele>
        <time>2023-07-05T12:21:35Z</time>
      </trkpt>
      <trkpt lat="49.24729" lon="-0.16217">
        <ele>13.4</ele>
        <time>2023-07-05T12:21:36Z</time>
      </trkpt>
      <trkpt lat="49.24723" lon="-0.16219">
        <ele>13.5</ele>
        <time>2023-07-05T12:21:37Z</time>
      </trkpt>
      <trkpt lat="49.24716" lon="-0.1622">
        <ele>13.5</ele>
        <time>2023-07-05T12:21:38Z</time>
      </trkpt>
      <trkpt lat="49.2471" lon="-0.16222">
        <ele>13.5</ele>
        <time>2023-07-05T12:21:39Z</time>
      </trkpt>
      <trkpt lat="49.24704" lon="-0.16224">
        <ele>13.5</ele>
        <time>2023-07-05T12:21:40Z</time>
      </trkpt>
      <trkpt lat="49.24698" lon="-0.16227">
        <ele>13.5</ele>
        <time>2023-07-05T12:21:41Z</time>
      </trkpt>
      <trkpt lat="49.24692" lon="-0.1623">
        <ele>13.6</ele>
        <time>2023-07-05T12:21:42Z</time>
      </trkpt>
      <trkpt lat="49.24685" lon="-0.16234">
        <ele>13.6</ele>
        <time>2023-07-05T12:21:43Z</time>
      </trkpt>
      <trkpt lat="49.2468" lon="-0.16238">
        <ele>13.7</ele>
        <time>2023-07-05T12:21:44Z</time>
      </trkpt>
      <trkpt lat="49.24674" lon="-0.16243">
        <ele>13.7</ele>
        <time>2023-07-05T12:21:45Z</time>
      </trkpt>
      <trkpt lat="49.24668" lon="-0.16249">
        <ele>13.8</ele>
        <time>2023-07-05T12:21:46Z</time>
      </trkpt>
      <trkpt lat="49.24663" lon="-0.16254">
        <ele>13.8</ele>
        <time>2023-07-05T12:21:47Z</time>
      </trkpt>
      <trkpt lat="49.24657" lon="-0.1626">
        <ele>13.8</ele>
        <time>2023-07-05T12:21:48Z</time>
      </trkpt>
      <trkpt lat="49.24651" lon="-0.16265">
        <ele>13.9</ele>
        <time>2023-07-05T12:21:49Z</time>
      </trkpt>
      <trkpt lat="49.24645" lon="-0.16271">
        <ele>13.9</ele>
        <time>2023-07-05T12:21:50Z</time>
      </trkpt>
      <trkpt lat="49.2464" lon="-0.16277">
        <ele>13.9</ele>
        <time>2023-07-05T12:21:51Z</time>
      </trkpt>
      <trkpt lat="49.24634" lon="-0.16283">
        <ele>14</ele>
        <time>2023-07-05T12:21:52Z</time>
      </trkpt>
      <trkpt lat="49.24628" lon="-0.1629">
        <ele>14</ele>
        <time>2023-07-05T12:21:53Z</time>
      </trkpt>
      <trkpt lat="49.24623" lon="-0.16296">
        <ele>14.1</ele>
        <time>2023-07-05T12:21:54Z</time>
      </trkpt>
      <trkpt lat="49.24618" lon="-0.16303">
        <ele>14.1</ele>
        <time>2023-07-05T12:21:55Z</time>
      </trkpt>
      <trkpt lat="49.24613" lon="-0.1631">
        <ele>14.2</ele>
        <time>2023-07-05T12:21:56Z</time>
      </trkpt>
      <trkpt lat="49.24608" lon="-0.16317">
        <ele>14.3</ele>
        <time>2023-07-05T12:21:57Z</time>
      </trkpt>
      <trkpt lat="49.24604" lon="-0.16324">
        <ele>14.3</ele>
        <time>2023-07-05T12:21:58Z</time>
      </trkpt>
      <trkpt lat="49.24599" lon="-0.16331">
        <ele>14.3</ele>
        <time>2023-07-05T12:21:59Z</time>
      </trkpt>
      <trkpt lat="49.24595" lon="-0.16338">
        <ele>14.3</ele>
        <time>2023-07-05T12:22:00Z</time>
      </trkpt>
      <trkpt lat="49.24591" lon="-0.16345">
        <ele>14.3</ele>
        <time>2023-07-05T12:22:01Z</time>
      </trkpt>
      <trkpt lat="49.24586" lon="-0.16353">
        <ele>14.4</ele>
        <time>2023-07-05T12:22:02Z</time>
      </trkpt>
      <trkpt lat="49.24582" lon="-0.1636">
        <ele>14.4</ele>
        <time>2023-07-05T12:22:03Z</time>
      </trkpt>
      <trkpt lat="49.24578" lon="-0.16366">
        <ele>14.4</ele>
        <time>2023-07-05T12:22:04Z</time>
      </trkpt>
      <trkpt lat="49.24573" lon="-0.16373">
        <ele>14.4</ele>
        <time>2023-07-05T12:22:05Z</time>
      </trkpt>
      <trkpt lat="49.24569" lon="-0.16381">
        <ele>14.5</ele>
        <time>2023-07-05T12:22:06Z</time>
      </trkpt>
      <trkpt lat="49.24565" lon="-0.16389">
        <ele>14.5</ele>
        <time>2023-07-05T12:22:07Z</time>
      </trkpt>
      <trkpt lat="49.24561" lon="-0.16396">
        <ele>14.5</ele>
        <time>2023-07-05T12:22:08Z</time>
      </trkpt>
      <trkpt lat="49.24556" lon="-0.16403">
        <ele>14.5</ele>
        <time>2023-07-05T12:22:09Z</time>
      </trkpt>
      <trkpt lat="49.24551" lon="-0.16411">
        <ele>14.5</ele>
        <time>2023-07-05T12:22:10Z</time>
      </trkpt>
      <trkpt lat="49.24546" lon="-0.16419">
        <ele>14.5</ele>
        <time>2023-07-05T12:22:11Z</time>
      </trkpt>
      <trkpt lat="49.24541" lon="-0.16427">
        <ele>14.5</ele>
        <time>2023-07-05T12:22:12Z</time>
      </trkpt>
      <trkpt lat="49.24536" lon="-0.16434">
        <ele>14.5</ele>
        <time>2023-07-05T12:22:13Z</time>
      </trkpt>
      <trkpt lat="49.24531" lon="-0.16442">
        <ele>14.4</ele>
        <time>2023-07-05T12:22:14Z</time>
      </trkpt>
      <trkpt lat="49.24526" lon="-0.1645">
        <ele>14.4</ele>
        <time>2023-07-05T12:22:15Z</time>
      </trkpt>
      <trkpt lat="49.24521" lon="-0.16457">
        <ele>14.4</ele>
        <time>2023-07-05T12:22:16Z</time>
      </trkpt>
      <trkpt lat="49.24516" lon="-0.16465">
        <ele>14.4</ele>
        <time>2023-07-05T12:22:17Z</time>
      </trkpt>
      <trkpt lat="49.24511" lon="-0.16473">
        <ele>14.4</ele>
        <time>2023-07-05T12:22:18Z</time>
      </trkpt>
      <trkpt lat="49.24506" lon="-0.16481">
        <ele>14.4</ele>
        <time>2023-07-05T12:22:19Z</time>
      </trkpt>
      <trkpt lat="49.24501" lon="-0.16489">
        <ele>14.4</ele>
        <time>2023-07-05T12:22:20Z</time>
      </trkpt>
      <trkpt lat="49.24496" lon="-0.16497">
        <ele>14.5</ele>
        <time>2023-07-05T12:22:21Z</time>
      </trkpt>
      <trkpt lat="49.24492" lon="-0.16505">
        <ele>14.5</ele>
        <time>2023-07-05T12:22:22Z</time>
      </trkpt>
      <trkpt lat="49.24487" lon="-0.16513">
        <ele>14.6</ele>
        <time>2023-07-05T12:22:23Z</time>
      </trkpt>
      <trkpt lat="49.24483" lon="-0.16522">
        <ele>14.7</ele>
        <time>2023-07-05T12:22:24Z</time>
      </trkpt>
      <trkpt lat="49.24479" lon="-0.1653">
        <ele>14.8</ele>
        <time>2023-07-05T12:22:25Z</time>
      </trkpt>
      <trkpt lat="49.24476" lon="-0.16539">
        <ele>14.9</ele>
        <time>2023-07-05T12:22:26Z</time>
      </trkpt>
      <trkpt lat="49.24473" lon="-0.16548">
        <ele>14.9</ele>
        <time>2023-07-05T12:22:27Z</time>
      </trkpt>
      <trkpt lat="49.24471" lon="-0.16556">
        <ele>15</ele>
        <time>2023-07-05T12:22:28Z</time>
      </trkpt>
      <trkpt lat="49.24468" lon="-0.16565">
        <ele>15</ele>
        <time>2023-07-05T12:22:29Z</time>
      </trkpt>
      <trkpt lat="49.24465" lon="-0.16575">
        <ele>15.1</ele>
        <time>2023-07-05T12:22:30Z</time>
      </trkpt>
      <trkpt lat="49.24462" lon="-0.16584">
        <ele>15.1</ele>
        <time>2023-07-05T12:22:31Z</time>
      </trkpt>
      <trkpt lat="49.24459" lon="-0.16593">
        <ele>15.1</ele>
        <time>2023-07-05T12:22:32Z</time>
      </trkpt>
      <trkpt lat="49.24456" lon="-0.16601">
        <ele>15.1</ele>
        <time>2023-07-05T12:22:33Z</time>
      </trkpt>
      <trkpt lat="49.24452" lon="-0.1661">
        <ele>15.2</ele>
        <time>2023-07-05T12:22:34Z</time>
      </trkpt>
      <trkpt lat="49.24448" lon="-0.16618">
        <ele>15.2</ele>
        <time>2023-07-05T12:22:35Z</time>
      </trkpt>
      <trkpt lat="49.24443" lon="-0.16627">
        <ele>15.1</ele>
        <time>2023-07-05T12:22:36Z</time>
      </trkpt>
      <trkpt lat="49.24439" lon="-0.16635">
        <ele>15.1</ele>
        <time>2023-07-05T12:22:37Z</time>
      </trkpt>
      <trkpt lat="49.24433" lon="-0.16643">
        <ele>15.1</ele>
        <time>2023-07-05T12:22:38Z</time>
      </trkpt>
      <trkpt lat="49.24428" lon="-0.16652">
        <ele>15</ele>
        <time>2023-07-05T12:22:39Z</time>
      </trkpt>
      <trkpt lat="49.24423" lon="-0.16661">
        <ele>14.9</ele>
        <time>2023-07-05T12:22:40Z</time>
      </trkpt>
      <trkpt lat="49.24418" lon="-0.1667">
        <ele>14.8</ele>
        <time>2023-07-05T12:22:41Z</time>
      </trkpt>
      <trkpt lat="49.24413" lon="-0.16678">
        <ele>14.7</ele>
        <time>2023-07-05T12:22:42Z</time>
      </trkpt>
      <trkpt lat="49.24408" lon="-0.16687">
        <ele>14.6</ele>
        <time>2023-07-05T12:22:43Z</time>
      </trkpt>
      <trkpt lat="49.24403" lon="-0.16695">
        <ele>14.5</ele>
        <time>2023-07-05T12:22:44Z</time>
      </trkpt>
      <trkpt lat="49.24398" lon="-0.16704">
        <ele>14.4</ele>
        <time>2023-07-05T12:22:45Z</time>
      </trkpt>
      <trkpt lat="49.24393" lon="-0.16713">
        <ele>14.3</ele>
        <time>2023-07-05T12:22:46Z</time>
      </trkpt>
      <trkpt lat="49.24388" lon="-0.16721">
        <ele>14.2</ele>
        <time>2023-07-05T12:22:47Z</time>
      </trkpt>
      <trkpt lat="49.24384" lon="-0.16729">
        <ele>14.1</ele>
        <time>2023-07-05T12:22:48Z</time>
      </trkpt>
      <trkpt lat="49.24379" lon="-0.16738">
        <ele>14.1</ele>
        <time>2023-07-05T12:22:49Z</time>
      </trkpt>
      <trkpt lat="49.24374" lon="-0.16747">
        <ele>14</ele>
        <time>2023-07-05T12:22:50Z</time>
      </trkpt>
      <trkpt lat="49.24369" lon="-0.16755">
        <ele>14</ele>
        <time>2023-07-05T12:22:51Z</time>
      </trkpt>
      <trkpt lat="49.24364" lon="-0.16764">
        <ele>14</ele>
        <time>2023-07-05T12:22:52Z</time>
      </trkpt>
      <trkpt lat="49.24359" lon="-0.16773">
        <ele>14</ele>
        <time>2023-07-05T12:22:53Z</time>
      </trkpt>
      <trkpt lat="49.24355" lon="-0.16782">
        <ele>14</ele>
        <time>2023-07-05T12:22:54Z</time>
      </trkpt>
      <trkpt lat="49.24352" lon="-0.16791">
        <ele>14</ele>
        <time>2023-07-05T12:22:55Z</time>
      </trkpt>
      <trkpt lat="49.24351" lon="-0.16802">
        <ele>14</ele>
        <time>2023-07-05T12:22:56Z</time>
      </trkpt>
      <trkpt lat="49.24351" lon="-0.16813">
        <ele>14</ele>
        <time>2023-07-05T12:22:57Z</time>
      </trkpt>
      <trkpt lat="49.24351" lon="-0.16824">
        <ele>14</ele>
        <time>2023-07-05T12:22:58Z</time>
      </trkpt>
      <trkpt lat="49.24353" lon="-0.16835">
        <ele>14</ele>
        <time>2023-07-05T12:22:59Z</time>
      </trkpt>
      <trkpt lat="49.24356" lon="-0.16847">
        <ele>14.1</ele>
        <time>2023-07-05T12:23:00Z</time>
      </trkpt>
      <trkpt lat="49.24357" lon="-0.16857">
        <ele>14.1</ele>
        <time>2023-07-05T12:23:01Z</time>
      </trkpt>
      <trkpt lat="49.24359" lon="-0.16867">
        <ele>14.2</ele>
        <time>2023-07-05T12:23:02Z</time>
      </trkpt>
      <trkpt lat="49.2436" lon="-0.16878">
        <ele>14.3</ele>
        <time>2023-07-05T12:23:03Z</time>
      </trkpt>
      <trkpt lat="49.24362" lon="-0.16888">
        <ele>14.4</ele>
        <time>2023-07-05T12:23:04Z</time>
      </trkpt>
      <trkpt lat="49.24364" lon="-0.16899">
        <ele>14.5</ele>
        <time>2023-07-05T12:23:05Z</time>
      </trkpt>
      <trkpt lat="49.24365" lon="-0.16909">
        <ele>14.6</ele>
        <time>2023-07-05T12:23:06Z</time>
      </trkpt>
      <trkpt lat="49.24366" lon="-0.16919">
        <ele>14.7</ele>
        <time>2023-07-05T12:23:07Z</time>
      </trkpt>
      <trkpt lat="49.24367" lon="-0.16928">
        <ele>14.7</ele>
        <time>2023-07-05T12:23:08Z</time>
      </trkpt>
      <trkpt lat="49.24368" lon="-0.16938">
        <ele>14.8</ele>
        <time>2023-07-05T12:23:09Z</time>
      </trkpt>
      <trkpt lat="49.24369" lon="-0.16948">
        <ele>14.9</ele>
        <time>2023-07-05T12:23:10Z</time>
      </trkpt>
      <trkpt lat="49.2437" lon="-0.16957">
        <ele>15</ele>
        <time>2023-07-05T12:23:11Z</time>
      </trkpt>
      <trkpt lat="49.24371" lon="-0.16968">
        <ele>15.1</ele>
        <time>2023-07-05T12:23:12Z</time>
      </trkpt>
      <trkpt lat="49.24373" lon="-0.16978">
        <ele>15.2</ele>
        <time>2023-07-05T12:23:13Z</time>
      </trkpt>
      <trkpt lat="49.24374" lon="-0.16989">
        <ele>15.2</ele>
        <time>2023-07-05T12:23:14Z</time>
      </trkpt>
      <trkpt lat="49.24375" lon="-0.17">
        <ele>15.3</ele>
        <time>2023-07-05T12:23:15Z</time>
      </trkpt>
      <trkpt lat="49.24376" lon="-0.17011">
        <ele>15.5</ele>
        <time>2023-07-05T12:23:16Z</time>
      </trkpt>
      <trkpt lat="49.24377" lon="-0.17021">
        <ele>15.6</ele>
        <time>2023-07-05T12:23:17Z</time>
      </trkpt>
      <trkpt lat="49.24378" lon="-0.17033">
        <ele>15.7</ele>
        <time>2023-07-05T12:23:18Z</time>
      </trkpt>
      <trkpt lat="49.24379" lon="-0.17043">
        <ele>15.8</ele>
        <time>2023-07-05T12:23:19Z</time>
      </trkpt>
      <trkpt lat="49.2438" lon="-0.17055">
        <ele>15.9</ele>
        <time>2023-07-05T12:23:20Z</time>
      </trkpt>
      <trkpt lat="49.24381" lon="-0.17066">
        <ele>16</ele>
        <time>2023-07-05T12:23:21Z</time>
      </trkpt>
      <trkpt lat="49.24382" lon="-0.17078">
        <ele>16</ele>
        <time>2023-07-05T12:23:22Z</time>
      </trkpt>
      <trkpt lat="49.24383" lon="-0.1709">
        <ele>16.1</ele>
        <time>2023-07-05T12:23:23Z</time>
      </trkpt>
      <trkpt lat="49.24384" lon="-0.17101">
        <ele>16.2</ele>
        <time>2023-07-05T12:23:24Z</time>
      </trkpt>
      <trkpt lat="49.24384" lon="-0.17113">
        <ele>16.3</ele>
        <time>2023-07-05T12:23:25Z</time>
      </trkpt>
      <trkpt lat="49.24384" lon="-0.17125">
        <ele>16.3</ele>
        <time>2023-07-05T12:23:26Z</time>
      </trkpt>
      <trkpt lat="49.24385" lon="-0.17136">
        <ele>16.4</ele>
        <time>2023-07-05T12:23:27Z</time>
      </trkpt>
      <trkpt lat="49.24385" lon="-0.17148">
        <ele>16.4</ele>
        <time>2023-07-05T12:23:28Z</time>
      </trkpt>
      <trkpt lat="49.24385" lon="-0.1716">
        <ele>16.5</ele>
        <time>2023-07-05T12:23:29Z</time>
      </trkpt>
      <trkpt lat="49.24385" lon="-0.17171">
        <ele>16.5</ele>
        <time>2023-07-05T12:23:30Z</time>
      </trkpt>
      <trkpt lat="49.24385" lon="-0.17183">
        <ele>16.6</ele>
        <time>2023-07-05T12:23:31Z</time>
      </trkpt>
      <trkpt lat="49.24384" lon="-0.17195">
        <ele>16.6</ele>
        <time>2023-07-05T12:23:32Z</time>
      </trkpt>
      <trkpt lat="49.24384" lon="-0.17207">
        <ele>16.7</ele>
        <time>2023-07-05T12:23:33Z</time>
      </trkpt>
      <trkpt lat="49.24384" lon="-0.17219">
        <ele>16.7</ele>
        <time>2023-07-05T12:23:34Z</time>
      </trkpt>
      <trkpt lat="49.24384" lon="-0.17231">
        <ele>16.8</ele>
        <time>2023-07-05T12:23:35Z</time>
      </trkpt>
      <trkpt lat="49.24383" lon="-0.17243">
        <ele>16.8</ele>
        <time>2023-07-05T12:23:36Z</time>
      </trkpt>
      <trkpt lat="49.24383" lon="-0.17255">
        <ele>16.8</ele>
        <time>2023-07-05T12:23:37Z</time>
      </trkpt>
      <trkpt lat="49.24382" lon="-0.17267">
        <ele>16.8</ele>
        <time>2023-07-05T12:23:38Z</time>
      </trkpt>
      <trkpt lat="49.24382" lon="-0.17278">
        <ele>16.8</ele>
        <time>2023-07-05T12:23:39Z</time>
      </trkpt>
      <trkpt lat="49.24381" lon="-0.17289">
        <ele>16.7</ele>
        <time>2023-07-05T12:23:40Z</time>
      </trkpt>
      <trkpt lat="49.24381" lon="-0.173">
        <ele>16.6</ele>
        <time>2023-07-05T12:23:41Z</time>
      </trkpt>
      <trkpt lat="49.24381" lon="-0.17311">
        <ele>16.5</ele>
        <time>2023-07-05T12:23:42Z</time>
      </trkpt>
      <trkpt lat="49.2438" lon="-0.17322">
        <ele>16.4</ele>
        <time>2023-07-05T12:23:43Z</time>
      </trkpt>
      <trkpt lat="49.2438" lon="-0.17333">
        <ele>16.3</ele>
        <time>2023-07-05T12:23:44Z</time>
      </trkpt>
      <trkpt lat="49.2438" lon="-0.17345">
        <ele>16.2</ele>
        <time>2023-07-05T12:23:45Z</time>
      </trkpt>
      <trkpt lat="49.2438" lon="-0.17355">
        <ele>16.1</ele>
        <time>2023-07-05T12:23:46Z</time>
      </trkpt>
      <trkpt lat="49.24379" lon="-0.17367">
        <ele>15.9</ele>
        <time>2023-07-05T12:23:47Z</time>
      </trkpt>
      <trkpt lat="49.24379" lon="-0.17379">
        <ele>15.8</ele>
        <time>2023-07-05T12:23:48Z</time>
      </trkpt>
      <trkpt lat="49.24378" lon="-0.1739">
        <ele>15.8</ele>
        <time>2023-07-05T12:23:49Z</time>
      </trkpt>
      <trkpt lat="49.24375" lon="-0.174">
        <ele>15.7</ele>
        <time>2023-07-05T12:23:50Z</time>
      </trkpt>
      <trkpt lat="49.24369" lon="-0.17408">
        <ele>15.6</ele>
        <time>2023-07-05T12:23:51Z</time>
      </trkpt>
      <trkpt lat="49.24361" lon="-0.17413">
        <ele>15.6</ele>
        <time>2023-07-05T12:23:52Z</time>
      </trkpt>
      <trkpt lat="49.24354" lon="-0.17415">
        <ele>15.5</ele>
        <time>2023-07-05T12:23:53Z</time>
      </trkpt>
      <trkpt lat="49.24346" lon="-0.17416">
        <ele>15.5</ele>
        <time>2023-07-05T12:23:54Z</time>
      </trkpt>
      <trkpt lat="49.24337" lon="-0.17417">
        <ele>15.4</ele>
        <time>2023-07-05T12:23:55Z</time>
      </trkpt>
      <trkpt lat="49.24329" lon="-0.17419">
        <ele>15.4</ele>
        <time>2023-07-05T12:23:56Z</time>
      </trkpt>
      <trkpt lat="49.24321" lon="-0.1742">
        <ele>15.4</ele>
        <time>2023-07-05T12:23:57Z</time>
      </trkpt>
      <trkpt lat="49.24313" lon="-0.1742">
        <ele>15.3</ele>
        <time>2023-07-05T12:23:58Z</time>
      </trkpt>
      <trkpt lat="49.24306" lon="-0.17421">
        <ele>15.3</ele>
        <time>2023-07-05T12:23:59Z</time>
      </trkpt>
      <trkpt lat="49.24299" lon="-0.17421">
        <ele>15.2</ele>
        <time>2023-07-05T12:24:00Z</time>
      </trkpt>
      <trkpt lat="49.24292" lon="-0.17421">
        <ele>15.1</ele>
        <time>2023-07-05T12:24:01Z</time>
      </trkpt>
      <trkpt lat="49.24285" lon="-0.17421">
        <ele>15.1</ele>
        <time>2023-07-05T12:24:02Z</time>
      </trkpt>
      <trkpt lat="49.24278" lon="-0.17421">
        <ele>15</ele>
        <time>2023-07-05T12:24:03Z</time>
      </trkpt>
      <trkpt lat="49.24271" lon="-0.17422">
        <ele>14.9</ele>
        <time>2023-07-05T12:24:04Z</time>
      </trkpt>
      <trkpt lat="49.24264" lon="-0.17422">
        <ele>14.8</ele>
        <time>2023-07-05T12:24:05Z</time>
      </trkpt>
      <trkpt lat="49.24258" lon="-0.17422">
        <ele>14.7</ele>
        <time>2023-07-05T12:24:06Z</time>
      </trkpt>
      <trkpt lat="49.24251" lon="-0.17423">
        <ele>14.6</ele>
        <time>2023-07-05T12:24:07Z</time>
      </trkpt>
      <trkpt lat="49.24244" lon="-0.17423">
        <ele>14.4</ele>
        <time>2023-07-05T12:24:08Z</time>
      </trkpt>
      <trkpt lat="49.24238" lon="-0.17424">
        <ele>14.3</ele>
        <time>2023-07-05T12:24:09Z</time>
      </trkpt>
      <trkpt lat="49.24232" lon="-0.17425">
        <ele>14.2</ele>
        <time>2023-07-05T12:24:10Z</time>
      </trkpt>
      <trkpt lat="49.24225" lon="-0.17428">
        <ele>14.1</ele>
        <time>2023-07-05T12:24:11Z</time>
      </trkpt>
      <trkpt lat="49.24218" lon="-0.17431">
        <ele>14</ele>
        <time>2023-07-05T12:24:12Z</time>
      </trkpt>
      <trkpt lat="49.24211" lon="-0.17435">
        <ele>13.8</ele>
        <time>2023-07-05T12:24:13Z</time>
      </trkpt>
      <trkpt lat="49.24205" lon="-0.17441">
        <ele>13.7</ele>
        <time>2023-07-05T12:24:14Z</time>
      </trkpt>
      <trkpt lat="49.242" lon="-0.17449">
        <ele>13.5</ele>
        <time>2023-07-05T12:24:15Z</time>
      </trkpt>
      <trkpt lat="49.24196" lon="-0.17458">
        <ele>13.4</ele>
        <time>2023-07-05T12:24:16Z</time>
      </trkpt>
      <trkpt lat="49.24194" lon="-0.17468">
        <ele>13.2</ele>
        <time>2023-07-05T12:24:17Z</time>
      </trkpt>
      <trkpt lat="49.24193" lon="-0.17478">
        <ele>13</ele>
        <time>2023-07-05T12:24:18Z</time>
      </trkpt>
      <trkpt lat="49.24193" lon="-0.17489">
        <ele>12.8</ele>
        <time>2023-07-05T12:24:19Z</time>
      </trkpt>
      <trkpt lat="49.24193" lon="-0.17499">
        <ele>12.6</ele>
        <time>2023-07-05T12:24:20Z</time>
      </trkpt>
      <trkpt lat="49.24193" lon="-0.1751">
        <ele>12.5</ele>
        <time>2023-07-05T12:24:21Z</time>
      </trkpt>
      <trkpt lat="49.24193" lon="-0.17519">
        <ele>12.3</ele>
        <time>2023-07-05T12:24:22Z</time>
      </trkpt>
      <trkpt lat="49.24192" lon="-0.17529">
        <ele>12</ele>
        <time>2023-07-05T12:24:23Z</time>
      </trkpt>
      <trkpt lat="49.24188" lon="-0.17538">
        <ele>11.8</ele>
        <time>2023-07-05T12:24:24Z</time>
      </trkpt>
      <trkpt lat="49.24182" lon="-0.17545">
        <ele>11.5</ele>
        <time>2023-07-05T12:24:25Z</time>
      </trkpt>
      <trkpt lat="49.24176" lon="-0.1755">
        <ele>11.1</ele>
        <time>2023-07-05T12:24:26Z</time>
      </trkpt>
      <trkpt lat="49.24168" lon="-0.17555">
        <ele>10.8</ele>
        <time>2023-07-05T12:24:27Z</time>
      </trkpt>
      <trkpt lat="49.2416" lon="-0.17561">
        <ele>10.5</ele>
        <time>2023-07-05T12:24:28Z</time>
      </trkpt>
      <trkpt lat="49.24152" lon="-0.17567">
        <ele>10.2</ele>
        <time>2023-07-05T12:24:29Z</time>
      </trkpt>
      <trkpt lat="49.24143" lon="-0.17572">
        <ele>9.9</ele>
        <time>2023-07-05T12:24:30Z</time>
      </trkpt>
      <trkpt lat="49.24135" lon="-0.17577">
        <ele>9.6</ele>
        <time>2023-07-05T12:24:31Z</time>
      </trkpt>
      <trkpt lat="49.24127" lon="-0.17583">
        <ele>9.4</ele>
        <time>2023-07-05T12:24:32Z</time>
      </trkpt>
      <trkpt lat="49.24119" lon="-0.17591">
        <ele>9.2</ele>
        <time>2023-07-05T12:24:33Z</time>
      </trkpt>
      <trkpt lat="49.24113" lon="-0.17601">
        <ele>9</ele>
        <time>2023-07-05T12:24:34Z</time>
      </trkpt>
      <trkpt lat="49.24107" lon="-0.17612">
        <ele>8.9</ele>
        <time>2023-07-05T12:24:35Z</time>
      </trkpt>
      <trkpt lat="49.24103" lon="-0.17624">
        <ele>8.9</ele>
        <time>2023-07-05T12:24:36Z</time>
      </trkpt>
      <trkpt lat="49.24099" lon="-0.17636">
        <ele>8.9</ele>
        <time>2023-07-05T12:24:37Z</time>
      </trkpt>
      <trkpt lat="49.24097" lon="-0.17649">
        <ele>8.9</ele>
        <time>2023-07-05T12:24:38Z</time>
      </trkpt>
      <trkpt lat="49.24097" lon="-0.17662">
        <ele>8.9</ele>
        <time>2023-07-05T12:24:39Z</time>
      </trkpt>
      <trkpt lat="49.24098" lon="-0.17674">
        <ele>8.9</ele>
        <time>2023-07-05T12:24:40Z</time>
      </trkpt>
      <trkpt lat="49.24099" lon="-0.17685">
        <ele>9</ele>
        <time>2023-07-05T12:24:41Z</time>
      </trkpt>
      <trkpt lat="49.24101" lon="-0.17695">
        <ele>8.9</ele>
        <time>2023-07-05T12:24:42Z</time>
      </trkpt>
      <trkpt lat="49.24103" lon="-0.17705">
        <ele>8.9</ele>
        <time>2023-07-05T12:24:43Z</time>
      </trkpt>
      <trkpt lat="49.24104" lon="-0.17714">
        <ele>8.9</ele>
        <time>2023-07-05T12:24:44Z</time>
      </trkpt>
      <trkpt lat="49.24104" lon="-0.17722">
        <ele>9</ele>
        <time>2023-07-05T12:24:45Z</time>
      </trkpt>
      <trkpt lat="49.24104" lon="-0.1773">
        <ele>9</ele>
        <time>2023-07-05T12:24:46Z</time>
      </trkpt>
      <trkpt lat="49.24104" lon="-0.17737">
        <ele>9.1</ele>
        <time>2023-07-05T12:24:47Z</time>
      </trkpt>
      <trkpt lat="49.24104" lon="-0.17743">
        <ele>9.1</ele>
        <time>2023-07-05T12:24:48Z</time>
      </trkpt>
      <trkpt lat="49.24103" lon="-0.17749">
        <ele>9.2</ele>
        <time>2023-07-05T12:24:49Z</time>
      </trkpt>
      <trkpt lat="49.24103" lon="-0.17751">
        <ele>9.2</ele>
        <time>2023-07-05T12:24:50Z</time>
      </trkpt>
      <trkpt lat="49.24101" lon="-0.17754">
        <ele>9.3</ele>
        <time>2023-07-05T12:24:51Z</time>
      </trkpt>
      <trkpt lat="49.24098" lon="-0.17755">
        <ele>9.1</ele>
        <time>2023-07-05T12:24:52Z</time>
      </trkpt>
      <trkpt lat="49.24093" lon="-0.17755">
        <ele>9</ele>
        <time>2023-07-05T12:24:53Z</time>
      </trkpt>
      <trkpt lat="49.24088" lon="-0.17754">
        <ele>8.9</ele>
        <time>2023-07-05T12:24:54Z</time>
      </trkpt>
      <trkpt lat="49.24082" lon="-0.17753">
        <ele>8.9</ele>
        <time>2023-07-05T12:24:55Z</time>
      </trkpt>
      <trkpt lat="49.24076" lon="-0.17752">
        <ele>8.9</ele>
        <time>2023-07-05T12:24:56Z</time>
      </trkpt>
      <trkpt lat="49.24071" lon="-0.17752">
        <ele>8.9</ele>
        <time>2023-07-05T12:24:57Z</time>
      </trkpt>
      <trkpt lat="49.24065" lon="-0.17751">
        <ele>9</ele>
        <time>2023-07-05T12:24:58Z</time>
      </trkpt>
      <trkpt lat="49.24058" lon="-0.1775">
        <ele>9.1</ele>
        <time>2023-07-05T12:24:59Z</time>
      </trkpt>
      <trkpt lat="49.24052" lon="-0.1775">
        <ele>9.2</ele>
        <time>2023-07-05T12:25:00Z</time>
      </trkpt>
      <trkpt lat="49.24046" lon="-0.1775">
        <ele>9.4</ele>
        <time>2023-07-05T12:25:01Z</time>
      </trkpt>
      <trkpt lat="49.2404" lon="-0.1775">
        <ele>9.5</ele>
        <time>2023-07-05T12:25:02Z</time>
      </trkpt>
      <trkpt lat="49.24033" lon="-0.1775">
        <ele>9.6</ele>
        <time>2023-07-05T12:25:03Z</time>
      </trkpt>
      <trkpt lat="49.24027" lon="-0.17751">
        <ele>9.6</ele>
        <time>2023-07-05T12:25:04Z</time>
      </trkpt>
      <trkpt lat="49.24021" lon="-0.17752">
        <ele>9.6</ele>
        <time>2023-07-05T12:25:05Z</time>
      </trkpt>
      <trkpt lat="49.24015" lon="-0.17754">
        <ele>9.6</ele>
        <time>2023-07-05T12:25:06Z</time>
      </trkpt>
      <trkpt lat="49.2401" lon="-0.17755">
        <ele>9.5</ele>
        <time>2023-07-05T12:25:07Z</time>
      </trkpt>
      <trkpt lat="49.24003" lon="-0.17757">
        <ele>9.4</ele>
        <time>2023-07-05T12:25:08Z</time>
      </trkpt>
      <trkpt lat="49.23997" lon="-0.17758">
        <ele>9.3</ele>
        <time>2023-07-05T12:25:09Z</time>
      </trkpt>
      <trkpt lat="49.2399" lon="-0.17759">
        <ele>9.1</ele>
        <time>2023-07-05T12:25:10Z</time>
      </trkpt>
      <trkpt lat="49.23983" lon="-0.1776">
        <ele>8.9</ele>
        <time>2023-07-05T12:25:11Z</time>
      </trkpt>
      <trkpt lat="49.23976" lon="-0.1776">
        <ele>8.7</ele>
        <time>2023-07-05T12:25:12Z</time>
      </trkpt>
      <trkpt lat="49.23969" lon="-0.1776">
        <ele>8.4</ele>
        <time>2023-07-05T12:25:13Z</time>
      </trkpt>
      <trkpt lat="49.23961" lon="-0.1776">
        <ele>8.2</ele>
        <time>2023-07-05T12:25:14Z</time>
      </trkpt>
      <trkpt lat="49.23953" lon="-0.1776">
        <ele>7.9</ele>
        <time>2023-07-05T12:25:15Z</time>
      </trkpt>
      <trkpt lat="49.23946" lon="-0.17759">
        <ele>7.7</ele>
        <time>2023-07-05T12:25:16Z</time>
      </trkpt>
      <trkpt lat="49.23938" lon="-0.17759">
        <ele>7.5</ele>
        <time>2023-07-05T12:25:17Z</time>
      </trkpt>
      <trkpt lat="49.2393" lon="-0.17759">
        <ele>7.3</ele>
        <time>2023-07-05T12:25:18Z</time>
      </trkpt>
      <trkpt lat="49.23922" lon="-0.17758">
        <ele>7.1</ele>
        <time>2023-07-05T12:25:19Z</time>
      </trkpt>
      <trkpt lat="49.23914" lon="-0.17759">
        <ele>6.9</ele>
        <time>2023-07-05T12:25:20Z</time>
      </trkpt>
      <trkpt lat="49.23906" lon="-0.17759">
        <ele>6.7</ele>
        <time>2023-07-05T12:25:21Z</time>
      </trkpt>
      <trkpt lat="49.23897" lon="-0.17762">
        <ele>6.5</ele>
        <time>2023-07-05T12:25:22Z</time>
      </trkpt>
      <trkpt lat="49.23889" lon="-0.17766">
        <ele>6.4</ele>
        <time>2023-07-05T12:25:23Z</time>
      </trkpt>
      <trkpt lat="49.23881" lon="-0.17771">
        <ele>6.2</ele>
        <time>2023-07-05T12:25:24Z</time>
      </trkpt>
      <trkpt lat="49.23874" lon="-0.17778">
        <ele>6.1</ele>
        <time>2023-07-05T12:25:25Z</time>
      </trkpt>
      <trkpt lat="49.23867" lon="-0.17784">
        <ele>6</ele>
        <time>2023-07-05T12:25:26Z</time>
      </trkpt>
      <trkpt lat="49.2386" lon="-0.1779">
        <ele>5.8</ele>
        <time>2023-07-05T12:25:27Z</time>
      </trkpt>
      <trkpt lat="49.23853" lon="-0.17795">
        <ele>5.7</ele>
        <time>2023-07-05T12:25:28Z</time>
      </trkpt>
      <trkpt lat="49.23847" lon="-0.17801">
        <ele>5.6</ele>
        <time>2023-07-05T12:25:29Z</time>
      </trkpt>
      <trkpt lat="49.2384" lon="-0.17806">
        <ele>5.5</ele>
        <time>2023-07-05T12:25:30Z</time>
      </trkpt>
      <trkpt lat="49.23833" lon="-0.17812">
        <ele>5.4</ele>
        <time>2023-07-05T12:25:31Z</time>
      </trkpt>
      <trkpt lat="49.23827" lon="-0.17817">
        <ele>5.3</ele>
        <time>2023-07-05T12:25:32Z</time>
      </trkpt>
      <trkpt lat="49.2382" lon="-0.17822">
        <ele>5.2</ele>
        <time>2023-07-05T12:25:33Z</time>
      </trkpt>
      <trkpt lat="49.23814" lon="-0.17828">
        <ele>5.2</ele>
        <time>2023-07-05T12:25:34Z</time>
      </trkpt>
      <trkpt lat="49.23807" lon="-0.17833">
        <ele>5.1</ele>
        <time>2023-07-05T12:25:35Z</time>
      </trkpt>
      <trkpt lat="49.23801" lon="-0.17838">
        <ele>5</ele>
        <time>2023-07-05T12:25:36Z</time>
      </trkpt>
      <trkpt lat="49.23795" lon="-0.17844">
        <ele>4.9</ele>
        <time>2023-07-05T12:25:37Z</time>
      </trkpt>
      <trkpt lat="49.23789" lon="-0.1785">
        <ele>4.8</ele>
        <time>2023-07-05T12:25:38Z</time>
      </trkpt>
      <trkpt lat="49.23783" lon="-0.17856">
        <ele>4.8</ele>
        <time>2023-07-05T12:25:39Z</time>
      </trkpt>
      <trkpt lat="49.23776" lon="-0.17862">
        <ele>4.7</ele>
        <time>2023-07-05T12:25:40Z</time>
      </trkpt>
      <trkpt lat="49.2377" lon="-0.17868">
        <ele>4.7</ele>
        <time>2023-07-05T12:25:41Z</time>
      </trkpt>
      <trkpt lat="49.23763" lon="-0.17875">
        <ele>4.6</ele>
        <time>2023-07-05T12:25:42Z</time>
      </trkpt>
      <trkpt lat="49.23756" lon="-0.17881">
        <ele>4.6</ele>
        <time>2023-07-05T12:25:43Z</time>
      </trkpt>
      <trkpt lat="49.23749" lon="-0.17887">
        <ele>4.6</ele>
        <time>2023-07-05T12:25:44Z</time>
      </trkpt>
      <trkpt lat="49.23743" lon="-0.17893">
        <ele>4.6</ele>
        <time>2023-07-05T12:25:45Z</time>
      </trkpt>
      <trkpt lat="49.23736" lon="-0.17898">
        <ele>4.6</ele>
        <time>2023-07-05T12:25:46Z</time>
      </trkpt>
      <trkpt lat="49.2373" lon="-0.17902">
        <ele>4.5</ele>
        <time>2023-07-05T12:25:47Z</time>
      </trkpt>
      <trkpt lat="49.23723" lon="-0.17907">
        <ele>4.5</ele>
        <time>2023-07-05T12:25:48Z</time>
      </trkpt>
      <trkpt lat="49.23716" lon="-0.17911">
        <ele>4.5</ele>
        <time>2023-07-05T12:25:49Z</time>
      </trkpt>
      <trkpt lat="49.23709" lon="-0.17916">
        <ele>4.5</ele>
        <time>2023-07-05T12:25:50Z</time>
      </trkpt>
      <trkpt lat="49.23703" lon="-0.1792">
        <ele>4.5</ele>
        <time>2023-07-05T12:25:51Z</time>
      </trkpt>
      <trkpt lat="49.23696" lon="-0.17924">
        <ele>4.5</ele>
        <time>2023-07-05T12:25:52Z</time>
      </trkpt>
      <trkpt lat="49.23689" lon="-0.17929">
        <ele>4.5</ele>
        <time>2023-07-05T12:25:53Z</time>
      </trkpt>
      <trkpt lat="49.23682" lon="-0.17934">
        <ele>4.5</ele>
        <time>2023-07-05T12:25:54Z</time>
      </trkpt>
      <trkpt lat="49.23676" lon="-0.17938">
        <ele>4.5</ele>
        <time>2023-07-05T12:25:55Z</time>
      </trkpt>
      <trkpt lat="49.23669" lon="-0.17941">
        <ele>4.5</ele>
        <time>2023-07-05T12:25:56Z</time>
      </trkpt>
      <trkpt lat="49.23663" lon="-0.17944">
        <ele>4.5</ele>
        <time>2023-07-05T12:25:57Z</time>
      </trkpt>
      <trkpt lat="49.23657" lon="-0.17947">
        <ele>4.5</ele>
        <time>2023-07-05T12:25:58Z</time>
      </trkpt>
      <trkpt lat="49.2365" lon="-0.17951">
        <ele>4.5</ele>
        <time>2023-07-05T12:25:59Z</time>
      </trkpt>
      <trkpt lat="49.23643" lon="-0.17955">
        <ele>4.5</ele>
        <time>2023-07-05T12:26:00Z</time>
      </trkpt>
      <trkpt lat="49.23636" lon="-0.17959">
        <ele>4.5</ele>
        <time>2023-07-05T12:26:01Z</time>
      </trkpt>
      <trkpt lat="49.23628" lon="-0.17963">
        <ele>4.5</ele>
        <time>2023-07-05T12:26:02Z</time>
      </trkpt>
      <trkpt lat="49.23622" lon="-0.17967">
        <ele>4.5</ele>
        <time>2023-07-05T12:26:03Z</time>
      </trkpt>
      <trkpt lat="49.23615" lon="-0.17971">
        <ele>4.5</ele>
        <time>2023-07-05T12:26:04Z</time>
      </trkpt>
      <trkpt lat="49.23608" lon="-0.17974">
        <ele>4.5</ele>
        <time>2023-07-05T12:26:05Z</time>
      </trkpt>
      <trkpt lat="49.23602" lon="-0.17978">
        <ele>4.5</ele>
        <time>2023-07-05T12:26:06Z</time>
      </trkpt>
      <trkpt lat="49.23596" lon="-0.17982">
        <ele>4.5</ele>
        <time>2023-07-05T12:26:07Z</time>
      </trkpt>
      <trkpt lat="49.23589" lon="-0.17985">
        <ele>4.5</ele>
        <time>2023-07-05T12:26:08Z</time>
      </trkpt>
      <trkpt lat="49.23582" lon="-0.17988">
        <ele>4.5</ele>
        <time>2023-07-05T12:26:09Z</time>
      </trkpt>
      <trkpt lat="49.23576" lon="-0.17992">
        <ele>4.5</ele>
        <time>2023-07-05T12:26:10Z</time>
      </trkpt>
      <trkpt lat="49.23569" lon="-0.17996">
        <ele>4.5</ele>
        <time>2023-07-05T12:26:11Z</time>
      </trkpt>
      <trkpt lat="49.23563" lon="-0.17999">
        <ele>4.5</ele>
        <time>2023-07-05T12:26:12Z</time>
      </trkpt>
      <trkpt lat="49.23556" lon="-0.18002">
        <ele>4.6</ele>
        <time>2023-07-05T12:26:13Z</time>
      </trkpt>
      <trkpt lat="49.23549" lon="-0.18005">
        <ele>4.6</ele>
        <time>2023-07-05T12:26:14Z</time>
      </trkpt>
      <trkpt lat="49.23543" lon="-0.18008">
        <ele>4.7</ele>
        <time>2023-07-05T12:26:15Z</time>
      </trkpt>
      <trkpt lat="49.23536" lon="-0.18012">
        <ele>4.8</ele>
        <time>2023-07-05T12:26:16Z</time>
      </trkpt>
      <trkpt lat="49.23529" lon="-0.18014">
        <ele>4.8</ele>
        <time>2023-07-05T12:26:17Z</time>
      </trkpt>
      <trkpt lat="49.23522" lon="-0.18014">
        <ele>4.9</ele>
        <time>2023-07-05T12:26:18Z</time>
      </trkpt>
      <trkpt lat="49.23517" lon="-0.18011">
        <ele>4.8</ele>
        <time>2023-07-05T12:26:19Z</time>
      </trkpt>
      <trkpt lat="49.23512" lon="-0.18004">
        <ele>4.8</ele>
        <time>2023-07-05T12:26:20Z</time>
      </trkpt>
      <trkpt lat="49.23508" lon="-0.17995">
        <ele>4.7</ele>
        <time>2023-07-05T12:26:21Z</time>
      </trkpt>
      <trkpt lat="49.23505" lon="-0.17983">
        <ele>4.7</ele>
        <time>2023-07-05T12:26:22Z</time>
      </trkpt>
      <trkpt lat="49.23503" lon="-0.17972">
        <ele>4.6</ele>
        <time>2023-07-05T12:26:23Z</time>
      </trkpt>
      <trkpt lat="49.23501" lon="-0.17961">
        <ele>4.6</ele>
        <time>2023-07-05T12:26:24Z</time>
      </trkpt>
      <trkpt lat="49.235" lon="-0.1795">
        <ele>4.5</ele>
        <time>2023-07-05T12:26:25Z</time>
      </trkpt>
      <trkpt lat="49.23499" lon="-0.17938">
        <ele>4.5</ele>
        <time>2023-07-05T12:26:26Z</time>
      </trkpt>
      <trkpt lat="49.23498" lon="-0.17926">
        <ele>4.4</ele>
        <time>2023-07-05T12:26:27Z</time>
      </trkpt>
      <trkpt lat="49.23496" lon="-0.17915">
        <ele>4.4</ele>
        <time>2023-07-05T12:26:28Z</time>
      </trkpt>
      <trkpt lat="49.23495" lon="-0.17903">
        <ele>4.4</ele>
        <time>2023-07-05T12:26:29Z</time>
      </trkpt>
      <trkpt lat="49.23493" lon="-0.17891">
        <ele>4.3</ele>
        <time>2023-07-05T12:26:30Z</time>
      </trkpt>
      <trkpt lat="49.23491" lon="-0.17879">
        <ele>4.3</ele>
        <time>2023-07-05T12:26:31Z</time>
      </trkpt>
      <trkpt lat="49.23488" lon="-0.17867">
        <ele>4.3</ele>
        <time>2023-07-05T12:26:32Z</time>
      </trkpt>
      <trkpt lat="49.23485" lon="-0.17857">
        <ele>4.3</ele>
        <time>2023-07-05T12:26:33Z</time>
      </trkpt>
      <trkpt lat="49.2348" lon="-0.17847">
        <ele>4.3</ele>
        <time>2023-07-05T12:26:34Z</time>
      </trkpt>
      <trkpt lat="49.23475" lon="-0.17837">
        <ele>4.3</ele>
        <time>2023-07-05T12:26:35Z</time>
      </trkpt>
      <trkpt lat="49.2347" lon="-0.17829">
        <ele>4.3</ele>
        <time>2023-07-05T12:26:36Z</time>
      </trkpt>
      <trkpt lat="49.23464" lon="-0.17821">
        <ele>4.3</ele>
        <time>2023-07-05T12:26:37Z</time>
      </trkpt>
      <trkpt lat="49.23457" lon="-0.17814">
        <ele>4.3</ele>
        <time>2023-07-05T12:26:38Z</time>
      </trkpt>
      <trkpt lat="49.23451" lon="-0.17807">
        <ele>4.4</ele>
        <time>2023-07-05T12:26:39Z</time>
      </trkpt>
      <trkpt lat="49.23444" lon="-0.17802">
        <ele>4.4</ele>
        <time>2023-07-05T12:26:40Z</time>
      </trkpt>
      <trkpt lat="49.23438" lon="-0.17795">
        <ele>4.4</ele>
        <time>2023-07-05T12:26:41Z</time>
      </trkpt>
      <trkpt lat="49.23431" lon="-0.17789">
        <ele>4.4</ele>
        <time>2023-07-05T12:26:42Z</time>
      </trkpt>
      <trkpt lat="49.23425" lon="-0.17783">
        <ele>4.4</ele>
        <time>2023-07-05T12:26:43Z</time>
      </trkpt>
      <trkpt lat="49.23418" lon="-0.17778">
        <ele>4.4</ele>
        <time>2023-07-05T12:26:44Z</time>
      </trkpt>
      <trkpt lat="49.23412" lon="-0.17773">
        <ele>4.4</ele>
        <time>2023-07-05T12:26:45Z</time>
      </trkpt>
      <trkpt lat="49.23405" lon="-0.17767">
        <ele>4.4</ele>
        <time>2023-07-05T12:26:46Z</time>
      </trkpt>
      <trkpt lat="49.23398" lon="-0.17761">
        <ele>4.5</ele>
        <time>2023-07-05T12:26:47Z</time>
      </trkpt>
      <trkpt lat="49.23392" lon="-0.17755">
        <ele>4.5</ele>
        <time>2023-07-05T12:26:48Z</time>
      </trkpt>
      <trkpt lat="49.23385" lon="-0.17748">
        <ele>4.6</ele>
        <time>2023-07-05T12:26:49Z</time>
      </trkpt>
      <trkpt lat="49.23379" lon="-0.17743">
        <ele>4.7</ele>
        <time>2023-07-05T12:26:50Z</time>
      </trkpt>
      <trkpt lat="49.23372" lon="-0.17737">
        <ele>4.8</ele>
        <time>2023-07-05T12:26:51Z</time>
      </trkpt>
      <trkpt lat="49.23365" lon="-0.17732">
        <ele>4.8</ele>
        <time>2023-07-05T12:26:52Z</time>
      </trkpt>
      <trkpt lat="49.23358" lon="-0.17727">
        <ele>4.9</ele>
        <time>2023-07-05T12:26:53Z</time>
      </trkpt>
      <trkpt lat="49.23351" lon="-0.17722">
        <ele>5</ele>
        <time>2023-07-05T12:26:54Z</time>
      </trkpt>
      <trkpt lat="49.23344" lon="-0.17718">
        <ele>5</ele>
        <time>2023-07-05T12:26:55Z</time>
      </trkpt>
      <trkpt lat="49.23337" lon="-0.17713">
        <ele>5.1</ele>
        <time>2023-07-05T12:26:56Z</time>
      </trkpt>
      <trkpt lat="49.2333" lon="-0.17708">
        <ele>5.2</ele>
        <time>2023-07-05T12:26:57Z</time>
      </trkpt>
      <trkpt lat="49.23324" lon="-0.17704">
        <ele>5.2</ele>
        <time>2023-07-05T12:26:58Z</time>
      </trkpt>
      <trkpt lat="49.23317" lon="-0.177">
        <ele>5.3</ele>
        <time>2023-07-05T12:26:59Z</time>
      </trkpt>
      <trkpt lat="49.2331" lon="-0.17696">
        <ele>5.3</ele>
        <time>2023-07-05T12:27:00Z</time>
      </trkpt>
      <trkpt lat="49.23303" lon="-0.17691">
        <ele>5.4</ele>
        <time>2023-07-05T12:27:01Z</time>
      </trkpt>
      <trkpt lat="49.23296" lon="-0.17687">
        <ele>5.4</ele>
        <time>2023-07-05T12:27:02Z</time>
      </trkpt>
      <trkpt lat="49.2329" lon="-0.17683">
        <ele>5.5</ele>
        <time>2023-07-05T12:27:03Z</time>
      </trkpt>
      <trkpt lat="49.23283" lon="-0.17679">
        <ele>5.5</ele>
        <time>2023-07-05T12:27:04Z</time>
      </trkpt>
      <trkpt lat="49.23276" lon="-0.17675">
        <ele>5.6</ele>
        <time>2023-07-05T12:27:05Z</time>
      </trkpt>
      <trkpt lat="49.23269" lon="-0.17671">
        <ele>5.6</ele>
        <time>2023-07-05T12:27:06Z</time>
      </trkpt>
      <trkpt lat="49.23262" lon="-0.17668">
        <ele>5.7</ele>
        <time>2023-07-05T12:27:07Z</time>
      </trkpt>
      <trkpt lat="49.23255" lon="-0.17664">
        <ele>5.7</ele>
        <time>2023-07-05T12:27:08Z</time>
      </trkpt>
      <trkpt lat="49.23248" lon="-0.1766">
        <ele>5.8</ele>
        <time>2023-07-05T12:27:09Z</time>
      </trkpt>
      <trkpt lat="49.23241" lon="-0.17657">
        <ele>5.9</ele>
        <time>2023-07-05T12:27:10Z</time>
      </trkpt>
      <trkpt lat="49.23233" lon="-0.17653">
        <ele>5.9</ele>
        <time>2023-07-05T12:27:11Z</time>
      </trkpt>
      <trkpt lat="49.23226" lon="-0.1765">
        <ele>6</ele>
        <time>2023-07-05T12:27:12Z</time>
      </trkpt>
      <trkpt lat="49.23219" lon="-0.17646">
        <ele>6</ele>
        <time>2023-07-05T12:27:13Z</time>
      </trkpt>
      <trkpt lat="49.23212" lon="-0.17642">
        <ele>6</ele>
        <time>2023-07-05T12:27:14Z</time>
      </trkpt>
      <trkpt lat="49.23205" lon="-0.17639">
        <ele>6</ele>
        <time>2023-07-05T12:27:15Z</time>
      </trkpt>
      <trkpt lat="49.23198" lon="-0.17636">
        <ele>6</ele>
        <time>2023-07-05T12:27:16Z</time>
      </trkpt>
      <trkpt lat="49.23191" lon="-0.17633">
        <ele>6.1</ele>
        <time>2023-07-05T12:27:17Z</time>
      </trkpt>
      <trkpt lat="49.23184" lon="-0.1763">
        <ele>6.1</ele>
        <time>2023-07-05T12:27:18Z</time>
      </trkpt>
      <trkpt lat="49.23177" lon="-0.17628">
        <ele>6.1</ele>
        <time>2023-07-05T12:27:19Z</time>
      </trkpt>
      <trkpt lat="49.2317" lon="-0.17626">
        <ele>6.1</ele>
        <time>2023-07-05T12:27:20Z</time>
      </trkpt>
      <trkpt lat="49.23162" lon="-0.17623">
        <ele>6.1</ele>
        <time>2023-07-05T12:27:21Z</time>
      </trkpt>
      <trkpt lat="49.23155" lon="-0.17621">
        <ele>6.1</ele>
        <time>2023-07-05T12:27:22Z</time>
      </trkpt>
      <trkpt lat="49.23148" lon="-0.17619">
        <ele>6.1</ele>
        <time>2023-07-05T12:27:23Z</time>
      </trkpt>
      <trkpt lat="49.23142" lon="-0.17617">
        <ele>6.1</ele>
        <time>2023-07-05T12:27:24Z</time>
      </trkpt>
      <trkpt lat="49.23135" lon="-0.17615">
        <ele>6.1</ele>
        <time>2023-07-05T12:27:25Z</time>
      </trkpt>
      <trkpt lat="49.23128" lon="-0.17614">
        <ele>6</ele>
        <time>2023-07-05T12:27:26Z</time>
      </trkpt>
      <trkpt lat="49.23121" lon="-0.17613">
        <ele>6</ele>
        <time>2023-07-05T12:27:27Z</time>
      </trkpt>
      <trkpt lat="49.23114" lon="-0.17612">
        <ele>5.9</ele>
        <time>2023-07-05T12:27:28Z</time>
      </trkpt>
      <trkpt lat="49.23106" lon="-0.17611">
        <ele>5.8</ele>
        <time>2023-07-05T12:27:29Z</time>
      </trkpt>
      <trkpt lat="49.23099" lon="-0.17611">
        <ele>5.8</ele>
        <time>2023-07-05T12:27:30Z</time>
      </trkpt>
      <trkpt lat="49.23091" lon="-0.1761">
        <ele>5.7</ele>
        <time>2023-07-05T12:27:31Z</time>
      </trkpt>
      <trkpt lat="49.23084" lon="-0.1761">
        <ele>5.6</ele>
        <time>2023-07-05T12:27:32Z</time>
      </trkpt>
      <trkpt lat="49.23076" lon="-0.17611">
        <ele>5.6</ele>
        <time>2023-07-05T12:27:33Z</time>
      </trkpt>
      <trkpt lat="49.23069" lon="-0.17611">
        <ele>5.5</ele>
        <time>2023-07-05T12:27:34Z</time>
      </trkpt>
      <trkpt lat="49.23061" lon="-0.17612">
        <ele>5.3</ele>
        <time>2023-07-05T12:27:35Z</time>
      </trkpt>
      <trkpt lat="49.23053" lon="-0.17613">
        <ele>5.2</ele>
        <time>2023-07-05T12:27:36Z</time>
      </trkpt>
      <trkpt lat="49.23046" lon="-0.17614">
        <ele>5.1</ele>
        <time>2023-07-05T12:27:37Z</time>
      </trkpt>
      <trkpt lat="49.23038" lon="-0.17616">
        <ele>5</ele>
        <time>2023-07-05T12:27:38Z</time>
      </trkpt>
      <trkpt lat="49.23031" lon="-0.17617">
        <ele>4.9</ele>
        <time>2023-07-05T12:27:39Z</time>
      </trkpt>
      <trkpt lat="49.23023" lon="-0.17619">
        <ele>4.8</ele>
        <time>2023-07-05T12:27:40Z</time>
      </trkpt>
      <trkpt lat="49.23016" lon="-0.17622">
        <ele>4.7</ele>
        <time>2023-07-05T12:27:41Z</time>
      </trkpt>
      <trkpt lat="49.23009" lon="-0.17626">
        <ele>4.6</ele>
        <time>2023-07-05T12:27:42Z</time>
      </trkpt>
      <trkpt lat="49.23001" lon="-0.1763">
        <ele>4.5</ele>
        <time>2023-07-05T12:27:43Z</time>
      </trkpt>
      <trkpt lat="49.22994" lon="-0.17633">
        <ele>4.4</ele>
        <time>2023-07-05T12:27:44Z</time>
      </trkpt>
      <trkpt lat="49.22987" lon="-0.17637">
        <ele>4.3</ele>
        <time>2023-07-05T12:27:45Z</time>
      </trkpt>
      <trkpt lat="49.2298" lon="-0.1764">
        <ele>4.2</ele>
        <time>2023-07-05T12:27:46Z</time>
      </trkpt>
      <trkpt lat="49.22973" lon="-0.17644">
        <ele>4.2</ele>
        <time>2023-07-05T12:27:47Z</time>
      </trkpt>
      <trkpt lat="49.22966" lon="-0.17648">
        <ele>4.1</ele>
        <time>2023-07-05T12:27:48Z</time>
      </trkpt>
      <trkpt lat="49.22959" lon="-0.17652">
        <ele>4.1</ele>
        <time>2023-07-05T12:27:49Z</time>
      </trkpt>
      <trkpt lat="49.22952" lon="-0.17655">
        <ele>4</ele>
        <time>2023-07-05T12:27:50Z</time>
      </trkpt>
      <trkpt lat="49.22945" lon="-0.17659">
        <ele>3.9</ele>
        <time>2023-07-05T12:27:51Z</time>
      </trkpt>
      <trkpt lat="49.22937" lon="-0.17663">
        <ele>3.8</ele>
        <time>2023-07-05T12:27:52Z</time>
      </trkpt>
      <trkpt lat="49.2293" lon="-0.17667">
        <ele>3.7</ele>
        <time>2023-07-05T12:27:53Z</time>
      </trkpt>
      <trkpt lat="49.22923" lon="-0.17672">
        <ele>3.6</ele>
        <time>2023-07-05T12:27:54Z</time>
      </trkpt>
      <trkpt lat="49.22915" lon="-0.17676">
        <ele>3.6</ele>
        <time>2023-07-05T12:27:55Z</time>
      </trkpt>
      <trkpt lat="49.22908" lon="-0.17679">
        <ele>3.6</ele>
        <time>2023-07-05T12:27:56Z</time>
      </trkpt>
      <trkpt lat="49.229" lon="-0.17683">
        <ele>3.6</ele>
        <time>2023-07-05T12:27:57Z</time>
      </trkpt>
      <trkpt lat="49.22893" lon="-0.17685">
        <ele>3.6</ele>
        <time>2023-07-05T12:27:58Z</time>
      </trkpt>
      <trkpt lat="49.22889" lon="-0.17686">
        <ele>3.6</ele>
        <time>2023-07-05T12:27:59Z</time>
      </trkpt>
      <trkpt lat="49.22887" lon="-0.17687">
        <ele>3.6</ele>
        <time>2023-07-05T12:28:00Z</time>
      </trkpt>
      <trkpt lat="49.22884" lon="-0.17688">
        <ele>3.7</ele>
        <time>2023-07-05T12:28:01Z</time>
      </trkpt>
      <trkpt lat="49.22877" lon="-0.17689">
        <ele>3.7</ele>
        <time>2023-07-05T12:28:02Z</time>
      </trkpt>
      <trkpt lat="49.22869" lon="-0.17689">
        <ele>3.9</ele>
        <time>2023-07-05T12:28:03Z</time>
      </trkpt>
      <trkpt lat="49.22861" lon="-0.17689">
        <ele>4</ele>
        <time>2023-07-05T12:28:04Z</time>
      </trkpt>
      <trkpt lat="49.22853" lon="-0.1769">
        <ele>4</ele>
        <time>2023-07-05T12:28:05Z</time>
      </trkpt>
      <trkpt lat="49.22845" lon="-0.1769">
        <ele>4</ele>
        <time>2023-07-05T12:28:06Z</time>
      </trkpt>
      <trkpt lat="49.22836" lon="-0.17691">
        <ele>4</ele>
        <time>2023-07-05T12:28:07Z</time>
      </trkpt>
      <trkpt lat="49.22828" lon="-0.17692">
        <ele>4.1</ele>
        <time>2023-07-05T12:28:08Z</time>
      </trkpt>
      <trkpt lat="49.2282" lon="-0.17693">
        <ele>4.2</ele>
        <time>2023-07-05T12:28:09Z</time>
      </trkpt>
      <trkpt lat="49.22812" lon="-0.17694">
        <ele>4.3</ele>
        <time>2023-07-05T12:28:10Z</time>
      </trkpt>
      <trkpt lat="49.22804" lon="-0.17695">
        <ele>4.3</ele>
        <time>2023-07-05T12:28:11Z</time>
      </trkpt>
      <trkpt lat="49.22797" lon="-0.17697">
        <ele>4.4</ele>
        <time>2023-07-05T12:28:12Z</time>
      </trkpt>
      <trkpt lat="49.22789" lon="-0.17699">
        <ele>4.5</ele>
        <time>2023-07-05T12:28:13Z</time>
      </trkpt>
      <trkpt lat="49.22781" lon="-0.17703">
        <ele>4.5</ele>
        <time>2023-07-05T12:28:14Z</time>
      </trkpt>
      <trkpt lat="49.22773" lon="-0.17707">
        <ele>4.5</ele>
        <time>2023-07-05T12:28:15Z</time>
      </trkpt>
      <trkpt lat="49.22766" lon="-0.17711">
        <ele>4.5</ele>
        <time>2023-07-05T12:28:16Z</time>
      </trkpt>
      <trkpt lat="49.22759" lon="-0.17716">
        <ele>4.5</ele>
        <time>2023-07-05T12:28:17Z</time>
      </trkpt>
      <trkpt lat="49.22751" lon="-0.1772">
        <ele>4.4</ele>
        <time>2023-07-05T12:28:18Z</time>
      </trkpt>
      <trkpt lat="49.22744" lon="-0.17724">
        <ele>4.4</ele>
        <time>2023-07-05T12:28:19Z</time>
      </trkpt>
      <trkpt lat="49.22737" lon="-0.17729">
        <ele>4.4</ele>
        <time>2023-07-05T12:28:20Z</time>
      </trkpt>
      <trkpt lat="49.22731" lon="-0.17735">
        <ele>4.4</ele>
        <time>2023-07-05T12:28:21Z</time>
      </trkpt>
      <trkpt lat="49.22724" lon="-0.17741">
        <ele>4.4</ele>
        <time>2023-07-05T12:28:22Z</time>
      </trkpt>
      <trkpt lat="49.22718" lon="-0.17748">
        <ele>4.5</ele>
        <time>2023-07-05T12:28:23Z</time>
      </trkpt>
      <trkpt lat="49.22712" lon="-0.17756">
        <ele>4.5</ele>
        <time>2023-07-05T12:28:24Z</time>
      </trkpt>
      <trkpt lat="49.22706" lon="-0.17764">
        <ele>4.6</ele>
        <time>2023-07-05T12:28:25Z</time>
      </trkpt>
      <trkpt lat="49.22701" lon="-0.17773">
        <ele>4.6</ele>
        <time>2023-07-05T12:28:26Z</time>
      </trkpt>
      <trkpt lat="49.22696" lon="-0.17782">
        <ele>4.6</ele>
        <time>2023-07-05T12:28:27Z</time>
      </trkpt>
      <trkpt lat="49.22691" lon="-0.17792">
        <ele>4.6</ele>
        <time>2023-07-05T12:28:28Z</time>
      </trkpt>
      <trkpt lat="49.22686" lon="-0.178">
        <ele>4.6</ele>
        <time>2023-07-05T12:28:29Z</time>
      </trkpt>
      <trkpt lat="49.2268" lon="-0.17807">
        <ele>4.7</ele>
        <time>2023-07-05T12:28:30Z</time>
      </trkpt>
      <trkpt lat="49.22674" lon="-0.17814">
        <ele>4.7</ele>
        <time>2023-07-05T12:28:31Z</time>
      </trkpt>
      <trkpt lat="49.22668" lon="-0.17821">
        <ele>4.8</ele>
        <time>2023-07-05T12:28:32Z</time>
      </trkpt>
      <trkpt lat="49.22661" lon="-0.17827">
        <ele>4.8</ele>
        <time>2023-07-05T12:28:33Z</time>
      </trkpt>
      <trkpt lat="49.22655" lon="-0.17833">
        <ele>4.9</ele>
        <time>2023-07-05T12:28:34Z</time>
      </trkpt>
      <trkpt lat="49.22649" lon="-0.17839">
        <ele>4.9</ele>
        <time>2023-07-05T12:28:35Z</time>
      </trkpt>
      <trkpt lat="49.22642" lon="-0.17844">
        <ele>5</ele>
        <time>2023-07-05T12:28:36Z</time>
      </trkpt>
      <trkpt lat="49.22636" lon="-0.17848">
        <ele>5.1</ele>
        <time>2023-07-05T12:28:37Z</time>
      </trkpt>
      <trkpt lat="49.22629" lon="-0.17852">
        <ele>5.1</ele>
        <time>2023-07-05T12:28:38Z</time>
      </trkpt>
      <trkpt lat="49.22623" lon="-0.17855">
        <ele>5.2</ele>
        <time>2023-07-05T12:28:39Z</time>
      </trkpt>
      <trkpt lat="49.22616" lon="-0.17858">
        <ele>5.2</ele>
        <time>2023-07-05T12:28:40Z</time>
      </trkpt>
      <trkpt lat="49.2261" lon="-0.17861">
        <ele>5.3</ele>
        <time>2023-07-05T12:28:41Z</time>
      </trkpt>
      <trkpt lat="49.22603" lon="-0.17863">
        <ele>5.3</ele>
        <time>2023-07-05T12:28:42Z</time>
      </trkpt>
      <trkpt lat="49.22596" lon="-0.17865">
        <ele>5.4</ele>
        <time>2023-07-05T12:28:43Z</time>
      </trkpt>
      <trkpt lat="49.22589" lon="-0.17866">
        <ele>5.4</ele>
        <time>2023-07-05T12:28:44Z</time>
      </trkpt>
      <trkpt lat="49.22582" lon="-0.17867">
        <ele>5.5</ele>
        <time>2023-07-05T12:28:45Z</time>
      </trkpt>
      <trkpt lat="49.22575" lon="-0.17869">
        <ele>5.5</ele>
        <time>2023-07-05T12:28:46Z</time>
      </trkpt>
      <trkpt lat="49.22568" lon="-0.17869">
        <ele>5.6</ele>
        <time>2023-07-05T12:28:47Z</time>
      </trkpt>
      <trkpt lat="49.22561" lon="-0.17869">
        <ele>5.7</ele>
        <time>2023-07-05T12:28:48Z</time>
      </trkpt>
      <trkpt lat="49.22553" lon="-0.17869">
        <ele>5.8</ele>
        <time>2023-07-05T12:28:49Z</time>
      </trkpt>
      <trkpt lat="49.22546" lon="-0.17869">
        <ele>5.9</ele>
        <time>2023-07-05T12:28:50Z</time>
      </trkpt>
      <trkpt lat="49.22539" lon="-0.17869">
        <ele>6</ele>
        <time>2023-07-05T12:28:51Z</time>
      </trkpt>
      <trkpt lat="49.22532" lon="-0.1787">
        <ele>6.1</ele>
        <time>2023-07-05T12:28:52Z</time>
      </trkpt>
      <trkpt lat="49.22525" lon="-0.1787">
        <ele>6.2</ele>
        <time>2023-07-05T12:28:53Z</time>
      </trkpt>
      <trkpt lat="49.22517" lon="-0.17869">
        <ele>6.2</ele>
        <time>2023-07-05T12:28:54Z</time>
      </trkpt>
      <trkpt lat="49.2251" lon="-0.17868">
        <ele>6.3</ele>
        <time>2023-07-05T12:28:55Z</time>
      </trkpt>
      <trkpt lat="49.22503" lon="-0.17867">
        <ele>6.4</ele>
        <time>2023-07-05T12:28:56Z</time>
      </trkpt>
      <trkpt lat="49.22496" lon="-0.17866">
        <ele>6.5</ele>
        <time>2023-07-05T12:28:57Z</time>
      </trkpt>
      <trkpt lat="49.22489" lon="-0.17864">
        <ele>6.6</ele>
        <time>2023-07-05T12:28:58Z</time>
      </trkpt>
      <trkpt lat="49.22481" lon="-0.17862">
        <ele>6.7</ele>
        <time>2023-07-05T12:28:59Z</time>
      </trkpt>
      <trkpt lat="49.22474" lon="-0.1786">
        <ele>6.7</ele>
        <time>2023-07-05T12:29:00Z</time>
      </trkpt>
      <trkpt lat="49.22467" lon="-0.17858">
        <ele>6.8</ele>
        <time>2023-07-05T12:29:01Z</time>
      </trkpt>
      <trkpt lat="49.2246" lon="-0.17855">
        <ele>6.9</ele>
        <time>2023-07-05T12:29:02Z</time>
      </trkpt>
      <trkpt lat="49.22453" lon="-0.17853">
        <ele>6.9</ele>
        <time>2023-07-05T12:29:03Z</time>
      </trkpt>
      <trkpt lat="49.22446" lon="-0.1785">
        <ele>6.9</ele>
        <time>2023-07-05T12:29:04Z</time>
      </trkpt>
      <trkpt lat="49.2244" lon="-0.17848">
        <ele>6.9</ele>
        <time>2023-07-05T12:29:05Z</time>
      </trkpt>
      <trkpt lat="49.22433" lon="-0.17845">
        <ele>6.9</ele>
        <time>2023-07-05T12:29:06Z</time>
      </trkpt>
      <trkpt lat="49.22426" lon="-0.17842">
        <ele>6.9</ele>
        <time>2023-07-05T12:29:07Z</time>
      </trkpt>
      <trkpt lat="49.22419" lon="-0.17839">
        <ele>6.9</ele>
        <time>2023-07-05T12:29:08Z</time>
      </trkpt>
      <trkpt lat="49.22412" lon="-0.17836">
        <ele>6.8</ele>
        <time>2023-07-05T12:29:09Z</time>
      </trkpt>
      <trkpt lat="49.22404" lon="-0.17833">
        <ele>6.8</ele>
        <time>2023-07-05T12:29:10Z</time>
      </trkpt>
      <trkpt lat="49.22397" lon="-0.1783">
        <ele>6.7</ele>
        <time>2023-07-05T12:29:11Z</time>
      </trkpt>
      <trkpt lat="49.22389" lon="-0.17827">
        <ele>6.6</ele>
        <time>2023-07-05T12:29:12Z</time>
      </trkpt>
      <trkpt lat="49.22382" lon="-0.17824">
        <ele>6.4</ele>
        <time>2023-07-05T12:29:13Z</time>
      </trkpt>
      <trkpt lat="49.22374" lon="-0.17822">
        <ele>6.3</ele>
        <time>2023-07-05T12:29:14Z</time>
      </trkpt>
      <trkpt lat="49.22365" lon="-0.17819">
        <ele>6.2</ele>
        <time>2023-07-05T12:29:15Z</time>
      </trkpt>
      <trkpt lat="49.22357" lon="-0.17818">
        <ele>6.1</ele>
        <time>2023-07-05T12:29:16Z</time>
      </trkpt>
      <trkpt lat="49.22349" lon="-0.17817">
        <ele>6</ele>
        <time>2023-07-05T12:29:17Z</time>
      </trkpt>
      <trkpt lat="49.2234" lon="-0.17817">
        <ele>5.9</ele>
        <time>2023-07-05T12:29:18Z</time>
      </trkpt>
      <trkpt lat="49.22332" lon="-0.17817">
        <ele>5.8</ele>
        <time>2023-07-05T12:29:19Z</time>
      </trkpt>
      <trkpt lat="49.22325" lon="-0.17817">
        <ele>5.7</ele>
        <time>2023-07-05T12:29:20Z</time>
      </trkpt>
      <trkpt lat="49.22316" lon="-0.17818">
        <ele>5.6</ele>
        <time>2023-07-05T12:29:21Z</time>
      </trkpt>
      <trkpt lat="49.22308" lon="-0.17819">
        <ele>5.5</ele>
        <time>2023-07-05T12:29:22Z</time>
      </trkpt>
      <trkpt lat="49.223" lon="-0.1782">
        <ele>5.4</ele>
        <time>2023-07-05T12:29:23Z</time>
      </trkpt>
      <trkpt lat="49.22292" lon="-0.1782">
        <ele>5.3</ele>
        <time>2023-07-05T12:29:24Z</time>
      </trkpt>
      <trkpt lat="49.22284" lon="-0.17821">
        <ele>5.3</ele>
        <time>2023-07-05T12:29:25Z</time>
      </trkpt>
      <trkpt lat="49.22277" lon="-0.17821">
        <ele>5.2</ele>
        <time>2023-07-05T12:29:26Z</time>
      </trkpt>
      <trkpt lat="49.22269" lon="-0.17822">
        <ele>5.2</ele>
        <time>2023-07-05T12:29:27Z</time>
      </trkpt>
      <trkpt lat="49.22261" lon="-0.17822">
        <ele>5.2</ele>
        <time>2023-07-05T12:29:28Z</time>
      </trkpt>
      <trkpt lat="49.22254" lon="-0.17822">
        <ele>5.1</ele>
        <time>2023-07-05T12:29:29Z</time>
      </trkpt>
      <trkpt lat="49.22246" lon="-0.17823">
        <ele>5.1</ele>
        <time>2023-07-05T12:29:30Z</time>
      </trkpt>
      <trkpt lat="49.22239" lon="-0.17824">
        <ele>5.1</ele>
        <time>2023-07-05T12:29:31Z</time>
      </trkpt>
      <trkpt lat="49.22232" lon="-0.17825">
        <ele>5.1</ele>
        <time>2023-07-05T12:29:32Z</time>
      </trkpt>
      <trkpt lat="49.22224" lon="-0.17827">
        <ele>5</ele>
        <time>2023-07-05T12:29:33Z</time>
      </trkpt>
      <trkpt lat="49.22217" lon="-0.1783">
        <ele>5</ele>
        <time>2023-07-05T12:29:34Z</time>
      </trkpt>
      <trkpt lat="49.22209" lon="-0.17832">
        <ele>5</ele>
        <time>2023-07-05T12:29:35Z</time>
      </trkpt>
      <trkpt lat="49.22201" lon="-0.17834">
        <ele>5</ele>
        <time>2023-07-05T12:29:36Z</time>
      </trkpt>
      <trkpt lat="49.22194" lon="-0.17838">
        <ele>5.1</ele>
        <time>2023-07-05T12:29:37Z</time>
      </trkpt>
      <trkpt lat="49.22186" lon="-0.17841">
        <ele>5.1</ele>
        <time>2023-07-05T12:29:38Z</time>
      </trkpt>
      <trkpt lat="49.22179" lon="-0.17844">
        <ele>5.1</ele>
        <time>2023-07-05T12:29:39Z</time>
      </trkpt>
      <trkpt lat="49.22172" lon="-0.17847">
        <ele>5.1</ele>
        <time>2023-07-05T12:29:40Z</time>
      </trkpt>
      <trkpt lat="49.22164" lon="-0.1785">
        <ele>5.1</ele>
        <time>2023-07-05T12:29:41Z</time>
      </trkpt>
      <trkpt lat="49.22157" lon="-0.17853">
        <ele>5.1</ele>
        <time>2023-07-05T12:29:42Z</time>
      </trkpt>
      <trkpt lat="49.22149" lon="-0.17856">
        <ele>5.1</ele>
        <time>2023-07-05T12:29:43Z</time>
      </trkpt>
      <trkpt lat="49.22141" lon="-0.17859">
        <ele>5.1</ele>
        <time>2023-07-05T12:29:44Z</time>
      </trkpt>
      <trkpt lat="49.22134" lon="-0.17861">
        <ele>5.1</ele>
        <time>2023-07-05T12:29:45Z</time>
      </trkpt>
      <trkpt lat="49.22126" lon="-0.17863">
        <ele>5</ele>
        <time>2023-07-05T12:29:46Z</time>
      </trkpt>
      <trkpt lat="49.22118" lon="-0.17864">
        <ele>5</ele>
        <time>2023-07-05T12:29:47Z</time>
      </trkpt>
      <trkpt lat="49.2211" lon="-0.17865">
        <ele>4.9</ele>
        <time>2023-07-05T12:29:48Z</time>
      </trkpt>
      <trkpt lat="49.22102" lon="-0.17865">
        <ele>4.9</ele>
        <time>2023-07-05T12:29:49Z</time>
      </trkpt>
      <trkpt lat="49.22093" lon="-0.17865">
        <ele>4.8</ele>
        <time>2023-07-05T12:29:50Z</time>
      </trkpt>
      <trkpt lat="49.22086" lon="-0.17866">
        <ele>4.7</ele>
        <time>2023-07-05T12:29:51Z</time>
      </trkpt>
      <trkpt lat="49.22078" lon="-0.17867">
        <ele>4.7</ele>
        <time>2023-07-05T12:29:52Z</time>
      </trkpt>
      <trkpt lat="49.2207" lon="-0.17868">
        <ele>4.7</ele>
        <time>2023-07-05T12:29:53Z</time>
      </trkpt>
      <trkpt lat="49.22063" lon="-0.1787">
        <ele>4.7</ele>
        <time>2023-07-05T12:29:54Z</time>
      </trkpt>
      <trkpt lat="49.22055" lon="-0.17872">
        <ele>4.8</ele>
        <time>2023-07-05T12:29:55Z</time>
      </trkpt>
      <trkpt lat="49.22048" lon="-0.17875">
        <ele>4.8</ele>
        <time>2023-07-05T12:29:56Z</time>
      </trkpt>
      <trkpt lat="49.2204" lon="-0.17878">
        <ele>4.9</ele>
        <time>2023-07-05T12:29:57Z</time>
      </trkpt>
      <trkpt lat="49.22033" lon="-0.17882">
        <ele>4.9</ele>
        <time>2023-07-05T12:29:58Z</time>
      </trkpt>
      <trkpt lat="49.22026" lon="-0.17887">
        <ele>5</ele>
        <time>2023-07-05T12:29:59Z</time>
      </trkpt>
      <trkpt lat="49.22019" lon="-0.17892">
        <ele>5.1</ele>
        <time>2023-07-05T12:30:00Z</time>
      </trkpt>
      <trkpt lat="49.22013" lon="-0.17897">
        <ele>5.2</ele>
        <time>2023-07-05T12:30:01Z</time>
      </trkpt>
      <trkpt lat="49.22006" lon="-0.17903">
        <ele>5.3</ele>
        <time>2023-07-05T12:30:02Z</time>
      </trkpt>
      <trkpt lat="49.21999" lon="-0.17907">
        <ele>5.5</ele>
        <time>2023-07-05T12:30:03Z</time>
      </trkpt>
      <trkpt lat="49.21992" lon="-0.17912">
        <ele>5.6</ele>
        <time>2023-07-05T12:30:04Z</time>
      </trkpt>
      <trkpt lat="49.21985" lon="-0.17916">
        <ele>5.8</ele>
        <time>2023-07-05T12:30:05Z</time>
      </trkpt>
      <trkpt lat="49.21977" lon="-0.17919">
        <ele>6</ele>
        <time>2023-07-05T12:30:06Z</time>
      </trkpt>
      <trkpt lat="49.2197" lon="-0.17921">
        <ele>6.2</ele>
        <time>2023-07-05T12:30:07Z</time>
      </trkpt>
      <trkpt lat="49.21962" lon="-0.17923">
        <ele>6.4</ele>
        <time>2023-07-05T12:30:08Z</time>
      </trkpt>
      <trkpt lat="49.21955" lon="-0.17926">
        <ele>6.7</ele>
        <time>2023-07-05T12:30:09Z</time>
      </trkpt>
      <trkpt lat="49.21947" lon="-0.17927">
        <ele>6.9</ele>
        <time>2023-07-05T12:30:10Z</time>
      </trkpt>
      <trkpt lat="49.2194" lon="-0.17928">
        <ele>7.1</ele>
        <time>2023-07-05T12:30:11Z</time>
      </trkpt>
      <trkpt lat="49.21933" lon="-0.17929">
        <ele>7.4</ele>
        <time>2023-07-05T12:30:12Z</time>
      </trkpt>
      <trkpt lat="49.21926" lon="-0.1793">
        <ele>7.7</ele>
        <time>2023-07-05T12:30:13Z</time>
      </trkpt>
      <trkpt lat="49.21919" lon="-0.1793">
        <ele>8</ele>
        <time>2023-07-05T12:30:14Z</time>
      </trkpt>
      <trkpt lat="49.21913" lon="-0.1793">
        <ele>8.3</ele>
        <time>2023-07-05T12:30:15Z</time>
      </trkpt>
      <trkpt lat="49.21907" lon="-0.1793">
        <ele>8.5</ele>
        <time>2023-07-05T12:30:16Z</time>
      </trkpt>
      <trkpt lat="49.21901" lon="-0.17929">
        <ele>8.8</ele>
        <time>2023-07-05T12:30:17Z</time>
      </trkpt>
      <trkpt lat="49.21895" lon="-0.17929">
        <ele>9</ele>
        <time>2023-07-05T12:30:18Z</time>
      </trkpt>
      <trkpt lat="49.21888" lon="-0.17927">
        <ele>9.2</ele>
        <time>2023-07-05T12:30:19Z</time>
      </trkpt>
      <trkpt lat="49.21882" lon="-0.17925">
        <ele>9.3</ele>
        <time>2023-07-05T12:30:20Z</time>
      </trkpt>
      <trkpt lat="49.21875" lon="-0.17922">
        <ele>9.4</ele>
        <time>2023-07-05T12:30:21Z</time>
      </trkpt>
      <trkpt lat="49.21868" lon="-0.17919">
        <ele>9.4</ele>
        <time>2023-07-05T12:30:22Z</time>
      </trkpt>
      <trkpt lat="49.21861" lon="-0.17916">
        <ele>9.4</ele>
        <time>2023-07-05T12:30:23Z</time>
      </trkpt>
      <trkpt lat="49.21854" lon="-0.17913">
        <ele>9.3</ele>
        <time>2023-07-05T12:30:24Z</time>
      </trkpt>
      <trkpt lat="49.21846" lon="-0.1791">
        <ele>9.3</ele>
        <time>2023-07-05T12:30:25Z</time>
      </trkpt>
      <trkpt lat="49.21839" lon="-0.17907">
        <ele>9.2</ele>
        <time>2023-07-05T12:30:26Z</time>
      </trkpt>
      <trkpt lat="49.21832" lon="-0.17904">
        <ele>9</ele>
        <time>2023-07-05T12:30:27Z</time>
      </trkpt>
      <trkpt lat="49.21825" lon="-0.17901">
        <ele>8.8</ele>
        <time>2023-07-05T12:30:28Z</time>
      </trkpt>
      <trkpt lat="49.21817" lon="-0.17899">
        <ele>8.7</ele>
        <time>2023-07-05T12:30:29Z</time>
      </trkpt>
      <trkpt lat="49.2181" lon="-0.17896">
        <ele>8.5</ele>
        <time>2023-07-05T12:30:30Z</time>
      </trkpt>
      <trkpt lat="49.21802" lon="-0.17894">
        <ele>8.3</ele>
        <time>2023-07-05T12:30:31Z</time>
      </trkpt>
      <trkpt lat="49.21794" lon="-0.17892">
        <ele>8.2</ele>
        <time>2023-07-05T12:30:32Z</time>
      </trkpt>
      <trkpt lat="49.21787" lon="-0.17891">
        <ele>8</ele>
        <time>2023-07-05T12:30:33Z</time>
      </trkpt>
      <trkpt lat="49.2178" lon="-0.17889">
        <ele>7.8</ele>
        <time>2023-07-05T12:30:34Z</time>
      </trkpt>
      <trkpt lat="49.21772" lon="-0.17887">
        <ele>7.6</ele>
        <time>2023-07-05T12:30:35Z</time>
      </trkpt>
      <trkpt lat="49.21765" lon="-0.17886">
        <ele>7.5</ele>
        <time>2023-07-05T12:30:36Z</time>
      </trkpt>
      <trkpt lat="49.21757" lon="-0.17884">
        <ele>7.3</ele>
        <time>2023-07-05T12:30:37Z</time>
      </trkpt>
      <trkpt lat="49.2175" lon="-0.17883">
        <ele>7</ele>
        <time>2023-07-05T12:30:38Z</time>
      </trkpt>
      <trkpt lat="49.21742" lon="-0.17882">
        <ele>6.8</ele>
        <time>2023-07-05T12:30:39Z</time>
      </trkpt>
      <trkpt lat="49.21734" lon="-0.17881">
        <ele>6.6</ele>
        <time>2023-07-05T12:30:40Z</time>
      </trkpt>
      <trkpt lat="49.21727" lon="-0.17881">
        <ele>6.4</ele>
        <time>2023-07-05T12:30:41Z</time>
      </trkpt>
      <trkpt lat="49.21719" lon="-0.17881">
        <ele>6.3</ele>
        <time>2023-07-05T12:30:42Z</time>
      </trkpt>
      <trkpt lat="49.21711" lon="-0.17882">
        <ele>6.1</ele>
        <time>2023-07-05T12:30:43Z</time>
      </trkpt>
      <trkpt lat="49.21704" lon="-0.17883">
        <ele>6</ele>
        <time>2023-07-05T12:30:44Z</time>
      </trkpt>
      <trkpt lat="49.21696" lon="-0.17884">
        <ele>5.9</ele>
        <time>2023-07-05T12:30:45Z</time>
      </trkpt>
      <trkpt lat="49.21688" lon="-0.17885">
        <ele>5.8</ele>
        <time>2023-07-05T12:30:46Z</time>
      </trkpt>
      <trkpt lat="49.21681" lon="-0.17887">
        <ele>5.8</ele>
        <time>2023-07-05T12:30:47Z</time>
      </trkpt>
      <trkpt lat="49.21673" lon="-0.17889">
        <ele>5.7</ele>
        <time>2023-07-05T12:30:48Z</time>
      </trkpt>
      <trkpt lat="49.21666" lon="-0.17892">
        <ele>5.6</ele>
        <time>2023-07-05T12:30:49Z</time>
      </trkpt>
      <trkpt lat="49.21659" lon="-0.17895">
        <ele>5.6</ele>
        <time>2023-07-05T12:30:50Z</time>
      </trkpt>
      <trkpt lat="49.21652" lon="-0.17898">
        <ele>5.5</ele>
        <time>2023-07-05T12:30:51Z</time>
      </trkpt>
      <trkpt lat="49.21645" lon="-0.17901">
        <ele>5.5</ele>
        <time>2023-07-05T12:30:52Z</time>
      </trkpt>
      <trkpt lat="49.21638" lon="-0.17904">
        <ele>5.4</ele>
        <time>2023-07-05T12:30:53Z</time>
      </trkpt>
      <trkpt lat="49.2163" lon="-0.17907">
        <ele>5.4</ele>
        <time>2023-07-05T12:30:54Z</time>
      </trkpt>
      <trkpt lat="49.21623" lon="-0.1791">
        <ele>5.3</ele>
        <time>2023-07-05T12:30:55Z</time>
      </trkpt>
      <trkpt lat="49.21615" lon="-0.17913">
        <ele>5.2</ele>
        <time>2023-07-05T12:30:56Z</time>
      </trkpt>
      <trkpt lat="49.21608" lon="-0.17916">
        <ele>5.2</ele>
        <time>2023-07-05T12:30:57Z</time>
      </trkpt>
      <trkpt lat="49.216" lon="-0.1792">
        <ele>5.1</ele>
        <time>2023-07-05T12:30:58Z</time>
      </trkpt>
      <trkpt lat="49.21593" lon="-0.17924">
        <ele>5</ele>
        <time>2023-07-05T12:30:59Z</time>
      </trkpt>
      <trkpt lat="49.21586" lon="-0.17928">
        <ele>4.9</ele>
        <time>2023-07-05T12:31:00Z</time>
      </trkpt>
      <trkpt lat="49.21579" lon="-0.17931">
        <ele>4.8</ele>
        <time>2023-07-05T12:31:01Z</time>
      </trkpt>
      <trkpt lat="49.21578" lon="-0.17931">
        <ele>4.8</ele>
        <time>2023-07-05T12:31:02Z</time>
      </trkpt>
      <trkpt lat="49.21576" lon="-0.17931">
        <ele>4.8</ele>
        <time>2023-07-05T12:31:03Z</time>
      </trkpt>
      <trkpt lat="49.21575" lon="-0.17932">
        <ele>4.8</ele>
        <time>2023-07-05T12:31:04Z</time>
      </trkpt>
      <trkpt lat="49.21566" lon="-0.17934">
        <ele>4.7</ele>
        <time>2023-07-05T12:31:05Z</time>
      </trkpt>
      <trkpt lat="49.21556" lon="-0.17937">
        <ele>4.6</ele>
        <time>2023-07-05T12:31:06Z</time>
      </trkpt>
      <trkpt lat="49.21547" lon="-0.1794">
        <ele>4.6</ele>
        <time>2023-07-05T12:31:07Z</time>
      </trkpt>
      <trkpt lat="49.21538" lon="-0.17942">
        <ele>4.5</ele>
        <time>2023-07-05T12:31:08Z</time>
      </trkpt>
      <trkpt lat="49.2153" lon="-0.17944">
        <ele>4.5</ele>
        <time>2023-07-05T12:31:09Z</time>
      </trkpt>
      <trkpt lat="49.21521" lon="-0.17946">
        <ele>4.4</ele>
        <time>2023-07-05T12:31:10Z</time>
      </trkpt>
      <trkpt lat="49.21513" lon="-0.17948">
        <ele>4.4</ele>
        <time>2023-07-05T12:31:11Z</time>
      </trkpt>
      <trkpt lat="49.21505" lon="-0.1795">
        <ele>4.3</ele>
        <time>2023-07-05T12:31:12Z</time>
      </trkpt>
      <trkpt lat="49.21497" lon="-0.17951">
        <ele>4.2</ele>
        <time>2023-07-05T12:31:13Z</time>
      </trkpt>
      <trkpt lat="49.21489" lon="-0.17952">
        <ele>4.2</ele>
        <time>2023-07-05T12:31:14Z</time>
      </trkpt>
      <trkpt lat="49.21481" lon="-0.17952">
        <ele>4.1</ele>
        <time>2023-07-05T12:31:15Z</time>
      </trkpt>
      <trkpt lat="49.21473" lon="-0.17952">
        <ele>4.1</ele>
        <time>2023-07-05T12:31:16Z</time>
      </trkpt>
      <trkpt lat="49.21465" lon="-0.1795">
        <ele>4.1</ele>
        <time>2023-07-05T12:31:17Z</time>
      </trkpt>
      <trkpt lat="49.21458" lon="-0.1795">
        <ele>4.1</ele>
        <time>2023-07-05T12:31:18Z</time>
      </trkpt>
      <trkpt lat="49.2145" lon="-0.17949">
        <ele>4.1</ele>
        <time>2023-07-05T12:31:19Z</time>
      </trkpt>
      <trkpt lat="49.21442" lon="-0.17947">
        <ele>4.1</ele>
        <time>2023-07-05T12:31:20Z</time>
      </trkpt>
      <trkpt lat="49.21434" lon="-0.17945">
        <ele>4.1</ele>
        <time>2023-07-05T12:31:21Z</time>
      </trkpt>
      <trkpt lat="49.21427" lon="-0.17944">
        <ele>4.1</ele>
        <time>2023-07-05T12:31:22Z</time>
      </trkpt>
      <trkpt lat="49.21419" lon="-0.17943">
        <ele>4.1</ele>
        <time>2023-07-05T12:31:23Z</time>
      </trkpt>
      <trkpt lat="49.21411" lon="-0.17942">
        <ele>4.1</ele>
        <time>2023-07-05T12:31:24Z</time>
      </trkpt>
      <trkpt lat="49.21404" lon="-0.17942">
        <ele>4</ele>
        <time>2023-07-05T12:31:25Z</time>
      </trkpt>
      <trkpt lat="49.21396" lon="-0.17943">
        <ele>4</ele>
        <time>2023-07-05T12:31:26Z</time>
      </trkpt>
      <trkpt lat="49.21395" lon="-0.17944">
        <ele>4</ele>
        <time>2023-07-05T12:31:27Z</time>
      </trkpt>
      <trkpt lat="49.21393" lon="-0.17945">
        <ele>4</ele>
        <time>2023-07-05T12:31:28Z</time>
      </trkpt>
      <trkpt lat="49.21391" lon="-0.17946">
        <ele>4</ele>
        <time>2023-07-05T12:31:29Z</time>
      </trkpt>
      <trkpt lat="49.21383" lon="-0.1795">
        <ele>4</ele>
        <time>2023-07-05T12:31:30Z</time>
      </trkpt>
      <trkpt lat="49.21374" lon="-0.17955">
        <ele>4</ele>
        <time>2023-07-05T12:31:31Z</time>
      </trkpt>
      <trkpt lat="49.21365" lon="-0.17959">
        <ele>4</ele>
        <time>2023-07-05T12:31:32Z</time>
      </trkpt>
      <trkpt lat="49.21357" lon="-0.17964">
        <ele>4</ele>
        <time>2023-07-05T12:31:33Z</time>
      </trkpt>
      <trkpt lat="49.21349" lon="-0.17968">
        <ele>4</ele>
        <time>2023-07-05T12:31:34Z</time>
      </trkpt>
      <trkpt lat="49.21345" lon="-0.1797">
        <ele>4</ele>
        <time>2023-07-05T12:31:35Z</time>
      </trkpt>
      <trkpt lat="49.21343" lon="-0.17971">
        <ele>4</ele>
        <time>2023-07-05T12:31:36Z</time>
      </trkpt>
      <trkpt lat="49.2134" lon="-0.17972">
        <ele>4</ele>
        <time>2023-07-05T12:31:37Z</time>
      </trkpt>
      <trkpt lat="49.21331" lon="-0.17973">
        <ele>4.1</ele>
        <time>2023-07-05T12:31:38Z</time>
      </trkpt>
      <trkpt lat="49.21323" lon="-0.17973">
        <ele>4.1</ele>
        <time>2023-07-05T12:31:39Z</time>
      </trkpt>
      <trkpt lat="49.21312" lon="-0.1797">
        <ele>4.2</ele>
        <time>2023-07-05T12:31:40Z</time>
      </trkpt>
      <trkpt lat="49.21303" lon="-0.17967">
        <ele>4.3</ele>
        <time>2023-07-05T12:31:41Z</time>
      </trkpt>
      <trkpt lat="49.21295" lon="-0.17962">
        <ele>4.2</ele>
        <time>2023-07-05T12:31:42Z</time>
      </trkpt>
      <trkpt lat="49.21287" lon="-0.17957">
        <ele>4.3</ele>
        <time>2023-07-05T12:31:43Z</time>
      </trkpt>
      <trkpt lat="49.21279" lon="-0.1795">
        <ele>4.3</ele>
        <time>2023-07-05T12:31:44Z</time>
      </trkpt>
      <trkpt lat="49.21271" lon="-0.17942">
        <ele>4.4</ele>
        <time>2023-07-05T12:31:45Z</time>
      </trkpt>
      <trkpt lat="49.21265" lon="-0.17934">
        <ele>4.4</ele>
        <time>2023-07-05T12:31:46Z</time>
      </trkpt>
      <trkpt lat="49.21258" lon="-0.17926">
        <ele>4.5</ele>
        <time>2023-07-05T12:31:47Z</time>
      </trkpt>
      <trkpt lat="49.21252" lon="-0.17919">
        <ele>4.5</ele>
        <time>2023-07-05T12:31:48Z</time>
      </trkpt>
      <trkpt lat="49.21245" lon="-0.17913">
        <ele>4.6</ele>
        <time>2023-07-05T12:31:49Z</time>
      </trkpt>
      <trkpt lat="49.21238" lon="-0.17908">
        <ele>4.8</ele>
        <time>2023-07-05T12:31:50Z</time>
      </trkpt>
      <trkpt lat="49.21231" lon="-0.17903">
        <ele>4.9</ele>
        <time>2023-07-05T12:31:51Z</time>
      </trkpt>
      <trkpt lat="49.21225" lon="-0.17898">
        <ele>5.1</ele>
        <time>2023-07-05T12:31:52Z</time>
      </trkpt>
      <trkpt lat="49.21218" lon="-0.17893">
        <ele>5.3</ele>
        <time>2023-07-05T12:31:53Z</time>
      </trkpt>
      <trkpt lat="49.21211" lon="-0.17889">
        <ele>5.6</ele>
        <time>2023-07-05T12:31:54Z</time>
      </trkpt>
      <trkpt lat="49.21204" lon="-0.17886">
        <ele>5.9</ele>
        <time>2023-07-05T12:31:55Z</time>
      </trkpt>
      <trkpt lat="49.21197" lon="-0.17882">
        <ele>6.2</ele>
        <time>2023-07-05T12:31:56Z</time>
      </trkpt>
      <trkpt lat="49.2119" lon="-0.17879">
        <ele>6.5</ele>
        <time>2023-07-05T12:31:57Z</time>
      </trkpt>
      <trkpt lat="49.21183" lon="-0.17876">
        <ele>6.8</ele>
        <time>2023-07-05T12:31:58Z</time>
      </trkpt>
      <trkpt lat="49.21176" lon="-0.17873">
        <ele>7.1</ele>
        <time>2023-07-05T12:31:59Z</time>
      </trkpt>
      <trkpt lat="49.21169" lon="-0.17872">
        <ele>7.3</ele>
        <time>2023-07-05T12:32:00Z</time>
      </trkpt>
      <trkpt lat="49.21162" lon="-0.17871">
        <ele>7.6</ele>
        <time>2023-07-05T12:32:01Z</time>
      </trkpt>
      <trkpt lat="49.21156" lon="-0.17871">
        <ele>7.9</ele>
        <time>2023-07-05T12:32:02Z</time>
      </trkpt>
      <trkpt lat="49.21149" lon="-0.17871">
        <ele>8.1</ele>
        <time>2023-07-05T12:32:03Z</time>
      </trkpt>
      <trkpt lat="49.21143" lon="-0.17871">
        <ele>8.3</ele>
        <time>2023-07-05T12:32:04Z</time>
      </trkpt>
      <trkpt lat="49.21137" lon="-0.17871">
        <ele>8.5</ele>
        <time>2023-07-05T12:32:05Z</time>
      </trkpt>
      <trkpt lat="49.21131" lon="-0.1787">
        <ele>8.7</ele>
        <time>2023-07-05T12:32:06Z</time>
      </trkpt>
      <trkpt lat="49.21125" lon="-0.17869">
        <ele>8.8</ele>
        <time>2023-07-05T12:32:07Z</time>
      </trkpt>
      <trkpt lat="49.21119" lon="-0.17869">
        <ele>9</ele>
        <time>2023-07-05T12:32:08Z</time>
      </trkpt>
      <trkpt lat="49.21112" lon="-0.17868">
        <ele>9.1</ele>
        <time>2023-07-05T12:32:09Z</time>
      </trkpt>
      <trkpt lat="49.21105" lon="-0.17867">
        <ele>9.2</ele>
        <time>2023-07-05T12:32:10Z</time>
      </trkpt>
      <trkpt lat="49.21098" lon="-0.17866">
        <ele>9.3</ele>
        <time>2023-07-05T12:32:11Z</time>
      </trkpt>
      <trkpt lat="49.21091" lon="-0.17866">
        <ele>9.4</ele>
        <time>2023-07-05T12:32:12Z</time>
      </trkpt>
      <trkpt lat="49.21085" lon="-0.17867">
        <ele>9.5</ele>
        <time>2023-07-05T12:32:13Z</time>
      </trkpt>
      <trkpt lat="49.21078" lon="-0.17866">
        <ele>9.6</ele>
        <time>2023-07-05T12:32:14Z</time>
      </trkpt>
      <trkpt lat="49.21072" lon="-0.17866">
        <ele>9.7</ele>
        <time>2023-07-05T12:32:15Z</time>
      </trkpt>
      <trkpt lat="49.21066" lon="-0.17865">
        <ele>9.7</ele>
        <time>2023-07-05T12:32:16Z</time>
      </trkpt>
      <trkpt lat="49.2106" lon="-0.17864">
        <ele>9.8</ele>
        <time>2023-07-05T12:32:17Z</time>
      </trkpt>
      <trkpt lat="49.21054" lon="-0.17863">
        <ele>9.9</ele>
        <time>2023-07-05T12:32:18Z</time>
      </trkpt>
      <trkpt lat="49.21047" lon="-0.17861">
        <ele>10</ele>
        <time>2023-07-05T12:32:19Z</time>
      </trkpt>
      <trkpt lat="49.2104" lon="-0.1786">
        <ele>10.1</ele>
        <time>2023-07-05T12:32:20Z</time>
      </trkpt>
      <trkpt lat="49.21033" lon="-0.17859">
        <ele>10.1</ele>
        <time>2023-07-05T12:32:21Z</time>
      </trkpt>
      <trkpt lat="49.21026" lon="-0.17859">
        <ele>10.2</ele>
        <time>2023-07-05T12:32:22Z</time>
      </trkpt>
      <trkpt lat="49.21019" lon="-0.17858">
        <ele>10.3</ele>
        <time>2023-07-05T12:32:23Z</time>
      </trkpt>
      <trkpt lat="49.21013" lon="-0.17858">
        <ele>10.4</ele>
        <time>2023-07-05T12:32:24Z</time>
      </trkpt>
      <trkpt lat="49.21006" lon="-0.17858">
        <ele>10.4</ele>
        <time>2023-07-05T12:32:25Z</time>
      </trkpt>
      <trkpt lat="49.20999" lon="-0.17859">
        <ele>10.5</ele>
        <time>2023-07-05T12:32:26Z</time>
      </trkpt>
      <trkpt lat="49.20992" lon="-0.17859">
        <ele>10.6</ele>
        <time>2023-07-05T12:32:27Z</time>
      </trkpt>
      <trkpt lat="49.20985" lon="-0.17859">
        <ele>10.7</ele>
        <time>2023-07-05T12:32:28Z</time>
      </trkpt>
      <trkpt lat="49.20979" lon="-0.17859">
        <ele>10.7</ele>
        <time>2023-07-05T12:32:29Z</time>
      </trkpt>
      <trkpt lat="49.20972" lon="-0.1786">
        <ele>10.8</ele>
        <time>2023-07-05T12:32:30Z</time>
      </trkpt>
      <trkpt lat="49.20965" lon="-0.1786">
        <ele>10.8</ele>
        <time>2023-07-05T12:32:31Z</time>
      </trkpt>
      <trkpt lat="49.20958" lon="-0.17861">
        <ele>10.9</ele>
        <time>2023-07-05T12:32:32Z</time>
      </trkpt>
      <trkpt lat="49.20951" lon="-0.17861">
        <ele>10.9</ele>
        <time>2023-07-05T12:32:33Z</time>
      </trkpt>
      <trkpt lat="49.20944" lon="-0.17862">
        <ele>11</ele>
        <time>2023-07-05T12:32:34Z</time>
      </trkpt>
      <trkpt lat="49.20937" lon="-0.17862">
        <ele>11.1</ele>
        <time>2023-07-05T12:32:35Z</time>
      </trkpt>
      <trkpt lat="49.2093" lon="-0.17862">
        <ele>11.1</ele>
        <time>2023-07-05T12:32:36Z</time>
      </trkpt>
      <trkpt lat="49.20923" lon="-0.17863">
        <ele>11.1</ele>
        <time>2023-07-05T12:32:37Z</time>
      </trkpt>
      <trkpt lat="49.20916" lon="-0.17863">
        <ele>11.1</ele>
        <time>2023-07-05T12:32:38Z</time>
      </trkpt>
      <trkpt lat="49.2091" lon="-0.17864">
        <ele>11.1</ele>
        <time>2023-07-05T12:32:39Z</time>
      </trkpt>
      <trkpt lat="49.20902" lon="-0.17865">
        <ele>11.1</ele>
        <time>2023-07-05T12:32:40Z</time>
      </trkpt>
      <trkpt lat="49.20896" lon="-0.17866">
        <ele>11.1</ele>
        <time>2023-07-05T12:32:41Z</time>
      </trkpt>
      <trkpt lat="49.20889" lon="-0.17866">
        <ele>11.1</ele>
        <time>2023-07-05T12:32:42Z</time>
      </trkpt>
      <trkpt lat="49.20882" lon="-0.17866">
        <ele>11</ele>
        <time>2023-07-05T12:32:43Z</time>
      </trkpt>
      <trkpt lat="49.20875" lon="-0.17864">
        <ele>11</ele>
        <time>2023-07-05T12:32:44Z</time>
      </trkpt>
      <trkpt lat="49.20867" lon="-0.17863">
        <ele>10.9</ele>
        <time>2023-07-05T12:32:45Z</time>
      </trkpt>
      <trkpt lat="49.20859" lon="-0.17862">
        <ele>10.8</ele>
        <time>2023-07-05T12:32:46Z</time>
      </trkpt>
      <trkpt lat="49.20851" lon="-0.1786">
        <ele>10.7</ele>
        <time>2023-07-05T12:32:47Z</time>
      </trkpt>
      <trkpt lat="49.20842" lon="-0.17858">
        <ele>10.6</ele>
        <time>2023-07-05T12:32:48Z</time>
      </trkpt>
      <trkpt lat="49.20834" lon="-0.17856">
        <ele>10.4</ele>
        <time>2023-07-05T12:32:49Z</time>
      </trkpt>
      <trkpt lat="49.20826" lon="-0.17853">
        <ele>10.3</ele>
        <time>2023-07-05T12:32:50Z</time>
      </trkpt>
      <trkpt lat="49.20819" lon="-0.1785">
        <ele>10.2</ele>
        <time>2023-07-05T12:32:51Z</time>
      </trkpt>
      <trkpt lat="49.20812" lon="-0.17847">
        <ele>10</ele>
        <time>2023-07-05T12:32:52Z</time>
      </trkpt>
      <trkpt lat="49.20804" lon="-0.17844">
        <ele>9.8</ele>
        <time>2023-07-05T12:32:53Z</time>
      </trkpt>
      <trkpt lat="49.20797" lon="-0.17842">
        <ele>9.6</ele>
        <time>2023-07-05T12:32:54Z</time>
      </trkpt>
      <trkpt lat="49.20789" lon="-0.17839">
        <ele>9.4</ele>
        <time>2023-07-05T12:32:55Z</time>
      </trkpt>
      <trkpt lat="49.20781" lon="-0.17837">
        <ele>9.2</ele>
        <time>2023-07-05T12:32:56Z</time>
      </trkpt>
      <trkpt lat="49.20773" lon="-0.17834">
        <ele>8.9</ele>
        <time>2023-07-05T12:32:57Z</time>
      </trkpt>
      <trkpt lat="49.20765" lon="-0.17832">
        <ele>8.7</ele>
        <time>2023-07-05T12:32:58Z</time>
      </trkpt>
      <trkpt lat="49.20757" lon="-0.1783">
        <ele>8.5</ele>
        <time>2023-07-05T12:32:59Z</time>
      </trkpt>
      <trkpt lat="49.2075" lon="-0.17828">
        <ele>8.3</ele>
        <time>2023-07-05T12:33:00Z</time>
      </trkpt>
      <trkpt lat="49.20743" lon="-0.17825">
        <ele>8</ele>
        <time>2023-07-05T12:33:01Z</time>
      </trkpt>
      <trkpt lat="49.20735" lon="-0.17823">
        <ele>7.7</ele>
        <time>2023-07-05T12:33:02Z</time>
      </trkpt>
      <trkpt lat="49.20727" lon="-0.1782">
        <ele>7.4</ele>
        <time>2023-07-05T12:33:03Z</time>
      </trkpt>
      <trkpt lat="49.20719" lon="-0.17818">
        <ele>7.1</ele>
        <time>2023-07-05T12:33:04Z</time>
      </trkpt>
      <trkpt lat="49.20711" lon="-0.17816">
        <ele>6.8</ele>
        <time>2023-07-05T12:33:05Z</time>
      </trkpt>
      <trkpt lat="49.20703" lon="-0.17813">
        <ele>6.4</ele>
        <time>2023-07-05T12:33:06Z</time>
      </trkpt>
      <trkpt lat="49.20695" lon="-0.1781">
        <ele>6.1</ele>
        <time>2023-07-05T12:33:07Z</time>
      </trkpt>
      <trkpt lat="49.20687" lon="-0.17806">
        <ele>5.9</ele>
        <time>2023-07-05T12:33:08Z</time>
      </trkpt>
      <trkpt lat="49.20679" lon="-0.17802">
        <ele>5.7</ele>
        <time>2023-07-05T12:33:09Z</time>
      </trkpt>
      <trkpt lat="49.20671" lon="-0.17798">
        <ele>5.6</ele>
        <time>2023-07-05T12:33:10Z</time>
      </trkpt>
      <trkpt lat="49.20663" lon="-0.17793">
        <ele>5.5</ele>
        <time>2023-07-05T12:33:11Z</time>
      </trkpt>
      <trkpt lat="49.20656" lon="-0.17789">
        <ele>5.4</ele>
        <time>2023-07-05T12:33:12Z</time>
      </trkpt>
      <trkpt lat="49.20649" lon="-0.17783">
        <ele>5.3</ele>
        <time>2023-07-05T12:33:13Z</time>
      </trkpt>
      <trkpt lat="49.20642" lon="-0.17778">
        <ele>5.3</ele>
        <time>2023-07-05T12:33:14Z</time>
      </trkpt>
      <trkpt lat="49.20635" lon="-0.17772">
        <ele>5.2</ele>
        <time>2023-07-05T12:33:15Z</time>
      </trkpt>
      <trkpt lat="49.20628" lon="-0.17766">
        <ele>5.2</ele>
        <time>2023-07-05T12:33:16Z</time>
      </trkpt>
      <trkpt lat="49.20621" lon="-0.1776">
        <ele>5.2</ele>
        <time>2023-07-05T12:33:17Z</time>
      </trkpt>
      <trkpt lat="49.20614" lon="-0.17754">
        <ele>5.2</ele>
        <time>2023-07-05T12:33:18Z</time>
      </trkpt>
      <trkpt lat="49.20607" lon="-0.17748">
        <ele>5.2</ele>
        <time>2023-07-05T12:33:19Z</time>
      </trkpt>
      <trkpt lat="49.20599" lon="-0.17742">
        <ele>5.1</ele>
        <time>2023-07-05T12:33:20Z</time>
      </trkpt>
      <trkpt lat="49.20592" lon="-0.17739">
        <ele>5.1</ele>
        <time>2023-07-05T12:33:21Z</time>
      </trkpt>
      <trkpt lat="49.20584" lon="-0.17737">
        <ele>5</ele>
        <time>2023-07-05T12:33:22Z</time>
      </trkpt>
      <trkpt lat="49.20577" lon="-0.17737">
        <ele>5</ele>
        <time>2023-07-05T12:33:23Z</time>
      </trkpt>
      <trkpt lat="49.20569" lon="-0.17738">
        <ele>5</ele>
        <time>2023-07-05T12:33:24Z</time>
      </trkpt>
      <trkpt lat="49.20562" lon="-0.17739">
        <ele>5</ele>
        <time>2023-07-05T12:33:25Z</time>
      </trkpt>
      <trkpt lat="49.20554" lon="-0.17742">
        <ele>5</ele>
        <time>2023-07-05T12:33:26Z</time>
      </trkpt>
      <trkpt lat="49.20546" lon="-0.17743">
        <ele>5</ele>
        <time>2023-07-05T12:33:27Z</time>
      </trkpt>
      <trkpt lat="49.20539" lon="-0.17744">
        <ele>5</ele>
        <time>2023-07-05T12:33:28Z</time>
      </trkpt>
      <trkpt lat="49.20531" lon="-0.17745">
        <ele>5</ele>
        <time>2023-07-05T12:33:29Z</time>
      </trkpt>
      <trkpt lat="49.20524" lon="-0.17746">
        <ele>5</ele>
        <time>2023-07-05T12:33:30Z</time>
      </trkpt>
      <trkpt lat="49.20516" lon="-0.17746">
        <ele>5.1</ele>
        <time>2023-07-05T12:33:31Z</time>
      </trkpt>
      <trkpt lat="49.2051" lon="-0.17746">
        <ele>5.1</ele>
        <time>2023-07-05T12:33:32Z</time>
      </trkpt>
      <trkpt lat="49.20503" lon="-0.17746">
        <ele>5.1</ele>
        <time>2023-07-05T12:33:33Z</time>
      </trkpt>
      <trkpt lat="49.20496" lon="-0.17746">
        <ele>5.2</ele>
        <time>2023-07-05T12:33:34Z</time>
      </trkpt>
      <trkpt lat="49.2049" lon="-0.17746">
        <ele>5.2</ele>
        <time>2023-07-05T12:33:35Z</time>
      </trkpt>
      <trkpt lat="49.20483" lon="-0.17748">
        <ele>5.3</ele>
        <time>2023-07-05T12:33:36Z</time>
      </trkpt>
      <trkpt lat="49.20477" lon="-0.17752">
        <ele>5.4</ele>
        <time>2023-07-05T12:33:37Z</time>
      </trkpt>
      <trkpt lat="49.20472" lon="-0.17758">
        <ele>5.5</ele>
        <time>2023-07-05T12:33:38Z</time>
      </trkpt>
      <trkpt lat="49.20468" lon="-0.17767">
        <ele>5.5</ele>
        <time>2023-07-05T12:33:39Z</time>
      </trkpt>
      <trkpt lat="49.20466" lon="-0.17775">
        <ele>5.6</ele>
        <time>2023-07-05T12:33:40Z</time>
      </trkpt>
      <trkpt lat="49.20464" lon="-0.17784">
        <ele>5.6</ele>
        <time>2023-07-05T12:33:41Z</time>
      </trkpt>
      <trkpt lat="49.20462" lon="-0.17793">
        <ele>5.7</ele>
        <time>2023-07-05T12:33:42Z</time>
      </trkpt>
      <trkpt lat="49.20461" lon="-0.17802">
        <ele>5.7</ele>
        <time>2023-07-05T12:33:43Z</time>
      </trkpt>
      <trkpt lat="49.2046" lon="-0.17811">
        <ele>5.8</ele>
        <time>2023-07-05T12:33:44Z</time>
      </trkpt>
      <trkpt lat="49.20458" lon="-0.17819">
        <ele>5.9</ele>
        <time>2023-07-05T12:33:45Z</time>
      </trkpt>
      <trkpt lat="49.20456" lon="-0.17828">
        <ele>6.1</ele>
        <time>2023-07-05T12:33:46Z</time>
      </trkpt>
      <trkpt lat="49.20454" lon="-0.17837">
        <ele>6.2</ele>
        <time>2023-07-05T12:33:47Z</time>
      </trkpt>
      <trkpt lat="49.20453" lon="-0.17846">
        <ele>6.4</ele>
        <time>2023-07-05T12:33:48Z</time>
      </trkpt>
      <trkpt lat="49.20451" lon="-0.17855">
        <ele>6.6</ele>
        <time>2023-07-05T12:33:49Z</time>
      </trkpt>
      <trkpt lat="49.2045" lon="-0.17865">
        <ele>6.9</ele>
        <time>2023-07-05T12:33:50Z</time>
      </trkpt>
      <trkpt lat="49.20448" lon="-0.17873">
        <ele>7.1</ele>
        <time>2023-07-05T12:33:51Z</time>
      </trkpt>
      <trkpt lat="49.20447" lon="-0.17882">
        <ele>7.3</ele>
        <time>2023-07-05T12:33:52Z</time>
      </trkpt>
      <trkpt lat="49.20446" lon="-0.17891">
        <ele>7.5</ele>
        <time>2023-07-05T12:33:53Z</time>
      </trkpt>
      <trkpt lat="49.20445" lon="-0.179">
        <ele>7.7</ele>
        <time>2023-07-05T12:33:54Z</time>
      </trkpt>
      <trkpt lat="49.20444" lon="-0.17909">
        <ele>7.9</ele>
        <time>2023-07-05T12:33:55Z</time>
      </trkpt>
      <trkpt lat="49.20442" lon="-0.17917">
        <ele>8</ele>
        <time>2023-07-05T12:33:56Z</time>
      </trkpt>
      <trkpt lat="49.2044" lon="-0.17926">
        <ele>8.2</ele>
        <time>2023-07-05T12:33:57Z</time>
      </trkpt>
      <trkpt lat="49.20436" lon="-0.17934">
        <ele>8.4</ele>
        <time>2023-07-05T12:33:58Z</time>
      </trkpt>
      <trkpt lat="49.20432" lon="-0.1794">
        <ele>8.6</ele>
        <time>2023-07-05T12:33:59Z</time>
      </trkpt>
      <trkpt lat="49.20428" lon="-0.17946">
        <ele>8.7</ele>
        <time>2023-07-05T12:34:00Z</time>
      </trkpt>
      <trkpt lat="49.20423" lon="-0.17951">
        <ele>8.9</ele>
        <time>2023-07-05T12:34:01Z</time>
      </trkpt>
      <trkpt lat="49.20418" lon="-0.17956">
        <ele>9.1</ele>
        <time>2023-07-05T12:34:02Z</time>
      </trkpt>
      <trkpt lat="49.20412" lon="-0.1796">
        <ele>9.3</ele>
        <time>2023-07-05T12:34:03Z</time>
      </trkpt>
      <trkpt lat="49.20407" lon="-0.17964">
        <ele>9.5</ele>
        <time>2023-07-05T12:34:04Z</time>
      </trkpt>
      <trkpt lat="49.20402" lon="-0.17968">
        <ele>9.7</ele>
        <time>2023-07-05T12:34:05Z</time>
      </trkpt>
      <trkpt lat="49.20397" lon="-0.17973">
        <ele>9.9</ele>
        <time>2023-07-05T12:34:06Z</time>
      </trkpt>
      <trkpt lat="49.20392" lon="-0.17978">
        <ele>10.1</ele>
        <time>2023-07-05T12:34:07Z</time>
      </trkpt>
      <trkpt lat="49.20388" lon="-0.17985">
        <ele>10.4</ele>
        <time>2023-07-05T12:34:08Z</time>
      </trkpt>
      <trkpt lat="49.20386" lon="-0.17993">
        <ele>10.6</ele>
        <time>2023-07-05T12:34:09Z</time>
      </trkpt>
      <trkpt lat="49.20384" lon="-0.18002">
        <ele>10.9</ele>
        <time>2023-07-05T12:34:10Z</time>
      </trkpt>
      <trkpt lat="49.20384" lon="-0.1801">
        <ele>11.1</ele>
        <time>2023-07-05T12:34:11Z</time>
      </trkpt>
      <trkpt lat="49.20383" lon="-0.18018">
        <ele>11.3</ele>
        <time>2023-07-05T12:34:12Z</time>
      </trkpt>
      <trkpt lat="49.20383" lon="-0.18027">
        <ele>11.5</ele>
        <time>2023-07-05T12:34:13Z</time>
      </trkpt>
      <trkpt lat="49.20382" lon="-0.18035">
        <ele>11.7</ele>
        <time>2023-07-05T12:34:14Z</time>
      </trkpt>
      <trkpt lat="49.20382" lon="-0.18043">
        <ele>11.9</ele>
        <time>2023-07-05T12:34:15Z</time>
      </trkpt>
      <trkpt lat="49.20381" lon="-0.18052">
        <ele>12.1</ele>
        <time>2023-07-05T12:34:16Z</time>
      </trkpt>
      <trkpt lat="49.20381" lon="-0.18061">
        <ele>12.3</ele>
        <time>2023-07-05T12:34:17Z</time>
      </trkpt>
      <trkpt lat="49.20381" lon="-0.18069">
        <ele>12.4</ele>
        <time>2023-07-05T12:34:18Z</time>
      </trkpt>
      <trkpt lat="49.2038" lon="-0.18078">
        <ele>12.6</ele>
        <time>2023-07-05T12:34:19Z</time>
      </trkpt>
      <trkpt lat="49.20379" lon="-0.18086">
        <ele>12.8</ele>
        <time>2023-07-05T12:34:20Z</time>
      </trkpt>
      <trkpt lat="49.20378" lon="-0.18093">
        <ele>13</ele>
        <time>2023-07-05T12:34:21Z</time>
      </trkpt>
      <trkpt lat="49.20377" lon="-0.18101">
        <ele>13.1</ele>
        <time>2023-07-05T12:34:22Z</time>
      </trkpt>
      <trkpt lat="49.20376" lon="-0.18108">
        <ele>13.3</ele>
        <time>2023-07-05T12:34:23Z</time>
      </trkpt>
      <trkpt lat="49.20375" lon="-0.18116">
        <ele>13.4</ele>
        <time>2023-07-05T12:34:24Z</time>
      </trkpt>
      <trkpt lat="49.20373" lon="-0.18124">
        <ele>13.6</ele>
        <time>2023-07-05T12:34:25Z</time>
      </trkpt>
      <trkpt lat="49.20372" lon="-0.18132">
        <ele>13.8</ele>
        <time>2023-07-05T12:34:26Z</time>
      </trkpt>
      <trkpt lat="49.20371" lon="-0.18141">
        <ele>13.8</ele>
        <time>2023-07-05T12:34:27Z</time>
      </trkpt>
      <trkpt lat="49.2037" lon="-0.18149">
        <ele>13.9</ele>
        <time>2023-07-05T12:34:28Z</time>
      </trkpt>
      <trkpt lat="49.20369" lon="-0.18157">
        <ele>14</ele>
        <time>2023-07-05T12:34:29Z</time>
      </trkpt>
      <trkpt lat="49.20367" lon="-0.18165">
        <ele>14.1</ele>
        <time>2023-07-05T12:34:30Z</time>
      </trkpt>
      <trkpt lat="49.20366" lon="-0.18173">
        <ele>14.2</ele>
        <time>2023-07-05T12:34:31Z</time>
      </trkpt>
      <trkpt lat="49.20365" lon="-0.18181">
        <ele>14.3</ele>
        <time>2023-07-05T12:34:32Z</time>
      </trkpt>
      <trkpt lat="49.20365" lon="-0.18188">
        <ele>14.3</ele>
        <time>2023-07-05T12:34:33Z</time>
      </trkpt>
      <trkpt lat="49.20364" lon="-0.18196">
        <ele>14.4</ele>
        <time>2023-07-05T12:34:34Z</time>
      </trkpt>
      <trkpt lat="49.20364" lon="-0.18204">
        <ele>14.5</ele>
        <time>2023-07-05T12:34:35Z</time>
      </trkpt>
      <trkpt lat="49.20365" lon="-0.18212">
        <ele>14.6</ele>
        <time>2023-07-05T12:34:36Z</time>
      </trkpt>
      <trkpt lat="49.20367" lon="-0.18219">
        <ele>14.6</ele>
        <time>2023-07-05T12:34:37Z</time>
      </trkpt>
      <trkpt lat="49.2037" lon="-0.18226">
        <ele>14.6</ele>
        <time>2023-07-05T12:34:38Z</time>
      </trkpt>
      <trkpt lat="49.20374" lon="-0.18233">
        <ele>14.6</ele>
        <time>2023-07-05T12:34:39Z</time>
      </trkpt>
      <trkpt lat="49.20378" lon="-0.18239">
        <ele>14.6</ele>
        <time>2023-07-05T12:34:40Z</time>
      </trkpt>
      <trkpt lat="49.20382" lon="-0.18246">
        <ele>14.6</ele>
        <time>2023-07-05T12:34:41Z</time>
      </trkpt>
      <trkpt lat="49.20386" lon="-0.18252">
        <ele>14.6</ele>
        <time>2023-07-05T12:34:42Z</time>
      </trkpt>
      <trkpt lat="49.20389" lon="-0.18258">
        <ele>14.6</ele>
        <time>2023-07-05T12:34:43Z</time>
      </trkpt>
      <trkpt lat="49.20392" lon="-0.18264">
        <ele>14.6</ele>
        <time>2023-07-05T12:34:44Z</time>
      </trkpt>
      <trkpt lat="49.20396" lon="-0.1827">
        <ele>14.6</ele>
        <time>2023-07-05T12:34:45Z</time>
      </trkpt>
      <trkpt lat="49.20399" lon="-0.18277">
        <ele>14.6</ele>
        <time>2023-07-05T12:34:46Z</time>
      </trkpt>
      <trkpt lat="49.20403" lon="-0.18284">
        <ele>14.6</ele>
        <time>2023-07-05T12:34:47Z</time>
      </trkpt>
      <trkpt lat="49.20406" lon="-0.18289">
        <ele>14.7</ele>
        <time>2023-07-05T12:34:48Z</time>
      </trkpt>
      <trkpt lat="49.20407" lon="-0.18295">
        <ele>14.7</ele>
        <time>2023-07-05T12:34:49Z</time>
      </trkpt>
      <trkpt lat="49.20408" lon="-0.18301">
        <ele>14.7</ele>
        <time>2023-07-05T12:34:50Z</time>
      </trkpt>
      <trkpt lat="49.20407" lon="-0.18308">
        <ele>14.8</ele>
        <time>2023-07-05T12:34:51Z</time>
      </trkpt>
      <trkpt lat="49.20406" lon="-0.18315">
        <ele>14.8</ele>
        <time>2023-07-05T12:34:52Z</time>
      </trkpt>
      <trkpt lat="49.20404" lon="-0.18322">
        <ele>14.8</ele>
        <time>2023-07-05T12:34:53Z</time>
      </trkpt>
      <trkpt lat="49.20402" lon="-0.1833">
        <ele>14.9</ele>
        <time>2023-07-05T12:34:54Z</time>
      </trkpt>
      <trkpt lat="49.20401" lon="-0.18338">
        <ele>15</ele>
        <time>2023-07-05T12:34:55Z</time>
      </trkpt>
      <trkpt lat="49.204" lon="-0.18346">
        <ele>15.1</ele>
        <time>2023-07-05T12:34:56Z</time>
      </trkpt>
      <trkpt lat="49.20398" lon="-0.18355">
        <ele>15.2</ele>
        <time>2023-07-05T12:34:57Z</time>
      </trkpt>
      <trkpt lat="49.20396" lon="-0.18363">
        <ele>15.3</ele>
        <time>2023-07-05T12:34:58Z</time>
      </trkpt>
      <trkpt lat="49.20395" lon="-0.18371">
        <ele>15.4</ele>
        <time>2023-07-05T12:34:59Z</time>
      </trkpt>
      <trkpt lat="49.20393" lon="-0.18379">
        <ele>15.5</ele>
        <time>2023-07-05T12:35:00Z</time>
      </trkpt>
      <trkpt lat="49.20391" lon="-0.18387">
        <ele>15.7</ele>
        <time>2023-07-05T12:35:01Z</time>
      </trkpt>
      <trkpt lat="49.2039" lon="-0.18395">
        <ele>15.8</ele>
        <time>2023-07-05T12:35:02Z</time>
      </trkpt>
      <trkpt lat="49.20388" lon="-0.18404">
        <ele>16</ele>
        <time>2023-07-05T12:35:03Z</time>
      </trkpt>
      <trkpt lat="49.20387" lon="-0.18412">
        <ele>16.2</ele>
        <time>2023-07-05T12:35:04Z</time>
      </trkpt>
      <trkpt lat="49.20385" lon="-0.1842">
        <ele>16.4</ele>
        <time>2023-07-05T12:35:05Z</time>
      </trkpt>
      <trkpt lat="49.20384" lon="-0.18427">
        <ele>16.6</ele>
        <time>2023-07-05T12:35:06Z</time>
      </trkpt>
      <trkpt lat="49.20383" lon="-0.18435">
        <ele>16.8</ele>
        <time>2023-07-05T12:35:07Z</time>
      </trkpt>
      <trkpt lat="49.2038" lon="-0.18443">
        <ele>17</ele>
        <time>2023-07-05T12:35:08Z</time>
      </trkpt>
      <trkpt lat="49.20377" lon="-0.18449">
        <ele>17.2</ele>
        <time>2023-07-05T12:35:09Z</time>
      </trkpt>
      <trkpt lat="49.20374" lon="-0.18456">
        <ele>17.4</ele>
        <time>2023-07-05T12:35:10Z</time>
      </trkpt>
      <trkpt lat="49.20371" lon="-0.18463">
        <ele>17.6</ele>
        <time>2023-07-05T12:35:11Z</time>
      </trkpt>
      <trkpt lat="49.20367" lon="-0.1847">
        <ele>17.8</ele>
        <time>2023-07-05T12:35:12Z</time>
      </trkpt>
      <trkpt lat="49.20364" lon="-0.18477">
        <ele>18.1</ele>
        <time>2023-07-05T12:35:13Z</time>
      </trkpt>
      <trkpt lat="49.20361" lon="-0.18484">
        <ele>18.4</ele>
        <time>2023-07-05T12:35:14Z</time>
      </trkpt>
      <trkpt lat="49.20358" lon="-0.1849">
        <ele>18.7</ele>
        <time>2023-07-05T12:35:15Z</time>
      </trkpt>
      <trkpt lat="49.20356" lon="-0.18497">
        <ele>19</ele>
        <time>2023-07-05T12:35:16Z</time>
      </trkpt>
      <trkpt lat="49.20354" lon="-0.18503">
        <ele>19.3</ele>
        <time>2023-07-05T12:35:17Z</time>
      </trkpt>
      <trkpt lat="49.20353" lon="-0.18509">
        <ele>19.5</ele>
        <time>2023-07-05T12:35:18Z</time>
      </trkpt>
      <trkpt lat="49.20351" lon="-0.18515">
        <ele>19.8</ele>
        <time>2023-07-05T12:35:19Z</time>
      </trkpt>
      <trkpt lat="49.2035" lon="-0.18521">
        <ele>20</ele>
        <time>2023-07-05T12:35:20Z</time>
      </trkpt>
      <trkpt lat="49.20348" lon="-0.18528">
        <ele>20.3</ele>
        <time>2023-07-05T12:35:21Z</time>
      </trkpt>
      <trkpt lat="49.20347" lon="-0.18535">
        <ele>20.5</ele>
        <time>2023-07-05T12:35:22Z</time>
      </trkpt>
      <trkpt lat="49.20345" lon="-0.18542">
        <ele>20.8</ele>
        <time>2023-07-05T12:35:23Z</time>
      </trkpt>
      <trkpt lat="49.20343" lon="-0.18549">
        <ele>21</ele>
        <time>2023-07-05T12:35:24Z</time>
      </trkpt>
      <trkpt lat="49.20342" lon="-0.18556">
        <ele>21.2</ele>
        <time>2023-07-05T12:35:25Z</time>
      </trkpt>
      <trkpt lat="49.20341" lon="-0.18562">
        <ele>21.5</ele>
        <time>2023-07-05T12:35:26Z</time>
      </trkpt>
      <trkpt lat="49.2034" lon="-0.1857">
        <ele>21.7</ele>
        <time>2023-07-05T12:35:27Z</time>
      </trkpt>
      <trkpt lat="49.20339" lon="-0.18576">
        <ele>21.9</ele>
        <time>2023-07-05T12:35:28Z</time>
      </trkpt>
      <trkpt lat="49.20337" lon="-0.18584">
        <ele>22.2</ele>
        <time>2023-07-05T12:35:29Z</time>
      </trkpt>
      <trkpt lat="49.20336" lon="-0.18591">
        <ele>22.4</ele>
        <time>2023-07-05T12:35:30Z</time>
      </trkpt>
      <trkpt lat="49.20335" lon="-0.18598">
        <ele>22.6</ele>
        <time>2023-07-05T12:35:31Z</time>
      </trkpt>
      <trkpt lat="49.20334" lon="-0.18606">
        <ele>22.9</ele>
        <time>2023-07-05T12:35:32Z</time>
      </trkpt>
      <trkpt lat="49.20333" lon="-0.18613">
        <ele>23.1</ele>
        <time>2023-07-05T12:35:33Z</time>
      </trkpt>
      <trkpt lat="49.20332" lon="-0.1862">
        <ele>23.3</ele>
        <time>2023-07-05T12:35:34Z</time>
      </trkpt>
      <trkpt lat="49.20331" lon="-0.18628">
        <ele>23.6</ele>
        <time>2023-07-05T12:35:35Z</time>
      </trkpt>
      <trkpt lat="49.2033" lon="-0.18635">
        <ele>23.8</ele>
        <time>2023-07-05T12:35:36Z</time>
      </trkpt>
      <trkpt lat="49.20329" lon="-0.18642">
        <ele>24</ele>
        <time>2023-07-05T12:35:37Z</time>
      </trkpt>
      <trkpt lat="49.20328" lon="-0.1865">
        <ele>24.2</ele>
        <time>2023-07-05T12:35:38Z</time>
      </trkpt>
      <trkpt lat="49.20327" lon="-0.18658">
        <ele>24.4</ele>
        <time>2023-07-05T12:35:39Z</time>
      </trkpt>
      <trkpt lat="49.20325" lon="-0.18665">
        <ele>24.6</ele>
        <time>2023-07-05T12:35:40Z</time>
      </trkpt>
      <trkpt lat="49.20325" lon="-0.18673">
        <ele>24.8</ele>
        <time>2023-07-05T12:35:41Z</time>
      </trkpt>
      <trkpt lat="49.20324" lon="-0.18681">
        <ele>24.9</ele>
        <time>2023-07-05T12:35:42Z</time>
      </trkpt>
      <trkpt lat="49.20322" lon="-0.18689">
        <ele>25.1</ele>
        <time>2023-07-05T12:35:43Z</time>
      </trkpt>
      <trkpt lat="49.20321" lon="-0.18697">
        <ele>25.3</ele>
        <time>2023-07-05T12:35:44Z</time>
      </trkpt>
      <trkpt lat="49.2032" lon="-0.18705">
        <ele>25.5</ele>
        <time>2023-07-05T12:35:45Z</time>
      </trkpt>
      <trkpt lat="49.20319" lon="-0.18713">
        <ele>25.7</ele>
        <time>2023-07-05T12:35:46Z</time>
      </trkpt>
      <trkpt lat="49.20318" lon="-0.1872">
        <ele>25.9</ele>
        <time>2023-07-05T12:35:47Z</time>
      </trkpt>
      <trkpt lat="49.20317" lon="-0.18726">
        <ele>26</ele>
        <time>2023-07-05T12:35:48Z</time>
      </trkpt>
      <trkpt lat="49.20315" lon="-0.18733">
        <ele>26.2</ele>
        <time>2023-07-05T12:35:49Z</time>
      </trkpt>
      <trkpt lat="49.20313" lon="-0.1874">
        <ele>26.4</ele>
        <time>2023-07-05T12:35:50Z</time>
      </trkpt>
      <trkpt lat="49.20311" lon="-0.18746">
        <ele>26.6</ele>
        <time>2023-07-05T12:35:51Z</time>
      </trkpt>
      <trkpt lat="49.20309" lon="-0.18753">
        <ele>26.9</ele>
        <time>2023-07-05T12:35:52Z</time>
      </trkpt>
      <trkpt lat="49.20307" lon="-0.1876">
        <ele>27.1</ele>
        <time>2023-07-05T12:35:53Z</time>
      </trkpt>
      <trkpt lat="49.20305" lon="-0.18766">
        <ele>27.3</ele>
        <time>2023-07-05T12:35:54Z</time>
      </trkpt>
      <trkpt lat="49.20303" lon="-0.18772">
        <ele>27.4</ele>
        <time>2023-07-05T12:35:55Z</time>
      </trkpt>
      <trkpt lat="49.20302" lon="-0.18778">
        <ele>27.6</ele>
        <time>2023-07-05T12:35:56Z</time>
      </trkpt>
      <trkpt lat="49.203" lon="-0.18785">
        <ele>27.8</ele>
        <time>2023-07-05T12:35:57Z</time>
      </trkpt>
      <trkpt lat="49.20298" lon="-0.18791">
        <ele>28</ele>
        <time>2023-07-05T12:35:58Z</time>
      </trkpt>
      <trkpt lat="49.20296" lon="-0.18798">
        <ele>28.2</ele>
        <time>2023-07-05T12:35:59Z</time>
      </trkpt>
      <trkpt lat="49.20294" lon="-0.18805">
        <ele>28.4</ele>
        <time>2023-07-05T12:36:00Z</time>
      </trkpt>
      <trkpt lat="49.20292" lon="-0.18811">
        <ele>28.6</ele>
        <time>2023-07-05T12:36:01Z</time>
      </trkpt>
      <trkpt lat="49.2029" lon="-0.18817">
        <ele>28.8</ele>
        <time>2023-07-05T12:36:02Z</time>
      </trkpt>
      <trkpt lat="49.20288" lon="-0.18822">
        <ele>29</ele>
        <time>2023-07-05T12:36:03Z</time>
      </trkpt>
      <trkpt lat="49.20285" lon="-0.18827">
        <ele>29.2</ele>
        <time>2023-07-05T12:36:04Z</time>
      </trkpt>
      <trkpt lat="49.20283" lon="-0.18832">
        <ele>29.4</ele>
        <time>2023-07-05T12:36:05Z</time>
      </trkpt>
      <trkpt lat="49.2028" lon="-0.18837">
        <ele>29.6</ele>
        <time>2023-07-05T12:36:06Z</time>
      </trkpt>
      <trkpt lat="49.20278" lon="-0.18843">
        <ele>29.8</ele>
        <time>2023-07-05T12:36:07Z</time>
      </trkpt>
      <trkpt lat="49.20275" lon="-0.18848">
        <ele>30</ele>
        <time>2023-07-05T12:36:08Z</time>
      </trkpt>
      <trkpt lat="49.20273" lon="-0.18853">
        <ele>30.2</ele>
        <time>2023-07-05T12:36:09Z</time>
      </trkpt>
      <trkpt lat="49.20271" lon="-0.18859">
        <ele>30.4</ele>
        <time>2023-07-05T12:36:10Z</time>
      </trkpt>
      <trkpt lat="49.20269" lon="-0.18865">
        <ele>30.7</ele>
        <time>2023-07-05T12:36:11Z</time>
      </trkpt>
      <trkpt lat="49.20267" lon="-0.18871">
        <ele>30.9</ele>
        <time>2023-07-05T12:36:12Z</time>
      </trkpt>
      <trkpt lat="49.20264" lon="-0.18877">
        <ele>31.1</ele>
        <time>2023-07-05T12:36:13Z</time>
      </trkpt>
      <trkpt lat="49.20262" lon="-0.18884">
        <ele>31.3</ele>
        <time>2023-07-05T12:36:14Z</time>
      </trkpt>
      <trkpt lat="49.2026" lon="-0.1889">
        <ele>31.5</ele>
        <time>2023-07-05T12:36:15Z</time>
      </trkpt>
      <trkpt lat="49.20258" lon="-0.18895">
        <ele>31.7</ele>
        <time>2023-07-05T12:36:16Z</time>
      </trkpt>
      <trkpt lat="49.20256" lon="-0.18901">
        <ele>31.9</ele>
        <time>2023-07-05T12:36:17Z</time>
      </trkpt>
      <trkpt lat="49.20254" lon="-0.18908">
        <ele>32.1</ele>
        <time>2023-07-05T12:36:18Z</time>
      </trkpt>
      <trkpt lat="49.20252" lon="-0.18914">
        <ele>32.3</ele>
        <time>2023-07-05T12:36:19Z</time>
      </trkpt>
      <trkpt lat="49.2025" lon="-0.18921">
        <ele>32.5</ele>
        <time>2023-07-05T12:36:20Z</time>
      </trkpt>
      <trkpt lat="49.20248" lon="-0.18927">
        <ele>32.6</ele>
        <time>2023-07-05T12:36:21Z</time>
      </trkpt>
      <trkpt lat="49.20246" lon="-0.18934">
        <ele>32.8</ele>
        <time>2023-07-05T12:36:22Z</time>
      </trkpt>
      <trkpt lat="49.20244" lon="-0.18941">
        <ele>33</ele>
        <time>2023-07-05T12:36:23Z</time>
      </trkpt>
      <trkpt lat="49.20242" lon="-0.18948">
        <ele>33.1</ele>
        <time>2023-07-05T12:36:24Z</time>
      </trkpt>
      <trkpt lat="49.2024" lon="-0.18955">
        <ele>33.3</ele>
        <time>2023-07-05T12:36:25Z</time>
      </trkpt>
      <trkpt lat="49.20237" lon="-0.18962">
        <ele>33.4</ele>
        <time>2023-07-05T12:36:26Z</time>
      </trkpt>
      <trkpt lat="49.20235" lon="-0.18969">
        <ele>33.5</ele>
        <time>2023-07-05T12:36:27Z</time>
      </trkpt>
      <trkpt lat="49.20232" lon="-0.18976">
        <ele>33.6</ele>
        <time>2023-07-05T12:36:28Z</time>
      </trkpt>
      <trkpt lat="49.2023" lon="-0.18984">
        <ele>33.7</ele>
        <time>2023-07-05T12:36:29Z</time>
      </trkpt>
      <trkpt lat="49.20228" lon="-0.18991">
        <ele>33.9</ele>
        <time>2023-07-05T12:36:30Z</time>
      </trkpt>
      <trkpt lat="49.20226" lon="-0.18999">
        <ele>34</ele>
        <time>2023-07-05T12:36:31Z</time>
      </trkpt>
      <trkpt lat="49.20224" lon="-0.19008">
        <ele>34.1</ele>
        <time>2023-07-05T12:36:32Z</time>
      </trkpt>
      <trkpt lat="49.20222" lon="-0.19017">
        <ele>34.3</ele>
        <time>2023-07-05T12:36:33Z</time>
      </trkpt>
      <trkpt lat="49.20221" lon="-0.19026">
        <ele>34.4</ele>
        <time>2023-07-05T12:36:34Z</time>
      </trkpt>
      <trkpt lat="49.2022" lon="-0.19035">
        <ele>34.5</ele>
        <time>2023-07-05T12:36:35Z</time>
      </trkpt>
      <trkpt lat="49.20219" lon="-0.19044">
        <ele>34.7</ele>
        <time>2023-07-05T12:36:36Z</time>
      </trkpt>
      <trkpt lat="49.20218" lon="-0.19052">
        <ele>34.9</ele>
        <time>2023-07-05T12:36:37Z</time>
      </trkpt>
      <trkpt lat="49.20218" lon="-0.1906">
        <ele>35</ele>
        <time>2023-07-05T12:36:38Z</time>
      </trkpt>
      <trkpt lat="49.20217" lon="-0.19068">
        <ele>35.1</ele>
        <time>2023-07-05T12:36:39Z</time>
      </trkpt>
      <trkpt lat="49.20216" lon="-0.19076">
        <ele>35.3</ele>
        <time>2023-07-05T12:36:40Z</time>
      </trkpt>
      <trkpt lat="49.20216" lon="-0.19083">
        <ele>35.4</ele>
        <time>2023-07-05T12:36:41Z</time>
      </trkpt>
      <trkpt lat="49.20215" lon="-0.19091">
        <ele>35.5</ele>
        <time>2023-07-05T12:36:42Z</time>
      </trkpt>
      <trkpt lat="49.20213" lon="-0.19098">
        <ele>35.6</ele>
        <time>2023-07-05T12:36:43Z</time>
      </trkpt>
      <trkpt lat="49.20212" lon="-0.19105">
        <ele>35.7</ele>
        <time>2023-07-05T12:36:44Z</time>
      </trkpt>
      <trkpt lat="49.20211" lon="-0.19112">
        <ele>35.8</ele>
        <time>2023-07-05T12:36:45Z</time>
      </trkpt>
      <trkpt lat="49.2021" lon="-0.1912">
        <ele>35.9</ele>
        <time>2023-07-05T12:36:46Z</time>
      </trkpt>
      <trkpt lat="49.20209" lon="-0.19128">
        <ele>36</ele>
        <time>2023-07-05T12:36:47Z</time>
      </trkpt>
      <trkpt lat="49.20208" lon="-0.19136">
        <ele>36.1</ele>
        <time>2023-07-05T12:36:48Z</time>
      </trkpt>
      <trkpt lat="49.20206" lon="-0.19143">
        <ele>36.2</ele>
        <time>2023-07-05T12:36:49Z</time>
      </trkpt>
      <trkpt lat="49.20205" lon="-0.19151">
        <ele>36.3</ele>
        <time>2023-07-05T12:36:50Z</time>
      </trkpt>
      <trkpt lat="49.20203" lon="-0.19159">
        <ele>36.3</ele>
        <time>2023-07-05T12:36:51Z</time>
      </trkpt>
      <trkpt lat="49.20202" lon="-0.19167">
        <ele>36.4</ele>
        <time>2023-07-05T12:36:52Z</time>
      </trkpt>
      <trkpt lat="49.202" lon="-0.19175">
        <ele>36.5</ele>
        <time>2023-07-05T12:36:53Z</time>
      </trkpt>
      <trkpt lat="49.20199" lon="-0.19183">
        <ele>36.6</ele>
        <time>2023-07-05T12:36:54Z</time>
      </trkpt>
      <trkpt lat="49.20198" lon="-0.19191">
        <ele>36.6</ele>
        <time>2023-07-05T12:36:55Z</time>
      </trkpt>
      <trkpt lat="49.20198" lon="-0.192">
        <ele>36.7</ele>
        <time>2023-07-05T12:36:56Z</time>
      </trkpt>
      <trkpt lat="49.20197" lon="-0.19209">
        <ele>36.8</ele>
        <time>2023-07-05T12:36:57Z</time>
      </trkpt>
      <trkpt lat="49.20197" lon="-0.19218">
        <ele>36.9</ele>
        <time>2023-07-05T12:36:58Z</time>
      </trkpt>
      <trkpt lat="49.20197" lon="-0.19227">
        <ele>37</ele>
        <time>2023-07-05T12:36:59Z</time>
      </trkpt>
      <trkpt lat="49.20198" lon="-0.19235">
        <ele>37.1</ele>
        <time>2023-07-05T12:37:00Z</time>
      </trkpt>
      <trkpt lat="49.20199" lon="-0.19243">
        <ele>37.2</ele>
        <time>2023-07-05T12:37:01Z</time>
      </trkpt>
      <trkpt lat="49.20202" lon="-0.19251">
        <ele>37.3</ele>
        <time>2023-07-05T12:37:02Z</time>
      </trkpt>
      <trkpt lat="49.20205" lon="-0.19258">
        <ele>37.3</ele>
        <time>2023-07-05T12:37:03Z</time>
      </trkpt>
      <trkpt lat="49.20208" lon="-0.19266">
        <ele>37.4</ele>
        <time>2023-07-05T12:37:04Z</time>
      </trkpt>
      <trkpt lat="49.2021" lon="-0.19273">
        <ele>37.5</ele>
        <time>2023-07-05T12:37:05Z</time>
      </trkpt>
      <trkpt lat="49.20212" lon="-0.1928">
        <ele>37.5</ele>
        <time>2023-07-05T12:37:06Z</time>
      </trkpt>
      <trkpt lat="49.20213" lon="-0.19289">
        <ele>37.6</ele>
        <time>2023-07-05T12:37:07Z</time>
      </trkpt>
      <trkpt lat="49.20214" lon="-0.19299">
        <ele>37.7</ele>
        <time>2023-07-05T12:37:08Z</time>
      </trkpt>
      <trkpt lat="49.20215" lon="-0.19308">
        <ele>37.7</ele>
        <time>2023-07-05T12:37:09Z</time>
      </trkpt>
      <trkpt lat="49.20214" lon="-0.19317">
        <ele>37.8</ele>
        <time>2023-07-05T12:37:10Z</time>
      </trkpt>
      <trkpt lat="49.20214" lon="-0.19327">
        <ele>37.9</ele>
        <time>2023-07-05T12:37:11Z</time>
      </trkpt>
      <trkpt lat="49.20214" lon="-0.19336">
        <ele>37.9</ele>
        <time>2023-07-05T12:37:12Z</time>
      </trkpt>
      <trkpt lat="49.20214" lon="-0.19346">
        <ele>38</ele>
        <time>2023-07-05T12:37:13Z</time>
      </trkpt>
      <trkpt lat="49.20214" lon="-0.19355">
        <ele>38.1</ele>
        <time>2023-07-05T12:37:14Z</time>
      </trkpt>
      <trkpt lat="49.20213" lon="-0.19365">
        <ele>38.2</ele>
        <time>2023-07-05T12:37:15Z</time>
      </trkpt>
      <trkpt lat="49.20213" lon="-0.19373">
        <ele>38.2</ele>
        <time>2023-07-05T12:37:16Z</time>
      </trkpt>
      <trkpt lat="49.20212" lon="-0.19382">
        <ele>38.3</ele>
        <time>2023-07-05T12:37:17Z</time>
      </trkpt>
      <trkpt lat="49.20211" lon="-0.19391">
        <ele>38.4</ele>
        <time>2023-07-05T12:37:18Z</time>
      </trkpt>
      <trkpt lat="49.20211" lon="-0.194">
        <ele>38.5</ele>
        <time>2023-07-05T12:37:19Z</time>
      </trkpt>
      <trkpt lat="49.2021" lon="-0.19409">
        <ele>38.5</ele>
        <time>2023-07-05T12:37:20Z</time>
      </trkpt>
      <trkpt lat="49.20209" lon="-0.19418">
        <ele>38.6</ele>
        <time>2023-07-05T12:37:21Z</time>
      </trkpt>
      <trkpt lat="49.20209" lon="-0.19428">
        <ele>38.7</ele>
        <time>2023-07-05T12:37:22Z</time>
      </trkpt>
      <trkpt lat="49.2021" lon="-0.19437">
        <ele>38.8</ele>
        <time>2023-07-05T12:37:23Z</time>
      </trkpt>
      <trkpt lat="49.2021" lon="-0.19446">
        <ele>38.8</ele>
        <time>2023-07-05T12:37:24Z</time>
      </trkpt>
      <trkpt lat="49.20211" lon="-0.19455">
        <ele>38.9</ele>
        <time>2023-07-05T12:37:25Z</time>
      </trkpt>
      <trkpt lat="49.20212" lon="-0.19464">
        <ele>39</ele>
        <time>2023-07-05T12:37:26Z</time>
      </trkpt>
      <trkpt lat="49.20213" lon="-0.19474">
        <ele>39.1</ele>
        <time>2023-07-05T12:37:27Z</time>
      </trkpt>
      <trkpt lat="49.20214" lon="-0.19483">
        <ele>39.2</ele>
        <time>2023-07-05T12:37:28Z</time>
      </trkpt>
      <trkpt lat="49.20215" lon="-0.19493">
        <ele>39.3</ele>
        <time>2023-07-05T12:37:29Z</time>
      </trkpt>
      <trkpt lat="49.20215" lon="-0.19502">
        <ele>39.4</ele>
        <time>2023-07-05T12:37:30Z</time>
      </trkpt>
      <trkpt lat="49.20215" lon="-0.1951">
        <ele>39.5</ele>
        <time>2023-07-05T12:37:31Z</time>
      </trkpt>
      <trkpt lat="49.20215" lon="-0.19518">
        <ele>39.5</ele>
        <time>2023-07-05T12:37:32Z</time>
      </trkpt>
      <trkpt lat="49.20215" lon="-0.19527">
        <ele>39.6</ele>
        <time>2023-07-05T12:37:33Z</time>
      </trkpt>
      <trkpt lat="49.20215" lon="-0.19537">
        <ele>39.7</ele>
        <time>2023-07-05T12:37:34Z</time>
      </trkpt>
      <trkpt lat="49.20214" lon="-0.19546">
        <ele>39.8</ele>
        <time>2023-07-05T12:37:35Z</time>
      </trkpt>
      <trkpt lat="49.20212" lon="-0.19554">
        <ele>39.9</ele>
        <time>2023-07-05T12:37:36Z</time>
      </trkpt>
      <trkpt lat="49.20211" lon="-0.19561">
        <ele>40</ele>
        <time>2023-07-05T12:37:37Z</time>
      </trkpt>
      <trkpt lat="49.20209" lon="-0.19571">
        <ele>40.1</ele>
        <time>2023-07-05T12:37:38Z</time>
      </trkpt>
      <trkpt lat="49.20206" lon="-0.1958">
        <ele>40.3</ele>
        <time>2023-07-05T12:37:39Z</time>
      </trkpt>
      <trkpt lat="49.20204" lon="-0.19588">
        <ele>40.4</ele>
        <time>2023-07-05T12:37:40Z</time>
      </trkpt>
      <trkpt lat="49.20201" lon="-0.19596">
        <ele>40.5</ele>
        <time>2023-07-05T12:37:41Z</time>
      </trkpt>
      <trkpt lat="49.20199" lon="-0.19603">
        <ele>40.6</ele>
        <time>2023-07-05T12:37:42Z</time>
      </trkpt>
      <trkpt lat="49.20197" lon="-0.19612">
        <ele>40.7</ele>
        <time>2023-07-05T12:37:43Z</time>
      </trkpt>
      <trkpt lat="49.20195" lon="-0.19621">
        <ele>40.8</ele>
        <time>2023-07-05T12:37:44Z</time>
      </trkpt>
      <trkpt lat="49.20193" lon="-0.19628">
        <ele>40.9</ele>
        <time>2023-07-05T12:37:45Z</time>
      </trkpt>
      <trkpt lat="49.2019" lon="-0.19635">
        <ele>41</ele>
        <time>2023-07-05T12:37:46Z</time>
      </trkpt>
      <trkpt lat="49.20187" lon="-0.19643">
        <ele>41.1</ele>
        <time>2023-07-05T12:37:47Z</time>
      </trkpt>
      <trkpt lat="49.20185" lon="-0.19652">
        <ele>41.2</ele>
        <time>2023-07-05T12:37:48Z</time>
      </trkpt>
      <trkpt lat="49.20183" lon="-0.19662">
        <ele>41.3</ele>
        <time>2023-07-05T12:37:49Z</time>
      </trkpt>
      <trkpt lat="49.20181" lon="-0.19671">
        <ele>41.4</ele>
        <time>2023-07-05T12:37:50Z</time>
      </trkpt>
      <trkpt lat="49.20178" lon="-0.1968">
        <ele>41.5</ele>
        <time>2023-07-05T12:37:51Z</time>
      </trkpt>
      <trkpt lat="49.20176" lon="-0.19688">
        <ele>41.5</ele>
        <time>2023-07-05T12:37:52Z</time>
      </trkpt>
      <trkpt lat="49.20174" lon="-0.19695">
        <ele>41.6</ele>
        <time>2023-07-05T12:37:53Z</time>
      </trkpt>
      <trkpt lat="49.20172" lon="-0.19703">
        <ele>41.7</ele>
        <time>2023-07-05T12:37:54Z</time>
      </trkpt>
      <trkpt lat="49.20169" lon="-0.19712">
        <ele>41.8</ele>
        <time>2023-07-05T12:37:55Z</time>
      </trkpt>
      <trkpt lat="49.20166" lon="-0.19721">
        <ele>42</ele>
        <time>2023-07-05T12:37:56Z</time>
      </trkpt>
      <trkpt lat="49.20163" lon="-0.19728">
        <ele>42.1</ele>
        <time>2023-07-05T12:37:57Z</time>
      </trkpt>
      <trkpt lat="49.2016" lon="-0.19736">
        <ele>42.2</ele>
        <time>2023-07-05T12:37:58Z</time>
      </trkpt>
      <trkpt lat="49.20156" lon="-0.19743">
        <ele>42.3</ele>
        <time>2023-07-05T12:37:59Z</time>
      </trkpt>
      <trkpt lat="49.20153" lon="-0.19751">
        <ele>42.4</ele>
        <time>2023-07-05T12:38:00Z</time>
      </trkpt>
      <trkpt lat="49.2015" lon="-0.19759">
        <ele>42.5</ele>
        <time>2023-07-05T12:38:01Z</time>
      </trkpt>
      <trkpt lat="49.20146" lon="-0.19768">
        <ele>42.6</ele>
        <time>2023-07-05T12:38:02Z</time>
      </trkpt>
      <trkpt lat="49.20143" lon="-0.19776">
        <ele>42.7</ele>
        <time>2023-07-05T12:38:03Z</time>
      </trkpt>
      <trkpt lat="49.20141" lon="-0.19785">
        <ele>42.9</ele>
        <time>2023-07-05T12:38:04Z</time>
      </trkpt>
      <trkpt lat="49.20138" lon="-0.19793">
        <ele>43</ele>
        <time>2023-07-05T12:38:05Z</time>
      </trkpt>
      <trkpt lat="49.20137" lon="-0.19801">
        <ele>43.1</ele>
        <time>2023-07-05T12:38:06Z</time>
      </trkpt>
      <trkpt lat="49.20135" lon="-0.19809">
        <ele>43.2</ele>
        <time>2023-07-05T12:38:07Z</time>
      </trkpt>
      <trkpt lat="49.20133" lon="-0.19817">
        <ele>43.3</ele>
        <time>2023-07-05T12:38:08Z</time>
      </trkpt>
      <trkpt lat="49.2013" lon="-0.19825">
        <ele>43.4</ele>
        <time>2023-07-05T12:38:09Z</time>
      </trkpt>
      <trkpt lat="49.20127" lon="-0.19832">
        <ele>43.6</ele>
        <time>2023-07-05T12:38:10Z</time>
      </trkpt>
      <trkpt lat="49.20124" lon="-0.1984">
        <ele>43.7</ele>
        <time>2023-07-05T12:38:11Z</time>
      </trkpt>
      <trkpt lat="49.2012" lon="-0.19848">
        <ele>43.8</ele>
        <time>2023-07-05T12:38:12Z</time>
      </trkpt>
      <trkpt lat="49.20116" lon="-0.19857">
        <ele>44</ele>
        <time>2023-07-05T12:38:13Z</time>
      </trkpt>
      <trkpt lat="49.20111" lon="-0.19868">
        <ele>44.1</ele>
        <time>2023-07-05T12:38:14Z</time>
      </trkpt>
      <trkpt lat="49.20107" lon="-0.19878">
        <ele>44.3</ele>
        <time>2023-07-05T12:38:15Z</time>
      </trkpt>
      <trkpt lat="49.20103" lon="-0.19888">
        <ele>44.4</ele>
        <time>2023-07-05T12:38:16Z</time>
      </trkpt>
      <trkpt lat="49.20099" lon="-0.19898">
        <ele>44.6</ele>
        <time>2023-07-05T12:38:17Z</time>
      </trkpt>
      <trkpt lat="49.20095" lon="-0.19906">
        <ele>44.7</ele>
        <time>2023-07-05T12:38:18Z</time>
      </trkpt>
      <trkpt lat="49.20091" lon="-0.19914">
        <ele>44.9</ele>
        <time>2023-07-05T12:38:19Z</time>
      </trkpt>
      <trkpt lat="49.20087" lon="-0.19922">
        <ele>45</ele>
        <time>2023-07-05T12:38:20Z</time>
      </trkpt>
      <trkpt lat="49.20084" lon="-0.19931">
        <ele>45.1</ele>
        <time>2023-07-05T12:38:21Z</time>
      </trkpt>
      <trkpt lat="49.2008" lon="-0.19939">
        <ele>45.3</ele>
        <time>2023-07-05T12:38:22Z</time>
      </trkpt>
      <trkpt lat="49.20076" lon="-0.19948">
        <ele>45.4</ele>
        <time>2023-07-05T12:38:23Z</time>
      </trkpt>
      <trkpt lat="49.20072" lon="-0.19957">
        <ele>45.5</ele>
        <time>2023-07-05T12:38:24Z</time>
      </trkpt>
      <trkpt lat="49.20069" lon="-0.19966">
        <ele>45.7</ele>
        <time>2023-07-05T12:38:25Z</time>
      </trkpt>
      <trkpt lat="49.20066" lon="-0.19975">
        <ele>45.8</ele>
        <time>2023-07-05T12:38:26Z</time>
      </trkpt>
      <trkpt lat="49.20062" lon="-0.19982">
        <ele>45.9</ele>
        <time>2023-07-05T12:38:27Z</time>
      </trkpt>
      <trkpt lat="49.20058" lon="-0.19987">
        <ele>46</ele>
        <time>2023-07-05T12:38:28Z</time>
      </trkpt>
      <trkpt lat="49.20055" lon="-0.19993">
        <ele>46.1</ele>
        <time>2023-07-05T12:38:29Z</time>
      </trkpt>
      <trkpt lat="49.20052" lon="-0.2">
        <ele>46.2</ele>
        <time>2023-07-05T12:38:30Z</time>
      </trkpt>
      <trkpt lat="49.20049" lon="-0.20006">
        <ele>46.3</ele>
        <time>2023-07-05T12:38:31Z</time>
      </trkpt>
      <trkpt lat="49.20045" lon="-0.20013">
        <ele>46.4</ele>
        <time>2023-07-05T12:38:32Z</time>
      </trkpt>
      <trkpt lat="49.20042" lon="-0.20019">
        <ele>46.6</ele>
        <time>2023-07-05T12:38:33Z</time>
      </trkpt>
      <trkpt lat="49.2004" lon="-0.20026">
        <ele>46.7</ele>
        <time>2023-07-05T12:38:34Z</time>
      </trkpt>
      <trkpt lat="49.20037" lon="-0.20032">
        <ele>46.8</ele>
        <time>2023-07-05T12:38:35Z</time>
      </trkpt>
      <trkpt lat="49.20034" lon="-0.2004">
        <ele>46.9</ele>
        <time>2023-07-05T12:38:36Z</time>
      </trkpt>
      <trkpt lat="49.20031" lon="-0.20047">
        <ele>47</ele>
        <time>2023-07-05T12:38:37Z</time>
      </trkpt>
      <trkpt lat="49.20028" lon="-0.20054">
        <ele>47.1</ele>
        <time>2023-07-05T12:38:38Z</time>
      </trkpt>
      <trkpt lat="49.20025" lon="-0.20061">
        <ele>47.2</ele>
        <time>2023-07-05T12:38:39Z</time>
      </trkpt>
      <trkpt lat="49.20022" lon="-0.20068">
        <ele>47.4</ele>
        <time>2023-07-05T12:38:40Z</time>
      </trkpt>
      <trkpt lat="49.20018" lon="-0.20075">
        <ele>47.5</ele>
        <time>2023-07-05T12:38:41Z</time>
      </trkpt>
      <trkpt lat="49.20014" lon="-0.20082">
        <ele>47.6</ele>
        <time>2023-07-05T12:38:42Z</time>
      </trkpt>
      <trkpt lat="49.20011" lon="-0.2009">
        <ele>47.8</ele>
        <time>2023-07-05T12:38:43Z</time>
      </trkpt>
      <trkpt lat="49.20008" lon="-0.20098">
        <ele>47.9</ele>
        <time>2023-07-05T12:38:44Z</time>
      </trkpt>
      <trkpt lat="49.20004" lon="-0.20104">
        <ele>48.1</ele>
        <time>2023-07-05T12:38:45Z</time>
      </trkpt>
      <trkpt lat="49.2" lon="-0.20111">
        <ele>48.2</ele>
        <time>2023-07-05T12:38:46Z</time>
      </trkpt>
      <trkpt lat="49.19996" lon="-0.20118">
        <ele>48.4</ele>
        <time>2023-07-05T12:38:47Z</time>
      </trkpt>
      <trkpt lat="49.19992" lon="-0.20125">
        <ele>48.5</ele>
        <time>2023-07-05T12:38:48Z</time>
      </trkpt>
      <trkpt lat="49.19988" lon="-0.20132">
        <ele>48.7</ele>
        <time>2023-07-05T12:38:49Z</time>
      </trkpt>
      <trkpt lat="49.19984" lon="-0.2014">
        <ele>48.8</ele>
        <time>2023-07-05T12:38:50Z</time>
      </trkpt>
      <trkpt lat="49.1998" lon="-0.20146">
        <ele>48.9</ele>
        <time>2023-07-05T12:38:51Z</time>
      </trkpt>
      <trkpt lat="49.19977" lon="-0.20153">
        <ele>49.1</ele>
        <time>2023-07-05T12:38:52Z</time>
      </trkpt>
      <trkpt lat="49.19974" lon="-0.20159">
        <ele>49.2</ele>
        <time>2023-07-05T12:38:53Z</time>
      </trkpt>
      <trkpt lat="49.1997" lon="-0.20166">
        <ele>49.3</ele>
        <time>2023-07-05T12:38:54Z</time>
      </trkpt>
      <trkpt lat="49.19967" lon="-0.20173">
        <ele>49.5</ele>
        <time>2023-07-05T12:38:55Z</time>
      </trkpt>
      <trkpt lat="49.19963" lon="-0.20179">
        <ele>49.6</ele>
        <time>2023-07-05T12:38:56Z</time>
      </trkpt>
      <trkpt lat="49.1996" lon="-0.20185">
        <ele>49.8</ele>
        <time>2023-07-05T12:38:57Z</time>
      </trkpt>
      <trkpt lat="49.19955" lon="-0.20191">
        <ele>49.9</ele>
        <time>2023-07-05T12:38:58Z</time>
      </trkpt>
      <trkpt lat="49.19951" lon="-0.20197">
        <ele>50.1</ele>
        <time>2023-07-05T12:38:59Z</time>
      </trkpt>
      <trkpt lat="49.19947" lon="-0.20204">
        <ele>50.2</ele>
        <time>2023-07-05T12:39:00Z</time>
      </trkpt>
      <trkpt lat="49.19944" lon="-0.2021">
        <ele>50.3</ele>
        <time>2023-07-05T12:39:01Z</time>
      </trkpt>
      <trkpt lat="49.1994" lon="-0.20216">
        <ele>50.5</ele>
        <time>2023-07-05T12:39:02Z</time>
      </trkpt>
      <trkpt lat="49.19936" lon="-0.20224">
        <ele>50.6</ele>
        <time>2023-07-05T12:39:03Z</time>
      </trkpt>
      <trkpt lat="49.19932" lon="-0.2023">
        <ele>50.7</ele>
        <time>2023-07-05T12:39:04Z</time>
      </trkpt>
      <trkpt lat="49.19928" lon="-0.20237">
        <ele>50.9</ele>
        <time>2023-07-05T12:39:05Z</time>
      </trkpt>
      <trkpt lat="49.19924" lon="-0.20244">
        <ele>51</ele>
        <time>2023-07-05T12:39:06Z</time>
      </trkpt>
      <trkpt lat="49.1992" lon="-0.20251">
        <ele>51.1</ele>
        <time>2023-07-05T12:39:07Z</time>
      </trkpt>
      <trkpt lat="49.19915" lon="-0.20257">
        <ele>51.2</ele>
        <time>2023-07-05T12:39:08Z</time>
      </trkpt>
      <trkpt lat="49.19911" lon="-0.20264">
        <ele>51.4</ele>
        <time>2023-07-05T12:39:09Z</time>
      </trkpt>
      <trkpt lat="49.19907" lon="-0.2027">
        <ele>51.5</ele>
        <time>2023-07-05T12:39:10Z</time>
      </trkpt>
      <trkpt lat="49.19903" lon="-0.20277">
        <ele>51.6</ele>
        <time>2023-07-05T12:39:11Z</time>
      </trkpt>
      <trkpt lat="49.19899" lon="-0.20284">
        <ele>51.7</ele>
        <time>2023-07-05T12:39:12Z</time>
      </trkpt>
      <trkpt lat="49.19895" lon="-0.20291">
        <ele>51.8</ele>
        <time>2023-07-05T12:39:13Z</time>
      </trkpt>
      <trkpt lat="49.19891" lon="-0.20297">
        <ele>51.9</ele>
        <time>2023-07-05T12:39:14Z</time>
      </trkpt>
      <trkpt lat="49.19887" lon="-0.20304">
        <ele>52</ele>
        <time>2023-07-05T12:39:15Z</time>
      </trkpt>
      <trkpt lat="49.19883" lon="-0.2031">
        <ele>52.2</ele>
        <time>2023-07-05T12:39:16Z</time>
      </trkpt>
      <trkpt lat="49.19879" lon="-0.20318">
        <ele>52.3</ele>
        <time>2023-07-05T12:39:17Z</time>
      </trkpt>
      <trkpt lat="49.19875" lon="-0.20325">
        <ele>52.4</ele>
        <time>2023-07-05T12:39:18Z</time>
      </trkpt>
      <trkpt lat="49.19871" lon="-0.20332">
        <ele>52.6</ele>
        <time>2023-07-05T12:39:19Z</time>
      </trkpt>
      <trkpt lat="49.19868" lon="-0.20337">
        <ele>52.7</ele>
        <time>2023-07-05T12:39:20Z</time>
      </trkpt>
      <trkpt lat="49.19864" lon="-0.20343">
        <ele>52.8</ele>
        <time>2023-07-05T12:39:21Z</time>
      </trkpt>
      <trkpt lat="49.19859" lon="-0.20349">
        <ele>52.9</ele>
        <time>2023-07-05T12:39:22Z</time>
      </trkpt>
      <trkpt lat="49.19855" lon="-0.20355">
        <ele>53.1</ele>
        <time>2023-07-05T12:39:23Z</time>
      </trkpt>
      <trkpt lat="49.19851" lon="-0.20361">
        <ele>53.2</ele>
        <time>2023-07-05T12:39:24Z</time>
      </trkpt>
      <trkpt lat="49.19846" lon="-0.20368">
        <ele>53.3</ele>
        <time>2023-07-05T12:39:25Z</time>
      </trkpt>
      <trkpt lat="49.19842" lon="-0.20373">
        <ele>53.3</ele>
        <time>2023-07-05T12:39:26Z</time>
      </trkpt>
      <trkpt lat="49.19837" lon="-0.20379">
        <ele>53.3</ele>
        <time>2023-07-05T12:39:27Z</time>
      </trkpt>
      <trkpt lat="49.19832" lon="-0.20384">
        <ele>53.4</ele>
        <time>2023-07-05T12:39:28Z</time>
      </trkpt>
      <trkpt lat="49.19827" lon="-0.20389">
        <ele>53.4</ele>
        <time>2023-07-05T12:39:29Z</time>
      </trkpt>
      <trkpt lat="49.19823" lon="-0.20395">
        <ele>53.5</ele>
        <time>2023-07-05T12:39:30Z</time>
      </trkpt>
      <trkpt lat="49.19819" lon="-0.20401">
        <ele>53.5</ele>
        <time>2023-07-05T12:39:31Z</time>
      </trkpt>
      <trkpt lat="49.19815" lon="-0.20406">
        <ele>53.6</ele>
        <time>2023-07-05T12:39:32Z</time>
      </trkpt>
      <trkpt lat="49.1981" lon="-0.20411">
        <ele>53.6</ele>
        <time>2023-07-05T12:39:33Z</time>
      </trkpt>
      <trkpt lat="49.19805" lon="-0.20416">
        <ele>53.6</ele>
        <time>2023-07-05T12:39:34Z</time>
      </trkpt>
      <trkpt lat="49.198" lon="-0.20422">
        <ele>53.7</ele>
        <time>2023-07-05T12:39:35Z</time>
      </trkpt>
      <trkpt lat="49.19795" lon="-0.20428">
        <ele>53.7</ele>
        <time>2023-07-05T12:39:36Z</time>
      </trkpt>
      <trkpt lat="49.1979" lon="-0.20434">
        <ele>53.8</ele>
        <time>2023-07-05T12:39:37Z</time>
      </trkpt>
      <trkpt lat="49.19786" lon="-0.20441">
        <ele>53.8</ele>
        <time>2023-07-05T12:39:38Z</time>
      </trkpt>
      <trkpt lat="49.19783" lon="-0.20447">
        <ele>53.8</ele>
        <time>2023-07-05T12:39:39Z</time>
      </trkpt>
      <trkpt lat="49.19779" lon="-0.20453">
        <ele>53.9</ele>
        <time>2023-07-05T12:39:40Z</time>
      </trkpt>
      <trkpt lat="49.19775" lon="-0.20459">
        <ele>53.9</ele>
        <time>2023-07-05T12:39:41Z</time>
      </trkpt>
      <trkpt lat="49.19771" lon="-0.20465">
        <ele>53.9</ele>
        <time>2023-07-05T12:39:42Z</time>
      </trkpt>
      <trkpt lat="49.19767" lon="-0.20472">
        <ele>54</ele>
        <time>2023-07-05T12:39:43Z</time>
      </trkpt>
      <trkpt lat="49.19763" lon="-0.20479">
        <ele>54.1</ele>
        <time>2023-07-05T12:39:44Z</time>
      </trkpt>
      <trkpt lat="49.19758" lon="-0.20485">
        <ele>54.1</ele>
        <time>2023-07-05T12:39:45Z</time>
      </trkpt>
      <trkpt lat="49.19753" lon="-0.20492">
        <ele>54.1</ele>
        <time>2023-07-05T12:39:46Z</time>
      </trkpt>
      <trkpt lat="49.19749" lon="-0.20498">
        <ele>54.2</ele>
        <time>2023-07-05T12:39:47Z</time>
      </trkpt>
      <trkpt lat="49.19744" lon="-0.20504">
        <ele>54.2</ele>
        <time>2023-07-05T12:39:48Z</time>
      </trkpt>
      <trkpt lat="49.1974" lon="-0.2051">
        <ele>54.2</ele>
        <time>2023-07-05T12:39:49Z</time>
      </trkpt>
      <trkpt lat="49.19735" lon="-0.20515">
        <ele>54.3</ele>
        <time>2023-07-05T12:39:50Z</time>
      </trkpt>
      <trkpt lat="49.1973" lon="-0.20521">
        <ele>54.3</ele>
        <time>2023-07-05T12:39:51Z</time>
      </trkpt>
      <trkpt lat="49.19726" lon="-0.20527">
        <ele>54.3</ele>
        <time>2023-07-05T12:39:52Z</time>
      </trkpt>
      <trkpt lat="49.19722" lon="-0.20532">
        <ele>54.4</ele>
        <time>2023-07-05T12:39:53Z</time>
      </trkpt>
      <trkpt lat="49.19718" lon="-0.20537">
        <ele>54.4</ele>
        <time>2023-07-05T12:39:54Z</time>
      </trkpt>
      <trkpt lat="49.19714" lon="-0.20543">
        <ele>54.4</ele>
        <time>2023-07-05T12:39:55Z</time>
      </trkpt>
      <trkpt lat="49.1971" lon="-0.20548">
        <ele>54.5</ele>
        <time>2023-07-05T12:39:56Z</time>
      </trkpt>
      <trkpt lat="49.19707" lon="-0.20552">
        <ele>54.5</ele>
        <time>2023-07-05T12:39:57Z</time>
      </trkpt>
      <trkpt lat="49.19704" lon="-0.20556">
        <ele>54.6</ele>
        <time>2023-07-05T12:39:58Z</time>
      </trkpt>
      <trkpt lat="49.19701" lon="-0.20559">
        <ele>54.7</ele>
        <time>2023-07-05T12:39:59Z</time>
      </trkpt>
      <trkpt lat="49.19698" lon="-0.20562">
        <ele>54.8</ele>
        <time>2023-07-05T12:40:00Z</time>
      </trkpt>
      <trkpt lat="49.19696" lon="-0.20564">
        <ele>54.9</ele>
        <time>2023-07-05T12:40:01Z</time>
      </trkpt>
      <trkpt lat="49.19694" lon="-0.20568">
        <ele>55</ele>
        <time>2023-07-05T12:40:02Z</time>
      </trkpt>
      <trkpt lat="49.19693" lon="-0.20569">
        <ele>55</ele>
        <time>2023-07-05T12:40:03Z</time>
      </trkpt>
      <trkpt lat="49.19693" lon="-0.2057">
        <ele>55</ele>
        <time>2023-07-05T12:40:04Z</time>
      </trkpt>
      <trkpt lat="49.19692" lon="-0.20571">
        <ele>55</ele>
        <time>2023-07-05T12:40:05Z</time>
      </trkpt>
      <trkpt lat="49.19692" lon="-0.20572">
        <ele>55</ele>
        <time>2023-07-05T12:40:06Z</time>
      </trkpt>
      <trkpt lat="49.19692" lon="-0.20572">
        <ele>55.1</ele>
        <time>2023-07-05T12:40:07Z</time>
      </trkpt>
      <trkpt lat="49.19692" lon="-0.20573">
        <ele>55.1</ele>
        <time>2023-07-05T12:40:08Z</time>
      </trkpt>
      <trkpt lat="49.19691" lon="-0.20573">
        <ele>55.1</ele>
        <time>2023-07-05T12:40:09Z</time>
      </trkpt>
      <trkpt lat="49.19691" lon="-0.20574">
        <ele>55.1</ele>
        <time>2023-07-05T12:40:10Z</time>
      </trkpt>
      <trkpt lat="49.19691" lon="-0.20574">
        <ele>55.1</ele>
        <time>2023-07-05T12:40:11Z</time>
      </trkpt>
      <trkpt lat="49.1969" lon="-0.20575">
        <ele>55.1</ele>
        <time>2023-07-05T12:40:12Z</time>
      </trkpt>
      <trkpt lat="49.1969" lon="-0.20575">
        <ele>55.1</ele>
        <time>2023-07-05T12:40:13Z</time>
      </trkpt>
      <trkpt lat="49.1969" lon="-0.20576">
        <ele>55.1</ele>
        <time>2023-07-05T12:40:14Z</time>
      </trkpt>
      <trkpt lat="49.19689" lon="-0.20577">
        <ele>55.2</ele>
        <time>2023-07-05T12:40:15Z</time>
      </trkpt>
      <trkpt lat="49.19689" lon="-0.20577">
        <ele>55.2</ele>
        <time>2023-07-05T12:41:12Z</time>
      </trkpt>
      <trkpt lat="49.19689" lon="-0.20578">
        <ele>55.2</ele>
        <time>2023-07-05T12:41:13Z</time>
      </trkpt>
      <trkpt lat="49.19688" lon="-0.20578">
        <ele>55.2</ele>
        <time>2023-07-05T12:41:14Z</time>
      </trkpt>
      <trkpt lat="49.19686" lon="-0.20582">
        <ele>55.1</ele>
        <time>2023-07-05T12:41:15Z</time>
      </trkpt>
      <trkpt lat="49.19683" lon="-0.20586">
        <ele>54.9</ele>
        <time>2023-07-05T12:41:16Z</time>
      </trkpt>
      <trkpt lat="49.1968" lon="-0.20591">
        <ele>54.8</ele>
        <time>2023-07-05T12:41:17Z</time>
      </trkpt>
      <trkpt lat="49.19677" lon="-0.20597">
        <ele>54.7</ele>
        <time>2023-07-05T12:41:18Z</time>
      </trkpt>
      <trkpt lat="49.19674" lon="-0.20602">
        <ele>54.7</ele>
        <time>2023-07-05T12:41:19Z</time>
      </trkpt>
      <trkpt lat="49.19671" lon="-0.20608">
        <ele>54.6</ele>
        <time>2023-07-05T12:41:20Z</time>
      </trkpt>
      <trkpt lat="49.19668" lon="-0.20613">
        <ele>54.5</ele>
        <time>2023-07-05T12:41:21Z</time>
      </trkpt>
      <trkpt lat="49.19666" lon="-0.20618">
        <ele>54.5</ele>
        <time>2023-07-05T12:41:22Z</time>
      </trkpt>
      <trkpt lat="49.19664" lon="-0.20623">
        <ele>54.4</ele>
        <time>2023-07-05T12:41:23Z</time>
      </trkpt>
      <trkpt lat="49.19661" lon="-0.20628">
        <ele>54.3</ele>
        <time>2023-07-05T12:41:24Z</time>
      </trkpt>
      <trkpt lat="49.19659" lon="-0.20634">
        <ele>54.2</ele>
        <time>2023-07-05T12:41:25Z</time>
      </trkpt>
      <trkpt lat="49.19657" lon="-0.20639">
        <ele>54.1</ele>
        <time>2023-07-05T12:41:26Z</time>
      </trkpt>
      <trkpt lat="49.19655" lon="-0.20645">
        <ele>54</ele>
        <time>2023-07-05T12:41:27Z</time>
      </trkpt>
      <trkpt lat="49.19652" lon="-0.2065">
        <ele>53.9</ele>
        <time>2023-07-05T12:41:28Z</time>
      </trkpt>
      <trkpt lat="49.1965" lon="-0.20655">
        <ele>53.7</ele>
        <time>2023-07-05T12:41:29Z</time>
      </trkpt>
      <trkpt lat="49.19647" lon="-0.20661">
        <ele>53.5</ele>
        <time>2023-07-05T12:41:30Z</time>
      </trkpt>
      <trkpt lat="49.19644" lon="-0.20666">
        <ele>53.2</ele>
        <time>2023-07-05T12:41:31Z</time>
      </trkpt>
      <trkpt lat="49.19641" lon="-0.20671">
        <ele>52.9</ele>
        <time>2023-07-05T12:41:32Z</time>
      </trkpt>
      <trkpt lat="49.19638" lon="-0.20677">
        <ele>52.6</ele>
        <time>2023-07-05T12:41:33Z</time>
      </trkpt>
      <trkpt lat="49.19635" lon="-0.20684">
        <ele>52.2</ele>
        <time>2023-07-05T12:41:34Z</time>
      </trkpt>
      <trkpt lat="49.19631" lon="-0.20691">
        <ele>51.7</ele>
        <time>2023-07-05T12:41:35Z</time>
      </trkpt>
      <trkpt lat="49.19628" lon="-0.20699">
        <ele>51.2</ele>
        <time>2023-07-05T12:41:36Z</time>
      </trkpt>
      <trkpt lat="49.19624" lon="-0.20708">
        <ele>50.6</ele>
        <time>2023-07-05T12:41:37Z</time>
      </trkpt>
      <trkpt lat="49.1962" lon="-0.20717">
        <ele>50</ele>
        <time>2023-07-05T12:41:38Z</time>
      </trkpt>
      <trkpt lat="49.19617" lon="-0.20727">
        <ele>49.4</ele>
        <time>2023-07-05T12:41:39Z</time>
      </trkpt>
      <trkpt lat="49.19613" lon="-0.20736">
        <ele>48.8</ele>
        <time>2023-07-05T12:41:40Z</time>
      </trkpt>
      <trkpt lat="49.19608" lon="-0.20746">
        <ele>48.2</ele>
        <time>2023-07-05T12:41:41Z</time>
      </trkpt>
      <trkpt lat="49.19604" lon="-0.20756">
        <ele>47.7</ele>
        <time>2023-07-05T12:41:42Z</time>
      </trkpt>
      <trkpt lat="49.19599" lon="-0.20765">
        <ele>47.2</ele>
        <time>2023-07-05T12:41:43Z</time>
      </trkpt>
      <trkpt lat="49.19595" lon="-0.20775">
        <ele>46.7</ele>
        <time>2023-07-05T12:41:44Z</time>
      </trkpt>
      <trkpt lat="49.1959" lon="-0.20783">
        <ele>46.3</ele>
        <time>2023-07-05T12:41:45Z</time>
      </trkpt>
      <trkpt lat="49.19586" lon="-0.20792">
        <ele>46</ele>
        <time>2023-07-05T12:41:46Z</time>
      </trkpt>
      <trkpt lat="49.19581" lon="-0.20801">
        <ele>45.7</ele>
        <time>2023-07-05T12:41:47Z</time>
      </trkpt>
      <trkpt lat="49.19576" lon="-0.2081">
        <ele>45.3</ele>
        <time>2023-07-05T12:41:48Z</time>
      </trkpt>
      <trkpt lat="49.19571" lon="-0.2082">
        <ele>44.9</ele>
        <time>2023-07-05T12:41:49Z</time>
      </trkpt>
      <trkpt lat="49.19566" lon="-0.20829">
        <ele>44.5</ele>
        <time>2023-07-05T12:41:50Z</time>
      </trkpt>
      <trkpt lat="49.1956" lon="-0.2084">
        <ele>44.2</ele>
        <time>2023-07-05T12:41:51Z</time>
      </trkpt>
      <trkpt lat="49.19555" lon="-0.2085">
        <ele>43.8</ele>
        <time>2023-07-05T12:41:52Z</time>
      </trkpt>
      <trkpt lat="49.19549" lon="-0.2086">
        <ele>43.5</ele>
        <time>2023-07-05T12:41:53Z</time>
      </trkpt>
      <trkpt lat="49.19543" lon="-0.20869">
        <ele>43.2</ele>
        <time>2023-07-05T12:41:54Z</time>
      </trkpt>
      <trkpt lat="49.19538" lon="-0.20879">
        <ele>42.9</ele>
        <time>2023-07-05T12:41:55Z</time>
      </trkpt>
      <trkpt lat="49.19533" lon="-0.20888">
        <ele>42.6</ele>
        <time>2023-07-05T12:41:56Z</time>
      </trkpt>
      <trkpt lat="49.19528" lon="-0.20898">
        <ele>42.3</ele>
        <time>2023-07-05T12:41:57Z</time>
      </trkpt>
      <trkpt lat="49.19524" lon="-0.20907">
        <ele>42.1</ele>
        <time>2023-07-05T12:41:58Z</time>
      </trkpt>
      <trkpt lat="49.1952" lon="-0.20917">
        <ele>41.8</ele>
        <time>2023-07-05T12:41:59Z</time>
      </trkpt>
      <trkpt lat="49.19516" lon="-0.20927">
        <ele>41.5</ele>
        <time>2023-07-05T12:42:00Z</time>
      </trkpt>
      <trkpt lat="49.19513" lon="-0.20937">
        <ele>41.2</ele>
        <time>2023-07-05T12:42:01Z</time>
      </trkpt>
      <trkpt lat="49.19509" lon="-0.20948">
        <ele>40.8</ele>
        <time>2023-07-05T12:42:02Z</time>
      </trkpt>
      <trkpt lat="49.19504" lon="-0.20958">
        <ele>40.3</ele>
        <time>2023-07-05T12:42:03Z</time>
      </trkpt>
      <trkpt lat="49.195" lon="-0.20968">
        <ele>39.8</ele>
        <time>2023-07-05T12:42:04Z</time>
      </trkpt>
      <trkpt lat="49.19495" lon="-0.20978">
        <ele>39.3</ele>
        <time>2023-07-05T12:42:05Z</time>
      </trkpt>
      <trkpt lat="49.1949" lon="-0.20986">
        <ele>38.8</ele>
        <time>2023-07-05T12:42:06Z</time>
      </trkpt>
      <trkpt lat="49.19485" lon="-0.20994">
        <ele>38.3</ele>
        <time>2023-07-05T12:42:07Z</time>
      </trkpt>
      <trkpt lat="49.1948" lon="-0.21001">
        <ele>37.8</ele>
        <time>2023-07-05T12:42:08Z</time>
      </trkpt>
      <trkpt lat="49.19474" lon="-0.21007">
        <ele>37.3</ele>
        <time>2023-07-05T12:42:09Z</time>
      </trkpt>
      <trkpt lat="49.19469" lon="-0.21014">
        <ele>36.8</ele>
        <time>2023-07-05T12:42:10Z</time>
      </trkpt>
      <trkpt lat="49.19464" lon="-0.21021">
        <ele>36.4</ele>
        <time>2023-07-05T12:42:11Z</time>
      </trkpt>
      <trkpt lat="49.19456" lon="-0.21033">
        <ele>35.5</ele>
        <time>2023-07-05T12:42:13Z</time>
      </trkpt>
      <trkpt lat="49.1945" lon="-0.21041">
        <ele>34.9</ele>
        <time>2023-07-05T12:42:14Z</time>
      </trkpt>
      <trkpt lat="49.19445" lon="-0.21049">
        <ele>34.3</ele>
        <time>2023-07-05T12:42:15Z</time>
      </trkpt>
      <trkpt lat="49.19439" lon="-0.21059">
        <ele>33.6</ele>
        <time>2023-07-05T12:42:16Z</time>
      </trkpt>
      <trkpt lat="49.19433" lon="-0.21068">
        <ele>32.9</ele>
        <time>2023-07-05T12:42:17Z</time>
      </trkpt>
      <trkpt lat="49.19428" lon="-0.21077">
        <ele>32.2</ele>
        <time>2023-07-05T12:42:18Z</time>
      </trkpt>
      <trkpt lat="49.19422" lon="-0.21086">
        <ele>31.5</ele>
        <time>2023-07-05T12:42:19Z</time>
      </trkpt>
      <trkpt lat="49.19416" lon="-0.21095">
        <ele>30.7</ele>
        <time>2023-07-05T12:42:20Z</time>
      </trkpt>
      <trkpt lat="49.19409" lon="-0.21105">
        <ele>29.9</ele>
        <time>2023-07-05T12:42:21Z</time>
      </trkpt>
      <trkpt lat="49.19402" lon="-0.21114">
        <ele>29.1</ele>
        <time>2023-07-05T12:42:22Z</time>
      </trkpt>
      <trkpt lat="49.19396" lon="-0.21125">
        <ele>28.4</ele>
        <time>2023-07-05T12:42:23Z</time>
      </trkpt>
      <trkpt lat="49.1939" lon="-0.21136">
        <ele>27.6</ele>
        <time>2023-07-05T12:42:24Z</time>
      </trkpt>
      <trkpt lat="49.19384" lon="-0.21149">
        <ele>26.8</ele>
        <time>2023-07-05T12:42:25Z</time>
      </trkpt>
      <trkpt lat="49.19379" lon="-0.21163">
        <ele>26</ele>
        <time>2023-07-05T12:42:26Z</time>
      </trkpt>
      <trkpt lat="49.19374" lon="-0.21177">
        <ele>25.4</ele>
        <time>2023-07-05T12:42:27Z</time>
      </trkpt>
      <trkpt lat="49.19369" lon="-0.21192">
        <ele>24.8</ele>
        <time>2023-07-05T12:42:28Z</time>
      </trkpt>
      <trkpt lat="49.19365" lon="-0.21207">
        <ele>24.3</ele>
        <time>2023-07-05T12:42:29Z</time>
      </trkpt>
      <trkpt lat="49.19361" lon="-0.21222">
        <ele>23.7</ele>
        <time>2023-07-05T12:42:30Z</time>
      </trkpt>
      <trkpt lat="49.19356" lon="-0.21237">
        <ele>23.3</ele>
        <time>2023-07-05T12:42:31Z</time>
      </trkpt>
      <trkpt lat="49.19352" lon="-0.21252">
        <ele>22.9</ele>
        <time>2023-07-05T12:42:32Z</time>
      </trkpt>
      <trkpt lat="49.19347" lon="-0.21268">
        <ele>22.6</ele>
        <time>2023-07-05T12:42:33Z</time>
      </trkpt>
      <trkpt lat="49.19343" lon="-0.21283">
        <ele>22.3</ele>
        <time>2023-07-05T12:42:34Z</time>
      </trkpt>
      <trkpt lat="49.19339" lon="-0.21298">
        <ele>22.1</ele>
        <time>2023-07-05T12:42:35Z</time>
      </trkpt>
      <trkpt lat="49.19334" lon="-0.21313">
        <ele>21.8</ele>
        <time>2023-07-05T12:42:36Z</time>
      </trkpt>
      <trkpt lat="49.1933" lon="-0.21327">
        <ele>21.6</ele>
        <time>2023-07-05T12:42:37Z</time>
      </trkpt>
      <trkpt lat="49.19327" lon="-0.21342">
        <ele>21.4</ele>
        <time>2023-07-05T12:42:38Z</time>
      </trkpt>
      <trkpt lat="49.19323" lon="-0.21355">
        <ele>21.2</ele>
        <time>2023-07-05T12:42:39Z</time>
      </trkpt>
      <trkpt lat="49.1932" lon="-0.21369">
        <ele>21</ele>
        <time>2023-07-05T12:42:40Z</time>
      </trkpt>
      <trkpt lat="49.19314" lon="-0.21395">
        <ele>20.6</ele>
        <time>2023-07-05T12:42:42Z</time>
      </trkpt>
      <trkpt lat="49.19312" lon="-0.21408">
        <ele>20.5</ele>
        <time>2023-07-05T12:42:43Z</time>
      </trkpt>
      <trkpt lat="49.19309" lon="-0.2142">
        <ele>20.3</ele>
        <time>2023-07-05T12:42:44Z</time>
      </trkpt>
      <trkpt lat="49.19307" lon="-0.21433">
        <ele>20.2</ele>
        <time>2023-07-05T12:42:45Z</time>
      </trkpt>
      <trkpt lat="49.19305" lon="-0.21446">
        <ele>20.2</ele>
        <time>2023-07-05T12:42:46Z</time>
      </trkpt>
      <trkpt lat="49.19304" lon="-0.21458">
        <ele>20.1</ele>
        <time>2023-07-05T12:42:47Z</time>
      </trkpt>
      <trkpt lat="49.19302" lon="-0.2147">
        <ele>20</ele>
        <time>2023-07-05T12:42:48Z</time>
      </trkpt>
      <trkpt lat="49.19301" lon="-0.21481">
        <ele>19.9</ele>
        <time>2023-07-05T12:42:49Z</time>
      </trkpt>
      <trkpt lat="49.19301" lon="-0.21493">
        <ele>19.9</ele>
        <time>2023-07-05T12:42:50Z</time>
      </trkpt>
      <trkpt lat="49.193" lon="-0.21504">
        <ele>19.8</ele>
        <time>2023-07-05T12:42:51Z</time>
      </trkpt>
      <trkpt lat="49.19299" lon="-0.21515">
        <ele>19.7</ele>
        <time>2023-07-05T12:42:52Z</time>
      </trkpt>
      <trkpt lat="49.19298" lon="-0.21526">
        <ele>19.7</ele>
        <time>2023-07-05T12:42:53Z</time>
      </trkpt>
      <trkpt lat="49.19297" lon="-0.21537">
        <ele>19.6</ele>
        <time>2023-07-05T12:42:54Z</time>
      </trkpt>
      <trkpt lat="49.19296" lon="-0.21548">
        <ele>19.5</ele>
        <time>2023-07-05T12:42:55Z</time>
      </trkpt>
      <trkpt lat="49.19295" lon="-0.21559">
        <ele>19.3</ele>
        <time>2023-07-05T12:42:56Z</time>
      </trkpt>
      <trkpt lat="49.19293" lon="-0.21571">
        <ele>19.2</ele>
        <time>2023-07-05T12:42:57Z</time>
      </trkpt>
      <trkpt lat="49.1929" lon="-0.21583">
        <ele>19</ele>
        <time>2023-07-05T12:42:58Z</time>
      </trkpt>
      <trkpt lat="49.19287" lon="-0.21594">
        <ele>18.9</ele>
        <time>2023-07-05T12:42:59Z</time>
      </trkpt>
      <trkpt lat="49.19283" lon="-0.21606">
        <ele>18.7</ele>
        <time>2023-07-05T12:43:00Z</time>
      </trkpt>
      <trkpt lat="49.1928" lon="-0.21618">
        <ele>18.6</ele>
        <time>2023-07-05T12:43:01Z</time>
      </trkpt>
      <trkpt lat="49.19275" lon="-0.2163">
        <ele>18.5</ele>
        <time>2023-07-05T12:43:02Z</time>
      </trkpt>
      <trkpt lat="49.19271" lon="-0.21642">
        <ele>18.3</ele>
        <time>2023-07-05T12:43:03Z</time>
      </trkpt>
      <trkpt lat="49.19267" lon="-0.21654">
        <ele>18.2</ele>
        <time>2023-07-05T12:43:04Z</time>
      </trkpt>
      <trkpt lat="49.19263" lon="-0.21666">
        <ele>18.1</ele>
        <time>2023-07-05T12:43:05Z</time>
      </trkpt>
      <trkpt lat="49.19259" lon="-0.21677">
        <ele>17.9</ele>
        <time>2023-07-05T12:43:06Z</time>
      </trkpt>
      <trkpt lat="49.19255" lon="-0.21688">
        <ele>17.8</ele>
        <time>2023-07-05T12:43:07Z</time>
      </trkpt>
      <trkpt lat="49.1925" lon="-0.21699">
        <ele>17.7</ele>
        <time>2023-07-05T12:43:08Z</time>
      </trkpt>
      <trkpt lat="49.19247" lon="-0.21709">
        <ele>17.6</ele>
        <time>2023-07-05T12:43:09Z</time>
      </trkpt>
      <trkpt lat="49.19242" lon="-0.21719">
        <ele>17.4</ele>
        <time>2023-07-05T12:43:10Z</time>
      </trkpt>
      <trkpt lat="49.19239" lon="-0.2173">
        <ele>17.3</ele>
        <time>2023-07-05T12:43:11Z</time>
      </trkpt>
      <trkpt lat="49.19235" lon="-0.2174">
        <ele>17.1</ele>
        <time>2023-07-05T12:43:12Z</time>
      </trkpt>
      <trkpt lat="49.19231" lon="-0.2175">
        <ele>16.9</ele>
        <time>2023-07-05T12:43:13Z</time>
      </trkpt>
      <trkpt lat="49.19227" lon="-0.21759">
        <ele>16.8</ele>
        <time>2023-07-05T12:43:14Z</time>
      </trkpt>
      <trkpt lat="49.19223" lon="-0.21769">
        <ele>16.6</ele>
        <time>2023-07-05T12:43:15Z</time>
      </trkpt>
      <trkpt lat="49.19219" lon="-0.2178">
        <ele>16.4</ele>
        <time>2023-07-05T12:43:16Z</time>
      </trkpt>
      <trkpt lat="49.19216" lon="-0.21791">
        <ele>16.1</ele>
        <time>2023-07-05T12:43:17Z</time>
      </trkpt>
      <trkpt lat="49.19212" lon="-0.21802">
        <ele>15.8</ele>
        <time>2023-07-05T12:43:18Z</time>
      </trkpt>
      <trkpt lat="49.19208" lon="-0.21812">
        <ele>15.5</ele>
        <time>2023-07-05T12:43:19Z</time>
      </trkpt>
      <trkpt lat="49.19204" lon="-0.21823">
        <ele>15.3</ele>
        <time>2023-07-05T12:43:20Z</time>
      </trkpt>
      <trkpt lat="49.192" lon="-0.21834">
        <ele>15</ele>
        <time>2023-07-05T12:43:21Z</time>
      </trkpt>
      <trkpt lat="49.19196" lon="-0.21845">
        <ele>14.7</ele>
        <time>2023-07-05T12:43:22Z</time>
      </trkpt>
      <trkpt lat="49.19192" lon="-0.21856">
        <ele>14.3</ele>
        <time>2023-07-05T12:43:23Z</time>
      </trkpt>
      <trkpt lat="49.19187" lon="-0.21867">
        <ele>14</ele>
        <time>2023-07-05T12:43:24Z</time>
      </trkpt>
      <trkpt lat="49.19183" lon="-0.21878">
        <ele>13.7</ele>
        <time>2023-07-05T12:43:25Z</time>
      </trkpt>
      <trkpt lat="49.1918" lon="-0.2189">
        <ele>13.4</ele>
        <time>2023-07-05T12:43:26Z</time>
      </trkpt>
      <trkpt lat="49.19176" lon="-0.21901">
        <ele>13.1</ele>
        <time>2023-07-05T12:43:27Z</time>
      </trkpt>
      <trkpt lat="49.19172" lon="-0.21912">
        <ele>12.9</ele>
        <time>2023-07-05T12:43:28Z</time>
      </trkpt>
      <trkpt lat="49.19169" lon="-0.21924">
        <ele>12.8</ele>
        <time>2023-07-05T12:43:29Z</time>
      </trkpt>
      <trkpt lat="49.19166" lon="-0.21935">
        <ele>12.6</ele>
        <time>2023-07-05T12:43:30Z</time>
      </trkpt>
      <trkpt lat="49.19163" lon="-0.21946">
        <ele>12.5</ele>
        <time>2023-07-05T12:43:31Z</time>
      </trkpt>
      <trkpt lat="49.1916" lon="-0.21957">
        <ele>12.5</ele>
        <time>2023-07-05T12:43:32Z</time>
      </trkpt>
      <trkpt lat="49.19157" lon="-0.21968">
        <ele>12.4</ele>
        <time>2023-07-05T12:43:33Z</time>
      </trkpt>
      <trkpt lat="49.19154" lon="-0.21978">
        <ele>12.3</ele>
        <time>2023-07-05T12:43:34Z</time>
      </trkpt>
      <trkpt lat="49.19152" lon="-0.21989">
        <ele>12.2</ele>
        <time>2023-07-05T12:43:35Z</time>
      </trkpt>
      <trkpt lat="49.1915" lon="-0.22">
        <ele>12.2</ele>
        <time>2023-07-05T12:43:36Z</time>
      </trkpt>
      <trkpt lat="49.19148" lon="-0.2201">
        <ele>12.1</ele>
        <time>2023-07-05T12:43:37Z</time>
      </trkpt>
      <trkpt lat="49.19145" lon="-0.22021">
        <ele>12.1</ele>
        <time>2023-07-05T12:43:38Z</time>
      </trkpt>
      <trkpt lat="49.19143" lon="-0.22031">
        <ele>12</ele>
        <time>2023-07-05T12:43:39Z</time>
      </trkpt>
      <trkpt lat="49.19141" lon="-0.22041">
        <ele>12</ele>
        <time>2023-07-05T12:43:40Z</time>
      </trkpt>
      <trkpt lat="49.1914" lon="-0.22051">
        <ele>12</ele>
        <time>2023-07-05T12:43:41Z</time>
      </trkpt>
      <trkpt lat="49.19137" lon="-0.2206">
        <ele>12</ele>
        <time>2023-07-05T12:43:42Z</time>
      </trkpt>
      <trkpt lat="49.19135" lon="-0.22069">
        <ele>11.9</ele>
        <time>2023-07-05T12:43:43Z</time>
      </trkpt>
      <trkpt lat="49.19133" lon="-0.22078">
        <ele>11.9</ele>
        <time>2023-07-05T12:43:44Z</time>
      </trkpt>
      <trkpt lat="49.1913" lon="-0.22088">
        <ele>11.9</ele>
        <time>2023-07-05T12:43:45Z</time>
      </trkpt>
      <trkpt lat="49.19128" lon="-0.22097">
        <ele>11.9</ele>
        <time>2023-07-05T12:43:46Z</time>
      </trkpt>
      <trkpt lat="49.19125" lon="-0.22107">
        <ele>11.8</ele>
        <time>2023-07-05T12:43:47Z</time>
      </trkpt>
      <trkpt lat="49.19122" lon="-0.22116">
        <ele>11.8</ele>
        <time>2023-07-05T12:43:48Z</time>
      </trkpt>
      <trkpt lat="49.19119" lon="-0.22125">
        <ele>11.8</ele>
        <time>2023-07-05T12:43:49Z</time>
      </trkpt>
      <trkpt lat="49.19116" lon="-0.22134">
        <ele>11.7</ele>
        <time>2023-07-05T12:43:50Z</time>
      </trkpt>
      <trkpt lat="49.19112" lon="-0.22144">
        <ele>11.7</ele>
        <time>2023-07-05T12:43:51Z</time>
      </trkpt>
      <trkpt lat="49.19108" lon="-0.22152">
        <ele>11.7</ele>
        <time>2023-07-05T12:43:52Z</time>
      </trkpt>
      <trkpt lat="49.19103" lon="-0.2216">
        <ele>11.7</ele>
        <time>2023-07-05T12:43:53Z</time>
      </trkpt>
      <trkpt lat="49.19098" lon="-0.22168">
        <ele>11.6</ele>
        <time>2023-07-05T12:43:54Z</time>
      </trkpt>
      <trkpt lat="49.19094" lon="-0.22175">
        <ele>11.6</ele>
        <time>2023-07-05T12:43:55Z</time>
      </trkpt>
      <trkpt lat="49.19088" lon="-0.22182">
        <ele>11.6</ele>
        <time>2023-07-05T12:43:56Z</time>
      </trkpt>
      <trkpt lat="49.19083" lon="-0.22189">
        <ele>11.6</ele>
        <time>2023-07-05T12:43:57Z</time>
      </trkpt>
      <trkpt lat="49.19079" lon="-0.22197">
        <ele>11.6</ele>
        <time>2023-07-05T12:43:58Z</time>
      </trkpt>
      <trkpt lat="49.19075" lon="-0.22205">
        <ele>11.6</ele>
        <time>2023-07-05T12:43:59Z</time>
      </trkpt>
      <trkpt lat="49.19071" lon="-0.22215">
        <ele>11.6</ele>
        <time>2023-07-05T12:44:00Z</time>
      </trkpt>
      <trkpt lat="49.19068" lon="-0.22223">
        <ele>11.6</ele>
        <time>2023-07-05T12:44:01Z</time>
      </trkpt>
      <trkpt lat="49.19065" lon="-0.22233">
        <ele>11.6</ele>
        <time>2023-07-05T12:44:02Z</time>
      </trkpt>
      <trkpt lat="49.19062" lon="-0.22242">
        <ele>11.6</ele>
        <time>2023-07-05T12:44:03Z</time>
      </trkpt>
      <trkpt lat="49.19059" lon="-0.22251">
        <ele>11.6</ele>
        <time>2023-07-05T12:44:04Z</time>
      </trkpt>
      <trkpt lat="49.19056" lon="-0.2226">
        <ele>11.7</ele>
        <time>2023-07-05T12:44:05Z</time>
      </trkpt>
      <trkpt lat="49.19053" lon="-0.22269">
        <ele>11.7</ele>
        <time>2023-07-05T12:44:06Z</time>
      </trkpt>
      <trkpt lat="49.19051" lon="-0.22278">
        <ele>11.8</ele>
        <time>2023-07-05T12:44:07Z</time>
      </trkpt>
      <trkpt lat="49.19048" lon="-0.22286">
        <ele>11.9</ele>
        <time>2023-07-05T12:44:08Z</time>
      </trkpt>
      <trkpt lat="49.19045" lon="-0.22293">
        <ele>12</ele>
        <time>2023-07-05T12:44:09Z</time>
      </trkpt>
      <trkpt lat="49.19043" lon="-0.22301">
        <ele>12</ele>
        <time>2023-07-05T12:44:10Z</time>
      </trkpt>
      <trkpt lat="49.19041" lon="-0.22307">
        <ele>12.1</ele>
        <time>2023-07-05T12:44:11Z</time>
      </trkpt>
      <trkpt lat="49.19039" lon="-0.22312">
        <ele>12.2</ele>
        <time>2023-07-05T12:44:12Z</time>
      </trkpt>
      <trkpt lat="49.19037" lon="-0.22317">
        <ele>12.2</ele>
        <time>2023-07-05T12:44:13Z</time>
      </trkpt>
      <trkpt lat="49.19035" lon="-0.22321">
        <ele>12.3</ele>
        <time>2023-07-05T12:44:14Z</time>
      </trkpt>
      <trkpt lat="49.19034" lon="-0.22327">
        <ele>12.4</ele>
        <time>2023-07-05T12:44:15Z</time>
      </trkpt>
      <trkpt lat="49.19033" lon="-0.22333">
        <ele>12.4</ele>
        <time>2023-07-05T12:44:16Z</time>
      </trkpt>
      <trkpt lat="49.19034" lon="-0.22341">
        <ele>12.5</ele>
        <time>2023-07-05T12:44:17Z</time>
      </trkpt>
      <trkpt lat="49.19037" lon="-0.22348">
        <ele>12.6</ele>
        <time>2023-07-05T12:44:18Z</time>
      </trkpt>
      <trkpt lat="49.1904" lon="-0.22356">
        <ele>12.7</ele>
        <time>2023-07-05T12:44:19Z</time>
      </trkpt>
      <trkpt lat="49.19043" lon="-0.22363">
        <ele>12.8</ele>
        <time>2023-07-05T12:44:20Z</time>
      </trkpt>
      <trkpt lat="49.19047" lon="-0.2237">
        <ele>12.9</ele>
        <time>2023-07-05T12:44:21Z</time>
      </trkpt>
      <trkpt lat="49.1905" lon="-0.22377">
        <ele>13</ele>
        <time>2023-07-05T12:44:22Z</time>
      </trkpt>
      <trkpt lat="49.19052" lon="-0.22384">
        <ele>13.1</ele>
        <time>2023-07-05T12:44:23Z</time>
      </trkpt>
      <trkpt lat="49.19055" lon="-0.22392">
        <ele>13.3</ele>
        <time>2023-07-05T12:44:24Z</time>
      </trkpt>
      <trkpt lat="49.19057" lon="-0.22399">
        <ele>13.4</ele>
        <time>2023-07-05T12:44:25Z</time>
      </trkpt>
      <trkpt lat="49.1906" lon="-0.22406">
        <ele>13.5</ele>
        <time>2023-07-05T12:44:26Z</time>
      </trkpt>
      <trkpt lat="49.19063" lon="-0.22413">
        <ele>13.6</ele>
        <time>2023-07-05T12:44:27Z</time>
      </trkpt>
      <trkpt lat="49.19066" lon="-0.2242">
        <ele>13.7</ele>
        <time>2023-07-05T12:44:28Z</time>
      </trkpt>
      <trkpt lat="49.19068" lon="-0.22428">
        <ele>13.8</ele>
        <time>2023-07-05T12:44:29Z</time>
      </trkpt>
      <trkpt lat="49.19071" lon="-0.22436">
        <ele>14</ele>
        <time>2023-07-05T12:44:30Z</time>
      </trkpt>
      <trkpt lat="49.19073" lon="-0.22444">
        <ele>14.1</ele>
        <time>2023-07-05T12:44:31Z</time>
      </trkpt>
      <trkpt lat="49.19076" lon="-0.22452">
        <ele>14.3</ele>
        <time>2023-07-05T12:44:32Z</time>
      </trkpt>
      <trkpt lat="49.19079" lon="-0.2246">
        <ele>14.5</ele>
        <time>2023-07-05T12:44:33Z</time>
      </trkpt>
      <trkpt lat="49.19082" lon="-0.22468">
        <ele>14.6</ele>
        <time>2023-07-05T12:44:34Z</time>
      </trkpt>
      <trkpt lat="49.19085" lon="-0.22475">
        <ele>14.8</ele>
        <time>2023-07-05T12:44:35Z</time>
      </trkpt>
      <trkpt lat="49.19088" lon="-0.22483">
        <ele>15</ele>
        <time>2023-07-05T12:44:36Z</time>
      </trkpt>
      <trkpt lat="49.1909" lon="-0.2249">
        <ele>15.1</ele>
        <time>2023-07-05T12:44:37Z</time>
      </trkpt>
      <trkpt lat="49.19093" lon="-0.22497">
        <ele>15.3</ele>
        <time>2023-07-05T12:44:38Z</time>
      </trkpt>
      <trkpt lat="49.19095" lon="-0.22505">
        <ele>15.4</ele>
        <time>2023-07-05T12:44:39Z</time>
      </trkpt>
      <trkpt lat="49.19097" lon="-0.22513">
        <ele>15.6</ele>
        <time>2023-07-05T12:44:40Z</time>
      </trkpt>
      <trkpt lat="49.19099" lon="-0.22521">
        <ele>15.7</ele>
        <time>2023-07-05T12:44:41Z</time>
      </trkpt>
      <trkpt lat="49.191" lon="-0.22528">
        <ele>15.7</ele>
        <time>2023-07-05T12:44:42Z</time>
      </trkpt>
      <trkpt lat="49.19102" lon="-0.22536">
        <ele>15.7</ele>
        <time>2023-07-05T12:44:43Z</time>
      </trkpt>
      <trkpt lat="49.19105" lon="-0.22544">
        <ele>15.8</ele>
        <time>2023-07-05T12:44:44Z</time>
      </trkpt>
      <trkpt lat="49.19108" lon="-0.22552">
        <ele>15.8</ele>
        <time>2023-07-05T12:44:45Z</time>
      </trkpt>
      <trkpt lat="49.1911" lon="-0.2256">
        <ele>15.9</ele>
        <time>2023-07-05T12:44:46Z</time>
      </trkpt>
      <trkpt lat="49.19113" lon="-0.22568">
        <ele>15.9</ele>
        <time>2023-07-05T12:44:47Z</time>
      </trkpt>
      <trkpt lat="49.19115" lon="-0.22576">
        <ele>16</ele>
        <time>2023-07-05T12:44:48Z</time>
      </trkpt>
      <trkpt lat="49.19117" lon="-0.22585">
        <ele>16</ele>
        <time>2023-07-05T12:44:49Z</time>
      </trkpt>
      <trkpt lat="49.1912" lon="-0.22593">
        <ele>16.1</ele>
        <time>2023-07-05T12:44:50Z</time>
      </trkpt>
      <trkpt lat="49.19122" lon="-0.22602">
        <ele>16.1</ele>
        <time>2023-07-05T12:44:51Z</time>
      </trkpt>
      <trkpt lat="49.19124" lon="-0.2261">
        <ele>16.2</ele>
        <time>2023-07-05T12:44:52Z</time>
      </trkpt>
      <trkpt lat="49.19127" lon="-0.22619">
        <ele>16.2</ele>
        <time>2023-07-05T12:44:53Z</time>
      </trkpt>
      <trkpt lat="49.19129" lon="-0.22628">
        <ele>16.3</ele>
        <time>2023-07-05T12:44:54Z</time>
      </trkpt>
      <trkpt lat="49.19132" lon="-0.22637">
        <ele>16.4</ele>
        <time>2023-07-05T12:44:55Z</time>
      </trkpt>
      <trkpt lat="49.19134" lon="-0.22646">
        <ele>16.5</ele>
        <time>2023-07-05T12:44:56Z</time>
      </trkpt>
      <trkpt lat="49.19137" lon="-0.22655">
        <ele>16.7</ele>
        <time>2023-07-05T12:44:57Z</time>
      </trkpt>
      <trkpt lat="49.19139" lon="-0.22664">
        <ele>16.8</ele>
        <time>2023-07-05T12:44:58Z</time>
      </trkpt>
      <trkpt lat="49.19142" lon="-0.22672">
        <ele>16.9</ele>
        <time>2023-07-05T12:44:59Z</time>
      </trkpt>
      <trkpt lat="49.19145" lon="-0.2268">
        <ele>17.1</ele>
        <time>2023-07-05T12:45:00Z</time>
      </trkpt>
      <trkpt lat="49.19148" lon="-0.22689">
        <ele>17.2</ele>
        <time>2023-07-05T12:45:01Z</time>
      </trkpt>
      <trkpt lat="49.19151" lon="-0.22697">
        <ele>17.4</ele>
        <time>2023-07-05T12:45:02Z</time>
      </trkpt>
      <trkpt lat="49.19154" lon="-0.22705">
        <ele>17.5</ele>
        <time>2023-07-05T12:45:03Z</time>
      </trkpt>
      <trkpt lat="49.19158" lon="-0.22713">
        <ele>17.7</ele>
        <time>2023-07-05T12:45:04Z</time>
      </trkpt>
      <trkpt lat="49.19162" lon="-0.2272">
        <ele>17.8</ele>
        <time>2023-07-05T12:45:05Z</time>
      </trkpt>
      <trkpt lat="49.19166" lon="-0.22727">
        <ele>18</ele>
        <time>2023-07-05T12:45:06Z</time>
      </trkpt>
      <trkpt lat="49.1917" lon="-0.22733">
        <ele>18.2</ele>
        <time>2023-07-05T12:45:07Z</time>
      </trkpt>
      <trkpt lat="49.19174" lon="-0.22739">
        <ele>18.5</ele>
        <time>2023-07-05T12:45:08Z</time>
      </trkpt>
      <trkpt lat="49.19179" lon="-0.22745">
        <ele>18.7</ele>
        <time>2023-07-05T12:45:09Z</time>
      </trkpt>
      <trkpt lat="49.19183" lon="-0.2275">
        <ele>18.9</ele>
        <time>2023-07-05T12:45:10Z</time>
      </trkpt>
      <trkpt lat="49.19188" lon="-0.22754">
        <ele>19.1</ele>
        <time>2023-07-05T12:45:11Z</time>
      </trkpt>
      <trkpt lat="49.19193" lon="-0.22758">
        <ele>19.2</ele>
        <time>2023-07-05T12:45:12Z</time>
      </trkpt>
      <trkpt lat="49.19199" lon="-0.22762">
        <ele>19.4</ele>
        <time>2023-07-05T12:45:13Z</time>
      </trkpt>
      <trkpt lat="49.19204" lon="-0.22766">
        <ele>19.6</ele>
        <time>2023-07-05T12:45:14Z</time>
      </trkpt>
      <trkpt lat="49.1921" lon="-0.2277">
        <ele>19.8</ele>
        <time>2023-07-05T12:45:15Z</time>
      </trkpt>
      <trkpt lat="49.19215" lon="-0.22774">
        <ele>20</ele>
        <time>2023-07-05T12:45:16Z</time>
      </trkpt>
      <trkpt lat="49.1922" lon="-0.22778">
        <ele>20.2</ele>
        <time>2023-07-05T12:45:17Z</time>
      </trkpt>
      <trkpt lat="49.19226" lon="-0.22782">
        <ele>20.4</ele>
        <time>2023-07-05T12:45:18Z</time>
      </trkpt>
      <trkpt lat="49.19231" lon="-0.22786">
        <ele>20.5</ele>
        <time>2023-07-05T12:45:19Z</time>
      </trkpt>
      <trkpt lat="49.19236" lon="-0.2279">
        <ele>20.7</ele>
        <time>2023-07-05T12:45:20Z</time>
      </trkpt>
      <trkpt lat="49.19241" lon="-0.22794">
        <ele>20.9</ele>
        <time>2023-07-05T12:45:21Z</time>
      </trkpt>
      <trkpt lat="49.19246" lon="-0.22798">
        <ele>21</ele>
        <time>2023-07-05T12:45:22Z</time>
      </trkpt>
      <trkpt lat="49.19251" lon="-0.22803">
        <ele>21.2</ele>
        <time>2023-07-05T12:45:23Z</time>
      </trkpt>
      <trkpt lat="49.19257" lon="-0.22808">
        <ele>21.4</ele>
        <time>2023-07-05T12:45:24Z</time>
      </trkpt>
      <trkpt lat="49.19262" lon="-0.22812">
        <ele>21.6</ele>
        <time>2023-07-05T12:45:25Z</time>
      </trkpt>
      <trkpt lat="49.19267" lon="-0.22817">
        <ele>21.8</ele>
        <time>2023-07-05T12:45:26Z</time>
      </trkpt>
      <trkpt lat="49.19272" lon="-0.22822">
        <ele>22</ele>
        <time>2023-07-05T12:45:27Z</time>
      </trkpt>
      <trkpt lat="49.19277" lon="-0.22828">
        <ele>22.2</ele>
        <time>2023-07-05T12:45:28Z</time>
      </trkpt>
      <trkpt lat="49.19283" lon="-0.22833">
        <ele>22.4</ele>
        <time>2023-07-05T12:45:29Z</time>
      </trkpt>
      <trkpt lat="49.19288" lon="-0.22839">
        <ele>22.6</ele>
        <time>2023-07-05T12:45:30Z</time>
      </trkpt>
      <trkpt lat="49.19292" lon="-0.22844">
        <ele>22.7</ele>
        <time>2023-07-05T12:45:31Z</time>
      </trkpt>
      <trkpt lat="49.19298" lon="-0.2285">
        <ele>22.9</ele>
        <time>2023-07-05T12:45:32Z</time>
      </trkpt>
      <trkpt lat="49.19303" lon="-0.22855">
        <ele>23</ele>
        <time>2023-07-05T12:45:33Z</time>
      </trkpt>
      <trkpt lat="49.19308" lon="-0.22861">
        <ele>23.2</ele>
        <time>2023-07-05T12:45:34Z</time>
      </trkpt>
      <trkpt lat="49.19313" lon="-0.22866">
        <ele>23.3</ele>
        <time>2023-07-05T12:45:35Z</time>
      </trkpt>
      <trkpt lat="49.19318" lon="-0.22872">
        <ele>23.4</ele>
        <time>2023-07-05T12:45:36Z</time>
      </trkpt>
      <trkpt lat="49.19323" lon="-0.22877">
        <ele>23.6</ele>
        <time>2023-07-05T12:45:37Z</time>
      </trkpt>
      <trkpt lat="49.19329" lon="-0.22882">
        <ele>23.7</ele>
        <time>2023-07-05T12:45:38Z</time>
      </trkpt>
      <trkpt lat="49.19334" lon="-0.22888">
        <ele>23.9</ele>
        <time>2023-07-05T12:45:39Z</time>
      </trkpt>
      <trkpt lat="49.19339" lon="-0.22893">
        <ele>24</ele>
        <time>2023-07-05T12:45:40Z</time>
      </trkpt>
      <trkpt lat="49.19344" lon="-0.22899">
        <ele>24.2</ele>
        <time>2023-07-05T12:45:41Z</time>
      </trkpt>
      <trkpt lat="49.19349" lon="-0.22905">
        <ele>24.3</ele>
        <time>2023-07-05T12:45:42Z</time>
      </trkpt>
      <trkpt lat="49.19354" lon="-0.22911">
        <ele>24.5</ele>
        <time>2023-07-05T12:45:43Z</time>
      </trkpt>
      <trkpt lat="49.19359" lon="-0.22917">
        <ele>24.6</ele>
        <time>2023-07-05T12:45:44Z</time>
      </trkpt>
      <trkpt lat="49.19364" lon="-0.22922">
        <ele>24.7</ele>
        <time>2023-07-05T12:45:45Z</time>
      </trkpt>
      <trkpt lat="49.19369" lon="-0.22927">
        <ele>24.9</ele>
        <time>2023-07-05T12:45:46Z</time>
      </trkpt>
      <trkpt lat="49.19374" lon="-0.22933">
        <ele>25</ele>
        <time>2023-07-05T12:45:47Z</time>
      </trkpt>
      <trkpt lat="49.19379" lon="-0.22938">
        <ele>25.1</ele>
        <time>2023-07-05T12:45:48Z</time>
      </trkpt>
      <trkpt lat="49.19384" lon="-0.22944">
        <ele>25.3</ele>
        <time>2023-07-05T12:45:49Z</time>
      </trkpt>
      <trkpt lat="49.19389" lon="-0.2295">
        <ele>25.5</ele>
        <time>2023-07-05T12:45:50Z</time>
      </trkpt>
      <trkpt lat="49.19393" lon="-0.22955">
        <ele>25.6</ele>
        <time>2023-07-05T12:45:51Z</time>
      </trkpt>
      <trkpt lat="49.19398" lon="-0.22961">
        <ele>25.8</ele>
        <time>2023-07-05T12:45:52Z</time>
      </trkpt>
      <trkpt lat="49.19403" lon="-0.22966">
        <ele>26</ele>
        <time>2023-07-05T12:45:53Z</time>
      </trkpt>
      <trkpt lat="49.19408" lon="-0.22972">
        <ele>26.2</ele>
        <time>2023-07-05T12:45:54Z</time>
      </trkpt>
      <trkpt lat="49.19413" lon="-0.22977">
        <ele>26.4</ele>
        <time>2023-07-05T12:45:55Z</time>
      </trkpt>
      <trkpt lat="49.19418" lon="-0.22982">
        <ele>26.5</ele>
        <time>2023-07-05T12:45:56Z</time>
      </trkpt>
      <trkpt lat="49.19423" lon="-0.22988">
        <ele>26.7</ele>
        <time>2023-07-05T12:45:57Z</time>
      </trkpt>
      <trkpt lat="49.19428" lon="-0.22994">
        <ele>26.9</ele>
        <time>2023-07-05T12:45:58Z</time>
      </trkpt>
      <trkpt lat="49.19433" lon="-0.22999">
        <ele>27</ele>
        <time>2023-07-05T12:45:59Z</time>
      </trkpt>
      <trkpt lat="49.19439" lon="-0.23004">
        <ele>27.2</ele>
        <time>2023-07-05T12:46:00Z</time>
      </trkpt>
      <trkpt lat="49.19444" lon="-0.23009">
        <ele>27.3</ele>
        <time>2023-07-05T12:46:01Z</time>
      </trkpt>
      <trkpt lat="49.19449" lon="-0.23014">
        <ele>27.4</ele>
        <time>2023-07-05T12:46:02Z</time>
      </trkpt>
      <trkpt lat="49.19455" lon="-0.23019">
        <ele>27.5</ele>
        <time>2023-07-05T12:46:03Z</time>
      </trkpt>
      <trkpt lat="49.1946" lon="-0.23023">
        <ele>27.7</ele>
        <time>2023-07-05T12:46:04Z</time>
      </trkpt>
      <trkpt lat="49.19466" lon="-0.23028">
        <ele>27.8</ele>
        <time>2023-07-05T12:46:05Z</time>
      </trkpt>
      <trkpt lat="49.19471" lon="-0.23033">
        <ele>27.8</ele>
        <time>2023-07-05T12:46:06Z</time>
      </trkpt>
      <trkpt lat="49.19476" lon="-0.23038">
        <ele>27.9</ele>
        <time>2023-07-05T12:46:07Z</time>
      </trkpt>
      <trkpt lat="49.19481" lon="-0.23043">
        <ele>28</ele>
        <time>2023-07-05T12:46:08Z</time>
      </trkpt>
      <trkpt lat="49.19487" lon="-0.23048">
        <ele>28.1</ele>
        <time>2023-07-05T12:46:09Z</time>
      </trkpt>
      <trkpt lat="49.19493" lon="-0.23053">
        <ele>28.1</ele>
        <time>2023-07-05T12:46:10Z</time>
      </trkpt>
      <trkpt lat="49.19498" lon="-0.23058">
        <ele>28.2</ele>
        <time>2023-07-05T12:46:11Z</time>
      </trkpt>
      <trkpt lat="49.19504" lon="-0.23063">
        <ele>28.2</ele>
        <time>2023-07-05T12:46:12Z</time>
      </trkpt>
      <trkpt lat="49.1951" lon="-0.23069">
        <ele>28.3</ele>
        <time>2023-07-05T12:46:13Z</time>
      </trkpt>
      <trkpt lat="49.19515" lon="-0.23074">
        <ele>28.3</ele>
        <time>2023-07-05T12:46:14Z</time>
      </trkpt>
      <trkpt lat="49.19521" lon="-0.23079">
        <ele>28.3</ele>
        <time>2023-07-05T12:46:15Z</time>
      </trkpt>
      <trkpt lat="49.19526" lon="-0.23083">
        <ele>28.3</ele>
        <time>2023-07-05T12:46:16Z</time>
      </trkpt>
      <trkpt lat="49.19532" lon="-0.23088">
        <ele>28.3</ele>
        <time>2023-07-05T12:46:17Z</time>
      </trkpt>
      <trkpt lat="49.19537" lon="-0.23093">
        <ele>28.3</ele>
        <time>2023-07-05T12:46:18Z</time>
      </trkpt>
      <trkpt lat="49.19543" lon="-0.23099">
        <ele>28.2</ele>
        <time>2023-07-05T12:46:19Z</time>
      </trkpt>
      <trkpt lat="49.19549" lon="-0.23104">
        <ele>28.2</ele>
        <time>2023-07-05T12:46:20Z</time>
      </trkpt>
      <trkpt lat="49.19555" lon="-0.23109">
        <ele>28.2</ele>
        <time>2023-07-05T12:46:21Z</time>
      </trkpt>
      <trkpt lat="49.19561" lon="-0.23114">
        <ele>28.1</ele>
        <time>2023-07-05T12:46:22Z</time>
      </trkpt>
      <trkpt lat="49.19567" lon="-0.23119">
        <ele>28.1</ele>
        <time>2023-07-05T12:46:23Z</time>
      </trkpt>
      <trkpt lat="49.19573" lon="-0.23124">
        <ele>28.1</ele>
        <time>2023-07-05T12:46:24Z</time>
      </trkpt>
      <trkpt lat="49.19579" lon="-0.23129">
        <ele>28</ele>
        <time>2023-07-05T12:46:25Z</time>
      </trkpt>
      <trkpt lat="49.19585" lon="-0.23134">
        <ele>28</ele>
        <time>2023-07-05T12:46:26Z</time>
      </trkpt>
      <trkpt lat="49.19592" lon="-0.23139">
        <ele>28</ele>
        <time>2023-07-05T12:46:27Z</time>
      </trkpt>
      <trkpt lat="49.19598" lon="-0.23143">
        <ele>28</ele>
        <time>2023-07-05T12:46:28Z</time>
      </trkpt>
      <trkpt lat="49.19604" lon="-0.23147">
        <ele>28</ele>
        <time>2023-07-05T12:46:29Z</time>
      </trkpt>
      <trkpt lat="49.19611" lon="-0.23151">
        <ele>28</ele>
        <time>2023-07-05T12:46:30Z</time>
      </trkpt>
      <trkpt lat="49.19617" lon="-0.23155">
        <ele>27.9</ele>
        <time>2023-07-05T12:46:31Z</time>
      </trkpt>
      <trkpt lat="49.19624" lon="-0.2316">
        <ele>27.9</ele>
        <time>2023-07-05T12:46:32Z</time>
      </trkpt>
      <trkpt lat="49.1963" lon="-0.23163">
        <ele>27.9</ele>
        <time>2023-07-05T12:46:33Z</time>
      </trkpt>
      <trkpt lat="49.19637" lon="-0.23167">
        <ele>28</ele>
        <time>2023-07-05T12:46:34Z</time>
      </trkpt>
      <trkpt lat="49.19644" lon="-0.23171">
        <ele>28</ele>
        <time>2023-07-05T12:46:35Z</time>
      </trkpt>
      <trkpt lat="49.1965" lon="-0.23175">
        <ele>28.1</ele>
        <time>2023-07-05T12:46:36Z</time>
      </trkpt>
      <trkpt lat="49.19657" lon="-0.23178">
        <ele>28.1</ele>
        <time>2023-07-05T12:46:37Z</time>
      </trkpt>
      <trkpt lat="49.19663" lon="-0.23182">
        <ele>28.2</ele>
        <time>2023-07-05T12:46:38Z</time>
      </trkpt>
      <trkpt lat="49.1967" lon="-0.23185">
        <ele>28.2</ele>
        <time>2023-07-05T12:46:39Z</time>
      </trkpt>
      <trkpt lat="49.19676" lon="-0.23189">
        <ele>28.3</ele>
        <time>2023-07-05T12:46:40Z</time>
      </trkpt>
      <trkpt lat="49.19683" lon="-0.23192">
        <ele>28.3</ele>
        <time>2023-07-05T12:46:41Z</time>
      </trkpt>
      <trkpt lat="49.19689" lon="-0.23196">
        <ele>28.4</ele>
        <time>2023-07-05T12:46:42Z</time>
      </trkpt>
      <trkpt lat="49.19696" lon="-0.23199">
        <ele>28.4</ele>
        <time>2023-07-05T12:46:43Z</time>
      </trkpt>
      <trkpt lat="49.19702" lon="-0.23202">
        <ele>28.5</ele>
        <time>2023-07-05T12:46:44Z</time>
      </trkpt>
      <trkpt lat="49.19709" lon="-0.23206">
        <ele>28.6</ele>
        <time>2023-07-05T12:46:45Z</time>
      </trkpt>
      <trkpt lat="49.19715" lon="-0.23209">
        <ele>28.7</ele>
        <time>2023-07-05T12:46:46Z</time>
      </trkpt>
      <trkpt lat="49.19722" lon="-0.23213">
        <ele>28.8</ele>
        <time>2023-07-05T12:46:47Z</time>
      </trkpt>
      <trkpt lat="49.19729" lon="-0.23216">
        <ele>28.9</ele>
        <time>2023-07-05T12:46:48Z</time>
      </trkpt>
      <trkpt lat="49.19735" lon="-0.2322">
        <ele>29</ele>
        <time>2023-07-05T12:46:49Z</time>
      </trkpt>
      <trkpt lat="49.19742" lon="-0.23224">
        <ele>29.1</ele>
        <time>2023-07-05T12:46:50Z</time>
      </trkpt>
      <trkpt lat="49.19748" lon="-0.23228">
        <ele>29.2</ele>
        <time>2023-07-05T12:46:51Z</time>
      </trkpt>
      <trkpt lat="49.19755" lon="-0.23232">
        <ele>29.2</ele>
        <time>2023-07-05T12:46:52Z</time>
      </trkpt>
      <trkpt lat="49.19761" lon="-0.23237">
        <ele>29.3</ele>
        <time>2023-07-05T12:46:53Z</time>
      </trkpt>
      <trkpt lat="49.19767" lon="-0.23241">
        <ele>29.4</ele>
        <time>2023-07-05T12:46:54Z</time>
      </trkpt>
      <trkpt lat="49.19774" lon="-0.23245">
        <ele>29.5</ele>
        <time>2023-07-05T12:46:55Z</time>
      </trkpt>
      <trkpt lat="49.1978" lon="-0.23249">
        <ele>29.6</ele>
        <time>2023-07-05T12:46:56Z</time>
      </trkpt>
      <trkpt lat="49.19786" lon="-0.23253">
        <ele>29.6</ele>
        <time>2023-07-05T12:46:57Z</time>
      </trkpt>
      <trkpt lat="49.19792" lon="-0.23257">
        <ele>29.7</ele>
        <time>2023-07-05T12:46:58Z</time>
      </trkpt>
      <trkpt lat="49.19799" lon="-0.23261">
        <ele>29.8</ele>
        <time>2023-07-05T12:46:59Z</time>
      </trkpt>
      <trkpt lat="49.19805" lon="-0.23265">
        <ele>29.9</ele>
        <time>2023-07-05T12:47:00Z</time>
      </trkpt>
      <trkpt lat="49.19812" lon="-0.2327">
        <ele>30</ele>
        <time>2023-07-05T12:47:01Z</time>
      </trkpt>
      <trkpt lat="49.19818" lon="-0.23274">
        <ele>30</ele>
        <time>2023-07-05T12:47:02Z</time>
      </trkpt>
      <trkpt lat="49.19824" lon="-0.23279">
        <ele>30.1</ele>
        <time>2023-07-05T12:47:03Z</time>
      </trkpt>
      <trkpt lat="49.1983" lon="-0.23284">
        <ele>30.2</ele>
        <time>2023-07-05T12:47:04Z</time>
      </trkpt>
      <trkpt lat="49.19837" lon="-0.23289">
        <ele>30.3</ele>
        <time>2023-07-05T12:47:05Z</time>
      </trkpt>
      <trkpt lat="49.19843" lon="-0.23294">
        <ele>30.4</ele>
        <time>2023-07-05T12:47:06Z</time>
      </trkpt>
      <trkpt lat="49.19849" lon="-0.23298">
        <ele>30.4</ele>
        <time>2023-07-05T12:47:07Z</time>
      </trkpt>
      <trkpt lat="49.19855" lon="-0.23303">
        <ele>30.5</ele>
        <time>2023-07-05T12:47:08Z</time>
      </trkpt>
      <trkpt lat="49.19861" lon="-0.23308">
        <ele>30.6</ele>
        <time>2023-07-05T12:47:09Z</time>
      </trkpt>
      <trkpt lat="49.19867" lon="-0.23313">
        <ele>30.7</ele>
        <time>2023-07-05T12:47:10Z</time>
      </trkpt>
      <trkpt lat="49.19873" lon="-0.23318">
        <ele>30.7</ele>
        <time>2023-07-05T12:47:11Z</time>
      </trkpt>
      <trkpt lat="49.19879" lon="-0.23323">
        <ele>30.7</ele>
        <time>2023-07-05T12:47:12Z</time>
      </trkpt>
      <trkpt lat="49.19886" lon="-0.23329">
        <ele>30.8</ele>
        <time>2023-07-05T12:47:13Z</time>
      </trkpt>
      <trkpt lat="49.19892" lon="-0.23334">
        <ele>30.9</ele>
        <time>2023-07-05T12:47:14Z</time>
      </trkpt>
      <trkpt lat="49.19899" lon="-0.2334">
        <ele>30.9</ele>
        <time>2023-07-05T12:47:15Z</time>
      </trkpt>
      <trkpt lat="49.19905" lon="-0.23345">
        <ele>31</ele>
        <time>2023-07-05T12:47:16Z</time>
      </trkpt>
      <trkpt lat="49.19911" lon="-0.23349">
        <ele>31</ele>
        <time>2023-07-05T12:47:17Z</time>
      </trkpt>
      <trkpt lat="49.19918" lon="-0.23354">
        <ele>31.1</ele>
        <time>2023-07-05T12:47:18Z</time>
      </trkpt>
      <trkpt lat="49.19924" lon="-0.23359">
        <ele>31.1</ele>
        <time>2023-07-05T12:47:19Z</time>
      </trkpt>
      <trkpt lat="49.1993" lon="-0.23365">
        <ele>31.2</ele>
        <time>2023-07-05T12:47:20Z</time>
      </trkpt>
      <trkpt lat="49.19937" lon="-0.2337">
        <ele>31.2</ele>
        <time>2023-07-05T12:47:21Z</time>
      </trkpt>
      <trkpt lat="49.19943" lon="-0.23374">
        <ele>31.2</ele>
        <time>2023-07-05T12:47:22Z</time>
      </trkpt>
      <trkpt lat="49.19949" lon="-0.23378">
        <ele>31.3</ele>
        <time>2023-07-05T12:47:23Z</time>
      </trkpt>
      <trkpt lat="49.19955" lon="-0.23383">
        <ele>31.3</ele>
        <time>2023-07-05T12:47:24Z</time>
      </trkpt>
      <trkpt lat="49.19961" lon="-0.23387">
        <ele>31.3</ele>
        <time>2023-07-05T12:47:25Z</time>
      </trkpt>
      <trkpt lat="49.19968" lon="-0.23391">
        <ele>31.4</ele>
        <time>2023-07-05T12:47:26Z</time>
      </trkpt>
      <trkpt lat="49.19975" lon="-0.23395">
        <ele>31.4</ele>
        <time>2023-07-05T12:47:27Z</time>
      </trkpt>
      <trkpt lat="49.19981" lon="-0.23399">
        <ele>31.5</ele>
        <time>2023-07-05T12:47:28Z</time>
      </trkpt>
      <trkpt lat="49.19988" lon="-0.23402">
        <ele>31.5</ele>
        <time>2023-07-05T12:47:29Z</time>
      </trkpt>
      <trkpt lat="49.19995" lon="-0.23406">
        <ele>31.6</ele>
        <time>2023-07-05T12:47:30Z</time>
      </trkpt>
      <trkpt lat="49.20001" lon="-0.23409">
        <ele>31.7</ele>
        <time>2023-07-05T12:47:31Z</time>
      </trkpt>
      <trkpt lat="49.20008" lon="-0.23412">
        <ele>31.8</ele>
        <time>2023-07-05T12:47:32Z</time>
      </trkpt>
      <trkpt lat="49.20014" lon="-0.23415">
        <ele>31.8</ele>
        <time>2023-07-05T12:47:33Z</time>
      </trkpt>
      <trkpt lat="49.20021" lon="-0.23418">
        <ele>31.9</ele>
        <time>2023-07-05T12:47:34Z</time>
      </trkpt>
      <trkpt lat="49.20027" lon="-0.23421">
        <ele>31.9</ele>
        <time>2023-07-05T12:47:35Z</time>
      </trkpt>
      <trkpt lat="49.20034" lon="-0.23423">
        <ele>31.9</ele>
        <time>2023-07-05T12:47:36Z</time>
      </trkpt>
      <trkpt lat="49.2004" lon="-0.23426">
        <ele>32</ele>
        <time>2023-07-05T12:47:37Z</time>
      </trkpt>
      <trkpt lat="49.20047" lon="-0.23428">
        <ele>32</ele>
        <time>2023-07-05T12:47:38Z</time>
      </trkpt>
      <trkpt lat="49.20054" lon="-0.2343">
        <ele>32.1</ele>
        <time>2023-07-05T12:47:39Z</time>
      </trkpt>
      <trkpt lat="49.2006" lon="-0.23432">
        <ele>32.1</ele>
        <time>2023-07-05T12:47:40Z</time>
      </trkpt>
      <trkpt lat="49.20067" lon="-0.23434">
        <ele>32.2</ele>
        <time>2023-07-05T12:47:41Z</time>
      </trkpt>
      <trkpt lat="49.20074" lon="-0.23436">
        <ele>32.2</ele>
        <time>2023-07-05T12:47:42Z</time>
      </trkpt>
      <trkpt lat="49.20081" lon="-0.23438">
        <ele>32.3</ele>
        <time>2023-07-05T12:47:43Z</time>
      </trkpt>
      <trkpt lat="49.20088" lon="-0.2344">
        <ele>32.4</ele>
        <time>2023-07-05T12:47:44Z</time>
      </trkpt>
      <trkpt lat="49.20095" lon="-0.23442">
        <ele>32.4</ele>
        <time>2023-07-05T12:47:45Z</time>
      </trkpt>
      <trkpt lat="49.20101" lon="-0.23444">
        <ele>32.5</ele>
        <time>2023-07-05T12:47:46Z</time>
      </trkpt>
      <trkpt lat="49.20108" lon="-0.23446">
        <ele>32.6</ele>
        <time>2023-07-05T12:47:47Z</time>
      </trkpt>
      <trkpt lat="49.20115" lon="-0.23448">
        <ele>32.6</ele>
        <time>2023-07-05T12:47:48Z</time>
      </trkpt>
      <trkpt lat="49.20122" lon="-0.2345">
        <ele>32.7</ele>
        <time>2023-07-05T12:47:49Z</time>
      </trkpt>
      <trkpt lat="49.20129" lon="-0.23452">
        <ele>32.7</ele>
        <time>2023-07-05T12:47:50Z</time>
      </trkpt>
      <trkpt lat="49.20136" lon="-0.23453">
        <ele>32.8</ele>
        <time>2023-07-05T12:47:51Z</time>
      </trkpt>
      <trkpt lat="49.20143" lon="-0.23456">
        <ele>32.8</ele>
        <time>2023-07-05T12:47:52Z</time>
      </trkpt>
      <trkpt lat="49.2015" lon="-0.23458">
        <ele>32.9</ele>
        <time>2023-07-05T12:47:53Z</time>
      </trkpt>
      <trkpt lat="49.20156" lon="-0.2346">
        <ele>33</ele>
        <time>2023-07-05T12:47:54Z</time>
      </trkpt>
      <trkpt lat="49.20163" lon="-0.23463">
        <ele>33</ele>
        <time>2023-07-05T12:47:55Z</time>
      </trkpt>
      <trkpt lat="49.2017" lon="-0.23466">
        <ele>33.1</ele>
        <time>2023-07-05T12:47:56Z</time>
      </trkpt>
      <trkpt lat="49.20176" lon="-0.2347">
        <ele>33.1</ele>
        <time>2023-07-05T12:47:57Z</time>
      </trkpt>
      <trkpt lat="49.20182" lon="-0.23475">
        <ele>33.1</ele>
        <time>2023-07-05T12:47:58Z</time>
      </trkpt>
      <trkpt lat="49.20188" lon="-0.23481">
        <ele>33.1</ele>
        <time>2023-07-05T12:47:59Z</time>
      </trkpt>
      <trkpt lat="49.20194" lon="-0.23486">
        <ele>33.1</ele>
        <time>2023-07-05T12:48:00Z</time>
      </trkpt>
      <trkpt lat="49.20199" lon="-0.23493">
        <ele>33.1</ele>
        <time>2023-07-05T12:48:01Z</time>
      </trkpt>
      <trkpt lat="49.20204" lon="-0.23499">
        <ele>33.1</ele>
        <time>2023-07-05T12:48:02Z</time>
      </trkpt>
      <trkpt lat="49.2021" lon="-0.23506">
        <ele>33.1</ele>
        <time>2023-07-05T12:48:03Z</time>
      </trkpt>
      <trkpt lat="49.20216" lon="-0.23512">
        <ele>33.1</ele>
        <time>2023-07-05T12:48:04Z</time>
      </trkpt>
      <trkpt lat="49.20221" lon="-0.23518">
        <ele>33.1</ele>
        <time>2023-07-05T12:48:05Z</time>
      </trkpt>
      <trkpt lat="49.20226" lon="-0.23524">
        <ele>33.1</ele>
        <time>2023-07-05T12:48:06Z</time>
      </trkpt>
      <trkpt lat="49.20232" lon="-0.2353">
        <ele>33.1</ele>
        <time>2023-07-05T12:48:07Z</time>
      </trkpt>
      <trkpt lat="49.20237" lon="-0.23536">
        <ele>33.1</ele>
        <time>2023-07-05T12:48:08Z</time>
      </trkpt>
      <trkpt lat="49.20242" lon="-0.23542">
        <ele>33.1</ele>
        <time>2023-07-05T12:48:09Z</time>
      </trkpt>
      <trkpt lat="49.20248" lon="-0.23549">
        <ele>33.1</ele>
        <time>2023-07-05T12:48:10Z</time>
      </trkpt>
      <trkpt lat="49.20253" lon="-0.23555">
        <ele>33.1</ele>
        <time>2023-07-05T12:48:11Z</time>
      </trkpt>
      <trkpt lat="49.20258" lon="-0.23561">
        <ele>33.1</ele>
        <time>2023-07-05T12:48:12Z</time>
      </trkpt>
      <trkpt lat="49.20263" lon="-0.23567">
        <ele>33.1</ele>
        <time>2023-07-05T12:48:13Z</time>
      </trkpt>
      <trkpt lat="49.20269" lon="-0.23574">
        <ele>33</ele>
        <time>2023-07-05T12:48:14Z</time>
      </trkpt>
      <trkpt lat="49.20274" lon="-0.2358">
        <ele>33</ele>
        <time>2023-07-05T12:48:15Z</time>
      </trkpt>
      <trkpt lat="49.20279" lon="-0.23586">
        <ele>33</ele>
        <time>2023-07-05T12:48:16Z</time>
      </trkpt>
      <trkpt lat="49.20285" lon="-0.23593">
        <ele>32.9</ele>
        <time>2023-07-05T12:48:17Z</time>
      </trkpt>
      <trkpt lat="49.2029" lon="-0.23599">
        <ele>32.9</ele>
        <time>2023-07-05T12:48:18Z</time>
      </trkpt>
      <trkpt lat="49.20296" lon="-0.23605">
        <ele>32.8</ele>
        <time>2023-07-05T12:48:19Z</time>
      </trkpt>
      <trkpt lat="49.20301" lon="-0.23611">
        <ele>32.8</ele>
        <time>2023-07-05T12:48:20Z</time>
      </trkpt>
      <trkpt lat="49.20307" lon="-0.23617">
        <ele>32.7</ele>
        <time>2023-07-05T12:48:21Z</time>
      </trkpt>
      <trkpt lat="49.20312" lon="-0.23623">
        <ele>32.7</ele>
        <time>2023-07-05T12:48:22Z</time>
      </trkpt>
      <trkpt lat="49.20317" lon="-0.23629">
        <ele>32.6</ele>
        <time>2023-07-05T12:48:23Z</time>
      </trkpt>
      <trkpt lat="49.20322" lon="-0.23635">
        <ele>32.5</ele>
        <time>2023-07-05T12:48:24Z</time>
      </trkpt>
      <trkpt lat="49.20327" lon="-0.23641">
        <ele>32.4</ele>
        <time>2023-07-05T12:48:25Z</time>
      </trkpt>
      <trkpt lat="49.20333" lon="-0.23646">
        <ele>32.4</ele>
        <time>2023-07-05T12:48:26Z</time>
      </trkpt>
      <trkpt lat="49.20339" lon="-0.23653">
        <ele>32.3</ele>
        <time>2023-07-05T12:48:27Z</time>
      </trkpt>
      <trkpt lat="49.20344" lon="-0.23659">
        <ele>32.2</ele>
        <time>2023-07-05T12:48:28Z</time>
      </trkpt>
      <trkpt lat="49.2035" lon="-0.23666">
        <ele>32.1</ele>
        <time>2023-07-05T12:48:29Z</time>
      </trkpt>
      <trkpt lat="49.20356" lon="-0.23672">
        <ele>32</ele>
        <time>2023-07-05T12:48:30Z</time>
      </trkpt>
      <trkpt lat="49.20361" lon="-0.23679">
        <ele>31.8</ele>
        <time>2023-07-05T12:48:31Z</time>
      </trkpt>
      <trkpt lat="49.20367" lon="-0.23685">
        <ele>31.7</ele>
        <time>2023-07-05T12:48:32Z</time>
      </trkpt>
      <trkpt lat="49.20373" lon="-0.23692">
        <ele>31.6</ele>
        <time>2023-07-05T12:48:33Z</time>
      </trkpt>
      <trkpt lat="49.20379" lon="-0.23698">
        <ele>31.5</ele>
        <time>2023-07-05T12:48:34Z</time>
      </trkpt>
      <trkpt lat="49.20384" lon="-0.23704">
        <ele>31.4</ele>
        <time>2023-07-05T12:48:35Z</time>
      </trkpt>
      <trkpt lat="49.2039" lon="-0.23711">
        <ele>31.3</ele>
        <time>2023-07-05T12:48:36Z</time>
      </trkpt>
      <trkpt lat="49.20395" lon="-0.23717">
        <ele>31.2</ele>
        <time>2023-07-05T12:48:37Z</time>
      </trkpt>
      <trkpt lat="49.20401" lon="-0.23723">
        <ele>31</ele>
        <time>2023-07-05T12:48:38Z</time>
      </trkpt>
      <trkpt lat="49.20406" lon="-0.23729">
        <ele>30.9</ele>
        <time>2023-07-05T12:48:39Z</time>
      </trkpt>
      <trkpt lat="49.20412" lon="-0.23735">
        <ele>30.8</ele>
        <time>2023-07-05T12:48:40Z</time>
      </trkpt>
      <trkpt lat="49.20417" lon="-0.2374">
        <ele>30.7</ele>
        <time>2023-07-05T12:48:41Z</time>
      </trkpt>
      <trkpt lat="49.20422" lon="-0.23746">
        <ele>30.5</ele>
        <time>2023-07-05T12:48:42Z</time>
      </trkpt>
      <trkpt lat="49.20428" lon="-0.23752">
        <ele>30.4</ele>
        <time>2023-07-05T12:48:43Z</time>
      </trkpt>
      <trkpt lat="49.20433" lon="-0.23758">
        <ele>30.3</ele>
        <time>2023-07-05T12:48:44Z</time>
      </trkpt>
      <trkpt lat="49.20439" lon="-0.23764">
        <ele>30.1</ele>
        <time>2023-07-05T12:48:45Z</time>
      </trkpt>
      <trkpt lat="49.20444" lon="-0.2377">
        <ele>30</ele>
        <time>2023-07-05T12:48:46Z</time>
      </trkpt>
      <trkpt lat="49.20449" lon="-0.23776">
        <ele>29.8</ele>
        <time>2023-07-05T12:48:47Z</time>
      </trkpt>
      <trkpt lat="49.20455" lon="-0.23783">
        <ele>29.7</ele>
        <time>2023-07-05T12:48:48Z</time>
      </trkpt>
      <trkpt lat="49.2046" lon="-0.23788">
        <ele>29.5</ele>
        <time>2023-07-05T12:48:49Z</time>
      </trkpt>
      <trkpt lat="49.20465" lon="-0.23794">
        <ele>29.3</ele>
        <time>2023-07-05T12:48:50Z</time>
      </trkpt>
      <trkpt lat="49.20471" lon="-0.238">
        <ele>29.1</ele>
        <time>2023-07-05T12:48:51Z</time>
      </trkpt>
      <trkpt lat="49.20476" lon="-0.23806">
        <ele>29</ele>
        <time>2023-07-05T12:48:52Z</time>
      </trkpt>
      <trkpt lat="49.20482" lon="-0.23812">
        <ele>28.8</ele>
        <time>2023-07-05T12:48:53Z</time>
      </trkpt>
      <trkpt lat="49.20487" lon="-0.23818">
        <ele>28.6</ele>
        <time>2023-07-05T12:48:54Z</time>
      </trkpt>
      <trkpt lat="49.20492" lon="-0.23824">
        <ele>28.4</ele>
        <time>2023-07-05T12:48:55Z</time>
      </trkpt>
      <trkpt lat="49.20497" lon="-0.2383">
        <ele>28.2</ele>
        <time>2023-07-05T12:48:56Z</time>
      </trkpt>
      <trkpt lat="49.20503" lon="-0.23837">
        <ele>28</ele>
        <time>2023-07-05T12:48:57Z</time>
      </trkpt>
      <trkpt lat="49.20508" lon="-0.23843">
        <ele>27.8</ele>
        <time>2023-07-05T12:48:58Z</time>
      </trkpt>
      <trkpt lat="49.20514" lon="-0.2385">
        <ele>27.6</ele>
        <time>2023-07-05T12:48:59Z</time>
      </trkpt>
      <trkpt lat="49.2052" lon="-0.23856">
        <ele>27.3</ele>
        <time>2023-07-05T12:49:00Z</time>
      </trkpt>
      <trkpt lat="49.20526" lon="-0.23863">
        <ele>27.1</ele>
        <time>2023-07-05T12:49:01Z</time>
      </trkpt>
      <trkpt lat="49.20532" lon="-0.23869">
        <ele>27</ele>
        <time>2023-07-05T12:49:02Z</time>
      </trkpt>
      <trkpt lat="49.20537" lon="-0.23874">
        <ele>26.9</ele>
        <time>2023-07-05T12:49:03Z</time>
      </trkpt>
      <trkpt lat="49.20542" lon="-0.23879">
        <ele>26.8</ele>
        <time>2023-07-05T12:49:04Z</time>
      </trkpt>
      <trkpt lat="49.20546" lon="-0.23882">
        <ele>26.8</ele>
        <time>2023-07-05T12:49:05Z</time>
      </trkpt>
      <trkpt lat="49.20549" lon="-0.23885">
        <ele>26.7</ele>
        <time>2023-07-05T12:49:06Z</time>
      </trkpt>
      <trkpt lat="49.20552" lon="-0.23887">
        <ele>26.7</ele>
        <time>2023-07-05T12:49:07Z</time>
      </trkpt>
      <trkpt lat="49.20555" lon="-0.2389">
        <ele>26.7</ele>
        <time>2023-07-05T12:49:08Z</time>
      </trkpt>
      <trkpt lat="49.20555" lon="-0.23891">
        <ele>26.7</ele>
        <time>2023-07-05T12:49:09Z</time>
      </trkpt>
      <trkpt lat="49.20557" lon="-0.23896">
        <ele>26.6</ele>
        <time>2023-07-05T12:49:10Z</time>
      </trkpt>
      <trkpt lat="49.20558" lon="-0.23899">
        <ele>26.6</ele>
        <time>2023-07-05T12:49:11Z</time>
      </trkpt>
      <trkpt lat="49.20557" lon="-0.23904">
        <ele>26.5</ele>
        <time>2023-07-05T12:49:12Z</time>
      </trkpt>
      <trkpt lat="49.20555" lon="-0.23911">
        <ele>26.4</ele>
        <time>2023-07-05T12:49:13Z</time>
      </trkpt>
      <trkpt lat="49.20553" lon="-0.23918">
        <ele>26.4</ele>
        <time>2023-07-05T12:49:14Z</time>
      </trkpt>
      <trkpt lat="49.20549" lon="-0.23924">
        <ele>26.3</ele>
        <time>2023-07-05T12:49:15Z</time>
      </trkpt>
      <trkpt lat="49.20546" lon="-0.2393">
        <ele>26.3</ele>
        <time>2023-07-05T12:49:16Z</time>
      </trkpt>
      <trkpt lat="49.20542" lon="-0.23937">
        <ele>26.3</ele>
        <time>2023-07-05T12:49:17Z</time>
      </trkpt>
      <trkpt lat="49.20538" lon="-0.23944">
        <ele>26.3</ele>
        <time>2023-07-05T12:49:18Z</time>
      </trkpt>
      <trkpt lat="49.20534" lon="-0.23951">
        <ele>26.3</ele>
        <time>2023-07-05T12:49:19Z</time>
      </trkpt>
      <trkpt lat="49.20529" lon="-0.23959">
        <ele>26.3</ele>
        <time>2023-07-05T12:49:20Z</time>
      </trkpt>
      <trkpt lat="49.20525" lon="-0.23967">
        <ele>26.3</ele>
        <time>2023-07-05T12:49:21Z</time>
      </trkpt>
      <trkpt lat="49.20521" lon="-0.23975">
        <ele>26.3</ele>
        <time>2023-07-05T12:49:22Z</time>
      </trkpt>
      <trkpt lat="49.20517" lon="-0.23984">
        <ele>26.3</ele>
        <time>2023-07-05T12:49:23Z</time>
      </trkpt>
      <trkpt lat="49.20512" lon="-0.23993">
        <ele>26.4</ele>
        <time>2023-07-05T12:49:24Z</time>
      </trkpt>
      <trkpt lat="49.20508" lon="-0.24001">
        <ele>26.4</ele>
        <time>2023-07-05T12:49:25Z</time>
      </trkpt>
      <trkpt lat="49.20503" lon="-0.2401">
        <ele>26.5</ele>
        <time>2023-07-05T12:49:26Z</time>
      </trkpt>
      <trkpt lat="49.20499" lon="-0.24018">
        <ele>26.6</ele>
        <time>2023-07-05T12:49:27Z</time>
      </trkpt>
      <trkpt lat="49.20494" lon="-0.24026">
        <ele>26.7</ele>
        <time>2023-07-05T12:49:28Z</time>
      </trkpt>
      <trkpt lat="49.2049" lon="-0.24034">
        <ele>26.8</ele>
        <time>2023-07-05T12:49:29Z</time>
      </trkpt>
      <trkpt lat="49.20485" lon="-0.24041">
        <ele>26.9</ele>
        <time>2023-07-05T12:49:30Z</time>
      </trkpt>
      <trkpt lat="49.20481" lon="-0.24049">
        <ele>26.9</ele>
        <time>2023-07-05T12:49:31Z</time>
      </trkpt>
      <trkpt lat="49.20477" lon="-0.24057">
        <ele>27</ele>
        <time>2023-07-05T12:49:32Z</time>
      </trkpt>
      <trkpt lat="49.20473" lon="-0.24064">
        <ele>27.1</ele>
        <time>2023-07-05T12:49:33Z</time>
      </trkpt>
      <trkpt lat="49.20469" lon="-0.24072">
        <ele>27.2</ele>
        <time>2023-07-05T12:49:34Z</time>
      </trkpt>
      <trkpt lat="49.20465" lon="-0.24079">
        <ele>27.3</ele>
        <time>2023-07-05T12:49:35Z</time>
      </trkpt>
      <trkpt lat="49.20461" lon="-0.24087">
        <ele>27.4</ele>
        <time>2023-07-05T12:49:36Z</time>
      </trkpt>
      <trkpt lat="49.20457" lon="-0.24094">
        <ele>27.4</ele>
        <time>2023-07-05T12:49:37Z</time>
      </trkpt>
      <trkpt lat="49.20454" lon="-0.24101">
        <ele>27.5</ele>
        <time>2023-07-05T12:49:38Z</time>
      </trkpt>
      <trkpt lat="49.2045" lon="-0.24108">
        <ele>27.6</ele>
        <time>2023-07-05T12:49:39Z</time>
      </trkpt>
      <trkpt lat="49.20446" lon="-0.24115">
        <ele>27.7</ele>
        <time>2023-07-05T12:49:40Z</time>
      </trkpt>
      <trkpt lat="49.20442" lon="-0.24122">
        <ele>27.8</ele>
        <time>2023-07-05T12:49:41Z</time>
      </trkpt>
      <trkpt lat="49.20438" lon="-0.24129">
        <ele>27.8</ele>
        <time>2023-07-05T12:49:42Z</time>
      </trkpt>
      <trkpt lat="49.20434" lon="-0.24136">
        <ele>27.9</ele>
        <time>2023-07-05T12:49:43Z</time>
      </trkpt>
      <trkpt lat="49.2043" lon="-0.24143">
        <ele>27.9</ele>
        <time>2023-07-05T12:49:44Z</time>
      </trkpt>
      <trkpt lat="49.20426" lon="-0.2415">
        <ele>28</ele>
        <time>2023-07-05T12:49:45Z</time>
      </trkpt>
      <trkpt lat="49.20422" lon="-0.24158">
        <ele>28</ele>
        <time>2023-07-05T12:49:46Z</time>
      </trkpt>
      <trkpt lat="49.20418" lon="-0.24166">
        <ele>28.1</ele>
        <time>2023-07-05T12:49:47Z</time>
      </trkpt>
      <trkpt lat="49.20413" lon="-0.24174">
        <ele>28.1</ele>
        <time>2023-07-05T12:49:48Z</time>
      </trkpt>
      <trkpt lat="49.20409" lon="-0.24182">
        <ele>28.1</ele>
        <time>2023-07-05T12:49:49Z</time>
      </trkpt>
      <trkpt lat="49.20405" lon="-0.24191">
        <ele>28.1</ele>
        <time>2023-07-05T12:49:50Z</time>
      </trkpt>
      <trkpt lat="49.20401" lon="-0.24199">
        <ele>28.2</ele>
        <time>2023-07-05T12:49:51Z</time>
      </trkpt>
      <trkpt lat="49.20397" lon="-0.24206">
        <ele>28.2</ele>
        <time>2023-07-05T12:49:52Z</time>
      </trkpt>
      <trkpt lat="49.20393" lon="-0.24214">
        <ele>28.2</ele>
        <time>2023-07-05T12:49:53Z</time>
      </trkpt>
      <trkpt lat="49.20389" lon="-0.24222">
        <ele>28.3</ele>
        <time>2023-07-05T12:49:54Z</time>
      </trkpt>
      <trkpt lat="49.20384" lon="-0.2423">
        <ele>28.3</ele>
        <time>2023-07-05T12:49:55Z</time>
      </trkpt>
      <trkpt lat="49.2038" lon="-0.24239">
        <ele>28.4</ele>
        <time>2023-07-05T12:49:56Z</time>
      </trkpt>
      <trkpt lat="49.20376" lon="-0.24247">
        <ele>28.5</ele>
        <time>2023-07-05T12:49:57Z</time>
      </trkpt>
      <trkpt lat="49.20372" lon="-0.24255">
        <ele>28.6</ele>
        <time>2023-07-05T12:49:58Z</time>
      </trkpt>
      <trkpt lat="49.20368" lon="-0.24262">
        <ele>28.6</ele>
        <time>2023-07-05T12:49:59Z</time>
      </trkpt>
      <trkpt lat="49.20363" lon="-0.2427">
        <ele>28.8</ele>
        <time>2023-07-05T12:50:00Z</time>
      </trkpt>
      <trkpt lat="49.20359" lon="-0.24278">
        <ele>28.9</ele>
        <time>2023-07-05T12:50:01Z</time>
      </trkpt>
      <trkpt lat="49.20355" lon="-0.24286">
        <ele>29</ele>
        <time>2023-07-05T12:50:02Z</time>
      </trkpt>
      <trkpt lat="49.2035" lon="-0.24295">
        <ele>29.1</ele>
        <time>2023-07-05T12:50:03Z</time>
      </trkpt>
      <trkpt lat="49.20346" lon="-0.24304">
        <ele>29.2</ele>
        <time>2023-07-05T12:50:04Z</time>
      </trkpt>
      <trkpt lat="49.20342" lon="-0.24313">
        <ele>29.3</ele>
        <time>2023-07-05T12:50:05Z</time>
      </trkpt>
      <trkpt lat="49.20337" lon="-0.24321">
        <ele>29.4</ele>
        <time>2023-07-05T12:50:06Z</time>
      </trkpt>
      <trkpt lat="49.20332" lon="-0.24329">
        <ele>29.5</ele>
        <time>2023-07-05T12:50:07Z</time>
      </trkpt>
      <trkpt lat="49.20328" lon="-0.24337">
        <ele>29.6</ele>
        <time>2023-07-05T12:50:08Z</time>
      </trkpt>
      <trkpt lat="49.20323" lon="-0.24345">
        <ele>29.6</ele>
        <time>2023-07-05T12:50:09Z</time>
      </trkpt>
      <trkpt lat="49.20319" lon="-0.24354">
        <ele>29.7</ele>
        <time>2023-07-05T12:50:10Z</time>
      </trkpt>
      <trkpt lat="49.20314" lon="-0.24362">
        <ele>29.8</ele>
        <time>2023-07-05T12:50:11Z</time>
      </trkpt>
      <trkpt lat="49.2031" lon="-0.24369">
        <ele>29.9</ele>
        <time>2023-07-05T12:50:12Z</time>
      </trkpt>
      <trkpt lat="49.20306" lon="-0.24376">
        <ele>29.9</ele>
        <time>2023-07-05T12:50:13Z</time>
      </trkpt>
      <trkpt lat="49.20302" lon="-0.24384">
        <ele>30</ele>
        <time>2023-07-05T12:50:14Z</time>
      </trkpt>
      <trkpt lat="49.20298" lon="-0.24392">
        <ele>30.1</ele>
        <time>2023-07-05T12:50:15Z</time>
      </trkpt>
      <trkpt lat="49.20294" lon="-0.24401">
        <ele>30.1</ele>
        <time>2023-07-05T12:50:16Z</time>
      </trkpt>
      <trkpt lat="49.2029" lon="-0.24409">
        <ele>30.2</ele>
        <time>2023-07-05T12:50:17Z</time>
      </trkpt>
      <trkpt lat="49.20286" lon="-0.24417">
        <ele>30.3</ele>
        <time>2023-07-05T12:50:18Z</time>
      </trkpt>
      <trkpt lat="49.20282" lon="-0.24424">
        <ele>30.4</ele>
        <time>2023-07-05T12:50:19Z</time>
      </trkpt>
      <trkpt lat="49.20278" lon="-0.24432">
        <ele>30.5</ele>
        <time>2023-07-05T12:50:20Z</time>
      </trkpt>
      <trkpt lat="49.20274" lon="-0.2444">
        <ele>30.6</ele>
        <time>2023-07-05T12:50:21Z</time>
      </trkpt>
      <trkpt lat="49.20269" lon="-0.24448">
        <ele>30.7</ele>
        <time>2023-07-05T12:50:22Z</time>
      </trkpt>
      <trkpt lat="49.20264" lon="-0.24456">
        <ele>30.7</ele>
        <time>2023-07-05T12:50:23Z</time>
      </trkpt>
      <trkpt lat="49.2026" lon="-0.24464">
        <ele>30.8</ele>
        <time>2023-07-05T12:50:24Z</time>
      </trkpt>
      <trkpt lat="49.20256" lon="-0.24473">
        <ele>30.8</ele>
        <time>2023-07-05T12:50:25Z</time>
      </trkpt>
      <trkpt lat="49.20251" lon="-0.24481">
        <ele>30.9</ele>
        <time>2023-07-05T12:50:26Z</time>
      </trkpt>
      <trkpt lat="49.20247" lon="-0.2449">
        <ele>30.9</ele>
        <time>2023-07-05T12:50:27Z</time>
      </trkpt>
      <trkpt lat="49.20243" lon="-0.24498">
        <ele>31</ele>
        <time>2023-07-05T12:50:28Z</time>
      </trkpt>
      <trkpt lat="49.20238" lon="-0.24506">
        <ele>31</ele>
        <time>2023-07-05T12:50:29Z</time>
      </trkpt>
      <trkpt lat="49.20234" lon="-0.24514">
        <ele>31.1</ele>
        <time>2023-07-05T12:50:30Z</time>
      </trkpt>
      <trkpt lat="49.20229" lon="-0.24522">
        <ele>31.1</ele>
        <time>2023-07-05T12:50:31Z</time>
      </trkpt>
      <trkpt lat="49.20225" lon="-0.24529">
        <ele>31.2</ele>
        <time>2023-07-05T12:50:32Z</time>
      </trkpt>
      <trkpt lat="49.2022" lon="-0.24537">
        <ele>31.3</ele>
        <time>2023-07-05T12:50:33Z</time>
      </trkpt>
      <trkpt lat="49.20216" lon="-0.24545">
        <ele>31.3</ele>
        <time>2023-07-05T12:50:34Z</time>
      </trkpt>
      <trkpt lat="49.20211" lon="-0.24553">
        <ele>31.3</ele>
        <time>2023-07-05T12:50:35Z</time>
      </trkpt>
      <trkpt lat="49.20207" lon="-0.24561">
        <ele>31.4</ele>
        <time>2023-07-05T12:50:36Z</time>
      </trkpt>
      <trkpt lat="49.20203" lon="-0.2457">
        <ele>31.4</ele>
        <time>2023-07-05T12:50:37Z</time>
      </trkpt>
      <trkpt lat="49.20199" lon="-0.24577">
        <ele>31.4</ele>
        <time>2023-07-05T12:50:38Z</time>
      </trkpt>
      <trkpt lat="49.20195" lon="-0.24585">
        <ele>31.5</ele>
        <time>2023-07-05T12:50:39Z</time>
      </trkpt>
      <trkpt lat="49.20191" lon="-0.24592">
        <ele>31.6</ele>
        <time>2023-07-05T12:50:40Z</time>
      </trkpt>
      <trkpt lat="49.20186" lon="-0.246">
        <ele>31.7</ele>
        <time>2023-07-05T12:50:41Z</time>
      </trkpt>
      <trkpt lat="49.20182" lon="-0.24607">
        <ele>31.8</ele>
        <time>2023-07-05T12:50:42Z</time>
      </trkpt>
      <trkpt lat="49.20178" lon="-0.24614">
        <ele>31.9</ele>
        <time>2023-07-05T12:50:43Z</time>
      </trkpt>
      <trkpt lat="49.20174" lon="-0.24622">
        <ele>32</ele>
        <time>2023-07-05T12:50:44Z</time>
      </trkpt>
      <trkpt lat="49.2017" lon="-0.24629">
        <ele>32.1</ele>
        <time>2023-07-05T12:50:45Z</time>
      </trkpt>
      <trkpt lat="49.20165" lon="-0.24637">
        <ele>32.2</ele>
        <time>2023-07-05T12:50:46Z</time>
      </trkpt>
      <trkpt lat="49.20162" lon="-0.24644">
        <ele>32.3</ele>
        <time>2023-07-05T12:50:47Z</time>
      </trkpt>
      <trkpt lat="49.20157" lon="-0.24651">
        <ele>32.4</ele>
        <time>2023-07-05T12:50:48Z</time>
      </trkpt>
      <trkpt lat="49.20153" lon="-0.2466">
        <ele>32.5</ele>
        <time>2023-07-05T12:50:49Z</time>
      </trkpt>
      <trkpt lat="49.20149" lon="-0.24667">
        <ele>32.6</ele>
        <time>2023-07-05T12:50:50Z</time>
      </trkpt>
      <trkpt lat="49.20144" lon="-0.24676">
        <ele>32.7</ele>
        <time>2023-07-05T12:50:51Z</time>
      </trkpt>
      <trkpt lat="49.2014" lon="-0.24683">
        <ele>32.8</ele>
        <time>2023-07-05T12:50:52Z</time>
      </trkpt>
      <trkpt lat="49.20136" lon="-0.24691">
        <ele>32.9</ele>
        <time>2023-07-05T12:50:53Z</time>
      </trkpt>
      <trkpt lat="49.20131" lon="-0.24698">
        <ele>33</ele>
        <time>2023-07-05T12:50:54Z</time>
      </trkpt>
      <trkpt lat="49.20127" lon="-0.24706">
        <ele>33</ele>
        <time>2023-07-05T12:50:55Z</time>
      </trkpt>
      <trkpt lat="49.20123" lon="-0.24713">
        <ele>33.1</ele>
        <time>2023-07-05T12:50:56Z</time>
      </trkpt>
      <trkpt lat="49.20119" lon="-0.24722">
        <ele>33.2</ele>
        <time>2023-07-05T12:50:57Z</time>
      </trkpt>
      <trkpt lat="49.20114" lon="-0.2473">
        <ele>33.3</ele>
        <time>2023-07-05T12:50:58Z</time>
      </trkpt>
      <trkpt lat="49.2011" lon="-0.24738">
        <ele>33.3</ele>
        <time>2023-07-05T12:50:59Z</time>
      </trkpt>
      <trkpt lat="49.20106" lon="-0.24746">
        <ele>33.4</ele>
        <time>2023-07-05T12:51:00Z</time>
      </trkpt>
      <trkpt lat="49.20101" lon="-0.24754">
        <ele>33.4</ele>
        <time>2023-07-05T12:51:01Z</time>
      </trkpt>
      <trkpt lat="49.20097" lon="-0.24762">
        <ele>33.5</ele>
        <time>2023-07-05T12:51:02Z</time>
      </trkpt>
      <trkpt lat="49.20093" lon="-0.24771">
        <ele>33.5</ele>
        <time>2023-07-05T12:51:03Z</time>
      </trkpt>
      <trkpt lat="49.20089" lon="-0.24779">
        <ele>33.6</ele>
        <time>2023-07-05T12:51:04Z</time>
      </trkpt>
      <trkpt lat="49.20084" lon="-0.24788">
        <ele>33.7</ele>
        <time>2023-07-05T12:51:05Z</time>
      </trkpt>
      <trkpt lat="49.2008" lon="-0.24796">
        <ele>33.7</ele>
        <time>2023-07-05T12:51:06Z</time>
      </trkpt>
      <trkpt lat="49.20075" lon="-0.24804">
        <ele>33.7</ele>
        <time>2023-07-05T12:51:07Z</time>
      </trkpt>
      <trkpt lat="49.20071" lon="-0.24813">
        <ele>33.8</ele>
        <time>2023-07-05T12:51:08Z</time>
      </trkpt>
      <trkpt lat="49.20066" lon="-0.24821">
        <ele>33.8</ele>
        <time>2023-07-05T12:51:09Z</time>
      </trkpt>
      <trkpt lat="49.20062" lon="-0.24829">
        <ele>33.8</ele>
        <time>2023-07-05T12:51:10Z</time>
      </trkpt>
      <trkpt lat="49.20058" lon="-0.24838">
        <ele>33.8</ele>
        <time>2023-07-05T12:51:11Z</time>
      </trkpt>
      <trkpt lat="49.20053" lon="-0.24846">
        <ele>33.9</ele>
        <time>2023-07-05T12:51:12Z</time>
      </trkpt>
      <trkpt lat="49.20048" lon="-0.24854">
        <ele>33.9</ele>
        <time>2023-07-05T12:51:13Z</time>
      </trkpt>
      <trkpt lat="49.20044" lon="-0.24862">
        <ele>34</ele>
        <time>2023-07-05T12:51:14Z</time>
      </trkpt>
      <trkpt lat="49.20039" lon="-0.2487">
        <ele>34.1</ele>
        <time>2023-07-05T12:51:15Z</time>
      </trkpt>
      <trkpt lat="49.20035" lon="-0.24878">
        <ele>34.2</ele>
        <time>2023-07-05T12:51:16Z</time>
      </trkpt>
      <trkpt lat="49.20031" lon="-0.24886">
        <ele>34.3</ele>
        <time>2023-07-05T12:51:17Z</time>
      </trkpt>
      <trkpt lat="49.20026" lon="-0.24893">
        <ele>34.3</ele>
        <time>2023-07-05T12:51:18Z</time>
      </trkpt>
      <trkpt lat="49.20022" lon="-0.24901">
        <ele>34.4</ele>
        <time>2023-07-05T12:51:19Z</time>
      </trkpt>
      <trkpt lat="49.20017" lon="-0.24908">
        <ele>34.5</ele>
        <time>2023-07-05T12:51:20Z</time>
      </trkpt>
      <trkpt lat="49.20013" lon="-0.24916">
        <ele>34.6</ele>
        <time>2023-07-05T12:51:21Z</time>
      </trkpt>
      <trkpt lat="49.20008" lon="-0.24924">
        <ele>34.6</ele>
        <time>2023-07-05T12:51:22Z</time>
      </trkpt>
      <trkpt lat="49.20003" lon="-0.24931">
        <ele>34.7</ele>
        <time>2023-07-05T12:51:23Z</time>
      </trkpt>
      <trkpt lat="49.19998" lon="-0.24939">
        <ele>34.7</ele>
        <time>2023-07-05T12:51:24Z</time>
      </trkpt>
      <trkpt lat="49.19993" lon="-0.24946">
        <ele>34.7</ele>
        <time>2023-07-05T12:51:25Z</time>
      </trkpt>
      <trkpt lat="49.19988" lon="-0.24953">
        <ele>34.7</ele>
        <time>2023-07-05T12:51:26Z</time>
      </trkpt>
      <trkpt lat="49.19983" lon="-0.24961">
        <ele>34.7</ele>
        <time>2023-07-05T12:51:27Z</time>
      </trkpt>
      <trkpt lat="49.19978" lon="-0.24968">
        <ele>34.6</ele>
        <time>2023-07-05T12:51:28Z</time>
      </trkpt>
      <trkpt lat="49.19973" lon="-0.24976">
        <ele>34.6</ele>
        <time>2023-07-05T12:51:29Z</time>
      </trkpt>
      <trkpt lat="49.19968" lon="-0.24983">
        <ele>34.6</ele>
        <time>2023-07-05T12:51:30Z</time>
      </trkpt>
      <trkpt lat="49.19962" lon="-0.24991">
        <ele>34.5</ele>
        <time>2023-07-05T12:51:31Z</time>
      </trkpt>
      <trkpt lat="49.19957" lon="-0.24999">
        <ele>34.4</ele>
        <time>2023-07-05T12:51:32Z</time>
      </trkpt>
      <trkpt lat="49.19952" lon="-0.25006">
        <ele>34.4</ele>
        <time>2023-07-05T12:51:33Z</time>
      </trkpt>
      <trkpt lat="49.19947" lon="-0.25014">
        <ele>34.3</ele>
        <time>2023-07-05T12:51:34Z</time>
      </trkpt>
      <trkpt lat="49.19942" lon="-0.25022">
        <ele>34.3</ele>
        <time>2023-07-05T12:51:35Z</time>
      </trkpt>
      <trkpt lat="49.19937" lon="-0.2503">
        <ele>34.2</ele>
        <time>2023-07-05T12:51:36Z</time>
      </trkpt>
      <trkpt lat="49.19932" lon="-0.25038">
        <ele>34.2</ele>
        <time>2023-07-05T12:51:37Z</time>
      </trkpt>
      <trkpt lat="49.19927" lon="-0.25045">
        <ele>34.1</ele>
        <time>2023-07-05T12:51:38Z</time>
      </trkpt>
      <trkpt lat="49.19922" lon="-0.25053">
        <ele>34.1</ele>
        <time>2023-07-05T12:51:39Z</time>
      </trkpt>
      <trkpt lat="49.19917" lon="-0.25061">
        <ele>34</ele>
        <time>2023-07-05T12:51:40Z</time>
      </trkpt>
      <trkpt lat="49.19912" lon="-0.2507">
        <ele>34</ele>
        <time>2023-07-05T12:51:41Z</time>
      </trkpt>
      <trkpt lat="49.19907" lon="-0.25078">
        <ele>33.9</ele>
        <time>2023-07-05T12:51:42Z</time>
      </trkpt>
      <trkpt lat="49.19902" lon="-0.25086">
        <ele>33.8</ele>
        <time>2023-07-05T12:51:43Z</time>
      </trkpt>
      <trkpt lat="49.19897" lon="-0.25095">
        <ele>33.7</ele>
        <time>2023-07-05T12:51:44Z</time>
      </trkpt>
      <trkpt lat="49.19892" lon="-0.25103">
        <ele>33.7</ele>
        <time>2023-07-05T12:51:45Z</time>
      </trkpt>
      <trkpt lat="49.19887" lon="-0.25111">
        <ele>33.7</ele>
        <time>2023-07-05T12:51:46Z</time>
      </trkpt>
      <trkpt lat="49.19882" lon="-0.25118">
        <ele>33.6</ele>
        <time>2023-07-05T12:51:47Z</time>
      </trkpt>
      <trkpt lat="49.19876" lon="-0.25126">
        <ele>33.6</ele>
        <time>2023-07-05T12:51:48Z</time>
      </trkpt>
      <trkpt lat="49.19872" lon="-0.25134">
        <ele>33.6</ele>
        <time>2023-07-05T12:51:49Z</time>
      </trkpt>
      <trkpt lat="49.19867" lon="-0.25142">
        <ele>33.6</ele>
        <time>2023-07-05T12:51:50Z</time>
      </trkpt>
      <trkpt lat="49.19862" lon="-0.25149">
        <ele>33.6</ele>
        <time>2023-07-05T12:51:51Z</time>
      </trkpt>
      <trkpt lat="49.19858" lon="-0.25157">
        <ele>33.6</ele>
        <time>2023-07-05T12:51:52Z</time>
      </trkpt>
      <trkpt lat="49.19853" lon="-0.25164">
        <ele>33.5</ele>
        <time>2023-07-05T12:51:53Z</time>
      </trkpt>
      <trkpt lat="49.19848" lon="-0.25173">
        <ele>33.5</ele>
        <time>2023-07-05T12:51:54Z</time>
      </trkpt>
      <trkpt lat="49.19843" lon="-0.25181">
        <ele>33.5</ele>
        <time>2023-07-05T12:51:55Z</time>
      </trkpt>
      <trkpt lat="49.19839" lon="-0.25189">
        <ele>33.5</ele>
        <time>2023-07-05T12:51:56Z</time>
      </trkpt>
      <trkpt lat="49.19834" lon="-0.25197">
        <ele>33.5</ele>
        <time>2023-07-05T12:51:57Z</time>
      </trkpt>
      <trkpt lat="49.1983" lon="-0.25205">
        <ele>33.5</ele>
        <time>2023-07-05T12:51:58Z</time>
      </trkpt>
      <trkpt lat="49.19825" lon="-0.25213">
        <ele>33.5</ele>
        <time>2023-07-05T12:51:59Z</time>
      </trkpt>
      <trkpt lat="49.19822" lon="-0.2522">
        <ele>33.4</ele>
        <time>2023-07-05T12:52:00Z</time>
      </trkpt>
      <trkpt lat="49.19818" lon="-0.25228">
        <ele>33.4</ele>
        <time>2023-07-05T12:52:01Z</time>
      </trkpt>
      <trkpt lat="49.19813" lon="-0.25236">
        <ele>33.4</ele>
        <time>2023-07-05T12:52:02Z</time>
      </trkpt>
      <trkpt lat="49.19809" lon="-0.25244">
        <ele>33.4</ele>
        <time>2023-07-05T12:52:03Z</time>
      </trkpt>
      <trkpt lat="49.19804" lon="-0.25252">
        <ele>33.3</ele>
        <time>2023-07-05T12:52:04Z</time>
      </trkpt>
      <trkpt lat="49.19799" lon="-0.2526">
        <ele>33.3</ele>
        <time>2023-07-05T12:52:05Z</time>
      </trkpt>
      <trkpt lat="49.19794" lon="-0.25268">
        <ele>33.3</ele>
        <time>2023-07-05T12:52:06Z</time>
      </trkpt>
      <trkpt lat="49.1979" lon="-0.25276">
        <ele>33.2</ele>
        <time>2023-07-05T12:52:07Z</time>
      </trkpt>
      <trkpt lat="49.19785" lon="-0.25284">
        <ele>33.2</ele>
        <time>2023-07-05T12:52:08Z</time>
      </trkpt>
      <trkpt lat="49.19781" lon="-0.25293">
        <ele>33.2</ele>
        <time>2023-07-05T12:52:09Z</time>
      </trkpt>
      <trkpt lat="49.19776" lon="-0.25301">
        <ele>33.1</ele>
        <time>2023-07-05T12:52:10Z</time>
      </trkpt>
      <trkpt lat="49.19772" lon="-0.25309">
        <ele>33.1</ele>
        <time>2023-07-05T12:52:11Z</time>
      </trkpt>
      <trkpt lat="49.19767" lon="-0.25317">
        <ele>33</ele>
        <time>2023-07-05T12:52:12Z</time>
      </trkpt>
      <trkpt lat="49.19763" lon="-0.25326">
        <ele>32.9</ele>
        <time>2023-07-05T12:52:13Z</time>
      </trkpt>
      <trkpt lat="49.19758" lon="-0.25336">
        <ele>32.8</ele>
        <time>2023-07-05T12:52:14Z</time>
      </trkpt>
      <trkpt lat="49.19754" lon="-0.25345">
        <ele>32.6</ele>
        <time>2023-07-05T12:52:15Z</time>
      </trkpt>
      <trkpt lat="49.19749" lon="-0.25354">
        <ele>32.5</ele>
        <time>2023-07-05T12:52:16Z</time>
      </trkpt>
      <trkpt lat="49.19744" lon="-0.25363">
        <ele>32.4</ele>
        <time>2023-07-05T12:52:17Z</time>
      </trkpt>
      <trkpt lat="49.19739" lon="-0.25373">
        <ele>32.3</ele>
        <time>2023-07-05T12:52:18Z</time>
      </trkpt>
      <trkpt lat="49.19734" lon="-0.25382">
        <ele>32.2</ele>
        <time>2023-07-05T12:52:19Z</time>
      </trkpt>
      <trkpt lat="49.19729" lon="-0.25391">
        <ele>32</ele>
        <time>2023-07-05T12:52:20Z</time>
      </trkpt>
      <trkpt lat="49.19724" lon="-0.25402">
        <ele>31.9</ele>
        <time>2023-07-05T12:52:21Z</time>
      </trkpt>
      <trkpt lat="49.19719" lon="-0.25412">
        <ele>31.8</ele>
        <time>2023-07-05T12:52:22Z</time>
      </trkpt>
      <trkpt lat="49.19715" lon="-0.25421">
        <ele>31.6</ele>
        <time>2023-07-05T12:52:23Z</time>
      </trkpt>
      <trkpt lat="49.1971" lon="-0.2543">
        <ele>31.5</ele>
        <time>2023-07-05T12:52:24Z</time>
      </trkpt>
      <trkpt lat="49.19706" lon="-0.25439">
        <ele>31.4</ele>
        <time>2023-07-05T12:52:25Z</time>
      </trkpt>
      <trkpt lat="49.19701" lon="-0.25448">
        <ele>31.3</ele>
        <time>2023-07-05T12:52:26Z</time>
      </trkpt>
      <trkpt lat="49.19697" lon="-0.25458">
        <ele>31.1</ele>
        <time>2023-07-05T12:52:27Z</time>
      </trkpt>
      <trkpt lat="49.19693" lon="-0.25468">
        <ele>31</ele>
        <time>2023-07-05T12:52:28Z</time>
      </trkpt>
      <trkpt lat="49.19689" lon="-0.25478">
        <ele>30.9</ele>
        <time>2023-07-05T12:52:29Z</time>
      </trkpt>
      <trkpt lat="49.19685" lon="-0.25489">
        <ele>30.8</ele>
        <time>2023-07-05T12:52:30Z</time>
      </trkpt>
      <trkpt lat="49.19682" lon="-0.255">
        <ele>30.7</ele>
        <time>2023-07-05T12:52:31Z</time>
      </trkpt>
      <trkpt lat="49.19678" lon="-0.25511">
        <ele>30.7</ele>
        <time>2023-07-05T12:52:32Z</time>
      </trkpt>
      <trkpt lat="49.19675" lon="-0.25522">
        <ele>30.6</ele>
        <time>2023-07-05T12:52:33Z</time>
      </trkpt>
      <trkpt lat="49.19672" lon="-0.25532">
        <ele>30.6</ele>
        <time>2023-07-05T12:52:34Z</time>
      </trkpt>
      <trkpt lat="49.19668" lon="-0.25543">
        <ele>30.5</ele>
        <time>2023-07-05T12:52:35Z</time>
      </trkpt>
      <trkpt lat="49.19666" lon="-0.25553">
        <ele>30.5</ele>
        <time>2023-07-05T12:52:36Z</time>
      </trkpt>
      <trkpt lat="49.19663" lon="-0.25564">
        <ele>30.5</ele>
        <time>2023-07-05T12:52:37Z</time>
      </trkpt>
      <trkpt lat="49.19661" lon="-0.25574">
        <ele>30.5</ele>
        <time>2023-07-05T12:52:38Z</time>
      </trkpt>
      <trkpt lat="49.19659" lon="-0.25585">
        <ele>30.6</ele>
        <time>2023-07-05T12:52:39Z</time>
      </trkpt>
      <trkpt lat="49.19656" lon="-0.25594">
        <ele>30.6</ele>
        <time>2023-07-05T12:52:40Z</time>
      </trkpt>
      <trkpt lat="49.19654" lon="-0.25605">
        <ele>30.6</ele>
        <time>2023-07-05T12:52:41Z</time>
      </trkpt>
      <trkpt lat="49.19651" lon="-0.25615">
        <ele>30.7</ele>
        <time>2023-07-05T12:52:42Z</time>
      </trkpt>
      <trkpt lat="49.19648" lon="-0.25625">
        <ele>30.7</ele>
        <time>2023-07-05T12:52:43Z</time>
      </trkpt>
      <trkpt lat="49.19645" lon="-0.25635">
        <ele>30.7</ele>
        <time>2023-07-05T12:52:44Z</time>
      </trkpt>
      <trkpt lat="49.19642" lon="-0.25645">
        <ele>30.8</ele>
        <time>2023-07-05T12:52:45Z</time>
      </trkpt>
      <trkpt lat="49.19639" lon="-0.25655">
        <ele>30.8</ele>
        <time>2023-07-05T12:52:46Z</time>
      </trkpt>
      <trkpt lat="49.19635" lon="-0.25664">
        <ele>30.9</ele>
        <time>2023-07-05T12:52:47Z</time>
      </trkpt>
      <trkpt lat="49.19631" lon="-0.25673">
        <ele>30.9</ele>
        <time>2023-07-05T12:52:48Z</time>
      </trkpt>
      <trkpt lat="49.19627" lon="-0.25682">
        <ele>30.9</ele>
        <time>2023-07-05T12:52:49Z</time>
      </trkpt>
      <trkpt lat="49.19623" lon="-0.25691">
        <ele>31</ele>
        <time>2023-07-05T12:52:50Z</time>
      </trkpt>
      <trkpt lat="49.19618" lon="-0.25699">
        <ele>31</ele>
        <time>2023-07-05T12:52:51Z</time>
      </trkpt>
      <trkpt lat="49.19614" lon="-0.25707">
        <ele>31.1</ele>
        <time>2023-07-05T12:52:52Z</time>
      </trkpt>
      <trkpt lat="49.1961" lon="-0.25716">
        <ele>31.1</ele>
        <time>2023-07-05T12:52:53Z</time>
      </trkpt>
      <trkpt lat="49.19606" lon="-0.25725">
        <ele>31.2</ele>
        <time>2023-07-05T12:52:54Z</time>
      </trkpt>
      <trkpt lat="49.19601" lon="-0.25734">
        <ele>31.2</ele>
        <time>2023-07-05T12:52:55Z</time>
      </trkpt>
      <trkpt lat="49.19597" lon="-0.25743">
        <ele>31.3</ele>
        <time>2023-07-05T12:52:56Z</time>
      </trkpt>
      <trkpt lat="49.19593" lon="-0.25751">
        <ele>31.3</ele>
        <time>2023-07-05T12:52:57Z</time>
      </trkpt>
      <trkpt lat="49.19588" lon="-0.2576">
        <ele>31.4</ele>
        <time>2023-07-05T12:52:58Z</time>
      </trkpt>
      <trkpt lat="49.19584" lon="-0.25769">
        <ele>31.4</ele>
        <time>2023-07-05T12:52:59Z</time>
      </trkpt>
      <trkpt lat="49.1958" lon="-0.25777">
        <ele>31.4</ele>
        <time>2023-07-05T12:53:00Z</time>
      </trkpt>
      <trkpt lat="49.19576" lon="-0.25786">
        <ele>31.4</ele>
        <time>2023-07-05T12:53:01Z</time>
      </trkpt>
      <trkpt lat="49.19572" lon="-0.25794">
        <ele>31.5</ele>
        <time>2023-07-05T12:53:02Z</time>
      </trkpt>
      <trkpt lat="49.19569" lon="-0.25803">
        <ele>31.5</ele>
        <time>2023-07-05T12:53:03Z</time>
      </trkpt>
      <trkpt lat="49.19565" lon="-0.25813">
        <ele>31.6</ele>
        <time>2023-07-05T12:53:04Z</time>
      </trkpt>
      <trkpt lat="49.19562" lon="-0.25822">
        <ele>31.6</ele>
        <time>2023-07-05T12:53:05Z</time>
      </trkpt>
      <trkpt lat="49.19558" lon="-0.25831">
        <ele>31.7</ele>
        <time>2023-07-05T12:53:06Z</time>
      </trkpt>
      <trkpt lat="49.19555" lon="-0.2584">
        <ele>31.7</ele>
        <time>2023-07-05T12:53:07Z</time>
      </trkpt>
      <trkpt lat="49.19552" lon="-0.25849">
        <ele>31.7</ele>
        <time>2023-07-05T12:53:08Z</time>
      </trkpt>
      <trkpt lat="49.19549" lon="-0.25859">
        <ele>31.8</ele>
        <time>2023-07-05T12:53:09Z</time>
      </trkpt>
      <trkpt lat="49.19546" lon="-0.25869">
        <ele>31.8</ele>
        <time>2023-07-05T12:53:10Z</time>
      </trkpt>
      <trkpt lat="49.19543" lon="-0.25879">
        <ele>31.9</ele>
        <time>2023-07-05T12:53:11Z</time>
      </trkpt>
      <trkpt lat="49.19541" lon="-0.25888">
        <ele>31.9</ele>
        <time>2023-07-05T12:53:12Z</time>
      </trkpt>
      <trkpt lat="49.19538" lon="-0.25898">
        <ele>32</ele>
        <time>2023-07-05T12:53:13Z</time>
      </trkpt>
      <trkpt lat="49.19535" lon="-0.25908">
        <ele>32</ele>
        <time>2023-07-05T12:53:14Z</time>
      </trkpt>
      <trkpt lat="49.19532" lon="-0.25918">
        <ele>32.1</ele>
        <time>2023-07-05T12:53:15Z</time>
      </trkpt>
      <trkpt lat="49.1953" lon="-0.25927">
        <ele>32.1</ele>
        <time>2023-07-05T12:53:16Z</time>
      </trkpt>
      <trkpt lat="49.19527" lon="-0.25938">
        <ele>32.1</ele>
        <time>2023-07-05T12:53:17Z</time>
      </trkpt>
      <trkpt lat="49.19524" lon="-0.25948">
        <ele>32.2</ele>
        <time>2023-07-05T12:53:18Z</time>
      </trkpt>
      <trkpt lat="49.19522" lon="-0.25959">
        <ele>32.1</ele>
        <time>2023-07-05T12:53:19Z</time>
      </trkpt>
      <trkpt lat="49.19519" lon="-0.25969">
        <ele>32.1</ele>
        <time>2023-07-05T12:53:20Z</time>
      </trkpt>
      <trkpt lat="49.19516" lon="-0.25979">
        <ele>32</ele>
        <time>2023-07-05T12:53:21Z</time>
      </trkpt>
      <trkpt lat="49.19514" lon="-0.25989">
        <ele>32</ele>
        <time>2023-07-05T12:53:22Z</time>
      </trkpt>
      <trkpt lat="49.19512" lon="-0.26">
        <ele>32</ele>
        <time>2023-07-05T12:53:23Z</time>
      </trkpt>
      <trkpt lat="49.19509" lon="-0.26009">
        <ele>32</ele>
        <time>2023-07-05T12:53:24Z</time>
      </trkpt>
      <trkpt lat="49.19507" lon="-0.2602">
        <ele>31.9</ele>
        <time>2023-07-05T12:53:25Z</time>
      </trkpt>
      <trkpt lat="49.19505" lon="-0.2603">
        <ele>31.9</ele>
        <time>2023-07-05T12:53:26Z</time>
      </trkpt>
      <trkpt lat="49.19502" lon="-0.2604">
        <ele>31.8</ele>
        <time>2023-07-05T12:53:27Z</time>
      </trkpt>
      <trkpt lat="49.195" lon="-0.2605">
        <ele>31.8</ele>
        <time>2023-07-05T12:53:28Z</time>
      </trkpt>
      <trkpt lat="49.19497" lon="-0.26061">
        <ele>31.7</ele>
        <time>2023-07-05T12:53:29Z</time>
      </trkpt>
      <trkpt lat="49.19495" lon="-0.26071">
        <ele>31.7</ele>
        <time>2023-07-05T12:53:30Z</time>
      </trkpt>
      <trkpt lat="49.19493" lon="-0.26082">
        <ele>31.6</ele>
        <time>2023-07-05T12:53:31Z</time>
      </trkpt>
      <trkpt lat="49.19491" lon="-0.26092">
        <ele>31.5</ele>
        <time>2023-07-05T12:53:32Z</time>
      </trkpt>
      <trkpt lat="49.19489" lon="-0.26102">
        <ele>31.4</ele>
        <time>2023-07-05T12:53:33Z</time>
      </trkpt>
      <trkpt lat="49.19488" lon="-0.26113">
        <ele>31.3</ele>
        <time>2023-07-05T12:53:34Z</time>
      </trkpt>
      <trkpt lat="49.19485" lon="-0.26123">
        <ele>31.2</ele>
        <time>2023-07-05T12:53:35Z</time>
      </trkpt>
      <trkpt lat="49.19483" lon="-0.26134">
        <ele>31.2</ele>
        <time>2023-07-05T12:53:36Z</time>
      </trkpt>
      <trkpt lat="49.19481" lon="-0.26144">
        <ele>31.1</ele>
        <time>2023-07-05T12:53:37Z</time>
      </trkpt>
      <trkpt lat="49.19478" lon="-0.26155">
        <ele>31.1</ele>
        <time>2023-07-05T12:53:38Z</time>
      </trkpt>
      <trkpt lat="49.19476" lon="-0.26166">
        <ele>31</ele>
        <time>2023-07-05T12:53:39Z</time>
      </trkpt>
      <trkpt lat="49.19475" lon="-0.26177">
        <ele>31</ele>
        <time>2023-07-05T12:53:40Z</time>
      </trkpt>
      <trkpt lat="49.19473" lon="-0.26188">
        <ele>30.9</ele>
        <time>2023-07-05T12:53:41Z</time>
      </trkpt>
      <trkpt lat="49.1947" lon="-0.262">
        <ele>30.9</ele>
        <time>2023-07-05T12:53:42Z</time>
      </trkpt>
      <trkpt lat="49.19468" lon="-0.26212">
        <ele>30.8</ele>
        <time>2023-07-05T12:53:43Z</time>
      </trkpt>
      <trkpt lat="49.19465" lon="-0.26223">
        <ele>30.7</ele>
        <time>2023-07-05T12:53:44Z</time>
      </trkpt>
      <trkpt lat="49.19462" lon="-0.26235">
        <ele>30.7</ele>
        <time>2023-07-05T12:53:45Z</time>
      </trkpt>
      <trkpt lat="49.1946" lon="-0.26245">
        <ele>30.6</ele>
        <time>2023-07-05T12:53:46Z</time>
      </trkpt>
      <trkpt lat="49.19458" lon="-0.26257">
        <ele>30.5</ele>
        <time>2023-07-05T12:53:47Z</time>
      </trkpt>
      <trkpt lat="49.19455" lon="-0.26269">
        <ele>30.5</ele>
        <time>2023-07-05T12:53:48Z</time>
      </trkpt>
      <trkpt lat="49.19453" lon="-0.26281">
        <ele>30.4</ele>
        <time>2023-07-05T12:53:49Z</time>
      </trkpt>
      <trkpt lat="49.1945" lon="-0.26293">
        <ele>30.4</ele>
        <time>2023-07-05T12:53:50Z</time>
      </trkpt>
      <trkpt lat="49.19448" lon="-0.26304">
        <ele>30.3</ele>
        <time>2023-07-05T12:53:51Z</time>
      </trkpt>
      <trkpt lat="49.19445" lon="-0.26314">
        <ele>30.3</ele>
        <time>2023-07-05T12:53:52Z</time>
      </trkpt>
      <trkpt lat="49.19441" lon="-0.26324">
        <ele>30.2</ele>
        <time>2023-07-05T12:53:53Z</time>
      </trkpt>
      <trkpt lat="49.19436" lon="-0.26333">
        <ele>30.2</ele>
        <time>2023-07-05T12:53:54Z</time>
      </trkpt>
      <trkpt lat="49.19431" lon="-0.2634">
        <ele>30.2</ele>
        <time>2023-07-05T12:53:55Z</time>
      </trkpt>
      <trkpt lat="49.19424" lon="-0.26346">
        <ele>30.1</ele>
        <time>2023-07-05T12:53:56Z</time>
      </trkpt>
      <trkpt lat="49.19417" lon="-0.26351">
        <ele>30.1</ele>
        <time>2023-07-05T12:53:57Z</time>
      </trkpt>
      <trkpt lat="49.19411" lon="-0.26354">
        <ele>30</ele>
        <time>2023-07-05T12:53:58Z</time>
      </trkpt>
      <trkpt lat="49.19404" lon="-0.26358">
        <ele>30</ele>
        <time>2023-07-05T12:53:59Z</time>
      </trkpt>
      <trkpt lat="49.19397" lon="-0.26361">
        <ele>30</ele>
        <time>2023-07-05T12:54:00Z</time>
      </trkpt>
      <trkpt lat="49.19389" lon="-0.26364">
        <ele>29.9</ele>
        <time>2023-07-05T12:54:01Z</time>
      </trkpt>
      <trkpt lat="49.19382" lon="-0.26367">
        <ele>29.8</ele>
        <time>2023-07-05T12:54:02Z</time>
      </trkpt>
      <trkpt lat="49.19375" lon="-0.2637">
        <ele>29.7</ele>
        <time>2023-07-05T12:54:03Z</time>
      </trkpt>
      <trkpt lat="49.19368" lon="-0.26373">
        <ele>29.6</ele>
        <time>2023-07-05T12:54:04Z</time>
      </trkpt>
      <trkpt lat="49.19362" lon="-0.26377">
        <ele>29.5</ele>
        <time>2023-07-05T12:54:05Z</time>
      </trkpt>
      <trkpt lat="49.19356" lon="-0.2638">
        <ele>29.4</ele>
        <time>2023-07-05T12:54:06Z</time>
      </trkpt>
      <trkpt lat="49.1935" lon="-0.26382">
        <ele>29.3</ele>
        <time>2023-07-05T12:54:07Z</time>
      </trkpt>
      <trkpt lat="49.19344" lon="-0.26385">
        <ele>29.2</ele>
        <time>2023-07-05T12:54:08Z</time>
      </trkpt>
      <trkpt lat="49.19338" lon="-0.26388">
        <ele>29.2</ele>
        <time>2023-07-05T12:54:09Z</time>
      </trkpt>
      <trkpt lat="49.19332" lon="-0.2639">
        <ele>29.1</ele>
        <time>2023-07-05T12:54:10Z</time>
      </trkpt>
      <trkpt lat="49.19327" lon="-0.26392">
        <ele>29.1</ele>
        <time>2023-07-05T12:54:11Z</time>
      </trkpt>
      <trkpt lat="49.19323" lon="-0.26394">
        <ele>29</ele>
        <time>2023-07-05T12:54:12Z</time>
      </trkpt>
      <trkpt lat="49.19318" lon="-0.26396">
        <ele>29</ele>
        <time>2023-07-05T12:54:13Z</time>
      </trkpt>
      <trkpt lat="49.19314" lon="-0.26398">
        <ele>29</ele>
        <time>2023-07-05T12:54:14Z</time>
      </trkpt>
      <trkpt lat="49.19311" lon="-0.264">
        <ele>28.9</ele>
        <time>2023-07-05T12:54:15Z</time>
      </trkpt>
      <trkpt lat="49.19308" lon="-0.26402">
        <ele>28.9</ele>
        <time>2023-07-05T12:54:16Z</time>
      </trkpt>
      <trkpt lat="49.19305" lon="-0.26403">
        <ele>28.9</ele>
        <time>2023-07-05T12:54:17Z</time>
      </trkpt>
      <trkpt lat="49.19304" lon="-0.26404">
        <ele>28.9</ele>
        <time>2023-07-05T12:54:18Z</time>
      </trkpt>
      <trkpt lat="49.19302" lon="-0.26405">
        <ele>28.9</ele>
        <time>2023-07-05T12:54:19Z</time>
      </trkpt>
      <trkpt lat="49.19301" lon="-0.26406">
        <ele>28.9</ele>
        <time>2023-07-05T12:54:20Z</time>
      </trkpt>
      <trkpt lat="49.19299" lon="-0.26407">
        <ele>28.9</ele>
        <time>2023-07-05T12:54:21Z</time>
      </trkpt>
      <trkpt lat="49.19298" lon="-0.26408">
        <ele>28.9</ele>
        <time>2023-07-05T12:54:22Z</time>
      </trkpt>
      <trkpt lat="49.19295" lon="-0.26409">
        <ele>28.9</ele>
        <time>2023-07-05T12:54:23Z</time>
      </trkpt>
      <trkpt lat="49.19294" lon="-0.2641">
        <ele>28.9</ele>
        <time>2023-07-05T12:54:24Z</time>
      </trkpt>
      <trkpt lat="49.19291" lon="-0.26413">
        <ele>28.9</ele>
        <time>2023-07-05T12:54:25Z</time>
      </trkpt>
      <trkpt lat="49.1929" lon="-0.26414">
        <ele>28.9</ele>
        <time>2023-07-05T12:54:26Z</time>
      </trkpt>
      <trkpt lat="49.19287" lon="-0.26417">
        <ele>28.9</ele>
        <time>2023-07-05T12:54:27Z</time>
      </trkpt>
      <trkpt lat="49.19285" lon="-0.2642">
        <ele>28.9</ele>
        <time>2023-07-05T12:54:28Z</time>
      </trkpt>
      <trkpt lat="49.19283" lon="-0.26425">
        <ele>28.9</ele>
        <time>2023-07-05T12:54:29Z</time>
      </trkpt>
      <trkpt lat="49.19282" lon="-0.26431">
        <ele>28.9</ele>
        <time>2023-07-05T12:54:30Z</time>
      </trkpt>
      <trkpt lat="49.19282" lon="-0.26438">
        <ele>28.9</ele>
        <time>2023-07-05T12:54:31Z</time>
      </trkpt>
      <trkpt lat="49.19282" lon="-0.26447">
        <ele>29</ele>
        <time>2023-07-05T12:54:32Z</time>
      </trkpt>
      <trkpt lat="49.19283" lon="-0.26455">
        <ele>29</ele>
        <time>2023-07-05T12:54:33Z</time>
      </trkpt>
      <trkpt lat="49.19285" lon="-0.26465">
        <ele>28.9</ele>
        <time>2023-07-05T12:54:34Z</time>
      </trkpt>
      <trkpt lat="49.19286" lon="-0.26474">
        <ele>28.9</ele>
        <time>2023-07-05T12:54:35Z</time>
      </trkpt>
      <trkpt lat="49.19287" lon="-0.26484">
        <ele>28.9</ele>
        <time>2023-07-05T12:54:36Z</time>
      </trkpt>
      <trkpt lat="49.19288" lon="-0.26495">
        <ele>28.8</ele>
        <time>2023-07-05T12:54:37Z</time>
      </trkpt>
      <trkpt lat="49.19289" lon="-0.26506">
        <ele>28.7</ele>
        <time>2023-07-05T12:54:38Z</time>
      </trkpt>
      <trkpt lat="49.1929" lon="-0.26518">
        <ele>28.7</ele>
        <time>2023-07-05T12:54:39Z</time>
      </trkpt>
      <trkpt lat="49.19291" lon="-0.26529">
        <ele>28.6</ele>
        <time>2023-07-05T12:54:40Z</time>
      </trkpt>
      <trkpt lat="49.19291" lon="-0.26541">
        <ele>28.6</ele>
        <time>2023-07-05T12:54:41Z</time>
      </trkpt>
      <trkpt lat="49.19292" lon="-0.26552">
        <ele>28.6</ele>
        <time>2023-07-05T12:54:42Z</time>
      </trkpt>
      <trkpt lat="49.19293" lon="-0.26563">
        <ele>28.5</ele>
        <time>2023-07-05T12:54:43Z</time>
      </trkpt>
      <trkpt lat="49.19295" lon="-0.26574">
        <ele>28.5</ele>
        <time>2023-07-05T12:54:44Z</time>
      </trkpt>
      <trkpt lat="49.19296" lon="-0.26585">
        <ele>28.4</ele>
        <time>2023-07-05T12:54:45Z</time>
      </trkpt>
      <trkpt lat="49.19297" lon="-0.26596">
        <ele>28.4</ele>
        <time>2023-07-05T12:54:46Z</time>
      </trkpt>
      <trkpt lat="49.19298" lon="-0.26607">
        <ele>28.3</ele>
        <time>2023-07-05T12:54:47Z</time>
      </trkpt>
      <trkpt lat="49.19299" lon="-0.26618">
        <ele>28.2</ele>
        <time>2023-07-05T12:54:48Z</time>
      </trkpt>
      <trkpt lat="49.193" lon="-0.26629">
        <ele>28.2</ele>
        <time>2023-07-05T12:54:49Z</time>
      </trkpt>
      <trkpt lat="49.19302" lon="-0.2664">
        <ele>28.1</ele>
        <time>2023-07-05T12:54:50Z</time>
      </trkpt>
      <trkpt lat="49.19303" lon="-0.26651">
        <ele>28</ele>
        <time>2023-07-05T12:54:51Z</time>
      </trkpt>
      <trkpt lat="49.19304" lon="-0.26663">
        <ele>28</ele>
        <time>2023-07-05T12:54:52Z</time>
      </trkpt>
      <trkpt lat="49.19305" lon="-0.26674">
        <ele>27.9</ele>
        <time>2023-07-05T12:54:53Z</time>
      </trkpt>
      <trkpt lat="49.19306" lon="-0.26685">
        <ele>27.9</ele>
        <time>2023-07-05T12:54:54Z</time>
      </trkpt>
      <trkpt lat="49.19307" lon="-0.26696">
        <ele>27.8</ele>
        <time>2023-07-05T12:54:55Z</time>
      </trkpt>
      <trkpt lat="49.19308" lon="-0.26707">
        <ele>27.8</ele>
        <time>2023-07-05T12:54:56Z</time>
      </trkpt>
      <trkpt lat="49.19309" lon="-0.26718">
        <ele>27.7</ele>
        <time>2023-07-05T12:54:57Z</time>
      </trkpt>
      <trkpt lat="49.19309" lon="-0.26728">
        <ele>27.7</ele>
        <time>2023-07-05T12:54:58Z</time>
      </trkpt>
      <trkpt lat="49.1931" lon="-0.26738">
        <ele>27.6</ele>
        <time>2023-07-05T12:54:59Z</time>
      </trkpt>
      <trkpt lat="49.19311" lon="-0.26748">
        <ele>27.4</ele>
        <time>2023-07-05T12:55:00Z</time>
      </trkpt>
      <trkpt lat="49.19312" lon="-0.26758">
        <ele>27.3</ele>
        <time>2023-07-05T12:55:01Z</time>
      </trkpt>
      <trkpt lat="49.19313" lon="-0.26768">
        <ele>27.2</ele>
        <time>2023-07-05T12:55:02Z</time>
      </trkpt>
      <trkpt lat="49.19314" lon="-0.26778">
        <ele>27.1</ele>
        <time>2023-07-05T12:55:03Z</time>
      </trkpt>
      <trkpt lat="49.19315" lon="-0.26787">
        <ele>27.1</ele>
        <time>2023-07-05T12:55:04Z</time>
      </trkpt>
      <trkpt lat="49.19316" lon="-0.26798">
        <ele>27</ele>
        <time>2023-07-05T12:55:05Z</time>
      </trkpt>
      <trkpt lat="49.19317" lon="-0.26808">
        <ele>26.9</ele>
        <time>2023-07-05T12:55:06Z</time>
      </trkpt>
      <trkpt lat="49.19319" lon="-0.26818">
        <ele>26.8</ele>
        <time>2023-07-05T12:55:07Z</time>
      </trkpt>
      <trkpt lat="49.1932" lon="-0.26828">
        <ele>26.7</ele>
        <time>2023-07-05T12:55:08Z</time>
      </trkpt>
      <trkpt lat="49.19321" lon="-0.26837">
        <ele>26.7</ele>
        <time>2023-07-05T12:55:09Z</time>
      </trkpt>
      <trkpt lat="49.19321" lon="-0.26846">
        <ele>26.7</ele>
        <time>2023-07-05T12:55:10Z</time>
      </trkpt>
      <trkpt lat="49.19322" lon="-0.26853">
        <ele>26.6</ele>
        <time>2023-07-05T12:55:11Z</time>
      </trkpt>
      <trkpt lat="49.19323" lon="-0.26859">
        <ele>26.6</ele>
        <time>2023-07-05T12:55:12Z</time>
      </trkpt>
      <trkpt lat="49.19323" lon="-0.26864">
        <ele>26.6</ele>
        <time>2023-07-05T12:55:13Z</time>
      </trkpt>
      <trkpt lat="49.19324" lon="-0.26869">
        <ele>26.6</ele>
        <time>2023-07-05T12:55:14Z</time>
      </trkpt>
      <trkpt lat="49.19324" lon="-0.26871">
        <ele>26.5</ele>
        <time>2023-07-05T12:55:15Z</time>
      </trkpt>
      <trkpt lat="49.19324" lon="-0.26873">
        <ele>26.5</ele>
        <time>2023-07-05T12:55:16Z</time>
      </trkpt>
      <trkpt lat="49.19324" lon="-0.26875">
        <ele>26.5</ele>
        <time>2023-07-05T12:55:17Z</time>
      </trkpt>
      <trkpt lat="49.19325" lon="-0.26876">
        <ele>26.5</ele>
        <time>2023-07-05T12:55:18Z</time>
      </trkpt>
      <trkpt lat="49.19325" lon="-0.26877">
        <ele>26.5</ele>
        <time>2023-07-05T12:55:19Z</time>
      </trkpt>
      <trkpt lat="49.19325" lon="-0.26878">
        <ele>26.5</ele>
        <time>2023-07-05T12:55:20Z</time>
      </trkpt>
      <trkpt lat="49.19325" lon="-0.26878">
        <ele>26.5</ele>
        <time>2023-07-05T12:55:21Z</time>
      </trkpt>
      <trkpt lat="49.19325" lon="-0.26879">
        <ele>26.5</ele>
        <time>2023-07-05T12:55:22Z</time>
      </trkpt>
      <trkpt lat="49.19325" lon="-0.2688">
        <ele>26.5</ele>
        <time>2023-07-05T12:55:23Z</time>
      </trkpt>
      <trkpt lat="49.19325" lon="-0.2688">
        <ele>26.5</ele>
        <time>2023-07-05T12:55:24Z</time>
      </trkpt>
      <trkpt lat="49.19325" lon="-0.26881">
        <ele>26.5</ele>
        <time>2023-07-05T12:55:25Z</time>
      </trkpt>
      <trkpt lat="49.19326" lon="-0.26882">
        <ele>26.5</ele>
        <time>2023-07-05T12:55:26Z</time>
      </trkpt>
      <trkpt lat="49.19326" lon="-0.26882">
        <ele>26.5</ele>
        <time>2023-07-05T12:55:27Z</time>
      </trkpt>
      <trkpt lat="49.19326" lon="-0.26883">
        <ele>26.5</ele>
        <time>2023-07-05T12:55:28Z</time>
      </trkpt>
      <trkpt lat="49.19326" lon="-0.26883">
        <ele>26.5</ele>
        <time>2023-07-05T12:55:29Z</time>
      </trkpt>
      <trkpt lat="49.19326" lon="-0.26884">
        <ele>26.5</ele>
        <time>2023-07-05T12:55:36Z</time>
      </trkpt>
      <trkpt lat="49.19326" lon="-0.26885">
        <ele>26.5</ele>
        <time>2023-07-05T12:55:37Z</time>
      </trkpt>
      <trkpt lat="49.19326" lon="-0.26885">
        <ele>26.4</ele>
        <time>2023-07-05T12:55:38Z</time>
      </trkpt>
      <trkpt lat="49.19326" lon="-0.26892">
        <ele>26.4</ele>
        <time>2023-07-05T12:55:39Z</time>
      </trkpt>
      <trkpt lat="49.19327" lon="-0.26894">
        <ele>26.4</ele>
        <time>2023-07-05T12:55:40Z</time>
      </trkpt>
      <trkpt lat="49.19328" lon="-0.269">
        <ele>26.4</ele>
        <time>2023-07-05T12:55:41Z</time>
      </trkpt>
      <trkpt lat="49.19329" lon="-0.26907">
        <ele>26.3</ele>
        <time>2023-07-05T12:55:42Z</time>
      </trkpt>
      <trkpt lat="49.1933" lon="-0.26914">
        <ele>26.2</ele>
        <time>2023-07-05T12:55:43Z</time>
      </trkpt>
      <trkpt lat="49.19331" lon="-0.26921">
        <ele>26.2</ele>
        <time>2023-07-05T12:55:44Z</time>
      </trkpt>
      <trkpt lat="49.19332" lon="-0.26929">
        <ele>26.1</ele>
        <time>2023-07-05T12:55:45Z</time>
      </trkpt>
      <trkpt lat="49.19333" lon="-0.26938">
        <ele>26</ele>
        <time>2023-07-05T12:55:46Z</time>
      </trkpt>
      <trkpt lat="49.19335" lon="-0.26946">
        <ele>25.9</ele>
        <time>2023-07-05T12:55:47Z</time>
      </trkpt>
      <trkpt lat="49.19336" lon="-0.26956">
        <ele>25.9</ele>
        <time>2023-07-05T12:55:48Z</time>
      </trkpt>
      <trkpt lat="49.19337" lon="-0.26964">
        <ele>25.8</ele>
        <time>2023-07-05T12:55:49Z</time>
      </trkpt>
      <trkpt lat="49.19338" lon="-0.26973">
        <ele>25.7</ele>
        <time>2023-07-05T12:55:50Z</time>
      </trkpt>
      <trkpt lat="49.19339" lon="-0.26982">
        <ele>25.7</ele>
        <time>2023-07-05T12:55:51Z</time>
      </trkpt>
      <trkpt lat="49.1934" lon="-0.26992">
        <ele>25.6</ele>
        <time>2023-07-05T12:55:52Z</time>
      </trkpt>
      <trkpt lat="49.19341" lon="-0.27001">
        <ele>25.5</ele>
        <time>2023-07-05T12:55:53Z</time>
      </trkpt>
      <trkpt lat="49.19341" lon="-0.27011">
        <ele>25.4</ele>
        <time>2023-07-05T12:55:54Z</time>
      </trkpt>
      <trkpt lat="49.19342" lon="-0.2702">
        <ele>25.4</ele>
        <time>2023-07-05T12:55:55Z</time>
      </trkpt>
      <trkpt lat="49.19343" lon="-0.2703">
        <ele>25.3</ele>
        <time>2023-07-05T12:55:56Z</time>
      </trkpt>
      <trkpt lat="49.19344" lon="-0.27039">
        <ele>25.2</ele>
        <time>2023-07-05T12:55:57Z</time>
      </trkpt>
      <trkpt lat="49.19345" lon="-0.27049">
        <ele>25.1</ele>
        <time>2023-07-05T12:55:58Z</time>
      </trkpt>
      <trkpt lat="49.19346" lon="-0.27058">
        <ele>25</ele>
        <time>2023-07-05T12:55:59Z</time>
      </trkpt>
      <trkpt lat="49.19347" lon="-0.27067">
        <ele>25</ele>
        <time>2023-07-05T12:56:00Z</time>
      </trkpt>
      <trkpt lat="49.19348" lon="-0.27077">
        <ele>24.9</ele>
        <time>2023-07-05T12:56:01Z</time>
      </trkpt>
      <trkpt lat="49.19349" lon="-0.27087">
        <ele>24.8</ele>
        <time>2023-07-05T12:56:02Z</time>
      </trkpt>
      <trkpt lat="49.1935" lon="-0.27096">
        <ele>24.8</ele>
        <time>2023-07-05T12:56:03Z</time>
      </trkpt>
      <trkpt lat="49.19351" lon="-0.27106">
        <ele>24.7</ele>
        <time>2023-07-05T12:56:04Z</time>
      </trkpt>
      <trkpt lat="49.19352" lon="-0.27116">
        <ele>24.7</ele>
        <time>2023-07-05T12:56:05Z</time>
      </trkpt>
      <trkpt lat="49.19353" lon="-0.27126">
        <ele>24.6</ele>
        <time>2023-07-05T12:56:06Z</time>
      </trkpt>
      <trkpt lat="49.19354" lon="-0.27136">
        <ele>24.6</ele>
        <time>2023-07-05T12:56:07Z</time>
      </trkpt>
      <trkpt lat="49.19355" lon="-0.27146">
        <ele>24.5</ele>
        <time>2023-07-05T12:56:08Z</time>
      </trkpt>
      <trkpt lat="49.19356" lon="-0.27156">
        <ele>24.5</ele>
        <time>2023-07-05T12:56:09Z</time>
      </trkpt>
      <trkpt lat="49.19357" lon="-0.27166">
        <ele>24.4</ele>
        <time>2023-07-05T12:56:10Z</time>
      </trkpt>
      <trkpt lat="49.19358" lon="-0.27176">
        <ele>24.4</ele>
        <time>2023-07-05T12:56:11Z</time>
      </trkpt>
      <trkpt lat="49.19359" lon="-0.27186">
        <ele>24.4</ele>
        <time>2023-07-05T12:56:12Z</time>
      </trkpt>
      <trkpt lat="49.1936" lon="-0.27196">
        <ele>24.3</ele>
        <time>2023-07-05T12:56:13Z</time>
      </trkpt>
      <trkpt lat="49.19361" lon="-0.27206">
        <ele>24.3</ele>
        <time>2023-07-05T12:56:14Z</time>
      </trkpt>
      <trkpt lat="49.19362" lon="-0.27216">
        <ele>24.2</ele>
        <time>2023-07-05T12:56:15Z</time>
      </trkpt>
      <trkpt lat="49.19364" lon="-0.27226">
        <ele>24.2</ele>
        <time>2023-07-05T12:56:16Z</time>
      </trkpt>
      <trkpt lat="49.19365" lon="-0.27236">
        <ele>24.2</ele>
        <time>2023-07-05T12:56:17Z</time>
      </trkpt>
      <trkpt lat="49.19366" lon="-0.27246">
        <ele>24.2</ele>
        <time>2023-07-05T12:56:18Z</time>
      </trkpt>
      <trkpt lat="49.19367" lon="-0.27256">
        <ele>24.2</ele>
        <time>2023-07-05T12:56:19Z</time>
      </trkpt>
      <trkpt lat="49.19368" lon="-0.27266">
        <ele>24.1</ele>
        <time>2023-07-05T12:56:20Z</time>
      </trkpt>
      <trkpt lat="49.19369" lon="-0.27277">
        <ele>24.1</ele>
        <time>2023-07-05T12:56:21Z</time>
      </trkpt>
      <trkpt lat="49.1937" lon="-0.27286">
        <ele>24.1</ele>
        <time>2023-07-05T12:56:22Z</time>
      </trkpt>
      <trkpt lat="49.19371" lon="-0.27297">
        <ele>24.1</ele>
        <time>2023-07-05T12:56:23Z</time>
      </trkpt>
      <trkpt lat="49.19372" lon="-0.27306">
        <ele>24.1</ele>
        <time>2023-07-05T12:56:24Z</time>
      </trkpt>
      <trkpt lat="49.19374" lon="-0.27316">
        <ele>24</ele>
        <time>2023-07-05T12:56:25Z</time>
      </trkpt>
      <trkpt lat="49.19375" lon="-0.27326">
        <ele>24</ele>
        <time>2023-07-05T12:56:26Z</time>
      </trkpt>
      <trkpt lat="49.19377" lon="-0.27336">
        <ele>24</ele>
        <time>2023-07-05T12:56:27Z</time>
      </trkpt>
      <trkpt lat="49.19379" lon="-0.27346">
        <ele>24</ele>
        <time>2023-07-05T12:56:28Z</time>
      </trkpt>
      <trkpt lat="49.19381" lon="-0.27356">
        <ele>24</ele>
        <time>2023-07-05T12:56:29Z</time>
      </trkpt>
      <trkpt lat="49.19383" lon="-0.27366">
        <ele>24</ele>
        <time>2023-07-05T12:56:30Z</time>
      </trkpt>
      <trkpt lat="49.19386" lon="-0.27376">
        <ele>24</ele>
        <time>2023-07-05T12:56:31Z</time>
      </trkpt>
      <trkpt lat="49.19388" lon="-0.27385">
        <ele>24</ele>
        <time>2023-07-05T12:56:32Z</time>
      </trkpt>
      <trkpt lat="49.19391" lon="-0.27395">
        <ele>24</ele>
        <time>2023-07-05T12:56:33Z</time>
      </trkpt>
      <trkpt lat="49.19393" lon="-0.27405">
        <ele>24</ele>
        <time>2023-07-05T12:56:34Z</time>
      </trkpt>
      <trkpt lat="49.19396" lon="-0.27415">
        <ele>24</ele>
        <time>2023-07-05T12:56:35Z</time>
      </trkpt>
      <trkpt lat="49.19399" lon="-0.27426">
        <ele>24</ele>
        <time>2023-07-05T12:56:36Z</time>
      </trkpt>
      <trkpt lat="49.19401" lon="-0.27436">
        <ele>24</ele>
        <time>2023-07-05T12:56:37Z</time>
      </trkpt>
      <trkpt lat="49.19404" lon="-0.27446">
        <ele>24.1</ele>
        <time>2023-07-05T12:56:38Z</time>
      </trkpt>
      <trkpt lat="49.19408" lon="-0.27455">
        <ele>24.1</ele>
        <time>2023-07-05T12:56:39Z</time>
      </trkpt>
      <trkpt lat="49.19412" lon="-0.27464">
        <ele>24.1</ele>
        <time>2023-07-05T12:56:40Z</time>
      </trkpt>
      <trkpt lat="49.19416" lon="-0.27474">
        <ele>24.1</ele>
        <time>2023-07-05T12:56:41Z</time>
      </trkpt>
      <trkpt lat="49.19418" lon="-0.27483">
        <ele>24.2</ele>
        <time>2023-07-05T12:56:42Z</time>
      </trkpt>
      <trkpt lat="49.19421" lon="-0.27492">
        <ele>24.2</ele>
        <time>2023-07-05T12:56:43Z</time>
      </trkpt>
      <trkpt lat="49.19425" lon="-0.27501">
        <ele>24.2</ele>
        <time>2023-07-05T12:56:44Z</time>
      </trkpt>
      <trkpt lat="49.19428" lon="-0.27509">
        <ele>24.2</ele>
        <time>2023-07-05T12:56:45Z</time>
      </trkpt>
      <trkpt lat="49.1943" lon="-0.27518">
        <ele>24.3</ele>
        <time>2023-07-05T12:56:46Z</time>
      </trkpt>
      <trkpt lat="49.19433" lon="-0.27527">
        <ele>24.3</ele>
        <time>2023-07-05T12:56:47Z</time>
      </trkpt>
      <trkpt lat="49.19436" lon="-0.27536">
        <ele>24.3</ele>
        <time>2023-07-05T12:56:48Z</time>
      </trkpt>
      <trkpt lat="49.19439" lon="-0.27545">
        <ele>24.4</ele>
        <time>2023-07-05T12:56:49Z</time>
      </trkpt>
      <trkpt lat="49.19442" lon="-0.27554">
        <ele>24.4</ele>
        <time>2023-07-05T12:56:50Z</time>
      </trkpt>
      <trkpt lat="49.19446" lon="-0.27563">
        <ele>24.4</ele>
        <time>2023-07-05T12:56:51Z</time>
      </trkpt>
      <trkpt lat="49.19449" lon="-0.27572">
        <ele>24.5</ele>
        <time>2023-07-05T12:56:52Z</time>
      </trkpt>
      <trkpt lat="49.19451" lon="-0.27581">
        <ele>24.5</ele>
        <time>2023-07-05T12:56:53Z</time>
      </trkpt>
      <trkpt lat="49.19454" lon="-0.2759">
        <ele>24.5</ele>
        <time>2023-07-05T12:56:54Z</time>
      </trkpt>
      <trkpt lat="49.19456" lon="-0.27599">
        <ele>24.6</ele>
        <time>2023-07-05T12:56:55Z</time>
      </trkpt>
      <trkpt lat="49.19459" lon="-0.27609">
        <ele>24.6</ele>
        <time>2023-07-05T12:56:56Z</time>
      </trkpt>
      <trkpt lat="49.19462" lon="-0.27618">
        <ele>24.6</ele>
        <time>2023-07-05T12:56:57Z</time>
      </trkpt>
      <trkpt lat="49.19465" lon="-0.27627">
        <ele>24.6</ele>
        <time>2023-07-05T12:56:58Z</time>
      </trkpt>
      <trkpt lat="49.19467" lon="-0.27636">
        <ele>24.6</ele>
        <time>2023-07-05T12:56:59Z</time>
      </trkpt>
      <trkpt lat="49.19469" lon="-0.27646">
        <ele>24.6</ele>
        <time>2023-07-05T12:57:00Z</time>
      </trkpt>
      <trkpt lat="49.19471" lon="-0.27655">
        <ele>24.6</ele>
        <time>2023-07-05T12:57:01Z</time>
      </trkpt>
      <trkpt lat="49.19473" lon="-0.27664">
        <ele>24.6</ele>
        <time>2023-07-05T12:57:02Z</time>
      </trkpt>
      <trkpt lat="49.19474" lon="-0.27674">
        <ele>24.6</ele>
        <time>2023-07-05T12:57:03Z</time>
      </trkpt>
      <trkpt lat="49.19476" lon="-0.27684">
        <ele>24.6</ele>
        <time>2023-07-05T12:57:04Z</time>
      </trkpt>
      <trkpt lat="49.19477" lon="-0.27693">
        <ele>24.6</ele>
        <time>2023-07-05T12:57:05Z</time>
      </trkpt>
      <trkpt lat="49.19478" lon="-0.27703">
        <ele>24.6</ele>
        <time>2023-07-05T12:57:06Z</time>
      </trkpt>
      <trkpt lat="49.19479" lon="-0.27712">
        <ele>24.6</ele>
        <time>2023-07-05T12:57:07Z</time>
      </trkpt>
      <trkpt lat="49.1948" lon="-0.27722">
        <ele>24.6</ele>
        <time>2023-07-05T12:57:08Z</time>
      </trkpt>
      <trkpt lat="49.19481" lon="-0.27732">
        <ele>24.6</ele>
        <time>2023-07-05T12:57:09Z</time>
      </trkpt>
      <trkpt lat="49.19482" lon="-0.27742">
        <ele>24.6</ele>
        <time>2023-07-05T12:57:10Z</time>
      </trkpt>
      <trkpt lat="49.19483" lon="-0.27751">
        <ele>24.6</ele>
        <time>2023-07-05T12:57:11Z</time>
      </trkpt>
      <trkpt lat="49.19484" lon="-0.27761">
        <ele>24.6</ele>
        <time>2023-07-05T12:57:12Z</time>
      </trkpt>
      <trkpt lat="49.19485" lon="-0.2777">
        <ele>24.6</ele>
        <time>2023-07-05T12:57:13Z</time>
      </trkpt>
      <trkpt lat="49.19485" lon="-0.2778">
        <ele>24.6</ele>
        <time>2023-07-05T12:57:14Z</time>
      </trkpt>
      <trkpt lat="49.19486" lon="-0.27789">
        <ele>24.6</ele>
        <time>2023-07-05T12:57:15Z</time>
      </trkpt>
      <trkpt lat="49.19486" lon="-0.27798">
        <ele>24.6</ele>
        <time>2023-07-05T12:57:16Z</time>
      </trkpt>
      <trkpt lat="49.19487" lon="-0.27808">
        <ele>24.6</ele>
        <time>2023-07-05T12:57:17Z</time>
      </trkpt>
      <trkpt lat="49.19488" lon="-0.27818">
        <ele>24.6</ele>
        <time>2023-07-05T12:57:18Z</time>
      </trkpt>
      <trkpt lat="49.19488" lon="-0.27827">
        <ele>24.7</ele>
        <time>2023-07-05T12:57:19Z</time>
      </trkpt>
      <trkpt lat="49.19488" lon="-0.27837">
        <ele>24.7</ele>
        <time>2023-07-05T12:57:20Z</time>
      </trkpt>
      <trkpt lat="49.19489" lon="-0.27848">
        <ele>24.7</ele>
        <time>2023-07-05T12:57:21Z</time>
      </trkpt>
      <trkpt lat="49.19489" lon="-0.27858">
        <ele>24.8</ele>
        <time>2023-07-05T12:57:22Z</time>
      </trkpt>
      <trkpt lat="49.1949" lon="-0.27867">
        <ele>24.9</ele>
        <time>2023-07-05T12:57:23Z</time>
      </trkpt>
      <trkpt lat="49.19491" lon="-0.27877">
        <ele>24.9</ele>
        <time>2023-07-05T12:57:24Z</time>
      </trkpt>
      <trkpt lat="49.19491" lon="-0.27887">
        <ele>25</ele>
        <time>2023-07-05T12:57:25Z</time>
      </trkpt>
      <trkpt lat="49.19492" lon="-0.27897">
        <ele>25.1</ele>
        <time>2023-07-05T12:57:26Z</time>
      </trkpt>
      <trkpt lat="49.19492" lon="-0.27907">
        <ele>25.2</ele>
        <time>2023-07-05T12:57:27Z</time>
      </trkpt>
      <trkpt lat="49.19494" lon="-0.27917">
        <ele>25.2</ele>
        <time>2023-07-05T12:57:28Z</time>
      </trkpt>
      <trkpt lat="49.19495" lon="-0.27927">
        <ele>25.3</ele>
        <time>2023-07-05T12:57:29Z</time>
      </trkpt>
      <trkpt lat="49.19496" lon="-0.27937">
        <ele>25.4</ele>
        <time>2023-07-05T12:57:30Z</time>
      </trkpt>
      <trkpt lat="49.19498" lon="-0.27947">
        <ele>25.5</ele>
        <time>2023-07-05T12:57:31Z</time>
      </trkpt>
      <trkpt lat="49.195" lon="-0.27956">
        <ele>25.5</ele>
        <time>2023-07-05T12:57:32Z</time>
      </trkpt>
      <trkpt lat="49.19502" lon="-0.27965">
        <ele>25.5</ele>
        <time>2023-07-05T12:57:33Z</time>
      </trkpt>
      <trkpt lat="49.19504" lon="-0.27975">
        <ele>25.5</ele>
        <time>2023-07-05T12:57:34Z</time>
      </trkpt>
      <trkpt lat="49.19507" lon="-0.27984">
        <ele>25.5</ele>
        <time>2023-07-05T12:57:35Z</time>
      </trkpt>
      <trkpt lat="49.19511" lon="-0.27993">
        <ele>25.5</ele>
        <time>2023-07-05T12:57:36Z</time>
      </trkpt>
      <trkpt lat="49.19516" lon="-0.28001">
        <ele>25.5</ele>
        <time>2023-07-05T12:57:37Z</time>
      </trkpt>
      <trkpt lat="49.19522" lon="-0.28008">
        <ele>25.5</ele>
        <time>2023-07-05T12:57:38Z</time>
      </trkpt>
      <trkpt lat="49.19527" lon="-0.28015">
        <ele>25.6</ele>
        <time>2023-07-05T12:57:39Z</time>
      </trkpt>
      <trkpt lat="49.19531" lon="-0.28023">
        <ele>25.6</ele>
        <time>2023-07-05T12:57:40Z</time>
      </trkpt>
      <trkpt lat="49.19531" lon="-0.28034">
        <ele>25.7</ele>
        <time>2023-07-05T12:57:41Z</time>
      </trkpt>
      <trkpt lat="49.19529" lon="-0.28044">
        <ele>25.7</ele>
        <time>2023-07-05T12:57:42Z</time>
      </trkpt>
      <trkpt lat="49.19528" lon="-0.28055">
        <ele>25.8</ele>
        <time>2023-07-05T12:57:43Z</time>
      </trkpt>
      <trkpt lat="49.19527" lon="-0.28065">
        <ele>25.8</ele>
        <time>2023-07-05T12:57:44Z</time>
      </trkpt>
      <trkpt lat="49.19527" lon="-0.28075">
        <ele>25.8</ele>
        <time>2023-07-05T12:57:45Z</time>
      </trkpt>
      <trkpt lat="49.1953" lon="-0.28085">
        <ele>25.8</ele>
        <time>2023-07-05T12:57:46Z</time>
      </trkpt>
      <trkpt lat="49.19532" lon="-0.28094">
        <ele>25.9</ele>
        <time>2023-07-05T12:57:47Z</time>
      </trkpt>
      <trkpt lat="49.19535" lon="-0.28103">
        <ele>25.9</ele>
        <time>2023-07-05T12:57:48Z</time>
      </trkpt>
      <trkpt lat="49.19537" lon="-0.28113">
        <ele>25.9</ele>
        <time>2023-07-05T12:57:49Z</time>
      </trkpt>
      <trkpt lat="49.19539" lon="-0.28121">
        <ele>25.9</ele>
        <time>2023-07-05T12:57:50Z</time>
      </trkpt>
      <trkpt lat="49.19542" lon="-0.2813">
        <ele>25.9</ele>
        <time>2023-07-05T12:57:51Z</time>
      </trkpt>
      <trkpt lat="49.19545" lon="-0.28138">
        <ele>26</ele>
        <time>2023-07-05T12:57:52Z</time>
      </trkpt>
      <trkpt lat="49.19547" lon="-0.28147">
        <ele>26</ele>
        <time>2023-07-05T12:57:53Z</time>
      </trkpt>
      <trkpt lat="49.1955" lon="-0.28155">
        <ele>26</ele>
        <time>2023-07-05T12:57:54Z</time>
      </trkpt>
      <trkpt lat="49.19553" lon="-0.28164">
        <ele>26</ele>
        <time>2023-07-05T12:57:55Z</time>
      </trkpt>
      <trkpt lat="49.19556" lon="-0.28173">
        <ele>26</ele>
        <time>2023-07-05T12:57:56Z</time>
      </trkpt>
      <trkpt lat="49.19559" lon="-0.28182">
        <ele>26.1</ele>
        <time>2023-07-05T12:57:57Z</time>
      </trkpt>
      <trkpt lat="49.19562" lon="-0.28191">
        <ele>26.1</ele>
        <time>2023-07-05T12:57:58Z</time>
      </trkpt>
      <trkpt lat="49.19564" lon="-0.28199">
        <ele>26.1</ele>
        <time>2023-07-05T12:57:59Z</time>
      </trkpt>
      <trkpt lat="49.19567" lon="-0.28208">
        <ele>26.1</ele>
        <time>2023-07-05T12:58:00Z</time>
      </trkpt>
      <trkpt lat="49.1957" lon="-0.28218">
        <ele>26.2</ele>
        <time>2023-07-05T12:58:01Z</time>
      </trkpt>
      <trkpt lat="49.19573" lon="-0.28227">
        <ele>26.2</ele>
        <time>2023-07-05T12:58:02Z</time>
      </trkpt>
      <trkpt lat="49.19576" lon="-0.28235">
        <ele>26.3</ele>
        <time>2023-07-05T12:58:03Z</time>
      </trkpt>
      <trkpt lat="49.19579" lon="-0.28244">
        <ele>26.3</ele>
        <time>2023-07-05T12:58:04Z</time>
      </trkpt>
      <trkpt lat="49.19582" lon="-0.28252">
        <ele>26.3</ele>
        <time>2023-07-05T12:58:05Z</time>
      </trkpt>
      <trkpt lat="49.19584" lon="-0.28261">
        <ele>26.4</ele>
        <time>2023-07-05T12:58:06Z</time>
      </trkpt>
      <trkpt lat="49.19587" lon="-0.2827">
        <ele>26.4</ele>
        <time>2023-07-05T12:58:07Z</time>
      </trkpt>
      <trkpt lat="49.1959" lon="-0.28279">
        <ele>26.4</ele>
        <time>2023-07-05T12:58:08Z</time>
      </trkpt>
      <trkpt lat="49.19593" lon="-0.28288">
        <ele>26.4</ele>
        <time>2023-07-05T12:58:09Z</time>
      </trkpt>
      <trkpt lat="49.19596" lon="-0.28297">
        <ele>26.4</ele>
        <time>2023-07-05T12:58:10Z</time>
      </trkpt>
      <trkpt lat="49.19598" lon="-0.28307">
        <ele>26.5</ele>
        <time>2023-07-05T12:58:11Z</time>
      </trkpt>
      <trkpt lat="49.19601" lon="-0.28316">
        <ele>26.5</ele>
        <time>2023-07-05T12:58:12Z</time>
      </trkpt>
      <trkpt lat="49.19604" lon="-0.28325">
        <ele>26.6</ele>
        <time>2023-07-05T12:58:13Z</time>
      </trkpt>
      <trkpt lat="49.19607" lon="-0.28335">
        <ele>26.6</ele>
        <time>2023-07-05T12:58:14Z</time>
      </trkpt>
      <trkpt lat="49.1961" lon="-0.28345">
        <ele>26.6</ele>
        <time>2023-07-05T12:58:15Z</time>
      </trkpt>
      <trkpt lat="49.19613" lon="-0.28355">
        <ele>26.7</ele>
        <time>2023-07-05T12:58:16Z</time>
      </trkpt>
      <trkpt lat="49.19616" lon="-0.28364">
        <ele>26.7</ele>
        <time>2023-07-05T12:58:17Z</time>
      </trkpt>
      <trkpt lat="49.19619" lon="-0.28374">
        <ele>26.8</ele>
        <time>2023-07-05T12:58:18Z</time>
      </trkpt>
      <trkpt lat="49.19622" lon="-0.28383">
        <ele>26.8</ele>
        <time>2023-07-05T12:58:19Z</time>
      </trkpt>
      <trkpt lat="49.19625" lon="-0.28392">
        <ele>26.9</ele>
        <time>2023-07-05T12:58:20Z</time>
      </trkpt>
      <trkpt lat="49.19627" lon="-0.28401">
        <ele>26.9</ele>
        <time>2023-07-05T12:58:21Z</time>
      </trkpt>
      <trkpt lat="49.1963" lon="-0.2841">
        <ele>27</ele>
        <time>2023-07-05T12:58:22Z</time>
      </trkpt>
      <trkpt lat="49.19633" lon="-0.28419">
        <ele>27</ele>
        <time>2023-07-05T12:58:23Z</time>
      </trkpt>
      <trkpt lat="49.19636" lon="-0.28428">
        <ele>27.1</ele>
        <time>2023-07-05T12:58:24Z</time>
      </trkpt>
      <trkpt lat="49.19639" lon="-0.28438">
        <ele>27.1</ele>
        <time>2023-07-05T12:58:25Z</time>
      </trkpt>
      <trkpt lat="49.19641" lon="-0.28446">
        <ele>27.2</ele>
        <time>2023-07-05T12:58:26Z</time>
      </trkpt>
      <trkpt lat="49.19644" lon="-0.28455">
        <ele>27.3</ele>
        <time>2023-07-05T12:58:27Z</time>
      </trkpt>
      <trkpt lat="49.19646" lon="-0.28464">
        <ele>27.4</ele>
        <time>2023-07-05T12:58:28Z</time>
      </trkpt>
      <trkpt lat="49.19649" lon="-0.28472">
        <ele>27.5</ele>
        <time>2023-07-05T12:58:29Z</time>
      </trkpt>
      <trkpt lat="49.19651" lon="-0.28482">
        <ele>27.6</ele>
        <time>2023-07-05T12:58:30Z</time>
      </trkpt>
      <trkpt lat="49.19654" lon="-0.28491">
        <ele>27.7</ele>
        <time>2023-07-05T12:58:31Z</time>
      </trkpt>
      <trkpt lat="49.19657" lon="-0.285">
        <ele>27.7</ele>
        <time>2023-07-05T12:58:32Z</time>
      </trkpt>
      <trkpt lat="49.19659" lon="-0.28509">
        <ele>27.8</ele>
        <time>2023-07-05T12:58:33Z</time>
      </trkpt>
      <trkpt lat="49.19662" lon="-0.28518">
        <ele>27.9</ele>
        <time>2023-07-05T12:58:34Z</time>
      </trkpt>
      <trkpt lat="49.19665" lon="-0.28528">
        <ele>28</ele>
        <time>2023-07-05T12:58:35Z</time>
      </trkpt>
      <trkpt lat="49.19667" lon="-0.28538">
        <ele>28.1</ele>
        <time>2023-07-05T12:58:36Z</time>
      </trkpt>
      <trkpt lat="49.19669" lon="-0.28548">
        <ele>28.2</ele>
        <time>2023-07-05T12:58:37Z</time>
      </trkpt>
      <trkpt lat="49.19672" lon="-0.28557">
        <ele>28.3</ele>
        <time>2023-07-05T12:58:38Z</time>
      </trkpt>
      <trkpt lat="49.19674" lon="-0.28567">
        <ele>28.4</ele>
        <time>2023-07-05T12:58:39Z</time>
      </trkpt>
      <trkpt lat="49.19676" lon="-0.28577">
        <ele>28.4</ele>
        <time>2023-07-05T12:58:40Z</time>
      </trkpt>
      <trkpt lat="49.19679" lon="-0.28587">
        <ele>28.5</ele>
        <time>2023-07-05T12:58:41Z</time>
      </trkpt>
      <trkpt lat="49.19681" lon="-0.28596">
        <ele>28.6</ele>
        <time>2023-07-05T12:58:42Z</time>
      </trkpt>
      <trkpt lat="49.19684" lon="-0.28606">
        <ele>28.6</ele>
        <time>2023-07-05T12:58:43Z</time>
      </trkpt>
      <trkpt lat="49.19687" lon="-0.28616">
        <ele>28.7</ele>
        <time>2023-07-05T12:58:44Z</time>
      </trkpt>
      <trkpt lat="49.19689" lon="-0.28626">
        <ele>28.8</ele>
        <time>2023-07-05T12:58:45Z</time>
      </trkpt>
      <trkpt lat="49.19691" lon="-0.28635">
        <ele>28.9</ele>
        <time>2023-07-05T12:58:46Z</time>
      </trkpt>
      <trkpt lat="49.19694" lon="-0.28645">
        <ele>29</ele>
        <time>2023-07-05T12:58:47Z</time>
      </trkpt>
      <trkpt lat="49.19696" lon="-0.28655">
        <ele>29.1</ele>
        <time>2023-07-05T12:58:48Z</time>
      </trkpt>
      <trkpt lat="49.19698" lon="-0.28664">
        <ele>29.2</ele>
        <time>2023-07-05T12:58:49Z</time>
      </trkpt>
      <trkpt lat="49.197" lon="-0.28674">
        <ele>29.3</ele>
        <time>2023-07-05T12:58:50Z</time>
      </trkpt>
      <trkpt lat="49.19702" lon="-0.28683">
        <ele>29.4</ele>
        <time>2023-07-05T12:58:51Z</time>
      </trkpt>
      <trkpt lat="49.19705" lon="-0.28692">
        <ele>29.5</ele>
        <time>2023-07-05T12:58:52Z</time>
      </trkpt>
      <trkpt lat="49.19707" lon="-0.28702">
        <ele>29.6</ele>
        <time>2023-07-05T12:58:53Z</time>
      </trkpt>
      <trkpt lat="49.19709" lon="-0.28711">
        <ele>29.7</ele>
        <time>2023-07-05T12:58:54Z</time>
      </trkpt>
      <trkpt lat="49.19712" lon="-0.2872">
        <ele>29.8</ele>
        <time>2023-07-05T12:58:55Z</time>
      </trkpt>
      <trkpt lat="49.19715" lon="-0.28728">
        <ele>29.9</ele>
        <time>2023-07-05T12:58:56Z</time>
      </trkpt>
      <trkpt lat="49.19718" lon="-0.28737">
        <ele>29.9</ele>
        <time>2023-07-05T12:58:57Z</time>
      </trkpt>
      <trkpt lat="49.19721" lon="-0.28746">
        <ele>30</ele>
        <time>2023-07-05T12:58:58Z</time>
      </trkpt>
      <trkpt lat="49.19724" lon="-0.28755">
        <ele>30.1</ele>
        <time>2023-07-05T12:58:59Z</time>
      </trkpt>
      <trkpt lat="49.19726" lon="-0.28765">
        <ele>30.2</ele>
        <time>2023-07-05T12:59:00Z</time>
      </trkpt>
      <trkpt lat="49.19728" lon="-0.28775">
        <ele>30.3</ele>
        <time>2023-07-05T12:59:01Z</time>
      </trkpt>
      <trkpt lat="49.1973" lon="-0.28784">
        <ele>30.4</ele>
        <time>2023-07-05T12:59:02Z</time>
      </trkpt>
      <trkpt lat="49.19732" lon="-0.28793">
        <ele>30.5</ele>
        <time>2023-07-05T12:59:03Z</time>
      </trkpt>
      <trkpt lat="49.19735" lon="-0.28801">
        <ele>30.6</ele>
        <time>2023-07-05T12:59:04Z</time>
      </trkpt>
      <trkpt lat="49.19738" lon="-0.2881">
        <ele>30.6</ele>
        <time>2023-07-05T12:59:05Z</time>
      </trkpt>
      <trkpt lat="49.19741" lon="-0.28818">
        <ele>30.7</ele>
        <time>2023-07-05T12:59:06Z</time>
      </trkpt>
      <trkpt lat="49.19744" lon="-0.28827">
        <ele>30.8</ele>
        <time>2023-07-05T12:59:07Z</time>
      </trkpt>
      <trkpt lat="49.19748" lon="-0.28836">
        <ele>30.9</ele>
        <time>2023-07-05T12:59:08Z</time>
      </trkpt>
      <trkpt lat="49.19751" lon="-0.28845">
        <ele>31</ele>
        <time>2023-07-05T12:59:09Z</time>
      </trkpt>
      <trkpt lat="49.19755" lon="-0.28854">
        <ele>31.1</ele>
        <time>2023-07-05T12:59:10Z</time>
      </trkpt>
      <trkpt lat="49.19759" lon="-0.28863">
        <ele>31.2</ele>
        <time>2023-07-05T12:59:11Z</time>
      </trkpt>
      <trkpt lat="49.19762" lon="-0.28872">
        <ele>31.3</ele>
        <time>2023-07-05T12:59:12Z</time>
      </trkpt>
      <trkpt lat="49.19766" lon="-0.2888">
        <ele>31.4</ele>
        <time>2023-07-05T12:59:13Z</time>
      </trkpt>
      <trkpt lat="49.1977" lon="-0.28889">
        <ele>31.5</ele>
        <time>2023-07-05T12:59:14Z</time>
      </trkpt>
      <trkpt lat="49.19774" lon="-0.28899">
        <ele>31.6</ele>
        <time>2023-07-05T12:59:15Z</time>
      </trkpt>
      <trkpt lat="49.19778" lon="-0.28908">
        <ele>31.7</ele>
        <time>2023-07-05T12:59:16Z</time>
      </trkpt>
      <trkpt lat="49.19782" lon="-0.28917">
        <ele>31.9</ele>
        <time>2023-07-05T12:59:17Z</time>
      </trkpt>
      <trkpt lat="49.19786" lon="-0.28926">
        <ele>32</ele>
        <time>2023-07-05T12:59:18Z</time>
      </trkpt>
      <trkpt lat="49.1979" lon="-0.28935">
        <ele>32.1</ele>
        <time>2023-07-05T12:59:19Z</time>
      </trkpt>
      <trkpt lat="49.19794" lon="-0.28944">
        <ele>32.2</ele>
        <time>2023-07-05T12:59:20Z</time>
      </trkpt>
      <trkpt lat="49.19798" lon="-0.28953">
        <ele>32.4</ele>
        <time>2023-07-05T12:59:21Z</time>
      </trkpt>
      <trkpt lat="49.19802" lon="-0.28962">
        <ele>32.5</ele>
        <time>2023-07-05T12:59:22Z</time>
      </trkpt>
      <trkpt lat="49.19806" lon="-0.28971">
        <ele>32.6</ele>
        <time>2023-07-05T12:59:23Z</time>
      </trkpt>
      <trkpt lat="49.19809" lon="-0.28979">
        <ele>32.8</ele>
        <time>2023-07-05T12:59:24Z</time>
      </trkpt>
      <trkpt lat="49.19813" lon="-0.28987">
        <ele>32.9</ele>
        <time>2023-07-05T12:59:25Z</time>
      </trkpt>
      <trkpt lat="49.19817" lon="-0.28996">
        <ele>33</ele>
        <time>2023-07-05T12:59:26Z</time>
      </trkpt>
      <trkpt lat="49.19821" lon="-0.29004">
        <ele>33.2</ele>
        <time>2023-07-05T12:59:27Z</time>
      </trkpt>
      <trkpt lat="49.19825" lon="-0.29012">
        <ele>33.3</ele>
        <time>2023-07-05T12:59:28Z</time>
      </trkpt>
      <trkpt lat="49.19829" lon="-0.29021">
        <ele>33.4</ele>
        <time>2023-07-05T12:59:29Z</time>
      </trkpt>
      <trkpt lat="49.19834" lon="-0.29029">
        <ele>33.5</ele>
        <time>2023-07-05T12:59:30Z</time>
      </trkpt>
      <trkpt lat="49.19837" lon="-0.29037">
        <ele>33.7</ele>
        <time>2023-07-05T12:59:31Z</time>
      </trkpt>
      <trkpt lat="49.19841" lon="-0.29046">
        <ele>33.8</ele>
        <time>2023-07-05T12:59:32Z</time>
      </trkpt>
      <trkpt lat="49.19845" lon="-0.29055">
        <ele>33.9</ele>
        <time>2023-07-05T12:59:33Z</time>
      </trkpt>
      <trkpt lat="49.19849" lon="-0.29064">
        <ele>34.1</ele>
        <time>2023-07-05T12:59:34Z</time>
      </trkpt>
      <trkpt lat="49.19853" lon="-0.29073">
        <ele>34.2</ele>
        <time>2023-07-05T12:59:35Z</time>
      </trkpt>
      <trkpt lat="49.19857" lon="-0.29081">
        <ele>34.3</ele>
        <time>2023-07-05T12:59:36Z</time>
      </trkpt>
      <trkpt lat="49.1986" lon="-0.29089">
        <ele>34.3</ele>
        <time>2023-07-05T12:59:37Z</time>
      </trkpt>
      <trkpt lat="49.19864" lon="-0.29097">
        <ele>34.4</ele>
        <time>2023-07-05T12:59:38Z</time>
      </trkpt>
      <trkpt lat="49.19868" lon="-0.29105">
        <ele>34.5</ele>
        <time>2023-07-05T12:59:39Z</time>
      </trkpt>
      <trkpt lat="49.19872" lon="-0.29113">
        <ele>34.5</ele>
        <time>2023-07-05T12:59:40Z</time>
      </trkpt>
      <trkpt lat="49.19875" lon="-0.29121">
        <ele>34.6</ele>
        <time>2023-07-05T12:59:41Z</time>
      </trkpt>
      <trkpt lat="49.19878" lon="-0.29127">
        <ele>34.6</ele>
        <time>2023-07-05T12:59:42Z</time>
      </trkpt>
      <trkpt lat="49.19881" lon="-0.29134">
        <ele>34.7</ele>
        <time>2023-07-05T12:59:43Z</time>
      </trkpt>
      <trkpt lat="49.19884" lon="-0.29141">
        <ele>34.8</ele>
        <time>2023-07-05T12:59:44Z</time>
      </trkpt>
      <trkpt lat="49.19887" lon="-0.29147">
        <ele>34.8</ele>
        <time>2023-07-05T12:59:45Z</time>
      </trkpt>
      <trkpt lat="49.1989" lon="-0.29152">
        <ele>34.9</ele>
        <time>2023-07-05T12:59:46Z</time>
      </trkpt>
      <trkpt lat="49.19893" lon="-0.29157">
        <ele>34.9</ele>
        <time>2023-07-05T12:59:47Z</time>
      </trkpt>
      <trkpt lat="49.19895" lon="-0.29162">
        <ele>35</ele>
        <time>2023-07-05T12:59:48Z</time>
      </trkpt>
      <trkpt lat="49.19897" lon="-0.29167">
        <ele>35</ele>
        <time>2023-07-05T12:59:49Z</time>
      </trkpt>
      <trkpt lat="49.19899" lon="-0.29172">
        <ele>35.1</ele>
        <time>2023-07-05T12:59:50Z</time>
      </trkpt>
      <trkpt lat="49.199" lon="-0.29176">
        <ele>35.1</ele>
        <time>2023-07-05T12:59:51Z</time>
      </trkpt>
      <trkpt lat="49.19901" lon="-0.29181">
        <ele>35.2</ele>
        <time>2023-07-05T12:59:52Z</time>
      </trkpt>
      <trkpt lat="49.19902" lon="-0.29185">
        <ele>35.2</ele>
        <time>2023-07-05T12:59:53Z</time>
      </trkpt>
      <trkpt lat="49.19903" lon="-0.29189">
        <ele>35.3</ele>
        <time>2023-07-05T12:59:54Z</time>
      </trkpt>
      <trkpt lat="49.19904" lon="-0.29193">
        <ele>35.3</ele>
        <time>2023-07-05T12:59:55Z</time>
      </trkpt>
      <trkpt lat="49.19905" lon="-0.29198">
        <ele>35.4</ele>
        <time>2023-07-05T12:59:56Z</time>
      </trkpt>
      <trkpt lat="49.19905" lon="-0.292">
        <ele>35.4</ele>
        <time>2023-07-05T12:59:57Z</time>
      </trkpt>
      <trkpt lat="49.19906" lon="-0.29205">
        <ele>35.5</ele>
        <time>2023-07-05T12:59:58Z</time>
      </trkpt>
      <trkpt lat="49.19906" lon="-0.29206">
        <ele>35.5</ele>
        <time>2023-07-05T12:59:59Z</time>
      </trkpt>
      <trkpt lat="49.19906" lon="-0.29211">
        <ele>35.6</ele>
        <time>2023-07-05T13:00:00Z</time>
      </trkpt>
      <trkpt lat="49.19906" lon="-0.29213">
        <ele>35.6</ele>
        <time>2023-07-05T13:00:01Z</time>
      </trkpt>
      <trkpt lat="49.19907" lon="-0.29217">
        <ele>35.6</ele>
        <time>2023-07-05T13:00:02Z</time>
      </trkpt>
      <trkpt lat="49.19908" lon="-0.29219">
        <ele>35.7</ele>
        <time>2023-07-05T13:00:03Z</time>
      </trkpt>
      <trkpt lat="49.1991" lon="-0.29223">
        <ele>35.8</ele>
        <time>2023-07-05T13:00:04Z</time>
      </trkpt>
      <trkpt lat="49.19912" lon="-0.29225">
        <ele>35.8</ele>
        <time>2023-07-05T13:00:05Z</time>
      </trkpt>
      <trkpt lat="49.19914" lon="-0.29228">
        <ele>35.9</ele>
        <time>2023-07-05T13:00:06Z</time>
      </trkpt>
      <trkpt lat="49.19917" lon="-0.29231">
        <ele>36</ele>
        <time>2023-07-05T13:00:07Z</time>
      </trkpt>
      <trkpt lat="49.1992" lon="-0.29233">
        <ele>36.1</ele>
        <time>2023-07-05T13:00:08Z</time>
      </trkpt>
      <trkpt lat="49.19923" lon="-0.29236">
        <ele>36.1</ele>
        <time>2023-07-05T13:00:09Z</time>
      </trkpt>
      <trkpt lat="49.19927" lon="-0.2924">
        <ele>36.2</ele>
        <time>2023-07-05T13:00:10Z</time>
      </trkpt>
      <trkpt lat="49.1993" lon="-0.29244">
        <ele>36.2</ele>
        <time>2023-07-05T13:00:11Z</time>
      </trkpt>
      <trkpt lat="49.19933" lon="-0.29249">
        <ele>36.3</ele>
        <time>2023-07-05T13:00:12Z</time>
      </trkpt>
      <trkpt lat="49.19936" lon="-0.29255">
        <ele>36.4</ele>
        <time>2023-07-05T13:00:13Z</time>
      </trkpt>
      <trkpt lat="49.19938" lon="-0.29262">
        <ele>36.5</ele>
        <time>2023-07-05T13:00:14Z</time>
      </trkpt>
      <trkpt lat="49.19939" lon="-0.29269">
        <ele>36.6</ele>
        <time>2023-07-05T13:00:15Z</time>
      </trkpt>
      <trkpt lat="49.1994" lon="-0.29277">
        <ele>36.6</ele>
        <time>2023-07-05T13:00:16Z</time>
      </trkpt>
      <trkpt lat="49.19939" lon="-0.29284">
        <ele>36.6</ele>
        <time>2023-07-05T13:00:17Z</time>
      </trkpt>
      <trkpt lat="49.19938" lon="-0.29292">
        <ele>36.6</ele>
        <time>2023-07-05T13:00:18Z</time>
      </trkpt>
      <trkpt lat="49.19936" lon="-0.29301">
        <ele>36.6</ele>
        <time>2023-07-05T13:00:19Z</time>
      </trkpt>
      <trkpt lat="49.19935" lon="-0.2931">
        <ele>36.6</ele>
        <time>2023-07-05T13:00:20Z</time>
      </trkpt>
      <trkpt lat="49.19933" lon="-0.29319">
        <ele>36.6</ele>
        <time>2023-07-05T13:00:21Z</time>
      </trkpt>
      <trkpt lat="49.19933" lon="-0.29329">
        <ele>36.5</ele>
        <time>2023-07-05T13:00:22Z</time>
      </trkpt>
      <trkpt lat="49.19935" lon="-0.29338">
        <ele>36.5</ele>
        <time>2023-07-05T13:00:23Z</time>
      </trkpt>
      <trkpt lat="49.19939" lon="-0.29346">
        <ele>36.5</ele>
        <time>2023-07-05T13:00:24Z</time>
      </trkpt>
      <trkpt lat="49.19945" lon="-0.29353">
        <ele>36.5</ele>
        <time>2023-07-05T13:00:25Z</time>
      </trkpt>
      <trkpt lat="49.19951" lon="-0.29359">
        <ele>36.5</ele>
        <time>2023-07-05T13:00:26Z</time>
      </trkpt>
      <trkpt lat="49.19956" lon="-0.29366">
        <ele>36.5</ele>
        <time>2023-07-05T13:00:27Z</time>
      </trkpt>
      <trkpt lat="49.19961" lon="-0.29373">
        <ele>36.5</ele>
        <time>2023-07-05T13:00:28Z</time>
      </trkpt>
      <trkpt lat="49.19966" lon="-0.2938">
        <ele>36.5</ele>
        <time>2023-07-05T13:00:29Z</time>
      </trkpt>
      <trkpt lat="49.1997" lon="-0.29389">
        <ele>36.5</ele>
        <time>2023-07-05T13:00:30Z</time>
      </trkpt>
      <trkpt lat="49.19973" lon="-0.29398">
        <ele>36.6</ele>
        <time>2023-07-05T13:00:31Z</time>
      </trkpt>
      <trkpt lat="49.19976" lon="-0.29407">
        <ele>36.6</ele>
        <time>2023-07-05T13:00:32Z</time>
      </trkpt>
      <trkpt lat="49.19979" lon="-0.29417">
        <ele>36.6</ele>
        <time>2023-07-05T13:00:33Z</time>
      </trkpt>
      <trkpt lat="49.19981" lon="-0.29426">
        <ele>36.7</ele>
        <time>2023-07-05T13:00:34Z</time>
      </trkpt>
      <trkpt lat="49.19983" lon="-0.29437">
        <ele>36.7</ele>
        <time>2023-07-05T13:00:35Z</time>
      </trkpt>
      <trkpt lat="49.19986" lon="-0.29447">
        <ele>36.8</ele>
        <time>2023-07-05T13:00:36Z</time>
      </trkpt>
      <trkpt lat="49.19988" lon="-0.29457">
        <ele>36.8</ele>
        <time>2023-07-05T13:00:37Z</time>
      </trkpt>
      <trkpt lat="49.19991" lon="-0.29467">
        <ele>36.8</ele>
        <time>2023-07-05T13:00:38Z</time>
      </trkpt>
      <trkpt lat="49.19993" lon="-0.29477">
        <ele>36.9</ele>
        <time>2023-07-05T13:00:39Z</time>
      </trkpt>
      <trkpt lat="49.19996" lon="-0.29486">
        <ele>36.9</ele>
        <time>2023-07-05T13:00:40Z</time>
      </trkpt>
      <trkpt lat="49.19999" lon="-0.29495">
        <ele>36.9</ele>
        <time>2023-07-05T13:00:41Z</time>
      </trkpt>
      <trkpt lat="49.20002" lon="-0.29505">
        <ele>36.9</ele>
        <time>2023-07-05T13:00:42Z</time>
      </trkpt>
      <trkpt lat="49.20005" lon="-0.29514">
        <ele>37</ele>
        <time>2023-07-05T13:00:43Z</time>
      </trkpt>
      <trkpt lat="49.20007" lon="-0.29522">
        <ele>37</ele>
        <time>2023-07-05T13:00:44Z</time>
      </trkpt>
      <trkpt lat="49.2001" lon="-0.29531">
        <ele>37.1</ele>
        <time>2023-07-05T13:00:45Z</time>
      </trkpt>
      <trkpt lat="49.20013" lon="-0.2954">
        <ele>37.1</ele>
        <time>2023-07-05T13:00:46Z</time>
      </trkpt>
      <trkpt lat="49.20016" lon="-0.29549">
        <ele>37.2</ele>
        <time>2023-07-05T13:00:47Z</time>
      </trkpt>
      <trkpt lat="49.20019" lon="-0.29559">
        <ele>37.2</ele>
        <time>2023-07-05T13:00:48Z</time>
      </trkpt>
      <trkpt lat="49.20021" lon="-0.29569">
        <ele>37.2</ele>
        <time>2023-07-05T13:00:49Z</time>
      </trkpt>
      <trkpt lat="49.20023" lon="-0.29579">
        <ele>37.3</ele>
        <time>2023-07-05T13:00:50Z</time>
      </trkpt>
      <trkpt lat="49.20025" lon="-0.29588">
        <ele>37.3</ele>
        <time>2023-07-05T13:00:51Z</time>
      </trkpt>
      <trkpt lat="49.20028" lon="-0.29597">
        <ele>37.4</ele>
        <time>2023-07-05T13:00:52Z</time>
      </trkpt>
      <trkpt lat="49.2003" lon="-0.29607">
        <ele>37.4</ele>
        <time>2023-07-05T13:00:53Z</time>
      </trkpt>
      <trkpt lat="49.20032" lon="-0.29617">
        <ele>37.4</ele>
        <time>2023-07-05T13:00:54Z</time>
      </trkpt>
      <trkpt lat="49.20034" lon="-0.29628">
        <ele>37.5</ele>
        <time>2023-07-05T13:00:55Z</time>
      </trkpt>
      <trkpt lat="49.20036" lon="-0.29638">
        <ele>37.5</ele>
        <time>2023-07-05T13:00:56Z</time>
      </trkpt>
      <trkpt lat="49.20037" lon="-0.29647">
        <ele>37.5</ele>
        <time>2023-07-05T13:00:57Z</time>
      </trkpt>
      <trkpt lat="49.20038" lon="-0.29657">
        <ele>37.6</ele>
        <time>2023-07-05T13:00:58Z</time>
      </trkpt>
      <trkpt lat="49.2004" lon="-0.29667">
        <ele>37.6</ele>
        <time>2023-07-05T13:00:59Z</time>
      </trkpt>
      <trkpt lat="49.20041" lon="-0.29678">
        <ele>37.6</ele>
        <time>2023-07-05T13:01:00Z</time>
      </trkpt>
      <trkpt lat="49.20044" lon="-0.29687">
        <ele>37.7</ele>
        <time>2023-07-05T13:01:01Z</time>
      </trkpt>
      <trkpt lat="49.20046" lon="-0.29697">
        <ele>37.7</ele>
        <time>2023-07-05T13:01:02Z</time>
      </trkpt>
      <trkpt lat="49.20048" lon="-0.29706">
        <ele>37.7</ele>
        <time>2023-07-05T13:01:03Z</time>
      </trkpt>
      <trkpt lat="49.20051" lon="-0.29716">
        <ele>37.7</ele>
        <time>2023-07-05T13:01:04Z</time>
      </trkpt>
      <trkpt lat="49.20053" lon="-0.29727">
        <ele>37.6</ele>
        <time>2023-07-05T13:01:05Z</time>
      </trkpt>
      <trkpt lat="49.20055" lon="-0.29737">
        <ele>37.6</ele>
        <time>2023-07-05T13:01:06Z</time>
      </trkpt>
      <trkpt lat="49.20057" lon="-0.29748">
        <ele>37.6</ele>
        <time>2023-07-05T13:01:07Z</time>
      </trkpt>
      <trkpt lat="49.20059" lon="-0.29758">
        <ele>37.6</ele>
        <time>2023-07-05T13:01:08Z</time>
      </trkpt>
      <trkpt lat="49.20062" lon="-0.29769">
        <ele>37.6</ele>
        <time>2023-07-05T13:01:09Z</time>
      </trkpt>
      <trkpt lat="49.20064" lon="-0.29779">
        <ele>37.6</ele>
        <time>2023-07-05T13:01:10Z</time>
      </trkpt>
      <trkpt lat="49.20066" lon="-0.29789">
        <ele>37.6</ele>
        <time>2023-07-05T13:01:11Z</time>
      </trkpt>
      <trkpt lat="49.20068" lon="-0.29799">
        <ele>37.5</ele>
        <time>2023-07-05T13:01:12Z</time>
      </trkpt>
      <trkpt lat="49.2007" lon="-0.29809">
        <ele>37.5</ele>
        <time>2023-07-05T13:01:13Z</time>
      </trkpt>
      <trkpt lat="49.20072" lon="-0.29819">
        <ele>37.5</ele>
        <time>2023-07-05T13:01:14Z</time>
      </trkpt>
      <trkpt lat="49.20074" lon="-0.29828">
        <ele>37.4</ele>
        <time>2023-07-05T13:01:15Z</time>
      </trkpt>
      <trkpt lat="49.20076" lon="-0.29838">
        <ele>37.4</ele>
        <time>2023-07-05T13:01:16Z</time>
      </trkpt>
      <trkpt lat="49.20078" lon="-0.29849">
        <ele>37.4</ele>
        <time>2023-07-05T13:01:17Z</time>
      </trkpt>
      <trkpt lat="49.2008" lon="-0.29859">
        <ele>37.3</ele>
        <time>2023-07-05T13:01:18Z</time>
      </trkpt>
      <trkpt lat="49.20082" lon="-0.29869">
        <ele>37.3</ele>
        <time>2023-07-05T13:01:19Z</time>
      </trkpt>
      <trkpt lat="49.20084" lon="-0.29879">
        <ele>37.3</ele>
        <time>2023-07-05T13:01:20Z</time>
      </trkpt>
      <trkpt lat="49.20086" lon="-0.29889">
        <ele>37.3</ele>
        <time>2023-07-05T13:01:21Z</time>
      </trkpt>
      <trkpt lat="49.20088" lon="-0.29899">
        <ele>37.2</ele>
        <time>2023-07-05T13:01:22Z</time>
      </trkpt>
      <trkpt lat="49.2009" lon="-0.29909">
        <ele>37.2</ele>
        <time>2023-07-05T13:01:23Z</time>
      </trkpt>
      <trkpt lat="49.20092" lon="-0.29919">
        <ele>37.2</ele>
        <time>2023-07-05T13:01:24Z</time>
      </trkpt>
      <trkpt lat="49.20094" lon="-0.2993">
        <ele>37.1</ele>
        <time>2023-07-05T13:01:25Z</time>
      </trkpt>
      <trkpt lat="49.20097" lon="-0.2994">
        <ele>37.1</ele>
        <time>2023-07-05T13:01:26Z</time>
      </trkpt>
      <trkpt lat="49.20099" lon="-0.29949">
        <ele>37.1</ele>
        <time>2023-07-05T13:01:27Z</time>
      </trkpt>
      <trkpt lat="49.20101" lon="-0.29959">
        <ele>37</ele>
        <time>2023-07-05T13:01:28Z</time>
      </trkpt>
      <trkpt lat="49.20103" lon="-0.29969">
        <ele>37</ele>
        <time>2023-07-05T13:01:29Z</time>
      </trkpt>
      <trkpt lat="49.20106" lon="-0.29979">
        <ele>36.9</ele>
        <time>2023-07-05T13:01:30Z</time>
      </trkpt>
      <trkpt lat="49.20108" lon="-0.29989">
        <ele>36.9</ele>
        <time>2023-07-05T13:01:31Z</time>
      </trkpt>
      <trkpt lat="49.20111" lon="-0.29999">
        <ele>36.8</ele>
        <time>2023-07-05T13:01:32Z</time>
      </trkpt>
      <trkpt lat="49.20113" lon="-0.30009">
        <ele>36.8</ele>
        <time>2023-07-05T13:01:33Z</time>
      </trkpt>
      <trkpt lat="49.20115" lon="-0.30018">
        <ele>36.8</ele>
        <time>2023-07-05T13:01:34Z</time>
      </trkpt>
      <trkpt lat="49.20117" lon="-0.30027">
        <ele>36.7</ele>
        <time>2023-07-05T13:01:35Z</time>
      </trkpt>
      <trkpt lat="49.20119" lon="-0.30036">
        <ele>36.7</ele>
        <time>2023-07-05T13:01:36Z</time>
      </trkpt>
      <trkpt lat="49.2012" lon="-0.30043">
        <ele>36.7</ele>
        <time>2023-07-05T13:01:37Z</time>
      </trkpt>
      <trkpt lat="49.20122" lon="-0.30049">
        <ele>36.6</ele>
        <time>2023-07-05T13:01:38Z</time>
      </trkpt>
      <trkpt lat="49.20122" lon="-0.30053">
        <ele>36.6</ele>
        <time>2023-07-05T13:01:39Z</time>
      </trkpt>
      <trkpt lat="49.20123" lon="-0.30055">
        <ele>36.6</ele>
        <time>2023-07-05T13:01:40Z</time>
      </trkpt>
      <trkpt lat="49.20123" lon="-0.30055">
        <ele>36.6</ele>
        <time>2023-07-05T13:01:41Z</time>
      </trkpt>
      <trkpt lat="49.20123" lon="-0.30056">
        <ele>36.6</ele>
        <time>2023-07-05T13:01:42Z</time>
      </trkpt>
      <trkpt lat="49.20123" lon="-0.30057">
        <ele>36.6</ele>
        <time>2023-07-05T13:01:43Z</time>
      </trkpt>
      <trkpt lat="49.20123" lon="-0.30057">
        <ele>36.6</ele>
        <time>2023-07-05T13:01:44Z</time>
      </trkpt>
      <trkpt lat="49.20123" lon="-0.30058">
        <ele>36.6</ele>
        <time>2023-07-05T13:01:45Z</time>
      </trkpt>
      <trkpt lat="49.20123" lon="-0.30058">
        <ele>36.6</ele>
        <time>2023-07-05T13:01:46Z</time>
      </trkpt>
      <trkpt lat="49.20123" lon="-0.30059">
        <ele>36.6</ele>
        <time>2023-07-05T13:01:47Z</time>
      </trkpt>
      <trkpt lat="49.20123" lon="-0.30059">
        <ele>36.6</ele>
        <time>2023-07-05T13:01:48Z</time>
      </trkpt>
      <trkpt lat="49.20123" lon="-0.3006">
        <ele>36.6</ele>
        <time>2023-07-05T13:01:49Z</time>
      </trkpt>
      <trkpt lat="49.20123" lon="-0.3006">
        <ele>36.6</ele>
        <time>2023-07-05T13:01:50Z</time>
      </trkpt>
      <trkpt lat="49.20124" lon="-0.30061">
        <ele>36.6</ele>
        <time>2023-07-05T13:01:51Z</time>
      </trkpt>
      <trkpt lat="49.20124" lon="-0.30061">
        <ele>36.6</ele>
        <time>2023-07-05T13:02:08Z</time>
      </trkpt>
      <trkpt lat="49.20124" lon="-0.30062">
        <ele>36.6</ele>
        <time>2023-07-05T13:02:09Z</time>
      </trkpt>
      <trkpt lat="49.20124" lon="-0.30062">
        <ele>36.6</ele>
        <time>2023-07-05T13:02:10Z</time>
      </trkpt>
      <trkpt lat="49.20125" lon="-0.30069">
        <ele>36.5</ele>
        <time>2023-07-05T13:02:11Z</time>
      </trkpt>
      <trkpt lat="49.20125" lon="-0.30071">
        <ele>36.5</ele>
        <time>2023-07-05T13:02:12Z</time>
      </trkpt>
      <trkpt lat="49.20126" lon="-0.30076">
        <ele>36.5</ele>
        <time>2023-07-05T13:02:13Z</time>
      </trkpt>
      <trkpt lat="49.20127" lon="-0.30082">
        <ele>36.5</ele>
        <time>2023-07-05T13:02:14Z</time>
      </trkpt>
      <trkpt lat="49.20128" lon="-0.30088">
        <ele>36.4</ele>
        <time>2023-07-05T13:02:15Z</time>
      </trkpt>
      <trkpt lat="49.2013" lon="-0.30095">
        <ele>36.4</ele>
        <time>2023-07-05T13:02:16Z</time>
      </trkpt>
      <trkpt lat="49.20131" lon="-0.30101">
        <ele>36.4</ele>
        <time>2023-07-05T13:02:17Z</time>
      </trkpt>
      <trkpt lat="49.20133" lon="-0.30108">
        <ele>36.3</ele>
        <time>2023-07-05T13:02:18Z</time>
      </trkpt>
      <trkpt lat="49.20134" lon="-0.30116">
        <ele>36.3</ele>
        <time>2023-07-05T13:02:19Z</time>
      </trkpt>
      <trkpt lat="49.20136" lon="-0.30123">
        <ele>36.2</ele>
        <time>2023-07-05T13:02:20Z</time>
      </trkpt>
      <trkpt lat="49.20137" lon="-0.30131">
        <ele>36.1</ele>
        <time>2023-07-05T13:02:21Z</time>
      </trkpt>
      <trkpt lat="49.20138" lon="-0.30139">
        <ele>36</ele>
        <time>2023-07-05T13:02:22Z</time>
      </trkpt>
      <trkpt lat="49.2014" lon="-0.30147">
        <ele>35.9</ele>
        <time>2023-07-05T13:02:23Z</time>
      </trkpt>
      <trkpt lat="49.20141" lon="-0.30155">
        <ele>35.9</ele>
        <time>2023-07-05T13:02:24Z</time>
      </trkpt>
      <trkpt lat="49.20142" lon="-0.30163">
        <ele>35.8</ele>
        <time>2023-07-05T13:02:25Z</time>
      </trkpt>
      <trkpt lat="49.20144" lon="-0.30171">
        <ele>35.7</ele>
        <time>2023-07-05T13:02:26Z</time>
      </trkpt>
      <trkpt lat="49.20145" lon="-0.30179">
        <ele>35.6</ele>
        <time>2023-07-05T13:02:27Z</time>
      </trkpt>
      <trkpt lat="49.20147" lon="-0.30188">
        <ele>35.5</ele>
        <time>2023-07-05T13:02:28Z</time>
      </trkpt>
      <trkpt lat="49.20149" lon="-0.30196">
        <ele>35.4</ele>
        <time>2023-07-05T13:02:29Z</time>
      </trkpt>
      <trkpt lat="49.2015" lon="-0.30205">
        <ele>35.3</ele>
        <time>2023-07-05T13:02:30Z</time>
      </trkpt>
      <trkpt lat="49.20152" lon="-0.30214">
        <ele>35.2</ele>
        <time>2023-07-05T13:02:31Z</time>
      </trkpt>
      <trkpt lat="49.20154" lon="-0.30223">
        <ele>35.1</ele>
        <time>2023-07-05T13:02:32Z</time>
      </trkpt>
      <trkpt lat="49.20156" lon="-0.30232">
        <ele>35</ele>
        <time>2023-07-05T13:02:33Z</time>
      </trkpt>
      <trkpt lat="49.20158" lon="-0.30242">
        <ele>34.9</ele>
        <time>2023-07-05T13:02:34Z</time>
      </trkpt>
      <trkpt lat="49.20159" lon="-0.30252">
        <ele>34.7</ele>
        <time>2023-07-05T13:02:35Z</time>
      </trkpt>
      <trkpt lat="49.20161" lon="-0.30262">
        <ele>34.6</ele>
        <time>2023-07-05T13:02:36Z</time>
      </trkpt>
      <trkpt lat="49.20163" lon="-0.30271">
        <ele>34.4</ele>
        <time>2023-07-05T13:02:37Z</time>
      </trkpt>
      <trkpt lat="49.20165" lon="-0.3028">
        <ele>34.3</ele>
        <time>2023-07-05T13:02:38Z</time>
      </trkpt>
      <trkpt lat="49.20167" lon="-0.30289">
        <ele>34.1</ele>
        <time>2023-07-05T13:02:39Z</time>
      </trkpt>
      <trkpt lat="49.2017" lon="-0.30298">
        <ele>33.9</ele>
        <time>2023-07-05T13:02:40Z</time>
      </trkpt>
      <trkpt lat="49.20172" lon="-0.30308">
        <ele>33.7</ele>
        <time>2023-07-05T13:02:41Z</time>
      </trkpt>
      <trkpt lat="49.20174" lon="-0.30317">
        <ele>33.4</ele>
        <time>2023-07-05T13:02:42Z</time>
      </trkpt>
      <trkpt lat="49.20175" lon="-0.30328">
        <ele>33.2</ele>
        <time>2023-07-05T13:02:43Z</time>
      </trkpt>
      <trkpt lat="49.20177" lon="-0.30338">
        <ele>32.9</ele>
        <time>2023-07-05T13:02:44Z</time>
      </trkpt>
      <trkpt lat="49.2018" lon="-0.30348">
        <ele>32.6</ele>
        <time>2023-07-05T13:02:45Z</time>
      </trkpt>
      <trkpt lat="49.20183" lon="-0.30359">
        <ele>32.3</ele>
        <time>2023-07-05T13:02:46Z</time>
      </trkpt>
      <trkpt lat="49.20186" lon="-0.3037">
        <ele>31.9</ele>
        <time>2023-07-05T13:02:47Z</time>
      </trkpt>
      <trkpt lat="49.20189" lon="-0.3038">
        <ele>31.5</ele>
        <time>2023-07-05T13:02:48Z</time>
      </trkpt>
      <trkpt lat="49.20192" lon="-0.30391">
        <ele>31.1</ele>
        <time>2023-07-05T13:02:49Z</time>
      </trkpt>
      <trkpt lat="49.20196" lon="-0.30402">
        <ele>30.7</ele>
        <time>2023-07-05T13:02:50Z</time>
      </trkpt>
      <trkpt lat="49.202" lon="-0.30413">
        <ele>30.3</ele>
        <time>2023-07-05T13:02:51Z</time>
      </trkpt>
      <trkpt lat="49.20203" lon="-0.30424">
        <ele>30</ele>
        <time>2023-07-05T13:02:52Z</time>
      </trkpt>
      <trkpt lat="49.20207" lon="-0.30436">
        <ele>29.7</ele>
        <time>2023-07-05T13:02:53Z</time>
      </trkpt>
      <trkpt lat="49.20211" lon="-0.30447">
        <ele>29.4</ele>
        <time>2023-07-05T13:02:54Z</time>
      </trkpt>
      <trkpt lat="49.20215" lon="-0.30458">
        <ele>29.1</ele>
        <time>2023-07-05T13:02:55Z</time>
      </trkpt>
      <trkpt lat="49.20219" lon="-0.30468">
        <ele>28.8</ele>
        <time>2023-07-05T13:02:56Z</time>
      </trkpt>
      <trkpt lat="49.20223" lon="-0.30478">
        <ele>28.5</ele>
        <time>2023-07-05T13:02:57Z</time>
      </trkpt>
      <trkpt lat="49.20225" lon="-0.30489">
        <ele>28.3</ele>
        <time>2023-07-05T13:02:58Z</time>
      </trkpt>
      <trkpt lat="49.20228" lon="-0.305">
        <ele>28.1</ele>
        <time>2023-07-05T13:02:59Z</time>
      </trkpt>
      <trkpt lat="49.20229" lon="-0.30511">
        <ele>27.8</ele>
        <time>2023-07-05T13:03:00Z</time>
      </trkpt>
      <trkpt lat="49.20229" lon="-0.30524">
        <ele>27.5</ele>
        <time>2023-07-05T13:03:01Z</time>
      </trkpt>
      <trkpt lat="49.20229" lon="-0.30536">
        <ele>27.3</ele>
        <time>2023-07-05T13:03:02Z</time>
      </trkpt>
      <trkpt lat="49.20229" lon="-0.30549">
        <ele>27</ele>
        <time>2023-07-05T13:03:03Z</time>
      </trkpt>
      <trkpt lat="49.20228" lon="-0.30561">
        <ele>26.6</ele>
        <time>2023-07-05T13:03:04Z</time>
      </trkpt>
      <trkpt lat="49.20227" lon="-0.30573">
        <ele>26.3</ele>
        <time>2023-07-05T13:03:05Z</time>
      </trkpt>
      <trkpt lat="49.20226" lon="-0.30584">
        <ele>25.9</ele>
        <time>2023-07-05T13:03:06Z</time>
      </trkpt>
      <trkpt lat="49.20225" lon="-0.30597">
        <ele>25.5</ele>
        <time>2023-07-05T13:03:07Z</time>
      </trkpt>
      <trkpt lat="49.20224" lon="-0.30609">
        <ele>25.2</ele>
        <time>2023-07-05T13:03:08Z</time>
      </trkpt>
      <trkpt lat="49.20223" lon="-0.30623">
        <ele>24.5</ele>
        <time>2023-07-05T13:03:09Z</time>
      </trkpt>
      <trkpt lat="49.20223" lon="-0.30637">
        <ele>23.6</ele>
        <time>2023-07-05T13:03:10Z</time>
      </trkpt>
      <trkpt lat="49.20224" lon="-0.30651">
        <ele>22.8</ele>
        <time>2023-07-05T13:03:11Z</time>
      </trkpt>
      <trkpt lat="49.20224" lon="-0.30666">
        <ele>21.9</ele>
        <time>2023-07-05T13:03:12Z</time>
      </trkpt>
      <trkpt lat="49.20225" lon="-0.30681">
        <ele>20.9</ele>
        <time>2023-07-05T13:03:13Z</time>
      </trkpt>
      <trkpt lat="49.20227" lon="-0.30696">
        <ele>19.9</ele>
        <time>2023-07-05T13:03:14Z</time>
      </trkpt>
      <trkpt lat="49.20229" lon="-0.30711">
        <ele>19</ele>
        <time>2023-07-05T13:03:15Z</time>
      </trkpt>
      <trkpt lat="49.20231" lon="-0.30726">
        <ele>18</ele>
        <time>2023-07-05T13:03:16Z</time>
      </trkpt>
      <trkpt lat="49.20234" lon="-0.30742">
        <ele>17</ele>
        <time>2023-07-05T13:03:17Z</time>
      </trkpt>
      <trkpt lat="49.20237" lon="-0.30758">
        <ele>15.9</ele>
        <time>2023-07-05T13:03:18Z</time>
      </trkpt>
      <trkpt lat="49.20241" lon="-0.30774">
        <ele>14.8</ele>
        <time>2023-07-05T13:03:19Z</time>
      </trkpt>
      <trkpt lat="49.20246" lon="-0.3079">
        <ele>13.7</ele>
        <time>2023-07-05T13:03:20Z</time>
      </trkpt>
      <trkpt lat="49.20251" lon="-0.30807">
        <ele>12.6</ele>
        <time>2023-07-05T13:03:21Z</time>
      </trkpt>
      <trkpt lat="49.20256" lon="-0.30823">
        <ele>11.7</ele>
        <time>2023-07-05T13:03:22Z</time>
      </trkpt>
      <trkpt lat="49.20263" lon="-0.30838">
        <ele>11</ele>
        <time>2023-07-05T13:03:23Z</time>
      </trkpt>
      <trkpt lat="49.20269" lon="-0.30853">
        <ele>10.4</ele>
        <time>2023-07-05T13:03:24Z</time>
      </trkpt>
      <trkpt lat="49.20276" lon="-0.30867">
        <ele>10</ele>
        <time>2023-07-05T13:03:25Z</time>
      </trkpt>
      <trkpt lat="49.20284" lon="-0.30881">
        <ele>9.7</ele>
        <time>2023-07-05T13:03:26Z</time>
      </trkpt>
      <trkpt lat="49.20291" lon="-0.30894">
        <ele>9.6</ele>
        <time>2023-07-05T13:03:27Z</time>
      </trkpt>
      <trkpt lat="49.20298" lon="-0.30906">
        <ele>9.6</ele>
        <time>2023-07-05T13:03:28Z</time>
      </trkpt>
      <trkpt lat="49.20304" lon="-0.30917">
        <ele>9.7</ele>
        <time>2023-07-05T13:03:29Z</time>
      </trkpt>
      <trkpt lat="49.20311" lon="-0.30929">
        <ele>9.8</ele>
        <time>2023-07-05T13:03:30Z</time>
      </trkpt>
      <trkpt lat="49.20317" lon="-0.30939">
        <ele>9.9</ele>
        <time>2023-07-05T13:03:31Z</time>
      </trkpt>
      <trkpt lat="49.20323" lon="-0.3095">
        <ele>10.1</ele>
        <time>2023-07-05T13:03:32Z</time>
      </trkpt>
      <trkpt lat="49.20329" lon="-0.3096">
        <ele>10.2</ele>
        <time>2023-07-05T13:03:33Z</time>
      </trkpt>
      <trkpt lat="49.20336" lon="-0.30971">
        <ele>10.2</ele>
        <time>2023-07-05T13:03:34Z</time>
      </trkpt>
      <trkpt lat="49.20342" lon="-0.30982">
        <ele>10.2</ele>
        <time>2023-07-05T13:03:35Z</time>
      </trkpt>
      <trkpt lat="49.20347" lon="-0.30991">
        <ele>10.2</ele>
        <time>2023-07-05T13:03:36Z</time>
      </trkpt>
      <trkpt lat="49.20353" lon="-0.31001">
        <ele>10.2</ele>
        <time>2023-07-05T13:03:37Z</time>
      </trkpt>
      <trkpt lat="49.20359" lon="-0.31012">
        <ele>10.1</ele>
        <time>2023-07-05T13:03:38Z</time>
      </trkpt>
      <trkpt lat="49.20365" lon="-0.31021">
        <ele>10</ele>
        <time>2023-07-05T13:03:39Z</time>
      </trkpt>
      <trkpt lat="49.2037" lon="-0.31031">
        <ele>9.9</ele>
        <time>2023-07-05T13:03:40Z</time>
      </trkpt>
      <trkpt lat="49.20376" lon="-0.3104">
        <ele>9.8</ele>
        <time>2023-07-05T13:03:41Z</time>
      </trkpt>
      <trkpt lat="49.20381" lon="-0.31049">
        <ele>9.7</ele>
        <time>2023-07-05T13:03:42Z</time>
      </trkpt>
      <trkpt lat="49.20387" lon="-0.31057">
        <ele>9.5</ele>
        <time>2023-07-05T13:03:43Z</time>
      </trkpt>
      <trkpt lat="49.20394" lon="-0.31065">
        <ele>9.4</ele>
        <time>2023-07-05T13:03:44Z</time>
      </trkpt>
      <trkpt lat="49.204" lon="-0.31073">
        <ele>9.2</ele>
        <time>2023-07-05T13:03:45Z</time>
      </trkpt>
      <trkpt lat="49.20406" lon="-0.31081">
        <ele>9</ele>
        <time>2023-07-05T13:03:46Z</time>
      </trkpt>
      <trkpt lat="49.20413" lon="-0.31089">
        <ele>8.8</ele>
        <time>2023-07-05T13:03:47Z</time>
      </trkpt>
      <trkpt lat="49.2042" lon="-0.31097">
        <ele>8.6</ele>
        <time>2023-07-05T13:03:48Z</time>
      </trkpt>
      <trkpt lat="49.20426" lon="-0.31104">
        <ele>8.5</ele>
        <time>2023-07-05T13:03:49Z</time>
      </trkpt>
      <trkpt lat="49.20434" lon="-0.31111">
        <ele>8.3</ele>
        <time>2023-07-05T13:03:50Z</time>
      </trkpt>
      <trkpt lat="49.20441" lon="-0.31118">
        <ele>8.2</ele>
        <time>2023-07-05T13:03:51Z</time>
      </trkpt>
      <trkpt lat="49.20448" lon="-0.31124">
        <ele>8.1</ele>
        <time>2023-07-05T13:03:52Z</time>
      </trkpt>
      <trkpt lat="49.20455" lon="-0.3113">
        <ele>8</ele>
        <time>2023-07-05T13:03:53Z</time>
      </trkpt>
      <trkpt lat="49.20461" lon="-0.31134">
        <ele>7.9</ele>
        <time>2023-07-05T13:03:54Z</time>
      </trkpt>
      <trkpt lat="49.20468" lon="-0.31134">
        <ele>7.8</ele>
        <time>2023-07-05T13:03:55Z</time>
      </trkpt>
      <trkpt lat="49.20474" lon="-0.31132">
        <ele>7.7</ele>
        <time>2023-07-05T13:03:56Z</time>
      </trkpt>
      <trkpt lat="49.20481" lon="-0.31128">
        <ele>7.7</ele>
        <time>2023-07-05T13:03:57Z</time>
      </trkpt>
      <trkpt lat="49.20486" lon="-0.31122">
        <ele>7.7</ele>
        <time>2023-07-05T13:03:58Z</time>
      </trkpt>
      <trkpt lat="49.20492" lon="-0.31116">
        <ele>7.7</ele>
        <time>2023-07-05T13:03:59Z</time>
      </trkpt>
      <trkpt lat="49.20497" lon="-0.31107">
        <ele>7.7</ele>
        <time>2023-07-05T13:04:00Z</time>
      </trkpt>
      <trkpt lat="49.205" lon="-0.31097">
        <ele>7.9</ele>
        <time>2023-07-05T13:04:01Z</time>
      </trkpt>
      <trkpt lat="49.20501" lon="-0.31086">
        <ele>8.2</ele>
        <time>2023-07-05T13:04:02Z</time>
      </trkpt>
      <trkpt lat="49.20501" lon="-0.31074">
        <ele>8.3</ele>
        <time>2023-07-05T13:04:03Z</time>
      </trkpt>
      <trkpt lat="49.20499" lon="-0.31063">
        <ele>8.4</ele>
        <time>2023-07-05T13:04:04Z</time>
      </trkpt>
      <trkpt lat="49.20498" lon="-0.31052">
        <ele>8.5</ele>
        <time>2023-07-05T13:04:05Z</time>
      </trkpt>
      <trkpt lat="49.20496" lon="-0.31042">
        <ele>8.6</ele>
        <time>2023-07-05T13:04:06Z</time>
      </trkpt>
      <trkpt lat="49.20495" lon="-0.31031">
        <ele>8.7</ele>
        <time>2023-07-05T13:04:07Z</time>
      </trkpt>
      <trkpt lat="49.20494" lon="-0.3102">
        <ele>8.8</ele>
        <time>2023-07-05T13:04:08Z</time>
      </trkpt>
      <trkpt lat="49.20493" lon="-0.3101">
        <ele>8.8</ele>
        <time>2023-07-05T13:04:09Z</time>
      </trkpt>
      <trkpt lat="49.20492" lon="-0.31">
        <ele>8.9</ele>
        <time>2023-07-05T13:04:10Z</time>
      </trkpt>
      <trkpt lat="49.20492" lon="-0.30989">
        <ele>9</ele>
        <time>2023-07-05T13:04:11Z</time>
      </trkpt>
      <trkpt lat="49.20492" lon="-0.30979">
        <ele>9</ele>
        <time>2023-07-05T13:04:12Z</time>
      </trkpt>
      <trkpt lat="49.20493" lon="-0.30969">
        <ele>9</ele>
        <time>2023-07-05T13:04:13Z</time>
      </trkpt>
      <trkpt lat="49.20494" lon="-0.30958">
        <ele>9.1</ele>
        <time>2023-07-05T13:04:14Z</time>
      </trkpt>
      <trkpt lat="49.20495" lon="-0.30948">
        <ele>9.1</ele>
        <time>2023-07-05T13:04:15Z</time>
      </trkpt>
      <trkpt lat="49.20498" lon="-0.30937">
        <ele>9.1</ele>
        <time>2023-07-05T13:04:16Z</time>
      </trkpt>
      <trkpt lat="49.20501" lon="-0.30927">
        <ele>9</ele>
        <time>2023-07-05T13:04:17Z</time>
      </trkpt>
      <trkpt lat="49.20504" lon="-0.30918">
        <ele>8.9</ele>
        <time>2023-07-05T13:04:18Z</time>
      </trkpt>
      <trkpt lat="49.20507" lon="-0.30908">
        <ele>8.7</ele>
        <time>2023-07-05T13:04:19Z</time>
      </trkpt>
      <trkpt lat="49.20512" lon="-0.30899">
        <ele>8.6</ele>
        <time>2023-07-05T13:04:20Z</time>
      </trkpt>
      <trkpt lat="49.20517" lon="-0.30891">
        <ele>8.4</ele>
        <time>2023-07-05T13:04:21Z</time>
      </trkpt>
      <trkpt lat="49.20522" lon="-0.30883">
        <ele>8.2</ele>
        <time>2023-07-05T13:04:22Z</time>
      </trkpt>
      <trkpt lat="49.20527" lon="-0.30874">
        <ele>8</ele>
        <time>2023-07-05T13:04:23Z</time>
      </trkpt>
      <trkpt lat="49.20533" lon="-0.30867">
        <ele>7.9</ele>
        <time>2023-07-05T13:04:24Z</time>
      </trkpt>
      <trkpt lat="49.20539" lon="-0.3086">
        <ele>7.7</ele>
        <time>2023-07-05T13:04:25Z</time>
      </trkpt>
      <trkpt lat="49.20546" lon="-0.30853">
        <ele>7.5</ele>
        <time>2023-07-05T13:04:26Z</time>
      </trkpt>
      <trkpt lat="49.20554" lon="-0.30846">
        <ele>7.2</ele>
        <time>2023-07-05T13:04:27Z</time>
      </trkpt>
      <trkpt lat="49.20561" lon="-0.30839">
        <ele>7</ele>
        <time>2023-07-05T13:04:28Z</time>
      </trkpt>
      <trkpt lat="49.20569" lon="-0.30832">
        <ele>6.8</ele>
        <time>2023-07-05T13:04:29Z</time>
      </trkpt>
      <trkpt lat="49.20576" lon="-0.30825">
        <ele>6.6</ele>
        <time>2023-07-05T13:04:30Z</time>
      </trkpt>
      <trkpt lat="49.20584" lon="-0.30819">
        <ele>6.4</ele>
        <time>2023-07-05T13:04:31Z</time>
      </trkpt>
      <trkpt lat="49.20591" lon="-0.30812">
        <ele>6.3</ele>
        <time>2023-07-05T13:04:32Z</time>
      </trkpt>
      <trkpt lat="49.20599" lon="-0.30805">
        <ele>6.1</ele>
        <time>2023-07-05T13:04:33Z</time>
      </trkpt>
      <trkpt lat="49.20606" lon="-0.30798">
        <ele>6</ele>
        <time>2023-07-05T13:04:34Z</time>
      </trkpt>
      <trkpt lat="49.20614" lon="-0.3079">
        <ele>5.9</ele>
        <time>2023-07-05T13:04:35Z</time>
      </trkpt>
      <trkpt lat="49.20621" lon="-0.30783">
        <ele>5.8</ele>
        <time>2023-07-05T13:04:36Z</time>
      </trkpt>
      <trkpt lat="49.20629" lon="-0.30775">
        <ele>5.7</ele>
        <time>2023-07-05T13:04:37Z</time>
      </trkpt>
      <trkpt lat="49.20636" lon="-0.30768">
        <ele>5.6</ele>
        <time>2023-07-05T13:04:38Z</time>
      </trkpt>
      <trkpt lat="49.20643" lon="-0.3076">
        <ele>5.5</ele>
        <time>2023-07-05T13:04:39Z</time>
      </trkpt>
      <trkpt lat="49.2065" lon="-0.30752">
        <ele>5.5</ele>
        <time>2023-07-05T13:04:40Z</time>
      </trkpt>
      <trkpt lat="49.20657" lon="-0.30744">
        <ele>5.4</ele>
        <time>2023-07-05T13:04:41Z</time>
      </trkpt>
      <trkpt lat="49.20664" lon="-0.30736">
        <ele>5.4</ele>
        <time>2023-07-05T13:04:42Z</time>
      </trkpt>
      <trkpt lat="49.20671" lon="-0.30728">
        <ele>5.3</ele>
        <time>2023-07-05T13:04:43Z</time>
      </trkpt>
      <trkpt lat="49.20677" lon="-0.30719">
        <ele>5.3</ele>
        <time>2023-07-05T13:04:44Z</time>
      </trkpt>
      <trkpt lat="49.20684" lon="-0.3071">
        <ele>5.3</ele>
        <time>2023-07-05T13:04:45Z</time>
      </trkpt>
      <trkpt lat="49.2069" lon="-0.30702">
        <ele>5.2</ele>
        <time>2023-07-05T13:04:46Z</time>
      </trkpt>
      <trkpt lat="49.20696" lon="-0.30694">
        <ele>5.2</ele>
        <time>2023-07-05T13:04:47Z</time>
      </trkpt>
      <trkpt lat="49.20701" lon="-0.30685">
        <ele>5.2</ele>
        <time>2023-07-05T13:04:48Z</time>
      </trkpt>
      <trkpt lat="49.20707" lon="-0.30676">
        <ele>5.1</ele>
        <time>2023-07-05T13:04:49Z</time>
      </trkpt>
      <trkpt lat="49.20712" lon="-0.30667">
        <ele>5.1</ele>
        <time>2023-07-05T13:04:50Z</time>
      </trkpt>
      <trkpt lat="49.20717" lon="-0.30658">
        <ele>5.1</ele>
        <time>2023-07-05T13:04:51Z</time>
      </trkpt>
      <trkpt lat="49.20722" lon="-0.30649">
        <ele>5.1</ele>
        <time>2023-07-05T13:04:52Z</time>
      </trkpt>
      <trkpt lat="49.20728" lon="-0.30639">
        <ele>5.1</ele>
        <time>2023-07-05T13:04:53Z</time>
      </trkpt>
      <trkpt lat="49.20733" lon="-0.3063">
        <ele>5.1</ele>
        <time>2023-07-05T13:04:54Z</time>
      </trkpt>
      <trkpt lat="49.20738" lon="-0.30621">
        <ele>5.1</ele>
        <time>2023-07-05T13:04:55Z</time>
      </trkpt>
      <trkpt lat="49.20744" lon="-0.3061">
        <ele>5.1</ele>
        <time>2023-07-05T13:04:56Z</time>
      </trkpt>
      <trkpt lat="49.20749" lon="-0.306">
        <ele>5.1</ele>
        <time>2023-07-05T13:04:57Z</time>
      </trkpt>
      <trkpt lat="49.20754" lon="-0.3059">
        <ele>5.1</ele>
        <time>2023-07-05T13:04:58Z</time>
      </trkpt>
      <trkpt lat="49.20759" lon="-0.3058">
        <ele>5.1</ele>
        <time>2023-07-05T13:04:59Z</time>
      </trkpt>
      <trkpt lat="49.20764" lon="-0.3057">
        <ele>5.1</ele>
        <time>2023-07-05T13:05:00Z</time>
      </trkpt>
      <trkpt lat="49.20768" lon="-0.3056">
        <ele>5.1</ele>
        <time>2023-07-05T13:05:01Z</time>
      </trkpt>
      <trkpt lat="49.20772" lon="-0.3055">
        <ele>5.1</ele>
        <time>2023-07-05T13:05:02Z</time>
      </trkpt>
      <trkpt lat="49.20776" lon="-0.30539">
        <ele>5.1</ele>
        <time>2023-07-05T13:05:03Z</time>
      </trkpt>
      <trkpt lat="49.2078" lon="-0.30527">
        <ele>5.1</ele>
        <time>2023-07-05T13:05:04Z</time>
      </trkpt>
      <trkpt lat="49.20785" lon="-0.30516">
        <ele>5.1</ele>
        <time>2023-07-05T13:05:05Z</time>
      </trkpt>
      <trkpt lat="49.20789" lon="-0.30505">
        <ele>5.1</ele>
        <time>2023-07-05T13:05:06Z</time>
      </trkpt>
      <trkpt lat="49.20794" lon="-0.30494">
        <ele>5.1</ele>
        <time>2023-07-05T13:05:07Z</time>
      </trkpt>
      <trkpt lat="49.20798" lon="-0.30483">
        <ele>5.1</ele>
        <time>2023-07-05T13:05:08Z</time>
      </trkpt>
      <trkpt lat="49.20803" lon="-0.30471">
        <ele>5.1</ele>
        <time>2023-07-05T13:05:09Z</time>
      </trkpt>
      <trkpt lat="49.20807" lon="-0.3046">
        <ele>5.1</ele>
        <time>2023-07-05T13:05:10Z</time>
      </trkpt>
      <trkpt lat="49.20811" lon="-0.30448">
        <ele>5.1</ele>
        <time>2023-07-05T13:05:11Z</time>
      </trkpt>
      <trkpt lat="49.20815" lon="-0.30436">
        <ele>5.1</ele>
        <time>2023-07-05T13:05:12Z</time>
      </trkpt>
      <trkpt lat="49.2082" lon="-0.30425">
        <ele>5.1</ele>
        <time>2023-07-05T13:05:13Z</time>
      </trkpt>
      <trkpt lat="49.20824" lon="-0.30413">
        <ele>5.1</ele>
        <time>2023-07-05T13:05:14Z</time>
      </trkpt>
      <trkpt lat="49.20829" lon="-0.30402">
        <ele>5.1</ele>
        <time>2023-07-05T13:05:15Z</time>
      </trkpt>
      <trkpt lat="49.20834" lon="-0.3039">
        <ele>5.1</ele>
        <time>2023-07-05T13:05:16Z</time>
      </trkpt>
      <trkpt lat="49.20838" lon="-0.30378">
        <ele>5.1</ele>
        <time>2023-07-05T13:05:17Z</time>
      </trkpt>
      <trkpt lat="49.20843" lon="-0.30366">
        <ele>5.1</ele>
        <time>2023-07-05T13:05:18Z</time>
      </trkpt>
      <trkpt lat="49.20847" lon="-0.30354">
        <ele>5.1</ele>
        <time>2023-07-05T13:05:19Z</time>
      </trkpt>
      <trkpt lat="49.20852" lon="-0.30343">
        <ele>5.1</ele>
        <time>2023-07-05T13:05:20Z</time>
      </trkpt>
      <trkpt lat="49.20856" lon="-0.30331">
        <ele>5.1</ele>
        <time>2023-07-05T13:05:21Z</time>
      </trkpt>
      <trkpt lat="49.2086" lon="-0.3032">
        <ele>5</ele>
        <time>2023-07-05T13:05:22Z</time>
      </trkpt>
      <trkpt lat="49.20864" lon="-0.30308">
        <ele>5</ele>
        <time>2023-07-05T13:05:23Z</time>
      </trkpt>
      <trkpt lat="49.20868" lon="-0.30296">
        <ele>5</ele>
        <time>2023-07-05T13:05:24Z</time>
      </trkpt>
      <trkpt lat="49.20873" lon="-0.30284">
        <ele>5</ele>
        <time>2023-07-05T13:05:25Z</time>
      </trkpt>
      <trkpt lat="49.20877" lon="-0.30273">
        <ele>5</ele>
        <time>2023-07-05T13:05:26Z</time>
      </trkpt>
      <trkpt lat="49.20882" lon="-0.30261">
        <ele>5</ele>
        <time>2023-07-05T13:05:27Z</time>
      </trkpt>
      <trkpt lat="49.20887" lon="-0.30249">
        <ele>5</ele>
        <time>2023-07-05T13:05:28Z</time>
      </trkpt>
      <trkpt lat="49.20892" lon="-0.30237">
        <ele>5</ele>
        <time>2023-07-05T13:05:29Z</time>
      </trkpt>
      <trkpt lat="49.20896" lon="-0.30225">
        <ele>5</ele>
        <time>2023-07-05T13:05:30Z</time>
      </trkpt>
      <trkpt lat="49.20901" lon="-0.30213">
        <ele>5</ele>
        <time>2023-07-05T13:05:31Z</time>
      </trkpt>
      <trkpt lat="49.20906" lon="-0.30201">
        <ele>5</ele>
        <time>2023-07-05T13:05:32Z</time>
      </trkpt>
      <trkpt lat="49.20911" lon="-0.30189">
        <ele>5</ele>
        <time>2023-07-05T13:05:33Z</time>
      </trkpt>
      <trkpt lat="49.20915" lon="-0.30177">
        <ele>5</ele>
        <time>2023-07-05T13:05:34Z</time>
      </trkpt>
      <trkpt lat="49.2092" lon="-0.30166">
        <ele>5</ele>
        <time>2023-07-05T13:05:35Z</time>
      </trkpt>
      <trkpt lat="49.20925" lon="-0.30154">
        <ele>5</ele>
        <time>2023-07-05T13:05:36Z</time>
      </trkpt>
      <trkpt lat="49.2093" lon="-0.30142">
        <ele>5</ele>
        <time>2023-07-05T13:05:37Z</time>
      </trkpt>
      <trkpt lat="49.20935" lon="-0.30129">
        <ele>5</ele>
        <time>2023-07-05T13:05:38Z</time>
      </trkpt>
      <trkpt lat="49.2094" lon="-0.30116">
        <ele>5</ele>
        <time>2023-07-05T13:05:39Z</time>
      </trkpt>
      <trkpt lat="49.20945" lon="-0.30105">
        <ele>5</ele>
        <time>2023-07-05T13:05:40Z</time>
      </trkpt>
      <trkpt lat="49.2095" lon="-0.30093">
        <ele>5.1</ele>
        <time>2023-07-05T13:05:41Z</time>
      </trkpt>
      <trkpt lat="49.20955" lon="-0.30082">
        <ele>5.1</ele>
        <time>2023-07-05T13:05:42Z</time>
      </trkpt>
      <trkpt lat="49.20959" lon="-0.3007">
        <ele>5.1</ele>
        <time>2023-07-05T13:05:43Z</time>
      </trkpt>
      <trkpt lat="49.20964" lon="-0.30058">
        <ele>5.1</ele>
        <time>2023-07-05T13:05:44Z</time>
      </trkpt>
      <trkpt lat="49.20969" lon="-0.30046">
        <ele>5</ele>
        <time>2023-07-05T13:05:45Z</time>
      </trkpt>
      <trkpt lat="49.20974" lon="-0.30034">
        <ele>5</ele>
        <time>2023-07-05T13:05:46Z</time>
      </trkpt>
      <trkpt lat="49.20978" lon="-0.30022">
        <ele>5</ele>
        <time>2023-07-05T13:05:47Z</time>
      </trkpt>
      <trkpt lat="49.20983" lon="-0.30011">
        <ele>5</ele>
        <time>2023-07-05T13:05:48Z</time>
      </trkpt>
      <trkpt lat="49.20988" lon="-0.29999">
        <ele>5</ele>
        <time>2023-07-05T13:05:49Z</time>
      </trkpt>
      <trkpt lat="49.20993" lon="-0.29987">
        <ele>4.9</ele>
        <time>2023-07-05T13:05:50Z</time>
      </trkpt>
      <trkpt lat="49.20998" lon="-0.29975">
        <ele>4.9</ele>
        <time>2023-07-05T13:05:51Z</time>
      </trkpt>
      <trkpt lat="49.21002" lon="-0.29964">
        <ele>4.9</ele>
        <time>2023-07-05T13:05:52Z</time>
      </trkpt>
      <trkpt lat="49.21007" lon="-0.29953">
        <ele>4.9</ele>
        <time>2023-07-05T13:05:53Z</time>
      </trkpt>
      <trkpt lat="49.21011" lon="-0.29941">
        <ele>4.9</ele>
        <time>2023-07-05T13:05:54Z</time>
      </trkpt>
      <trkpt lat="49.21016" lon="-0.2993">
        <ele>4.9</ele>
        <time>2023-07-05T13:05:55Z</time>
      </trkpt>
      <trkpt lat="49.21021" lon="-0.29918">
        <ele>4.9</ele>
        <time>2023-07-05T13:05:56Z</time>
      </trkpt>
      <trkpt lat="49.21026" lon="-0.29906">
        <ele>4.9</ele>
        <time>2023-07-05T13:05:57Z</time>
      </trkpt>
      <trkpt lat="49.21031" lon="-0.29895">
        <ele>4.9</ele>
        <time>2023-07-05T13:05:58Z</time>
      </trkpt>
      <trkpt lat="49.21036" lon="-0.29884">
        <ele>4.9</ele>
        <time>2023-07-05T13:05:59Z</time>
      </trkpt>
      <trkpt lat="49.21041" lon="-0.29873">
        <ele>4.9</ele>
        <time>2023-07-05T13:06:00Z</time>
      </trkpt>
      <trkpt lat="49.21046" lon="-0.29862">
        <ele>4.9</ele>
        <time>2023-07-05T13:06:01Z</time>
      </trkpt>
      <trkpt lat="49.21052" lon="-0.29852">
        <ele>4.9</ele>
        <time>2023-07-05T13:06:02Z</time>
      </trkpt>
      <trkpt lat="49.21057" lon="-0.29842">
        <ele>5</ele>
        <time>2023-07-05T13:06:03Z</time>
      </trkpt>
      <trkpt lat="49.21062" lon="-0.29832">
        <ele>5</ele>
        <time>2023-07-05T13:06:04Z</time>
      </trkpt>
      <trkpt lat="49.21068" lon="-0.29821">
        <ele>5.1</ele>
        <time>2023-07-05T13:06:05Z</time>
      </trkpt>
      <trkpt lat="49.21074" lon="-0.29812">
        <ele>5.1</ele>
        <time>2023-07-05T13:06:06Z</time>
      </trkpt>
      <trkpt lat="49.2108" lon="-0.29803">
        <ele>5.1</ele>
        <time>2023-07-05T13:06:07Z</time>
      </trkpt>
      <trkpt lat="49.21087" lon="-0.29795">
        <ele>5.1</ele>
        <time>2023-07-05T13:06:08Z</time>
      </trkpt>
      <trkpt lat="49.21094" lon="-0.29787">
        <ele>5.1</ele>
        <time>2023-07-05T13:06:09Z</time>
      </trkpt>
      <trkpt lat="49.211" lon="-0.29779">
        <ele>5.1</ele>
        <time>2023-07-05T13:06:10Z</time>
      </trkpt>
      <trkpt lat="49.21106" lon="-0.29772">
        <ele>5.1</ele>
        <time>2023-07-05T13:06:11Z</time>
      </trkpt>
      <trkpt lat="49.2111" lon="-0.29766">
        <ele>5.1</ele>
        <time>2023-07-05T13:06:12Z</time>
      </trkpt>
      <trkpt lat="49.21112" lon="-0.29761">
        <ele>5.1</ele>
        <time>2023-07-05T13:06:13Z</time>
      </trkpt>
      <trkpt lat="49.21114" lon="-0.29755">
        <ele>5.1</ele>
        <time>2023-07-05T13:06:14Z</time>
      </trkpt>
      <trkpt lat="49.21114" lon="-0.29748">
        <ele>5.1</ele>
        <time>2023-07-05T13:06:15Z</time>
      </trkpt>
      <trkpt lat="49.21115" lon="-0.29741">
        <ele>5.1</ele>
        <time>2023-07-05T13:06:16Z</time>
      </trkpt>
      <trkpt lat="49.21116" lon="-0.29734">
        <ele>5.1</ele>
        <time>2023-07-05T13:06:17Z</time>
      </trkpt>
      <trkpt lat="49.21119" lon="-0.29727">
        <ele>5.1</ele>
        <time>2023-07-05T13:06:18Z</time>
      </trkpt>
      <trkpt lat="49.21124" lon="-0.29722">
        <ele>5.1</ele>
        <time>2023-07-05T13:06:19Z</time>
      </trkpt>
      <trkpt lat="49.2113" lon="-0.29718">
        <ele>5.1</ele>
        <time>2023-07-05T13:06:20Z</time>
      </trkpt>
      <trkpt lat="49.21137" lon="-0.29716">
        <ele>5.1</ele>
        <time>2023-07-05T13:06:21Z</time>
      </trkpt>
      <trkpt lat="49.21144" lon="-0.29715">
        <ele>5.2</ele>
        <time>2023-07-05T13:06:22Z</time>
      </trkpt>
      <trkpt lat="49.21152" lon="-0.29712">
        <ele>5.2</ele>
        <time>2023-07-05T13:06:23Z</time>
      </trkpt>
      <trkpt lat="49.21159" lon="-0.29707">
        <ele>5.2</ele>
        <time>2023-07-05T13:06:24Z</time>
      </trkpt>
      <trkpt lat="49.21166" lon="-0.29701">
        <ele>5.2</ele>
        <time>2023-07-05T13:06:25Z</time>
      </trkpt>
      <trkpt lat="49.21173" lon="-0.29695">
        <ele>5.2</ele>
        <time>2023-07-05T13:06:26Z</time>
      </trkpt>
      <trkpt lat="49.21179" lon="-0.29689">
        <ele>5.1</ele>
        <time>2023-07-05T13:06:27Z</time>
      </trkpt>
      <trkpt lat="49.21186" lon="-0.29684">
        <ele>5.1</ele>
        <time>2023-07-05T13:06:28Z</time>
      </trkpt>
      <trkpt lat="49.21192" lon="-0.29678">
        <ele>5</ele>
        <time>2023-07-05T13:06:29Z</time>
      </trkpt>
      <trkpt lat="49.21199" lon="-0.29673">
        <ele>4.9</ele>
        <time>2023-07-05T13:06:30Z</time>
      </trkpt>
      <trkpt lat="49.21206" lon="-0.29668">
        <ele>4.9</ele>
        <time>2023-07-05T13:06:31Z</time>
      </trkpt>
      <trkpt lat="49.21212" lon="-0.29662">
        <ele>4.8</ele>
        <time>2023-07-05T13:06:32Z</time>
      </trkpt>
      <trkpt lat="49.21219" lon="-0.29657">
        <ele>4.8</ele>
        <time>2023-07-05T13:06:33Z</time>
      </trkpt>
      <trkpt lat="49.21226" lon="-0.29652">
        <ele>4.8</ele>
        <time>2023-07-05T13:06:34Z</time>
      </trkpt>
      <trkpt lat="49.21233" lon="-0.29648">
        <ele>4.8</ele>
        <time>2023-07-05T13:06:35Z</time>
      </trkpt>
      <trkpt lat="49.21241" lon="-0.29643">
        <ele>4.8</ele>
        <time>2023-07-05T13:06:36Z</time>
      </trkpt>
      <trkpt lat="49.21248" lon="-0.29639">
        <ele>4.7</ele>
        <time>2023-07-05T13:06:37Z</time>
      </trkpt>
      <trkpt lat="49.21255" lon="-0.29635">
        <ele>4.7</ele>
        <time>2023-07-05T13:06:38Z</time>
      </trkpt>
      <trkpt lat="49.21261" lon="-0.29631">
        <ele>4.7</ele>
        <time>2023-07-05T13:06:39Z</time>
      </trkpt>
      <trkpt lat="49.21268" lon="-0.29627">
        <ele>4.7</ele>
        <time>2023-07-05T13:06:40Z</time>
      </trkpt>
      <trkpt lat="49.21275" lon="-0.29623">
        <ele>4.7</ele>
        <time>2023-07-05T13:06:41Z</time>
      </trkpt>
      <trkpt lat="49.21281" lon="-0.29619">
        <ele>4.6</ele>
        <time>2023-07-05T13:06:42Z</time>
      </trkpt>
      <trkpt lat="49.21288" lon="-0.29615">
        <ele>4.6</ele>
        <time>2023-07-05T13:06:43Z</time>
      </trkpt>
      <trkpt lat="49.21294" lon="-0.29612">
        <ele>4.6</ele>
        <time>2023-07-05T13:06:44Z</time>
      </trkpt>
      <trkpt lat="49.21301" lon="-0.29608">
        <ele>4.6</ele>
        <time>2023-07-05T13:06:45Z</time>
      </trkpt>
      <trkpt lat="49.21308" lon="-0.29605">
        <ele>4.6</ele>
        <time>2023-07-05T13:06:46Z</time>
      </trkpt>
      <trkpt lat="49.21314" lon="-0.296">
        <ele>4.6</ele>
        <time>2023-07-05T13:06:47Z</time>
      </trkpt>
      <trkpt lat="49.21321" lon="-0.29596">
        <ele>4.6</ele>
        <time>2023-07-05T13:06:48Z</time>
      </trkpt>
      <trkpt lat="49.21328" lon="-0.29591">
        <ele>4.6</ele>
        <time>2023-07-05T13:06:49Z</time>
      </trkpt>
      <trkpt lat="49.21334" lon="-0.29587">
        <ele>4.6</ele>
        <time>2023-07-05T13:06:50Z</time>
      </trkpt>
      <trkpt lat="49.21341" lon="-0.29583">
        <ele>4.6</ele>
        <time>2023-07-05T13:06:51Z</time>
      </trkpt>
      <trkpt lat="49.21348" lon="-0.29579">
        <ele>4.6</ele>
        <time>2023-07-05T13:06:52Z</time>
      </trkpt>
      <trkpt lat="49.21354" lon="-0.29575">
        <ele>4.5</ele>
        <time>2023-07-05T13:06:53Z</time>
      </trkpt>
      <trkpt lat="49.21361" lon="-0.29571">
        <ele>4.5</ele>
        <time>2023-07-05T13:06:54Z</time>
      </trkpt>
      <trkpt lat="49.21368" lon="-0.29566">
        <ele>4.5</ele>
        <time>2023-07-05T13:06:55Z</time>
      </trkpt>
      <trkpt lat="49.21374" lon="-0.29563">
        <ele>4.6</ele>
        <time>2023-07-05T13:06:56Z</time>
      </trkpt>
      <trkpt lat="49.21381" lon="-0.29558">
        <ele>4.6</ele>
        <time>2023-07-05T13:06:57Z</time>
      </trkpt>
      <trkpt lat="49.21388" lon="-0.29554">
        <ele>4.6</ele>
        <time>2023-07-05T13:06:58Z</time>
      </trkpt>
      <trkpt lat="49.21395" lon="-0.2955">
        <ele>4.6</ele>
        <time>2023-07-05T13:06:59Z</time>
      </trkpt>
      <trkpt lat="49.21402" lon="-0.29546">
        <ele>4.6</ele>
        <time>2023-07-05T13:07:00Z</time>
      </trkpt>
      <trkpt lat="49.21409" lon="-0.29542">
        <ele>4.6</ele>
        <time>2023-07-05T13:07:01Z</time>
      </trkpt>
      <trkpt lat="49.21416" lon="-0.29537">
        <ele>4.6</ele>
        <time>2023-07-05T13:07:02Z</time>
      </trkpt>
      <trkpt lat="49.21423" lon="-0.29533">
        <ele>4.6</ele>
        <time>2023-07-05T13:07:03Z</time>
      </trkpt>
      <trkpt lat="49.2143" lon="-0.29529">
        <ele>4.6</ele>
        <time>2023-07-05T13:07:04Z</time>
      </trkpt>
      <trkpt lat="49.21437" lon="-0.29525">
        <ele>4.6</ele>
        <time>2023-07-05T13:07:05Z</time>
      </trkpt>
      <trkpt lat="49.21444" lon="-0.29521">
        <ele>4.6</ele>
        <time>2023-07-05T13:07:06Z</time>
      </trkpt>
      <trkpt lat="49.21451" lon="-0.29516">
        <ele>4.7</ele>
        <time>2023-07-05T13:07:07Z</time>
      </trkpt>
      <trkpt lat="49.21458" lon="-0.29511">
        <ele>4.7</ele>
        <time>2023-07-05T13:07:08Z</time>
      </trkpt>
      <trkpt lat="49.21466" lon="-0.29507">
        <ele>4.7</ele>
        <time>2023-07-05T13:07:09Z</time>
      </trkpt>
      <trkpt lat="49.21473" lon="-0.29502">
        <ele>4.7</ele>
        <time>2023-07-05T13:07:10Z</time>
      </trkpt>
      <trkpt lat="49.21481" lon="-0.29497">
        <ele>4.7</ele>
        <time>2023-07-05T13:07:11Z</time>
      </trkpt>
      <trkpt lat="49.21488" lon="-0.29493">
        <ele>4.7</ele>
        <time>2023-07-05T13:07:12Z</time>
      </trkpt>
      <trkpt lat="49.21495" lon="-0.29488">
        <ele>4.7</ele>
        <time>2023-07-05T13:07:13Z</time>
      </trkpt>
      <trkpt lat="49.21503" lon="-0.29484">
        <ele>4.7</ele>
        <time>2023-07-05T13:07:14Z</time>
      </trkpt>
      <trkpt lat="49.2151" lon="-0.29479">
        <ele>4.7</ele>
        <time>2023-07-05T13:07:15Z</time>
      </trkpt>
      <trkpt lat="49.21518" lon="-0.29474">
        <ele>4.7</ele>
        <time>2023-07-05T13:07:16Z</time>
      </trkpt>
      <trkpt lat="49.21525" lon="-0.29469">
        <ele>4.7</ele>
        <time>2023-07-05T13:07:17Z</time>
      </trkpt>
      <trkpt lat="49.21532" lon="-0.29465">
        <ele>4.7</ele>
        <time>2023-07-05T13:07:18Z</time>
      </trkpt>
      <trkpt lat="49.21539" lon="-0.2946">
        <ele>4.6</ele>
        <time>2023-07-05T13:07:19Z</time>
      </trkpt>
      <trkpt lat="49.21546" lon="-0.29456">
        <ele>4.6</ele>
        <time>2023-07-05T13:07:20Z</time>
      </trkpt>
      <trkpt lat="49.21554" lon="-0.29452">
        <ele>4.6</ele>
        <time>2023-07-05T13:07:21Z</time>
      </trkpt>
      <trkpt lat="49.21562" lon="-0.29448">
        <ele>4.6</ele>
        <time>2023-07-05T13:07:22Z</time>
      </trkpt>
      <trkpt lat="49.2157" lon="-0.29444">
        <ele>4.6</ele>
        <time>2023-07-05T13:07:23Z</time>
      </trkpt>
      <trkpt lat="49.21578" lon="-0.2944">
        <ele>4.6</ele>
        <time>2023-07-05T13:07:24Z</time>
      </trkpt>
      <trkpt lat="49.21586" lon="-0.29435">
        <ele>4.6</ele>
        <time>2023-07-05T13:07:25Z</time>
      </trkpt>
      <trkpt lat="49.21593" lon="-0.29431">
        <ele>4.6</ele>
        <time>2023-07-05T13:07:26Z</time>
      </trkpt>
      <trkpt lat="49.21601" lon="-0.29426">
        <ele>4.6</ele>
        <time>2023-07-05T13:07:27Z</time>
      </trkpt>
      <trkpt lat="49.21609" lon="-0.29421">
        <ele>4.6</ele>
        <time>2023-07-05T13:07:28Z</time>
      </trkpt>
      <trkpt lat="49.21617" lon="-0.29416">
        <ele>4.6</ele>
        <time>2023-07-05T13:07:29Z</time>
      </trkpt>
      <trkpt lat="49.21625" lon="-0.29412">
        <ele>4.6</ele>
        <time>2023-07-05T13:07:30Z</time>
      </trkpt>
      <trkpt lat="49.21632" lon="-0.29408">
        <ele>4.6</ele>
        <time>2023-07-05T13:07:31Z</time>
      </trkpt>
      <trkpt lat="49.2164" lon="-0.29403">
        <ele>4.6</ele>
        <time>2023-07-05T13:07:32Z</time>
      </trkpt>
      <trkpt lat="49.21648" lon="-0.29398">
        <ele>4.5</ele>
        <time>2023-07-05T13:07:33Z</time>
      </trkpt>
      <trkpt lat="49.21656" lon="-0.29393">
        <ele>4.5</ele>
        <time>2023-07-05T13:07:34Z</time>
      </trkpt>
      <trkpt lat="49.21665" lon="-0.29388">
        <ele>4.5</ele>
        <time>2023-07-05T13:07:35Z</time>
      </trkpt>
      <trkpt lat="49.21673" lon="-0.29383">
        <ele>4.4</ele>
        <time>2023-07-05T13:07:36Z</time>
      </trkpt>
      <trkpt lat="49.21681" lon="-0.29378">
        <ele>4.4</ele>
        <time>2023-07-05T13:07:37Z</time>
      </trkpt>
      <trkpt lat="49.2169" lon="-0.29373">
        <ele>4.4</ele>
        <time>2023-07-05T13:07:38Z</time>
      </trkpt>
      <trkpt lat="49.21698" lon="-0.29368">
        <ele>4.4</ele>
        <time>2023-07-05T13:07:39Z</time>
      </trkpt>
      <trkpt lat="49.21706" lon="-0.29363">
        <ele>4.4</ele>
        <time>2023-07-05T13:07:40Z</time>
      </trkpt>
      <trkpt lat="49.21715" lon="-0.29357">
        <ele>4.4</ele>
        <time>2023-07-05T13:07:41Z</time>
      </trkpt>
      <trkpt lat="49.21723" lon="-0.29352">
        <ele>4.4</ele>
        <time>2023-07-05T13:07:42Z</time>
      </trkpt>
      <trkpt lat="49.21732" lon="-0.29347">
        <ele>4.4</ele>
        <time>2023-07-05T13:07:43Z</time>
      </trkpt>
      <trkpt lat="49.2174" lon="-0.29342">
        <ele>4.4</ele>
        <time>2023-07-05T13:07:44Z</time>
      </trkpt>
      <trkpt lat="49.21748" lon="-0.29336">
        <ele>4.4</ele>
        <time>2023-07-05T13:07:45Z</time>
      </trkpt>
      <trkpt lat="49.21755" lon="-0.29331">
        <ele>4.4</ele>
        <time>2023-07-05T13:07:46Z</time>
      </trkpt>
      <trkpt lat="49.21763" lon="-0.29326">
        <ele>4.5</ele>
        <time>2023-07-05T13:07:47Z</time>
      </trkpt>
      <trkpt lat="49.21771" lon="-0.2932">
        <ele>4.5</ele>
        <time>2023-07-05T13:07:48Z</time>
      </trkpt>
      <trkpt lat="49.21778" lon="-0.29315">
        <ele>4.6</ele>
        <time>2023-07-05T13:07:49Z</time>
      </trkpt>
      <trkpt lat="49.21785" lon="-0.29309">
        <ele>4.7</ele>
        <time>2023-07-05T13:07:50Z</time>
      </trkpt>
      <trkpt lat="49.21792" lon="-0.29305">
        <ele>4.8</ele>
        <time>2023-07-05T13:07:51Z</time>
      </trkpt>
      <trkpt lat="49.21799" lon="-0.29301">
        <ele>4.8</ele>
        <time>2023-07-05T13:07:52Z</time>
      </trkpt>
      <trkpt lat="49.21807" lon="-0.29298">
        <ele>4.8</ele>
        <time>2023-07-05T13:07:53Z</time>
      </trkpt>
      <trkpt lat="49.21814" lon="-0.29296">
        <ele>4.7</ele>
        <time>2023-07-05T13:07:54Z</time>
      </trkpt>
      <trkpt lat="49.21821" lon="-0.29297">
        <ele>4.7</ele>
        <time>2023-07-05T13:07:55Z</time>
      </trkpt>
      <trkpt lat="49.21829" lon="-0.29299">
        <ele>4.7</ele>
        <time>2023-07-05T13:07:56Z</time>
      </trkpt>
      <trkpt lat="49.21836" lon="-0.29304">
        <ele>4.6</ele>
        <time>2023-07-05T13:07:57Z</time>
      </trkpt>
      <trkpt lat="49.21843" lon="-0.2931">
        <ele>4.6</ele>
        <time>2023-07-05T13:07:58Z</time>
      </trkpt>
      <trkpt lat="49.21849" lon="-0.29316">
        <ele>4.6</ele>
        <time>2023-07-05T13:07:59Z</time>
      </trkpt>
      <trkpt lat="49.21856" lon="-0.29323">
        <ele>4.6</ele>
        <time>2023-07-05T13:08:00Z</time>
      </trkpt>
      <trkpt lat="49.21862" lon="-0.29331">
        <ele>4.7</ele>
        <time>2023-07-05T13:08:01Z</time>
      </trkpt>
      <trkpt lat="49.21868" lon="-0.29339">
        <ele>4.7</ele>
        <time>2023-07-05T13:08:02Z</time>
      </trkpt>
      <trkpt lat="49.21873" lon="-0.29347">
        <ele>4.7</ele>
        <time>2023-07-05T13:08:03Z</time>
      </trkpt>
      <trkpt lat="49.21879" lon="-0.29355">
        <ele>4.8</ele>
        <time>2023-07-05T13:08:04Z</time>
      </trkpt>
      <trkpt lat="49.21885" lon="-0.29362">
        <ele>4.8</ele>
        <time>2023-07-05T13:08:05Z</time>
      </trkpt>
      <trkpt lat="49.2189" lon="-0.29367">
        <ele>4.9</ele>
        <time>2023-07-05T13:08:06Z</time>
      </trkpt>
      <trkpt lat="49.21896" lon="-0.29371">
        <ele>4.9</ele>
        <time>2023-07-05T13:08:07Z</time>
      </trkpt>
      <trkpt lat="49.21903" lon="-0.29372">
        <ele>5</ele>
        <time>2023-07-05T13:08:08Z</time>
      </trkpt>
      <trkpt lat="49.21911" lon="-0.29371">
        <ele>5</ele>
        <time>2023-07-05T13:08:09Z</time>
      </trkpt>
      <trkpt lat="49.21918" lon="-0.29368">
        <ele>4.9</ele>
        <time>2023-07-05T13:08:10Z</time>
      </trkpt>
      <trkpt lat="49.21925" lon="-0.29363">
        <ele>4.7</ele>
        <time>2023-07-05T13:08:11Z</time>
      </trkpt>
      <trkpt lat="49.21931" lon="-0.29357">
        <ele>4.6</ele>
        <time>2023-07-05T13:08:12Z</time>
      </trkpt>
      <trkpt lat="49.21936" lon="-0.29348">
        <ele>4.4</ele>
        <time>2023-07-05T13:08:13Z</time>
      </trkpt>
      <trkpt lat="49.21942" lon="-0.29339">
        <ele>4.3</ele>
        <time>2023-07-05T13:08:14Z</time>
      </trkpt>
      <trkpt lat="49.21948" lon="-0.29329">
        <ele>4.3</ele>
        <time>2023-07-05T13:08:15Z</time>
      </trkpt>
      <trkpt lat="49.21953" lon="-0.29319">
        <ele>4.2</ele>
        <time>2023-07-05T13:08:16Z</time>
      </trkpt>
      <trkpt lat="49.21959" lon="-0.2931">
        <ele>4.2</ele>
        <time>2023-07-05T13:08:17Z</time>
      </trkpt>
      <trkpt lat="49.21965" lon="-0.293">
        <ele>4.2</ele>
        <time>2023-07-05T13:08:18Z</time>
      </trkpt>
      <trkpt lat="49.21971" lon="-0.2929">
        <ele>4.2</ele>
        <time>2023-07-05T13:08:19Z</time>
      </trkpt>
      <trkpt lat="49.21977" lon="-0.2928">
        <ele>4.1</ele>
        <time>2023-07-05T13:08:20Z</time>
      </trkpt>
      <trkpt lat="49.21982" lon="-0.2927">
        <ele>4.1</ele>
        <time>2023-07-05T13:08:21Z</time>
      </trkpt>
      <trkpt lat="49.21988" lon="-0.2926">
        <ele>4.1</ele>
        <time>2023-07-05T13:08:22Z</time>
      </trkpt>
      <trkpt lat="49.21994" lon="-0.2925">
        <ele>4.1</ele>
        <time>2023-07-05T13:08:23Z</time>
      </trkpt>
      <trkpt lat="49.21999" lon="-0.29241">
        <ele>4.1</ele>
        <time>2023-07-05T13:08:24Z</time>
      </trkpt>
      <trkpt lat="49.22004" lon="-0.29232">
        <ele>4</ele>
        <time>2023-07-05T13:08:25Z</time>
      </trkpt>
      <trkpt lat="49.2201" lon="-0.29223">
        <ele>4</ele>
        <time>2023-07-05T13:08:26Z</time>
      </trkpt>
      <trkpt lat="49.22016" lon="-0.29214">
        <ele>4</ele>
        <time>2023-07-05T13:08:27Z</time>
      </trkpt>
      <trkpt lat="49.22021" lon="-0.29205">
        <ele>4</ele>
        <time>2023-07-05T13:08:28Z</time>
      </trkpt>
      <trkpt lat="49.22027" lon="-0.29195">
        <ele>4</ele>
        <time>2023-07-05T13:08:29Z</time>
      </trkpt>
      <trkpt lat="49.22033" lon="-0.29186">
        <ele>4</ele>
        <time>2023-07-05T13:08:30Z</time>
      </trkpt>
      <trkpt lat="49.22039" lon="-0.29177">
        <ele>4</ele>
        <time>2023-07-05T13:08:31Z</time>
      </trkpt>
      <trkpt lat="49.22045" lon="-0.29167">
        <ele>4</ele>
        <time>2023-07-05T13:08:32Z</time>
      </trkpt>
      <trkpt lat="49.2205" lon="-0.29158">
        <ele>4</ele>
        <time>2023-07-05T13:08:33Z</time>
      </trkpt>
      <trkpt lat="49.22056" lon="-0.29148">
        <ele>4</ele>
        <time>2023-07-05T13:08:34Z</time>
      </trkpt>
      <trkpt lat="49.22061" lon="-0.29138">
        <ele>4</ele>
        <time>2023-07-05T13:08:35Z</time>
      </trkpt>
      <trkpt lat="49.22067" lon="-0.29128">
        <ele>4</ele>
        <time>2023-07-05T13:08:36Z</time>
      </trkpt>
      <trkpt lat="49.22074" lon="-0.29118">
        <ele>4.1</ele>
        <time>2023-07-05T13:08:37Z</time>
      </trkpt>
      <trkpt lat="49.2208" lon="-0.29108">
        <ele>4.1</ele>
        <time>2023-07-05T13:08:38Z</time>
      </trkpt>
      <trkpt lat="49.22086" lon="-0.29098">
        <ele>4.1</ele>
        <time>2023-07-05T13:08:39Z</time>
      </trkpt>
      <trkpt lat="49.22092" lon="-0.29089">
        <ele>4.1</ele>
        <time>2023-07-05T13:08:40Z</time>
      </trkpt>
      <trkpt lat="49.22097" lon="-0.29079">
        <ele>4.2</ele>
        <time>2023-07-05T13:08:41Z</time>
      </trkpt>
      <trkpt lat="49.22103" lon="-0.29069">
        <ele>4.2</ele>
        <time>2023-07-05T13:08:42Z</time>
      </trkpt>
      <trkpt lat="49.22109" lon="-0.29059">
        <ele>4.2</ele>
        <time>2023-07-05T13:08:43Z</time>
      </trkpt>
      <trkpt lat="49.22115" lon="-0.2905">
        <ele>4.3</ele>
        <time>2023-07-05T13:08:44Z</time>
      </trkpt>
      <trkpt lat="49.2212" lon="-0.2904">
        <ele>4.3</ele>
        <time>2023-07-05T13:08:45Z</time>
      </trkpt>
      <trkpt lat="49.22126" lon="-0.2903">
        <ele>4.3</ele>
        <time>2023-07-05T13:08:46Z</time>
      </trkpt>
      <trkpt lat="49.22132" lon="-0.2902">
        <ele>4.4</ele>
        <time>2023-07-05T13:08:47Z</time>
      </trkpt>
      <trkpt lat="49.22138" lon="-0.2901">
        <ele>4.4</ele>
        <time>2023-07-05T13:08:48Z</time>
      </trkpt>
      <trkpt lat="49.22144" lon="-0.29001">
        <ele>4.4</ele>
        <time>2023-07-05T13:08:49Z</time>
      </trkpt>
      <trkpt lat="49.22149" lon="-0.28992">
        <ele>4.5</ele>
        <time>2023-07-05T13:08:50Z</time>
      </trkpt>
      <trkpt lat="49.22155" lon="-0.28983">
        <ele>4.6</ele>
        <time>2023-07-05T13:08:51Z</time>
      </trkpt>
      <trkpt lat="49.2216" lon="-0.28974">
        <ele>4.7</ele>
        <time>2023-07-05T13:08:52Z</time>
      </trkpt>
      <trkpt lat="49.22166" lon="-0.28964">
        <ele>4.7</ele>
        <time>2023-07-05T13:08:53Z</time>
      </trkpt>
      <trkpt lat="49.22171" lon="-0.28955">
        <ele>4.8</ele>
        <time>2023-07-05T13:08:54Z</time>
      </trkpt>
      <trkpt lat="49.22177" lon="-0.28945">
        <ele>4.8</ele>
        <time>2023-07-05T13:08:55Z</time>
      </trkpt>
      <trkpt lat="49.22182" lon="-0.28935">
        <ele>4.9</ele>
        <time>2023-07-05T13:08:56Z</time>
      </trkpt>
      <trkpt lat="49.22187" lon="-0.28925">
        <ele>5</ele>
        <time>2023-07-05T13:08:57Z</time>
      </trkpt>
      <trkpt lat="49.22193" lon="-0.28915">
        <ele>5</ele>
        <time>2023-07-05T13:08:58Z</time>
      </trkpt>
      <trkpt lat="49.22199" lon="-0.28905">
        <ele>5</ele>
        <time>2023-07-05T13:08:59Z</time>
      </trkpt>
      <trkpt lat="49.22204" lon="-0.28896">
        <ele>5.1</ele>
        <time>2023-07-05T13:09:00Z</time>
      </trkpt>
      <trkpt lat="49.2221" lon="-0.28887">
        <ele>5.1</ele>
        <time>2023-07-05T13:09:01Z</time>
      </trkpt>
      <trkpt lat="49.22216" lon="-0.28877">
        <ele>5.1</ele>
        <time>2023-07-05T13:09:02Z</time>
      </trkpt>
      <trkpt lat="49.22221" lon="-0.28868">
        <ele>5.1</ele>
        <time>2023-07-05T13:09:03Z</time>
      </trkpt>
      <trkpt lat="49.22227" lon="-0.28858">
        <ele>5.2</ele>
        <time>2023-07-05T13:09:04Z</time>
      </trkpt>
      <trkpt lat="49.22232" lon="-0.28848">
        <ele>5.2</ele>
        <time>2023-07-05T13:09:05Z</time>
      </trkpt>
      <trkpt lat="49.22238" lon="-0.28838">
        <ele>5.2</ele>
        <time>2023-07-05T13:09:06Z</time>
      </trkpt>
      <trkpt lat="49.22244" lon="-0.28828">
        <ele>5.1</ele>
        <time>2023-07-05T13:09:07Z</time>
      </trkpt>
      <trkpt lat="49.22249" lon="-0.28819">
        <ele>5.1</ele>
        <time>2023-07-05T13:09:08Z</time>
      </trkpt>
      <trkpt lat="49.22255" lon="-0.28809">
        <ele>5.1</ele>
        <time>2023-07-05T13:09:09Z</time>
      </trkpt>
      <trkpt lat="49.2226" lon="-0.288">
        <ele>5.1</ele>
        <time>2023-07-05T13:09:10Z</time>
      </trkpt>
      <trkpt lat="49.22266" lon="-0.28791">
        <ele>5.1</ele>
        <time>2023-07-05T13:09:11Z</time>
      </trkpt>
      <trkpt lat="49.22271" lon="-0.28781">
        <ele>5.1</ele>
        <time>2023-07-05T13:09:12Z</time>
      </trkpt>
      <trkpt lat="49.22277" lon="-0.28772">
        <ele>5.2</ele>
        <time>2023-07-05T13:09:13Z</time>
      </trkpt>
      <trkpt lat="49.22282" lon="-0.28763">
        <ele>5.2</ele>
        <time>2023-07-05T13:09:14Z</time>
      </trkpt>
      <trkpt lat="49.22288" lon="-0.28754">
        <ele>5.2</ele>
        <time>2023-07-05T13:09:15Z</time>
      </trkpt>
      <trkpt lat="49.22294" lon="-0.28744">
        <ele>5.3</ele>
        <time>2023-07-05T13:09:16Z</time>
      </trkpt>
      <trkpt lat="49.22299" lon="-0.28734">
        <ele>5.3</ele>
        <time>2023-07-05T13:09:17Z</time>
      </trkpt>
      <trkpt lat="49.22305" lon="-0.28725">
        <ele>5.4</ele>
        <time>2023-07-05T13:09:18Z</time>
      </trkpt>
      <trkpt lat="49.22311" lon="-0.28716">
        <ele>5.4</ele>
        <time>2023-07-05T13:09:19Z</time>
      </trkpt>
      <trkpt lat="49.22316" lon="-0.28707">
        <ele>5.4</ele>
        <time>2023-07-05T13:09:20Z</time>
      </trkpt>
      <trkpt lat="49.22321" lon="-0.28698">
        <ele>5.4</ele>
        <time>2023-07-05T13:09:21Z</time>
      </trkpt>
      <trkpt lat="49.22327" lon="-0.28689">
        <ele>5.5</ele>
        <time>2023-07-05T13:09:22Z</time>
      </trkpt>
      <trkpt lat="49.22333" lon="-0.2868">
        <ele>5.5</ele>
        <time>2023-07-05T13:09:23Z</time>
      </trkpt>
      <trkpt lat="49.22339" lon="-0.28671">
        <ele>5.6</ele>
        <time>2023-07-05T13:09:24Z</time>
      </trkpt>
      <trkpt lat="49.22344" lon="-0.28661">
        <ele>5.6</ele>
        <time>2023-07-05T13:09:25Z</time>
      </trkpt>
      <trkpt lat="49.2235" lon="-0.28652">
        <ele>5.6</ele>
        <time>2023-07-05T13:09:26Z</time>
      </trkpt>
      <trkpt lat="49.22355" lon="-0.28642">
        <ele>5.7</ele>
        <time>2023-07-05T13:09:27Z</time>
      </trkpt>
      <trkpt lat="49.22361" lon="-0.28633">
        <ele>5.7</ele>
        <time>2023-07-05T13:09:28Z</time>
      </trkpt>
      <trkpt lat="49.22366" lon="-0.28624">
        <ele>5.7</ele>
        <time>2023-07-05T13:09:29Z</time>
      </trkpt>
      <trkpt lat="49.22372" lon="-0.28614">
        <ele>5.7</ele>
        <time>2023-07-05T13:09:30Z</time>
      </trkpt>
      <trkpt lat="49.22377" lon="-0.28606">
        <ele>5.8</ele>
        <time>2023-07-05T13:09:31Z</time>
      </trkpt>
      <trkpt lat="49.22383" lon="-0.28597">
        <ele>5.8</ele>
        <time>2023-07-05T13:09:32Z</time>
      </trkpt>
      <trkpt lat="49.22388" lon="-0.28588">
        <ele>5.8</ele>
        <time>2023-07-05T13:09:33Z</time>
      </trkpt>
      <trkpt lat="49.22394" lon="-0.28579">
        <ele>5.9</ele>
        <time>2023-07-05T13:09:34Z</time>
      </trkpt>
      <trkpt lat="49.22399" lon="-0.2857">
        <ele>5.9</ele>
        <time>2023-07-05T13:09:35Z</time>
      </trkpt>
      <trkpt lat="49.22404" lon="-0.28562">
        <ele>5.9</ele>
        <time>2023-07-05T13:09:36Z</time>
      </trkpt>
      <trkpt lat="49.2241" lon="-0.28554">
        <ele>5.9</ele>
        <time>2023-07-05T13:09:37Z</time>
      </trkpt>
      <trkpt lat="49.22415" lon="-0.28545">
        <ele>5.9</ele>
        <time>2023-07-05T13:09:38Z</time>
      </trkpt>
      <trkpt lat="49.2242" lon="-0.28537">
        <ele>5.9</ele>
        <time>2023-07-05T13:09:39Z</time>
      </trkpt>
      <trkpt lat="49.22426" lon="-0.28528">
        <ele>5.9</ele>
        <time>2023-07-05T13:09:40Z</time>
      </trkpt>
      <trkpt lat="49.22432" lon="-0.2852">
        <ele>5.9</ele>
        <time>2023-07-05T13:09:41Z</time>
      </trkpt>
      <trkpt lat="49.22438" lon="-0.28511">
        <ele>5.9</ele>
        <time>2023-07-05T13:09:42Z</time>
      </trkpt>
      <trkpt lat="49.22444" lon="-0.28504">
        <ele>5.9</ele>
        <time>2023-07-05T13:09:43Z</time>
      </trkpt>
      <trkpt lat="49.22449" lon="-0.28496">
        <ele>5.9</ele>
        <time>2023-07-05T13:09:44Z</time>
      </trkpt>
      <trkpt lat="49.22456" lon="-0.28488">
        <ele>5.9</ele>
        <time>2023-07-05T13:09:45Z</time>
      </trkpt>
      <trkpt lat="49.22461" lon="-0.28481">
        <ele>5.9</ele>
        <time>2023-07-05T13:09:46Z</time>
      </trkpt>
      <trkpt lat="49.22467" lon="-0.28474">
        <ele>5.9</ele>
        <time>2023-07-05T13:09:47Z</time>
      </trkpt>
      <trkpt lat="49.22473" lon="-0.28466">
        <ele>5.9</ele>
        <time>2023-07-05T13:09:48Z</time>
      </trkpt>
      <trkpt lat="49.22479" lon="-0.28458">
        <ele>6</ele>
        <time>2023-07-05T13:09:49Z</time>
      </trkpt>
      <trkpt lat="49.22486" lon="-0.2845">
        <ele>6</ele>
        <time>2023-07-05T13:09:50Z</time>
      </trkpt>
      <trkpt lat="49.22492" lon="-0.28442">
        <ele>6</ele>
        <time>2023-07-05T13:09:51Z</time>
      </trkpt>
      <trkpt lat="49.22499" lon="-0.28435">
        <ele>6</ele>
        <time>2023-07-05T13:09:52Z</time>
      </trkpt>
      <trkpt lat="49.22505" lon="-0.28427">
        <ele>6</ele>
        <time>2023-07-05T13:09:53Z</time>
      </trkpt>
      <trkpt lat="49.22512" lon="-0.2842">
        <ele>6</ele>
        <time>2023-07-05T13:09:54Z</time>
      </trkpt>
      <trkpt lat="49.22519" lon="-0.28412">
        <ele>6</ele>
        <time>2023-07-05T13:09:55Z</time>
      </trkpt>
      <trkpt lat="49.22526" lon="-0.28404">
        <ele>6</ele>
        <time>2023-07-05T13:09:56Z</time>
      </trkpt>
      <trkpt lat="49.22533" lon="-0.28396">
        <ele>6</ele>
        <time>2023-07-05T13:09:57Z</time>
      </trkpt>
      <trkpt lat="49.2254" lon="-0.28388">
        <ele>6</ele>
        <time>2023-07-05T13:09:58Z</time>
      </trkpt>
      <trkpt lat="49.22547" lon="-0.2838">
        <ele>6</ele>
        <time>2023-07-05T13:09:59Z</time>
      </trkpt>
      <trkpt lat="49.22555" lon="-0.28372">
        <ele>6</ele>
        <time>2023-07-05T13:10:00Z</time>
      </trkpt>
      <trkpt lat="49.22563" lon="-0.28365">
        <ele>6</ele>
        <time>2023-07-05T13:10:01Z</time>
      </trkpt>
      <trkpt lat="49.22571" lon="-0.28357">
        <ele>6</ele>
        <time>2023-07-05T13:10:02Z</time>
      </trkpt>
      <trkpt lat="49.22579" lon="-0.28349">
        <ele>6</ele>
        <time>2023-07-05T13:10:03Z</time>
      </trkpt>
      <trkpt lat="49.22587" lon="-0.2834">
        <ele>6</ele>
        <time>2023-07-05T13:10:04Z</time>
      </trkpt>
      <trkpt lat="49.22594" lon="-0.28333">
        <ele>6</ele>
        <time>2023-07-05T13:10:05Z</time>
      </trkpt>
      <trkpt lat="49.22602" lon="-0.28325">
        <ele>6</ele>
        <time>2023-07-05T13:10:06Z</time>
      </trkpt>
      <trkpt lat="49.2261" lon="-0.28317">
        <ele>6</ele>
        <time>2023-07-05T13:10:07Z</time>
      </trkpt>
      <trkpt lat="49.22618" lon="-0.28309">
        <ele>6</ele>
        <time>2023-07-05T13:10:08Z</time>
      </trkpt>
      <trkpt lat="49.22626" lon="-0.283">
        <ele>6</ele>
        <time>2023-07-05T13:10:09Z</time>
      </trkpt>
      <trkpt lat="49.22633" lon="-0.28292">
        <ele>6</ele>
        <time>2023-07-05T13:10:10Z</time>
      </trkpt>
      <trkpt lat="49.22641" lon="-0.28284">
        <ele>6</ele>
        <time>2023-07-05T13:10:11Z</time>
      </trkpt>
      <trkpt lat="49.22648" lon="-0.28276">
        <ele>5.9</ele>
        <time>2023-07-05T13:10:12Z</time>
      </trkpt>
      <trkpt lat="49.22656" lon="-0.28268">
        <ele>5.9</ele>
        <time>2023-07-05T13:10:13Z</time>
      </trkpt>
      <trkpt lat="49.22664" lon="-0.2826">
        <ele>5.9</ele>
        <time>2023-07-05T13:10:14Z</time>
      </trkpt>
      <trkpt lat="49.22672" lon="-0.28252">
        <ele>5.8</ele>
        <time>2023-07-05T13:10:15Z</time>
      </trkpt>
      <trkpt lat="49.2268" lon="-0.28244">
        <ele>5.8</ele>
        <time>2023-07-05T13:10:16Z</time>
      </trkpt>
      <trkpt lat="49.22688" lon="-0.28236">
        <ele>5.8</ele>
        <time>2023-07-05T13:10:17Z</time>
      </trkpt>
      <trkpt lat="49.22696" lon="-0.28228">
        <ele>5.8</ele>
        <time>2023-07-05T13:10:18Z</time>
      </trkpt>
      <trkpt lat="49.22704" lon="-0.2822">
        <ele>5.8</ele>
        <time>2023-07-05T13:10:19Z</time>
      </trkpt>
      <trkpt lat="49.22712" lon="-0.28211">
        <ele>5.8</ele>
        <time>2023-07-05T13:10:20Z</time>
      </trkpt>
      <trkpt lat="49.22719" lon="-0.28203">
        <ele>5.8</ele>
        <time>2023-07-05T13:10:21Z</time>
      </trkpt>
      <trkpt lat="49.22727" lon="-0.28195">
        <ele>5.8</ele>
        <time>2023-07-05T13:10:22Z</time>
      </trkpt>
      <trkpt lat="49.22735" lon="-0.28186">
        <ele>5.8</ele>
        <time>2023-07-05T13:10:23Z</time>
      </trkpt>
      <trkpt lat="49.22743" lon="-0.28178">
        <ele>5.7</ele>
        <time>2023-07-05T13:10:24Z</time>
      </trkpt>
      <trkpt lat="49.22751" lon="-0.28169">
        <ele>5.7</ele>
        <time>2023-07-05T13:10:25Z</time>
      </trkpt>
      <trkpt lat="49.22759" lon="-0.28161">
        <ele>5.7</ele>
        <time>2023-07-05T13:10:26Z</time>
      </trkpt>
      <trkpt lat="49.22767" lon="-0.28152">
        <ele>5.6</ele>
        <time>2023-07-05T13:10:27Z</time>
      </trkpt>
      <trkpt lat="49.22776" lon="-0.28144">
        <ele>5.6</ele>
        <time>2023-07-05T13:10:28Z</time>
      </trkpt>
      <trkpt lat="49.22784" lon="-0.28136">
        <ele>5.6</ele>
        <time>2023-07-05T13:10:29Z</time>
      </trkpt>
      <trkpt lat="49.22792" lon="-0.28128">
        <ele>5.5</ele>
        <time>2023-07-05T13:10:30Z</time>
      </trkpt>
      <trkpt lat="49.22801" lon="-0.2812">
        <ele>5.5</ele>
        <time>2023-07-05T13:10:31Z</time>
      </trkpt>
      <trkpt lat="49.22809" lon="-0.28112">
        <ele>5.4</ele>
        <time>2023-07-05T13:10:32Z</time>
      </trkpt>
      <trkpt lat="49.22817" lon="-0.28104">
        <ele>5.4</ele>
        <time>2023-07-05T13:10:33Z</time>
      </trkpt>
      <trkpt lat="49.22825" lon="-0.28095">
        <ele>5.4</ele>
        <time>2023-07-05T13:10:34Z</time>
      </trkpt>
      <trkpt lat="49.22834" lon="-0.28087">
        <ele>5.4</ele>
        <time>2023-07-05T13:10:35Z</time>
      </trkpt>
      <trkpt lat="49.22842" lon="-0.28078">
        <ele>5.4</ele>
        <time>2023-07-05T13:10:36Z</time>
      </trkpt>
      <trkpt lat="49.2285" lon="-0.2807">
        <ele>5.4</ele>
        <time>2023-07-05T13:10:37Z</time>
      </trkpt>
      <trkpt lat="49.22858" lon="-0.28062">
        <ele>5.4</ele>
        <time>2023-07-05T13:10:38Z</time>
      </trkpt>
      <trkpt lat="49.22865" lon="-0.28054">
        <ele>5.4</ele>
        <time>2023-07-05T13:10:39Z</time>
      </trkpt>
      <trkpt lat="49.22873" lon="-0.28047">
        <ele>5.4</ele>
        <time>2023-07-05T13:10:40Z</time>
      </trkpt>
      <trkpt lat="49.22882" lon="-0.2804">
        <ele>5.4</ele>
        <time>2023-07-05T13:10:41Z</time>
      </trkpt>
      <trkpt lat="49.2289" lon="-0.28032">
        <ele>5.4</ele>
        <time>2023-07-05T13:10:42Z</time>
      </trkpt>
      <trkpt lat="49.22898" lon="-0.28023">
        <ele>5.3</ele>
        <time>2023-07-05T13:10:43Z</time>
      </trkpt>
      <trkpt lat="49.22906" lon="-0.28015">
        <ele>5.3</ele>
        <time>2023-07-05T13:10:44Z</time>
      </trkpt>
      <trkpt lat="49.22914" lon="-0.28006">
        <ele>5.3</ele>
        <time>2023-07-05T13:10:45Z</time>
      </trkpt>
      <trkpt lat="49.22922" lon="-0.27998">
        <ele>5.3</ele>
        <time>2023-07-05T13:10:46Z</time>
      </trkpt>
      <trkpt lat="49.2293" lon="-0.2799">
        <ele>5.3</ele>
        <time>2023-07-05T13:10:47Z</time>
      </trkpt>
      <trkpt lat="49.22938" lon="-0.27982">
        <ele>5.2</ele>
        <time>2023-07-05T13:10:48Z</time>
      </trkpt>
      <trkpt lat="49.22946" lon="-0.27973">
        <ele>5.2</ele>
        <time>2023-07-05T13:10:49Z</time>
      </trkpt>
      <trkpt lat="49.22955" lon="-0.27965">
        <ele>5.1</ele>
        <time>2023-07-05T13:10:50Z</time>
      </trkpt>
      <trkpt lat="49.22963" lon="-0.27957">
        <ele>5.1</ele>
        <time>2023-07-05T13:10:51Z</time>
      </trkpt>
      <trkpt lat="49.22971" lon="-0.27948">
        <ele>5.1</ele>
        <time>2023-07-05T13:10:52Z</time>
      </trkpt>
      <trkpt lat="49.2298" lon="-0.2794">
        <ele>5.1</ele>
        <time>2023-07-05T13:10:53Z</time>
      </trkpt>
      <trkpt lat="49.22987" lon="-0.27932">
        <ele>5</ele>
        <time>2023-07-05T13:10:54Z</time>
      </trkpt>
      <trkpt lat="49.22996" lon="-0.27923">
        <ele>5</ele>
        <time>2023-07-05T13:10:55Z</time>
      </trkpt>
      <trkpt lat="49.23004" lon="-0.27914">
        <ele>5</ele>
        <time>2023-07-05T13:10:56Z</time>
      </trkpt>
      <trkpt lat="49.23012" lon="-0.27906">
        <ele>5</ele>
        <time>2023-07-05T13:10:57Z</time>
      </trkpt>
      <trkpt lat="49.2302" lon="-0.27898">
        <ele>5</ele>
        <time>2023-07-05T13:10:58Z</time>
      </trkpt>
      <trkpt lat="49.23029" lon="-0.2789">
        <ele>5</ele>
        <time>2023-07-05T13:10:59Z</time>
      </trkpt>
      <trkpt lat="49.23037" lon="-0.27882">
        <ele>5</ele>
        <time>2023-07-05T13:11:00Z</time>
      </trkpt>
      <trkpt lat="49.23045" lon="-0.27875">
        <ele>5</ele>
        <time>2023-07-05T13:11:01Z</time>
      </trkpt>
      <trkpt lat="49.23053" lon="-0.27866">
        <ele>5</ele>
        <time>2023-07-05T13:11:02Z</time>
      </trkpt>
      <trkpt lat="49.23062" lon="-0.27857">
        <ele>4.9</ele>
        <time>2023-07-05T13:11:03Z</time>
      </trkpt>
      <trkpt lat="49.2307" lon="-0.27849">
        <ele>4.9</ele>
        <time>2023-07-05T13:11:04Z</time>
      </trkpt>
      <trkpt lat="49.23078" lon="-0.27841">
        <ele>4.9</ele>
        <time>2023-07-05T13:11:05Z</time>
      </trkpt>
      <trkpt lat="49.23086" lon="-0.27832">
        <ele>4.8</ele>
        <time>2023-07-05T13:11:06Z</time>
      </trkpt>
      <trkpt lat="49.23094" lon="-0.27823">
        <ele>4.8</ele>
        <time>2023-07-05T13:11:07Z</time>
      </trkpt>
      <trkpt lat="49.23102" lon="-0.27815">
        <ele>4.8</ele>
        <time>2023-07-05T13:11:08Z</time>
      </trkpt>
      <trkpt lat="49.2311" lon="-0.27806">
        <ele>4.8</ele>
        <time>2023-07-05T13:11:09Z</time>
      </trkpt>
      <trkpt lat="49.23118" lon="-0.27798">
        <ele>4.8</ele>
        <time>2023-07-05T13:11:10Z</time>
      </trkpt>
      <trkpt lat="49.23126" lon="-0.2779">
        <ele>4.8</ele>
        <time>2023-07-05T13:11:11Z</time>
      </trkpt>
      <trkpt lat="49.23135" lon="-0.27781">
        <ele>4.8</ele>
        <time>2023-07-05T13:11:12Z</time>
      </trkpt>
      <trkpt lat="49.23143" lon="-0.27772">
        <ele>4.8</ele>
        <time>2023-07-05T13:11:13Z</time>
      </trkpt>
      <trkpt lat="49.23152" lon="-0.27763">
        <ele>4.8</ele>
        <time>2023-07-05T13:11:14Z</time>
      </trkpt>
      <trkpt lat="49.23159" lon="-0.27755">
        <ele>4.7</ele>
        <time>2023-07-05T13:11:15Z</time>
      </trkpt>
      <trkpt lat="49.23167" lon="-0.27747">
        <ele>4.7</ele>
        <time>2023-07-05T13:11:16Z</time>
      </trkpt>
      <trkpt lat="49.23174" lon="-0.27739">
        <ele>4.7</ele>
        <time>2023-07-05T13:11:17Z</time>
      </trkpt>
      <trkpt lat="49.23181" lon="-0.27731">
        <ele>4.7</ele>
        <time>2023-07-05T13:11:18Z</time>
      </trkpt>
      <trkpt lat="49.23188" lon="-0.27723">
        <ele>4.6</ele>
        <time>2023-07-05T13:11:19Z</time>
      </trkpt>
      <trkpt lat="49.23195" lon="-0.27715">
        <ele>4.6</ele>
        <time>2023-07-05T13:11:20Z</time>
      </trkpt>
      <trkpt lat="49.23202" lon="-0.27707">
        <ele>4.6</ele>
        <time>2023-07-05T13:11:21Z</time>
      </trkpt>
      <trkpt lat="49.2321" lon="-0.277">
        <ele>4.6</ele>
        <time>2023-07-05T13:11:22Z</time>
      </trkpt>
      <trkpt lat="49.23217" lon="-0.27692">
        <ele>4.6</ele>
        <time>2023-07-05T13:11:23Z</time>
      </trkpt>
      <trkpt lat="49.23224" lon="-0.27684">
        <ele>4.6</ele>
        <time>2023-07-05T13:11:24Z</time>
      </trkpt>
      <trkpt lat="49.2323" lon="-0.27677">
        <ele>4.6</ele>
        <time>2023-07-05T13:11:25Z</time>
      </trkpt>
      <trkpt lat="49.23237" lon="-0.2767">
        <ele>4.6</ele>
        <time>2023-07-05T13:11:26Z</time>
      </trkpt>
      <trkpt lat="49.23244" lon="-0.27664">
        <ele>4.6</ele>
        <time>2023-07-05T13:11:27Z</time>
      </trkpt>
      <trkpt lat="49.23251" lon="-0.27657">
        <ele>4.7</ele>
        <time>2023-07-05T13:11:28Z</time>
      </trkpt>
      <trkpt lat="49.23258" lon="-0.2765">
        <ele>4.7</ele>
        <time>2023-07-05T13:11:29Z</time>
      </trkpt>
      <trkpt lat="49.23264" lon="-0.27642">
        <ele>4.7</ele>
        <time>2023-07-05T13:11:30Z</time>
      </trkpt>
      <trkpt lat="49.23271" lon="-0.27636">
        <ele>4.7</ele>
        <time>2023-07-05T13:11:31Z</time>
      </trkpt>
      <trkpt lat="49.23277" lon="-0.27628">
        <ele>4.6</ele>
        <time>2023-07-05T13:11:32Z</time>
      </trkpt>
      <trkpt lat="49.23284" lon="-0.27621">
        <ele>4.6</ele>
        <time>2023-07-05T13:11:33Z</time>
      </trkpt>
      <trkpt lat="49.23291" lon="-0.27614">
        <ele>4.6</ele>
        <time>2023-07-05T13:11:34Z</time>
      </trkpt>
      <trkpt lat="49.23298" lon="-0.27607">
        <ele>4.7</ele>
        <time>2023-07-05T13:11:35Z</time>
      </trkpt>
      <trkpt lat="49.23304" lon="-0.276">
        <ele>4.7</ele>
        <time>2023-07-05T13:11:36Z</time>
      </trkpt>
      <trkpt lat="49.23311" lon="-0.27592">
        <ele>4.7</ele>
        <time>2023-07-05T13:11:37Z</time>
      </trkpt>
      <trkpt lat="49.23319" lon="-0.27585">
        <ele>4.7</ele>
        <time>2023-07-05T13:11:38Z</time>
      </trkpt>
      <trkpt lat="49.23326" lon="-0.27577">
        <ele>4.7</ele>
        <time>2023-07-05T13:11:39Z</time>
      </trkpt>
      <trkpt lat="49.23333" lon="-0.2757">
        <ele>4.7</ele>
        <time>2023-07-05T13:11:40Z</time>
      </trkpt>
      <trkpt lat="49.2334" lon="-0.27563">
        <ele>4.7</ele>
        <time>2023-07-05T13:11:41Z</time>
      </trkpt>
      <trkpt lat="49.23346" lon="-0.27557">
        <ele>4.7</ele>
        <time>2023-07-05T13:11:42Z</time>
      </trkpt>
      <trkpt lat="49.23353" lon="-0.27549">
        <ele>4.7</ele>
        <time>2023-07-05T13:11:43Z</time>
      </trkpt>
      <trkpt lat="49.23359" lon="-0.27542">
        <ele>4.7</ele>
        <time>2023-07-05T13:11:44Z</time>
      </trkpt>
      <trkpt lat="49.23366" lon="-0.27535">
        <ele>4.7</ele>
        <time>2023-07-05T13:11:45Z</time>
      </trkpt>
      <trkpt lat="49.23372" lon="-0.27528">
        <ele>4.7</ele>
        <time>2023-07-05T13:11:46Z</time>
      </trkpt>
      <trkpt lat="49.23379" lon="-0.27521">
        <ele>4.7</ele>
        <time>2023-07-05T13:11:47Z</time>
      </trkpt>
      <trkpt lat="49.23387" lon="-0.27514">
        <ele>4.7</ele>
        <time>2023-07-05T13:11:48Z</time>
      </trkpt>
      <trkpt lat="49.23394" lon="-0.27508">
        <ele>4.7</ele>
        <time>2023-07-05T13:11:49Z</time>
      </trkpt>
      <trkpt lat="49.23401" lon="-0.27502">
        <ele>4.7</ele>
        <time>2023-07-05T13:11:50Z</time>
      </trkpt>
      <trkpt lat="49.23408" lon="-0.27495">
        <ele>4.7</ele>
        <time>2023-07-05T13:11:51Z</time>
      </trkpt>
      <trkpt lat="49.23415" lon="-0.27488">
        <ele>4.7</ele>
        <time>2023-07-05T13:11:52Z</time>
      </trkpt>
      <trkpt lat="49.23422" lon="-0.2748">
        <ele>4.7</ele>
        <time>2023-07-05T13:11:53Z</time>
      </trkpt>
      <trkpt lat="49.23429" lon="-0.27473">
        <ele>4.8</ele>
        <time>2023-07-05T13:11:54Z</time>
      </trkpt>
      <trkpt lat="49.23435" lon="-0.27466">
        <ele>4.8</ele>
        <time>2023-07-05T13:11:55Z</time>
      </trkpt>
      <trkpt lat="49.23442" lon="-0.27459">
        <ele>4.8</ele>
        <time>2023-07-05T13:11:56Z</time>
      </trkpt>
      <trkpt lat="49.23449" lon="-0.27452">
        <ele>4.8</ele>
        <time>2023-07-05T13:11:57Z</time>
      </trkpt>
      <trkpt lat="49.23455" lon="-0.27445">
        <ele>4.8</ele>
        <time>2023-07-05T13:11:58Z</time>
      </trkpt>
      <trkpt lat="49.23462" lon="-0.27438">
        <ele>4.7</ele>
        <time>2023-07-05T13:11:59Z</time>
      </trkpt>
      <trkpt lat="49.23469" lon="-0.27431">
        <ele>4.7</ele>
        <time>2023-07-05T13:12:00Z</time>
      </trkpt>
      <trkpt lat="49.23476" lon="-0.27425">
        <ele>4.7</ele>
        <time>2023-07-05T13:12:01Z</time>
      </trkpt>
      <trkpt lat="49.23483" lon="-0.27418">
        <ele>4.7</ele>
        <time>2023-07-05T13:12:02Z</time>
      </trkpt>
      <trkpt lat="49.2349" lon="-0.27411">
        <ele>4.7</ele>
        <time>2023-07-05T13:12:03Z</time>
      </trkpt>
      <trkpt lat="49.23496" lon="-0.27404">
        <ele>4.6</ele>
        <time>2023-07-05T13:12:04Z</time>
      </trkpt>
      <trkpt lat="49.23503" lon="-0.27397">
        <ele>4.6</ele>
        <time>2023-07-05T13:12:05Z</time>
      </trkpt>
      <trkpt lat="49.2351" lon="-0.2739">
        <ele>4.6</ele>
        <time>2023-07-05T13:12:06Z</time>
      </trkpt>
      <trkpt lat="49.23517" lon="-0.27384">
        <ele>4.6</ele>
        <time>2023-07-05T13:12:07Z</time>
      </trkpt>
      <trkpt lat="49.23524" lon="-0.27377">
        <ele>4.6</ele>
        <time>2023-07-05T13:12:08Z</time>
      </trkpt>
      <trkpt lat="49.23531" lon="-0.2737">
        <ele>4.6</ele>
        <time>2023-07-05T13:12:09Z</time>
      </trkpt>
      <trkpt lat="49.23539" lon="-0.27364">
        <ele>4.5</ele>
        <time>2023-07-05T13:12:10Z</time>
      </trkpt>
      <trkpt lat="49.23546" lon="-0.27358">
        <ele>4.5</ele>
        <time>2023-07-05T13:12:11Z</time>
      </trkpt>
      <trkpt lat="49.23553" lon="-0.27351">
        <ele>4.5</ele>
        <time>2023-07-05T13:12:12Z</time>
      </trkpt>
      <trkpt lat="49.23561" lon="-0.27344">
        <ele>4.5</ele>
        <time>2023-07-05T13:12:13Z</time>
      </trkpt>
      <trkpt lat="49.23568" lon="-0.27338">
        <ele>4.4</ele>
        <time>2023-07-05T13:12:14Z</time>
      </trkpt>
      <trkpt lat="49.23575" lon="-0.27332">
        <ele>4.4</ele>
        <time>2023-07-05T13:12:15Z</time>
      </trkpt>
      <trkpt lat="49.23583" lon="-0.27325">
        <ele>4.4</ele>
        <time>2023-07-05T13:12:16Z</time>
      </trkpt>
      <trkpt lat="49.2359" lon="-0.27318">
        <ele>4.4</ele>
        <time>2023-07-05T13:12:17Z</time>
      </trkpt>
      <trkpt lat="49.23598" lon="-0.27312">
        <ele>4.4</ele>
        <time>2023-07-05T13:12:18Z</time>
      </trkpt>
      <trkpt lat="49.23605" lon="-0.27305">
        <ele>4.4</ele>
        <time>2023-07-05T13:12:19Z</time>
      </trkpt>
      <trkpt lat="49.23613" lon="-0.27299">
        <ele>4.3</ele>
        <time>2023-07-05T13:12:20Z</time>
      </trkpt>
      <trkpt lat="49.23621" lon="-0.27293">
        <ele>4.3</ele>
        <time>2023-07-05T13:12:21Z</time>
      </trkpt>
      <trkpt lat="49.23628" lon="-0.27287">
        <ele>4.3</ele>
        <time>2023-07-05T13:12:22Z</time>
      </trkpt>
      <trkpt lat="49.23636" lon="-0.2728">
        <ele>4.3</ele>
        <time>2023-07-05T13:12:23Z</time>
      </trkpt>
      <trkpt lat="49.23643" lon="-0.27274">
        <ele>4.3</ele>
        <time>2023-07-05T13:12:24Z</time>
      </trkpt>
      <trkpt lat="49.23651" lon="-0.27268">
        <ele>4.3</ele>
        <time>2023-07-05T13:12:25Z</time>
      </trkpt>
      <trkpt lat="49.23659" lon="-0.27261">
        <ele>4.3</ele>
        <time>2023-07-05T13:12:26Z</time>
      </trkpt>
      <trkpt lat="49.23667" lon="-0.27254">
        <ele>4.3</ele>
        <time>2023-07-05T13:12:27Z</time>
      </trkpt>
      <trkpt lat="49.23675" lon="-0.27248">
        <ele>4.3</ele>
        <time>2023-07-05T13:12:28Z</time>
      </trkpt>
      <trkpt lat="49.23683" lon="-0.27241">
        <ele>4.3</ele>
        <time>2023-07-05T13:12:29Z</time>
      </trkpt>
      <trkpt lat="49.2369" lon="-0.27235">
        <ele>4.3</ele>
        <time>2023-07-05T13:12:30Z</time>
      </trkpt>
      <trkpt lat="49.23698" lon="-0.27228">
        <ele>4.4</ele>
        <time>2023-07-05T13:12:31Z</time>
      </trkpt>
      <trkpt lat="49.23705" lon="-0.27222">
        <ele>4.4</ele>
        <time>2023-07-05T13:12:32Z</time>
      </trkpt>
      <trkpt lat="49.23713" lon="-0.27216">
        <ele>4.4</ele>
        <time>2023-07-05T13:12:33Z</time>
      </trkpt>
      <trkpt lat="49.2372" lon="-0.27209">
        <ele>4.4</ele>
        <time>2023-07-05T13:12:34Z</time>
      </trkpt>
      <trkpt lat="49.23727" lon="-0.27203">
        <ele>4.4</ele>
        <time>2023-07-05T13:12:35Z</time>
      </trkpt>
      <trkpt lat="49.23734" lon="-0.27197">
        <ele>4.4</ele>
        <time>2023-07-05T13:12:36Z</time>
      </trkpt>
      <trkpt lat="49.23742" lon="-0.27191">
        <ele>4.4</ele>
        <time>2023-07-05T13:12:37Z</time>
      </trkpt>
      <trkpt lat="49.23749" lon="-0.27186">
        <ele>4.5</ele>
        <time>2023-07-05T13:12:38Z</time>
      </trkpt>
      <trkpt lat="49.23756" lon="-0.2718">
        <ele>4.5</ele>
        <time>2023-07-05T13:12:39Z</time>
      </trkpt>
      <trkpt lat="49.23764" lon="-0.27174">
        <ele>4.5</ele>
        <time>2023-07-05T13:12:40Z</time>
      </trkpt>
      <trkpt lat="49.23772" lon="-0.27169">
        <ele>4.4</ele>
        <time>2023-07-05T13:12:41Z</time>
      </trkpt>
      <trkpt lat="49.23779" lon="-0.27162">
        <ele>4.4</ele>
        <time>2023-07-05T13:12:42Z</time>
      </trkpt>
      <trkpt lat="49.23786" lon="-0.27156">
        <ele>4.3</ele>
        <time>2023-07-05T13:12:43Z</time>
      </trkpt>
      <trkpt lat="49.23793" lon="-0.27149">
        <ele>4.3</ele>
        <time>2023-07-05T13:12:44Z</time>
      </trkpt>
      <trkpt lat="49.238" lon="-0.27142">
        <ele>4.3</ele>
        <time>2023-07-05T13:12:45Z</time>
      </trkpt>
      <trkpt lat="49.23808" lon="-0.27134">
        <ele>4.3</ele>
        <time>2023-07-05T13:12:46Z</time>
      </trkpt>
      <trkpt lat="49.23814" lon="-0.27128">
        <ele>4.3</ele>
        <time>2023-07-05T13:12:47Z</time>
      </trkpt>
      <trkpt lat="49.23821" lon="-0.27121">
        <ele>4.3</ele>
        <time>2023-07-05T13:12:48Z</time>
      </trkpt>
      <trkpt lat="49.23829" lon="-0.27114">
        <ele>4.3</ele>
        <time>2023-07-05T13:12:49Z</time>
      </trkpt>
      <trkpt lat="49.23836" lon="-0.27109">
        <ele>4.3</ele>
        <time>2023-07-05T13:12:50Z</time>
      </trkpt>
      <trkpt lat="49.23843" lon="-0.27103">
        <ele>4.3</ele>
        <time>2023-07-05T13:12:51Z</time>
      </trkpt>
      <trkpt lat="49.23851" lon="-0.27098">
        <ele>4.3</ele>
        <time>2023-07-05T13:12:52Z</time>
      </trkpt>
      <trkpt lat="49.23858" lon="-0.27092">
        <ele>4.3</ele>
        <time>2023-07-05T13:12:53Z</time>
      </trkpt>
      <trkpt lat="49.23864" lon="-0.27086">
        <ele>4.3</ele>
        <time>2023-07-05T13:12:54Z</time>
      </trkpt>
      <trkpt lat="49.23871" lon="-0.2708">
        <ele>4.3</ele>
        <time>2023-07-05T13:12:55Z</time>
      </trkpt>
      <trkpt lat="49.23878" lon="-0.27074">
        <ele>4.4</ele>
        <time>2023-07-05T13:12:56Z</time>
      </trkpt>
      <trkpt lat="49.23884" lon="-0.27069">
        <ele>4.4</ele>
        <time>2023-07-05T13:12:57Z</time>
      </trkpt>
      <trkpt lat="49.23891" lon="-0.27064">
        <ele>4.3</ele>
        <time>2023-07-05T13:12:58Z</time>
      </trkpt>
      <trkpt lat="49.23898" lon="-0.27058">
        <ele>4.3</ele>
        <time>2023-07-05T13:12:59Z</time>
      </trkpt>
      <trkpt lat="49.23905" lon="-0.27053">
        <ele>4.3</ele>
        <time>2023-07-05T13:13:00Z</time>
      </trkpt>
      <trkpt lat="49.23912" lon="-0.27047">
        <ele>4.3</ele>
        <time>2023-07-05T13:13:01Z</time>
      </trkpt>
      <trkpt lat="49.23918" lon="-0.27041">
        <ele>4.3</ele>
        <time>2023-07-05T13:13:02Z</time>
      </trkpt>
      <trkpt lat="49.23924" lon="-0.27035">
        <ele>4.3</ele>
        <time>2023-07-05T13:13:03Z</time>
      </trkpt>
      <trkpt lat="49.2393" lon="-0.27028">
        <ele>4.3</ele>
        <time>2023-07-05T13:13:04Z</time>
      </trkpt>
      <trkpt lat="49.23937" lon="-0.27022">
        <ele>4.4</ele>
        <time>2023-07-05T13:13:05Z</time>
      </trkpt>
      <trkpt lat="49.23943" lon="-0.27016">
        <ele>4.4</ele>
        <time>2023-07-05T13:13:06Z</time>
      </trkpt>
      <trkpt lat="49.2395" lon="-0.27011">
        <ele>4.4</ele>
        <time>2023-07-05T13:13:07Z</time>
      </trkpt>
      <trkpt lat="49.23957" lon="-0.27005">
        <ele>4.5</ele>
        <time>2023-07-05T13:13:08Z</time>
      </trkpt>
      <trkpt lat="49.23963" lon="-0.26999">
        <ele>4.5</ele>
        <time>2023-07-05T13:13:09Z</time>
      </trkpt>
      <trkpt lat="49.23969" lon="-0.26994">
        <ele>4.5</ele>
        <time>2023-07-05T13:13:10Z</time>
      </trkpt>
      <trkpt lat="49.23976" lon="-0.26989">
        <ele>4.5</ele>
        <time>2023-07-05T13:13:11Z</time>
      </trkpt>
      <trkpt lat="49.23983" lon="-0.26984">
        <ele>4.5</ele>
        <time>2023-07-05T13:13:12Z</time>
      </trkpt>
      <trkpt lat="49.23989" lon="-0.26978">
        <ele>4.6</ele>
        <time>2023-07-05T13:13:13Z</time>
      </trkpt>
      <trkpt lat="49.23996" lon="-0.26972">
        <ele>4.6</ele>
        <time>2023-07-05T13:13:14Z</time>
      </trkpt>
      <trkpt lat="49.24002" lon="-0.26966">
        <ele>4.6</ele>
        <time>2023-07-05T13:13:15Z</time>
      </trkpt>
      <trkpt lat="49.24009" lon="-0.26961">
        <ele>4.7</ele>
        <time>2023-07-05T13:13:16Z</time>
      </trkpt>
      <trkpt lat="49.24016" lon="-0.26955">
        <ele>4.8</ele>
        <time>2023-07-05T13:13:17Z</time>
      </trkpt>
      <trkpt lat="49.24022" lon="-0.2695">
        <ele>4.8</ele>
        <time>2023-07-05T13:13:18Z</time>
      </trkpt>
      <trkpt lat="49.24029" lon="-0.26946">
        <ele>4.8</ele>
        <time>2023-07-05T13:13:19Z</time>
      </trkpt>
      <trkpt lat="49.24036" lon="-0.26942">
        <ele>4.8</ele>
        <time>2023-07-05T13:13:20Z</time>
      </trkpt>
      <trkpt lat="49.24043" lon="-0.26939">
        <ele>4.9</ele>
        <time>2023-07-05T13:13:21Z</time>
      </trkpt>
      <trkpt lat="49.24049" lon="-0.26935">
        <ele>4.9</ele>
        <time>2023-07-05T13:13:22Z</time>
      </trkpt>
      <trkpt lat="49.24056" lon="-0.26933">
        <ele>4.9</ele>
        <time>2023-07-05T13:13:23Z</time>
      </trkpt>
      <trkpt lat="49.24062" lon="-0.26931">
        <ele>4.9</ele>
        <time>2023-07-05T13:13:24Z</time>
      </trkpt>
      <trkpt lat="49.24068" lon="-0.26928">
        <ele>5</ele>
        <time>2023-07-05T13:13:25Z</time>
      </trkpt>
      <trkpt lat="49.24073" lon="-0.26923">
        <ele>5.1</ele>
        <time>2023-07-05T13:13:26Z</time>
      </trkpt>
      <trkpt lat="49.24078" lon="-0.26918">
        <ele>5.2</ele>
        <time>2023-07-05T13:13:27Z</time>
      </trkpt>
      <trkpt lat="49.24083" lon="-0.26914">
        <ele>5.2</ele>
        <time>2023-07-05T13:13:28Z</time>
      </trkpt>
      <trkpt lat="49.24089" lon="-0.2691">
        <ele>5.3</ele>
        <time>2023-07-05T13:13:29Z</time>
      </trkpt>
      <trkpt lat="49.24095" lon="-0.26908">
        <ele>5.4</ele>
        <time>2023-07-05T13:13:30Z</time>
      </trkpt>
      <trkpt lat="49.24101" lon="-0.26907">
        <ele>5.5</ele>
        <time>2023-07-05T13:13:31Z</time>
      </trkpt>
      <trkpt lat="49.24107" lon="-0.26908">
        <ele>5.4</ele>
        <time>2023-07-05T13:13:32Z</time>
      </trkpt>
      <trkpt lat="49.24113" lon="-0.26906">
        <ele>5.3</ele>
        <time>2023-07-05T13:13:33Z</time>
      </trkpt>
      <trkpt lat="49.24119" lon="-0.26902">
        <ele>5.1</ele>
        <time>2023-07-05T13:13:34Z</time>
      </trkpt>
      <trkpt lat="49.24124" lon="-0.26896">
        <ele>5</ele>
        <time>2023-07-05T13:13:35Z</time>
      </trkpt>
      <trkpt lat="49.24128" lon="-0.26888">
        <ele>4.9</ele>
        <time>2023-07-05T13:13:36Z</time>
      </trkpt>
      <trkpt lat="49.24132" lon="-0.2688">
        <ele>4.8</ele>
        <time>2023-07-05T13:13:37Z</time>
      </trkpt>
      <trkpt lat="49.24135" lon="-0.26871">
        <ele>4.7</ele>
        <time>2023-07-05T13:13:38Z</time>
      </trkpt>
      <trkpt lat="49.24136" lon="-0.26861">
        <ele>4.6</ele>
        <time>2023-07-05T13:13:39Z</time>
      </trkpt>
      <trkpt lat="49.24137" lon="-0.26851">
        <ele>4.5</ele>
        <time>2023-07-05T13:13:40Z</time>
      </trkpt>
      <trkpt lat="49.24138" lon="-0.26841">
        <ele>4.5</ele>
        <time>2023-07-05T13:13:41Z</time>
      </trkpt>
      <trkpt lat="49.24138" lon="-0.2683">
        <ele>4.4</ele>
        <time>2023-07-05T13:13:42Z</time>
      </trkpt>
      <trkpt lat="49.24136" lon="-0.26819">
        <ele>4.4</ele>
        <time>2023-07-05T13:13:43Z</time>
      </trkpt>
      <trkpt lat="49.24134" lon="-0.26808">
        <ele>4.3</ele>
        <time>2023-07-05T13:13:44Z</time>
      </trkpt>
      <trkpt lat="49.24132" lon="-0.26798">
        <ele>4.3</ele>
        <time>2023-07-05T13:13:45Z</time>
      </trkpt>
      <trkpt lat="49.24131" lon="-0.26787">
        <ele>4.3</ele>
        <time>2023-07-05T13:13:46Z</time>
      </trkpt>
      <trkpt lat="49.24129" lon="-0.26776">
        <ele>4.3</ele>
        <time>2023-07-05T13:13:47Z</time>
      </trkpt>
      <trkpt lat="49.24129" lon="-0.26765">
        <ele>4.3</ele>
        <time>2023-07-05T13:13:48Z</time>
      </trkpt>
      <trkpt lat="49.24129" lon="-0.26754">
        <ele>4.3</ele>
        <time>2023-07-05T13:13:49Z</time>
      </trkpt>
      <trkpt lat="49.24129" lon="-0.26743">
        <ele>4.3</ele>
        <time>2023-07-05T13:13:50Z</time>
      </trkpt>
      <trkpt lat="49.2413" lon="-0.26732">
        <ele>4.3</ele>
        <time>2023-07-05T13:13:51Z</time>
      </trkpt>
      <trkpt lat="49.24131" lon="-0.26722">
        <ele>4.2</ele>
        <time>2023-07-05T13:13:52Z</time>
      </trkpt>
      <trkpt lat="49.24133" lon="-0.26711">
        <ele>4.2</ele>
        <time>2023-07-05T13:13:53Z</time>
      </trkpt>
      <trkpt lat="49.24136" lon="-0.26701">
        <ele>4.2</ele>
        <time>2023-07-05T13:13:54Z</time>
      </trkpt>
      <trkpt lat="49.24139" lon="-0.26691">
        <ele>4.1</ele>
        <time>2023-07-05T13:13:55Z</time>
      </trkpt>
      <trkpt lat="49.24143" lon="-0.26681">
        <ele>4.1</ele>
        <time>2023-07-05T13:13:56Z</time>
      </trkpt>
      <trkpt lat="49.24147" lon="-0.26672">
        <ele>4.1</ele>
        <time>2023-07-05T13:13:57Z</time>
      </trkpt>
      <trkpt lat="49.24152" lon="-0.26664">
        <ele>4.1</ele>
        <time>2023-07-05T13:13:58Z</time>
      </trkpt>
      <trkpt lat="49.24158" lon="-0.26656">
        <ele>4.1</ele>
        <time>2023-07-05T13:13:59Z</time>
      </trkpt>
      <trkpt lat="49.24164" lon="-0.26648">
        <ele>4.1</ele>
        <time>2023-07-05T13:14:00Z</time>
      </trkpt>
      <trkpt lat="49.24171" lon="-0.26641">
        <ele>4.1</ele>
        <time>2023-07-05T13:14:01Z</time>
      </trkpt>
      <trkpt lat="49.24178" lon="-0.26635">
        <ele>4.2</ele>
        <time>2023-07-05T13:14:02Z</time>
      </trkpt>
      <trkpt lat="49.24185" lon="-0.26629">
        <ele>4.2</ele>
        <time>2023-07-05T13:14:03Z</time>
      </trkpt>
      <trkpt lat="49.24193" lon="-0.26623">
        <ele>4.2</ele>
        <time>2023-07-05T13:14:04Z</time>
      </trkpt>
      <trkpt lat="49.242" lon="-0.26617">
        <ele>4.2</ele>
        <time>2023-07-05T13:14:05Z</time>
      </trkpt>
      <trkpt lat="49.24207" lon="-0.26611">
        <ele>4.2</ele>
        <time>2023-07-05T13:14:06Z</time>
      </trkpt>
      <trkpt lat="49.24215" lon="-0.26605">
        <ele>4.2</ele>
        <time>2023-07-05T13:14:07Z</time>
      </trkpt>
      <trkpt lat="49.24223" lon="-0.266">
        <ele>4.2</ele>
        <time>2023-07-05T13:14:08Z</time>
      </trkpt>
      <trkpt lat="49.2423" lon="-0.26594">
        <ele>4.2</ele>
        <time>2023-07-05T13:14:09Z</time>
      </trkpt>
      <trkpt lat="49.24237" lon="-0.26588">
        <ele>4.2</ele>
        <time>2023-07-05T13:14:10Z</time>
      </trkpt>
      <trkpt lat="49.24245" lon="-0.26582">
        <ele>4.2</ele>
        <time>2023-07-05T13:14:11Z</time>
      </trkpt>
      <trkpt lat="49.24252" lon="-0.26577">
        <ele>4.2</ele>
        <time>2023-07-05T13:14:12Z</time>
      </trkpt>
      <trkpt lat="49.24259" lon="-0.26571">
        <ele>4.2</ele>
        <time>2023-07-05T13:14:13Z</time>
      </trkpt>
      <trkpt lat="49.24266" lon="-0.26566">
        <ele>4.3</ele>
        <time>2023-07-05T13:14:14Z</time>
      </trkpt>
      <trkpt lat="49.24273" lon="-0.2656">
        <ele>4.3</ele>
        <time>2023-07-05T13:14:15Z</time>
      </trkpt>
      <trkpt lat="49.2428" lon="-0.26555">
        <ele>4.3</ele>
        <time>2023-07-05T13:14:16Z</time>
      </trkpt>
      <trkpt lat="49.24286" lon="-0.26549">
        <ele>4.3</ele>
        <time>2023-07-05T13:14:17Z</time>
      </trkpt>
      <trkpt lat="49.24293" lon="-0.26543">
        <ele>4.3</ele>
        <time>2023-07-05T13:14:18Z</time>
      </trkpt>
      <trkpt lat="49.24299" lon="-0.26538">
        <ele>4.3</ele>
        <time>2023-07-05T13:14:19Z</time>
      </trkpt>
      <trkpt lat="49.24306" lon="-0.26532">
        <ele>4.3</ele>
        <time>2023-07-05T13:14:20Z</time>
      </trkpt>
      <trkpt lat="49.24312" lon="-0.26527">
        <ele>4.3</ele>
        <time>2023-07-05T13:14:21Z</time>
      </trkpt>
      <trkpt lat="49.24319" lon="-0.26521">
        <ele>4.2</ele>
        <time>2023-07-05T13:14:22Z</time>
      </trkpt>
      <trkpt lat="49.24325" lon="-0.26515">
        <ele>4.2</ele>
        <time>2023-07-05T13:14:23Z</time>
      </trkpt>
      <trkpt lat="49.24333" lon="-0.26509">
        <ele>4.2</ele>
        <time>2023-07-05T13:14:24Z</time>
      </trkpt>
      <trkpt lat="49.2434" lon="-0.26503">
        <ele>4.3</ele>
        <time>2023-07-05T13:14:25Z</time>
      </trkpt>
      <trkpt lat="49.24347" lon="-0.26498">
        <ele>4.3</ele>
        <time>2023-07-05T13:14:26Z</time>
      </trkpt>
      <trkpt lat="49.24354" lon="-0.26493">
        <ele>4.3</ele>
        <time>2023-07-05T13:14:27Z</time>
      </trkpt>
      <trkpt lat="49.24361" lon="-0.26487">
        <ele>4.3</ele>
        <time>2023-07-05T13:14:28Z</time>
      </trkpt>
      <trkpt lat="49.24368" lon="-0.26481">
        <ele>4.3</ele>
        <time>2023-07-05T13:14:29Z</time>
      </trkpt>
      <trkpt lat="49.24375" lon="-0.26475">
        <ele>4.3</ele>
        <time>2023-07-05T13:14:30Z</time>
      </trkpt>
      <trkpt lat="49.24382" lon="-0.2647">
        <ele>4.4</ele>
        <time>2023-07-05T13:14:31Z</time>
      </trkpt>
      <trkpt lat="49.24388" lon="-0.26465">
        <ele>4.4</ele>
        <time>2023-07-05T13:14:32Z</time>
      </trkpt>
      <trkpt lat="49.24395" lon="-0.26459">
        <ele>4.4</ele>
        <time>2023-07-05T13:14:33Z</time>
      </trkpt>
      <trkpt lat="49.24402" lon="-0.26454">
        <ele>4.4</ele>
        <time>2023-07-05T13:14:34Z</time>
      </trkpt>
      <trkpt lat="49.24409" lon="-0.26448">
        <ele>4.5</ele>
        <time>2023-07-05T13:14:35Z</time>
      </trkpt>
      <trkpt lat="49.24415" lon="-0.26442">
        <ele>4.5</ele>
        <time>2023-07-05T13:14:36Z</time>
      </trkpt>
      <trkpt lat="49.24421" lon="-0.26437">
        <ele>4.5</ele>
        <time>2023-07-05T13:14:37Z</time>
      </trkpt>
      <trkpt lat="49.24428" lon="-0.26432">
        <ele>4.5</ele>
        <time>2023-07-05T13:14:38Z</time>
      </trkpt>
      <trkpt lat="49.24434" lon="-0.26426">
        <ele>4.5</ele>
        <time>2023-07-05T13:14:39Z</time>
      </trkpt>
      <trkpt lat="49.2444" lon="-0.26421">
        <ele>4.5</ele>
        <time>2023-07-05T13:14:40Z</time>
      </trkpt>
      <trkpt lat="49.24447" lon="-0.26415">
        <ele>4.5</ele>
        <time>2023-07-05T13:14:41Z</time>
      </trkpt>
      <trkpt lat="49.24453" lon="-0.26409">
        <ele>4.5</ele>
        <time>2023-07-05T13:14:42Z</time>
      </trkpt>
      <trkpt lat="49.24459" lon="-0.26404">
        <ele>4.5</ele>
        <time>2023-07-05T13:14:43Z</time>
      </trkpt>
      <trkpt lat="49.24465" lon="-0.26399">
        <ele>4.5</ele>
        <time>2023-07-05T13:14:44Z</time>
      </trkpt>
      <trkpt lat="49.24472" lon="-0.26393">
        <ele>4.5</ele>
        <time>2023-07-05T13:14:45Z</time>
      </trkpt>
      <trkpt lat="49.24479" lon="-0.26387">
        <ele>4.5</ele>
        <time>2023-07-05T13:14:46Z</time>
      </trkpt>
      <trkpt lat="49.24485" lon="-0.26381">
        <ele>4.5</ele>
        <time>2023-07-05T13:14:47Z</time>
      </trkpt>
      <trkpt lat="49.24492" lon="-0.26375">
        <ele>4.6</ele>
        <time>2023-07-05T13:14:48Z</time>
      </trkpt>
      <trkpt lat="49.245" lon="-0.26369">
        <ele>4.6</ele>
        <time>2023-07-05T13:14:49Z</time>
      </trkpt>
      <trkpt lat="49.24506" lon="-0.26363">
        <ele>4.6</ele>
        <time>2023-07-05T13:14:50Z</time>
      </trkpt>
      <trkpt lat="49.24513" lon="-0.26357">
        <ele>4.6</ele>
        <time>2023-07-05T13:14:51Z</time>
      </trkpt>
      <trkpt lat="49.2452" lon="-0.26351">
        <ele>4.6</ele>
        <time>2023-07-05T13:14:52Z</time>
      </trkpt>
      <trkpt lat="49.24527" lon="-0.26345">
        <ele>4.6</ele>
        <time>2023-07-05T13:14:53Z</time>
      </trkpt>
      <trkpt lat="49.24534" lon="-0.26339">
        <ele>4.5</ele>
        <time>2023-07-05T13:14:54Z</time>
      </trkpt>
      <trkpt lat="49.24541" lon="-0.26333">
        <ele>4.5</ele>
        <time>2023-07-05T13:14:55Z</time>
      </trkpt>
      <trkpt lat="49.24548" lon="-0.26327">
        <ele>4.5</ele>
        <time>2023-07-05T13:14:56Z</time>
      </trkpt>
      <trkpt lat="49.24555" lon="-0.26321">
        <ele>4.4</ele>
        <time>2023-07-05T13:14:57Z</time>
      </trkpt>
      <trkpt lat="49.24562" lon="-0.26315">
        <ele>4.4</ele>
        <time>2023-07-05T13:14:58Z</time>
      </trkpt>
      <trkpt lat="49.24569" lon="-0.26309">
        <ele>4.4</ele>
        <time>2023-07-05T13:14:59Z</time>
      </trkpt>
      <trkpt lat="49.24576" lon="-0.26303">
        <ele>4.3</ele>
        <time>2023-07-05T13:15:00Z</time>
      </trkpt>
      <trkpt lat="49.24583" lon="-0.26297">
        <ele>4.3</ele>
        <time>2023-07-05T13:15:01Z</time>
      </trkpt>
      <trkpt lat="49.2459" lon="-0.2629">
        <ele>4.3</ele>
        <time>2023-07-05T13:15:02Z</time>
      </trkpt>
      <trkpt lat="49.24598" lon="-0.26284">
        <ele>4.3</ele>
        <time>2023-07-05T13:15:03Z</time>
      </trkpt>
      <trkpt lat="49.24605" lon="-0.26278">
        <ele>4.3</ele>
        <time>2023-07-05T13:15:04Z</time>
      </trkpt>
      <trkpt lat="49.24612" lon="-0.26271">
        <ele>4.3</ele>
        <time>2023-07-05T13:15:05Z</time>
      </trkpt>
      <trkpt lat="49.24619" lon="-0.26265">
        <ele>4.3</ele>
        <time>2023-07-05T13:15:06Z</time>
      </trkpt>
      <trkpt lat="49.24626" lon="-0.2626">
        <ele>4.3</ele>
        <time>2023-07-05T13:15:07Z</time>
      </trkpt>
      <trkpt lat="49.24633" lon="-0.26254">
        <ele>4.3</ele>
        <time>2023-07-05T13:15:08Z</time>
      </trkpt>
      <trkpt lat="49.2464" lon="-0.26247">
        <ele>4.3</ele>
        <time>2023-07-05T13:15:09Z</time>
      </trkpt>
      <trkpt lat="49.24647" lon="-0.26241">
        <ele>4.2</ele>
        <time>2023-07-05T13:15:10Z</time>
      </trkpt>
      <trkpt lat="49.24654" lon="-0.26235">
        <ele>4.2</ele>
        <time>2023-07-05T13:15:11Z</time>
      </trkpt>
      <trkpt lat="49.24662" lon="-0.26228">
        <ele>4.1</ele>
        <time>2023-07-05T13:15:12Z</time>
      </trkpt>
      <trkpt lat="49.24669" lon="-0.26222">
        <ele>4.1</ele>
        <time>2023-07-05T13:15:13Z</time>
      </trkpt>
      <trkpt lat="49.24676" lon="-0.26217">
        <ele>4.1</ele>
        <time>2023-07-05T13:15:14Z</time>
      </trkpt>
      <trkpt lat="49.24684" lon="-0.2621">
        <ele>4.1</ele>
        <time>2023-07-05T13:15:15Z</time>
      </trkpt>
      <trkpt lat="49.24692" lon="-0.26204">
        <ele>4.1</ele>
        <time>2023-07-05T13:15:16Z</time>
      </trkpt>
      <trkpt lat="49.24699" lon="-0.26198">
        <ele>4.2</ele>
        <time>2023-07-05T13:15:17Z</time>
      </trkpt>
      <trkpt lat="49.24706" lon="-0.26192">
        <ele>4.2</ele>
        <time>2023-07-05T13:15:18Z</time>
      </trkpt>
      <trkpt lat="49.24714" lon="-0.26185">
        <ele>4.2</ele>
        <time>2023-07-05T13:15:19Z</time>
      </trkpt>
      <trkpt lat="49.24721" lon="-0.26179">
        <ele>4.2</ele>
        <time>2023-07-05T13:15:20Z</time>
      </trkpt>
      <trkpt lat="49.24728" lon="-0.26173">
        <ele>4.2</ele>
        <time>2023-07-05T13:15:21Z</time>
      </trkpt>
      <trkpt lat="49.24735" lon="-0.26166">
        <ele>4.2</ele>
        <time>2023-07-05T13:15:22Z</time>
      </trkpt>
      <trkpt lat="49.24743" lon="-0.2616">
        <ele>4.2</ele>
        <time>2023-07-05T13:15:23Z</time>
      </trkpt>
      <trkpt lat="49.2475" lon="-0.26154">
        <ele>4.2</ele>
        <time>2023-07-05T13:15:24Z</time>
      </trkpt>
      <trkpt lat="49.24757" lon="-0.26148">
        <ele>4.2</ele>
        <time>2023-07-05T13:15:25Z</time>
      </trkpt>
      <trkpt lat="49.24764" lon="-0.26143">
        <ele>4.2</ele>
        <time>2023-07-05T13:15:26Z</time>
      </trkpt>
      <trkpt lat="49.24772" lon="-0.26137">
        <ele>4.2</ele>
        <time>2023-07-05T13:15:27Z</time>
      </trkpt>
      <trkpt lat="49.24779" lon="-0.26131">
        <ele>4.2</ele>
        <time>2023-07-05T13:15:28Z</time>
      </trkpt>
      <trkpt lat="49.24787" lon="-0.26125">
        <ele>4.2</ele>
        <time>2023-07-05T13:15:29Z</time>
      </trkpt>
      <trkpt lat="49.24794" lon="-0.26119">
        <ele>4.2</ele>
        <time>2023-07-05T13:15:30Z</time>
      </trkpt>
      <trkpt lat="49.24802" lon="-0.26113">
        <ele>4.3</ele>
        <time>2023-07-05T13:15:31Z</time>
      </trkpt>
      <trkpt lat="49.24809" lon="-0.26107">
        <ele>4.3</ele>
        <time>2023-07-05T13:15:32Z</time>
      </trkpt>
      <trkpt lat="49.24816" lon="-0.26101">
        <ele>4.3</ele>
        <time>2023-07-05T13:15:33Z</time>
      </trkpt>
      <trkpt lat="49.24823" lon="-0.26094">
        <ele>4.3</ele>
        <time>2023-07-05T13:15:34Z</time>
      </trkpt>
      <trkpt lat="49.2483" lon="-0.26087">
        <ele>4.3</ele>
        <time>2023-07-05T13:15:35Z</time>
      </trkpt>
      <trkpt lat="49.24837" lon="-0.2608">
        <ele>4.3</ele>
        <time>2023-07-05T13:15:36Z</time>
      </trkpt>
      <trkpt lat="49.24844" lon="-0.26074">
        <ele>4.3</ele>
        <time>2023-07-05T13:15:37Z</time>
      </trkpt>
      <trkpt lat="49.24851" lon="-0.26067">
        <ele>4.3</ele>
        <time>2023-07-05T13:15:38Z</time>
      </trkpt>
      <trkpt lat="49.24859" lon="-0.26061">
        <ele>4.3</ele>
        <time>2023-07-05T13:15:39Z</time>
      </trkpt>
      <trkpt lat="49.24867" lon="-0.26055">
        <ele>4.3</ele>
        <time>2023-07-05T13:15:40Z</time>
      </trkpt>
      <trkpt lat="49.24874" lon="-0.26048">
        <ele>4.3</ele>
        <time>2023-07-05T13:15:41Z</time>
      </trkpt>
      <trkpt lat="49.24881" lon="-0.26042">
        <ele>4.3</ele>
        <time>2023-07-05T13:15:42Z</time>
      </trkpt>
      <trkpt lat="49.24888" lon="-0.26035">
        <ele>4.3</ele>
        <time>2023-07-05T13:15:43Z</time>
      </trkpt>
      <trkpt lat="49.24896" lon="-0.26028">
        <ele>4.3</ele>
        <time>2023-07-05T13:15:44Z</time>
      </trkpt>
      <trkpt lat="49.24903" lon="-0.26022">
        <ele>4.3</ele>
        <time>2023-07-05T13:15:45Z</time>
      </trkpt>
      <trkpt lat="49.24911" lon="-0.26016">
        <ele>4.3</ele>
        <time>2023-07-05T13:15:46Z</time>
      </trkpt>
      <trkpt lat="49.24919" lon="-0.2601">
        <ele>4.3</ele>
        <time>2023-07-05T13:15:47Z</time>
      </trkpt>
      <trkpt lat="49.24926" lon="-0.26003">
        <ele>4.3</ele>
        <time>2023-07-05T13:15:48Z</time>
      </trkpt>
      <trkpt lat="49.24934" lon="-0.25998">
        <ele>4.3</ele>
        <time>2023-07-05T13:15:49Z</time>
      </trkpt>
      <trkpt lat="49.24941" lon="-0.25992">
        <ele>4.3</ele>
        <time>2023-07-05T13:15:50Z</time>
      </trkpt>
      <trkpt lat="49.24948" lon="-0.25985">
        <ele>4.3</ele>
        <time>2023-07-05T13:15:51Z</time>
      </trkpt>
      <trkpt lat="49.24956" lon="-0.25979">
        <ele>4.4</ele>
        <time>2023-07-05T13:15:52Z</time>
      </trkpt>
      <trkpt lat="49.24963" lon="-0.25974">
        <ele>4.4</ele>
        <time>2023-07-05T13:15:53Z</time>
      </trkpt>
      <trkpt lat="49.24969" lon="-0.25968">
        <ele>4.4</ele>
        <time>2023-07-05T13:15:54Z</time>
      </trkpt>
      <trkpt lat="49.24976" lon="-0.25962">
        <ele>4.4</ele>
        <time>2023-07-05T13:15:55Z</time>
      </trkpt>
      <trkpt lat="49.24984" lon="-0.25956">
        <ele>4.3</ele>
        <time>2023-07-05T13:15:56Z</time>
      </trkpt>
      <trkpt lat="49.24991" lon="-0.2595">
        <ele>4.3</ele>
        <time>2023-07-05T13:15:57Z</time>
      </trkpt>
      <trkpt lat="49.24998" lon="-0.25945">
        <ele>4.3</ele>
        <time>2023-07-05T13:15:58Z</time>
      </trkpt>
      <trkpt lat="49.25005" lon="-0.25939">
        <ele>4.2</ele>
        <time>2023-07-05T13:15:59Z</time>
      </trkpt>
      <trkpt lat="49.25011" lon="-0.25933">
        <ele>4.2</ele>
        <time>2023-07-05T13:16:00Z</time>
      </trkpt>
      <trkpt lat="49.25019" lon="-0.25927">
        <ele>4.1</ele>
        <time>2023-07-05T13:16:01Z</time>
      </trkpt>
      <trkpt lat="49.25026" lon="-0.25921">
        <ele>4.1</ele>
        <time>2023-07-05T13:16:02Z</time>
      </trkpt>
      <trkpt lat="49.25034" lon="-0.25914">
        <ele>4.1</ele>
        <time>2023-07-05T13:16:03Z</time>
      </trkpt>
      <trkpt lat="49.25041" lon="-0.25908">
        <ele>4.1</ele>
        <time>2023-07-05T13:16:04Z</time>
      </trkpt>
      <trkpt lat="49.25048" lon="-0.25902">
        <ele>4.1</ele>
        <time>2023-07-05T13:16:05Z</time>
      </trkpt>
      <trkpt lat="49.25055" lon="-0.25896">
        <ele>4.1</ele>
        <time>2023-07-05T13:16:06Z</time>
      </trkpt>
      <trkpt lat="49.25062" lon="-0.2589">
        <ele>4.1</ele>
        <time>2023-07-05T13:16:07Z</time>
      </trkpt>
      <trkpt lat="49.2507" lon="-0.25884">
        <ele>4.1</ele>
        <time>2023-07-05T13:16:08Z</time>
      </trkpt>
      <trkpt lat="49.25077" lon="-0.25878">
        <ele>4.1</ele>
        <time>2023-07-05T13:16:09Z</time>
      </trkpt>
      <trkpt lat="49.25084" lon="-0.25871">
        <ele>4.1</ele>
        <time>2023-07-05T13:16:10Z</time>
      </trkpt>
      <trkpt lat="49.25092" lon="-0.25865">
        <ele>4.1</ele>
        <time>2023-07-05T13:16:11Z</time>
      </trkpt>
      <trkpt lat="49.251" lon="-0.25859">
        <ele>4.1</ele>
        <time>2023-07-05T13:16:12Z</time>
      </trkpt>
      <trkpt lat="49.25107" lon="-0.25853">
        <ele>4.2</ele>
        <time>2023-07-05T13:16:13Z</time>
      </trkpt>
      <trkpt lat="49.25114" lon="-0.25846">
        <ele>4.2</ele>
        <time>2023-07-05T13:16:14Z</time>
      </trkpt>
      <trkpt lat="49.25121" lon="-0.2584">
        <ele>4.2</ele>
        <time>2023-07-05T13:16:15Z</time>
      </trkpt>
      <trkpt lat="49.25129" lon="-0.25834">
        <ele>4.2</ele>
        <time>2023-07-05T13:16:16Z</time>
      </trkpt>
      <trkpt lat="49.25136" lon="-0.25828">
        <ele>4.2</ele>
        <time>2023-07-05T13:16:17Z</time>
      </trkpt>
      <trkpt lat="49.25143" lon="-0.25822">
        <ele>4.2</ele>
        <time>2023-07-05T13:16:18Z</time>
      </trkpt>
      <trkpt lat="49.2515" lon="-0.25816">
        <ele>4.2</ele>
        <time>2023-07-05T13:16:19Z</time>
      </trkpt>
      <trkpt lat="49.25158" lon="-0.2581">
        <ele>4.2</ele>
        <time>2023-07-05T13:16:20Z</time>
      </trkpt>
      <trkpt lat="49.25165" lon="-0.25804">
        <ele>4.2</ele>
        <time>2023-07-05T13:16:21Z</time>
      </trkpt>
      <trkpt lat="49.25172" lon="-0.25798">
        <ele>4.2</ele>
        <time>2023-07-05T13:16:22Z</time>
      </trkpt>
      <trkpt lat="49.25179" lon="-0.25792">
        <ele>4.2</ele>
        <time>2023-07-05T13:16:23Z</time>
      </trkpt>
      <trkpt lat="49.25186" lon="-0.25785">
        <ele>4.2</ele>
        <time>2023-07-05T13:16:24Z</time>
      </trkpt>
      <trkpt lat="49.25193" lon="-0.25779">
        <ele>4.2</ele>
        <time>2023-07-05T13:16:25Z</time>
      </trkpt>
      <trkpt lat="49.252" lon="-0.25773">
        <ele>4.2</ele>
        <time>2023-07-05T13:16:26Z</time>
      </trkpt>
      <trkpt lat="49.25208" lon="-0.25766">
        <ele>4.2</ele>
        <time>2023-07-05T13:16:27Z</time>
      </trkpt>
      <trkpt lat="49.25215" lon="-0.2576">
        <ele>4.2</ele>
        <time>2023-07-05T13:16:28Z</time>
      </trkpt>
      <trkpt lat="49.25223" lon="-0.25755">
        <ele>4.2</ele>
        <time>2023-07-05T13:16:29Z</time>
      </trkpt>
      <trkpt lat="49.2523" lon="-0.25749">
        <ele>4.2</ele>
        <time>2023-07-05T13:16:30Z</time>
      </trkpt>
      <trkpt lat="49.25237" lon="-0.25743">
        <ele>4.2</ele>
        <time>2023-07-05T13:16:31Z</time>
      </trkpt>
      <trkpt lat="49.25245" lon="-0.25737">
        <ele>4.2</ele>
        <time>2023-07-05T13:16:32Z</time>
      </trkpt>
      <trkpt lat="49.25252" lon="-0.2573">
        <ele>4.2</ele>
        <time>2023-07-05T13:16:33Z</time>
      </trkpt>
      <trkpt lat="49.2526" lon="-0.25725">
        <ele>4.2</ele>
        <time>2023-07-05T13:16:34Z</time>
      </trkpt>
      <trkpt lat="49.25267" lon="-0.25718">
        <ele>4.2</ele>
        <time>2023-07-05T13:16:35Z</time>
      </trkpt>
      <trkpt lat="49.25274" lon="-0.25712">
        <ele>4.2</ele>
        <time>2023-07-05T13:16:36Z</time>
      </trkpt>
      <trkpt lat="49.25282" lon="-0.25706">
        <ele>4.1</ele>
        <time>2023-07-05T13:16:37Z</time>
      </trkpt>
      <trkpt lat="49.25289" lon="-0.25699">
        <ele>4.1</ele>
        <time>2023-07-05T13:16:38Z</time>
      </trkpt>
      <trkpt lat="49.25296" lon="-0.25694">
        <ele>4.1</ele>
        <time>2023-07-05T13:16:39Z</time>
      </trkpt>
      <trkpt lat="49.25304" lon="-0.25688">
        <ele>4.2</ele>
        <time>2023-07-05T13:16:40Z</time>
      </trkpt>
      <trkpt lat="49.2531" lon="-0.25681">
        <ele>4.2</ele>
        <time>2023-07-05T13:16:41Z</time>
      </trkpt>
      <trkpt lat="49.25317" lon="-0.25675">
        <ele>4.2</ele>
        <time>2023-07-05T13:16:42Z</time>
      </trkpt>
      <trkpt lat="49.25324" lon="-0.25668">
        <ele>4.1</ele>
        <time>2023-07-05T13:16:43Z</time>
      </trkpt>
      <trkpt lat="49.25332" lon="-0.25662">
        <ele>4.1</ele>
        <time>2023-07-05T13:16:44Z</time>
      </trkpt>
      <trkpt lat="49.25339" lon="-0.25655">
        <ele>4.1</ele>
        <time>2023-07-05T13:16:45Z</time>
      </trkpt>
      <trkpt lat="49.25347" lon="-0.25649">
        <ele>4.1</ele>
        <time>2023-07-05T13:16:46Z</time>
      </trkpt>
      <trkpt lat="49.25354" lon="-0.25642">
        <ele>4.1</ele>
        <time>2023-07-05T13:16:47Z</time>
      </trkpt>
      <trkpt lat="49.25362" lon="-0.25636">
        <ele>4.1</ele>
        <time>2023-07-05T13:16:48Z</time>
      </trkpt>
      <trkpt lat="49.2537" lon="-0.2563">
        <ele>4.1</ele>
        <time>2023-07-05T13:16:49Z</time>
      </trkpt>
      <trkpt lat="49.25377" lon="-0.25624">
        <ele>4.1</ele>
        <time>2023-07-05T13:16:50Z</time>
      </trkpt>
      <trkpt lat="49.25385" lon="-0.25618">
        <ele>4.1</ele>
        <time>2023-07-05T13:16:51Z</time>
      </trkpt>
      <trkpt lat="49.25392" lon="-0.25612">
        <ele>4.1</ele>
        <time>2023-07-05T13:16:52Z</time>
      </trkpt>
      <trkpt lat="49.25399" lon="-0.25606">
        <ele>4.1</ele>
        <time>2023-07-05T13:16:53Z</time>
      </trkpt>
      <trkpt lat="49.25406" lon="-0.256">
        <ele>4.1</ele>
        <time>2023-07-05T13:16:54Z</time>
      </trkpt>
      <trkpt lat="49.25414" lon="-0.25593">
        <ele>4.1</ele>
        <time>2023-07-05T13:16:55Z</time>
      </trkpt>
      <trkpt lat="49.25421" lon="-0.25587">
        <ele>4.1</ele>
        <time>2023-07-05T13:16:56Z</time>
      </trkpt>
      <trkpt lat="49.25428" lon="-0.25581">
        <ele>4.1</ele>
        <time>2023-07-05T13:16:57Z</time>
      </trkpt>
      <trkpt lat="49.25435" lon="-0.25575">
        <ele>4.1</ele>
        <time>2023-07-05T13:16:58Z</time>
      </trkpt>
      <trkpt lat="49.25442" lon="-0.25569">
        <ele>4.1</ele>
        <time>2023-07-05T13:16:59Z</time>
      </trkpt>
      <trkpt lat="49.2545" lon="-0.25563">
        <ele>4.1</ele>
        <time>2023-07-05T13:17:00Z</time>
      </trkpt>
      <trkpt lat="49.25457" lon="-0.25556">
        <ele>4.1</ele>
        <time>2023-07-05T13:17:01Z</time>
      </trkpt>
      <trkpt lat="49.25465" lon="-0.2555">
        <ele>4.1</ele>
        <time>2023-07-05T13:17:02Z</time>
      </trkpt>
      <trkpt lat="49.25472" lon="-0.25544">
        <ele>4.1</ele>
        <time>2023-07-05T13:17:03Z</time>
      </trkpt>
      <trkpt lat="49.2548" lon="-0.25537">
        <ele>4.1</ele>
        <time>2023-07-05T13:17:04Z</time>
      </trkpt>
      <trkpt lat="49.25487" lon="-0.2553">
        <ele>4.2</ele>
        <time>2023-07-05T13:17:05Z</time>
      </trkpt>
      <trkpt lat="49.25495" lon="-0.25524">
        <ele>4.2</ele>
        <time>2023-07-05T13:17:06Z</time>
      </trkpt>
      <trkpt lat="49.25502" lon="-0.25519">
        <ele>4.2</ele>
        <time>2023-07-05T13:17:07Z</time>
      </trkpt>
      <trkpt lat="49.25509" lon="-0.25513">
        <ele>4.2</ele>
        <time>2023-07-05T13:17:08Z</time>
      </trkpt>
      <trkpt lat="49.25517" lon="-0.25508">
        <ele>4.2</ele>
        <time>2023-07-05T13:17:09Z</time>
      </trkpt>
      <trkpt lat="49.25525" lon="-0.25504">
        <ele>4.2</ele>
        <time>2023-07-05T13:17:10Z</time>
      </trkpt>
      <trkpt lat="49.25533" lon="-0.25499">
        <ele>4.2</ele>
        <time>2023-07-05T13:17:11Z</time>
      </trkpt>
      <trkpt lat="49.25541" lon="-0.25495">
        <ele>4.2</ele>
        <time>2023-07-05T13:17:12Z</time>
      </trkpt>
      <trkpt lat="49.25549" lon="-0.25492">
        <ele>4.2</ele>
        <time>2023-07-05T13:17:13Z</time>
      </trkpt>
      <trkpt lat="49.25558" lon="-0.25489">
        <ele>4.1</ele>
        <time>2023-07-05T13:17:14Z</time>
      </trkpt>
      <trkpt lat="49.25568" lon="-0.25488">
        <ele>4.1</ele>
        <time>2023-07-05T13:17:15Z</time>
      </trkpt>
      <trkpt lat="49.25577" lon="-0.25486">
        <ele>4.1</ele>
        <time>2023-07-05T13:17:16Z</time>
      </trkpt>
      <trkpt lat="49.25585" lon="-0.25485">
        <ele>4.1</ele>
        <time>2023-07-05T13:17:17Z</time>
      </trkpt>
      <trkpt lat="49.25594" lon="-0.25484">
        <ele>4.1</ele>
        <time>2023-07-05T13:17:18Z</time>
      </trkpt>
      <trkpt lat="49.25603" lon="-0.25483">
        <ele>4.1</ele>
        <time>2023-07-05T13:17:19Z</time>
      </trkpt>
      <trkpt lat="49.25612" lon="-0.25481">
        <ele>4</ele>
        <time>2023-07-05T13:17:20Z</time>
      </trkpt>
      <trkpt lat="49.25621" lon="-0.25479">
        <ele>4</ele>
        <time>2023-07-05T13:17:21Z</time>
      </trkpt>
      <trkpt lat="49.25629" lon="-0.25477">
        <ele>4</ele>
        <time>2023-07-05T13:17:22Z</time>
      </trkpt>
      <trkpt lat="49.25638" lon="-0.25475">
        <ele>4</ele>
        <time>2023-07-05T13:17:23Z</time>
      </trkpt>
      <trkpt lat="49.25647" lon="-0.25474">
        <ele>4</ele>
        <time>2023-07-05T13:17:24Z</time>
      </trkpt>
      <trkpt lat="49.25655" lon="-0.25472">
        <ele>4</ele>
        <time>2023-07-05T13:17:25Z</time>
      </trkpt>
      <trkpt lat="49.25664" lon="-0.25469">
        <ele>4</ele>
        <time>2023-07-05T13:17:26Z</time>
      </trkpt>
      <trkpt lat="49.25673" lon="-0.25467">
        <ele>4</ele>
        <time>2023-07-05T13:17:27Z</time>
      </trkpt>
      <trkpt lat="49.25682" lon="-0.25465">
        <ele>3.9</ele>
        <time>2023-07-05T13:17:28Z</time>
      </trkpt>
      <trkpt lat="49.25691" lon="-0.25462">
        <ele>3.9</ele>
        <time>2023-07-05T13:17:29Z</time>
      </trkpt>
      <trkpt lat="49.257" lon="-0.2546">
        <ele>3.9</ele>
        <time>2023-07-05T13:17:30Z</time>
      </trkpt>
      <trkpt lat="49.25709" lon="-0.25459">
        <ele>3.9</ele>
        <time>2023-07-05T13:17:31Z</time>
      </trkpt>
      <trkpt lat="49.25718" lon="-0.25456">
        <ele>3.9</ele>
        <time>2023-07-05T13:17:32Z</time>
      </trkpt>
      <trkpt lat="49.25727" lon="-0.25454">
        <ele>3.9</ele>
        <time>2023-07-05T13:17:33Z</time>
      </trkpt>
      <trkpt lat="49.25735" lon="-0.25452">
        <ele>3.9</ele>
        <time>2023-07-05T13:17:34Z</time>
      </trkpt>
      <trkpt lat="49.25743" lon="-0.25449">
        <ele>3.8</ele>
        <time>2023-07-05T13:17:35Z</time>
      </trkpt>
      <trkpt lat="49.25752" lon="-0.25446">
        <ele>3.8</ele>
        <time>2023-07-05T13:17:36Z</time>
      </trkpt>
      <trkpt lat="49.2576" lon="-0.25444">
        <ele>3.8</ele>
        <time>2023-07-05T13:17:37Z</time>
      </trkpt>
      <trkpt lat="49.25769" lon="-0.25441">
        <ele>3.8</ele>
        <time>2023-07-05T13:17:38Z</time>
      </trkpt>
      <trkpt lat="49.25777" lon="-0.25438">
        <ele>3.8</ele>
        <time>2023-07-05T13:17:39Z</time>
      </trkpt>
      <trkpt lat="49.25786" lon="-0.25435">
        <ele>3.7</ele>
        <time>2023-07-05T13:17:40Z</time>
      </trkpt>
      <trkpt lat="49.25794" lon="-0.25432">
        <ele>3.7</ele>
        <time>2023-07-05T13:17:41Z</time>
      </trkpt>
      <trkpt lat="49.25803" lon="-0.25429">
        <ele>3.7</ele>
        <time>2023-07-05T13:17:42Z</time>
      </trkpt>
      <trkpt lat="49.25811" lon="-0.25427">
        <ele>3.8</ele>
        <time>2023-07-05T13:17:43Z</time>
      </trkpt>
      <trkpt lat="49.2582" lon="-0.25424">
        <ele>3.8</ele>
        <time>2023-07-05T13:17:44Z</time>
      </trkpt>
      <trkpt lat="49.25828" lon="-0.25421">
        <ele>3.8</ele>
        <time>2023-07-05T13:17:45Z</time>
      </trkpt>
      <trkpt lat="49.25837" lon="-0.25419">
        <ele>3.8</ele>
        <time>2023-07-05T13:17:46Z</time>
      </trkpt>
      <trkpt lat="49.25846" lon="-0.25416">
        <ele>3.9</ele>
        <time>2023-07-05T13:17:47Z</time>
      </trkpt>
      <trkpt lat="49.25854" lon="-0.25413">
        <ele>3.9</ele>
        <time>2023-07-05T13:17:48Z</time>
      </trkpt>
      <trkpt lat="49.25862" lon="-0.2541">
        <ele>3.9</ele>
        <time>2023-07-05T13:17:49Z</time>
      </trkpt>
      <trkpt lat="49.2587" lon="-0.25407">
        <ele>3.9</ele>
        <time>2023-07-05T13:17:50Z</time>
      </trkpt>
      <trkpt lat="49.25878" lon="-0.25403">
        <ele>4</ele>
        <time>2023-07-05T13:17:51Z</time>
      </trkpt>
      <trkpt lat="49.25886" lon="-0.25398">
        <ele>4</ele>
        <time>2023-07-05T13:17:52Z</time>
      </trkpt>
      <trkpt lat="49.25894" lon="-0.25392">
        <ele>4</ele>
        <time>2023-07-05T13:17:53Z</time>
      </trkpt>
      <trkpt lat="49.25902" lon="-0.25384">
        <ele>4</ele>
        <time>2023-07-05T13:17:54Z</time>
      </trkpt>
      <trkpt lat="49.25909" lon="-0.25375">
        <ele>4</ele>
        <time>2023-07-05T13:17:55Z</time>
      </trkpt>
      <trkpt lat="49.25915" lon="-0.25366">
        <ele>4</ele>
        <time>2023-07-05T13:17:56Z</time>
      </trkpt>
      <trkpt lat="49.25921" lon="-0.25356">
        <ele>4.1</ele>
        <time>2023-07-05T13:17:57Z</time>
      </trkpt>
      <trkpt lat="49.25926" lon="-0.25345">
        <ele>4.2</ele>
        <time>2023-07-05T13:17:58Z</time>
      </trkpt>
      <trkpt lat="49.25933" lon="-0.25336">
        <ele>4.3</ele>
        <time>2023-07-05T13:17:59Z</time>
      </trkpt>
      <trkpt lat="49.25939" lon="-0.25327">
        <ele>4.4</ele>
        <time>2023-07-05T13:18:00Z</time>
      </trkpt>
      <trkpt lat="49.25947" lon="-0.2532">
        <ele>4.6</ele>
        <time>2023-07-05T13:18:01Z</time>
      </trkpt>
      <trkpt lat="49.25954" lon="-0.25313">
        <ele>4.8</ele>
        <time>2023-07-05T13:18:02Z</time>
      </trkpt>
      <trkpt lat="49.25962" lon="-0.25309">
        <ele>4.9</ele>
        <time>2023-07-05T13:18:03Z</time>
      </trkpt>
      <trkpt lat="49.2597" lon="-0.25306">
        <ele>5</ele>
        <time>2023-07-05T13:18:04Z</time>
      </trkpt>
      <trkpt lat="49.25979" lon="-0.25305">
        <ele>5.1</ele>
        <time>2023-07-05T13:18:05Z</time>
      </trkpt>
      <trkpt lat="49.25988" lon="-0.25305">
        <ele>5.2</ele>
        <time>2023-07-05T13:18:06Z</time>
      </trkpt>
      <trkpt lat="49.25996" lon="-0.25306">
        <ele>5.3</ele>
        <time>2023-07-05T13:18:07Z</time>
      </trkpt>
      <trkpt lat="49.26004" lon="-0.25307">
        <ele>5.3</ele>
        <time>2023-07-05T13:18:08Z</time>
      </trkpt>
      <trkpt lat="49.26012" lon="-0.25309">
        <ele>5.3</ele>
        <time>2023-07-05T13:18:09Z</time>
      </trkpt>
      <trkpt lat="49.2602" lon="-0.2531">
        <ele>5.4</ele>
        <time>2023-07-05T13:18:10Z</time>
      </trkpt>
      <trkpt lat="49.26028" lon="-0.25312">
        <ele>5.4</ele>
        <time>2023-07-05T13:18:11Z</time>
      </trkpt>
      <trkpt lat="49.26036" lon="-0.25313">
        <ele>5.4</ele>
        <time>2023-07-05T13:18:12Z</time>
      </trkpt>
      <trkpt lat="49.26044" lon="-0.25314">
        <ele>5.4</ele>
        <time>2023-07-05T13:18:13Z</time>
      </trkpt>
      <trkpt lat="49.26052" lon="-0.25315">
        <ele>5.4</ele>
        <time>2023-07-05T13:18:14Z</time>
      </trkpt>
      <trkpt lat="49.2606" lon="-0.25316">
        <ele>5.3</ele>
        <time>2023-07-05T13:18:15Z</time>
      </trkpt>
      <trkpt lat="49.26069" lon="-0.25318">
        <ele>5.3</ele>
        <time>2023-07-05T13:18:16Z</time>
      </trkpt>
      <trkpt lat="49.26077" lon="-0.25319">
        <ele>5.2</ele>
        <time>2023-07-05T13:18:17Z</time>
      </trkpt>
      <trkpt lat="49.26086" lon="-0.2532">
        <ele>5.2</ele>
        <time>2023-07-05T13:18:18Z</time>
      </trkpt>
      <trkpt lat="49.26094" lon="-0.25322">
        <ele>5.1</ele>
        <time>2023-07-05T13:18:19Z</time>
      </trkpt>
      <trkpt lat="49.26103" lon="-0.25322">
        <ele>5</ele>
        <time>2023-07-05T13:18:20Z</time>
      </trkpt>
      <trkpt lat="49.26112" lon="-0.25322">
        <ele>5</ele>
        <time>2023-07-05T13:18:21Z</time>
      </trkpt>
      <trkpt lat="49.26121" lon="-0.25321">
        <ele>4.9</ele>
        <time>2023-07-05T13:18:22Z</time>
      </trkpt>
      <trkpt lat="49.2613" lon="-0.2532">
        <ele>4.9</ele>
        <time>2023-07-05T13:18:23Z</time>
      </trkpt>
      <trkpt lat="49.26139" lon="-0.25317">
        <ele>4.9</ele>
        <time>2023-07-05T13:18:24Z</time>
      </trkpt>
      <trkpt lat="49.26148" lon="-0.25315">
        <ele>4.8</ele>
        <time>2023-07-05T13:18:25Z</time>
      </trkpt>
      <trkpt lat="49.26157" lon="-0.25312">
        <ele>4.8</ele>
        <time>2023-07-05T13:18:26Z</time>
      </trkpt>
      <trkpt lat="49.26166" lon="-0.2531">
        <ele>4.8</ele>
        <time>2023-07-05T13:18:27Z</time>
      </trkpt>
      <trkpt lat="49.26175" lon="-0.25308">
        <ele>4.8</ele>
        <time>2023-07-05T13:18:28Z</time>
      </trkpt>
      <trkpt lat="49.26183" lon="-0.25305">
        <ele>4.8</ele>
        <time>2023-07-05T13:18:29Z</time>
      </trkpt>
      <trkpt lat="49.26192" lon="-0.25303">
        <ele>4.8</ele>
        <time>2023-07-05T13:18:30Z</time>
      </trkpt>
      <trkpt lat="49.26201" lon="-0.253">
        <ele>4.8</ele>
        <time>2023-07-05T13:18:31Z</time>
      </trkpt>
      <trkpt lat="49.26209" lon="-0.25297">
        <ele>4.7</ele>
        <time>2023-07-05T13:18:32Z</time>
      </trkpt>
      <trkpt lat="49.26218" lon="-0.25294">
        <ele>4.7</ele>
        <time>2023-07-05T13:18:33Z</time>
      </trkpt>
      <trkpt lat="49.26227" lon="-0.25292">
        <ele>4.7</ele>
        <time>2023-07-05T13:18:34Z</time>
      </trkpt>
      <trkpt lat="49.26235" lon="-0.25289">
        <ele>4.7</ele>
        <time>2023-07-05T13:18:35Z</time>
      </trkpt>
      <trkpt lat="49.26243" lon="-0.25287">
        <ele>4.7</ele>
        <time>2023-07-05T13:18:36Z</time>
      </trkpt>
      <trkpt lat="49.26252" lon="-0.25284">
        <ele>4.7</ele>
        <time>2023-07-05T13:18:37Z</time>
      </trkpt>
      <trkpt lat="49.2626" lon="-0.25282">
        <ele>4.6</ele>
        <time>2023-07-05T13:18:38Z</time>
      </trkpt>
      <trkpt lat="49.26268" lon="-0.2528">
        <ele>4.6</ele>
        <time>2023-07-05T13:18:39Z</time>
      </trkpt>
      <trkpt lat="49.26276" lon="-0.25277">
        <ele>4.7</ele>
        <time>2023-07-05T13:18:40Z</time>
      </trkpt>
      <trkpt lat="49.26285" lon="-0.25275">
        <ele>4.7</ele>
        <time>2023-07-05T13:18:41Z</time>
      </trkpt>
      <trkpt lat="49.26293" lon="-0.25273">
        <ele>4.7</ele>
        <time>2023-07-05T13:18:42Z</time>
      </trkpt>
      <trkpt lat="49.26302" lon="-0.25271">
        <ele>4.7</ele>
        <time>2023-07-05T13:18:43Z</time>
      </trkpt>
      <trkpt lat="49.26311" lon="-0.25268">
        <ele>4.8</ele>
        <time>2023-07-05T13:18:44Z</time>
      </trkpt>
      <trkpt lat="49.2632" lon="-0.25266">
        <ele>4.8</ele>
        <time>2023-07-05T13:18:45Z</time>
      </trkpt>
      <trkpt lat="49.26329" lon="-0.25263">
        <ele>4.8</ele>
        <time>2023-07-05T13:18:46Z</time>
      </trkpt>
      <trkpt lat="49.26337" lon="-0.25261">
        <ele>4.8</ele>
        <time>2023-07-05T13:18:47Z</time>
      </trkpt>
      <trkpt lat="49.26346" lon="-0.25259">
        <ele>4.8</ele>
        <time>2023-07-05T13:18:48Z</time>
      </trkpt>
      <trkpt lat="49.26355" lon="-0.25256">
        <ele>4.8</ele>
        <time>2023-07-05T13:18:49Z</time>
      </trkpt>
      <trkpt lat="49.26364" lon="-0.25254">
        <ele>4.8</ele>
        <time>2023-07-05T13:18:50Z</time>
      </trkpt>
      <trkpt lat="49.26374" lon="-0.25251">
        <ele>4.9</ele>
        <time>2023-07-05T13:18:51Z</time>
      </trkpt>
      <trkpt lat="49.26383" lon="-0.25249">
        <ele>4.9</ele>
        <time>2023-07-05T13:18:52Z</time>
      </trkpt>
      <trkpt lat="49.26392" lon="-0.25246">
        <ele>4.9</ele>
        <time>2023-07-05T13:18:53Z</time>
      </trkpt>
      <trkpt lat="49.26401" lon="-0.25244">
        <ele>4.8</ele>
        <time>2023-07-05T13:18:54Z</time>
      </trkpt>
      <trkpt lat="49.2641" lon="-0.25241">
        <ele>4.8</ele>
        <time>2023-07-05T13:18:55Z</time>
      </trkpt>
      <trkpt lat="49.26419" lon="-0.25239">
        <ele>4.8</ele>
        <time>2023-07-05T13:18:56Z</time>
      </trkpt>
      <trkpt lat="49.26428" lon="-0.25236">
        <ele>4.8</ele>
        <time>2023-07-05T13:18:57Z</time>
      </trkpt>
      <trkpt lat="49.26437" lon="-0.25233">
        <ele>4.8</ele>
        <time>2023-07-05T13:18:58Z</time>
      </trkpt>
      <trkpt lat="49.26446" lon="-0.2523">
        <ele>4.8</ele>
        <time>2023-07-05T13:18:59Z</time>
      </trkpt>
      <trkpt lat="49.26455" lon="-0.25228">
        <ele>4.8</ele>
        <time>2023-07-05T13:19:00Z</time>
      </trkpt>
      <trkpt lat="49.26464" lon="-0.25225">
        <ele>4.8</ele>
        <time>2023-07-05T13:19:01Z</time>
      </trkpt>
      <trkpt lat="49.26472" lon="-0.25222">
        <ele>4.8</ele>
        <time>2023-07-05T13:19:02Z</time>
      </trkpt>
      <trkpt lat="49.26482" lon="-0.25219">
        <ele>4.7</ele>
        <time>2023-07-05T13:19:03Z</time>
      </trkpt>
      <trkpt lat="49.26491" lon="-0.25217">
        <ele>4.7</ele>
        <time>2023-07-05T13:19:04Z</time>
      </trkpt>
      <trkpt lat="49.265" lon="-0.25215">
        <ele>4.7</ele>
        <time>2023-07-05T13:19:05Z</time>
      </trkpt>
      <trkpt lat="49.26509" lon="-0.25212">
        <ele>4.6</ele>
        <time>2023-07-05T13:19:06Z</time>
      </trkpt>
      <trkpt lat="49.26517" lon="-0.25209">
        <ele>4.6</ele>
        <time>2023-07-05T13:19:07Z</time>
      </trkpt>
      <trkpt lat="49.26526" lon="-0.25206">
        <ele>4.6</ele>
        <time>2023-07-05T13:19:08Z</time>
      </trkpt>
      <trkpt lat="49.26535" lon="-0.25204">
        <ele>4.6</ele>
        <time>2023-07-05T13:19:09Z</time>
      </trkpt>
      <trkpt lat="49.26544" lon="-0.25202">
        <ele>4.7</ele>
        <time>2023-07-05T13:19:10Z</time>
      </trkpt>
      <trkpt lat="49.26553" lon="-0.252">
        <ele>4.7</ele>
        <time>2023-07-05T13:19:11Z</time>
      </trkpt>
      <trkpt lat="49.26562" lon="-0.25198">
        <ele>4.7</ele>
        <time>2023-07-05T13:19:12Z</time>
      </trkpt>
      <trkpt lat="49.26571" lon="-0.25196">
        <ele>4.7</ele>
        <time>2023-07-05T13:19:13Z</time>
      </trkpt>
      <trkpt lat="49.2658" lon="-0.25194">
        <ele>4.6</ele>
        <time>2023-07-05T13:19:14Z</time>
      </trkpt>
      <trkpt lat="49.26589" lon="-0.25191">
        <ele>4.6</ele>
        <time>2023-07-05T13:19:15Z</time>
      </trkpt>
      <trkpt lat="49.26599" lon="-0.25189">
        <ele>4.6</ele>
        <time>2023-07-05T13:19:16Z</time>
      </trkpt>
      <trkpt lat="49.26608" lon="-0.25186">
        <ele>4.6</ele>
        <time>2023-07-05T13:19:17Z</time>
      </trkpt>
      <trkpt lat="49.26617" lon="-0.25183">
        <ele>4.6</ele>
        <time>2023-07-05T13:19:18Z</time>
      </trkpt>
      <trkpt lat="49.26626" lon="-0.2518">
        <ele>4.6</ele>
        <time>2023-07-05T13:19:19Z</time>
      </trkpt>
      <trkpt lat="49.26636" lon="-0.25178">
        <ele>4.6</ele>
        <time>2023-07-05T13:19:20Z</time>
      </trkpt>
      <trkpt lat="49.26645" lon="-0.25175">
        <ele>4.7</ele>
        <time>2023-07-05T13:19:21Z</time>
      </trkpt>
      <trkpt lat="49.26655" lon="-0.25172">
        <ele>4.7</ele>
        <time>2023-07-05T13:19:22Z</time>
      </trkpt>
      <trkpt lat="49.26665" lon="-0.2517">
        <ele>4.7</ele>
        <time>2023-07-05T13:19:23Z</time>
      </trkpt>
      <trkpt lat="49.26674" lon="-0.25167">
        <ele>4.7</ele>
        <time>2023-07-05T13:19:24Z</time>
      </trkpt>
      <trkpt lat="49.26683" lon="-0.25165">
        <ele>4.7</ele>
        <time>2023-07-05T13:19:25Z</time>
      </trkpt>
      <trkpt lat="49.26692" lon="-0.25163">
        <ele>4.7</ele>
        <time>2023-07-05T13:19:26Z</time>
      </trkpt>
      <trkpt lat="49.26701" lon="-0.25161">
        <ele>4.7</ele>
        <time>2023-07-05T13:19:27Z</time>
      </trkpt>
      <trkpt lat="49.26711" lon="-0.25159">
        <ele>4.7</ele>
        <time>2023-07-05T13:19:28Z</time>
      </trkpt>
      <trkpt lat="49.2672" lon="-0.25157">
        <ele>4.7</ele>
        <time>2023-07-05T13:19:29Z</time>
      </trkpt>
      <trkpt lat="49.26729" lon="-0.25154">
        <ele>4.7</ele>
        <time>2023-07-05T13:19:30Z</time>
      </trkpt>
      <trkpt lat="49.26738" lon="-0.25152">
        <ele>4.7</ele>
        <time>2023-07-05T13:19:31Z</time>
      </trkpt>
      <trkpt lat="49.26747" lon="-0.2515">
        <ele>4.7</ele>
        <time>2023-07-05T13:19:32Z</time>
      </trkpt>
      <trkpt lat="49.26757" lon="-0.25147">
        <ele>4.7</ele>
        <time>2023-07-05T13:19:33Z</time>
      </trkpt>
      <trkpt lat="49.26766" lon="-0.25144">
        <ele>4.7</ele>
        <time>2023-07-05T13:19:34Z</time>
      </trkpt>
      <trkpt lat="49.26776" lon="-0.25141">
        <ele>4.7</ele>
        <time>2023-07-05T13:19:35Z</time>
      </trkpt>
      <trkpt lat="49.26785" lon="-0.25138">
        <ele>4.7</ele>
        <time>2023-07-05T13:19:36Z</time>
      </trkpt>
      <trkpt lat="49.26794" lon="-0.25135">
        <ele>4.7</ele>
        <time>2023-07-05T13:19:37Z</time>
      </trkpt>
      <trkpt lat="49.26802" lon="-0.25131">
        <ele>4.7</ele>
        <time>2023-07-05T13:19:38Z</time>
      </trkpt>
      <trkpt lat="49.26811" lon="-0.25128">
        <ele>4.7</ele>
        <time>2023-07-05T13:19:39Z</time>
      </trkpt>
      <trkpt lat="49.2682" lon="-0.25124">
        <ele>4.7</ele>
        <time>2023-07-05T13:19:40Z</time>
      </trkpt>
      <trkpt lat="49.26828" lon="-0.2512">
        <ele>4.8</ele>
        <time>2023-07-05T13:19:41Z</time>
      </trkpt>
      <trkpt lat="49.26837" lon="-0.25117">
        <ele>4.8</ele>
        <time>2023-07-05T13:19:42Z</time>
      </trkpt>
      <trkpt lat="49.26846" lon="-0.25113">
        <ele>4.8</ele>
        <time>2023-07-05T13:19:43Z</time>
      </trkpt>
      <trkpt lat="49.26855" lon="-0.2511">
        <ele>4.8</ele>
        <time>2023-07-05T13:19:44Z</time>
      </trkpt>
      <trkpt lat="49.26864" lon="-0.25106">
        <ele>4.8</ele>
        <time>2023-07-05T13:19:45Z</time>
      </trkpt>
      <trkpt lat="49.26873" lon="-0.25103">
        <ele>4.9</ele>
        <time>2023-07-05T13:19:46Z</time>
      </trkpt>
      <trkpt lat="49.26882" lon="-0.251">
        <ele>4.9</ele>
        <time>2023-07-05T13:19:47Z</time>
      </trkpt>
      <trkpt lat="49.26891" lon="-0.25097">
        <ele>4.9</ele>
        <time>2023-07-05T13:19:48Z</time>
      </trkpt>
      <trkpt lat="49.269" lon="-0.25094">
        <ele>4.9</ele>
        <time>2023-07-05T13:19:49Z</time>
      </trkpt>
      <trkpt lat="49.26909" lon="-0.25091">
        <ele>4.9</ele>
        <time>2023-07-05T13:19:50Z</time>
      </trkpt>
      <trkpt lat="49.26918" lon="-0.25089">
        <ele>4.9</ele>
        <time>2023-07-05T13:19:51Z</time>
      </trkpt>
      <trkpt lat="49.26927" lon="-0.25086">
        <ele>4.9</ele>
        <time>2023-07-05T13:19:52Z</time>
      </trkpt>
      <trkpt lat="49.26935" lon="-0.25084">
        <ele>4.9</ele>
        <time>2023-07-05T13:19:53Z</time>
      </trkpt>
      <trkpt lat="49.26944" lon="-0.25082">
        <ele>4.9</ele>
        <time>2023-07-05T13:19:54Z</time>
      </trkpt>
      <trkpt lat="49.26952" lon="-0.2508">
        <ele>4.9</ele>
        <time>2023-07-05T13:19:55Z</time>
      </trkpt>
      <trkpt lat="49.26961" lon="-0.25077">
        <ele>4.9</ele>
        <time>2023-07-05T13:19:56Z</time>
      </trkpt>
      <trkpt lat="49.26969" lon="-0.25075">
        <ele>4.8</ele>
        <time>2023-07-05T13:19:57Z</time>
      </trkpt>
      <trkpt lat="49.26977" lon="-0.25072">
        <ele>4.8</ele>
        <time>2023-07-05T13:19:58Z</time>
      </trkpt>
      <trkpt lat="49.26985" lon="-0.2507">
        <ele>4.8</ele>
        <time>2023-07-05T13:19:59Z</time>
      </trkpt>
      <trkpt lat="49.26994" lon="-0.25067">
        <ele>4.8</ele>
        <time>2023-07-05T13:20:00Z</time>
      </trkpt>
      <trkpt lat="49.27002" lon="-0.25064">
        <ele>4.7</ele>
        <time>2023-07-05T13:20:01Z</time>
      </trkpt>
      <trkpt lat="49.27011" lon="-0.25061">
        <ele>4.7</ele>
        <time>2023-07-05T13:20:02Z</time>
      </trkpt>
      <trkpt lat="49.27019" lon="-0.25058">
        <ele>4.7</ele>
        <time>2023-07-05T13:20:03Z</time>
      </trkpt>
      <trkpt lat="49.27028" lon="-0.25055">
        <ele>4.7</ele>
        <time>2023-07-05T13:20:04Z</time>
      </trkpt>
      <trkpt lat="49.27037" lon="-0.25052">
        <ele>4.7</ele>
        <time>2023-07-05T13:20:05Z</time>
      </trkpt>
      <trkpt lat="49.27045" lon="-0.25049">
        <ele>4.7</ele>
        <time>2023-07-05T13:20:06Z</time>
      </trkpt>
      <trkpt lat="49.27053" lon="-0.25044">
        <ele>4.6</ele>
        <time>2023-07-05T13:20:07Z</time>
      </trkpt>
      <trkpt lat="49.27061" lon="-0.25039">
        <ele>4.6</ele>
        <time>2023-07-05T13:20:08Z</time>
      </trkpt>
      <trkpt lat="49.27068" lon="-0.25032">
        <ele>4.6</ele>
        <time>2023-07-05T13:20:09Z</time>
      </trkpt>
      <trkpt lat="49.27075" lon="-0.25025">
        <ele>4.6</ele>
        <time>2023-07-05T13:20:10Z</time>
      </trkpt>
      <trkpt lat="49.27082" lon="-0.25017">
        <ele>4.6</ele>
        <time>2023-07-05T13:20:11Z</time>
      </trkpt>
      <trkpt lat="49.27089" lon="-0.25009">
        <ele>4.7</ele>
        <time>2023-07-05T13:20:12Z</time>
      </trkpt>
      <trkpt lat="49.27095" lon="-0.25">
        <ele>4.7</ele>
        <time>2023-07-05T13:20:13Z</time>
      </trkpt>
      <trkpt lat="49.27102" lon="-0.2499">
        <ele>4.7</ele>
        <time>2023-07-05T13:20:14Z</time>
      </trkpt>
      <trkpt lat="49.27107" lon="-0.24979">
        <ele>4.7</ele>
        <time>2023-07-05T13:20:15Z</time>
      </trkpt>
      <trkpt lat="49.27113" lon="-0.24968">
        <ele>4.7</ele>
        <time>2023-07-05T13:20:16Z</time>
      </trkpt>
      <trkpt lat="49.27118" lon="-0.24957">
        <ele>4.7</ele>
        <time>2023-07-05T13:20:17Z</time>
      </trkpt>
      <trkpt lat="49.27122" lon="-0.24945">
        <ele>4.8</ele>
        <time>2023-07-05T13:20:18Z</time>
      </trkpt>
      <trkpt lat="49.27126" lon="-0.24932">
        <ele>4.8</ele>
        <time>2023-07-05T13:20:19Z</time>
      </trkpt>
      <trkpt lat="49.27131" lon="-0.2492">
        <ele>4.8</ele>
        <time>2023-07-05T13:20:20Z</time>
      </trkpt>
      <trkpt lat="49.27136" lon="-0.24908">
        <ele>4.8</ele>
        <time>2023-07-05T13:20:21Z</time>
      </trkpt>
      <trkpt lat="49.2714" lon="-0.24896">
        <ele>4.9</ele>
        <time>2023-07-05T13:20:22Z</time>
      </trkpt>
      <trkpt lat="49.27144" lon="-0.24884">
        <ele>4.9</ele>
        <time>2023-07-05T13:20:23Z</time>
      </trkpt>
      <trkpt lat="49.27148" lon="-0.24872">
        <ele>4.9</ele>
        <time>2023-07-05T13:20:24Z</time>
      </trkpt>
      <trkpt lat="49.27153" lon="-0.2486">
        <ele>4.9</ele>
        <time>2023-07-05T13:20:25Z</time>
      </trkpt>
      <trkpt lat="49.27157" lon="-0.24848">
        <ele>5</ele>
        <time>2023-07-05T13:20:26Z</time>
      </trkpt>
      <trkpt lat="49.27162" lon="-0.24836">
        <ele>5</ele>
        <time>2023-07-05T13:20:27Z</time>
      </trkpt>
      <trkpt lat="49.27167" lon="-0.24825">
        <ele>5</ele>
        <time>2023-07-05T13:20:28Z</time>
      </trkpt>
      <trkpt lat="49.27172" lon="-0.24814">
        <ele>5</ele>
        <time>2023-07-05T13:20:29Z</time>
      </trkpt>
      <trkpt lat="49.27178" lon="-0.24804">
        <ele>5</ele>
        <time>2023-07-05T13:20:30Z</time>
      </trkpt>
      <trkpt lat="49.27185" lon="-0.24795">
        <ele>5</ele>
        <time>2023-07-05T13:20:31Z</time>
      </trkpt>
      <trkpt lat="49.27192" lon="-0.24787">
        <ele>5</ele>
        <time>2023-07-05T13:20:32Z</time>
      </trkpt>
      <trkpt lat="49.272" lon="-0.24779">
        <ele>5</ele>
        <time>2023-07-05T13:20:33Z</time>
      </trkpt>
      <trkpt lat="49.27208" lon="-0.24771">
        <ele>5</ele>
        <time>2023-07-05T13:20:34Z</time>
      </trkpt>
      <trkpt lat="49.27217" lon="-0.24765">
        <ele>5</ele>
        <time>2023-07-05T13:20:35Z</time>
      </trkpt>
      <trkpt lat="49.27225" lon="-0.24759">
        <ele>5</ele>
        <time>2023-07-05T13:20:36Z</time>
      </trkpt>
      <trkpt lat="49.27234" lon="-0.24754">
        <ele>5</ele>
        <time>2023-07-05T13:20:37Z</time>
      </trkpt>
      <trkpt lat="49.27243" lon="-0.24749">
        <ele>5</ele>
        <time>2023-07-05T13:20:38Z</time>
      </trkpt>
      <trkpt lat="49.27252" lon="-0.24746">
        <ele>5.1</ele>
        <time>2023-07-05T13:20:39Z</time>
      </trkpt>
      <trkpt lat="49.27261" lon="-0.24744">
        <ele>5.1</ele>
        <time>2023-07-05T13:20:40Z</time>
      </trkpt>
      <trkpt lat="49.2727" lon="-0.24742">
        <ele>5.1</ele>
        <time>2023-07-05T13:20:41Z</time>
      </trkpt>
      <trkpt lat="49.27278" lon="-0.2474">
        <ele>5</ele>
        <time>2023-07-05T13:20:42Z</time>
      </trkpt>
      <trkpt lat="49.27287" lon="-0.24738">
        <ele>5</ele>
        <time>2023-07-05T13:20:43Z</time>
      </trkpt>
      <trkpt lat="49.27296" lon="-0.24736">
        <ele>5</ele>
        <time>2023-07-05T13:20:44Z</time>
      </trkpt>
      <trkpt lat="49.27305" lon="-0.24734">
        <ele>5</ele>
        <time>2023-07-05T13:20:45Z</time>
      </trkpt>
      <trkpt lat="49.27313" lon="-0.24732">
        <ele>5</ele>
        <time>2023-07-05T13:20:46Z</time>
      </trkpt>
      <trkpt lat="49.27322" lon="-0.24731">
        <ele>5</ele>
        <time>2023-07-05T13:20:47Z</time>
      </trkpt>
      <trkpt lat="49.2733" lon="-0.24728">
        <ele>5</ele>
        <time>2023-07-05T13:20:48Z</time>
      </trkpt>
      <trkpt lat="49.27339" lon="-0.24726">
        <ele>4.8</ele>
        <time>2023-07-05T13:20:49Z</time>
      </trkpt>
      <trkpt lat="49.27348" lon="-0.24723">
        <ele>4.8</ele>
        <time>2023-07-05T13:20:50Z</time>
      </trkpt>
      <trkpt lat="49.27357" lon="-0.24721">
        <ele>4.7</ele>
        <time>2023-07-05T13:20:51Z</time>
      </trkpt>
      <trkpt lat="49.27366" lon="-0.24718">
        <ele>4.7</ele>
        <time>2023-07-05T13:20:52Z</time>
      </trkpt>
      <trkpt lat="49.27375" lon="-0.24714">
        <ele>4.7</ele>
        <time>2023-07-05T13:20:53Z</time>
      </trkpt>
      <trkpt lat="49.27384" lon="-0.24711">
        <ele>4.8</ele>
        <time>2023-07-05T13:20:54Z</time>
      </trkpt>
      <trkpt lat="49.27393" lon="-0.24708">
        <ele>4.8</ele>
        <time>2023-07-05T13:20:55Z</time>
      </trkpt>
      <trkpt lat="49.27403" lon="-0.24705">
        <ele>4.8</ele>
        <time>2023-07-05T13:20:56Z</time>
      </trkpt>
      <trkpt lat="49.27412" lon="-0.24703">
        <ele>4.8</ele>
        <time>2023-07-05T13:20:57Z</time>
      </trkpt>
      <trkpt lat="49.27421" lon="-0.24701">
        <ele>4.8</ele>
        <time>2023-07-05T13:20:58Z</time>
      </trkpt>
      <trkpt lat="49.2743" lon="-0.24699">
        <ele>4.8</ele>
        <time>2023-07-05T13:20:59Z</time>
      </trkpt>
      <trkpt lat="49.2744" lon="-0.24697">
        <ele>4.8</ele>
        <time>2023-07-05T13:21:00Z</time>
      </trkpt>
      <trkpt lat="49.27449" lon="-0.24694">
        <ele>4.8</ele>
        <time>2023-07-05T13:21:01Z</time>
      </trkpt>
      <trkpt lat="49.27458" lon="-0.24692">
        <ele>4.8</ele>
        <time>2023-07-05T13:21:02Z</time>
      </trkpt>
      <trkpt lat="49.27467" lon="-0.2469">
        <ele>4.7</ele>
        <time>2023-07-05T13:21:03Z</time>
      </trkpt>
      <trkpt lat="49.27476" lon="-0.24687">
        <ele>4.7</ele>
        <time>2023-07-05T13:21:04Z</time>
      </trkpt>
      <trkpt lat="49.27485" lon="-0.24684">
        <ele>4.7</ele>
        <time>2023-07-05T13:21:05Z</time>
      </trkpt>
      <trkpt lat="49.27494" lon="-0.24682">
        <ele>4.7</ele>
        <time>2023-07-05T13:21:06Z</time>
      </trkpt>
      <trkpt lat="49.27503" lon="-0.2468">
        <ele>4.7</ele>
        <time>2023-07-05T13:21:07Z</time>
      </trkpt>
      <trkpt lat="49.27512" lon="-0.24677">
        <ele>4.7</ele>
        <time>2023-07-05T13:21:08Z</time>
      </trkpt>
      <trkpt lat="49.27521" lon="-0.24674">
        <ele>4.7</ele>
        <time>2023-07-05T13:21:09Z</time>
      </trkpt>
      <trkpt lat="49.2753" lon="-0.24671">
        <ele>4.7</ele>
        <time>2023-07-05T13:21:10Z</time>
      </trkpt>
      <trkpt lat="49.27539" lon="-0.24669">
        <ele>4.7</ele>
        <time>2023-07-05T13:21:11Z</time>
      </trkpt>
      <trkpt lat="49.27548" lon="-0.24666">
        <ele>4.6</ele>
        <time>2023-07-05T13:21:12Z</time>
      </trkpt>
      <trkpt lat="49.27556" lon="-0.24663">
        <ele>4.6</ele>
        <time>2023-07-05T13:21:13Z</time>
      </trkpt>
      <trkpt lat="49.27565" lon="-0.2466">
        <ele>4.6</ele>
        <time>2023-07-05T13:21:14Z</time>
      </trkpt>
      <trkpt lat="49.27574" lon="-0.24658">
        <ele>4.6</ele>
        <time>2023-07-05T13:21:15Z</time>
      </trkpt>
      <trkpt lat="49.27583" lon="-0.24656">
        <ele>4.6</ele>
        <time>2023-07-05T13:21:16Z</time>
      </trkpt>
      <trkpt lat="49.27592" lon="-0.24653">
        <ele>4.6</ele>
        <time>2023-07-05T13:21:17Z</time>
      </trkpt>
      <trkpt lat="49.27601" lon="-0.24651">
        <ele>4.6</ele>
        <time>2023-07-05T13:21:18Z</time>
      </trkpt>
      <trkpt lat="49.2761" lon="-0.24649">
        <ele>4.7</ele>
        <time>2023-07-05T13:21:19Z</time>
      </trkpt>
      <trkpt lat="49.27619" lon="-0.24648">
        <ele>4.7</ele>
        <time>2023-07-05T13:21:20Z</time>
      </trkpt>
      <trkpt lat="49.27627" lon="-0.24647">
        <ele>4.7</ele>
        <time>2023-07-05T13:21:21Z</time>
      </trkpt>
      <trkpt lat="49.27636" lon="-0.24647">
        <ele>4.7</ele>
        <time>2023-07-05T13:21:22Z</time>
      </trkpt>
      <trkpt lat="49.27644" lon="-0.24647">
        <ele>4.7</ele>
        <time>2023-07-05T13:21:23Z</time>
      </trkpt>
      <trkpt lat="49.27653" lon="-0.24649">
        <ele>4.7</ele>
        <time>2023-07-05T13:21:24Z</time>
      </trkpt>
      <trkpt lat="49.27661" lon="-0.24651">
        <ele>4.7</ele>
        <time>2023-07-05T13:21:25Z</time>
      </trkpt>
      <trkpt lat="49.27669" lon="-0.24654">
        <ele>4.7</ele>
        <time>2023-07-05T13:21:26Z</time>
      </trkpt>
      <trkpt lat="49.27677" lon="-0.24658">
        <ele>4.8</ele>
        <time>2023-07-05T13:21:27Z</time>
      </trkpt>
      <trkpt lat="49.27684" lon="-0.24663">
        <ele>4.8</ele>
        <time>2023-07-05T13:21:28Z</time>
      </trkpt>
      <trkpt lat="49.27691" lon="-0.24668">
        <ele>4.8</ele>
        <time>2023-07-05T13:21:29Z</time>
      </trkpt>
      <trkpt lat="49.27698" lon="-0.24674">
        <ele>4.9</ele>
        <time>2023-07-05T13:21:30Z</time>
      </trkpt>
      <trkpt lat="49.27705" lon="-0.24681">
        <ele>4.9</ele>
        <time>2023-07-05T13:21:31Z</time>
      </trkpt>
      <trkpt lat="49.27711" lon="-0.24689">
        <ele>5</ele>
        <time>2023-07-05T13:21:32Z</time>
      </trkpt>
      <trkpt lat="49.27717" lon="-0.24697">
        <ele>5</ele>
        <time>2023-07-05T13:21:33Z</time>
      </trkpt>
      <trkpt lat="49.27723" lon="-0.24706">
        <ele>5.1</ele>
        <time>2023-07-05T13:21:34Z</time>
      </trkpt>
      <trkpt lat="49.27728" lon="-0.24715">
        <ele>5.1</ele>
        <time>2023-07-05T13:21:35Z</time>
      </trkpt>
      <trkpt lat="49.27733" lon="-0.24724">
        <ele>5.2</ele>
        <time>2023-07-05T13:21:36Z</time>
      </trkpt>
      <trkpt lat="49.27738" lon="-0.24733">
        <ele>5.2</ele>
        <time>2023-07-05T13:21:37Z</time>
      </trkpt>
      <trkpt lat="49.27743" lon="-0.24741">
        <ele>5.2</ele>
        <time>2023-07-05T13:21:38Z</time>
      </trkpt>
      <trkpt lat="49.27748" lon="-0.2475">
        <ele>5.3</ele>
        <time>2023-07-05T13:21:39Z</time>
      </trkpt>
      <trkpt lat="49.27753" lon="-0.24759">
        <ele>5.3</ele>
        <time>2023-07-05T13:21:40Z</time>
      </trkpt>
      <trkpt lat="49.27757" lon="-0.24768">
        <ele>5.4</ele>
        <time>2023-07-05T13:21:41Z</time>
      </trkpt>
      <trkpt lat="49.2776" lon="-0.24777">
        <ele>5.4</ele>
        <time>2023-07-05T13:21:42Z</time>
      </trkpt>
      <trkpt lat="49.27764" lon="-0.24785">
        <ele>5.5</ele>
        <time>2023-07-05T13:21:43Z</time>
      </trkpt>
      <trkpt lat="49.27768" lon="-0.24792">
        <ele>5.5</ele>
        <time>2023-07-05T13:21:44Z</time>
      </trkpt>
      <trkpt lat="49.27773" lon="-0.24799">
        <ele>5.6</ele>
        <time>2023-07-05T13:21:45Z</time>
      </trkpt>
      <trkpt lat="49.2778" lon="-0.24803">
        <ele>5.7</ele>
        <time>2023-07-05T13:21:46Z</time>
      </trkpt>
      <trkpt lat="49.27787" lon="-0.24803">
        <ele>5.7</ele>
        <time>2023-07-05T13:21:47Z</time>
      </trkpt>
      <trkpt lat="49.27794" lon="-0.24802">
        <ele>5.7</ele>
        <time>2023-07-05T13:21:48Z</time>
      </trkpt>
      <trkpt lat="49.27801" lon="-0.24801">
        <ele>5.8</ele>
        <time>2023-07-05T13:21:49Z</time>
      </trkpt>
      <trkpt lat="49.27808" lon="-0.248">
        <ele>5.8</ele>
        <time>2023-07-05T13:21:50Z</time>
      </trkpt>
      <trkpt lat="49.27815" lon="-0.24798">
        <ele>5.8</ele>
        <time>2023-07-05T13:21:51Z</time>
      </trkpt>
      <trkpt lat="49.27822" lon="-0.24796">
        <ele>5.8</ele>
        <time>2023-07-05T13:21:52Z</time>
      </trkpt>
      <trkpt lat="49.27829" lon="-0.24794">
        <ele>5.8</ele>
        <time>2023-07-05T13:21:53Z</time>
      </trkpt>
      <trkpt lat="49.27835" lon="-0.24791">
        <ele>5.8</ele>
        <time>2023-07-05T13:21:54Z</time>
      </trkpt>
      <trkpt lat="49.27841" lon="-0.24789">
        <ele>5.8</ele>
        <time>2023-07-05T13:21:55Z</time>
      </trkpt>
      <trkpt lat="49.27847" lon="-0.24787">
        <ele>5.8</ele>
        <time>2023-07-05T13:21:56Z</time>
      </trkpt>
      <trkpt lat="49.27852" lon="-0.24786">
        <ele>5.8</ele>
        <time>2023-07-05T13:21:57Z</time>
      </trkpt>
      <trkpt lat="49.27858" lon="-0.24785">
        <ele>5.8</ele>
        <time>2023-07-05T13:21:58Z</time>
      </trkpt>
      <trkpt lat="49.27864" lon="-0.24784">
        <ele>5.8</ele>
        <time>2023-07-05T13:21:59Z</time>
      </trkpt>
      <trkpt lat="49.2787" lon="-0.24782">
        <ele>5.7</ele>
        <time>2023-07-05T13:22:00Z</time>
      </trkpt>
      <trkpt lat="49.27875" lon="-0.24781">
        <ele>5.7</ele>
        <time>2023-07-05T13:22:01Z</time>
      </trkpt>
      <trkpt lat="49.27881" lon="-0.24779">
        <ele>5.6</ele>
        <time>2023-07-05T13:22:02Z</time>
      </trkpt>
      <trkpt lat="49.27886" lon="-0.24778">
        <ele>5.5</ele>
        <time>2023-07-05T13:22:03Z</time>
      </trkpt>
      <trkpt lat="49.27892" lon="-0.24778">
        <ele>5.5</ele>
        <time>2023-07-05T13:22:04Z</time>
      </trkpt>
      <trkpt lat="49.27898" lon="-0.24778">
        <ele>5.4</ele>
        <time>2023-07-05T13:22:05Z</time>
      </trkpt>
      <trkpt lat="49.27903" lon="-0.2478">
        <ele>5.3</ele>
        <time>2023-07-05T13:22:06Z</time>
      </trkpt>
      <trkpt lat="49.27907" lon="-0.24784">
        <ele>5.4</ele>
        <time>2023-07-05T13:22:07Z</time>
      </trkpt>
      <trkpt lat="49.27908" lon="-0.24791">
        <ele>5.5</ele>
        <time>2023-07-05T13:22:08Z</time>
      </trkpt>
      <trkpt lat="49.27908" lon="-0.248">
        <ele>5.6</ele>
        <time>2023-07-05T13:22:09Z</time>
      </trkpt>
      <trkpt lat="49.27908" lon="-0.24808">
        <ele>5.7</ele>
        <time>2023-07-05T13:22:10Z</time>
      </trkpt>
      <trkpt lat="49.27908" lon="-0.24816">
        <ele>5.8</ele>
        <time>2023-07-05T13:22:11Z</time>
      </trkpt>
      <trkpt lat="49.27908" lon="-0.24823">
        <ele>5.8</ele>
        <time>2023-07-05T13:22:12Z</time>
      </trkpt>
      <trkpt lat="49.27908" lon="-0.24829">
        <ele>5.7</ele>
        <time>2023-07-05T13:22:13Z</time>
      </trkpt>
      <trkpt lat="49.27909" lon="-0.24835">
        <ele>5.7</ele>
        <time>2023-07-05T13:22:14Z</time>
      </trkpt>
      <trkpt lat="49.27909" lon="-0.24841">
        <ele>5.7</ele>
        <time>2023-07-05T13:22:15Z</time>
      </trkpt>
      <trkpt lat="49.2791" lon="-0.24846">
        <ele>5.7</ele>
        <time>2023-07-05T13:22:16Z</time>
      </trkpt>
      <trkpt lat="49.27911" lon="-0.24851">
        <ele>5.6</ele>
        <time>2023-07-05T13:22:17Z</time>
      </trkpt>
      <trkpt lat="49.27911" lon="-0.24855">
        <ele>5.6</ele>
        <time>2023-07-05T13:22:18Z</time>
      </trkpt>
      <trkpt lat="49.27912" lon="-0.2486">
        <ele>5.6</ele>
        <time>2023-07-05T13:22:19Z</time>
      </trkpt>
      <trkpt lat="49.27912" lon="-0.24865">
        <ele>5.6</ele>
        <time>2023-07-05T13:22:20Z</time>
      </trkpt>
      <trkpt lat="49.27912" lon="-0.24869">
        <ele>5.5</ele>
        <time>2023-07-05T13:22:21Z</time>
      </trkpt>
      <trkpt lat="49.27913" lon="-0.24874">
        <ele>5.5</ele>
        <time>2023-07-05T13:22:22Z</time>
      </trkpt>
      <trkpt lat="49.27914" lon="-0.2488">
        <ele>5.5</ele>
        <time>2023-07-05T13:22:23Z</time>
      </trkpt>
      <trkpt lat="49.27915" lon="-0.24884">
        <ele>5.5</ele>
        <time>2023-07-05T13:22:24Z</time>
      </trkpt>
      <trkpt lat="49.27915" lon="-0.24889">
        <ele>5.4</ele>
        <time>2023-07-05T13:22:25Z</time>
      </trkpt>
      <trkpt lat="49.27915" lon="-0.24896">
        <ele>5.3</ele>
        <time>2023-07-05T13:22:26Z</time>
      </trkpt>
      <trkpt lat="49.27914" lon="-0.24902">
        <ele>5.2</ele>
        <time>2023-07-05T13:22:27Z</time>
      </trkpt>
      <trkpt lat="49.27911" lon="-0.24907">
        <ele>5.1</ele>
        <time>2023-07-05T13:22:28Z</time>
      </trkpt>
      <trkpt lat="49.27906" lon="-0.2491">
        <ele>5.1</ele>
        <time>2023-07-05T13:22:29Z</time>
      </trkpt>
      <trkpt lat="49.27901" lon="-0.24912">
        <ele>5</ele>
        <time>2023-07-05T13:22:30Z</time>
      </trkpt>
      <trkpt lat="49.27895" lon="-0.24912">
        <ele>4.9</ele>
        <time>2023-07-05T13:22:31Z</time>
      </trkpt>
      <trkpt lat="49.27889" lon="-0.24912">
        <ele>4.9</ele>
        <time>2023-07-05T13:22:32Z</time>
      </trkpt>
      <trkpt lat="49.27883" lon="-0.24913">
        <ele>4.9</ele>
        <time>2023-07-05T13:22:33Z</time>
      </trkpt>
      <trkpt lat="49.27878" lon="-0.24914">
        <ele>4.8</ele>
        <time>2023-07-05T13:22:34Z</time>
      </trkpt>
      <trkpt lat="49.27873" lon="-0.24916">
        <ele>4.8</ele>
        <time>2023-07-05T13:22:35Z</time>
      </trkpt>
      <trkpt lat="49.27868" lon="-0.24917">
        <ele>4.8</ele>
        <time>2023-07-05T13:22:36Z</time>
      </trkpt>
      <trkpt lat="49.27864" lon="-0.24919">
        <ele>4.8</ele>
        <time>2023-07-05T13:22:37Z</time>
      </trkpt>
      <trkpt lat="49.27859" lon="-0.2492">
        <ele>4.8</ele>
        <time>2023-07-05T13:22:38Z</time>
      </trkpt>
      <trkpt lat="49.27855" lon="-0.24921">
        <ele>4.8</ele>
        <time>2023-07-05T13:22:39Z</time>
      </trkpt>
      <trkpt lat="49.27851" lon="-0.24922">
        <ele>4.8</ele>
        <time>2023-07-05T13:22:40Z</time>
      </trkpt>
      <trkpt lat="49.27846" lon="-0.24924">
        <ele>4.8</ele>
        <time>2023-07-05T13:22:41Z</time>
      </trkpt>
      <trkpt lat="49.27841" lon="-0.24925">
        <ele>4.8</ele>
        <time>2023-07-05T13:22:42Z</time>
      </trkpt>
      <trkpt lat="49.27837" lon="-0.24926">
        <ele>4.8</ele>
        <time>2023-07-05T13:22:43Z</time>
      </trkpt>
      <trkpt lat="49.27833" lon="-0.24926">
        <ele>4.8</ele>
        <time>2023-07-05T13:22:44Z</time>
      </trkpt>
      <trkpt lat="49.2783" lon="-0.24927">
        <ele>4.8</ele>
        <time>2023-07-05T13:22:45Z</time>
      </trkpt>
      <trkpt lat="49.27825" lon="-0.24929">
        <ele>4.8</ele>
        <time>2023-07-05T13:22:46Z</time>
      </trkpt>
      <trkpt lat="49.27822" lon="-0.2493">
        <ele>4.8</ele>
        <time>2023-07-05T13:22:47Z</time>
      </trkpt>
      <trkpt lat="49.2782" lon="-0.24932">
        <ele>4.8</ele>
        <time>2023-07-05T13:22:48Z</time>
      </trkpt>
      <trkpt lat="49.27818" lon="-0.24937">
        <ele>4.9</ele>
        <time>2023-07-05T13:22:49Z</time>
      </trkpt>
      <trkpt lat="49.27818" lon="-0.24939">
        <ele>4.9</ele>
        <time>2023-07-05T13:22:50Z</time>
      </trkpt>
      <trkpt lat="49.27818" lon="-0.24944">
        <ele>4.9</ele>
        <time>2023-07-05T13:22:51Z</time>
      </trkpt>
      <trkpt lat="49.27817" lon="-0.24948">
        <ele>4.9</ele>
        <time>2023-07-05T13:22:52Z</time>
      </trkpt>
      <trkpt lat="49.27816" lon="-0.24953">
        <ele>4.9</ele>
        <time>2023-07-05T13:22:53Z</time>
      </trkpt>
      <trkpt lat="49.27816" lon="-0.24958">
        <ele>4.9</ele>
        <time>2023-07-05T13:22:54Z</time>
      </trkpt>
      <trkpt lat="49.27816" lon="-0.24963">
        <ele>4.9</ele>
        <time>2023-07-05T13:22:55Z</time>
      </trkpt>
      <trkpt lat="49.27816" lon="-0.24968">
        <ele>4.9</ele>
        <time>2023-07-05T13:22:56Z</time>
      </trkpt>
      <trkpt lat="49.27818" lon="-0.24972">
        <ele>4.9</ele>
        <time>2023-07-05T13:22:57Z</time>
      </trkpt>
      <trkpt lat="49.2782" lon="-0.24976">
        <ele>4.9</ele>
        <time>2023-07-05T13:22:58Z</time>
      </trkpt>
      <trkpt lat="49.27821" lon="-0.2498">
        <ele>4.9</ele>
        <time>2023-07-05T13:22:59Z</time>
      </trkpt>
      <trkpt lat="49.27823" lon="-0.24985">
        <ele>4.9</ele>
        <time>2023-07-05T13:23:00Z</time>
      </trkpt>
      <trkpt lat="49.27823" lon="-0.24986">
        <ele>4.9</ele>
        <time>2023-07-05T13:23:01Z</time>
      </trkpt>
      <trkpt lat="49.27825" lon="-0.2499">
        <ele>4.8</ele>
        <time>2023-07-05T13:23:02Z</time>
      </trkpt>
      <trkpt lat="49.27826" lon="-0.24992">
        <ele>4.8</ele>
        <time>2023-07-05T13:23:03Z</time>
      </trkpt>
      <trkpt lat="49.27827" lon="-0.24995">
        <ele>4.8</ele>
        <time>2023-07-05T13:23:04Z</time>
      </trkpt>
      <trkpt lat="49.27828" lon="-0.24996">
        <ele>4.8</ele>
        <time>2023-07-05T13:23:05Z</time>
      </trkpt>
      <trkpt lat="49.27829" lon="-0.25">
        <ele>4.8</ele>
        <time>2023-07-05T13:23:06Z</time>
      </trkpt>
      <trkpt lat="49.2783" lon="-0.25002">
        <ele>4.8</ele>
        <time>2023-07-05T13:23:07Z</time>
      </trkpt>
      <trkpt lat="49.27832" lon="-0.25006">
        <ele>4.8</ele>
        <time>2023-07-05T13:23:08Z</time>
      </trkpt>
      <trkpt lat="49.27834" lon="-0.25009">
        <ele>4.8</ele>
        <time>2023-07-05T13:23:09Z</time>
      </trkpt>
      <trkpt lat="49.27837" lon="-0.25011">
        <ele>4.8</ele>
        <time>2023-07-05T13:23:10Z</time>
      </trkpt>
      <trkpt lat="49.27841" lon="-0.25012">
        <ele>4.7</ele>
        <time>2023-07-05T13:23:11Z</time>
      </trkpt>
      <trkpt lat="49.27844" lon="-0.25013">
        <ele>4.7</ele>
        <time>2023-07-05T13:23:12Z</time>
      </trkpt>
      <trkpt lat="49.27849" lon="-0.25013">
        <ele>4.7</ele>
        <time>2023-07-05T13:23:13Z</time>
      </trkpt>
      <trkpt lat="49.27854" lon="-0.25012">
        <ele>4.7</ele>
        <time>2023-07-05T13:23:14Z</time>
      </trkpt>
      <trkpt lat="49.27858" lon="-0.25011">
        <ele>4.6</ele>
        <time>2023-07-05T13:23:15Z</time>
      </trkpt>
      <trkpt lat="49.27863" lon="-0.2501">
        <ele>4.6</ele>
        <time>2023-07-05T13:23:16Z</time>
      </trkpt>
      <trkpt lat="49.27867" lon="-0.2501">
        <ele>4.6</ele>
        <time>2023-07-05T13:23:17Z</time>
      </trkpt>
      <trkpt lat="49.27872" lon="-0.25008">
        <ele>4.6</ele>
        <time>2023-07-05T13:23:18Z</time>
      </trkpt>
      <trkpt lat="49.27876" lon="-0.25008">
        <ele>4.6</ele>
        <time>2023-07-05T13:23:19Z</time>
      </trkpt>
      <trkpt lat="49.27881" lon="-0.25007">
        <ele>4.6</ele>
        <time>2023-07-05T13:23:20Z</time>
      </trkpt>
      <trkpt lat="49.27885" lon="-0.25006">
        <ele>4.5</ele>
        <time>2023-07-05T13:23:21Z</time>
      </trkpt>
      <trkpt lat="49.27889" lon="-0.25004">
        <ele>4.5</ele>
        <time>2023-07-05T13:23:22Z</time>
      </trkpt>
      <trkpt lat="49.27893" lon="-0.25003">
        <ele>4.5</ele>
        <time>2023-07-05T13:23:23Z</time>
      </trkpt>
      <trkpt lat="49.27898" lon="-0.25">
        <ele>4.5</ele>
        <time>2023-07-05T13:23:24Z</time>
      </trkpt>
      <trkpt lat="49.27903" lon="-0.24999">
        <ele>4.6</ele>
        <time>2023-07-05T13:23:25Z</time>
      </trkpt>
      <trkpt lat="49.27907" lon="-0.24998">
        <ele>4.6</ele>
        <time>2023-07-05T13:23:26Z</time>
      </trkpt>
      <trkpt lat="49.27911" lon="-0.24996">
        <ele>4.6</ele>
        <time>2023-07-05T13:23:27Z</time>
      </trkpt>
      <trkpt lat="49.27916" lon="-0.24996">
        <ele>4.6</ele>
        <time>2023-07-05T13:23:28Z</time>
      </trkpt>
      <trkpt lat="49.2792" lon="-0.24994">
        <ele>4.6</ele>
        <time>2023-07-05T13:23:29Z</time>
      </trkpt>
      <trkpt lat="49.27925" lon="-0.24993">
        <ele>4.6</ele>
        <time>2023-07-05T13:23:30Z</time>
      </trkpt>
      <trkpt lat="49.2793" lon="-0.24991">
        <ele>4.6</ele>
        <time>2023-07-05T13:23:31Z</time>
      </trkpt>
      <trkpt lat="49.27935" lon="-0.2499">
        <ele>4.7</ele>
        <time>2023-07-05T13:23:32Z</time>
      </trkpt>
      <trkpt lat="49.2794" lon="-0.24989">
        <ele>4.7</ele>
        <time>2023-07-05T13:23:33Z</time>
      </trkpt>
      <trkpt lat="49.27945" lon="-0.24988">
        <ele>4.7</ele>
        <time>2023-07-05T13:23:34Z</time>
      </trkpt>
      <trkpt lat="49.27951" lon="-0.24987">
        <ele>4.7</ele>
        <time>2023-07-05T13:23:35Z</time>
      </trkpt>
      <trkpt lat="49.27956" lon="-0.24986">
        <ele>4.7</ele>
        <time>2023-07-05T13:23:36Z</time>
      </trkpt>
      <trkpt lat="49.27961" lon="-0.24985">
        <ele>4.7</ele>
        <time>2023-07-05T13:23:37Z</time>
      </trkpt>
      <trkpt lat="49.27967" lon="-0.24983">
        <ele>4.7</ele>
        <time>2023-07-05T13:23:38Z</time>
      </trkpt>
      <trkpt lat="49.27972" lon="-0.24982">
        <ele>4.7</ele>
        <time>2023-07-05T13:23:39Z</time>
      </trkpt>
      <trkpt lat="49.27977" lon="-0.2498">
        <ele>4.7</ele>
        <time>2023-07-05T13:23:40Z</time>
      </trkpt>
      <trkpt lat="49.27983" lon="-0.24979">
        <ele>4.7</ele>
        <time>2023-07-05T13:23:41Z</time>
      </trkpt>
      <trkpt lat="49.27989" lon="-0.24978">
        <ele>4.8</ele>
        <time>2023-07-05T13:23:42Z</time>
      </trkpt>
      <trkpt lat="49.27994" lon="-0.24977">
        <ele>4.8</ele>
        <time>2023-07-05T13:23:43Z</time>
      </trkpt>
      <trkpt lat="49.28" lon="-0.24975">
        <ele>4.8</ele>
        <time>2023-07-05T13:23:44Z</time>
      </trkpt>
      <trkpt lat="49.28005" lon="-0.24973">
        <ele>4.8</ele>
        <time>2023-07-05T13:23:45Z</time>
      </trkpt>
      <trkpt lat="49.2801" lon="-0.24971">
        <ele>4.9</ele>
        <time>2023-07-05T13:23:46Z</time>
      </trkpt>
      <trkpt lat="49.28016" lon="-0.2497">
        <ele>4.9</ele>
        <time>2023-07-05T13:23:47Z</time>
      </trkpt>
      <trkpt lat="49.28021" lon="-0.2497">
        <ele>4.9</ele>
        <time>2023-07-05T13:23:48Z</time>
      </trkpt>
      <trkpt lat="49.28026" lon="-0.2497">
        <ele>5</ele>
        <time>2023-07-05T13:23:49Z</time>
      </trkpt>
      <trkpt lat="49.2803" lon="-0.24973">
        <ele>5</ele>
        <time>2023-07-05T13:23:50Z</time>
      </trkpt>
      <trkpt lat="49.28034" lon="-0.24979">
        <ele>5.1</ele>
        <time>2023-07-05T13:23:51Z</time>
      </trkpt>
      <trkpt lat="49.28037" lon="-0.24986">
        <ele>5.2</ele>
        <time>2023-07-05T13:23:52Z</time>
      </trkpt>
      <trkpt lat="49.2804" lon="-0.24994">
        <ele>5.2</ele>
        <time>2023-07-05T13:23:53Z</time>
      </trkpt>
      <trkpt lat="49.28043" lon="-0.24999">
        <ele>5.2</ele>
        <time>2023-07-05T13:23:54Z</time>
      </trkpt>
      <trkpt lat="49.28047" lon="-0.25003">
        <ele>5.2</ele>
        <time>2023-07-05T13:23:55Z</time>
      </trkpt>
      <trkpt lat="49.28052" lon="-0.25005">
        <ele>5.2</ele>
        <time>2023-07-05T13:23:56Z</time>
      </trkpt>
      <trkpt lat="49.28058" lon="-0.25005">
        <ele>5.2</ele>
        <time>2023-07-05T13:23:57Z</time>
      </trkpt>
      <trkpt lat="49.28063" lon="-0.25004">
        <ele>5.2</ele>
        <time>2023-07-05T13:23:58Z</time>
      </trkpt>
      <trkpt lat="49.28068" lon="-0.25002">
        <ele>5.2</ele>
        <time>2023-07-05T13:23:59Z</time>
      </trkpt>
      <trkpt lat="49.28074" lon="-0.25">
        <ele>5.2</ele>
        <time>2023-07-05T13:24:00Z</time>
      </trkpt>
      <trkpt lat="49.2808" lon="-0.24998">
        <ele>5.1</ele>
        <time>2023-07-05T13:24:01Z</time>
      </trkpt>
      <trkpt lat="49.28086" lon="-0.24996">
        <ele>5.1</ele>
        <time>2023-07-05T13:24:02Z</time>
      </trkpt>
      <trkpt lat="49.28092" lon="-0.24994">
        <ele>5.1</ele>
        <time>2023-07-05T13:24:03Z</time>
      </trkpt>
      <trkpt lat="49.28098" lon="-0.24992">
        <ele>5.2</ele>
        <time>2023-07-05T13:24:04Z</time>
      </trkpt>
      <trkpt lat="49.28104" lon="-0.24989">
        <ele>5.2</ele>
        <time>2023-07-05T13:24:05Z</time>
      </trkpt>
      <trkpt lat="49.28111" lon="-0.24987">
        <ele>5.2</ele>
        <time>2023-07-05T13:24:06Z</time>
      </trkpt>
      <trkpt lat="49.28117" lon="-0.24984">
        <ele>5.2</ele>
        <time>2023-07-05T13:24:07Z</time>
      </trkpt>
      <trkpt lat="49.28124" lon="-0.24982">
        <ele>5.2</ele>
        <time>2023-07-05T13:24:08Z</time>
      </trkpt>
      <trkpt lat="49.2813" lon="-0.24979">
        <ele>5.2</ele>
        <time>2023-07-05T13:24:09Z</time>
      </trkpt>
      <trkpt lat="49.28136" lon="-0.24976">
        <ele>5.1</ele>
        <time>2023-07-05T13:24:10Z</time>
      </trkpt>
      <trkpt lat="49.28142" lon="-0.24974">
        <ele>5.1</ele>
        <time>2023-07-05T13:24:11Z</time>
      </trkpt>
      <trkpt lat="49.28148" lon="-0.24972">
        <ele>5.1</ele>
        <time>2023-07-05T13:24:12Z</time>
      </trkpt>
      <trkpt lat="49.28154" lon="-0.2497">
        <ele>5.2</ele>
        <time>2023-07-05T13:24:13Z</time>
      </trkpt>
      <trkpt lat="49.28161" lon="-0.24967">
        <ele>5.2</ele>
        <time>2023-07-05T13:24:14Z</time>
      </trkpt>
      <trkpt lat="49.28166" lon="-0.24965">
        <ele>5.2</ele>
        <time>2023-07-05T13:24:15Z</time>
      </trkpt>
      <trkpt lat="49.28172" lon="-0.24963">
        <ele>5.2</ele>
        <time>2023-07-05T13:24:16Z</time>
      </trkpt>
      <trkpt lat="49.28178" lon="-0.24961">
        <ele>5.2</ele>
        <time>2023-07-05T13:24:17Z</time>
      </trkpt>
      <trkpt lat="49.28184" lon="-0.24959">
        <ele>5.2</ele>
        <time>2023-07-05T13:24:18Z</time>
      </trkpt>
      <trkpt lat="49.2819" lon="-0.24957">
        <ele>5.2</ele>
        <time>2023-07-05T13:24:19Z</time>
      </trkpt>
      <trkpt lat="49.28195" lon="-0.24956">
        <ele>5.2</ele>
        <time>2023-07-05T13:24:20Z</time>
      </trkpt>
      <trkpt lat="49.28201" lon="-0.24953">
        <ele>5.3</ele>
        <time>2023-07-05T13:24:21Z</time>
      </trkpt>
      <trkpt lat="49.28206" lon="-0.2495">
        <ele>5.3</ele>
        <time>2023-07-05T13:24:22Z</time>
      </trkpt>
      <trkpt lat="49.28212" lon="-0.24948">
        <ele>5.3</ele>
        <time>2023-07-05T13:24:23Z</time>
      </trkpt>
      <trkpt lat="49.28218" lon="-0.24947">
        <ele>5.3</ele>
        <time>2023-07-05T13:24:24Z</time>
      </trkpt>
      <trkpt lat="49.28224" lon="-0.24947">
        <ele>5.4</ele>
        <time>2023-07-05T13:24:25Z</time>
      </trkpt>
      <trkpt lat="49.2823" lon="-0.24947">
        <ele>5.4</ele>
        <time>2023-07-05T13:24:26Z</time>
      </trkpt>
      <trkpt lat="49.28236" lon="-0.2495">
        <ele>5.5</ele>
        <time>2023-07-05T13:24:27Z</time>
      </trkpt>
      <trkpt lat="49.28242" lon="-0.24953">
        <ele>5.5</ele>
        <time>2023-07-05T13:24:28Z</time>
      </trkpt>
      <trkpt lat="49.28247" lon="-0.24958">
        <ele>5.5</ele>
        <time>2023-07-05T13:24:29Z</time>
      </trkpt>
      <trkpt lat="49.28251" lon="-0.24966">
        <ele>5.6</ele>
        <time>2023-07-05T13:24:30Z</time>
      </trkpt>
      <trkpt lat="49.28254" lon="-0.24975">
        <ele>5.7</ele>
        <time>2023-07-05T13:24:31Z</time>
      </trkpt>
      <trkpt lat="49.28257" lon="-0.24983">
        <ele>5.7</ele>
        <time>2023-07-05T13:24:32Z</time>
      </trkpt>
      <trkpt lat="49.28258" lon="-0.24992">
        <ele>5.8</ele>
        <time>2023-07-05T13:24:33Z</time>
      </trkpt>
      <trkpt lat="49.28259" lon="-0.25001">
        <ele>5.9</ele>
        <time>2023-07-05T13:24:34Z</time>
      </trkpt>
      <trkpt lat="49.2826" lon="-0.25009">
        <ele>6</ele>
        <time>2023-07-05T13:24:35Z</time>
      </trkpt>
      <trkpt lat="49.28262" lon="-0.25017">
        <ele>6</ele>
        <time>2023-07-05T13:24:36Z</time>
      </trkpt>
      <trkpt lat="49.28264" lon="-0.25026">
        <ele>6.1</ele>
        <time>2023-07-05T13:24:37Z</time>
      </trkpt>
      <trkpt lat="49.28266" lon="-0.25034">
        <ele>6.1</ele>
        <time>2023-07-05T13:24:38Z</time>
      </trkpt>
      <trkpt lat="49.28268" lon="-0.25043">
        <ele>6.1</ele>
        <time>2023-07-05T13:24:39Z</time>
      </trkpt>
      <trkpt lat="49.28271" lon="-0.2505">
        <ele>6.1</ele>
        <time>2023-07-05T13:24:40Z</time>
      </trkpt>
      <trkpt lat="49.28275" lon="-0.25057">
        <ele>6.1</ele>
        <time>2023-07-05T13:24:41Z</time>
      </trkpt>
      <trkpt lat="49.28279" lon="-0.25061">
        <ele>6.1</ele>
        <time>2023-07-05T13:24:42Z</time>
      </trkpt>
      <trkpt lat="49.28285" lon="-0.25064">
        <ele>6.1</ele>
        <time>2023-07-05T13:24:43Z</time>
      </trkpt>
      <trkpt lat="49.28291" lon="-0.25065">
        <ele>6.1</ele>
        <time>2023-07-05T13:24:44Z</time>
      </trkpt>
      <trkpt lat="49.28297" lon="-0.25066">
        <ele>6.2</ele>
        <time>2023-07-05T13:24:45Z</time>
      </trkpt>
      <trkpt lat="49.28304" lon="-0.25065">
        <ele>6.2</ele>
        <time>2023-07-05T13:24:46Z</time>
      </trkpt>
      <trkpt lat="49.2831" lon="-0.25064">
        <ele>6.2</ele>
        <time>2023-07-05T13:24:47Z</time>
      </trkpt>
      <trkpt lat="49.28316" lon="-0.25063">
        <ele>6.1</ele>
        <time>2023-07-05T13:24:48Z</time>
      </trkpt>
      <trkpt lat="49.28323" lon="-0.25062">
        <ele>6.1</ele>
        <time>2023-07-05T13:24:49Z</time>
      </trkpt>
      <trkpt lat="49.2833" lon="-0.25061">
        <ele>6.1</ele>
        <time>2023-07-05T13:24:50Z</time>
      </trkpt>
      <trkpt lat="49.28337" lon="-0.2506">
        <ele>6</ele>
        <time>2023-07-05T13:24:51Z</time>
      </trkpt>
      <trkpt lat="49.28344" lon="-0.25058">
        <ele>6</ele>
        <time>2023-07-05T13:24:52Z</time>
      </trkpt>
      <trkpt lat="49.28351" lon="-0.25057">
        <ele>5.9</ele>
        <time>2023-07-05T13:24:53Z</time>
      </trkpt>
      <trkpt lat="49.28357" lon="-0.25056">
        <ele>5.8</ele>
        <time>2023-07-05T13:24:54Z</time>
      </trkpt>
      <trkpt lat="49.28364" lon="-0.25055">
        <ele>5.7</ele>
        <time>2023-07-05T13:24:55Z</time>
      </trkpt>
      <trkpt lat="49.28371" lon="-0.25053">
        <ele>5.6</ele>
        <time>2023-07-05T13:24:56Z</time>
      </trkpt>
      <trkpt lat="49.28378" lon="-0.25051">
        <ele>5.5</ele>
        <time>2023-07-05T13:24:57Z</time>
      </trkpt>
      <trkpt lat="49.28386" lon="-0.25048">
        <ele>5.4</ele>
        <time>2023-07-05T13:24:58Z</time>
      </trkpt>
      <trkpt lat="49.28393" lon="-0.25046">
        <ele>5.3</ele>
        <time>2023-07-05T13:24:59Z</time>
      </trkpt>
      <trkpt lat="49.28401" lon="-0.25044">
        <ele>5.1</ele>
        <time>2023-07-05T13:25:00Z</time>
      </trkpt>
      <trkpt lat="49.28409" lon="-0.25041">
        <ele>5</ele>
        <time>2023-07-05T13:25:01Z</time>
      </trkpt>
      <trkpt lat="49.28418" lon="-0.2504">
        <ele>4.9</ele>
        <time>2023-07-05T13:25:02Z</time>
      </trkpt>
      <trkpt lat="49.28426" lon="-0.25038">
        <ele>4.9</ele>
        <time>2023-07-05T13:25:03Z</time>
      </trkpt>
      <trkpt lat="49.28434" lon="-0.25035">
        <ele>4.8</ele>
        <time>2023-07-05T13:25:04Z</time>
      </trkpt>
      <trkpt lat="49.28443" lon="-0.25033">
        <ele>4.7</ele>
        <time>2023-07-05T13:25:05Z</time>
      </trkpt>
      <trkpt lat="49.28451" lon="-0.2503">
        <ele>4.7</ele>
        <time>2023-07-05T13:25:06Z</time>
      </trkpt>
      <trkpt lat="49.28459" lon="-0.25028">
        <ele>4.6</ele>
        <time>2023-07-05T13:25:07Z</time>
      </trkpt>
      <trkpt lat="49.28467" lon="-0.25025">
        <ele>4.5</ele>
        <time>2023-07-05T13:25:08Z</time>
      </trkpt>
      <trkpt lat="49.28476" lon="-0.25022">
        <ele>4.5</ele>
        <time>2023-07-05T13:25:09Z</time>
      </trkpt>
      <trkpt lat="49.28483" lon="-0.2502">
        <ele>4.4</ele>
        <time>2023-07-05T13:25:10Z</time>
      </trkpt>
      <trkpt lat="49.28491" lon="-0.25019">
        <ele>4.4</ele>
        <time>2023-07-05T13:25:11Z</time>
      </trkpt>
      <trkpt lat="49.28499" lon="-0.25017">
        <ele>4.4</ele>
        <time>2023-07-05T13:25:12Z</time>
      </trkpt>
      <trkpt lat="49.28507" lon="-0.25015">
        <ele>4.3</ele>
        <time>2023-07-05T13:25:13Z</time>
      </trkpt>
      <trkpt lat="49.28514" lon="-0.25013">
        <ele>4.3</ele>
        <time>2023-07-05T13:25:14Z</time>
      </trkpt>
      <trkpt lat="49.28522" lon="-0.25011">
        <ele>4.3</ele>
        <time>2023-07-05T13:25:15Z</time>
      </trkpt>
      <trkpt lat="49.28529" lon="-0.25009">
        <ele>4.3</ele>
        <time>2023-07-05T13:25:16Z</time>
      </trkpt>
      <trkpt lat="49.28537" lon="-0.25008">
        <ele>4.2</ele>
        <time>2023-07-05T13:25:17Z</time>
      </trkpt>
      <trkpt lat="49.28545" lon="-0.25007">
        <ele>4.2</ele>
        <time>2023-07-05T13:25:18Z</time>
      </trkpt>
      <trkpt lat="49.28553" lon="-0.25005">
        <ele>4.2</ele>
        <time>2023-07-05T13:25:19Z</time>
      </trkpt>
      <trkpt lat="49.28561" lon="-0.25003">
        <ele>4.2</ele>
        <time>2023-07-05T13:25:20Z</time>
      </trkpt>
      <trkpt lat="49.28569" lon="-0.25001">
        <ele>4.3</ele>
        <time>2023-07-05T13:25:21Z</time>
      </trkpt>
      <trkpt lat="49.28576" lon="-0.24999">
        <ele>4.3</ele>
        <time>2023-07-05T13:25:22Z</time>
      </trkpt>
      <trkpt lat="49.28584" lon="-0.24997">
        <ele>4.4</ele>
        <time>2023-07-05T13:25:23Z</time>
      </trkpt>
      <trkpt lat="49.28591" lon="-0.24994">
        <ele>4.4</ele>
        <time>2023-07-05T13:25:24Z</time>
      </trkpt>
      <trkpt lat="49.28599" lon="-0.24992">
        <ele>4.4</ele>
        <time>2023-07-05T13:25:25Z</time>
      </trkpt>
      <trkpt lat="49.28607" lon="-0.2499">
        <ele>4.5</ele>
        <time>2023-07-05T13:25:26Z</time>
      </trkpt>
      <trkpt lat="49.28615" lon="-0.24987">
        <ele>4.5</ele>
        <time>2023-07-05T13:25:27Z</time>
      </trkpt>
      <trkpt lat="49.28622" lon="-0.24984">
        <ele>4.5</ele>
        <time>2023-07-05T13:25:28Z</time>
      </trkpt>
      <trkpt lat="49.2863" lon="-0.24981">
        <ele>4.6</ele>
        <time>2023-07-05T13:25:29Z</time>
      </trkpt>
      <trkpt lat="49.28638" lon="-0.24977">
        <ele>4.6</ele>
        <time>2023-07-05T13:25:30Z</time>
      </trkpt>
      <trkpt lat="49.28645" lon="-0.24974">
        <ele>4.6</ele>
        <time>2023-07-05T13:25:31Z</time>
      </trkpt>
      <trkpt lat="49.28652" lon="-0.2497">
        <ele>4.7</ele>
        <time>2023-07-05T13:25:32Z</time>
      </trkpt>
      <trkpt lat="49.28659" lon="-0.24967">
        <ele>4.7</ele>
        <time>2023-07-05T13:25:33Z</time>
      </trkpt>
      <trkpt lat="49.28666" lon="-0.24963">
        <ele>4.8</ele>
        <time>2023-07-05T13:25:34Z</time>
      </trkpt>
      <trkpt lat="49.28673" lon="-0.24959">
        <ele>4.8</ele>
        <time>2023-07-05T13:25:35Z</time>
      </trkpt>
      <trkpt lat="49.2868" lon="-0.24955">
        <ele>4.8</ele>
        <time>2023-07-05T13:25:36Z</time>
      </trkpt>
      <trkpt lat="49.28687" lon="-0.24951">
        <ele>4.8</ele>
        <time>2023-07-05T13:25:37Z</time>
      </trkpt>
      <trkpt lat="49.28693" lon="-0.24948">
        <ele>4.9</ele>
        <time>2023-07-05T13:25:38Z</time>
      </trkpt>
      <trkpt lat="49.287" lon="-0.24946">
        <ele>4.9</ele>
        <time>2023-07-05T13:25:39Z</time>
      </trkpt>
      <trkpt lat="49.28707" lon="-0.24946">
        <ele>4.9</ele>
        <time>2023-07-05T13:25:40Z</time>
      </trkpt>
      <trkpt lat="49.28713" lon="-0.24951">
        <ele>4.9</ele>
        <time>2023-07-05T13:25:41Z</time>
      </trkpt>
      <trkpt lat="49.28718" lon="-0.24959">
        <ele>5</ele>
        <time>2023-07-05T13:25:42Z</time>
      </trkpt>
      <trkpt lat="49.28723" lon="-0.24968">
        <ele>5</ele>
        <time>2023-07-05T13:25:43Z</time>
      </trkpt>
      <trkpt lat="49.28727" lon="-0.24978">
        <ele>5</ele>
        <time>2023-07-05T13:25:44Z</time>
      </trkpt>
      <trkpt lat="49.28732" lon="-0.24987">
        <ele>5</ele>
        <time>2023-07-05T13:25:45Z</time>
      </trkpt>
      <trkpt lat="49.28736" lon="-0.24996">
        <ele>5</ele>
        <time>2023-07-05T13:25:46Z</time>
      </trkpt>
      <trkpt lat="49.2874" lon="-0.25005">
        <ele>5</ele>
        <time>2023-07-05T13:25:47Z</time>
      </trkpt>
      <trkpt lat="49.28744" lon="-0.25013">
        <ele>5.1</ele>
        <time>2023-07-05T13:25:48Z</time>
      </trkpt>
      <trkpt lat="49.28748" lon="-0.25022">
        <ele>5.1</ele>
        <time>2023-07-05T13:25:49Z</time>
      </trkpt>
      <trkpt lat="49.28752" lon="-0.25031">
        <ele>5.1</ele>
        <time>2023-07-05T13:25:50Z</time>
      </trkpt>
      <trkpt lat="49.28757" lon="-0.25041">
        <ele>5.1</ele>
        <time>2023-07-05T13:25:51Z</time>
      </trkpt>
      <trkpt lat="49.28761" lon="-0.2505">
        <ele>5.1</ele>
        <time>2023-07-05T13:25:52Z</time>
      </trkpt>
      <trkpt lat="49.28766" lon="-0.2506">
        <ele>5.1</ele>
        <time>2023-07-05T13:25:53Z</time>
      </trkpt>
      <trkpt lat="49.2877" lon="-0.25069">
        <ele>5.1</ele>
        <time>2023-07-05T13:25:54Z</time>
      </trkpt>
      <trkpt lat="49.28774" lon="-0.25079">
        <ele>5.1</ele>
        <time>2023-07-05T13:25:55Z</time>
      </trkpt>
      <trkpt lat="49.28778" lon="-0.25089">
        <ele>5.1</ele>
        <time>2023-07-05T13:25:56Z</time>
      </trkpt>
      <trkpt lat="49.28781" lon="-0.25098">
        <ele>5.1</ele>
        <time>2023-07-05T13:25:57Z</time>
      </trkpt>
      <trkpt lat="49.28785" lon="-0.25108">
        <ele>5.1</ele>
        <time>2023-07-05T13:25:58Z</time>
      </trkpt>
      <trkpt lat="49.28789" lon="-0.25117">
        <ele>5.1</ele>
        <time>2023-07-05T13:25:59Z</time>
      </trkpt>
      <trkpt lat="49.28793" lon="-0.25127">
        <ele>5.2</ele>
        <time>2023-07-05T13:26:00Z</time>
      </trkpt>
      <trkpt lat="49.28797" lon="-0.25136">
        <ele>5.2</ele>
        <time>2023-07-05T13:26:01Z</time>
      </trkpt>
      <trkpt lat="49.28801" lon="-0.25145">
        <ele>5.2</ele>
        <time>2023-07-05T13:26:02Z</time>
      </trkpt>
      <trkpt lat="49.28804" lon="-0.25154">
        <ele>5.2</ele>
        <time>2023-07-05T13:26:03Z</time>
      </trkpt>
      <trkpt lat="49.28808" lon="-0.25165">
        <ele>5.3</ele>
        <time>2023-07-05T13:26:04Z</time>
      </trkpt>
      <trkpt lat="49.28812" lon="-0.25175">
        <ele>5.3</ele>
        <time>2023-07-05T13:26:05Z</time>
      </trkpt>
      <trkpt lat="49.28815" lon="-0.25185">
        <ele>5.3</ele>
        <time>2023-07-05T13:26:06Z</time>
      </trkpt>
      <trkpt lat="49.28818" lon="-0.25196">
        <ele>5.3</ele>
        <time>2023-07-05T13:26:07Z</time>
      </trkpt>
      <trkpt lat="49.28821" lon="-0.25206">
        <ele>5.3</ele>
        <time>2023-07-05T13:26:08Z</time>
      </trkpt>
      <trkpt lat="49.28824" lon="-0.25216">
        <ele>5.4</ele>
        <time>2023-07-05T13:26:09Z</time>
      </trkpt>
      <trkpt lat="49.28827" lon="-0.25226">
        <ele>5.4</ele>
        <time>2023-07-05T13:26:10Z</time>
      </trkpt>
      <trkpt lat="49.28831" lon="-0.25236">
        <ele>5.4</ele>
        <time>2023-07-05T13:26:11Z</time>
      </trkpt>
      <trkpt lat="49.28834" lon="-0.25246">
        <ele>5.4</ele>
        <time>2023-07-05T13:26:12Z</time>
      </trkpt>
      <trkpt lat="49.28836" lon="-0.25256">
        <ele>5.5</ele>
        <time>2023-07-05T13:26:13Z</time>
      </trkpt>
      <trkpt lat="49.28838" lon="-0.25266">
        <ele>5.5</ele>
        <time>2023-07-05T13:26:14Z</time>
      </trkpt>
      <trkpt lat="49.2884" lon="-0.25276">
        <ele>5.5</ele>
        <time>2023-07-05T13:26:15Z</time>
      </trkpt>
      <trkpt lat="49.28842" lon="-0.25287">
        <ele>5.5</ele>
        <time>2023-07-05T13:26:16Z</time>
      </trkpt>
      <trkpt lat="49.28844" lon="-0.25297">
        <ele>5.5</ele>
        <time>2023-07-05T13:26:17Z</time>
      </trkpt>
      <trkpt lat="49.28846" lon="-0.25308">
        <ele>5.6</ele>
        <time>2023-07-05T13:26:18Z</time>
      </trkpt>
      <trkpt lat="49.28847" lon="-0.25319">
        <ele>5.6</ele>
        <time>2023-07-05T13:26:19Z</time>
      </trkpt>
      <trkpt lat="49.28848" lon="-0.2533">
        <ele>5.6</ele>
        <time>2023-07-05T13:26:20Z</time>
      </trkpt>
      <trkpt lat="49.28848" lon="-0.25341">
        <ele>5.6</ele>
        <time>2023-07-05T13:26:21Z</time>
      </trkpt>
      <trkpt lat="49.28849" lon="-0.25351">
        <ele>5.7</ele>
        <time>2023-07-05T13:26:22Z</time>
      </trkpt>
      <trkpt lat="49.2885" lon="-0.25362">
        <ele>5.7</ele>
        <time>2023-07-05T13:26:23Z</time>
      </trkpt>
      <trkpt lat="49.2885" lon="-0.25373">
        <ele>5.7</ele>
        <time>2023-07-05T13:26:24Z</time>
      </trkpt>
      <trkpt lat="49.28851" lon="-0.25383">
        <ele>5.7</ele>
        <time>2023-07-05T13:26:25Z</time>
      </trkpt>
      <trkpt lat="49.28852" lon="-0.25394">
        <ele>5.7</ele>
        <time>2023-07-05T13:26:26Z</time>
      </trkpt>
      <trkpt lat="49.28853" lon="-0.25405">
        <ele>5.7</ele>
        <time>2023-07-05T13:26:27Z</time>
      </trkpt>
      <trkpt lat="49.28853" lon="-0.25415">
        <ele>5.7</ele>
        <time>2023-07-05T13:26:28Z</time>
      </trkpt>
      <trkpt lat="49.28852" lon="-0.25426">
        <ele>5.7</ele>
        <time>2023-07-05T13:26:29Z</time>
      </trkpt>
      <trkpt lat="49.28852" lon="-0.25437">
        <ele>5.7</ele>
        <time>2023-07-05T13:26:30Z</time>
      </trkpt>
      <trkpt lat="49.28851" lon="-0.25449">
        <ele>5.7</ele>
        <time>2023-07-05T13:26:31Z</time>
      </trkpt>
      <trkpt lat="49.2885" lon="-0.2546">
        <ele>5.7</ele>
        <time>2023-07-05T13:26:32Z</time>
      </trkpt>
      <trkpt lat="49.28849" lon="-0.25471">
        <ele>5.7</ele>
        <time>2023-07-05T13:26:33Z</time>
      </trkpt>
      <trkpt lat="49.28848" lon="-0.25482">
        <ele>5.7</ele>
        <time>2023-07-05T13:26:34Z</time>
      </trkpt>
      <trkpt lat="49.28847" lon="-0.25494">
        <ele>5.7</ele>
        <time>2023-07-05T13:26:35Z</time>
      </trkpt>
      <trkpt lat="49.28845" lon="-0.25506">
        <ele>5.7</ele>
        <time>2023-07-05T13:26:36Z</time>
      </trkpt>
      <trkpt lat="49.28843" lon="-0.25517">
        <ele>5.6</ele>
        <time>2023-07-05T13:26:37Z</time>
      </trkpt>
      <trkpt lat="49.2884" lon="-0.25528">
        <ele>5.6</ele>
        <time>2023-07-05T13:26:38Z</time>
      </trkpt>
      <trkpt lat="49.28837" lon="-0.25538">
        <ele>5.6</ele>
        <time>2023-07-05T13:26:39Z</time>
      </trkpt>
      <trkpt lat="49.28834" lon="-0.25549">
        <ele>5.6</ele>
        <time>2023-07-05T13:26:40Z</time>
      </trkpt>
      <trkpt lat="49.28831" lon="-0.2556">
        <ele>5.6</ele>
        <time>2023-07-05T13:26:41Z</time>
      </trkpt>
      <trkpt lat="49.28828" lon="-0.2557">
        <ele>5.5</ele>
        <time>2023-07-05T13:26:42Z</time>
      </trkpt>
      <trkpt lat="49.28825" lon="-0.25581">
        <ele>5.5</ele>
        <time>2023-07-05T13:26:43Z</time>
      </trkpt>
      <trkpt lat="49.28824" lon="-0.25591">
        <ele>5.5</ele>
        <time>2023-07-05T13:26:44Z</time>
      </trkpt>
      <trkpt lat="49.28823" lon="-0.25602">
        <ele>5.5</ele>
        <time>2023-07-05T13:26:45Z</time>
      </trkpt>
      <trkpt lat="49.28823" lon="-0.25613">
        <ele>5.5</ele>
        <time>2023-07-05T13:26:46Z</time>
      </trkpt>
      <trkpt lat="49.28822" lon="-0.25624">
        <ele>5.5</ele>
        <time>2023-07-05T13:26:47Z</time>
      </trkpt>
      <trkpt lat="49.2882" lon="-0.25635">
        <ele>5.5</ele>
        <time>2023-07-05T13:26:48Z</time>
      </trkpt>
      <trkpt lat="49.28818" lon="-0.25646">
        <ele>5.5</ele>
        <time>2023-07-05T13:26:49Z</time>
      </trkpt>
      <trkpt lat="49.28818" lon="-0.25656">
        <ele>5.5</ele>
        <time>2023-07-05T13:26:50Z</time>
      </trkpt>
      <trkpt lat="49.28819" lon="-0.25667">
        <ele>5.5</ele>
        <time>2023-07-05T13:26:51Z</time>
      </trkpt>
      <trkpt lat="49.28821" lon="-0.25677">
        <ele>5.5</ele>
        <time>2023-07-05T13:26:52Z</time>
      </trkpt>
      <trkpt lat="49.28824" lon="-0.25687">
        <ele>5.5</ele>
        <time>2023-07-05T13:26:53Z</time>
      </trkpt>
      <trkpt lat="49.28827" lon="-0.25696">
        <ele>5.5</ele>
        <time>2023-07-05T13:26:54Z</time>
      </trkpt>
      <trkpt lat="49.28829" lon="-0.25705">
        <ele>5.5</ele>
        <time>2023-07-05T13:26:55Z</time>
      </trkpt>
      <trkpt lat="49.28831" lon="-0.25715">
        <ele>5.6</ele>
        <time>2023-07-05T13:26:56Z</time>
      </trkpt>
      <trkpt lat="49.28833" lon="-0.25725">
        <ele>5.6</ele>
        <time>2023-07-05T13:26:57Z</time>
      </trkpt>
      <trkpt lat="49.28836" lon="-0.25735">
        <ele>5.7</ele>
        <time>2023-07-05T13:26:58Z</time>
      </trkpt>
      <trkpt lat="49.28838" lon="-0.25745">
        <ele>5.7</ele>
        <time>2023-07-05T13:26:59Z</time>
      </trkpt>
      <trkpt lat="49.2884" lon="-0.25756">
        <ele>5.8</ele>
        <time>2023-07-05T13:27:00Z</time>
      </trkpt>
      <trkpt lat="49.28843" lon="-0.25766">
        <ele>5.8</ele>
        <time>2023-07-05T13:27:01Z</time>
      </trkpt>
      <trkpt lat="49.28846" lon="-0.25776">
        <ele>5.8</ele>
        <time>2023-07-05T13:27:02Z</time>
      </trkpt>
      <trkpt lat="49.28849" lon="-0.25786">
        <ele>5.9</ele>
        <time>2023-07-05T13:27:03Z</time>
      </trkpt>
      <trkpt lat="49.28851" lon="-0.25796">
        <ele>5.9</ele>
        <time>2023-07-05T13:27:04Z</time>
      </trkpt>
      <trkpt lat="49.28853" lon="-0.25806">
        <ele>5.8</ele>
        <time>2023-07-05T13:27:05Z</time>
      </trkpt>
      <trkpt lat="49.28855" lon="-0.25816">
        <ele>5.8</ele>
        <time>2023-07-05T13:27:06Z</time>
      </trkpt>
      <trkpt lat="49.28857" lon="-0.25826">
        <ele>5.8</ele>
        <time>2023-07-05T13:27:07Z</time>
      </trkpt>
      <trkpt lat="49.28859" lon="-0.25836">
        <ele>5.8</ele>
        <time>2023-07-05T13:27:08Z</time>
      </trkpt>
      <trkpt lat="49.28861" lon="-0.25846">
        <ele>5.8</ele>
        <time>2023-07-05T13:27:09Z</time>
      </trkpt>
      <trkpt lat="49.28863" lon="-0.25856">
        <ele>5.8</ele>
        <time>2023-07-05T13:27:10Z</time>
      </trkpt>
      <trkpt lat="49.28866" lon="-0.25865">
        <ele>5.8</ele>
        <time>2023-07-05T13:27:11Z</time>
      </trkpt>
      <trkpt lat="49.28868" lon="-0.25875">
        <ele>5.9</ele>
        <time>2023-07-05T13:27:12Z</time>
      </trkpt>
      <trkpt lat="49.28871" lon="-0.25885">
        <ele>5.9</ele>
        <time>2023-07-05T13:27:13Z</time>
      </trkpt>
      <trkpt lat="49.28873" lon="-0.25895">
        <ele>5.9</ele>
        <time>2023-07-05T13:27:14Z</time>
      </trkpt>
      <trkpt lat="49.28876" lon="-0.25905">
        <ele>5.9</ele>
        <time>2023-07-05T13:27:15Z</time>
      </trkpt>
      <trkpt lat="49.28878" lon="-0.25915">
        <ele>5.9</ele>
        <time>2023-07-05T13:27:16Z</time>
      </trkpt>
      <trkpt lat="49.2888" lon="-0.25925">
        <ele>5.9</ele>
        <time>2023-07-05T13:27:17Z</time>
      </trkpt>
      <trkpt lat="49.28882" lon="-0.25934">
        <ele>5.9</ele>
        <time>2023-07-05T13:27:18Z</time>
      </trkpt>
      <trkpt lat="49.28884" lon="-0.25944">
        <ele>5.9</ele>
        <time>2023-07-05T13:27:19Z</time>
      </trkpt>
      <trkpt lat="49.28887" lon="-0.25954">
        <ele>5.9</ele>
        <time>2023-07-05T13:27:20Z</time>
      </trkpt>
      <trkpt lat="49.28889" lon="-0.25964">
        <ele>5.9</ele>
        <time>2023-07-05T13:27:21Z</time>
      </trkpt>
      <trkpt lat="49.28891" lon="-0.25973">
        <ele>5.9</ele>
        <time>2023-07-05T13:27:22Z</time>
      </trkpt>
      <trkpt lat="49.28893" lon="-0.25983">
        <ele>5.9</ele>
        <time>2023-07-05T13:27:23Z</time>
      </trkpt>
      <trkpt lat="49.28894" lon="-0.25993">
        <ele>5.9</ele>
        <time>2023-07-05T13:27:24Z</time>
      </trkpt>
      <trkpt lat="49.28895" lon="-0.26003">
        <ele>5.9</ele>
        <time>2023-07-05T13:27:25Z</time>
      </trkpt>
      <trkpt lat="49.28897" lon="-0.26013">
        <ele>5.9</ele>
        <time>2023-07-05T13:27:26Z</time>
      </trkpt>
      <trkpt lat="49.28899" lon="-0.26022">
        <ele>5.8</ele>
        <time>2023-07-05T13:27:27Z</time>
      </trkpt>
      <trkpt lat="49.28901" lon="-0.26032">
        <ele>5.8</ele>
        <time>2023-07-05T13:27:28Z</time>
      </trkpt>
      <trkpt lat="49.28904" lon="-0.26042">
        <ele>5.8</ele>
        <time>2023-07-05T13:27:29Z</time>
      </trkpt>
      <trkpt lat="49.28906" lon="-0.26052">
        <ele>5.8</ele>
        <time>2023-07-05T13:27:30Z</time>
      </trkpt>
      <trkpt lat="49.28908" lon="-0.2606">
        <ele>5.8</ele>
        <time>2023-07-05T13:27:31Z</time>
      </trkpt>
      <trkpt lat="49.28911" lon="-0.26069">
        <ele>5.7</ele>
        <time>2023-07-05T13:27:32Z</time>
      </trkpt>
      <trkpt lat="49.28915" lon="-0.26076">
        <ele>5.7</ele>
        <time>2023-07-05T13:27:33Z</time>
      </trkpt>
      <trkpt lat="49.28919" lon="-0.26083">
        <ele>5.7</ele>
        <time>2023-07-05T13:27:34Z</time>
      </trkpt>
      <trkpt lat="49.28923" lon="-0.26088">
        <ele>5.7</ele>
        <time>2023-07-05T13:27:35Z</time>
      </trkpt>
      <trkpt lat="49.28928" lon="-0.26092">
        <ele>5.6</ele>
        <time>2023-07-05T13:27:36Z</time>
      </trkpt>
      <trkpt lat="49.28934" lon="-0.26094">
        <ele>5.6</ele>
        <time>2023-07-05T13:27:37Z</time>
      </trkpt>
      <trkpt lat="49.2894" lon="-0.26096">
        <ele>5.5</ele>
        <time>2023-07-05T13:27:38Z</time>
      </trkpt>
      <trkpt lat="49.28946" lon="-0.26098">
        <ele>5.5</ele>
        <time>2023-07-05T13:27:39Z</time>
      </trkpt>
      <trkpt lat="49.28952" lon="-0.26101">
        <ele>5.5</ele>
        <time>2023-07-05T13:27:40Z</time>
      </trkpt>
      <trkpt lat="49.28957" lon="-0.26104">
        <ele>5.4</ele>
        <time>2023-07-05T13:27:41Z</time>
      </trkpt>
      <trkpt lat="49.28962" lon="-0.26107">
        <ele>5.4</ele>
        <time>2023-07-05T13:27:42Z</time>
      </trkpt>
      <trkpt lat="49.28966" lon="-0.2611">
        <ele>5.4</ele>
        <time>2023-07-05T13:27:43Z</time>
      </trkpt>
      <trkpt lat="49.2897" lon="-0.26114">
        <ele>5.3</ele>
        <time>2023-07-05T13:27:44Z</time>
      </trkpt>
      <trkpt lat="49.28973" lon="-0.26118">
        <ele>5.3</ele>
        <time>2023-07-05T13:27:45Z</time>
      </trkpt>
      <trkpt lat="49.28976" lon="-0.26122">
        <ele>5.3</ele>
        <time>2023-07-05T13:27:46Z</time>
      </trkpt>
      <trkpt lat="49.28979" lon="-0.26127">
        <ele>5.2</ele>
        <time>2023-07-05T13:27:47Z</time>
      </trkpt>
      <trkpt lat="49.28982" lon="-0.26133">
        <ele>5.2</ele>
        <time>2023-07-05T13:27:48Z</time>
      </trkpt>
      <trkpt lat="49.28985" lon="-0.26139">
        <ele>5.2</ele>
        <time>2023-07-05T13:27:49Z</time>
      </trkpt>
      <trkpt lat="49.28988" lon="-0.26143">
        <ele>5.1</ele>
        <time>2023-07-05T13:27:50Z</time>
      </trkpt>
      <trkpt lat="49.28989" lon="-0.26148">
        <ele>5.1</ele>
        <time>2023-07-05T13:27:51Z</time>
      </trkpt>
      <trkpt lat="49.28991" lon="-0.26154">
        <ele>5.1</ele>
        <time>2023-07-05T13:27:52Z</time>
      </trkpt>
      <trkpt lat="49.28993" lon="-0.2616">
        <ele>5.1</ele>
        <time>2023-07-05T13:27:53Z</time>
      </trkpt>
      <trkpt lat="49.28995" lon="-0.26167">
        <ele>5</ele>
        <time>2023-07-05T13:27:54Z</time>
      </trkpt>
      <trkpt lat="49.28997" lon="-0.26173">
        <ele>5</ele>
        <time>2023-07-05T13:27:55Z</time>
      </trkpt>
      <trkpt lat="49.28999" lon="-0.2618">
        <ele>5</ele>
        <time>2023-07-05T13:27:56Z</time>
      </trkpt>
      <trkpt lat="49.29" lon="-0.26187">
        <ele>5</ele>
        <time>2023-07-05T13:27:57Z</time>
      </trkpt>
      <trkpt lat="49.29002" lon="-0.26193">
        <ele>5</ele>
        <time>2023-07-05T13:27:58Z</time>
      </trkpt>
      <trkpt lat="49.29003" lon="-0.262">
        <ele>5</ele>
        <time>2023-07-05T13:27:59Z</time>
      </trkpt>
      <trkpt lat="49.29004" lon="-0.26206">
        <ele>4.9</ele>
        <time>2023-07-05T13:28:00Z</time>
      </trkpt>
      <trkpt lat="49.29005" lon="-0.26211">
        <ele>4.9</ele>
        <time>2023-07-05T13:28:01Z</time>
      </trkpt>
      <trkpt lat="49.29006" lon="-0.26215">
        <ele>4.8</ele>
        <time>2023-07-05T13:28:02Z</time>
      </trkpt>
      <trkpt lat="49.29008" lon="-0.2622">
        <ele>4.8</ele>
        <time>2023-07-05T13:28:03Z</time>
      </trkpt>
      <trkpt lat="49.29008" lon="-0.26221">
        <ele>4.8</ele>
        <time>2023-07-05T13:28:04Z</time>
      </trkpt>
      <trkpt lat="49.2901" lon="-0.26221">
        <ele>4.7</ele>
        <time>2023-07-05T13:28:05Z</time>
      </trkpt>
      <trkpt lat="49.29012" lon="-0.26222">
        <ele>4.7</ele>
        <time>2023-07-05T13:28:06Z</time>
      </trkpt>
      <trkpt lat="49.29014" lon="-0.26225">
        <ele>4.7</ele>
        <time>2023-07-05T13:28:07Z</time>
      </trkpt>
      <trkpt lat="49.29014" lon="-0.26226">
        <ele>4.7</ele>
        <time>2023-07-05T13:28:08Z</time>
      </trkpt>
      <trkpt lat="49.29014" lon="-0.2623">
        <ele>4.7</ele>
        <time>2023-07-05T13:28:09Z</time>
      </trkpt>
      <trkpt lat="49.29015" lon="-0.26235">
        <ele>4.7</ele>
        <time>2023-07-05T13:28:10Z</time>
      </trkpt>
      <trkpt lat="49.29016" lon="-0.26241">
        <ele>4.7</ele>
        <time>2023-07-05T13:28:11Z</time>
      </trkpt>
      <trkpt lat="49.29017" lon="-0.26247">
        <ele>4.7</ele>
        <time>2023-07-05T13:28:12Z</time>
      </trkpt>
      <trkpt lat="49.29019" lon="-0.26253">
        <ele>4.7</ele>
        <time>2023-07-05T13:28:13Z</time>
      </trkpt>
      <trkpt lat="49.2902" lon="-0.2626">
        <ele>4.7</ele>
        <time>2023-07-05T13:28:14Z</time>
      </trkpt>
      <trkpt lat="49.29022" lon="-0.26267">
        <ele>4.7</ele>
        <time>2023-07-05T13:28:15Z</time>
      </trkpt>
      <trkpt lat="49.29023" lon="-0.26274">
        <ele>4.7</ele>
        <time>2023-07-05T13:28:16Z</time>
      </trkpt>
      <trkpt lat="49.29025" lon="-0.26282">
        <ele>4.7</ele>
        <time>2023-07-05T13:28:17Z</time>
      </trkpt>
      <trkpt lat="49.29026" lon="-0.2629">
        <ele>4.7</ele>
        <time>2023-07-05T13:28:18Z</time>
      </trkpt>
      <trkpt lat="49.29028" lon="-0.26298">
        <ele>4.7</ele>
        <time>2023-07-05T13:28:19Z</time>
      </trkpt>
      <trkpt lat="49.29029" lon="-0.26307">
        <ele>4.7</ele>
        <time>2023-07-05T13:28:20Z</time>
      </trkpt>
      <trkpt lat="49.29031" lon="-0.26315">
        <ele>4.7</ele>
        <time>2023-07-05T13:28:21Z</time>
      </trkpt>
      <trkpt lat="49.29033" lon="-0.26324">
        <ele>4.7</ele>
        <time>2023-07-05T13:28:22Z</time>
      </trkpt>
      <trkpt lat="49.29034" lon="-0.26332">
        <ele>4.7</ele>
        <time>2023-07-05T13:28:23Z</time>
      </trkpt>
      <trkpt lat="49.29036" lon="-0.2634">
        <ele>4.7</ele>
        <time>2023-07-05T13:28:24Z</time>
      </trkpt>
      <trkpt lat="49.29037" lon="-0.26349">
        <ele>4.7</ele>
        <time>2023-07-05T13:28:25Z</time>
      </trkpt>
      <trkpt lat="49.29039" lon="-0.26358">
        <ele>4.8</ele>
        <time>2023-07-05T13:28:26Z</time>
      </trkpt>
      <trkpt lat="49.29041" lon="-0.26367">
        <ele>4.8</ele>
        <time>2023-07-05T13:28:27Z</time>
      </trkpt>
      <trkpt lat="49.29043" lon="-0.26376">
        <ele>4.8</ele>
        <time>2023-07-05T13:28:28Z</time>
      </trkpt>
      <trkpt lat="49.29045" lon="-0.26386">
        <ele>4.8</ele>
        <time>2023-07-05T13:28:29Z</time>
      </trkpt>
      <trkpt lat="49.29048" lon="-0.26395">
        <ele>4.8</ele>
        <time>2023-07-05T13:28:30Z</time>
      </trkpt>
      <trkpt lat="49.2905" lon="-0.26404">
        <ele>4.8</ele>
        <time>2023-07-05T13:28:31Z</time>
      </trkpt>
      <trkpt lat="49.29052" lon="-0.26412">
        <ele>4.8</ele>
        <time>2023-07-05T13:28:32Z</time>
      </trkpt>
      <trkpt lat="49.29055" lon="-0.2642">
        <ele>4.9</ele>
        <time>2023-07-05T13:28:33Z</time>
      </trkpt>
      <trkpt lat="49.29057" lon="-0.26429">
        <ele>4.9</ele>
        <time>2023-07-05T13:28:34Z</time>
      </trkpt>
      <trkpt lat="49.29059" lon="-0.26437">
        <ele>4.9</ele>
        <time>2023-07-05T13:28:35Z</time>
      </trkpt>
      <trkpt lat="49.29061" lon="-0.26446">
        <ele>4.9</ele>
        <time>2023-07-05T13:28:36Z</time>
      </trkpt>
      <trkpt lat="49.29062" lon="-0.26454">
        <ele>4.9</ele>
        <time>2023-07-05T13:28:37Z</time>
      </trkpt>
      <trkpt lat="49.29063" lon="-0.26463">
        <ele>5</ele>
        <time>2023-07-05T13:28:38Z</time>
      </trkpt>
      <trkpt lat="49.29065" lon="-0.26472">
        <ele>5</ele>
        <time>2023-07-05T13:28:39Z</time>
      </trkpt>
      <trkpt lat="49.29067" lon="-0.26481">
        <ele>5</ele>
        <time>2023-07-05T13:28:40Z</time>
      </trkpt>
      <trkpt lat="49.29069" lon="-0.2649">
        <ele>5</ele>
        <time>2023-07-05T13:28:41Z</time>
      </trkpt>
      <trkpt lat="49.29071" lon="-0.26499">
        <ele>5.1</ele>
        <time>2023-07-05T13:28:42Z</time>
      </trkpt>
      <trkpt lat="49.29073" lon="-0.26509">
        <ele>5.1</ele>
        <time>2023-07-05T13:28:43Z</time>
      </trkpt>
      <trkpt lat="49.29074" lon="-0.26518">
        <ele>5.1</ele>
        <time>2023-07-05T13:28:44Z</time>
      </trkpt>
      <trkpt lat="49.29076" lon="-0.26528">
        <ele>5.1</ele>
        <time>2023-07-05T13:28:45Z</time>
      </trkpt>
      <trkpt lat="49.29079" lon="-0.26538">
        <ele>5.1</ele>
        <time>2023-07-05T13:28:46Z</time>
      </trkpt>
      <trkpt lat="49.2908" lon="-0.26547">
        <ele>5.1</ele>
        <time>2023-07-05T13:28:47Z</time>
      </trkpt>
      <trkpt lat="49.29082" lon="-0.26556">
        <ele>5.1</ele>
        <time>2023-07-05T13:28:48Z</time>
      </trkpt>
      <trkpt lat="49.29083" lon="-0.26564">
        <ele>5.1</ele>
        <time>2023-07-05T13:28:49Z</time>
      </trkpt>
      <trkpt lat="49.29084" lon="-0.26573">
        <ele>5.1</ele>
        <time>2023-07-05T13:28:50Z</time>
      </trkpt>
      <trkpt lat="49.29086" lon="-0.26582">
        <ele>5.2</ele>
        <time>2023-07-05T13:28:51Z</time>
      </trkpt>
      <trkpt lat="49.29088" lon="-0.2659">
        <ele>5.2</ele>
        <time>2023-07-05T13:28:52Z</time>
      </trkpt>
      <trkpt lat="49.2909" lon="-0.26598">
        <ele>5.2</ele>
        <time>2023-07-05T13:28:53Z</time>
      </trkpt>
      <trkpt lat="49.29092" lon="-0.26605">
        <ele>5.2</ele>
        <time>2023-07-05T13:28:54Z</time>
      </trkpt>
      <trkpt lat="49.29095" lon="-0.2661">
        <ele>5.3</ele>
        <time>2023-07-05T13:28:55Z</time>
      </trkpt>
      <trkpt lat="49.29099" lon="-0.26615">
        <ele>5.3</ele>
        <time>2023-07-05T13:28:56Z</time>
      </trkpt>
      <trkpt lat="49.29103" lon="-0.26618">
        <ele>5.3</ele>
        <time>2023-07-05T13:28:57Z</time>
      </trkpt>
      <trkpt lat="49.29108" lon="-0.26622">
        <ele>5.4</ele>
        <time>2023-07-05T13:28:58Z</time>
      </trkpt>
      <trkpt lat="49.29112" lon="-0.26626">
        <ele>5.4</ele>
        <time>2023-07-05T13:28:59Z</time>
      </trkpt>
      <trkpt lat="49.29117" lon="-0.26631">
        <ele>5.5</ele>
        <time>2023-07-05T13:29:00Z</time>
      </trkpt>
      <trkpt lat="49.29122" lon="-0.26635">
        <ele>5.5</ele>
        <time>2023-07-05T13:29:01Z</time>
      </trkpt>
      <trkpt lat="49.29126" lon="-0.2664">
        <ele>5.6</ele>
        <time>2023-07-05T13:29:02Z</time>
      </trkpt>
      <trkpt lat="49.29128" lon="-0.26648">
        <ele>5.6</ele>
        <time>2023-07-05T13:29:03Z</time>
      </trkpt>
      <trkpt lat="49.29129" lon="-0.26656">
        <ele>5.6</ele>
        <time>2023-07-05T13:29:04Z</time>
      </trkpt>
      <trkpt lat="49.2913" lon="-0.26664">
        <ele>5.7</ele>
        <time>2023-07-05T13:29:05Z</time>
      </trkpt>
      <trkpt lat="49.29131" lon="-0.26673">
        <ele>5.7</ele>
        <time>2023-07-05T13:29:06Z</time>
      </trkpt>
      <trkpt lat="49.29133" lon="-0.26681">
        <ele>5.7</ele>
        <time>2023-07-05T13:29:07Z</time>
      </trkpt>
      <trkpt lat="49.29134" lon="-0.26689">
        <ele>5.7</ele>
        <time>2023-07-05T13:29:08Z</time>
      </trkpt>
      <trkpt lat="49.29135" lon="-0.26699">
        <ele>5.8</ele>
        <time>2023-07-05T13:29:09Z</time>
      </trkpt>
      <trkpt lat="49.29136" lon="-0.26707">
        <ele>5.8</ele>
        <time>2023-07-05T13:29:10Z</time>
      </trkpt>
      <trkpt lat="49.29136" lon="-0.26716">
        <ele>5.8</ele>
        <time>2023-07-05T13:29:11Z</time>
      </trkpt>
      <trkpt lat="49.29137" lon="-0.26725">
        <ele>5.8</ele>
        <time>2023-07-05T13:29:12Z</time>
      </trkpt>
      <trkpt lat="49.29138" lon="-0.26741">
        <ele>5.8</ele>
        <time>2023-07-05T13:29:14Z</time>
      </trkpt>
      <trkpt lat="49.29139" lon="-0.26751">
        <ele>5.8</ele>
        <time>2023-07-05T13:29:15Z</time>
      </trkpt>
      <trkpt lat="49.2914" lon="-0.2676">
        <ele>5.8</ele>
        <time>2023-07-05T13:29:16Z</time>
      </trkpt>
      <trkpt lat="49.29141" lon="-0.26768">
        <ele>5.8</ele>
        <time>2023-07-05T13:29:17Z</time>
      </trkpt>
      <trkpt lat="49.29142" lon="-0.26777">
        <ele>5.9</ele>
        <time>2023-07-05T13:29:18Z</time>
      </trkpt>
      <trkpt lat="49.29143" lon="-0.26787">
        <ele>5.9</ele>
        <time>2023-07-05T13:29:19Z</time>
      </trkpt>
      <trkpt lat="49.29144" lon="-0.26796">
        <ele>5.9</ele>
        <time>2023-07-05T13:29:20Z</time>
      </trkpt>
      <trkpt lat="49.29145" lon="-0.26805">
        <ele>5.9</ele>
        <time>2023-07-05T13:29:21Z</time>
      </trkpt>
      <trkpt lat="49.29146" lon="-0.26814">
        <ele>5.9</ele>
        <time>2023-07-05T13:29:22Z</time>
      </trkpt>
      <trkpt lat="49.29147" lon="-0.26822">
        <ele>5.9</ele>
        <time>2023-07-05T13:29:23Z</time>
      </trkpt>
      <trkpt lat="49.29148" lon="-0.26831">
        <ele>5.9</ele>
        <time>2023-07-05T13:29:24Z</time>
      </trkpt>
      <trkpt lat="49.29148" lon="-0.2684">
        <ele>5.9</ele>
        <time>2023-07-05T13:29:25Z</time>
      </trkpt>
      <trkpt lat="49.29149" lon="-0.26847">
        <ele>5.9</ele>
        <time>2023-07-05T13:29:26Z</time>
      </trkpt>
      <trkpt lat="49.2915" lon="-0.26856">
        <ele>5.9</ele>
        <time>2023-07-05T13:29:27Z</time>
      </trkpt>
      <trkpt lat="49.29151" lon="-0.26865">
        <ele>5.9</ele>
        <time>2023-07-05T13:29:28Z</time>
      </trkpt>
      <trkpt lat="49.29152" lon="-0.26874">
        <ele>5.9</ele>
        <time>2023-07-05T13:29:29Z</time>
      </trkpt>
      <trkpt lat="49.29153" lon="-0.26883">
        <ele>5.9</ele>
        <time>2023-07-05T13:29:30Z</time>
      </trkpt>
      <trkpt lat="49.29154" lon="-0.26892">
        <ele>5.9</ele>
        <time>2023-07-05T13:29:31Z</time>
      </trkpt>
      <trkpt lat="49.29155" lon="-0.26901">
        <ele>5.9</ele>
        <time>2023-07-05T13:29:32Z</time>
      </trkpt>
      <trkpt lat="49.29156" lon="-0.2691">
        <ele>5.9</ele>
        <time>2023-07-05T13:29:33Z</time>
      </trkpt>
      <trkpt lat="49.29157" lon="-0.26919">
        <ele>5.9</ele>
        <time>2023-07-05T13:29:34Z</time>
      </trkpt>
      <trkpt lat="49.29158" lon="-0.26928">
        <ele>5.9</ele>
        <time>2023-07-05T13:29:35Z</time>
      </trkpt>
      <trkpt lat="49.29159" lon="-0.26936">
        <ele>5.9</ele>
        <time>2023-07-05T13:29:36Z</time>
      </trkpt>
      <trkpt lat="49.29159" lon="-0.26945">
        <ele>5.9</ele>
        <time>2023-07-05T13:29:37Z</time>
      </trkpt>
      <trkpt lat="49.2916" lon="-0.26954">
        <ele>5.9</ele>
        <time>2023-07-05T13:29:38Z</time>
      </trkpt>
      <trkpt lat="49.29161" lon="-0.26963">
        <ele>5.9</ele>
        <time>2023-07-05T13:29:39Z</time>
      </trkpt>
      <trkpt lat="49.29162" lon="-0.26972">
        <ele>5.9</ele>
        <time>2023-07-05T13:29:40Z</time>
      </trkpt>
      <trkpt lat="49.29162" lon="-0.26981">
        <ele>5.9</ele>
        <time>2023-07-05T13:29:41Z</time>
      </trkpt>
      <trkpt lat="49.29163" lon="-0.2699">
        <ele>5.9</ele>
        <time>2023-07-05T13:29:42Z</time>
      </trkpt>
      <trkpt lat="49.29163" lon="-0.26999">
        <ele>5.9</ele>
        <time>2023-07-05T13:29:43Z</time>
      </trkpt>
      <trkpt lat="49.29164" lon="-0.27008">
        <ele>5.9</ele>
        <time>2023-07-05T13:29:44Z</time>
      </trkpt>
      <trkpt lat="49.29164" lon="-0.27017">
        <ele>5.9</ele>
        <time>2023-07-05T13:29:45Z</time>
      </trkpt>
      <trkpt lat="49.29165" lon="-0.27026">
        <ele>5.9</ele>
        <time>2023-07-05T13:29:46Z</time>
      </trkpt>
      <trkpt lat="49.29166" lon="-0.27035">
        <ele>5.9</ele>
        <time>2023-07-05T13:29:47Z</time>
      </trkpt>
      <trkpt lat="49.29166" lon="-0.27044">
        <ele>5.9</ele>
        <time>2023-07-05T13:29:48Z</time>
      </trkpt>
      <trkpt lat="49.29166" lon="-0.27053">
        <ele>5.9</ele>
        <time>2023-07-05T13:29:49Z</time>
      </trkpt>
      <trkpt lat="49.29166" lon="-0.27062">
        <ele>5.9</ele>
        <time>2023-07-05T13:29:50Z</time>
      </trkpt>
      <trkpt lat="49.29167" lon="-0.2707">
        <ele>5.9</ele>
        <time>2023-07-05T13:29:51Z</time>
      </trkpt>
      <trkpt lat="49.29167" lon="-0.27078">
        <ele>5.9</ele>
        <time>2023-07-05T13:29:52Z</time>
      </trkpt>
      <trkpt lat="49.29168" lon="-0.27085">
        <ele>5.9</ele>
        <time>2023-07-05T13:29:53Z</time>
      </trkpt>
      <trkpt lat="49.29168" lon="-0.27091">
        <ele>5.9</ele>
        <time>2023-07-05T13:29:54Z</time>
      </trkpt>
      <trkpt lat="49.29169" lon="-0.27097">
        <ele>5.9</ele>
        <time>2023-07-05T13:29:55Z</time>
      </trkpt>
      <trkpt lat="49.2917" lon="-0.27103">
        <ele>5.9</ele>
        <time>2023-07-05T13:29:56Z</time>
      </trkpt>
      <trkpt lat="49.29171" lon="-0.2711">
        <ele>5.9</ele>
        <time>2023-07-05T13:29:57Z</time>
      </trkpt>
      <trkpt lat="49.29172" lon="-0.27117">
        <ele>5.9</ele>
        <time>2023-07-05T13:29:58Z</time>
      </trkpt>
      <trkpt lat="49.29173" lon="-0.27125">
        <ele>5.9</ele>
        <time>2023-07-05T13:29:59Z</time>
      </trkpt>
      <trkpt lat="49.29174" lon="-0.27132">
        <ele>5.9</ele>
        <time>2023-07-05T13:30:00Z</time>
      </trkpt>
      <trkpt lat="49.29175" lon="-0.27141">
        <ele>5.9</ele>
        <time>2023-07-05T13:30:01Z</time>
      </trkpt>
      <trkpt lat="49.29176" lon="-0.27149">
        <ele>5.9</ele>
        <time>2023-07-05T13:30:02Z</time>
      </trkpt>
      <trkpt lat="49.29178" lon="-0.27157">
        <ele>5.9</ele>
        <time>2023-07-05T13:30:03Z</time>
      </trkpt>
      <trkpt lat="49.29179" lon="-0.27164">
        <ele>6</ele>
        <time>2023-07-05T13:30:04Z</time>
      </trkpt>
      <trkpt lat="49.2918" lon="-0.27172">
        <ele>6</ele>
        <time>2023-07-05T13:30:05Z</time>
      </trkpt>
      <trkpt lat="49.2918" lon="-0.2718">
        <ele>6</ele>
        <time>2023-07-05T13:30:06Z</time>
      </trkpt>
      <trkpt lat="49.2918" lon="-0.27187">
        <ele>6</ele>
        <time>2023-07-05T13:30:07Z</time>
      </trkpt>
      <trkpt lat="49.29179" lon="-0.27195">
        <ele>5.9</ele>
        <time>2023-07-05T13:30:08Z</time>
      </trkpt>
      <trkpt lat="49.29177" lon="-0.27203">
        <ele>5.9</ele>
        <time>2023-07-05T13:30:09Z</time>
      </trkpt>
      <trkpt lat="49.29176" lon="-0.2721">
        <ele>5.9</ele>
        <time>2023-07-05T13:30:10Z</time>
      </trkpt>
      <trkpt lat="49.29176" lon="-0.27217">
        <ele>5.9</ele>
        <time>2023-07-05T13:30:11Z</time>
      </trkpt>
      <trkpt lat="49.29178" lon="-0.27224">
        <ele>5.9</ele>
        <time>2023-07-05T13:30:12Z</time>
      </trkpt>
      <trkpt lat="49.29179" lon="-0.27231">
        <ele>5.9</ele>
        <time>2023-07-05T13:30:13Z</time>
      </trkpt>
      <trkpt lat="49.2918" lon="-0.27239">
        <ele>6</ele>
        <time>2023-07-05T13:30:14Z</time>
      </trkpt>
      <trkpt lat="49.29181" lon="-0.27246">
        <ele>6</ele>
        <time>2023-07-05T13:30:15Z</time>
      </trkpt>
      <trkpt lat="49.29182" lon="-0.27254">
        <ele>6</ele>
        <time>2023-07-05T13:30:16Z</time>
      </trkpt>
      <trkpt lat="49.29183" lon="-0.27261">
        <ele>6.1</ele>
        <time>2023-07-05T13:30:17Z</time>
      </trkpt>
      <trkpt lat="49.29184" lon="-0.27267">
        <ele>6.1</ele>
        <time>2023-07-05T13:30:18Z</time>
      </trkpt>
      <trkpt lat="49.29185" lon="-0.27272">
        <ele>6.1</ele>
        <time>2023-07-05T13:30:19Z</time>
      </trkpt>
      <trkpt lat="49.29187" lon="-0.27277">
        <ele>6</ele>
        <time>2023-07-05T13:30:20Z</time>
      </trkpt>
      <trkpt lat="49.29189" lon="-0.27283">
        <ele>6</ele>
        <time>2023-07-05T13:30:21Z</time>
      </trkpt>
      <trkpt lat="49.2919" lon="-0.2729">
        <ele>6</ele>
        <time>2023-07-05T13:30:22Z</time>
      </trkpt>
      <trkpt lat="49.29191" lon="-0.27297">
        <ele>6</ele>
        <time>2023-07-05T13:30:23Z</time>
      </trkpt>
      <trkpt lat="49.29192" lon="-0.27305">
        <ele>6</ele>
        <time>2023-07-05T13:30:24Z</time>
      </trkpt>
      <trkpt lat="49.29194" lon="-0.27313">
        <ele>6.1</ele>
        <time>2023-07-05T13:30:25Z</time>
      </trkpt>
      <trkpt lat="49.29198" lon="-0.2732">
        <ele>6.1</ele>
        <time>2023-07-05T13:30:26Z</time>
      </trkpt>
      <trkpt lat="49.29203" lon="-0.27326">
        <ele>6.1</ele>
        <time>2023-07-05T13:30:27Z</time>
      </trkpt>
      <trkpt lat="49.29207" lon="-0.27332">
        <ele>6.1</ele>
        <time>2023-07-05T13:30:28Z</time>
      </trkpt>
      <trkpt lat="49.29209" lon="-0.27339">
        <ele>6.1</ele>
        <time>2023-07-05T13:30:29Z</time>
      </trkpt>
      <trkpt lat="49.29211" lon="-0.27349">
        <ele>6</ele>
        <time>2023-07-05T13:30:30Z</time>
      </trkpt>
      <trkpt lat="49.29212" lon="-0.27359">
        <ele>6</ele>
        <time>2023-07-05T13:30:31Z</time>
      </trkpt>
      <trkpt lat="49.29213" lon="-0.27369">
        <ele>6</ele>
        <time>2023-07-05T13:30:32Z</time>
      </trkpt>
      <trkpt lat="49.29215" lon="-0.27379">
        <ele>5.9</ele>
        <time>2023-07-05T13:30:33Z</time>
      </trkpt>
      <trkpt lat="49.29216" lon="-0.27389">
        <ele>5.9</ele>
        <time>2023-07-05T13:30:34Z</time>
      </trkpt>
      <trkpt lat="49.29218" lon="-0.27398">
        <ele>5.9</ele>
        <time>2023-07-05T13:30:35Z</time>
      </trkpt>
      <trkpt lat="49.29219" lon="-0.27407">
        <ele>5.9</ele>
        <time>2023-07-05T13:30:36Z</time>
      </trkpt>
      <trkpt lat="49.2922" lon="-0.27416">
        <ele>5.9</ele>
        <time>2023-07-05T13:30:37Z</time>
      </trkpt>
      <trkpt lat="49.29221" lon="-0.27426">
        <ele>5.9</ele>
        <time>2023-07-05T13:30:38Z</time>
      </trkpt>
      <trkpt lat="49.29223" lon="-0.27436">
        <ele>5.8</ele>
        <time>2023-07-05T13:30:39Z</time>
      </trkpt>
      <trkpt lat="49.29224" lon="-0.27445">
        <ele>5.8</ele>
        <time>2023-07-05T13:30:40Z</time>
      </trkpt>
      <trkpt lat="49.29225" lon="-0.27454">
        <ele>5.8</ele>
        <time>2023-07-05T13:30:41Z</time>
      </trkpt>
      <trkpt lat="49.29226" lon="-0.27464">
        <ele>5.8</ele>
        <time>2023-07-05T13:30:42Z</time>
      </trkpt>
      <trkpt lat="49.29228" lon="-0.27474">
        <ele>5.8</ele>
        <time>2023-07-05T13:30:43Z</time>
      </trkpt>
      <trkpt lat="49.29229" lon="-0.27484">
        <ele>5.8</ele>
        <time>2023-07-05T13:30:44Z</time>
      </trkpt>
      <trkpt lat="49.29231" lon="-0.27493">
        <ele>5.8</ele>
        <time>2023-07-05T13:30:45Z</time>
      </trkpt>
      <trkpt lat="49.29232" lon="-0.27503">
        <ele>5.7</ele>
        <time>2023-07-05T13:30:46Z</time>
      </trkpt>
      <trkpt lat="49.29233" lon="-0.27513">
        <ele>5.7</ele>
        <time>2023-07-05T13:30:47Z</time>
      </trkpt>
      <trkpt lat="49.29235" lon="-0.27523">
        <ele>5.7</ele>
        <time>2023-07-05T13:30:48Z</time>
      </trkpt>
      <trkpt lat="49.29236" lon="-0.27532">
        <ele>5.7</ele>
        <time>2023-07-05T13:30:49Z</time>
      </trkpt>
      <trkpt lat="49.29238" lon="-0.27541">
        <ele>5.7</ele>
        <time>2023-07-05T13:30:50Z</time>
      </trkpt>
      <trkpt lat="49.29239" lon="-0.2755">
        <ele>5.7</ele>
        <time>2023-07-05T13:30:51Z</time>
      </trkpt>
      <trkpt lat="49.2924" lon="-0.27558">
        <ele>5.7</ele>
        <time>2023-07-05T13:30:52Z</time>
      </trkpt>
      <trkpt lat="49.2924" lon="-0.27566">
        <ele>5.7</ele>
        <time>2023-07-05T13:30:53Z</time>
      </trkpt>
      <trkpt lat="49.29241" lon="-0.27574">
        <ele>5.7</ele>
        <time>2023-07-05T13:30:54Z</time>
      </trkpt>
      <trkpt lat="49.29243" lon="-0.27582">
        <ele>5.7</ele>
        <time>2023-07-05T13:30:55Z</time>
      </trkpt>
      <trkpt lat="49.29244" lon="-0.27591">
        <ele>5.7</ele>
        <time>2023-07-05T13:30:56Z</time>
      </trkpt>
      <trkpt lat="49.29246" lon="-0.276">
        <ele>5.7</ele>
        <time>2023-07-05T13:30:57Z</time>
      </trkpt>
      <trkpt lat="49.29247" lon="-0.2761">
        <ele>5.7</ele>
        <time>2023-07-05T13:30:58Z</time>
      </trkpt>
      <trkpt lat="49.29248" lon="-0.2762">
        <ele>5.7</ele>
        <time>2023-07-05T13:30:59Z</time>
      </trkpt>
      <trkpt lat="49.2925" lon="-0.27629">
        <ele>5.6</ele>
        <time>2023-07-05T13:31:00Z</time>
      </trkpt>
      <trkpt lat="49.29251" lon="-0.27639">
        <ele>5.6</ele>
        <time>2023-07-05T13:31:01Z</time>
      </trkpt>
      <trkpt lat="49.29253" lon="-0.27649">
        <ele>5.6</ele>
        <time>2023-07-05T13:31:02Z</time>
      </trkpt>
      <trkpt lat="49.29254" lon="-0.27659">
        <ele>5.6</ele>
        <time>2023-07-05T13:31:03Z</time>
      </trkpt>
      <trkpt lat="49.29256" lon="-0.27669">
        <ele>5.5</ele>
        <time>2023-07-05T13:31:04Z</time>
      </trkpt>
      <trkpt lat="49.29257" lon="-0.27679">
        <ele>5.5</ele>
        <time>2023-07-05T13:31:05Z</time>
      </trkpt>
      <trkpt lat="49.29259" lon="-0.27689">
        <ele>5.5</ele>
        <time>2023-07-05T13:31:06Z</time>
      </trkpt>
      <trkpt lat="49.2926" lon="-0.277">
        <ele>5.4</ele>
        <time>2023-07-05T13:31:07Z</time>
      </trkpt>
      <trkpt lat="49.29262" lon="-0.2771">
        <ele>5.4</ele>
        <time>2023-07-05T13:31:08Z</time>
      </trkpt>
      <trkpt lat="49.29263" lon="-0.2772">
        <ele>5.4</ele>
        <time>2023-07-05T13:31:09Z</time>
      </trkpt>
      <trkpt lat="49.29264" lon="-0.2773">
        <ele>5.4</ele>
        <time>2023-07-05T13:31:10Z</time>
      </trkpt>
      <trkpt lat="49.29266" lon="-0.2774">
        <ele>5.3</ele>
        <time>2023-07-05T13:31:11Z</time>
      </trkpt>
      <trkpt lat="49.29267" lon="-0.2775">
        <ele>5.3</ele>
        <time>2023-07-05T13:31:12Z</time>
      </trkpt>
      <trkpt lat="49.29269" lon="-0.2776">
        <ele>5.3</ele>
        <time>2023-07-05T13:31:13Z</time>
      </trkpt>
      <trkpt lat="49.2927" lon="-0.2777">
        <ele>5.3</ele>
        <time>2023-07-05T13:31:14Z</time>
      </trkpt>
      <trkpt lat="49.29271" lon="-0.2778">
        <ele>5.3</ele>
        <time>2023-07-05T13:31:15Z</time>
      </trkpt>
      <trkpt lat="49.29272" lon="-0.2779">
        <ele>5.3</ele>
        <time>2023-07-05T13:31:16Z</time>
      </trkpt>
      <trkpt lat="49.29274" lon="-0.278">
        <ele>5.3</ele>
        <time>2023-07-05T13:31:17Z</time>
      </trkpt>
      <trkpt lat="49.29275" lon="-0.2781">
        <ele>5.3</ele>
        <time>2023-07-05T13:31:18Z</time>
      </trkpt>
      <trkpt lat="49.29276" lon="-0.27819">
        <ele>5.3</ele>
        <time>2023-07-05T13:31:19Z</time>
      </trkpt>
      <trkpt lat="49.29278" lon="-0.27828">
        <ele>5.3</ele>
        <time>2023-07-05T13:31:20Z</time>
      </trkpt>
      <trkpt lat="49.29279" lon="-0.27837">
        <ele>5.3</ele>
        <time>2023-07-05T13:31:21Z</time>
      </trkpt>
      <trkpt lat="49.2928" lon="-0.27846">
        <ele>5.2</ele>
        <time>2023-07-05T13:31:22Z</time>
      </trkpt>
      <trkpt lat="49.29281" lon="-0.27854">
        <ele>5.2</ele>
        <time>2023-07-05T13:31:23Z</time>
      </trkpt>
      <trkpt lat="49.29279" lon="-0.27861">
        <ele>5.2</ele>
        <time>2023-07-05T13:31:24Z</time>
      </trkpt>
      <trkpt lat="49.29276" lon="-0.27867">
        <ele>5.2</ele>
        <time>2023-07-05T13:31:25Z</time>
      </trkpt>
      <trkpt lat="49.29273" lon="-0.27873">
        <ele>5.2</ele>
        <time>2023-07-05T13:31:26Z</time>
      </trkpt>
      <trkpt lat="49.29272" lon="-0.2788">
        <ele>5.1</ele>
        <time>2023-07-05T13:31:27Z</time>
      </trkpt>
      <trkpt lat="49.29273" lon="-0.27887">
        <ele>5.1</ele>
        <time>2023-07-05T13:31:28Z</time>
      </trkpt>
      <trkpt lat="49.29274" lon="-0.27893">
        <ele>5.1</ele>
        <time>2023-07-05T13:31:29Z</time>
      </trkpt>
      <trkpt lat="49.29275" lon="-0.27901">
        <ele>5</ele>
        <time>2023-07-05T13:31:30Z</time>
      </trkpt>
      <trkpt lat="49.29275" lon="-0.27908">
        <ele>5</ele>
        <time>2023-07-05T13:31:31Z</time>
      </trkpt>
      <trkpt lat="49.29275" lon="-0.27917">
        <ele>5</ele>
        <time>2023-07-05T13:31:32Z</time>
      </trkpt>
      <trkpt lat="49.29276" lon="-0.27925">
        <ele>4.9</ele>
        <time>2023-07-05T13:31:33Z</time>
      </trkpt>
      <trkpt lat="49.29277" lon="-0.27934">
        <ele>4.9</ele>
        <time>2023-07-05T13:31:34Z</time>
      </trkpt>
      <trkpt lat="49.29279" lon="-0.27942">
        <ele>4.9</ele>
        <time>2023-07-05T13:31:35Z</time>
      </trkpt>
      <trkpt lat="49.29282" lon="-0.2795">
        <ele>4.8</ele>
        <time>2023-07-05T13:31:36Z</time>
      </trkpt>
      <trkpt lat="49.29284" lon="-0.27958">
        <ele>4.8</ele>
        <time>2023-07-05T13:31:37Z</time>
      </trkpt>
      <trkpt lat="49.29285" lon="-0.27968">
        <ele>4.8</ele>
        <time>2023-07-05T13:31:38Z</time>
      </trkpt>
      <trkpt lat="49.29287" lon="-0.27977">
        <ele>4.8</ele>
        <time>2023-07-05T13:31:39Z</time>
      </trkpt>
      <trkpt lat="49.29288" lon="-0.27986">
        <ele>4.7</ele>
        <time>2023-07-05T13:31:40Z</time>
      </trkpt>
      <trkpt lat="49.2929" lon="-0.27995">
        <ele>4.7</ele>
        <time>2023-07-05T13:31:41Z</time>
      </trkpt>
      <trkpt lat="49.29291" lon="-0.28004">
        <ele>4.7</ele>
        <time>2023-07-05T13:31:42Z</time>
      </trkpt>
      <trkpt lat="49.29293" lon="-0.28014">
        <ele>4.7</ele>
        <time>2023-07-05T13:31:43Z</time>
      </trkpt>
      <trkpt lat="49.29294" lon="-0.28022">
        <ele>4.7</ele>
        <time>2023-07-05T13:31:44Z</time>
      </trkpt>
      <trkpt lat="49.29296" lon="-0.28032">
        <ele>4.6</ele>
        <time>2023-07-05T13:31:45Z</time>
      </trkpt>
      <trkpt lat="49.29298" lon="-0.28041">
        <ele>4.6</ele>
        <time>2023-07-05T13:31:46Z</time>
      </trkpt>
      <trkpt lat="49.29299" lon="-0.28051">
        <ele>4.6</ele>
        <time>2023-07-05T13:31:47Z</time>
      </trkpt>
      <trkpt lat="49.29301" lon="-0.2806">
        <ele>4.6</ele>
        <time>2023-07-05T13:31:48Z</time>
      </trkpt>
      <trkpt lat="49.29302" lon="-0.2807">
        <ele>4.6</ele>
        <time>2023-07-05T13:31:49Z</time>
      </trkpt>
      <trkpt lat="49.29305" lon="-0.28079">
        <ele>4.5</ele>
        <time>2023-07-05T13:31:50Z</time>
      </trkpt>
      <trkpt lat="49.29307" lon="-0.28088">
        <ele>4.5</ele>
        <time>2023-07-05T13:31:51Z</time>
      </trkpt>
      <trkpt lat="49.2931" lon="-0.28097">
        <ele>4.5</ele>
        <time>2023-07-05T13:31:52Z</time>
      </trkpt>
      <trkpt lat="49.29312" lon="-0.28106">
        <ele>4.5</ele>
        <time>2023-07-05T13:31:53Z</time>
      </trkpt>
      <trkpt lat="49.29314" lon="-0.28116">
        <ele>4.5</ele>
        <time>2023-07-05T13:31:54Z</time>
      </trkpt>
      <trkpt lat="49.29316" lon="-0.28125">
        <ele>4.5</ele>
        <time>2023-07-05T13:31:55Z</time>
      </trkpt>
      <trkpt lat="49.29317" lon="-0.28135">
        <ele>4.5</ele>
        <time>2023-07-05T13:31:56Z</time>
      </trkpt>
      <trkpt lat="49.29318" lon="-0.28145">
        <ele>4.5</ele>
        <time>2023-07-05T13:31:57Z</time>
      </trkpt>
      <trkpt lat="49.29319" lon="-0.28155">
        <ele>4.5</ele>
        <time>2023-07-05T13:31:58Z</time>
      </trkpt>
      <trkpt lat="49.2932" lon="-0.28164">
        <ele>4.4</ele>
        <time>2023-07-05T13:31:59Z</time>
      </trkpt>
      <trkpt lat="49.2932" lon="-0.28174">
        <ele>4.4</ele>
        <time>2023-07-05T13:32:00Z</time>
      </trkpt>
      <trkpt lat="49.29321" lon="-0.28184">
        <ele>4.4</ele>
        <time>2023-07-05T13:32:01Z</time>
      </trkpt>
      <trkpt lat="49.29323" lon="-0.28193">
        <ele>4.4</ele>
        <time>2023-07-05T13:32:02Z</time>
      </trkpt>
      <trkpt lat="49.29324" lon="-0.28203">
        <ele>4.4</ele>
        <time>2023-07-05T13:32:03Z</time>
      </trkpt>
      <trkpt lat="49.29325" lon="-0.28212">
        <ele>4.3</ele>
        <time>2023-07-05T13:32:04Z</time>
      </trkpt>
      <trkpt lat="49.29326" lon="-0.28222">
        <ele>4.3</ele>
        <time>2023-07-05T13:32:05Z</time>
      </trkpt>
      <trkpt lat="49.29327" lon="-0.28231">
        <ele>4.3</ele>
        <time>2023-07-05T13:32:06Z</time>
      </trkpt>
      <trkpt lat="49.29328" lon="-0.2824">
        <ele>4.3</ele>
        <time>2023-07-05T13:32:07Z</time>
      </trkpt>
      <trkpt lat="49.29329" lon="-0.28248">
        <ele>4.3</ele>
        <time>2023-07-05T13:32:08Z</time>
      </trkpt>
      <trkpt lat="49.29331" lon="-0.28255">
        <ele>4.3</ele>
        <time>2023-07-05T13:32:09Z</time>
      </trkpt>
      <trkpt lat="49.29331" lon="-0.28262">
        <ele>4.3</ele>
        <time>2023-07-05T13:32:10Z</time>
      </trkpt>
      <trkpt lat="49.29332" lon="-0.2827">
        <ele>4.3</ele>
        <time>2023-07-05T13:32:11Z</time>
      </trkpt>
      <trkpt lat="49.29332" lon="-0.28277">
        <ele>4.3</ele>
        <time>2023-07-05T13:32:12Z</time>
      </trkpt>
      <trkpt lat="49.29332" lon="-0.28284">
        <ele>5.6</ele>
        <time>2023-07-05T13:32:13Z</time>
      </trkpt>
      <trkpt lat="49.29333" lon="-0.2829">
        <ele>5.6</ele>
        <time>2023-07-05T13:32:14Z</time>
      </trkpt>
      <trkpt lat="49.29336" lon="-0.28297">
        <ele>5.6</ele>
        <time>2023-07-05T13:32:15Z</time>
      </trkpt>
      <trkpt lat="49.2934" lon="-0.28303">
        <ele>5.6</ele>
        <time>2023-07-05T13:32:16Z</time>
      </trkpt>
      <trkpt lat="49.29343" lon="-0.2831">
        <ele>5.6</ele>
        <time>2023-07-05T13:32:17Z</time>
      </trkpt>
      <trkpt lat="49.29346" lon="-0.28317">
        <ele>5.6</ele>
        <time>2023-07-05T13:32:18Z</time>
      </trkpt>
      <trkpt lat="49.29348" lon="-0.28325">
        <ele>5.6</ele>
        <time>2023-07-05T13:32:19Z</time>
      </trkpt>
      <trkpt lat="49.29351" lon="-0.28333">
        <ele>5.6</ele>
        <time>2023-07-05T13:32:20Z</time>
      </trkpt>
      <trkpt lat="49.29353" lon="-0.28342">
        <ele>5.6</ele>
        <time>2023-07-05T13:32:21Z</time>
      </trkpt>
      <trkpt lat="49.29354" lon="-0.28351">
        <ele>5.6</ele>
        <time>2023-07-05T13:32:22Z</time>
      </trkpt>
      <trkpt lat="49.29357" lon="-0.2836">
        <ele>5.6</ele>
        <time>2023-07-05T13:32:23Z</time>
      </trkpt>
      <trkpt lat="49.29359" lon="-0.28369">
        <ele>5.6</ele>
        <time>2023-07-05T13:32:24Z</time>
      </trkpt>
      <trkpt lat="49.29361" lon="-0.28378">
        <ele>5.6</ele>
        <time>2023-07-05T13:32:25Z</time>
      </trkpt>
      <trkpt lat="49.29363" lon="-0.28387">
        <ele>5.5</ele>
        <time>2023-07-05T13:32:26Z</time>
      </trkpt>
      <trkpt lat="49.29365" lon="-0.28397">
        <ele>5.5</ele>
        <time>2023-07-05T13:32:27Z</time>
      </trkpt>
      <trkpt lat="49.29368" lon="-0.28406">
        <ele>5.5</ele>
        <time>2023-07-05T13:32:28Z</time>
      </trkpt>
      <trkpt lat="49.29371" lon="-0.28416">
        <ele>5.5</ele>
        <time>2023-07-05T13:32:29Z</time>
      </trkpt>
      <trkpt lat="49.29373" lon="-0.28426">
        <ele>5.5</ele>
        <time>2023-07-05T13:32:30Z</time>
      </trkpt>
      <trkpt lat="49.29375" lon="-0.28436">
        <ele>5.5</ele>
        <time>2023-07-05T13:32:31Z</time>
      </trkpt>
      <trkpt lat="49.29377" lon="-0.28445">
        <ele>5.5</ele>
        <time>2023-07-05T13:32:32Z</time>
      </trkpt>
      <trkpt lat="49.29379" lon="-0.28455">
        <ele>5.5</ele>
        <time>2023-07-05T13:32:33Z</time>
      </trkpt>
      <trkpt lat="49.29382" lon="-0.28465">
        <ele>5.5</ele>
        <time>2023-07-05T13:32:34Z</time>
      </trkpt>
      <trkpt lat="49.29384" lon="-0.28474">
        <ele>5.5</ele>
        <time>2023-07-05T13:32:35Z</time>
      </trkpt>
      <trkpt lat="49.29387" lon="-0.28484">
        <ele>5.4</ele>
        <time>2023-07-05T13:32:36Z</time>
      </trkpt>
      <trkpt lat="49.2939" lon="-0.28494">
        <ele>5.4</ele>
        <time>2023-07-05T13:32:37Z</time>
      </trkpt>
      <trkpt lat="49.29392" lon="-0.28503">
        <ele>5.4</ele>
        <time>2023-07-05T13:32:38Z</time>
      </trkpt>
      <trkpt lat="49.29394" lon="-0.28513">
        <ele>5.4</ele>
        <time>2023-07-05T13:32:39Z</time>
      </trkpt>
      <trkpt lat="49.29397" lon="-0.28522">
        <ele>5.4</ele>
        <time>2023-07-05T13:32:40Z</time>
      </trkpt>
      <trkpt lat="49.29399" lon="-0.28532">
        <ele>5.4</ele>
        <time>2023-07-05T13:32:41Z</time>
      </trkpt>
      <trkpt lat="49.29401" lon="-0.28542">
        <ele>5.5</ele>
        <time>2023-07-05T13:32:42Z</time>
      </trkpt>
      <trkpt lat="49.29403" lon="-0.28552">
        <ele>5.5</ele>
        <time>2023-07-05T13:32:43Z</time>
      </trkpt>
      <trkpt lat="49.29405" lon="-0.28561">
        <ele>5.5</ele>
        <time>2023-07-05T13:32:44Z</time>
      </trkpt>
      <trkpt lat="49.29407" lon="-0.2857">
        <ele>5.6</ele>
        <time>2023-07-05T13:32:45Z</time>
      </trkpt>
      <trkpt lat="49.29409" lon="-0.2858">
        <ele>5.6</ele>
        <time>2023-07-05T13:32:46Z</time>
      </trkpt>
      <trkpt lat="49.29412" lon="-0.2859">
        <ele>5.6</ele>
        <time>2023-07-05T13:32:47Z</time>
      </trkpt>
      <trkpt lat="49.29414" lon="-0.28599">
        <ele>5.7</ele>
        <time>2023-07-05T13:32:48Z</time>
      </trkpt>
      <trkpt lat="49.29417" lon="-0.28608">
        <ele>5.7</ele>
        <time>2023-07-05T13:32:49Z</time>
      </trkpt>
      <trkpt lat="49.29419" lon="-0.28618">
        <ele>5.7</ele>
        <time>2023-07-05T13:32:50Z</time>
      </trkpt>
      <trkpt lat="49.29422" lon="-0.28628">
        <ele>5.7</ele>
        <time>2023-07-05T13:32:51Z</time>
      </trkpt>
      <trkpt lat="49.29424" lon="-0.28638">
        <ele>5.7</ele>
        <time>2023-07-05T13:32:52Z</time>
      </trkpt>
      <trkpt lat="49.29426" lon="-0.28648">
        <ele>5.7</ele>
        <time>2023-07-05T13:32:53Z</time>
      </trkpt>
      <trkpt lat="49.29428" lon="-0.28657">
        <ele>5.7</ele>
        <time>2023-07-05T13:32:54Z</time>
      </trkpt>
      <trkpt lat="49.2943" lon="-0.28666">
        <ele>5.7</ele>
        <time>2023-07-05T13:32:55Z</time>
      </trkpt>
      <trkpt lat="49.29432" lon="-0.28676">
        <ele>5.7</ele>
        <time>2023-07-05T13:32:56Z</time>
      </trkpt>
      <trkpt lat="49.29434" lon="-0.28685">
        <ele>5.6</ele>
        <time>2023-07-05T13:32:57Z</time>
      </trkpt>
      <trkpt lat="49.29436" lon="-0.28693">
        <ele>5.6</ele>
        <time>2023-07-05T13:32:58Z</time>
      </trkpt>
      <trkpt lat="49.29438" lon="-0.28702">
        <ele>5.6</ele>
        <time>2023-07-05T13:32:59Z</time>
      </trkpt>
      <trkpt lat="49.2944" lon="-0.2871">
        <ele>5.6</ele>
        <time>2023-07-05T13:33:00Z</time>
      </trkpt>
      <trkpt lat="49.29442" lon="-0.28717">
        <ele>5.6</ele>
        <time>2023-07-05T13:33:01Z</time>
      </trkpt>
      <trkpt lat="49.29443" lon="-0.28725">
        <ele>5.6</ele>
        <time>2023-07-05T13:33:02Z</time>
      </trkpt>
      <trkpt lat="49.29445" lon="-0.28732">
        <ele>5.6</ele>
        <time>2023-07-05T13:33:03Z</time>
      </trkpt>
      <trkpt lat="49.29447" lon="-0.2874">
        <ele>5.6</ele>
        <time>2023-07-05T13:33:04Z</time>
      </trkpt>
      <trkpt lat="49.29448" lon="-0.28748">
        <ele>5.6</ele>
        <time>2023-07-05T13:33:05Z</time>
      </trkpt>
      <trkpt lat="49.29449" lon="-0.28755">
        <ele>5.6</ele>
        <time>2023-07-05T13:33:06Z</time>
      </trkpt>
      <trkpt lat="49.2945" lon="-0.28762">
        <ele>5.6</ele>
        <time>2023-07-05T13:33:07Z</time>
      </trkpt>
      <trkpt lat="49.2945" lon="-0.28769">
        <ele>5.6</ele>
        <time>2023-07-05T13:33:08Z</time>
      </trkpt>
      <trkpt lat="49.2945" lon="-0.28774">
        <ele>5.5</ele>
        <time>2023-07-05T13:33:09Z</time>
      </trkpt>
      <trkpt lat="49.29448" lon="-0.2878">
        <ele>5.5</ele>
        <time>2023-07-05T13:33:10Z</time>
      </trkpt>
      <trkpt lat="49.29447" lon="-0.28784">
        <ele>5.5</ele>
        <time>2023-07-05T13:33:11Z</time>
      </trkpt>
      <trkpt lat="49.29447" lon="-0.2879">
        <ele>5.5</ele>
        <time>2023-07-05T13:33:12Z</time>
      </trkpt>
      <trkpt lat="49.29449" lon="-0.28796">
        <ele>5.5</ele>
        <time>2023-07-05T13:33:13Z</time>
      </trkpt>
      <trkpt lat="49.29451" lon="-0.28801">
        <ele>5.5</ele>
        <time>2023-07-05T13:33:14Z</time>
      </trkpt>
      <trkpt lat="49.29453" lon="-0.28807">
        <ele>5.5</ele>
        <time>2023-07-05T13:33:15Z</time>
      </trkpt>
      <trkpt lat="49.29455" lon="-0.28814">
        <ele>5.5</ele>
        <time>2023-07-05T13:33:16Z</time>
      </trkpt>
      <trkpt lat="49.29456" lon="-0.28821">
        <ele>5.4</ele>
        <time>2023-07-05T13:33:17Z</time>
      </trkpt>
      <trkpt lat="49.29458" lon="-0.28829">
        <ele>5.4</ele>
        <time>2023-07-05T13:33:18Z</time>
      </trkpt>
      <trkpt lat="49.29459" lon="-0.28836">
        <ele>5.4</ele>
        <time>2023-07-05T13:33:19Z</time>
      </trkpt>
      <trkpt lat="49.2946" lon="-0.28842">
        <ele>5.5</ele>
        <time>2023-07-05T13:33:20Z</time>
      </trkpt>
      <trkpt lat="49.29461" lon="-0.28847">
        <ele>5.5</ele>
        <time>2023-07-05T13:33:21Z</time>
      </trkpt>
      <trkpt lat="49.29461" lon="-0.28852">
        <ele>5.5</ele>
        <time>2023-07-05T13:33:22Z</time>
      </trkpt>
      <trkpt lat="49.2946" lon="-0.28857">
        <ele>5.6</ele>
        <time>2023-07-05T13:33:23Z</time>
      </trkpt>
      <trkpt lat="49.29458" lon="-0.28861">
        <ele>5.6</ele>
        <time>2023-07-05T13:33:24Z</time>
      </trkpt>
      <trkpt lat="49.29453" lon="-0.28863">
        <ele>5.7</ele>
        <time>2023-07-05T13:33:25Z</time>
      </trkpt>
      <trkpt lat="49.29449" lon="-0.28864">
        <ele>5.7</ele>
        <time>2023-07-05T13:33:26Z</time>
      </trkpt>
      <trkpt lat="49.29444" lon="-0.28866">
        <ele>5.8</ele>
        <time>2023-07-05T13:33:27Z</time>
      </trkpt>
      <trkpt lat="49.29439" lon="-0.28868">
        <ele>5.9</ele>
        <time>2023-07-05T13:33:28Z</time>
      </trkpt>
      <trkpt lat="49.29434" lon="-0.2887">
        <ele>6</ele>
        <time>2023-07-05T13:33:29Z</time>
      </trkpt>
      <trkpt lat="49.29428" lon="-0.28873">
        <ele>6.1</ele>
        <time>2023-07-05T13:33:30Z</time>
      </trkpt>
      <trkpt lat="49.29423" lon="-0.28877">
        <ele>6.1</ele>
        <time>2023-07-05T13:33:31Z</time>
      </trkpt>
      <trkpt lat="49.29418" lon="-0.2888">
        <ele>6.1</ele>
        <time>2023-07-05T13:33:32Z</time>
      </trkpt>
      <trkpt lat="49.29413" lon="-0.28883">
        <ele>6</ele>
        <time>2023-07-05T13:33:33Z</time>
      </trkpt>
      <trkpt lat="49.29409" lon="-0.28886">
        <ele>6</ele>
        <time>2023-07-05T13:33:34Z</time>
      </trkpt>
      <trkpt lat="49.29404" lon="-0.28889">
        <ele>5.9</ele>
        <time>2023-07-05T13:33:35Z</time>
      </trkpt>
      <trkpt lat="49.29399" lon="-0.28892">
        <ele>5.9</ele>
        <time>2023-07-05T13:33:36Z</time>
      </trkpt>
      <trkpt lat="49.29394" lon="-0.28896">
        <ele>5.8</ele>
        <time>2023-07-05T13:33:37Z</time>
      </trkpt>
      <trkpt lat="49.29389" lon="-0.28898">
        <ele>5.8</ele>
        <time>2023-07-05T13:33:38Z</time>
      </trkpt>
      <trkpt lat="49.29385" lon="-0.289">
        <ele>5.8</ele>
        <time>2023-07-05T13:33:39Z</time>
      </trkpt>
      <trkpt lat="49.2938" lon="-0.28902">
        <ele>5.8</ele>
        <time>2023-07-05T13:33:40Z</time>
      </trkpt>
      <trkpt lat="49.29375" lon="-0.28905">
        <ele>5.7</ele>
        <time>2023-07-05T13:33:41Z</time>
      </trkpt>
      <trkpt lat="49.2937" lon="-0.28908">
        <ele>5.7</ele>
        <time>2023-07-05T13:33:42Z</time>
      </trkpt>
      <trkpt lat="49.29365" lon="-0.28911">
        <ele>5.6</ele>
        <time>2023-07-05T13:33:43Z</time>
      </trkpt>
      <trkpt lat="49.2936" lon="-0.28914">
        <ele>5.6</ele>
        <time>2023-07-05T13:33:44Z</time>
      </trkpt>
      <trkpt lat="49.29355" lon="-0.28916">
        <ele>5.5</ele>
        <time>2023-07-05T13:33:45Z</time>
      </trkpt>
      <trkpt lat="49.29349" lon="-0.28919">
        <ele>5.5</ele>
        <time>2023-07-05T13:33:46Z</time>
      </trkpt>
      <trkpt lat="49.29344" lon="-0.28921">
        <ele>5.5</ele>
        <time>2023-07-05T13:33:47Z</time>
      </trkpt>
      <trkpt lat="49.2934" lon="-0.28924">
        <ele>5.6</ele>
        <time>2023-07-05T13:33:48Z</time>
      </trkpt>
      <trkpt lat="49.29337" lon="-0.28927">
        <ele>5.6</ele>
        <time>2023-07-05T13:33:49Z</time>
      </trkpt>
      <trkpt lat="49.29335" lon="-0.28929">
        <ele>5.6</ele>
        <time>2023-07-05T13:33:50Z</time>
      </trkpt>
      <trkpt lat="49.29334" lon="-0.28933">
        <ele>5.6</ele>
        <time>2023-07-05T13:33:51Z</time>
      </trkpt>
      <trkpt lat="49.29334" lon="-0.28934">
        <ele>5.6</ele>
        <time>2023-07-05T13:33:52Z</time>
      </trkpt>
      <trkpt lat="49.29334" lon="-0.28935">
        <ele>5.6</ele>
        <time>2023-07-05T13:33:53Z</time>
      </trkpt>
      <trkpt lat="49.29334" lon="-0.28936">
        <ele>5.6</ele>
        <time>2023-07-05T13:33:54Z</time>
      </trkpt>
      <trkpt lat="49.29335" lon="-0.28937">
        <ele>5.6</ele>
        <time>2023-07-05T13:33:55Z</time>
      </trkpt>
      <trkpt lat="49.29335" lon="-0.28938">
        <ele>5.6</ele>
        <time>2023-07-05T13:33:56Z</time>
      </trkpt>
      <trkpt lat="49.29335" lon="-0.28939">
        <ele>5.6</ele>
        <time>2023-07-05T13:33:57Z</time>
      </trkpt>
      <trkpt lat="49.29335" lon="-0.2894">
        <ele>5.6</ele>
        <time>2023-07-05T13:33:58Z</time>
      </trkpt>
      <trkpt lat="49.29336" lon="-0.28941">
        <ele>5.6</ele>
        <time>2023-07-05T13:33:59Z</time>
      </trkpt>
      <trkpt lat="49.29336" lon="-0.28942">
        <ele>5.6</ele>
        <time>2023-07-05T13:34:00Z</time>
      </trkpt>
      <trkpt lat="49.29336" lon="-0.28943">
        <ele>5.6</ele>
        <time>2023-07-05T13:34:01Z</time>
      </trkpt>
      <trkpt lat="49.29336" lon="-0.28944">
        <ele>5.6</ele>
        <time>2023-07-05T13:34:02Z</time>
      </trkpt>
      <trkpt lat="49.29336" lon="-0.28945">
        <ele>5.6</ele>
        <time>2023-07-05T13:34:03Z</time>
      </trkpt>
      <trkpt lat="49.29337" lon="-0.28946">
        <ele>5.6</ele>
        <time>2023-07-05T13:34:21Z</time>
      </trkpt>
      <trkpt lat="49.29337" lon="-0.28947">
        <ele>5.6</ele>
        <time>2023-07-05T13:34:22Z</time>
      </trkpt>
      <trkpt lat="49.29337" lon="-0.28948">
        <ele>5.6</ele>
        <time>2023-07-05T13:34:23Z</time>
      </trkpt>
      <trkpt lat="49.29338" lon="-0.28952">
        <ele>5.6</ele>
        <time>2023-07-05T13:34:24Z</time>
      </trkpt>
      <trkpt lat="49.2934" lon="-0.28956">
        <ele>5.6</ele>
        <time>2023-07-05T13:34:25Z</time>
      </trkpt>
      <trkpt lat="49.29341" lon="-0.28961">
        <ele>5.6</ele>
        <time>2023-07-05T13:34:26Z</time>
      </trkpt>
      <trkpt lat="49.29342" lon="-0.28966">
        <ele>5.6</ele>
        <time>2023-07-05T13:34:27Z</time>
      </trkpt>
      <trkpt lat="49.29344" lon="-0.28971">
        <ele>5.6</ele>
        <time>2023-07-05T13:34:28Z</time>
      </trkpt>
      <trkpt lat="49.29346" lon="-0.28977">
        <ele>5.6</ele>
        <time>2023-07-05T13:34:29Z</time>
      </trkpt>
      <trkpt lat="49.29348" lon="-0.28983">
        <ele>5.6</ele>
        <time>2023-07-05T13:34:30Z</time>
      </trkpt>
      <trkpt lat="49.29351" lon="-0.28989">
        <ele>5.6</ele>
        <time>2023-07-05T13:34:31Z</time>
      </trkpt>
      <trkpt lat="49.29353" lon="-0.28995">
        <ele>5.6</ele>
        <time>2023-07-05T13:34:32Z</time>
      </trkpt>
      <trkpt lat="49.29355" lon="-0.29002">
        <ele>5.6</ele>
        <time>2023-07-05T13:34:33Z</time>
      </trkpt>
      <trkpt lat="49.29358" lon="-0.29008">
        <ele>5.6</ele>
        <time>2023-07-05T13:34:34Z</time>
      </trkpt>
      <trkpt lat="49.2936" lon="-0.29014">
        <ele>5.6</ele>
        <time>2023-07-05T13:34:35Z</time>
      </trkpt>
      <trkpt lat="49.29362" lon="-0.29021">
        <ele>5.6</ele>
        <time>2023-07-05T13:34:36Z</time>
      </trkpt>
      <trkpt lat="49.29365" lon="-0.29028">
        <ele>5.6</ele>
        <time>2023-07-05T13:34:37Z</time>
      </trkpt>
      <trkpt lat="49.29367" lon="-0.29034">
        <ele>5.6</ele>
        <time>2023-07-05T13:34:38Z</time>
      </trkpt>
      <trkpt lat="49.29369" lon="-0.29041">
        <ele>5.6</ele>
        <time>2023-07-05T13:34:39Z</time>
      </trkpt>
      <trkpt lat="49.2937" lon="-0.29048">
        <ele>5.6</ele>
        <time>2023-07-05T13:34:40Z</time>
      </trkpt>
      <trkpt lat="49.29373" lon="-0.29055">
        <ele>5.6</ele>
        <time>2023-07-05T13:34:41Z</time>
      </trkpt>
      <trkpt lat="49.29375" lon="-0.29062">
        <ele>5.6</ele>
        <time>2023-07-05T13:34:42Z</time>
      </trkpt>
      <trkpt lat="49.29377" lon="-0.29069">
        <ele>5.6</ele>
        <time>2023-07-05T13:34:43Z</time>
      </trkpt>
      <trkpt lat="49.2938" lon="-0.29076">
        <ele>5.6</ele>
        <time>2023-07-05T13:34:44Z</time>
      </trkpt>
      <trkpt lat="49.29382" lon="-0.29084">
        <ele>5.6</ele>
        <time>2023-07-05T13:34:45Z</time>
      </trkpt>
      <trkpt lat="49.29385" lon="-0.29092">
        <ele>5.6</ele>
        <time>2023-07-05T13:34:46Z</time>
      </trkpt>
      <trkpt lat="49.29387" lon="-0.291">
        <ele>5.6</ele>
        <time>2023-07-05T13:34:47Z</time>
      </trkpt>
      <trkpt lat="49.2939" lon="-0.29109">
        <ele>5.6</ele>
        <time>2023-07-05T13:34:48Z</time>
      </trkpt>
      <trkpt lat="49.29392" lon="-0.29118">
        <ele>5.6</ele>
        <time>2023-07-05T13:34:49Z</time>
      </trkpt>
      <trkpt lat="49.29395" lon="-0.29127">
        <ele>5.6</ele>
        <time>2023-07-05T13:34:50Z</time>
      </trkpt>
      <trkpt lat="49.29398" lon="-0.29136">
        <ele>5.6</ele>
        <time>2023-07-05T13:34:51Z</time>
      </trkpt>
      <trkpt lat="49.29401" lon="-0.29145">
        <ele>5.7</ele>
        <time>2023-07-05T13:34:52Z</time>
      </trkpt>
      <trkpt lat="49.29403" lon="-0.29154">
        <ele>5.7</ele>
        <time>2023-07-05T13:34:53Z</time>
      </trkpt>
      <trkpt lat="49.29406" lon="-0.29163">
        <ele>5.7</ele>
        <time>2023-07-05T13:34:54Z</time>
      </trkpt>
      <trkpt lat="49.29408" lon="-0.29172">
        <ele>5.7</ele>
        <time>2023-07-05T13:34:55Z</time>
      </trkpt>
      <trkpt lat="49.29411" lon="-0.29181">
        <ele>5.7</ele>
        <time>2023-07-05T13:34:56Z</time>
      </trkpt>
      <trkpt lat="49.29413" lon="-0.29189">
        <ele>5.7</ele>
        <time>2023-07-05T13:34:57Z</time>
      </trkpt>
      <trkpt lat="49.29416" lon="-0.29198">
        <ele>5.7</ele>
        <time>2023-07-05T13:34:58Z</time>
      </trkpt>
      <trkpt lat="49.29419" lon="-0.29207">
        <ele>5.7</ele>
        <time>2023-07-05T13:34:59Z</time>
      </trkpt>
      <trkpt lat="49.29422" lon="-0.29216">
        <ele>5.7</ele>
        <time>2023-07-05T13:35:00Z</time>
      </trkpt>
      <trkpt lat="49.29425" lon="-0.29225">
        <ele>5.7</ele>
        <time>2023-07-05T13:35:01Z</time>
      </trkpt>
      <trkpt lat="49.29427" lon="-0.29234">
        <ele>5.7</ele>
        <time>2023-07-05T13:35:02Z</time>
      </trkpt>
      <trkpt lat="49.2943" lon="-0.29243">
        <ele>5.7</ele>
        <time>2023-07-05T13:35:03Z</time>
      </trkpt>
      <trkpt lat="49.29433" lon="-0.29253">
        <ele>5.7</ele>
        <time>2023-07-05T13:35:04Z</time>
      </trkpt>
      <trkpt lat="49.29435" lon="-0.29261">
        <ele>5.7</ele>
        <time>2023-07-05T13:35:05Z</time>
      </trkpt>
      <trkpt lat="49.29439" lon="-0.29271">
        <ele>5.7</ele>
        <time>2023-07-05T13:35:06Z</time>
      </trkpt>
      <trkpt lat="49.29442" lon="-0.2928">
        <ele>5.8</ele>
        <time>2023-07-05T13:35:07Z</time>
      </trkpt>
      <trkpt lat="49.29445" lon="-0.29288">
        <ele>5.8</ele>
        <time>2023-07-05T13:35:08Z</time>
      </trkpt>
      <trkpt lat="49.29447" lon="-0.29297">
        <ele>5.8</ele>
        <time>2023-07-05T13:35:09Z</time>
      </trkpt>
      <trkpt lat="49.2945" lon="-0.29305">
        <ele>5.8</ele>
        <time>2023-07-05T13:35:10Z</time>
      </trkpt>
      <trkpt lat="49.29453" lon="-0.29314">
        <ele>5.8</ele>
        <time>2023-07-05T13:35:11Z</time>
      </trkpt>
      <trkpt lat="49.29456" lon="-0.29323">
        <ele>5.8</ele>
        <time>2023-07-05T13:35:12Z</time>
      </trkpt>
      <trkpt lat="49.29459" lon="-0.29331">
        <ele>5.9</ele>
        <time>2023-07-05T13:35:13Z</time>
      </trkpt>
      <trkpt lat="49.29462" lon="-0.29341">
        <ele>5.9</ele>
        <time>2023-07-05T13:35:14Z</time>
      </trkpt>
      <trkpt lat="49.29465" lon="-0.2935">
        <ele>5.9</ele>
        <time>2023-07-05T13:35:15Z</time>
      </trkpt>
      <trkpt lat="49.29467" lon="-0.29359">
        <ele>5.9</ele>
        <time>2023-07-05T13:35:16Z</time>
      </trkpt>
      <trkpt lat="49.2947" lon="-0.29369">
        <ele>5.9</ele>
        <time>2023-07-05T13:35:17Z</time>
      </trkpt>
      <trkpt lat="49.29473" lon="-0.29379">
        <ele>5.8</ele>
        <time>2023-07-05T13:35:18Z</time>
      </trkpt>
      <trkpt lat="49.29476" lon="-0.29389">
        <ele>5.8</ele>
        <time>2023-07-05T13:35:19Z</time>
      </trkpt>
      <trkpt lat="49.2948" lon="-0.29399">
        <ele>5.8</ele>
        <time>2023-07-05T13:35:20Z</time>
      </trkpt>
      <trkpt lat="49.29483" lon="-0.29409">
        <ele>5.8</ele>
        <time>2023-07-05T13:35:21Z</time>
      </trkpt>
      <trkpt lat="49.29485" lon="-0.29418">
        <ele>5.8</ele>
        <time>2023-07-05T13:35:22Z</time>
      </trkpt>
      <trkpt lat="49.29488" lon="-0.29428">
        <ele>5.8</ele>
        <time>2023-07-05T13:35:23Z</time>
      </trkpt>
      <trkpt lat="49.29491" lon="-0.29438">
        <ele>5.9</ele>
        <time>2023-07-05T13:35:24Z</time>
      </trkpt>
      <trkpt lat="49.29494" lon="-0.29448">
        <ele>5.9</ele>
        <time>2023-07-05T13:35:25Z</time>
      </trkpt>
      <trkpt lat="49.29497" lon="-0.29457">
        <ele>5.9</ele>
        <time>2023-07-05T13:35:26Z</time>
      </trkpt>
      <trkpt lat="49.295" lon="-0.29466">
        <ele>5.9</ele>
        <time>2023-07-05T13:35:27Z</time>
      </trkpt>
      <trkpt lat="49.29503" lon="-0.29476">
        <ele>5.9</ele>
        <time>2023-07-05T13:35:28Z</time>
      </trkpt>
      <trkpt lat="49.29506" lon="-0.29485">
        <ele>5.9</ele>
        <time>2023-07-05T13:35:29Z</time>
      </trkpt>
      <trkpt lat="49.29508" lon="-0.29494">
        <ele>5.9</ele>
        <time>2023-07-05T13:35:30Z</time>
      </trkpt>
      <trkpt lat="49.29511" lon="-0.29503">
        <ele>5.8</ele>
        <time>2023-07-05T13:35:31Z</time>
      </trkpt>
      <trkpt lat="49.29514" lon="-0.29512">
        <ele>5.8</ele>
        <time>2023-07-05T13:35:32Z</time>
      </trkpt>
      <trkpt lat="49.29517" lon="-0.29521">
        <ele>5.8</ele>
        <time>2023-07-05T13:35:33Z</time>
      </trkpt>
      <trkpt lat="49.2952" lon="-0.29531">
        <ele>5.8</ele>
        <time>2023-07-05T13:35:34Z</time>
      </trkpt>
      <trkpt lat="49.29523" lon="-0.29541">
        <ele>5.7</ele>
        <time>2023-07-05T13:35:35Z</time>
      </trkpt>
      <trkpt lat="49.29525" lon="-0.2955">
        <ele>5.7</ele>
        <time>2023-07-05T13:35:36Z</time>
      </trkpt>
      <trkpt lat="49.29529" lon="-0.29559">
        <ele>5.7</ele>
        <time>2023-07-05T13:35:37Z</time>
      </trkpt>
      <trkpt lat="49.29532" lon="-0.29568">
        <ele>5.7</ele>
        <time>2023-07-05T13:35:38Z</time>
      </trkpt>
      <trkpt lat="49.29535" lon="-0.29577">
        <ele>5.7</ele>
        <time>2023-07-05T13:35:39Z</time>
      </trkpt>
      <trkpt lat="49.29538" lon="-0.29587">
        <ele>5.7</ele>
        <time>2023-07-05T13:35:40Z</time>
      </trkpt>
      <trkpt lat="49.29541" lon="-0.29598">
        <ele>5.7</ele>
        <time>2023-07-05T13:35:41Z</time>
      </trkpt>
      <trkpt lat="49.29544" lon="-0.29608">
        <ele>5.7</ele>
        <time>2023-07-05T13:35:42Z</time>
      </trkpt>
      <trkpt lat="49.29548" lon="-0.29618">
        <ele>5.7</ele>
        <time>2023-07-05T13:35:43Z</time>
      </trkpt>
      <trkpt lat="49.29551" lon="-0.29628">
        <ele>5.6</ele>
        <time>2023-07-05T13:35:44Z</time>
      </trkpt>
      <trkpt lat="49.29554" lon="-0.29639">
        <ele>5.6</ele>
        <time>2023-07-05T13:35:45Z</time>
      </trkpt>
      <trkpt lat="49.29557" lon="-0.29649">
        <ele>5.6</ele>
        <time>2023-07-05T13:35:46Z</time>
      </trkpt>
      <trkpt lat="49.2956" lon="-0.29659">
        <ele>5.6</ele>
        <time>2023-07-05T13:35:47Z</time>
      </trkpt>
      <trkpt lat="49.29563" lon="-0.29669">
        <ele>5.6</ele>
        <time>2023-07-05T13:35:48Z</time>
      </trkpt>
      <trkpt lat="49.29566" lon="-0.2968">
        <ele>5.6</ele>
        <time>2023-07-05T13:35:49Z</time>
      </trkpt>
      <trkpt lat="49.29569" lon="-0.2969">
        <ele>5.6</ele>
        <time>2023-07-05T13:35:50Z</time>
      </trkpt>
      <trkpt lat="49.29572" lon="-0.29701">
        <ele>5.6</ele>
        <time>2023-07-05T13:35:51Z</time>
      </trkpt>
      <trkpt lat="49.29575" lon="-0.29711">
        <ele>5.6</ele>
        <time>2023-07-05T13:35:52Z</time>
      </trkpt>
      <trkpt lat="49.29579" lon="-0.29722">
        <ele>5.6</ele>
        <time>2023-07-05T13:35:53Z</time>
      </trkpt>
      <trkpt lat="49.29582" lon="-0.29732">
        <ele>5.5</ele>
        <time>2023-07-05T13:35:54Z</time>
      </trkpt>
      <trkpt lat="49.29585" lon="-0.29742">
        <ele>5.5</ele>
        <time>2023-07-05T13:35:55Z</time>
      </trkpt>
      <trkpt lat="49.29588" lon="-0.29752">
        <ele>5.5</ele>
        <time>2023-07-05T13:35:56Z</time>
      </trkpt>
      <trkpt lat="49.29591" lon="-0.29762">
        <ele>5.5</ele>
        <time>2023-07-05T13:35:57Z</time>
      </trkpt>
      <trkpt lat="49.29594" lon="-0.29772">
        <ele>5.5</ele>
        <time>2023-07-05T13:35:58Z</time>
      </trkpt>
      <trkpt lat="49.29597" lon="-0.29782">
        <ele>5.5</ele>
        <time>2023-07-05T13:35:59Z</time>
      </trkpt>
      <trkpt lat="49.29601" lon="-0.29792">
        <ele>5.5</ele>
        <time>2023-07-05T13:36:00Z</time>
      </trkpt>
      <trkpt lat="49.29604" lon="-0.29802">
        <ele>5.5</ele>
        <time>2023-07-05T13:36:01Z</time>
      </trkpt>
      <trkpt lat="49.29607" lon="-0.29812">
        <ele>5.5</ele>
        <time>2023-07-05T13:36:02Z</time>
      </trkpt>
      <trkpt lat="49.2961" lon="-0.29822">
        <ele>5.5</ele>
        <time>2023-07-05T13:36:03Z</time>
      </trkpt>
      <trkpt lat="49.29613" lon="-0.29833">
        <ele>5.4</ele>
        <time>2023-07-05T13:36:04Z</time>
      </trkpt>
      <trkpt lat="49.29616" lon="-0.29842">
        <ele>5.4</ele>
        <time>2023-07-05T13:36:05Z</time>
      </trkpt>
      <trkpt lat="49.29618" lon="-0.29853">
        <ele>5.4</ele>
        <time>2023-07-05T13:36:06Z</time>
      </trkpt>
      <trkpt lat="49.29621" lon="-0.29864">
        <ele>5.4</ele>
        <time>2023-07-05T13:36:07Z</time>
      </trkpt>
      <trkpt lat="49.29624" lon="-0.29876">
        <ele>5.4</ele>
        <time>2023-07-05T13:36:08Z</time>
      </trkpt>
      <trkpt lat="49.29626" lon="-0.29887">
        <ele>5.4</ele>
        <time>2023-07-05T13:36:09Z</time>
      </trkpt>
      <trkpt lat="49.29628" lon="-0.29898">
        <ele>5.4</ele>
        <time>2023-07-05T13:36:10Z</time>
      </trkpt>
      <trkpt lat="49.2963" lon="-0.29908">
        <ele>5.4</ele>
        <time>2023-07-05T13:36:11Z</time>
      </trkpt>
      <trkpt lat="49.29632" lon="-0.2992">
        <ele>5.4</ele>
        <time>2023-07-05T13:36:12Z</time>
      </trkpt>
      <trkpt lat="49.29633" lon="-0.2993">
        <ele>5.3</ele>
        <time>2023-07-05T13:36:13Z</time>
      </trkpt>
      <trkpt lat="49.29634" lon="-0.29942">
        <ele>5.3</ele>
        <time>2023-07-05T13:36:14Z</time>
      </trkpt>
      <trkpt lat="49.29636" lon="-0.29953">
        <ele>5.3</ele>
        <time>2023-07-05T13:36:15Z</time>
      </trkpt>
      <trkpt lat="49.29637" lon="-0.29964">
        <ele>5.2</ele>
        <time>2023-07-05T13:36:16Z</time>
      </trkpt>
      <trkpt lat="49.29638" lon="-0.29974">
        <ele>5.2</ele>
        <time>2023-07-05T13:36:17Z</time>
      </trkpt>
      <trkpt lat="49.2964" lon="-0.29985">
        <ele>5.1</ele>
        <time>2023-07-05T13:36:18Z</time>
      </trkpt>
      <trkpt lat="49.29641" lon="-0.29995">
        <ele>5.1</ele>
        <time>2023-07-05T13:36:19Z</time>
      </trkpt>
      <trkpt lat="49.29642" lon="-0.30006">
        <ele>5</ele>
        <time>2023-07-05T13:36:20Z</time>
      </trkpt>
      <trkpt lat="49.29644" lon="-0.30017">
        <ele>5</ele>
        <time>2023-07-05T13:36:21Z</time>
      </trkpt>
      <trkpt lat="49.29645" lon="-0.30029">
        <ele>4.9</ele>
        <time>2023-07-05T13:36:22Z</time>
      </trkpt>
      <trkpt lat="49.29646" lon="-0.3004">
        <ele>4.9</ele>
        <time>2023-07-05T13:36:23Z</time>
      </trkpt>
      <trkpt lat="49.29647" lon="-0.30051">
        <ele>4.9</ele>
        <time>2023-07-05T13:36:24Z</time>
      </trkpt>
      <trkpt lat="49.29647" lon="-0.30064">
        <ele>4.8</ele>
        <time>2023-07-05T13:36:25Z</time>
      </trkpt>
      <trkpt lat="49.29649" lon="-0.30075">
        <ele>4.8</ele>
        <time>2023-07-05T13:36:26Z</time>
      </trkpt>
      <trkpt lat="49.2965" lon="-0.30086">
        <ele>4.8</ele>
        <time>2023-07-05T13:36:27Z</time>
      </trkpt>
      <trkpt lat="49.29652" lon="-0.30097">
        <ele>4.8</ele>
        <time>2023-07-05T13:36:28Z</time>
      </trkpt>
      <trkpt lat="49.29653" lon="-0.30109">
        <ele>4.8</ele>
        <time>2023-07-05T13:36:29Z</time>
      </trkpt>
      <trkpt lat="49.29654" lon="-0.30121">
        <ele>4.7</ele>
        <time>2023-07-05T13:36:30Z</time>
      </trkpt>
      <trkpt lat="49.29656" lon="-0.30132">
        <ele>4.7</ele>
        <time>2023-07-05T13:36:31Z</time>
      </trkpt>
      <trkpt lat="49.29658" lon="-0.30144">
        <ele>4.7</ele>
        <time>2023-07-05T13:36:32Z</time>
      </trkpt>
      <trkpt lat="49.2966" lon="-0.30156">
        <ele>4.7</ele>
        <time>2023-07-05T13:36:33Z</time>
      </trkpt>
      <trkpt lat="49.29662" lon="-0.30167">
        <ele>4.7</ele>
        <time>2023-07-05T13:36:34Z</time>
      </trkpt>
      <trkpt lat="49.29665" lon="-0.30179">
        <ele>4.7</ele>
        <time>2023-07-05T13:36:35Z</time>
      </trkpt>
      <trkpt lat="49.29668" lon="-0.3019">
        <ele>4.7</ele>
        <time>2023-07-05T13:36:36Z</time>
      </trkpt>
      <trkpt lat="49.29671" lon="-0.30201">
        <ele>4.8</ele>
        <time>2023-07-05T13:36:37Z</time>
      </trkpt>
      <trkpt lat="49.29674" lon="-0.30211">
        <ele>4.8</ele>
        <time>2023-07-05T13:36:38Z</time>
      </trkpt>
      <trkpt lat="49.29676" lon="-0.30221">
        <ele>4.8</ele>
        <time>2023-07-05T13:36:39Z</time>
      </trkpt>
      <trkpt lat="49.29679" lon="-0.3023">
        <ele>4.8</ele>
        <time>2023-07-05T13:36:40Z</time>
      </trkpt>
      <trkpt lat="49.29683" lon="-0.30238">
        <ele>4.9</ele>
        <time>2023-07-05T13:36:41Z</time>
      </trkpt>
      <trkpt lat="49.29686" lon="-0.30247">
        <ele>4.9</ele>
        <time>2023-07-05T13:36:42Z</time>
      </trkpt>
      <trkpt lat="49.29688" lon="-0.30255">
        <ele>5</ele>
        <time>2023-07-05T13:36:43Z</time>
      </trkpt>
      <trkpt lat="49.29691" lon="-0.30262">
        <ele>5</ele>
        <time>2023-07-05T13:36:44Z</time>
      </trkpt>
      <trkpt lat="49.29693" lon="-0.3027">
        <ele>5.1</ele>
        <time>2023-07-05T13:36:45Z</time>
      </trkpt>
      <trkpt lat="49.29695" lon="-0.30277">
        <ele>5.1</ele>
        <time>2023-07-05T13:36:46Z</time>
      </trkpt>
      <trkpt lat="49.29697" lon="-0.30285">
        <ele>5.2</ele>
        <time>2023-07-05T13:36:47Z</time>
      </trkpt>
      <trkpt lat="49.297" lon="-0.30292">
        <ele>5.2</ele>
        <time>2023-07-05T13:36:48Z</time>
      </trkpt>
      <trkpt lat="49.29703" lon="-0.303">
        <ele>5.2</ele>
        <time>2023-07-05T13:36:49Z</time>
      </trkpt>
      <trkpt lat="49.29705" lon="-0.30307">
        <ele>5.2</ele>
        <time>2023-07-05T13:36:50Z</time>
      </trkpt>
      <trkpt lat="49.29708" lon="-0.30316">
        <ele>5.3</ele>
        <time>2023-07-05T13:36:51Z</time>
      </trkpt>
      <trkpt lat="49.2971" lon="-0.30324">
        <ele>5.3</ele>
        <time>2023-07-05T13:36:52Z</time>
      </trkpt>
      <trkpt lat="49.29713" lon="-0.30333">
        <ele>5.3</ele>
        <time>2023-07-05T13:36:53Z</time>
      </trkpt>
      <trkpt lat="49.29716" lon="-0.30342">
        <ele>5.2</ele>
        <time>2023-07-05T13:36:54Z</time>
      </trkpt>
      <trkpt lat="49.29719" lon="-0.30352">
        <ele>5.2</ele>
        <time>2023-07-05T13:36:55Z</time>
      </trkpt>
      <trkpt lat="49.29722" lon="-0.30361">
        <ele>5.2</ele>
        <time>2023-07-05T13:36:56Z</time>
      </trkpt>
      <trkpt lat="49.29725" lon="-0.30371">
        <ele>5.2</ele>
        <time>2023-07-05T13:36:57Z</time>
      </trkpt>
      <trkpt lat="49.29729" lon="-0.30379">
        <ele>5.1</ele>
        <time>2023-07-05T13:36:58Z</time>
      </trkpt>
      <trkpt lat="49.29733" lon="-0.30388">
        <ele>5.1</ele>
        <time>2023-07-05T13:36:59Z</time>
      </trkpt>
      <trkpt lat="49.29736" lon="-0.30397">
        <ele>5</ele>
        <time>2023-07-05T13:37:00Z</time>
      </trkpt>
      <trkpt lat="49.2974" lon="-0.30407">
        <ele>5</ele>
        <time>2023-07-05T13:37:01Z</time>
      </trkpt>
      <trkpt lat="49.29744" lon="-0.30416">
        <ele>5</ele>
        <time>2023-07-05T13:37:02Z</time>
      </trkpt>
      <trkpt lat="49.29749" lon="-0.30426">
        <ele>4.9</ele>
        <time>2023-07-05T13:37:03Z</time>
      </trkpt>
      <trkpt lat="49.29753" lon="-0.30436">
        <ele>4.9</ele>
        <time>2023-07-05T13:37:04Z</time>
      </trkpt>
      <trkpt lat="49.29758" lon="-0.30446">
        <ele>4.9</ele>
        <time>2023-07-05T13:37:05Z</time>
      </trkpt>
      <trkpt lat="49.29761" lon="-0.30456">
        <ele>4.8</ele>
        <time>2023-07-05T13:37:06Z</time>
      </trkpt>
      <trkpt lat="49.29765" lon="-0.30466">
        <ele>4.8</ele>
        <time>2023-07-05T13:37:07Z</time>
      </trkpt>
      <trkpt lat="49.29768" lon="-0.30478">
        <ele>4.8</ele>
        <time>2023-07-05T13:37:08Z</time>
      </trkpt>
      <trkpt lat="49.29771" lon="-0.30489">
        <ele>4.7</ele>
        <time>2023-07-05T13:37:09Z</time>
      </trkpt>
      <trkpt lat="49.29774" lon="-0.305">
        <ele>4.7</ele>
        <time>2023-07-05T13:37:10Z</time>
      </trkpt>
      <trkpt lat="49.29776" lon="-0.30511">
        <ele>4.6</ele>
        <time>2023-07-05T13:37:11Z</time>
      </trkpt>
      <trkpt lat="49.29779" lon="-0.30521">
        <ele>4.6</ele>
        <time>2023-07-05T13:37:12Z</time>
      </trkpt>
      <trkpt lat="49.29782" lon="-0.30532">
        <ele>4.5</ele>
        <time>2023-07-05T13:37:13Z</time>
      </trkpt>
      <trkpt lat="49.29785" lon="-0.30543">
        <ele>4.5</ele>
        <time>2023-07-05T13:37:14Z</time>
      </trkpt>
      <trkpt lat="49.29787" lon="-0.30554">
        <ele>4.4</ele>
        <time>2023-07-05T13:37:15Z</time>
      </trkpt>
      <trkpt lat="49.2979" lon="-0.30564">
        <ele>4.4</ele>
        <time>2023-07-05T13:37:16Z</time>
      </trkpt>
      <trkpt lat="49.29792" lon="-0.30576">
        <ele>4.4</ele>
        <time>2023-07-05T13:37:17Z</time>
      </trkpt>
      <trkpt lat="49.29795" lon="-0.30587">
        <ele>4.3</ele>
        <time>2023-07-05T13:37:18Z</time>
      </trkpt>
      <trkpt lat="49.29797" lon="-0.30597">
        <ele>4.3</ele>
        <time>2023-07-05T13:37:19Z</time>
      </trkpt>
      <trkpt lat="49.29799" lon="-0.30608">
        <ele>4.3</ele>
        <time>2023-07-05T13:37:20Z</time>
      </trkpt>
      <trkpt lat="49.29801" lon="-0.30619">
        <ele>4.2</ele>
        <time>2023-07-05T13:37:21Z</time>
      </trkpt>
      <trkpt lat="49.29803" lon="-0.30631">
        <ele>4.2</ele>
        <time>2023-07-05T13:37:22Z</time>
      </trkpt>
      <trkpt lat="49.29805" lon="-0.30643">
        <ele>4.2</ele>
        <time>2023-07-05T13:37:23Z</time>
      </trkpt>
      <trkpt lat="49.29807" lon="-0.30654">
        <ele>4.2</ele>
        <time>2023-07-05T13:37:24Z</time>
      </trkpt>
      <trkpt lat="49.29808" lon="-0.30666">
        <ele>4.1</ele>
        <time>2023-07-05T13:37:25Z</time>
      </trkpt>
      <trkpt lat="49.2981" lon="-0.30677">
        <ele>4.1</ele>
        <time>2023-07-05T13:37:26Z</time>
      </trkpt>
      <trkpt lat="49.29811" lon="-0.30688">
        <ele>4.1</ele>
        <time>2023-07-05T13:37:27Z</time>
      </trkpt>
      <trkpt lat="49.29813" lon="-0.30699">
        <ele>4.1</ele>
        <time>2023-07-05T13:37:28Z</time>
      </trkpt>
      <trkpt lat="49.29815" lon="-0.30709">
        <ele>4.1</ele>
        <time>2023-07-05T13:37:29Z</time>
      </trkpt>
      <trkpt lat="49.29816" lon="-0.3072">
        <ele>4.1</ele>
        <time>2023-07-05T13:37:30Z</time>
      </trkpt>
      <trkpt lat="49.29818" lon="-0.30731">
        <ele>4.2</ele>
        <time>2023-07-05T13:37:31Z</time>
      </trkpt>
      <trkpt lat="49.2982" lon="-0.30742">
        <ele>4.2</ele>
        <time>2023-07-05T13:37:32Z</time>
      </trkpt>
      <trkpt lat="49.29821" lon="-0.30754">
        <ele>4.2</ele>
        <time>2023-07-05T13:37:33Z</time>
      </trkpt>
      <trkpt lat="49.29823" lon="-0.30765">
        <ele>4.2</ele>
        <time>2023-07-05T13:37:34Z</time>
      </trkpt>
      <trkpt lat="49.29824" lon="-0.30777">
        <ele>4.2</ele>
        <time>2023-07-05T13:37:35Z</time>
      </trkpt>
      <trkpt lat="49.29826" lon="-0.30789">
        <ele>4.2</ele>
        <time>2023-07-05T13:37:36Z</time>
      </trkpt>
      <trkpt lat="49.29827" lon="-0.30801">
        <ele>4.3</ele>
        <time>2023-07-05T13:37:37Z</time>
      </trkpt>
      <trkpt lat="49.29828" lon="-0.30813">
        <ele>4.3</ele>
        <time>2023-07-05T13:37:38Z</time>
      </trkpt>
      <trkpt lat="49.2983" lon="-0.30825">
        <ele>4.4</ele>
        <time>2023-07-05T13:37:39Z</time>
      </trkpt>
      <trkpt lat="49.29831" lon="-0.30837">
        <ele>4.4</ele>
        <time>2023-07-05T13:37:40Z</time>
      </trkpt>
      <trkpt lat="49.29833" lon="-0.30849">
        <ele>4.5</ele>
        <time>2023-07-05T13:37:41Z</time>
      </trkpt>
      <trkpt lat="49.29835" lon="-0.30861">
        <ele>4.5</ele>
        <time>2023-07-05T13:37:42Z</time>
      </trkpt>
      <trkpt lat="49.29836" lon="-0.30873">
        <ele>4.6</ele>
        <time>2023-07-05T13:37:43Z</time>
      </trkpt>
      <trkpt lat="49.29838" lon="-0.30885">
        <ele>4.7</ele>
        <time>2023-07-05T13:37:44Z</time>
      </trkpt>
      <trkpt lat="49.2984" lon="-0.30896">
        <ele>4.7</ele>
        <time>2023-07-05T13:37:45Z</time>
      </trkpt>
      <trkpt lat="49.29842" lon="-0.30907">
        <ele>4.8</ele>
        <time>2023-07-05T13:37:46Z</time>
      </trkpt>
      <trkpt lat="49.29844" lon="-0.30918">
        <ele>4.9</ele>
        <time>2023-07-05T13:37:47Z</time>
      </trkpt>
      <trkpt lat="49.29845" lon="-0.3093">
        <ele>4.9</ele>
        <time>2023-07-05T13:37:48Z</time>
      </trkpt>
      <trkpt lat="49.29847" lon="-0.30941">
        <ele>5</ele>
        <time>2023-07-05T13:37:49Z</time>
      </trkpt>
      <trkpt lat="49.29849" lon="-0.30951">
        <ele>5</ele>
        <time>2023-07-05T13:37:50Z</time>
      </trkpt>
      <trkpt lat="49.29851" lon="-0.30962">
        <ele>5.1</ele>
        <time>2023-07-05T13:37:51Z</time>
      </trkpt>
      <trkpt lat="49.29853" lon="-0.30973">
        <ele>5.2</ele>
        <time>2023-07-05T13:37:52Z</time>
      </trkpt>
      <trkpt lat="49.29854" lon="-0.30984">
        <ele>5.3</ele>
        <time>2023-07-05T13:37:53Z</time>
      </trkpt>
      <trkpt lat="49.29856" lon="-0.30995">
        <ele>5.3</ele>
        <time>2023-07-05T13:37:54Z</time>
      </trkpt>
      <trkpt lat="49.29858" lon="-0.31005">
        <ele>5.4</ele>
        <time>2023-07-05T13:37:55Z</time>
      </trkpt>
      <trkpt lat="49.29859" lon="-0.31015">
        <ele>5.5</ele>
        <time>2023-07-05T13:37:56Z</time>
      </trkpt>
      <trkpt lat="49.29861" lon="-0.31024">
        <ele>5.6</ele>
        <time>2023-07-05T13:37:57Z</time>
      </trkpt>
      <trkpt lat="49.29862" lon="-0.31033">
        <ele>5.7</ele>
        <time>2023-07-05T13:37:58Z</time>
      </trkpt>
      <trkpt lat="49.29863" lon="-0.31043">
        <ele>5.8</ele>
        <time>2023-07-05T13:37:59Z</time>
      </trkpt>
      <trkpt lat="49.29864" lon="-0.31053">
        <ele>5.9</ele>
        <time>2023-07-05T13:38:00Z</time>
      </trkpt>
      <trkpt lat="49.29865" lon="-0.31062">
        <ele>6</ele>
        <time>2023-07-05T13:38:01Z</time>
      </trkpt>
      <trkpt lat="49.29866" lon="-0.31071">
        <ele>6</ele>
        <time>2023-07-05T13:38:02Z</time>
      </trkpt>
      <trkpt lat="49.29867" lon="-0.3108">
        <ele>6.1</ele>
        <time>2023-07-05T13:38:03Z</time>
      </trkpt>
      <trkpt lat="49.29869" lon="-0.31089">
        <ele>6.2</ele>
        <time>2023-07-05T13:38:04Z</time>
      </trkpt>
      <trkpt lat="49.2987" lon="-0.31098">
        <ele>6.3</ele>
        <time>2023-07-05T13:38:05Z</time>
      </trkpt>
      <trkpt lat="49.29872" lon="-0.31108">
        <ele>6.4</ele>
        <time>2023-07-05T13:38:06Z</time>
      </trkpt>
      <trkpt lat="49.29873" lon="-0.31117">
        <ele>6.5</ele>
        <time>2023-07-05T13:38:07Z</time>
      </trkpt>
      <trkpt lat="49.29874" lon="-0.31127">
        <ele>6.6</ele>
        <time>2023-07-05T13:38:08Z</time>
      </trkpt>
      <trkpt lat="49.29875" lon="-0.31136">
        <ele>6.7</ele>
        <time>2023-07-05T13:38:09Z</time>
      </trkpt>
      <trkpt lat="49.29876" lon="-0.31145">
        <ele>6.8</ele>
        <time>2023-07-05T13:38:10Z</time>
      </trkpt>
      <trkpt lat="49.29877" lon="-0.31155">
        <ele>6.9</ele>
        <time>2023-07-05T13:38:11Z</time>
      </trkpt>
      <trkpt lat="49.29878" lon="-0.31164">
        <ele>7</ele>
        <time>2023-07-05T13:38:12Z</time>
      </trkpt>
      <trkpt lat="49.2988" lon="-0.31175">
        <ele>7.1</ele>
        <time>2023-07-05T13:38:13Z</time>
      </trkpt>
      <trkpt lat="49.29882" lon="-0.31185">
        <ele>7.2</ele>
        <time>2023-07-05T13:38:14Z</time>
      </trkpt>
      <trkpt lat="49.29883" lon="-0.31195">
        <ele>7.3</ele>
        <time>2023-07-05T13:38:15Z</time>
      </trkpt>
      <trkpt lat="49.29884" lon="-0.31204">
        <ele>7.4</ele>
        <time>2023-07-05T13:38:16Z</time>
      </trkpt>
      <trkpt lat="49.29886" lon="-0.31214">
        <ele>7.5</ele>
        <time>2023-07-05T13:38:17Z</time>
      </trkpt>
      <trkpt lat="49.29888" lon="-0.31224">
        <ele>7.6</ele>
        <time>2023-07-05T13:38:18Z</time>
      </trkpt>
      <trkpt lat="49.2989" lon="-0.31234">
        <ele>7.6</ele>
        <time>2023-07-05T13:38:19Z</time>
      </trkpt>
      <trkpt lat="49.29892" lon="-0.31244">
        <ele>7.7</ele>
        <time>2023-07-05T13:38:20Z</time>
      </trkpt>
      <trkpt lat="49.29893" lon="-0.31254">
        <ele>7.8</ele>
        <time>2023-07-05T13:38:21Z</time>
      </trkpt>
      <trkpt lat="49.29895" lon="-0.31264">
        <ele>7.8</ele>
        <time>2023-07-05T13:38:22Z</time>
      </trkpt>
      <trkpt lat="49.29896" lon="-0.31274">
        <ele>7.9</ele>
        <time>2023-07-05T13:38:23Z</time>
      </trkpt>
      <trkpt lat="49.29898" lon="-0.31284">
        <ele>8</ele>
        <time>2023-07-05T13:38:24Z</time>
      </trkpt>
      <trkpt lat="49.299" lon="-0.31295">
        <ele>8</ele>
        <time>2023-07-05T13:38:25Z</time>
      </trkpt>
      <trkpt lat="49.29901" lon="-0.31305">
        <ele>8</ele>
        <time>2023-07-05T13:38:26Z</time>
      </trkpt>
      <trkpt lat="49.29903" lon="-0.31315">
        <ele>8</ele>
        <time>2023-07-05T13:38:27Z</time>
      </trkpt>
      <trkpt lat="49.29905" lon="-0.31326">
        <ele>8</ele>
        <time>2023-07-05T13:38:28Z</time>
      </trkpt>
      <trkpt lat="49.29906" lon="-0.31336">
        <ele>8</ele>
        <time>2023-07-05T13:38:29Z</time>
      </trkpt>
      <trkpt lat="49.29908" lon="-0.31347">
        <ele>8</ele>
        <time>2023-07-05T13:38:30Z</time>
      </trkpt>
      <trkpt lat="49.29909" lon="-0.31358">
        <ele>8</ele>
        <time>2023-07-05T13:38:31Z</time>
      </trkpt>
      <trkpt lat="49.2991" lon="-0.31368">
        <ele>8</ele>
        <time>2023-07-05T13:38:32Z</time>
      </trkpt>
      <trkpt lat="49.29911" lon="-0.31379">
        <ele>7.9</ele>
        <time>2023-07-05T13:38:33Z</time>
      </trkpt>
      <trkpt lat="49.29912" lon="-0.31389">
        <ele>7.9</ele>
        <time>2023-07-05T13:38:34Z</time>
      </trkpt>
      <trkpt lat="49.29914" lon="-0.31399">
        <ele>7.9</ele>
        <time>2023-07-05T13:38:35Z</time>
      </trkpt>
      <trkpt lat="49.29916" lon="-0.31409">
        <ele>7.8</ele>
        <time>2023-07-05T13:38:36Z</time>
      </trkpt>
      <trkpt lat="49.29918" lon="-0.31418">
        <ele>7.8</ele>
        <time>2023-07-05T13:38:37Z</time>
      </trkpt>
      <trkpt lat="49.29921" lon="-0.31427">
        <ele>7.7</ele>
        <time>2023-07-05T13:38:38Z</time>
      </trkpt>
      <trkpt lat="49.29924" lon="-0.31436">
        <ele>7.6</ele>
        <time>2023-07-05T13:38:39Z</time>
      </trkpt>
      <trkpt lat="49.29928" lon="-0.31445">
        <ele>7.6</ele>
        <time>2023-07-05T13:38:40Z</time>
      </trkpt>
      <trkpt lat="49.29931" lon="-0.31453">
        <ele>7.5</ele>
        <time>2023-07-05T13:38:41Z</time>
      </trkpt>
      <trkpt lat="49.29935" lon="-0.31462">
        <ele>7.4</ele>
        <time>2023-07-05T13:38:42Z</time>
      </trkpt>
      <trkpt lat="49.2994" lon="-0.31471">
        <ele>7.3</ele>
        <time>2023-07-05T13:38:43Z</time>
      </trkpt>
      <trkpt lat="49.29944" lon="-0.31479">
        <ele>7.3</ele>
        <time>2023-07-05T13:38:44Z</time>
      </trkpt>
      <trkpt lat="49.29948" lon="-0.31487">
        <ele>7.2</ele>
        <time>2023-07-05T13:38:45Z</time>
      </trkpt>
      <trkpt lat="49.29952" lon="-0.31495">
        <ele>7.1</ele>
        <time>2023-07-05T13:38:46Z</time>
      </trkpt>
      <trkpt lat="49.29957" lon="-0.31502">
        <ele>7.1</ele>
        <time>2023-07-05T13:38:47Z</time>
      </trkpt>
      <trkpt lat="49.29962" lon="-0.31508">
        <ele>7</ele>
        <time>2023-07-05T13:38:48Z</time>
      </trkpt>
      <trkpt lat="49.29966" lon="-0.31515">
        <ele>6.9</ele>
        <time>2023-07-05T13:38:49Z</time>
      </trkpt>
      <trkpt lat="49.29971" lon="-0.31522">
        <ele>6.9</ele>
        <time>2023-07-05T13:38:50Z</time>
      </trkpt>
      <trkpt lat="49.29976" lon="-0.31529">
        <ele>6.8</ele>
        <time>2023-07-05T13:38:51Z</time>
      </trkpt>
      <trkpt lat="49.2998" lon="-0.31536">
        <ele>6.7</ele>
        <time>2023-07-05T13:38:52Z</time>
      </trkpt>
      <trkpt lat="49.29985" lon="-0.31542">
        <ele>6.7</ele>
        <time>2023-07-05T13:38:53Z</time>
      </trkpt>
      <trkpt lat="49.2999" lon="-0.31547">
        <ele>6.6</ele>
        <time>2023-07-05T13:38:54Z</time>
      </trkpt>
      <trkpt lat="49.29994" lon="-0.31552">
        <ele>6.6</ele>
        <time>2023-07-05T13:38:55Z</time>
      </trkpt>
      <trkpt lat="49.29998" lon="-0.31556">
        <ele>6.5</ele>
        <time>2023-07-05T13:38:56Z</time>
      </trkpt>
      <trkpt lat="49.30001" lon="-0.31561">
        <ele>6.5</ele>
        <time>2023-07-05T13:38:57Z</time>
      </trkpt>
      <trkpt lat="49.30005" lon="-0.31566">
        <ele>6.4</ele>
        <time>2023-07-05T13:38:58Z</time>
      </trkpt>
      <trkpt lat="49.30009" lon="-0.31572">
        <ele>6.4</ele>
        <time>2023-07-05T13:38:59Z</time>
      </trkpt>
      <trkpt lat="49.30013" lon="-0.31578">
        <ele>6.3</ele>
        <time>2023-07-05T13:39:00Z</time>
      </trkpt>
      <trkpt lat="49.30017" lon="-0.31584">
        <ele>6.3</ele>
        <time>2023-07-05T13:39:01Z</time>
      </trkpt>
      <trkpt lat="49.30021" lon="-0.3159">
        <ele>6.2</ele>
        <time>2023-07-05T13:39:02Z</time>
      </trkpt>
      <trkpt lat="49.30025" lon="-0.31596">
        <ele>6.2</ele>
        <time>2023-07-05T13:39:03Z</time>
      </trkpt>
      <trkpt lat="49.30029" lon="-0.31602">
        <ele>6.2</ele>
        <time>2023-07-05T13:39:04Z</time>
      </trkpt>
      <trkpt lat="49.30034" lon="-0.31608">
        <ele>6.2</ele>
        <time>2023-07-05T13:39:05Z</time>
      </trkpt>
      <trkpt lat="49.30038" lon="-0.31614">
        <ele>6.2</ele>
        <time>2023-07-05T13:39:06Z</time>
      </trkpt>
      <trkpt lat="49.30041" lon="-0.3162">
        <ele>6.2</ele>
        <time>2023-07-05T13:39:07Z</time>
      </trkpt>
      <trkpt lat="49.30045" lon="-0.31625">
        <ele>6.2</ele>
        <time>2023-07-05T13:39:08Z</time>
      </trkpt>
      <trkpt lat="49.30049" lon="-0.3163">
        <ele>6.2</ele>
        <time>2023-07-05T13:39:09Z</time>
      </trkpt>
      <trkpt lat="49.30053" lon="-0.31635">
        <ele>6.2</ele>
        <time>2023-07-05T13:39:10Z</time>
      </trkpt>
      <trkpt lat="49.30056" lon="-0.31639">
        <ele>6.2</ele>
        <time>2023-07-05T13:39:11Z</time>
      </trkpt>
      <trkpt lat="49.30059" lon="-0.31643">
        <ele>6.2</ele>
        <time>2023-07-05T13:39:12Z</time>
      </trkpt>
      <trkpt lat="49.30061" lon="-0.31647">
        <ele>6.2</ele>
        <time>2023-07-05T13:39:13Z</time>
      </trkpt>
      <trkpt lat="49.30064" lon="-0.3165">
        <ele>6.2</ele>
        <time>2023-07-05T13:39:14Z</time>
      </trkpt>
      <trkpt lat="49.30066" lon="-0.31654">
        <ele>6.3</ele>
        <time>2023-07-05T13:39:15Z</time>
      </trkpt>
      <trkpt lat="49.30069" lon="-0.31657">
        <ele>6.3</ele>
        <time>2023-07-05T13:39:16Z</time>
      </trkpt>
      <trkpt lat="49.30071" lon="-0.3166">
        <ele>6.3</ele>
        <time>2023-07-05T13:39:17Z</time>
      </trkpt>
      <trkpt lat="49.30073" lon="-0.31663">
        <ele>6.3</ele>
        <time>2023-07-05T13:39:18Z</time>
      </trkpt>
      <trkpt lat="49.30076" lon="-0.31667">
        <ele>6.4</ele>
        <time>2023-07-05T13:39:19Z</time>
      </trkpt>
      <trkpt lat="49.30078" lon="-0.3167">
        <ele>6.4</ele>
        <time>2023-07-05T13:39:20Z</time>
      </trkpt>
      <trkpt lat="49.30081" lon="-0.31674">
        <ele>6.4</ele>
        <time>2023-07-05T13:39:21Z</time>
      </trkpt>
      <trkpt lat="49.30084" lon="-0.31678">
        <ele>6.5</ele>
        <time>2023-07-05T13:39:22Z</time>
      </trkpt>
      <trkpt lat="49.30087" lon="-0.31682">
        <ele>6.5</ele>
        <time>2023-07-05T13:39:23Z</time>
      </trkpt>
      <trkpt lat="49.3009" lon="-0.31687">
        <ele>6.5</ele>
        <time>2023-07-05T13:39:24Z</time>
      </trkpt>
      <trkpt lat="49.30094" lon="-0.31692">
        <ele>6.5</ele>
        <time>2023-07-05T13:39:25Z</time>
      </trkpt>
      <trkpt lat="49.30098" lon="-0.31698">
        <ele>6.6</ele>
        <time>2023-07-05T13:39:26Z</time>
      </trkpt>
      <trkpt lat="49.30103" lon="-0.31706">
        <ele>6.6</ele>
        <time>2023-07-05T13:39:27Z</time>
      </trkpt>
      <trkpt lat="49.30107" lon="-0.31712">
        <ele>6.7</ele>
        <time>2023-07-05T13:39:28Z</time>
      </trkpt>
      <trkpt lat="49.30112" lon="-0.3172">
        <ele>6.8</ele>
        <time>2023-07-05T13:39:29Z</time>
      </trkpt>
      <trkpt lat="49.30117" lon="-0.31727">
        <ele>6.8</ele>
        <time>2023-07-05T13:39:30Z</time>
      </trkpt>
      <trkpt lat="49.30122" lon="-0.31734">
        <ele>6.9</ele>
        <time>2023-07-05T13:39:31Z</time>
      </trkpt>
      <trkpt lat="49.30127" lon="-0.31741">
        <ele>7</ele>
        <time>2023-07-05T13:39:32Z</time>
      </trkpt>
      <trkpt lat="49.30132" lon="-0.31748">
        <ele>7.1</ele>
        <time>2023-07-05T13:39:33Z</time>
      </trkpt>
      <trkpt lat="49.30137" lon="-0.31755">
        <ele>7.2</ele>
        <time>2023-07-05T13:39:34Z</time>
      </trkpt>
      <trkpt lat="49.30142" lon="-0.31763">
        <ele>7.2</ele>
        <time>2023-07-05T13:39:35Z</time>
      </trkpt>
      <trkpt lat="49.30147" lon="-0.3177">
        <ele>7.3</ele>
        <time>2023-07-05T13:39:36Z</time>
      </trkpt>
      <trkpt lat="49.30151" lon="-0.31777">
        <ele>7.4</ele>
        <time>2023-07-05T13:39:37Z</time>
      </trkpt>
      <trkpt lat="49.30156" lon="-0.31784">
        <ele>7.5</ele>
        <time>2023-07-05T13:39:38Z</time>
      </trkpt>
      <trkpt lat="49.3016" lon="-0.31791">
        <ele>7.6</ele>
        <time>2023-07-05T13:39:39Z</time>
      </trkpt>
      <trkpt lat="49.30165" lon="-0.31797">
        <ele>7.7</ele>
        <time>2023-07-05T13:39:40Z</time>
      </trkpt>
      <trkpt lat="49.30169" lon="-0.31803">
        <ele>7.8</ele>
        <time>2023-07-05T13:39:41Z</time>
      </trkpt>
      <trkpt lat="49.30174" lon="-0.31808">
        <ele>7.9</ele>
        <time>2023-07-05T13:39:42Z</time>
      </trkpt>
      <trkpt lat="49.30178" lon="-0.31813">
        <ele>8</ele>
        <time>2023-07-05T13:39:43Z</time>
      </trkpt>
      <trkpt lat="49.30183" lon="-0.31818">
        <ele>8.1</ele>
        <time>2023-07-05T13:39:44Z</time>
      </trkpt>
      <trkpt lat="49.30187" lon="-0.31824">
        <ele>8.2</ele>
        <time>2023-07-05T13:39:45Z</time>
      </trkpt>
      <trkpt lat="49.30191" lon="-0.3183">
        <ele>8.4</ele>
        <time>2023-07-05T13:39:46Z</time>
      </trkpt>
      <trkpt lat="49.30195" lon="-0.31836">
        <ele>8.5</ele>
        <time>2023-07-05T13:39:47Z</time>
      </trkpt>
      <trkpt lat="49.302" lon="-0.31843">
        <ele>8.6</ele>
        <time>2023-07-05T13:39:48Z</time>
      </trkpt>
      <trkpt lat="49.30204" lon="-0.3185">
        <ele>8.7</ele>
        <time>2023-07-05T13:39:49Z</time>
      </trkpt>
      <trkpt lat="49.30208" lon="-0.31857">
        <ele>8.7</ele>
        <time>2023-07-05T13:39:50Z</time>
      </trkpt>
      <trkpt lat="49.30213" lon="-0.31864">
        <ele>8.8</ele>
        <time>2023-07-05T13:39:51Z</time>
      </trkpt>
      <trkpt lat="49.30218" lon="-0.31871">
        <ele>8.9</ele>
        <time>2023-07-05T13:39:52Z</time>
      </trkpt>
      <trkpt lat="49.30223" lon="-0.31878">
        <ele>9</ele>
        <time>2023-07-05T13:39:53Z</time>
      </trkpt>
      <trkpt lat="49.30229" lon="-0.31885">
        <ele>9.1</ele>
        <time>2023-07-05T13:39:54Z</time>
      </trkpt>
      <trkpt lat="49.30233" lon="-0.31891">
        <ele>9.2</ele>
        <time>2023-07-05T13:39:55Z</time>
      </trkpt>
      <trkpt lat="49.30238" lon="-0.31898">
        <ele>9.3</ele>
        <time>2023-07-05T13:39:56Z</time>
      </trkpt>
      <trkpt lat="49.30243" lon="-0.31904">
        <ele>9.4</ele>
        <time>2023-07-05T13:39:57Z</time>
      </trkpt>
      <trkpt lat="49.30248" lon="-0.31911">
        <ele>9.4</ele>
        <time>2023-07-05T13:39:58Z</time>
      </trkpt>
      <trkpt lat="49.30252" lon="-0.31917">
        <ele>9.5</ele>
        <time>2023-07-05T13:39:59Z</time>
      </trkpt>
      <trkpt lat="49.30257" lon="-0.31924">
        <ele>9.6</ele>
        <time>2023-07-05T13:40:00Z</time>
      </trkpt>
      <trkpt lat="49.30262" lon="-0.31931">
        <ele>9.6</ele>
        <time>2023-07-05T13:40:01Z</time>
      </trkpt>
      <trkpt lat="49.30266" lon="-0.31939">
        <ele>9.7</ele>
        <time>2023-07-05T13:40:02Z</time>
      </trkpt>
      <trkpt lat="49.30271" lon="-0.31946">
        <ele>9.8</ele>
        <time>2023-07-05T13:40:03Z</time>
      </trkpt>
      <trkpt lat="49.30276" lon="-0.31953">
        <ele>9.8</ele>
        <time>2023-07-05T13:40:04Z</time>
      </trkpt>
      <trkpt lat="49.30282" lon="-0.31959">
        <ele>9.9</ele>
        <time>2023-07-05T13:40:05Z</time>
      </trkpt>
      <trkpt lat="49.30287" lon="-0.31967">
        <ele>9.9</ele>
        <time>2023-07-05T13:40:06Z</time>
      </trkpt>
      <trkpt lat="49.30292" lon="-0.31974">
        <ele>10</ele>
        <time>2023-07-05T13:40:07Z</time>
      </trkpt>
      <trkpt lat="49.30297" lon="-0.31981">
        <ele>10</ele>
        <time>2023-07-05T13:40:08Z</time>
      </trkpt>
      <trkpt lat="49.30302" lon="-0.31988">
        <ele>10.1</ele>
        <time>2023-07-05T13:40:09Z</time>
      </trkpt>
      <trkpt lat="49.30306" lon="-0.31995">
        <ele>10.1</ele>
        <time>2023-07-05T13:40:10Z</time>
      </trkpt>
      <trkpt lat="49.30311" lon="-0.32002">
        <ele>10.2</ele>
        <time>2023-07-05T13:40:11Z</time>
      </trkpt>
      <trkpt lat="49.30316" lon="-0.32009">
        <ele>10.2</ele>
        <time>2023-07-05T13:40:12Z</time>
      </trkpt>
      <trkpt lat="49.30321" lon="-0.32015">
        <ele>10.3</ele>
        <time>2023-07-05T13:40:13Z</time>
      </trkpt>
      <trkpt lat="49.30326" lon="-0.32022">
        <ele>10.3</ele>
        <time>2023-07-05T13:40:14Z</time>
      </trkpt>
      <trkpt lat="49.3033" lon="-0.32029">
        <ele>10.4</ele>
        <time>2023-07-05T13:40:15Z</time>
      </trkpt>
      <trkpt lat="49.30335" lon="-0.32036">
        <ele>10.4</ele>
        <time>2023-07-05T13:40:16Z</time>
      </trkpt>
      <trkpt lat="49.30339" lon="-0.32044">
        <ele>10.4</ele>
        <time>2023-07-05T13:40:17Z</time>
      </trkpt>
      <trkpt lat="49.30344" lon="-0.32051">
        <ele>10.4</ele>
        <time>2023-07-05T13:40:18Z</time>
      </trkpt>
      <trkpt lat="49.30349" lon="-0.32059">
        <ele>10.4</ele>
        <time>2023-07-05T13:40:19Z</time>
      </trkpt>
      <trkpt lat="49.30354" lon="-0.32066">
        <ele>10.4</ele>
        <time>2023-07-05T13:40:20Z</time>
      </trkpt>
      <trkpt lat="49.30359" lon="-0.32073">
        <ele>10.4</ele>
        <time>2023-07-05T13:40:21Z</time>
      </trkpt>
      <trkpt lat="49.30364" lon="-0.3208">
        <ele>10.4</ele>
        <time>2023-07-05T13:40:22Z</time>
      </trkpt>
      <trkpt lat="49.30369" lon="-0.32086">
        <ele>10.4</ele>
        <time>2023-07-05T13:40:23Z</time>
      </trkpt>
      <trkpt lat="49.30373" lon="-0.32093">
        <ele>10.4</ele>
        <time>2023-07-05T13:40:24Z</time>
      </trkpt>
      <trkpt lat="49.30378" lon="-0.32099">
        <ele>10.4</ele>
        <time>2023-07-05T13:40:25Z</time>
      </trkpt>
      <trkpt lat="49.30383" lon="-0.32106">
        <ele>10.4</ele>
        <time>2023-07-05T13:40:26Z</time>
      </trkpt>
      <trkpt lat="49.30388" lon="-0.32113">
        <ele>10.3</ele>
        <time>2023-07-05T13:40:27Z</time>
      </trkpt>
      <trkpt lat="49.30393" lon="-0.3212">
        <ele>10.3</ele>
        <time>2023-07-05T13:40:28Z</time>
      </trkpt>
      <trkpt lat="49.30397" lon="-0.32127">
        <ele>10.3</ele>
        <time>2023-07-05T13:40:29Z</time>
      </trkpt>
      <trkpt lat="49.30402" lon="-0.32134">
        <ele>10.3</ele>
        <time>2023-07-05T13:40:30Z</time>
      </trkpt>
      <trkpt lat="49.30408" lon="-0.32141">
        <ele>10.3</ele>
        <time>2023-07-05T13:40:31Z</time>
      </trkpt>
      <trkpt lat="49.30413" lon="-0.32148">
        <ele>10.3</ele>
        <time>2023-07-05T13:40:32Z</time>
      </trkpt>
      <trkpt lat="49.30418" lon="-0.32155">
        <ele>10.3</ele>
        <time>2023-07-05T13:40:33Z</time>
      </trkpt>
      <trkpt lat="49.30423" lon="-0.32162">
        <ele>10.2</ele>
        <time>2023-07-05T13:40:34Z</time>
      </trkpt>
      <trkpt lat="49.30428" lon="-0.32169">
        <ele>10.2</ele>
        <time>2023-07-05T13:40:35Z</time>
      </trkpt>
      <trkpt lat="49.30433" lon="-0.32176">
        <ele>10.2</ele>
        <time>2023-07-05T13:40:36Z</time>
      </trkpt>
      <trkpt lat="49.30438" lon="-0.32184">
        <ele>10.1</ele>
        <time>2023-07-05T13:40:37Z</time>
      </trkpt>
      <trkpt lat="49.30443" lon="-0.32192">
        <ele>10.1</ele>
        <time>2023-07-05T13:40:38Z</time>
      </trkpt>
      <trkpt lat="49.30448" lon="-0.32199">
        <ele>10.1</ele>
        <time>2023-07-05T13:40:39Z</time>
      </trkpt>
      <trkpt lat="49.30453" lon="-0.32207">
        <ele>10.1</ele>
        <time>2023-07-05T13:40:40Z</time>
      </trkpt>
      <trkpt lat="49.30458" lon="-0.32214">
        <ele>10</ele>
        <time>2023-07-05T13:40:41Z</time>
      </trkpt>
      <trkpt lat="49.30464" lon="-0.32222">
        <ele>10</ele>
        <time>2023-07-05T13:40:42Z</time>
      </trkpt>
      <trkpt lat="49.30469" lon="-0.32229">
        <ele>9.9</ele>
        <time>2023-07-05T13:40:43Z</time>
      </trkpt>
      <trkpt lat="49.30474" lon="-0.32237">
        <ele>9.9</ele>
        <time>2023-07-05T13:40:44Z</time>
      </trkpt>
      <trkpt lat="49.30479" lon="-0.32244">
        <ele>9.8</ele>
        <time>2023-07-05T13:40:45Z</time>
      </trkpt>
      <trkpt lat="49.30483" lon="-0.3225">
        <ele>9.8</ele>
        <time>2023-07-05T13:40:46Z</time>
      </trkpt>
      <trkpt lat="49.30488" lon="-0.32257">
        <ele>9.7</ele>
        <time>2023-07-05T13:40:47Z</time>
      </trkpt>
      <trkpt lat="49.30493" lon="-0.32264">
        <ele>9.7</ele>
        <time>2023-07-05T13:40:48Z</time>
      </trkpt>
      <trkpt lat="49.30498" lon="-0.32271">
        <ele>9.6</ele>
        <time>2023-07-05T13:40:49Z</time>
      </trkpt>
      <trkpt lat="49.30503" lon="-0.32278">
        <ele>9.5</ele>
        <time>2023-07-05T13:40:50Z</time>
      </trkpt>
      <trkpt lat="49.30508" lon="-0.32286">
        <ele>9.5</ele>
        <time>2023-07-05T13:40:51Z</time>
      </trkpt>
      <trkpt lat="49.30513" lon="-0.32293">
        <ele>9.4</ele>
        <time>2023-07-05T13:40:52Z</time>
      </trkpt>
      <trkpt lat="49.30518" lon="-0.323">
        <ele>9.3</ele>
        <time>2023-07-05T13:40:53Z</time>
      </trkpt>
      <trkpt lat="49.30523" lon="-0.32307">
        <ele>9.3</ele>
        <time>2023-07-05T13:40:54Z</time>
      </trkpt>
      <trkpt lat="49.30528" lon="-0.32314">
        <ele>9.2</ele>
        <time>2023-07-05T13:40:55Z</time>
      </trkpt>
      <trkpt lat="49.30532" lon="-0.32321">
        <ele>9.1</ele>
        <time>2023-07-05T13:40:56Z</time>
      </trkpt>
      <trkpt lat="49.30537" lon="-0.32328">
        <ele>9.1</ele>
        <time>2023-07-05T13:40:57Z</time>
      </trkpt>
      <trkpt lat="49.30541" lon="-0.32335">
        <ele>9</ele>
        <time>2023-07-05T13:40:58Z</time>
      </trkpt>
      <trkpt lat="49.30545" lon="-0.32342">
        <ele>8.9</ele>
        <time>2023-07-05T13:40:59Z</time>
      </trkpt>
      <trkpt lat="49.30549" lon="-0.32349">
        <ele>8.9</ele>
        <time>2023-07-05T13:41:00Z</time>
      </trkpt>
      <trkpt lat="49.30553" lon="-0.32356">
        <ele>8.9</ele>
        <time>2023-07-05T13:41:01Z</time>
      </trkpt>
      <trkpt lat="49.30556" lon="-0.32363">
        <ele>8.8</ele>
        <time>2023-07-05T13:41:02Z</time>
      </trkpt>
      <trkpt lat="49.3056" lon="-0.32369">
        <ele>8.8</ele>
        <time>2023-07-05T13:41:03Z</time>
      </trkpt>
      <trkpt lat="49.30564" lon="-0.32375">
        <ele>8.8</ele>
        <time>2023-07-05T13:41:04Z</time>
      </trkpt>
      <trkpt lat="49.30568" lon="-0.3238">
        <ele>8.8</ele>
        <time>2023-07-05T13:41:05Z</time>
      </trkpt>
      <trkpt lat="49.30573" lon="-0.32383">
        <ele>8.8</ele>
        <time>2023-07-05T13:41:06Z</time>
      </trkpt>
      <trkpt lat="49.30577" lon="-0.32387">
        <ele>8.8</ele>
        <time>2023-07-05T13:41:07Z</time>
      </trkpt>
      <trkpt lat="49.30581" lon="-0.32392">
        <ele>8.7</ele>
        <time>2023-07-05T13:41:08Z</time>
      </trkpt>
      <trkpt lat="49.30584" lon="-0.32398">
        <ele>8.7</ele>
        <time>2023-07-05T13:41:09Z</time>
      </trkpt>
      <trkpt lat="49.30584" lon="-0.32407">
        <ele>8.7</ele>
        <time>2023-07-05T13:41:10Z</time>
      </trkpt>
      <trkpt lat="49.30585" lon="-0.32416">
        <ele>8.6</ele>
        <time>2023-07-05T13:41:11Z</time>
      </trkpt>
      <trkpt lat="49.30585" lon="-0.32426">
        <ele>8.6</ele>
        <time>2023-07-05T13:41:12Z</time>
      </trkpt>
      <trkpt lat="49.30586" lon="-0.32435">
        <ele>8.5</ele>
        <time>2023-07-05T13:41:13Z</time>
      </trkpt>
      <trkpt lat="49.30588" lon="-0.32445">
        <ele>8.5</ele>
        <time>2023-07-05T13:41:14Z</time>
      </trkpt>
      <trkpt lat="49.30591" lon="-0.32454">
        <ele>8.5</ele>
        <time>2023-07-05T13:41:15Z</time>
      </trkpt>
      <trkpt lat="49.30596" lon="-0.32462">
        <ele>8.5</ele>
        <time>2023-07-05T13:41:16Z</time>
      </trkpt>
      <trkpt lat="49.306" lon="-0.32471">
        <ele>8.5</ele>
        <time>2023-07-05T13:41:17Z</time>
      </trkpt>
      <trkpt lat="49.30605" lon="-0.32479">
        <ele>8.6</ele>
        <time>2023-07-05T13:41:18Z</time>
      </trkpt>
      <trkpt lat="49.30609" lon="-0.32487">
        <ele>8.6</ele>
        <time>2023-07-05T13:41:19Z</time>
      </trkpt>
      <trkpt lat="49.30614" lon="-0.32493">
        <ele>8.6</ele>
        <time>2023-07-05T13:41:20Z</time>
      </trkpt>
      <trkpt lat="49.30619" lon="-0.325">
        <ele>8.7</ele>
        <time>2023-07-05T13:41:21Z</time>
      </trkpt>
      <trkpt lat="49.30625" lon="-0.32507">
        <ele>8.7</ele>
        <time>2023-07-05T13:41:22Z</time>
      </trkpt>
      <trkpt lat="49.3063" lon="-0.32514">
        <ele>8.7</ele>
        <time>2023-07-05T13:41:23Z</time>
      </trkpt>
      <trkpt lat="49.30635" lon="-0.3252">
        <ele>8.8</ele>
        <time>2023-07-05T13:41:24Z</time>
      </trkpt>
      <trkpt lat="49.30639" lon="-0.32527">
        <ele>8.9</ele>
        <time>2023-07-05T13:41:25Z</time>
      </trkpt>
      <trkpt lat="49.30642" lon="-0.32535">
        <ele>8.9</ele>
        <time>2023-07-05T13:41:26Z</time>
      </trkpt>
      <trkpt lat="49.30646" lon="-0.32542">
        <ele>8.9</ele>
        <time>2023-07-05T13:41:27Z</time>
      </trkpt>
      <trkpt lat="49.30649" lon="-0.32548">
        <ele>9</ele>
        <time>2023-07-05T13:41:28Z</time>
      </trkpt>
      <trkpt lat="49.30653" lon="-0.32555">
        <ele>9</ele>
        <time>2023-07-05T13:41:29Z</time>
      </trkpt>
      <trkpt lat="49.30656" lon="-0.32562">
        <ele>9.1</ele>
        <time>2023-07-05T13:41:30Z</time>
      </trkpt>
      <trkpt lat="49.3066" lon="-0.3257">
        <ele>9.2</ele>
        <time>2023-07-05T13:41:31Z</time>
      </trkpt>
      <trkpt lat="49.30664" lon="-0.32577">
        <ele>9.2</ele>
        <time>2023-07-05T13:41:32Z</time>
      </trkpt>
      <trkpt lat="49.30667" lon="-0.32585">
        <ele>9.3</ele>
        <time>2023-07-05T13:41:33Z</time>
      </trkpt>
      <trkpt lat="49.30671" lon="-0.32592">
        <ele>9.4</ele>
        <time>2023-07-05T13:41:34Z</time>
      </trkpt>
      <trkpt lat="49.30675" lon="-0.32601">
        <ele>9.5</ele>
        <time>2023-07-05T13:41:35Z</time>
      </trkpt>
      <trkpt lat="49.30679" lon="-0.32608">
        <ele>9.6</ele>
        <time>2023-07-05T13:41:36Z</time>
      </trkpt>
      <trkpt lat="49.30684" lon="-0.32616">
        <ele>9.7</ele>
        <time>2023-07-05T13:41:37Z</time>
      </trkpt>
      <trkpt lat="49.30688" lon="-0.32624">
        <ele>9.7</ele>
        <time>2023-07-05T13:41:38Z</time>
      </trkpt>
      <trkpt lat="49.30693" lon="-0.32631">
        <ele>9.8</ele>
        <time>2023-07-05T13:41:39Z</time>
      </trkpt>
      <trkpt lat="49.30697" lon="-0.32639">
        <ele>9.9</ele>
        <time>2023-07-05T13:41:40Z</time>
      </trkpt>
      <trkpt lat="49.30701" lon="-0.32647">
        <ele>9.9</ele>
        <time>2023-07-05T13:41:41Z</time>
      </trkpt>
      <trkpt lat="49.30705" lon="-0.32656">
        <ele>10</ele>
        <time>2023-07-05T13:41:42Z</time>
      </trkpt>
      <trkpt lat="49.30709" lon="-0.32664">
        <ele>10.1</ele>
        <time>2023-07-05T13:41:43Z</time>
      </trkpt>
      <trkpt lat="49.30713" lon="-0.32672">
        <ele>10.1</ele>
        <time>2023-07-05T13:41:44Z</time>
      </trkpt>
      <trkpt lat="49.30717" lon="-0.32681">
        <ele>10.2</ele>
        <time>2023-07-05T13:41:45Z</time>
      </trkpt>
      <trkpt lat="49.30721" lon="-0.32689">
        <ele>10.2</ele>
        <time>2023-07-05T13:41:46Z</time>
      </trkpt>
      <trkpt lat="49.30725" lon="-0.32696">
        <ele>10.3</ele>
        <time>2023-07-05T13:41:47Z</time>
      </trkpt>
      <trkpt lat="49.3073" lon="-0.32704">
        <ele>10.3</ele>
        <time>2023-07-05T13:41:48Z</time>
      </trkpt>
      <trkpt lat="49.30733" lon="-0.32712">
        <ele>10.3</ele>
        <time>2023-07-05T13:41:49Z</time>
      </trkpt>
      <trkpt lat="49.30737" lon="-0.3272">
        <ele>10.4</ele>
        <time>2023-07-05T13:41:50Z</time>
      </trkpt>
      <trkpt lat="49.30741" lon="-0.32727">
        <ele>10.4</ele>
        <time>2023-07-05T13:41:51Z</time>
      </trkpt>
      <trkpt lat="49.30745" lon="-0.32735">
        <ele>10.4</ele>
        <time>2023-07-05T13:41:52Z</time>
      </trkpt>
      <trkpt lat="49.3075" lon="-0.32742">
        <ele>10.4</ele>
        <time>2023-07-05T13:41:53Z</time>
      </trkpt>
      <trkpt lat="49.30754" lon="-0.32748">
        <ele>10.1</ele>
        <time>2023-07-05T13:41:54Z</time>
      </trkpt>
      <trkpt lat="49.30758" lon="-0.32754">
        <ele>10.1</ele>
        <time>2023-07-05T13:41:55Z</time>
      </trkpt>
      <trkpt lat="49.30762" lon="-0.32761">
        <ele>10.1</ele>
        <time>2023-07-05T13:41:56Z</time>
      </trkpt>
      <trkpt lat="49.30767" lon="-0.32767">
        <ele>10.1</ele>
        <time>2023-07-05T13:41:57Z</time>
      </trkpt>
      <trkpt lat="49.30771" lon="-0.32775">
        <ele>10.1</ele>
        <time>2023-07-05T13:41:58Z</time>
      </trkpt>
      <trkpt lat="49.30775" lon="-0.32783">
        <ele>10.1</ele>
        <time>2023-07-05T13:41:59Z</time>
      </trkpt>
      <trkpt lat="49.30779" lon="-0.32792">
        <ele>10</ele>
        <time>2023-07-05T13:42:00Z</time>
      </trkpt>
      <trkpt lat="49.30783" lon="-0.328">
        <ele>10</ele>
        <time>2023-07-05T13:42:01Z</time>
      </trkpt>
      <trkpt lat="49.30788" lon="-0.32808">
        <ele>10</ele>
        <time>2023-07-05T13:42:02Z</time>
      </trkpt>
      <trkpt lat="49.30792" lon="-0.32816">
        <ele>10.1</ele>
        <time>2023-07-05T13:42:03Z</time>
      </trkpt>
      <trkpt lat="49.30796" lon="-0.32824">
        <ele>10.1</ele>
        <time>2023-07-05T13:42:04Z</time>
      </trkpt>
      <trkpt lat="49.308" lon="-0.32832">
        <ele>10.1</ele>
        <time>2023-07-05T13:42:05Z</time>
      </trkpt>
      <trkpt lat="49.30804" lon="-0.32841">
        <ele>10.1</ele>
        <time>2023-07-05T13:42:06Z</time>
      </trkpt>
      <trkpt lat="49.30808" lon="-0.32849">
        <ele>10.2</ele>
        <time>2023-07-05T13:42:07Z</time>
      </trkpt>
      <trkpt lat="49.30812" lon="-0.32858">
        <ele>10.2</ele>
        <time>2023-07-05T13:42:08Z</time>
      </trkpt>
      <trkpt lat="49.30817" lon="-0.32866">
        <ele>10.3</ele>
        <time>2023-07-05T13:42:09Z</time>
      </trkpt>
      <trkpt lat="49.30821" lon="-0.32874">
        <ele>10.3</ele>
        <time>2023-07-05T13:42:10Z</time>
      </trkpt>
      <trkpt lat="49.30825" lon="-0.32882">
        <ele>10.3</ele>
        <time>2023-07-05T13:42:11Z</time>
      </trkpt>
      <trkpt lat="49.30829" lon="-0.32891">
        <ele>10.4</ele>
        <time>2023-07-05T13:42:12Z</time>
      </trkpt>
      <trkpt lat="49.30833" lon="-0.32899">
        <ele>10.4</ele>
        <time>2023-07-05T13:42:13Z</time>
      </trkpt>
      <trkpt lat="49.30837" lon="-0.32908">
        <ele>10.5</ele>
        <time>2023-07-05T13:42:14Z</time>
      </trkpt>
      <trkpt lat="49.30841" lon="-0.32916">
        <ele>10.5</ele>
        <time>2023-07-05T13:42:15Z</time>
      </trkpt>
      <trkpt lat="49.30845" lon="-0.32924">
        <ele>10.6</ele>
        <time>2023-07-05T13:42:16Z</time>
      </trkpt>
      <trkpt lat="49.30849" lon="-0.32932">
        <ele>10.7</ele>
        <time>2023-07-05T13:42:17Z</time>
      </trkpt>
      <trkpt lat="49.30853" lon="-0.3294">
        <ele>10.8</ele>
        <time>2023-07-05T13:42:18Z</time>
      </trkpt>
      <trkpt lat="49.30857" lon="-0.32948">
        <ele>10.8</ele>
        <time>2023-07-05T13:42:19Z</time>
      </trkpt>
      <trkpt lat="49.30861" lon="-0.32956">
        <ele>10.9</ele>
        <time>2023-07-05T13:42:20Z</time>
      </trkpt>
      <trkpt lat="49.30865" lon="-0.32965">
        <ele>10.9</ele>
        <time>2023-07-05T13:42:21Z</time>
      </trkpt>
      <trkpt lat="49.30869" lon="-0.32972">
        <ele>11</ele>
        <time>2023-07-05T13:42:22Z</time>
      </trkpt>
      <trkpt lat="49.30873" lon="-0.32981">
        <ele>11</ele>
        <time>2023-07-05T13:42:23Z</time>
      </trkpt>
      <trkpt lat="49.30877" lon="-0.32989">
        <ele>11</ele>
        <time>2023-07-05T13:42:24Z</time>
      </trkpt>
      <trkpt lat="49.30881" lon="-0.32997">
        <ele>11</ele>
        <time>2023-07-05T13:42:25Z</time>
      </trkpt>
      <trkpt lat="49.30885" lon="-0.33005">
        <ele>11.1</ele>
        <time>2023-07-05T13:42:26Z</time>
      </trkpt>
      <trkpt lat="49.30888" lon="-0.33013">
        <ele>11.1</ele>
        <time>2023-07-05T13:42:27Z</time>
      </trkpt>
      <trkpt lat="49.30892" lon="-0.33022">
        <ele>11.2</ele>
        <time>2023-07-05T13:42:28Z</time>
      </trkpt>
      <trkpt lat="49.30896" lon="-0.3303">
        <ele>11.2</ele>
        <time>2023-07-05T13:42:29Z</time>
      </trkpt>
      <trkpt lat="49.30899" lon="-0.33038">
        <ele>11.3</ele>
        <time>2023-07-05T13:42:30Z</time>
      </trkpt>
      <trkpt lat="49.30903" lon="-0.33045">
        <ele>11.3</ele>
        <time>2023-07-05T13:42:31Z</time>
      </trkpt>
      <trkpt lat="49.30906" lon="-0.33053">
        <ele>11.4</ele>
        <time>2023-07-05T13:42:32Z</time>
      </trkpt>
      <trkpt lat="49.3091" lon="-0.3306">
        <ele>11.4</ele>
        <time>2023-07-05T13:42:33Z</time>
      </trkpt>
      <trkpt lat="49.30913" lon="-0.33067">
        <ele>11.4</ele>
        <time>2023-07-05T13:42:34Z</time>
      </trkpt>
      <trkpt lat="49.30916" lon="-0.33074">
        <ele>11.4</ele>
        <time>2023-07-05T13:42:35Z</time>
      </trkpt>
      <trkpt lat="49.30919" lon="-0.33082">
        <ele>11.5</ele>
        <time>2023-07-05T13:42:36Z</time>
      </trkpt>
      <trkpt lat="49.30923" lon="-0.3309">
        <ele>11.5</ele>
        <time>2023-07-05T13:42:37Z</time>
      </trkpt>
      <trkpt lat="49.30926" lon="-0.33098">
        <ele>11.5</ele>
        <time>2023-07-05T13:42:38Z</time>
      </trkpt>
      <trkpt lat="49.3093" lon="-0.33106">
        <ele>11.5</ele>
        <time>2023-07-05T13:42:39Z</time>
      </trkpt>
      <trkpt lat="49.30933" lon="-0.33115">
        <ele>11.5</ele>
        <time>2023-07-05T13:42:40Z</time>
      </trkpt>
      <trkpt lat="49.30937" lon="-0.33124">
        <ele>11.6</ele>
        <time>2023-07-05T13:42:41Z</time>
      </trkpt>
      <trkpt lat="49.30941" lon="-0.33132">
        <ele>11.6</ele>
        <time>2023-07-05T13:42:42Z</time>
      </trkpt>
      <trkpt lat="49.30945" lon="-0.33141">
        <ele>11.6</ele>
        <time>2023-07-05T13:42:43Z</time>
      </trkpt>
      <trkpt lat="49.30948" lon="-0.3315">
        <ele>11.7</ele>
        <time>2023-07-05T13:42:44Z</time>
      </trkpt>
      <trkpt lat="49.30952" lon="-0.33158">
        <ele>11.7</ele>
        <time>2023-07-05T13:42:45Z</time>
      </trkpt>
      <trkpt lat="49.30956" lon="-0.33166">
        <ele>11.7</ele>
        <time>2023-07-05T13:42:46Z</time>
      </trkpt>
      <trkpt lat="49.30959" lon="-0.33175">
        <ele>11.7</ele>
        <time>2023-07-05T13:42:47Z</time>
      </trkpt>
      <trkpt lat="49.30963" lon="-0.33184">
        <ele>11.7</ele>
        <time>2023-07-05T13:42:48Z</time>
      </trkpt>
      <trkpt lat="49.30966" lon="-0.33193">
        <ele>11.8</ele>
        <time>2023-07-05T13:42:49Z</time>
      </trkpt>
      <trkpt lat="49.3097" lon="-0.33202">
        <ele>11.8</ele>
        <time>2023-07-05T13:42:50Z</time>
      </trkpt>
      <trkpt lat="49.30974" lon="-0.33211">
        <ele>11.8</ele>
        <time>2023-07-05T13:42:51Z</time>
      </trkpt>
      <trkpt lat="49.30977" lon="-0.33219">
        <ele>11.8</ele>
        <time>2023-07-05T13:42:52Z</time>
      </trkpt>
      <trkpt lat="49.30981" lon="-0.33228">
        <ele>11.8</ele>
        <time>2023-07-05T13:42:53Z</time>
      </trkpt>
      <trkpt lat="49.30985" lon="-0.33238">
        <ele>11.8</ele>
        <time>2023-07-05T13:42:54Z</time>
      </trkpt>
      <trkpt lat="49.30989" lon="-0.33247">
        <ele>11.8</ele>
        <time>2023-07-05T13:42:55Z</time>
      </trkpt>
      <trkpt lat="49.30993" lon="-0.33256">
        <ele>11.8</ele>
        <time>2023-07-05T13:42:56Z</time>
      </trkpt>
      <trkpt lat="49.30997" lon="-0.33265">
        <ele>11.8</ele>
        <time>2023-07-05T13:42:57Z</time>
      </trkpt>
      <trkpt lat="49.31001" lon="-0.33274">
        <ele>11.8</ele>
        <time>2023-07-05T13:42:58Z</time>
      </trkpt>
      <trkpt lat="49.31005" lon="-0.33283">
        <ele>11.7</ele>
        <time>2023-07-05T13:42:59Z</time>
      </trkpt>
      <trkpt lat="49.31008" lon="-0.33292">
        <ele>11.7</ele>
        <time>2023-07-05T13:43:00Z</time>
      </trkpt>
      <trkpt lat="49.31012" lon="-0.33302">
        <ele>11.7</ele>
        <time>2023-07-05T13:43:01Z</time>
      </trkpt>
      <trkpt lat="49.31016" lon="-0.33311">
        <ele>11.6</ele>
        <time>2023-07-05T13:43:02Z</time>
      </trkpt>
      <trkpt lat="49.3102" lon="-0.33321">
        <ele>11.6</ele>
        <time>2023-07-05T13:43:03Z</time>
      </trkpt>
      <trkpt lat="49.31024" lon="-0.3333">
        <ele>11.6</ele>
        <time>2023-07-05T13:43:04Z</time>
      </trkpt>
      <trkpt lat="49.31028" lon="-0.3334">
        <ele>11.6</ele>
        <time>2023-07-05T13:43:05Z</time>
      </trkpt>
      <trkpt lat="49.31031" lon="-0.3335">
        <ele>11.6</ele>
        <time>2023-07-05T13:43:06Z</time>
      </trkpt>
      <trkpt lat="49.31035" lon="-0.33359">
        <ele>11.6</ele>
        <time>2023-07-05T13:43:07Z</time>
      </trkpt>
      <trkpt lat="49.31039" lon="-0.33368">
        <ele>11.6</ele>
        <time>2023-07-05T13:43:08Z</time>
      </trkpt>
      <trkpt lat="49.31043" lon="-0.33378">
        <ele>11.6</ele>
        <time>2023-07-05T13:43:09Z</time>
      </trkpt>
      <trkpt lat="49.31046" lon="-0.33387">
        <ele>11.6</ele>
        <time>2023-07-05T13:43:10Z</time>
      </trkpt>
      <trkpt lat="49.31051" lon="-0.33397">
        <ele>11.6</ele>
        <time>2023-07-05T13:43:11Z</time>
      </trkpt>
      <trkpt lat="49.31055" lon="-0.33406">
        <ele>11.6</ele>
        <time>2023-07-05T13:43:12Z</time>
      </trkpt>
      <trkpt lat="49.31058" lon="-0.33416">
        <ele>11.6</ele>
        <time>2023-07-05T13:43:13Z</time>
      </trkpt>
      <trkpt lat="49.31062" lon="-0.33424">
        <ele>11.6</ele>
        <time>2023-07-05T13:43:14Z</time>
      </trkpt>
      <trkpt lat="49.31066" lon="-0.33433">
        <ele>11.6</ele>
        <time>2023-07-05T13:43:15Z</time>
      </trkpt>
      <trkpt lat="49.31069" lon="-0.33442">
        <ele>11.6</ele>
        <time>2023-07-05T13:43:16Z</time>
      </trkpt>
      <trkpt lat="49.31073" lon="-0.33452">
        <ele>11.6</ele>
        <time>2023-07-05T13:43:17Z</time>
      </trkpt>
      <trkpt lat="49.31077" lon="-0.3346">
        <ele>11.6</ele>
        <time>2023-07-05T13:43:18Z</time>
      </trkpt>
      <trkpt lat="49.3108" lon="-0.33469">
        <ele>11.6</ele>
        <time>2023-07-05T13:43:19Z</time>
      </trkpt>
      <trkpt lat="49.31084" lon="-0.33478">
        <ele>11.6</ele>
        <time>2023-07-05T13:43:20Z</time>
      </trkpt>
      <trkpt lat="49.31087" lon="-0.33487">
        <ele>11.6</ele>
        <time>2023-07-05T13:43:21Z</time>
      </trkpt>
      <trkpt lat="49.31091" lon="-0.33496">
        <ele>11.6</ele>
        <time>2023-07-05T13:43:22Z</time>
      </trkpt>
      <trkpt lat="49.31094" lon="-0.33506">
        <ele>11.6</ele>
        <time>2023-07-05T13:43:23Z</time>
      </trkpt>
      <trkpt lat="49.31098" lon="-0.33515">
        <ele>11.6</ele>
        <time>2023-07-05T13:43:24Z</time>
      </trkpt>
      <trkpt lat="49.31101" lon="-0.33524">
        <ele>11.6</ele>
        <time>2023-07-05T13:43:25Z</time>
      </trkpt>
      <trkpt lat="49.31105" lon="-0.33533">
        <ele>11.6</ele>
        <time>2023-07-05T13:43:26Z</time>
      </trkpt>
      <trkpt lat="49.3111" lon="-0.33542">
        <ele>11.6</ele>
        <time>2023-07-05T13:43:27Z</time>
      </trkpt>
      <trkpt lat="49.31114" lon="-0.33551">
        <ele>11.6</ele>
        <time>2023-07-05T13:43:28Z</time>
      </trkpt>
      <trkpt lat="49.31117" lon="-0.33561">
        <ele>11.5</ele>
        <time>2023-07-05T13:43:29Z</time>
      </trkpt>
      <trkpt lat="49.31121" lon="-0.3357">
        <ele>11.5</ele>
        <time>2023-07-05T13:43:30Z</time>
      </trkpt>
      <trkpt lat="49.31125" lon="-0.33579">
        <ele>11.5</ele>
        <time>2023-07-05T13:43:31Z</time>
      </trkpt>
      <trkpt lat="49.31128" lon="-0.33589">
        <ele>11.5</ele>
        <time>2023-07-05T13:43:32Z</time>
      </trkpt>
      <trkpt lat="49.31132" lon="-0.33598">
        <ele>11.5</ele>
        <time>2023-07-05T13:43:33Z</time>
      </trkpt>
      <trkpt lat="49.31136" lon="-0.33607">
        <ele>11.5</ele>
        <time>2023-07-05T13:43:34Z</time>
      </trkpt>
      <trkpt lat="49.3114" lon="-0.33616">
        <ele>11.5</ele>
        <time>2023-07-05T13:43:35Z</time>
      </trkpt>
      <trkpt lat="49.31143" lon="-0.33626">
        <ele>11.4</ele>
        <time>2023-07-05T13:43:36Z</time>
      </trkpt>
      <trkpt lat="49.31147" lon="-0.33635">
        <ele>11.4</ele>
        <time>2023-07-05T13:43:37Z</time>
      </trkpt>
      <trkpt lat="49.31151" lon="-0.33644">
        <ele>11.4</ele>
        <time>2023-07-05T13:43:38Z</time>
      </trkpt>
      <trkpt lat="49.31155" lon="-0.33654">
        <ele>11.4</ele>
        <time>2023-07-05T13:43:39Z</time>
      </trkpt>
      <trkpt lat="49.31159" lon="-0.33664">
        <ele>11.3</ele>
        <time>2023-07-05T13:43:40Z</time>
      </trkpt>
      <trkpt lat="49.31163" lon="-0.33673">
        <ele>11.3</ele>
        <time>2023-07-05T13:43:41Z</time>
      </trkpt>
      <trkpt lat="49.31166" lon="-0.33683">
        <ele>11.2</ele>
        <time>2023-07-05T13:43:42Z</time>
      </trkpt>
      <trkpt lat="49.3117" lon="-0.33692">
        <ele>11.2</ele>
        <time>2023-07-05T13:43:43Z</time>
      </trkpt>
      <trkpt lat="49.31174" lon="-0.33702">
        <ele>11.1</ele>
        <time>2023-07-05T13:43:44Z</time>
      </trkpt>
      <trkpt lat="49.31178" lon="-0.33712">
        <ele>11</ele>
        <time>2023-07-05T13:43:45Z</time>
      </trkpt>
      <trkpt lat="49.31182" lon="-0.33721">
        <ele>11</ele>
        <time>2023-07-05T13:43:46Z</time>
      </trkpt>
      <trkpt lat="49.31186" lon="-0.33731">
        <ele>10.9</ele>
        <time>2023-07-05T13:43:47Z</time>
      </trkpt>
      <trkpt lat="49.3119" lon="-0.33741">
        <ele>10.9</ele>
        <time>2023-07-05T13:43:48Z</time>
      </trkpt>
      <trkpt lat="49.31194" lon="-0.33751">
        <ele>10.8</ele>
        <time>2023-07-05T13:43:49Z</time>
      </trkpt>
      <trkpt lat="49.31198" lon="-0.3376">
        <ele>10.7</ele>
        <time>2023-07-05T13:43:50Z</time>
      </trkpt>
      <trkpt lat="49.31202" lon="-0.3377">
        <ele>10.7</ele>
        <time>2023-07-05T13:43:51Z</time>
      </trkpt>
      <trkpt lat="49.31206" lon="-0.3378">
        <ele>10.6</ele>
        <time>2023-07-05T13:43:52Z</time>
      </trkpt>
      <trkpt lat="49.3121" lon="-0.33789">
        <ele>10.5</ele>
        <time>2023-07-05T13:43:53Z</time>
      </trkpt>
      <trkpt lat="49.31214" lon="-0.33799">
        <ele>10.5</ele>
        <time>2023-07-05T13:43:54Z</time>
      </trkpt>
      <trkpt lat="49.31218" lon="-0.33809">
        <ele>10.4</ele>
        <time>2023-07-05T13:43:55Z</time>
      </trkpt>
      <trkpt lat="49.31222" lon="-0.33819">
        <ele>10.4</ele>
        <time>2023-07-05T13:43:56Z</time>
      </trkpt>
      <trkpt lat="49.31226" lon="-0.33829">
        <ele>10.3</ele>
        <time>2023-07-05T13:43:57Z</time>
      </trkpt>
      <trkpt lat="49.3123" lon="-0.33838">
        <ele>10.2</ele>
        <time>2023-07-05T13:43:58Z</time>
      </trkpt>
      <trkpt lat="49.31234" lon="-0.33848">
        <ele>10.2</ele>
        <time>2023-07-05T13:43:59Z</time>
      </trkpt>
      <trkpt lat="49.31239" lon="-0.33858">
        <ele>10.1</ele>
        <time>2023-07-05T13:44:00Z</time>
      </trkpt>
      <trkpt lat="49.31243" lon="-0.33868">
        <ele>10.1</ele>
        <time>2023-07-05T13:44:01Z</time>
      </trkpt>
      <trkpt lat="49.31247" lon="-0.33878">
        <ele>10</ele>
        <time>2023-07-05T13:44:02Z</time>
      </trkpt>
      <trkpt lat="49.31251" lon="-0.33887">
        <ele>10</ele>
        <time>2023-07-05T13:44:03Z</time>
      </trkpt>
      <trkpt lat="49.31255" lon="-0.33897">
        <ele>9.9</ele>
        <time>2023-07-05T13:44:04Z</time>
      </trkpt>
      <trkpt lat="49.31259" lon="-0.33906">
        <ele>9.8</ele>
        <time>2023-07-05T13:44:05Z</time>
      </trkpt>
      <trkpt lat="49.31263" lon="-0.33916">
        <ele>9.8</ele>
        <time>2023-07-05T13:44:06Z</time>
      </trkpt>
      <trkpt lat="49.31267" lon="-0.33925">
        <ele>9.7</ele>
        <time>2023-07-05T13:44:07Z</time>
      </trkpt>
      <trkpt lat="49.31271" lon="-0.33935">
        <ele>9.7</ele>
        <time>2023-07-05T13:44:08Z</time>
      </trkpt>
      <trkpt lat="49.31275" lon="-0.33945">
        <ele>9.6</ele>
        <time>2023-07-05T13:44:09Z</time>
      </trkpt>
      <trkpt lat="49.31278" lon="-0.33954">
        <ele>9.6</ele>
        <time>2023-07-05T13:44:10Z</time>
      </trkpt>
      <trkpt lat="49.31281" lon="-0.33964">
        <ele>9.5</ele>
        <time>2023-07-05T13:44:11Z</time>
      </trkpt>
      <trkpt lat="49.31285" lon="-0.33973">
        <ele>9.5</ele>
        <time>2023-07-05T13:44:12Z</time>
      </trkpt>
      <trkpt lat="49.31288" lon="-0.33981">
        <ele>9.4</ele>
        <time>2023-07-05T13:44:13Z</time>
      </trkpt>
      <trkpt lat="49.31292" lon="-0.3399">
        <ele>9.3</ele>
        <time>2023-07-05T13:44:14Z</time>
      </trkpt>
      <trkpt lat="49.31295" lon="-0.33999">
        <ele>9.3</ele>
        <time>2023-07-05T13:44:15Z</time>
      </trkpt>
      <trkpt lat="49.31298" lon="-0.34008">
        <ele>9.2</ele>
        <time>2023-07-05T13:44:16Z</time>
      </trkpt>
      <trkpt lat="49.31302" lon="-0.34017">
        <ele>9.2</ele>
        <time>2023-07-05T13:44:17Z</time>
      </trkpt>
      <trkpt lat="49.31306" lon="-0.34026">
        <ele>9.1</ele>
        <time>2023-07-05T13:44:18Z</time>
      </trkpt>
      <trkpt lat="49.31309" lon="-0.34034">
        <ele>9</ele>
        <time>2023-07-05T13:44:19Z</time>
      </trkpt>
      <trkpt lat="49.31313" lon="-0.34043">
        <ele>9</ele>
        <time>2023-07-05T13:44:20Z</time>
      </trkpt>
      <trkpt lat="49.31316" lon="-0.34051">
        <ele>8.9</ele>
        <time>2023-07-05T13:44:21Z</time>
      </trkpt>
      <trkpt lat="49.3132" lon="-0.34059">
        <ele>8.8</ele>
        <time>2023-07-05T13:44:22Z</time>
      </trkpt>
      <trkpt lat="49.31324" lon="-0.34068">
        <ele>8.7</ele>
        <time>2023-07-05T13:44:23Z</time>
      </trkpt>
      <trkpt lat="49.31327" lon="-0.34078">
        <ele>8.6</ele>
        <time>2023-07-05T13:44:24Z</time>
      </trkpt>
      <trkpt lat="49.31331" lon="-0.34087">
        <ele>8.5</ele>
        <time>2023-07-05T13:44:25Z</time>
      </trkpt>
      <trkpt lat="49.31335" lon="-0.34097">
        <ele>8.4</ele>
        <time>2023-07-05T13:44:26Z</time>
      </trkpt>
      <trkpt lat="49.31338" lon="-0.34107">
        <ele>8.4</ele>
        <time>2023-07-05T13:44:27Z</time>
      </trkpt>
      <trkpt lat="49.31343" lon="-0.34116">
        <ele>8.3</ele>
        <time>2023-07-05T13:44:28Z</time>
      </trkpt>
      <trkpt lat="49.31347" lon="-0.34127">
        <ele>8.3</ele>
        <time>2023-07-05T13:44:29Z</time>
      </trkpt>
      <trkpt lat="49.31351" lon="-0.34137">
        <ele>8.2</ele>
        <time>2023-07-05T13:44:30Z</time>
      </trkpt>
      <trkpt lat="49.31355" lon="-0.34147">
        <ele>8.2</ele>
        <time>2023-07-05T13:44:31Z</time>
      </trkpt>
      <trkpt lat="49.31359" lon="-0.34158">
        <ele>8.2</ele>
        <time>2023-07-05T13:44:32Z</time>
      </trkpt>
      <trkpt lat="49.31363" lon="-0.34168">
        <ele>8.2</ele>
        <time>2023-07-05T13:44:33Z</time>
      </trkpt>
      <trkpt lat="49.31367" lon="-0.34177">
        <ele>8.3</ele>
        <time>2023-07-05T13:44:34Z</time>
      </trkpt>
      <trkpt lat="49.31371" lon="-0.34187">
        <ele>8.3</ele>
        <time>2023-07-05T13:44:35Z</time>
      </trkpt>
      <trkpt lat="49.31375" lon="-0.34197">
        <ele>8.4</ele>
        <time>2023-07-05T13:44:36Z</time>
      </trkpt>
      <trkpt lat="49.31379" lon="-0.34205">
        <ele>8.5</ele>
        <time>2023-07-05T13:44:37Z</time>
      </trkpt>
      <trkpt lat="49.31383" lon="-0.34214">
        <ele>8.6</ele>
        <time>2023-07-05T13:44:38Z</time>
      </trkpt>
      <trkpt lat="49.31386" lon="-0.34224">
        <ele>8.6</ele>
        <time>2023-07-05T13:44:39Z</time>
      </trkpt>
      <trkpt lat="49.3139" lon="-0.34233">
        <ele>8.7</ele>
        <time>2023-07-05T13:44:40Z</time>
      </trkpt>
      <trkpt lat="49.31394" lon="-0.34241">
        <ele>8.8</ele>
        <time>2023-07-05T13:44:41Z</time>
      </trkpt>
      <trkpt lat="49.31397" lon="-0.34249">
        <ele>8.9</ele>
        <time>2023-07-05T13:44:42Z</time>
      </trkpt>
      <trkpt lat="49.314" lon="-0.34256">
        <ele>9</ele>
        <time>2023-07-05T13:44:43Z</time>
      </trkpt>
      <trkpt lat="49.31403" lon="-0.34264">
        <ele>9.1</ele>
        <time>2023-07-05T13:44:44Z</time>
      </trkpt>
      <trkpt lat="49.31405" lon="-0.34271">
        <ele>9.2</ele>
        <time>2023-07-05T13:44:45Z</time>
      </trkpt>
      <trkpt lat="49.31407" lon="-0.34277">
        <ele>9.3</ele>
        <time>2023-07-05T13:44:46Z</time>
      </trkpt>
      <trkpt lat="49.31409" lon="-0.34284">
        <ele>9.3</ele>
        <time>2023-07-05T13:44:47Z</time>
      </trkpt>
      <trkpt lat="49.31411" lon="-0.34289">
        <ele>9.4</ele>
        <time>2023-07-05T13:44:48Z</time>
      </trkpt>
      <trkpt lat="49.31413" lon="-0.34295">
        <ele>9.4</ele>
        <time>2023-07-05T13:44:49Z</time>
      </trkpt>
      <trkpt lat="49.31416" lon="-0.34301">
        <ele>9.4</ele>
        <time>2023-07-05T13:44:50Z</time>
      </trkpt>
      <trkpt lat="49.31418" lon="-0.34308">
        <ele>9.5</ele>
        <time>2023-07-05T13:44:51Z</time>
      </trkpt>
      <trkpt lat="49.31421" lon="-0.34315">
        <ele>9.5</ele>
        <time>2023-07-05T13:44:52Z</time>
      </trkpt>
      <trkpt lat="49.31423" lon="-0.34322">
        <ele>9.6</ele>
        <time>2023-07-05T13:44:53Z</time>
      </trkpt>
      <trkpt lat="49.31426" lon="-0.3433">
        <ele>9.6</ele>
        <time>2023-07-05T13:44:54Z</time>
      </trkpt>
      <trkpt lat="49.31429" lon="-0.34337">
        <ele>9.6</ele>
        <time>2023-07-05T13:44:55Z</time>
      </trkpt>
      <trkpt lat="49.31432" lon="-0.34345">
        <ele>9.7</ele>
        <time>2023-07-05T13:44:56Z</time>
      </trkpt>
      <trkpt lat="49.31436" lon="-0.34354">
        <ele>9.7</ele>
        <time>2023-07-05T13:44:57Z</time>
      </trkpt>
      <trkpt lat="49.31439" lon="-0.34362">
        <ele>9.8</ele>
        <time>2023-07-05T13:44:58Z</time>
      </trkpt>
      <trkpt lat="49.31443" lon="-0.3437">
        <ele>9.8</ele>
        <time>2023-07-05T13:44:59Z</time>
      </trkpt>
      <trkpt lat="49.31447" lon="-0.34378">
        <ele>9.9</ele>
        <time>2023-07-05T13:45:00Z</time>
      </trkpt>
      <trkpt lat="49.31451" lon="-0.34386">
        <ele>9.9</ele>
        <time>2023-07-05T13:45:01Z</time>
      </trkpt>
      <trkpt lat="49.31455" lon="-0.34394">
        <ele>10</ele>
        <time>2023-07-05T13:45:02Z</time>
      </trkpt>
      <trkpt lat="49.31458" lon="-0.34402">
        <ele>10.1</ele>
        <time>2023-07-05T13:45:03Z</time>
      </trkpt>
      <trkpt lat="49.31461" lon="-0.3441">
        <ele>10.1</ele>
        <time>2023-07-05T13:45:04Z</time>
      </trkpt>
      <trkpt lat="49.31465" lon="-0.34418">
        <ele>10.1</ele>
        <time>2023-07-05T13:45:05Z</time>
      </trkpt>
      <trkpt lat="49.31468" lon="-0.34426">
        <ele>10.1</ele>
        <time>2023-07-05T13:45:06Z</time>
      </trkpt>
      <trkpt lat="49.31472" lon="-0.34434">
        <ele>10.2</ele>
        <time>2023-07-05T13:45:07Z</time>
      </trkpt>
      <trkpt lat="49.31476" lon="-0.34442">
        <ele>10.2</ele>
        <time>2023-07-05T13:45:08Z</time>
      </trkpt>
      <trkpt lat="49.3148" lon="-0.34451">
        <ele>10.2</ele>
        <time>2023-07-05T13:45:09Z</time>
      </trkpt>
      <trkpt lat="49.31484" lon="-0.34459">
        <ele>10.3</ele>
        <time>2023-07-05T13:45:10Z</time>
      </trkpt>
      <trkpt lat="49.31488" lon="-0.34467">
        <ele>10.3</ele>
        <time>2023-07-05T13:45:11Z</time>
      </trkpt>
      <trkpt lat="49.31492" lon="-0.34476">
        <ele>10.4</ele>
        <time>2023-07-05T13:45:12Z</time>
      </trkpt>
      <trkpt lat="49.31496" lon="-0.34485">
        <ele>10.5</ele>
        <time>2023-07-05T13:45:13Z</time>
      </trkpt>
      <trkpt lat="49.315" lon="-0.34494">
        <ele>10.5</ele>
        <time>2023-07-05T13:45:14Z</time>
      </trkpt>
      <trkpt lat="49.31504" lon="-0.34503">
        <ele>10.6</ele>
        <time>2023-07-05T13:45:15Z</time>
      </trkpt>
      <trkpt lat="49.31508" lon="-0.34512">
        <ele>10.6</ele>
        <time>2023-07-05T13:45:16Z</time>
      </trkpt>
      <trkpt lat="49.31512" lon="-0.3452">
        <ele>10.7</ele>
        <time>2023-07-05T13:45:17Z</time>
      </trkpt>
      <trkpt lat="49.31516" lon="-0.34529">
        <ele>10.7</ele>
        <time>2023-07-05T13:45:18Z</time>
      </trkpt>
      <trkpt lat="49.3152" lon="-0.34538">
        <ele>10.8</ele>
        <time>2023-07-05T13:45:19Z</time>
      </trkpt>
      <trkpt lat="49.31524" lon="-0.34547">
        <ele>10.8</ele>
        <time>2023-07-05T13:45:20Z</time>
      </trkpt>
      <trkpt lat="49.31528" lon="-0.34556">
        <ele>10.8</ele>
        <time>2023-07-05T13:45:21Z</time>
      </trkpt>
      <trkpt lat="49.31532" lon="-0.34564">
        <ele>10.8</ele>
        <time>2023-07-05T13:45:22Z</time>
      </trkpt>
      <trkpt lat="49.31536" lon="-0.34573">
        <ele>10.8</ele>
        <time>2023-07-05T13:45:23Z</time>
      </trkpt>
      <trkpt lat="49.3154" lon="-0.34582">
        <ele>10.9</ele>
        <time>2023-07-05T13:45:24Z</time>
      </trkpt>
      <trkpt lat="49.31544" lon="-0.34591">
        <ele>10.9</ele>
        <time>2023-07-05T13:45:25Z</time>
      </trkpt>
      <trkpt lat="49.31548" lon="-0.346">
        <ele>10.9</ele>
        <time>2023-07-05T13:45:26Z</time>
      </trkpt>
      <trkpt lat="49.31552" lon="-0.34609">
        <ele>10.9</ele>
        <time>2023-07-05T13:45:27Z</time>
      </trkpt>
      <trkpt lat="49.31555" lon="-0.34618">
        <ele>10.9</ele>
        <time>2023-07-05T13:45:28Z</time>
      </trkpt>
      <trkpt lat="49.31559" lon="-0.34627">
        <ele>10.9</ele>
        <time>2023-07-05T13:45:29Z</time>
      </trkpt>
      <trkpt lat="49.31563" lon="-0.34636">
        <ele>10.9</ele>
        <time>2023-07-05T13:45:30Z</time>
      </trkpt>
      <trkpt lat="49.31566" lon="-0.34644">
        <ele>10.8</ele>
        <time>2023-07-05T13:45:31Z</time>
      </trkpt>
      <trkpt lat="49.3157" lon="-0.34653">
        <ele>10.8</ele>
        <time>2023-07-05T13:45:32Z</time>
      </trkpt>
      <trkpt lat="49.31573" lon="-0.34662">
        <ele>10.7</ele>
        <time>2023-07-05T13:45:33Z</time>
      </trkpt>
      <trkpt lat="49.31577" lon="-0.3467">
        <ele>10.7</ele>
        <time>2023-07-05T13:45:34Z</time>
      </trkpt>
      <trkpt lat="49.31581" lon="-0.34679">
        <ele>10.6</ele>
        <time>2023-07-05T13:45:35Z</time>
      </trkpt>
      <trkpt lat="49.31585" lon="-0.34688">
        <ele>10.6</ele>
        <time>2023-07-05T13:45:36Z</time>
      </trkpt>
      <trkpt lat="49.31589" lon="-0.34696">
        <ele>10.5</ele>
        <time>2023-07-05T13:45:37Z</time>
      </trkpt>
      <trkpt lat="49.31593" lon="-0.34705">
        <ele>10.5</ele>
        <time>2023-07-05T13:45:38Z</time>
      </trkpt>
      <trkpt lat="49.31597" lon="-0.34713">
        <ele>10.5</ele>
        <time>2023-07-05T13:45:39Z</time>
      </trkpt>
      <trkpt lat="49.31601" lon="-0.34722">
        <ele>10.4</ele>
        <time>2023-07-05T13:45:40Z</time>
      </trkpt>
      <trkpt lat="49.31605" lon="-0.3473">
        <ele>10.4</ele>
        <time>2023-07-05T13:45:41Z</time>
      </trkpt>
      <trkpt lat="49.31609" lon="-0.34739">
        <ele>10.3</ele>
        <time>2023-07-05T13:45:42Z</time>
      </trkpt>
      <trkpt lat="49.31613" lon="-0.34747">
        <ele>10.3</ele>
        <time>2023-07-05T13:45:43Z</time>
      </trkpt>
      <trkpt lat="49.31617" lon="-0.34756">
        <ele>10.3</ele>
        <time>2023-07-05T13:45:44Z</time>
      </trkpt>
      <trkpt lat="49.31621" lon="-0.34764">
        <ele>10.3</ele>
        <time>2023-07-05T13:45:45Z</time>
      </trkpt>
      <trkpt lat="49.31625" lon="-0.34772">
        <ele>10.3</ele>
        <time>2023-07-05T13:45:46Z</time>
      </trkpt>
      <trkpt lat="49.31629" lon="-0.34781">
        <ele>10.2</ele>
        <time>2023-07-05T13:45:47Z</time>
      </trkpt>
      <trkpt lat="49.31633" lon="-0.34789">
        <ele>10.2</ele>
        <time>2023-07-05T13:45:48Z</time>
      </trkpt>
      <trkpt lat="49.31636" lon="-0.34798">
        <ele>10.2</ele>
        <time>2023-07-05T13:45:49Z</time>
      </trkpt>
      <trkpt lat="49.3164" lon="-0.34807">
        <ele>10.1</ele>
        <time>2023-07-05T13:45:50Z</time>
      </trkpt>
      <trkpt lat="49.31644" lon="-0.34816">
        <ele>10.1</ele>
        <time>2023-07-05T13:45:51Z</time>
      </trkpt>
      <trkpt lat="49.31648" lon="-0.34825">
        <ele>10</ele>
        <time>2023-07-05T13:45:52Z</time>
      </trkpt>
      <trkpt lat="49.31652" lon="-0.34834">
        <ele>9.9</ele>
        <time>2023-07-05T13:45:53Z</time>
      </trkpt>
      <trkpt lat="49.31656" lon="-0.34842">
        <ele>9.9</ele>
        <time>2023-07-05T13:45:54Z</time>
      </trkpt>
      <trkpt lat="49.31659" lon="-0.3485">
        <ele>9.9</ele>
        <time>2023-07-05T13:45:55Z</time>
      </trkpt>
      <trkpt lat="49.31663" lon="-0.34858">
        <ele>9.8</ele>
        <time>2023-07-05T13:45:56Z</time>
      </trkpt>
      <trkpt lat="49.31666" lon="-0.34866">
        <ele>9.8</ele>
        <time>2023-07-05T13:45:57Z</time>
      </trkpt>
      <trkpt lat="49.3167" lon="-0.34874">
        <ele>9.8</ele>
        <time>2023-07-05T13:45:58Z</time>
      </trkpt>
      <trkpt lat="49.31673" lon="-0.34881">
        <ele>9.7</ele>
        <time>2023-07-05T13:45:59Z</time>
      </trkpt>
      <trkpt lat="49.31676" lon="-0.34889">
        <ele>9.7</ele>
        <time>2023-07-05T13:46:00Z</time>
      </trkpt>
      <trkpt lat="49.3168" lon="-0.34897">
        <ele>9.6</ele>
        <time>2023-07-05T13:46:01Z</time>
      </trkpt>
      <trkpt lat="49.31684" lon="-0.34904">
        <ele>9.6</ele>
        <time>2023-07-05T13:46:02Z</time>
      </trkpt>
      <trkpt lat="49.31689" lon="-0.34911">
        <ele>9.6</ele>
        <time>2023-07-05T13:46:03Z</time>
      </trkpt>
      <trkpt lat="49.31693" lon="-0.34918">
        <ele>9.5</ele>
        <time>2023-07-05T13:46:04Z</time>
      </trkpt>
      <trkpt lat="49.31697" lon="-0.34924">
        <ele>9.4</ele>
        <time>2023-07-05T13:46:05Z</time>
      </trkpt>
      <trkpt lat="49.317" lon="-0.34929">
        <ele>9.4</ele>
        <time>2023-07-05T13:46:06Z</time>
      </trkpt>
      <trkpt lat="49.31704" lon="-0.34933">
        <ele>9.6</ele>
        <time>2023-07-05T13:46:07Z</time>
      </trkpt>
      <trkpt lat="49.31707" lon="-0.34937">
        <ele>9.6</ele>
        <time>2023-07-05T13:46:08Z</time>
      </trkpt>
      <trkpt lat="49.31711" lon="-0.34941">
        <ele>9.4</ele>
        <time>2023-07-05T13:46:09Z</time>
      </trkpt>
      <trkpt lat="49.31715" lon="-0.34944">
        <ele>9.3</ele>
        <time>2023-07-05T13:46:10Z</time>
      </trkpt>
      <trkpt lat="49.31719" lon="-0.34948">
        <ele>9.3</ele>
        <time>2023-07-05T13:46:11Z</time>
      </trkpt>
      <trkpt lat="49.31724" lon="-0.34953">
        <ele>9.2</ele>
        <time>2023-07-05T13:46:12Z</time>
      </trkpt>
      <trkpt lat="49.31729" lon="-0.34959">
        <ele>9.1</ele>
        <time>2023-07-05T13:46:13Z</time>
      </trkpt>
      <trkpt lat="49.31734" lon="-0.34964">
        <ele>9</ele>
        <time>2023-07-05T13:46:14Z</time>
      </trkpt>
      <trkpt lat="49.3174" lon="-0.3497">
        <ele>9</ele>
        <time>2023-07-05T13:46:15Z</time>
      </trkpt>
      <trkpt lat="49.31745" lon="-0.34975">
        <ele>8.9</ele>
        <time>2023-07-05T13:46:16Z</time>
      </trkpt>
      <trkpt lat="49.3175" lon="-0.34981">
        <ele>8.9</ele>
        <time>2023-07-05T13:46:17Z</time>
      </trkpt>
      <trkpt lat="49.31755" lon="-0.34987">
        <ele>8.9</ele>
        <time>2023-07-05T13:46:18Z</time>
      </trkpt>
      <trkpt lat="49.3176" lon="-0.34992">
        <ele>8.8</ele>
        <time>2023-07-05T13:46:19Z</time>
      </trkpt>
      <trkpt lat="49.31766" lon="-0.34998">
        <ele>8.8</ele>
        <time>2023-07-05T13:46:20Z</time>
      </trkpt>
      <trkpt lat="49.31771" lon="-0.35003">
        <ele>8.8</ele>
        <time>2023-07-05T13:46:21Z</time>
      </trkpt>
      <trkpt lat="49.31776" lon="-0.35008">
        <ele>8.7</ele>
        <time>2023-07-05T13:46:22Z</time>
      </trkpt>
      <trkpt lat="49.31781" lon="-0.35012">
        <ele>8.7</ele>
        <time>2023-07-05T13:46:23Z</time>
      </trkpt>
      <trkpt lat="49.31787" lon="-0.35017">
        <ele>8.7</ele>
        <time>2023-07-05T13:46:24Z</time>
      </trkpt>
      <trkpt lat="49.31793" lon="-0.35021">
        <ele>8.7</ele>
        <time>2023-07-05T13:46:25Z</time>
      </trkpt>
      <trkpt lat="49.31799" lon="-0.35027">
        <ele>8.7</ele>
        <time>2023-07-05T13:46:26Z</time>
      </trkpt>
      <trkpt lat="49.31805" lon="-0.35032">
        <ele>8.6</ele>
        <time>2023-07-05T13:46:27Z</time>
      </trkpt>
      <trkpt lat="49.31811" lon="-0.35038">
        <ele>8.6</ele>
        <time>2023-07-05T13:46:28Z</time>
      </trkpt>
      <trkpt lat="49.31817" lon="-0.35045">
        <ele>8.6</ele>
        <time>2023-07-05T13:46:29Z</time>
      </trkpt>
      <trkpt lat="49.31821" lon="-0.35052">
        <ele>8.5</ele>
        <time>2023-07-05T13:46:30Z</time>
      </trkpt>
      <trkpt lat="49.31826" lon="-0.35059">
        <ele>8.5</ele>
        <time>2023-07-05T13:46:31Z</time>
      </trkpt>
      <trkpt lat="49.3183" lon="-0.35067">
        <ele>8.5</ele>
        <time>2023-07-05T13:46:32Z</time>
      </trkpt>
      <trkpt lat="49.31833" lon="-0.35073">
        <ele>8.5</ele>
        <time>2023-07-05T13:46:33Z</time>
      </trkpt>
      <trkpt lat="49.31837" lon="-0.3508">
        <ele>8.4</ele>
        <time>2023-07-05T13:46:34Z</time>
      </trkpt>
      <trkpt lat="49.3184" lon="-0.35087">
        <ele>8.4</ele>
        <time>2023-07-05T13:46:35Z</time>
      </trkpt>
      <trkpt lat="49.31843" lon="-0.35093">
        <ele>8.4</ele>
        <time>2023-07-05T13:46:36Z</time>
      </trkpt>
      <trkpt lat="49.31845" lon="-0.35099">
        <ele>8.4</ele>
        <time>2023-07-05T13:46:37Z</time>
      </trkpt>
      <trkpt lat="49.31848" lon="-0.35106">
        <ele>8.4</ele>
        <time>2023-07-05T13:46:38Z</time>
      </trkpt>
      <trkpt lat="49.31851" lon="-0.35113">
        <ele>8.3</ele>
        <time>2023-07-05T13:46:39Z</time>
      </trkpt>
      <trkpt lat="49.31854" lon="-0.35121">
        <ele>8.3</ele>
        <time>2023-07-05T13:46:40Z</time>
      </trkpt>
      <trkpt lat="49.31857" lon="-0.35129">
        <ele>8.3</ele>
        <time>2023-07-05T13:46:41Z</time>
      </trkpt>
      <trkpt lat="49.31861" lon="-0.35137">
        <ele>8.3</ele>
        <time>2023-07-05T13:46:42Z</time>
      </trkpt>
      <trkpt lat="49.31864" lon="-0.35144">
        <ele>8.3</ele>
        <time>2023-07-05T13:46:43Z</time>
      </trkpt>
      <trkpt lat="49.31867" lon="-0.35152">
        <ele>8.2</ele>
        <time>2023-07-05T13:46:44Z</time>
      </trkpt>
      <trkpt lat="49.31871" lon="-0.35159">
        <ele>8.2</ele>
        <time>2023-07-05T13:46:45Z</time>
      </trkpt>
      <trkpt lat="49.31874" lon="-0.35167">
        <ele>8.2</ele>
        <time>2023-07-05T13:46:46Z</time>
      </trkpt>
      <trkpt lat="49.31877" lon="-0.35175">
        <ele>8.2</ele>
        <time>2023-07-05T13:46:47Z</time>
      </trkpt>
      <trkpt lat="49.3188" lon="-0.35183">
        <ele>8.2</ele>
        <time>2023-07-05T13:46:48Z</time>
      </trkpt>
      <trkpt lat="49.31883" lon="-0.35192">
        <ele>8.2</ele>
        <time>2023-07-05T13:46:49Z</time>
      </trkpt>
      <trkpt lat="49.31887" lon="-0.352">
        <ele>8.2</ele>
        <time>2023-07-05T13:46:50Z</time>
      </trkpt>
      <trkpt lat="49.3189" lon="-0.35208">
        <ele>8.2</ele>
        <time>2023-07-05T13:46:51Z</time>
      </trkpt>
      <trkpt lat="49.31894" lon="-0.35216">
        <ele>8.2</ele>
        <time>2023-07-05T13:46:52Z</time>
      </trkpt>
      <trkpt lat="49.31898" lon="-0.35224">
        <ele>8.2</ele>
        <time>2023-07-05T13:46:53Z</time>
      </trkpt>
      <trkpt lat="49.31903" lon="-0.35231">
        <ele>8.2</ele>
        <time>2023-07-05T13:46:54Z</time>
      </trkpt>
      <trkpt lat="49.31906" lon="-0.35239">
        <ele>8.2</ele>
        <time>2023-07-05T13:46:55Z</time>
      </trkpt>
      <trkpt lat="49.3191" lon="-0.35246">
        <ele>8.2</ele>
        <time>2023-07-05T13:46:56Z</time>
      </trkpt>
      <trkpt lat="49.31913" lon="-0.35254">
        <ele>8.1</ele>
        <time>2023-07-05T13:46:57Z</time>
      </trkpt>
      <trkpt lat="49.31917" lon="-0.35262">
        <ele>8.1</ele>
        <time>2023-07-05T13:46:58Z</time>
      </trkpt>
      <trkpt lat="49.3192" lon="-0.35269">
        <ele>8.1</ele>
        <time>2023-07-05T13:46:59Z</time>
      </trkpt>
      <trkpt lat="49.31923" lon="-0.35277">
        <ele>8.1</ele>
        <time>2023-07-05T13:47:00Z</time>
      </trkpt>
      <trkpt lat="49.31926" lon="-0.35284">
        <ele>8.1</ele>
        <time>2023-07-05T13:47:01Z</time>
      </trkpt>
      <trkpt lat="49.31929" lon="-0.35291">
        <ele>8.1</ele>
        <time>2023-07-05T13:47:02Z</time>
      </trkpt>
      <trkpt lat="49.31931" lon="-0.35297">
        <ele>8.1</ele>
        <time>2023-07-05T13:47:03Z</time>
      </trkpt>
      <trkpt lat="49.31934" lon="-0.35303">
        <ele>8.1</ele>
        <time>2023-07-05T13:47:04Z</time>
      </trkpt>
      <trkpt lat="49.31937" lon="-0.35309">
        <ele>8.1</ele>
        <time>2023-07-05T13:47:05Z</time>
      </trkpt>
      <trkpt lat="49.31939" lon="-0.35316">
        <ele>8.1</ele>
        <time>2023-07-05T13:47:06Z</time>
      </trkpt>
      <trkpt lat="49.31942" lon="-0.35322">
        <ele>8.1</ele>
        <time>2023-07-05T13:47:07Z</time>
      </trkpt>
      <trkpt lat="49.31944" lon="-0.35328">
        <ele>8.1</ele>
        <time>2023-07-05T13:47:08Z</time>
      </trkpt>
      <trkpt lat="49.31946" lon="-0.35333">
        <ele>8.1</ele>
        <time>2023-07-05T13:47:09Z</time>
      </trkpt>
      <trkpt lat="49.31949" lon="-0.3534">
        <ele>8.1</ele>
        <time>2023-07-05T13:47:10Z</time>
      </trkpt>
      <trkpt lat="49.31951" lon="-0.35346">
        <ele>8.1</ele>
        <time>2023-07-05T13:47:11Z</time>
      </trkpt>
      <trkpt lat="49.31952" lon="-0.35353">
        <ele>8.1</ele>
        <time>2023-07-05T13:47:12Z</time>
      </trkpt>
      <trkpt lat="49.31955" lon="-0.3536">
        <ele>8.2</ele>
        <time>2023-07-05T13:47:13Z</time>
      </trkpt>
      <trkpt lat="49.31957" lon="-0.35367">
        <ele>8.2</ele>
        <time>2023-07-05T13:47:14Z</time>
      </trkpt>
      <trkpt lat="49.3196" lon="-0.35374">
        <ele>8.2</ele>
        <time>2023-07-05T13:47:15Z</time>
      </trkpt>
      <trkpt lat="49.31962" lon="-0.3538">
        <ele>8.2</ele>
        <time>2023-07-05T13:47:16Z</time>
      </trkpt>
      <trkpt lat="49.31964" lon="-0.35387">
        <ele>8.3</ele>
        <time>2023-07-05T13:47:17Z</time>
      </trkpt>
      <trkpt lat="49.31967" lon="-0.35394">
        <ele>8.3</ele>
        <time>2023-07-05T13:47:18Z</time>
      </trkpt>
      <trkpt lat="49.31969" lon="-0.35401">
        <ele>8.4</ele>
        <time>2023-07-05T13:47:19Z</time>
      </trkpt>
      <trkpt lat="49.31972" lon="-0.35408">
        <ele>8.4</ele>
        <time>2023-07-05T13:47:20Z</time>
      </trkpt>
      <trkpt lat="49.31975" lon="-0.35414">
        <ele>8.4</ele>
        <time>2023-07-05T13:47:21Z</time>
      </trkpt>
      <trkpt lat="49.31977" lon="-0.3542">
        <ele>8.4</ele>
        <time>2023-07-05T13:47:22Z</time>
      </trkpt>
      <trkpt lat="49.3198" lon="-0.35427">
        <ele>8.5</ele>
        <time>2023-07-05T13:47:23Z</time>
      </trkpt>
      <trkpt lat="49.31982" lon="-0.35433">
        <ele>8.5</ele>
        <time>2023-07-05T13:47:24Z</time>
      </trkpt>
      <trkpt lat="49.31985" lon="-0.3544">
        <ele>8.6</ele>
        <time>2023-07-05T13:47:25Z</time>
      </trkpt>
      <trkpt lat="49.31988" lon="-0.35446">
        <ele>8.6</ele>
        <time>2023-07-05T13:47:26Z</time>
      </trkpt>
      <trkpt lat="49.31991" lon="-0.35452">
        <ele>8.6</ele>
        <time>2023-07-05T13:47:27Z</time>
      </trkpt>
      <trkpt lat="49.31994" lon="-0.35458">
        <ele>8.7</ele>
        <time>2023-07-05T13:47:28Z</time>
      </trkpt>
      <trkpt lat="49.31997" lon="-0.35464">
        <ele>8.7</ele>
        <time>2023-07-05T13:47:29Z</time>
      </trkpt>
      <trkpt lat="49.32" lon="-0.35471">
        <ele>8.7</ele>
        <time>2023-07-05T13:47:30Z</time>
      </trkpt>
      <trkpt lat="49.32003" lon="-0.35478">
        <ele>8.8</ele>
        <time>2023-07-05T13:47:31Z</time>
      </trkpt>
      <trkpt lat="49.32006" lon="-0.35485">
        <ele>8.8</ele>
        <time>2023-07-05T13:47:32Z</time>
      </trkpt>
      <trkpt lat="49.3201" lon="-0.35492">
        <ele>8.8</ele>
        <time>2023-07-05T13:47:33Z</time>
      </trkpt>
      <trkpt lat="49.32013" lon="-0.35499">
        <ele>8.9</ele>
        <time>2023-07-05T13:47:34Z</time>
      </trkpt>
      <trkpt lat="49.32016" lon="-0.35506">
        <ele>8.9</ele>
        <time>2023-07-05T13:47:35Z</time>
      </trkpt>
      <trkpt lat="49.32019" lon="-0.35513">
        <ele>9</ele>
        <time>2023-07-05T13:47:36Z</time>
      </trkpt>
      <trkpt lat="49.32022" lon="-0.3552">
        <ele>9</ele>
        <time>2023-07-05T13:47:37Z</time>
      </trkpt>
      <trkpt lat="49.32025" lon="-0.35526">
        <ele>9</ele>
        <time>2023-07-05T13:47:38Z</time>
      </trkpt>
      <trkpt lat="49.32028" lon="-0.35533">
        <ele>9</ele>
        <time>2023-07-05T13:47:39Z</time>
      </trkpt>
      <trkpt lat="49.3203" lon="-0.35539">
        <ele>9.1</ele>
        <time>2023-07-05T13:47:40Z</time>
      </trkpt>
      <trkpt lat="49.32033" lon="-0.35546">
        <ele>9.1</ele>
        <time>2023-07-05T13:47:41Z</time>
      </trkpt>
      <trkpt lat="49.32035" lon="-0.35553">
        <ele>9.1</ele>
        <time>2023-07-05T13:47:42Z</time>
      </trkpt>
      <trkpt lat="49.32038" lon="-0.35559">
        <ele>9.1</ele>
        <time>2023-07-05T13:47:43Z</time>
      </trkpt>
      <trkpt lat="49.32041" lon="-0.35565">
        <ele>9.1</ele>
        <time>2023-07-05T13:47:44Z</time>
      </trkpt>
      <trkpt lat="49.32043" lon="-0.35572">
        <ele>9.1</ele>
        <time>2023-07-05T13:47:45Z</time>
      </trkpt>
      <trkpt lat="49.32046" lon="-0.35578">
        <ele>9.1</ele>
        <time>2023-07-05T13:47:46Z</time>
      </trkpt>
      <trkpt lat="49.32049" lon="-0.35584">
        <ele>9.1</ele>
        <time>2023-07-05T13:47:47Z</time>
      </trkpt>
      <trkpt lat="49.32052" lon="-0.3559">
        <ele>9.1</ele>
        <time>2023-07-05T13:47:48Z</time>
      </trkpt>
      <trkpt lat="49.32055" lon="-0.35596">
        <ele>9.1</ele>
        <time>2023-07-05T13:47:49Z</time>
      </trkpt>
      <trkpt lat="49.32058" lon="-0.35603">
        <ele>9.1</ele>
        <time>2023-07-05T13:47:50Z</time>
      </trkpt>
      <trkpt lat="49.32062" lon="-0.3561">
        <ele>9</ele>
        <time>2023-07-05T13:47:51Z</time>
      </trkpt>
      <trkpt lat="49.32065" lon="-0.35617">
        <ele>9</ele>
        <time>2023-07-05T13:47:52Z</time>
      </trkpt>
      <trkpt lat="49.32068" lon="-0.35625">
        <ele>8.9</ele>
        <time>2023-07-05T13:47:53Z</time>
      </trkpt>
      <trkpt lat="49.32071" lon="-0.35632">
        <ele>8.9</ele>
        <time>2023-07-05T13:47:54Z</time>
      </trkpt>
      <trkpt lat="49.32073" lon="-0.35639">
        <ele>8.8</ele>
        <time>2023-07-05T13:47:55Z</time>
      </trkpt>
      <trkpt lat="49.32076" lon="-0.35647">
        <ele>8.8</ele>
        <time>2023-07-05T13:47:56Z</time>
      </trkpt>
      <trkpt lat="49.32079" lon="-0.35655">
        <ele>8.7</ele>
        <time>2023-07-05T13:47:57Z</time>
      </trkpt>
      <trkpt lat="49.32082" lon="-0.35663">
        <ele>8.6</ele>
        <time>2023-07-05T13:47:58Z</time>
      </trkpt>
      <trkpt lat="49.32086" lon="-0.35671">
        <ele>8.6</ele>
        <time>2023-07-05T13:47:59Z</time>
      </trkpt>
      <trkpt lat="49.32089" lon="-0.3568">
        <ele>8.5</ele>
        <time>2023-07-05T13:48:00Z</time>
      </trkpt>
      <trkpt lat="49.32093" lon="-0.35688">
        <ele>8.3</ele>
        <time>2023-07-05T13:48:01Z</time>
      </trkpt>
      <trkpt lat="49.32097" lon="-0.35697">
        <ele>8.2</ele>
        <time>2023-07-05T13:48:02Z</time>
      </trkpt>
      <trkpt lat="49.32101" lon="-0.35705">
        <ele>8.1</ele>
        <time>2023-07-05T13:48:03Z</time>
      </trkpt>
      <trkpt lat="49.32105" lon="-0.35714">
        <ele>8</ele>
        <time>2023-07-05T13:48:04Z</time>
      </trkpt>
      <trkpt lat="49.32108" lon="-0.35722">
        <ele>8</ele>
        <time>2023-07-05T13:48:05Z</time>
      </trkpt>
      <trkpt lat="49.32112" lon="-0.3573">
        <ele>7.9</ele>
        <time>2023-07-05T13:48:06Z</time>
      </trkpt>
      <trkpt lat="49.32115" lon="-0.35738">
        <ele>7.8</ele>
        <time>2023-07-05T13:48:07Z</time>
      </trkpt>
      <trkpt lat="49.32119" lon="-0.35747">
        <ele>7.7</ele>
        <time>2023-07-05T13:48:08Z</time>
      </trkpt>
      <trkpt lat="49.32123" lon="-0.35756">
        <ele>7.6</ele>
        <time>2023-07-05T13:48:09Z</time>
      </trkpt>
      <trkpt lat="49.32127" lon="-0.35765">
        <ele>7.5</ele>
        <time>2023-07-05T13:48:10Z</time>
      </trkpt>
      <trkpt lat="49.32131" lon="-0.35774">
        <ele>7.3</ele>
        <time>2023-07-05T13:48:11Z</time>
      </trkpt>
      <trkpt lat="49.32135" lon="-0.35783">
        <ele>7.2</ele>
        <time>2023-07-05T13:48:12Z</time>
      </trkpt>
      <trkpt lat="49.32139" lon="-0.35793">
        <ele>7.1</ele>
        <time>2023-07-05T13:48:13Z</time>
      </trkpt>
      <trkpt lat="49.32142" lon="-0.35801">
        <ele>7</ele>
        <time>2023-07-05T13:48:14Z</time>
      </trkpt>
      <trkpt lat="49.32146" lon="-0.3581">
        <ele>6.9</ele>
        <time>2023-07-05T13:48:15Z</time>
      </trkpt>
      <trkpt lat="49.32149" lon="-0.35819">
        <ele>6.8</ele>
        <time>2023-07-05T13:48:16Z</time>
      </trkpt>
      <trkpt lat="49.32153" lon="-0.35828">
        <ele>6.6</ele>
        <time>2023-07-05T13:48:17Z</time>
      </trkpt>
      <trkpt lat="49.32157" lon="-0.35836">
        <ele>6.5</ele>
        <time>2023-07-05T13:48:18Z</time>
      </trkpt>
      <trkpt lat="49.32161" lon="-0.35846">
        <ele>6.4</ele>
        <time>2023-07-05T13:48:19Z</time>
      </trkpt>
      <trkpt lat="49.32164" lon="-0.35855">
        <ele>6.3</ele>
        <time>2023-07-05T13:48:20Z</time>
      </trkpt>
      <trkpt lat="49.32168" lon="-0.35865">
        <ele>6.1</ele>
        <time>2023-07-05T13:48:21Z</time>
      </trkpt>
      <trkpt lat="49.32172" lon="-0.35874">
        <ele>6</ele>
        <time>2023-07-05T13:48:22Z</time>
      </trkpt>
      <trkpt lat="49.32176" lon="-0.35884">
        <ele>6</ele>
        <time>2023-07-05T13:48:23Z</time>
      </trkpt>
      <trkpt lat="49.3218" lon="-0.35894">
        <ele>6</ele>
        <time>2023-07-05T13:48:24Z</time>
      </trkpt>
      <trkpt lat="49.32183" lon="-0.35904">
        <ele>6</ele>
        <time>2023-07-05T13:48:25Z</time>
      </trkpt>
      <trkpt lat="49.32187" lon="-0.35914">
        <ele>6</ele>
        <time>2023-07-05T13:48:26Z</time>
      </trkpt>
      <trkpt lat="49.32191" lon="-0.35923">
        <ele>6</ele>
        <time>2023-07-05T13:48:27Z</time>
      </trkpt>
      <trkpt lat="49.32195" lon="-0.35933">
        <ele>6.1</ele>
        <time>2023-07-05T13:48:28Z</time>
      </trkpt>
      <trkpt lat="49.32199" lon="-0.35942">
        <ele>6.2</ele>
        <time>2023-07-05T13:48:29Z</time>
      </trkpt>
      <trkpt lat="49.32202" lon="-0.3595">
        <ele>6.3</ele>
        <time>2023-07-05T13:48:30Z</time>
      </trkpt>
      <trkpt lat="49.32206" lon="-0.35959">
        <ele>6.4</ele>
        <time>2023-07-05T13:48:31Z</time>
      </trkpt>
      <trkpt lat="49.3221" lon="-0.35967">
        <ele>6.5</ele>
        <time>2023-07-05T13:48:32Z</time>
      </trkpt>
      <trkpt lat="49.32214" lon="-0.35975">
        <ele>6.7</ele>
        <time>2023-07-05T13:48:33Z</time>
      </trkpt>
      <trkpt lat="49.32217" lon="-0.35984">
        <ele>6.9</ele>
        <time>2023-07-05T13:48:34Z</time>
      </trkpt>
      <trkpt lat="49.3222" lon="-0.35992">
        <ele>7</ele>
        <time>2023-07-05T13:48:35Z</time>
      </trkpt>
      <trkpt lat="49.32224" lon="-0.35999">
        <ele>7.2</ele>
        <time>2023-07-05T13:48:36Z</time>
      </trkpt>
      <trkpt lat="49.32228" lon="-0.36007">
        <ele>7.4</ele>
        <time>2023-07-05T13:48:37Z</time>
      </trkpt>
      <trkpt lat="49.32232" lon="-0.36015">
        <ele>7.6</ele>
        <time>2023-07-05T13:48:38Z</time>
      </trkpt>
      <trkpt lat="49.32235" lon="-0.36023">
        <ele>7.7</ele>
        <time>2023-07-05T13:48:39Z</time>
      </trkpt>
      <trkpt lat="49.32238" lon="-0.36031">
        <ele>7.9</ele>
        <time>2023-07-05T13:48:40Z</time>
      </trkpt>
      <trkpt lat="49.32242" lon="-0.36039">
        <ele>8</ele>
        <time>2023-07-05T13:48:41Z</time>
      </trkpt>
      <trkpt lat="49.32246" lon="-0.36046">
        <ele>8.2</ele>
        <time>2023-07-05T13:48:42Z</time>
      </trkpt>
      <trkpt lat="49.32249" lon="-0.36054">
        <ele>8.3</ele>
        <time>2023-07-05T13:48:43Z</time>
      </trkpt>
      <trkpt lat="49.32253" lon="-0.36061">
        <ele>8.5</ele>
        <time>2023-07-05T13:48:44Z</time>
      </trkpt>
      <trkpt lat="49.32257" lon="-0.36069">
        <ele>8.7</ele>
        <time>2023-07-05T13:48:45Z</time>
      </trkpt>
      <trkpt lat="49.32261" lon="-0.36076">
        <ele>8.8</ele>
        <time>2023-07-05T13:48:46Z</time>
      </trkpt>
      <trkpt lat="49.32265" lon="-0.36083">
        <ele>8.9</ele>
        <time>2023-07-05T13:48:47Z</time>
      </trkpt>
      <trkpt lat="49.32268" lon="-0.36091">
        <ele>9.1</ele>
        <time>2023-07-05T13:48:48Z</time>
      </trkpt>
      <trkpt lat="49.32272" lon="-0.36098">
        <ele>9.1</ele>
        <time>2023-07-05T13:48:49Z</time>
      </trkpt>
      <trkpt lat="49.32276" lon="-0.36105">
        <ele>9.2</ele>
        <time>2023-07-05T13:48:50Z</time>
      </trkpt>
      <trkpt lat="49.32279" lon="-0.36112">
        <ele>9.2</ele>
        <time>2023-07-05T13:48:51Z</time>
      </trkpt>
      <trkpt lat="49.32283" lon="-0.36119">
        <ele>9.3</ele>
        <time>2023-07-05T13:48:52Z</time>
      </trkpt>
      <trkpt lat="49.32286" lon="-0.36127">
        <ele>9.3</ele>
        <time>2023-07-05T13:48:53Z</time>
      </trkpt>
      <trkpt lat="49.3229" lon="-0.36134">
        <ele>9.4</ele>
        <time>2023-07-05T13:48:54Z</time>
      </trkpt>
      <trkpt lat="49.32295" lon="-0.36141">
        <ele>9.5</ele>
        <time>2023-07-05T13:48:55Z</time>
      </trkpt>
      <trkpt lat="49.32298" lon="-0.36149">
        <ele>9.5</ele>
        <time>2023-07-05T13:48:56Z</time>
      </trkpt>
      <trkpt lat="49.32302" lon="-0.36156">
        <ele>9.6</ele>
        <time>2023-07-05T13:48:57Z</time>
      </trkpt>
      <trkpt lat="49.32306" lon="-0.36164">
        <ele>9.6</ele>
        <time>2023-07-05T13:48:58Z</time>
      </trkpt>
      <trkpt lat="49.32309" lon="-0.36171">
        <ele>9.6</ele>
        <time>2023-07-05T13:48:59Z</time>
      </trkpt>
      <trkpt lat="49.32312" lon="-0.3618">
        <ele>9.7</ele>
        <time>2023-07-05T13:49:00Z</time>
      </trkpt>
      <trkpt lat="49.32316" lon="-0.36188">
        <ele>9.7</ele>
        <time>2023-07-05T13:49:01Z</time>
      </trkpt>
      <trkpt lat="49.32319" lon="-0.36196">
        <ele>9.8</ele>
        <time>2023-07-05T13:49:02Z</time>
      </trkpt>
      <trkpt lat="49.32322" lon="-0.36204">
        <ele>9.8</ele>
        <time>2023-07-05T13:49:03Z</time>
      </trkpt>
      <trkpt lat="49.32325" lon="-0.36212">
        <ele>9.9</ele>
        <time>2023-07-05T13:49:04Z</time>
      </trkpt>
      <trkpt lat="49.32328" lon="-0.3622">
        <ele>9.9</ele>
        <time>2023-07-05T13:49:05Z</time>
      </trkpt>
      <trkpt lat="49.32331" lon="-0.36228">
        <ele>9.9</ele>
        <time>2023-07-05T13:49:06Z</time>
      </trkpt>
      <trkpt lat="49.32334" lon="-0.36236">
        <ele>10</ele>
        <time>2023-07-05T13:49:07Z</time>
      </trkpt>
      <trkpt lat="49.32336" lon="-0.36245">
        <ele>10</ele>
        <time>2023-07-05T13:49:08Z</time>
      </trkpt>
      <trkpt lat="49.32338" lon="-0.36253">
        <ele>10.1</ele>
        <time>2023-07-05T13:49:09Z</time>
      </trkpt>
      <trkpt lat="49.32341" lon="-0.36262">
        <ele>10.1</ele>
        <time>2023-07-05T13:49:10Z</time>
      </trkpt>
      <trkpt lat="49.32344" lon="-0.3627">
        <ele>10.1</ele>
        <time>2023-07-05T13:49:11Z</time>
      </trkpt>
      <trkpt lat="49.32346" lon="-0.36279">
        <ele>10.2</ele>
        <time>2023-07-05T13:49:12Z</time>
      </trkpt>
      <trkpt lat="49.32349" lon="-0.36287">
        <ele>10.2</ele>
        <time>2023-07-05T13:49:13Z</time>
      </trkpt>
      <trkpt lat="49.32351" lon="-0.36296">
        <ele>10.3</ele>
        <time>2023-07-05T13:49:14Z</time>
      </trkpt>
      <trkpt lat="49.32354" lon="-0.36305">
        <ele>10.3</ele>
        <time>2023-07-05T13:49:15Z</time>
      </trkpt>
      <trkpt lat="49.32356" lon="-0.36314">
        <ele>10.4</ele>
        <time>2023-07-05T13:49:16Z</time>
      </trkpt>
      <trkpt lat="49.32358" lon="-0.36322">
        <ele>10.4</ele>
        <time>2023-07-05T13:49:17Z</time>
      </trkpt>
      <trkpt lat="49.3236" lon="-0.36332">
        <ele>10.4</ele>
        <time>2023-07-05T13:49:18Z</time>
      </trkpt>
      <trkpt lat="49.32363" lon="-0.36341">
        <ele>10.5</ele>
        <time>2023-07-05T13:49:19Z</time>
      </trkpt>
      <trkpt lat="49.32365" lon="-0.3635">
        <ele>10.5</ele>
        <time>2023-07-05T13:49:20Z</time>
      </trkpt>
      <trkpt lat="49.32367" lon="-0.36358">
        <ele>10.5</ele>
        <time>2023-07-05T13:49:21Z</time>
      </trkpt>
      <trkpt lat="49.32368" lon="-0.36366">
        <ele>10.5</ele>
        <time>2023-07-05T13:49:22Z</time>
      </trkpt>
      <trkpt lat="49.3237" lon="-0.36374">
        <ele>10.6</ele>
        <time>2023-07-05T13:49:23Z</time>
      </trkpt>
      <trkpt lat="49.32371" lon="-0.36382">
        <ele>10.6</ele>
        <time>2023-07-05T13:49:24Z</time>
      </trkpt>
      <trkpt lat="49.32374" lon="-0.36391">
        <ele>10.6</ele>
        <time>2023-07-05T13:49:25Z</time>
      </trkpt>
      <trkpt lat="49.32376" lon="-0.364">
        <ele>10.7</ele>
        <time>2023-07-05T13:49:26Z</time>
      </trkpt>
      <trkpt lat="49.32378" lon="-0.36409">
        <ele>10.7</ele>
        <time>2023-07-05T13:49:27Z</time>
      </trkpt>
      <trkpt lat="49.3238" lon="-0.36418">
        <ele>10.7</ele>
        <time>2023-07-05T13:49:28Z</time>
      </trkpt>
      <trkpt lat="49.32382" lon="-0.36427">
        <ele>10.7</ele>
        <time>2023-07-05T13:49:29Z</time>
      </trkpt>
      <trkpt lat="49.32385" lon="-0.36437">
        <ele>10.7</ele>
        <time>2023-07-05T13:49:30Z</time>
      </trkpt>
      <trkpt lat="49.32387" lon="-0.36446">
        <ele>10.7</ele>
        <time>2023-07-05T13:49:31Z</time>
      </trkpt>
      <trkpt lat="49.32389" lon="-0.36456">
        <ele>10.7</ele>
        <time>2023-07-05T13:49:32Z</time>
      </trkpt>
      <trkpt lat="49.32391" lon="-0.36465">
        <ele>10.7</ele>
        <time>2023-07-05T13:49:33Z</time>
      </trkpt>
      <trkpt lat="49.32393" lon="-0.36474">
        <ele>10.7</ele>
        <time>2023-07-05T13:49:34Z</time>
      </trkpt>
      <trkpt lat="49.32396" lon="-0.36483">
        <ele>10.7</ele>
        <time>2023-07-05T13:49:35Z</time>
      </trkpt>
      <trkpt lat="49.32398" lon="-0.36492">
        <ele>10.7</ele>
        <time>2023-07-05T13:49:36Z</time>
      </trkpt>
      <trkpt lat="49.324" lon="-0.36501">
        <ele>10.7</ele>
        <time>2023-07-05T13:49:37Z</time>
      </trkpt>
      <trkpt lat="49.32403" lon="-0.36509">
        <ele>10.7</ele>
        <time>2023-07-05T13:49:38Z</time>
      </trkpt>
      <trkpt lat="49.32405" lon="-0.36518">
        <ele>10.8</ele>
        <time>2023-07-05T13:49:39Z</time>
      </trkpt>
      <trkpt lat="49.32408" lon="-0.36526">
        <ele>10.8</ele>
        <time>2023-07-05T13:49:40Z</time>
      </trkpt>
      <trkpt lat="49.32411" lon="-0.36535">
        <ele>10.8</ele>
        <time>2023-07-05T13:49:41Z</time>
      </trkpt>
      <trkpt lat="49.32414" lon="-0.36542">
        <ele>10.8</ele>
        <time>2023-07-05T13:49:42Z</time>
      </trkpt>
      <trkpt lat="49.32417" lon="-0.3655">
        <ele>10.8</ele>
        <time>2023-07-05T13:49:43Z</time>
      </trkpt>
      <trkpt lat="49.3242" lon="-0.36557">
        <ele>10.8</ele>
        <time>2023-07-05T13:49:44Z</time>
      </trkpt>
      <trkpt lat="49.32422" lon="-0.36565">
        <ele>10.8</ele>
        <time>2023-07-05T13:49:45Z</time>
      </trkpt>
      <trkpt lat="49.32425" lon="-0.36573">
        <ele>10.8</ele>
        <time>2023-07-05T13:49:46Z</time>
      </trkpt>
      <trkpt lat="49.32428" lon="-0.3658">
        <ele>10.8</ele>
        <time>2023-07-05T13:49:47Z</time>
      </trkpt>
      <trkpt lat="49.32431" lon="-0.36587">
        <ele>10.8</ele>
        <time>2023-07-05T13:49:48Z</time>
      </trkpt>
      <trkpt lat="49.32434" lon="-0.36595">
        <ele>10.8</ele>
        <time>2023-07-05T13:49:49Z</time>
      </trkpt>
      <trkpt lat="49.32436" lon="-0.36602">
        <ele>10.8</ele>
        <time>2023-07-05T13:49:50Z</time>
      </trkpt>
      <trkpt lat="49.32439" lon="-0.3661">
        <ele>10.7</ele>
        <time>2023-07-05T13:49:51Z</time>
      </trkpt>
      <trkpt lat="49.32441" lon="-0.36618">
        <ele>10.7</ele>
        <time>2023-07-05T13:49:52Z</time>
      </trkpt>
      <trkpt lat="49.32443" lon="-0.36625">
        <ele>10.6</ele>
        <time>2023-07-05T13:49:53Z</time>
      </trkpt>
      <trkpt lat="49.32445" lon="-0.36633">
        <ele>10.6</ele>
        <time>2023-07-05T13:49:54Z</time>
      </trkpt>
      <trkpt lat="49.32447" lon="-0.36641">
        <ele>10.5</ele>
        <time>2023-07-05T13:49:55Z</time>
      </trkpt>
      <trkpt lat="49.32449" lon="-0.36649">
        <ele>10.5</ele>
        <time>2023-07-05T13:49:56Z</time>
      </trkpt>
      <trkpt lat="49.32451" lon="-0.36658">
        <ele>10.5</ele>
        <time>2023-07-05T13:49:57Z</time>
      </trkpt>
      <trkpt lat="49.32453" lon="-0.36665">
        <ele>10.4</ele>
        <time>2023-07-05T13:49:58Z</time>
      </trkpt>
      <trkpt lat="49.32456" lon="-0.36674">
        <ele>10.4</ele>
        <time>2023-07-05T13:49:59Z</time>
      </trkpt>
      <trkpt lat="49.32458" lon="-0.36682">
        <ele>10.3</ele>
        <time>2023-07-05T13:50:00Z</time>
      </trkpt>
      <trkpt lat="49.3246" lon="-0.3669">
        <ele>10.3</ele>
        <time>2023-07-05T13:50:01Z</time>
      </trkpt>
      <trkpt lat="49.32462" lon="-0.36699">
        <ele>10.2</ele>
        <time>2023-07-05T13:50:02Z</time>
      </trkpt>
      <trkpt lat="49.32464" lon="-0.36708">
        <ele>10.2</ele>
        <time>2023-07-05T13:50:03Z</time>
      </trkpt>
      <trkpt lat="49.32466" lon="-0.36716">
        <ele>10.1</ele>
        <time>2023-07-05T13:50:04Z</time>
      </trkpt>
      <trkpt lat="49.32468" lon="-0.36724">
        <ele>10.1</ele>
        <time>2023-07-05T13:50:05Z</time>
      </trkpt>
      <trkpt lat="49.3247" lon="-0.36733">
        <ele>10</ele>
        <time>2023-07-05T13:50:06Z</time>
      </trkpt>
      <trkpt lat="49.32472" lon="-0.36742">
        <ele>9.9</ele>
        <time>2023-07-05T13:50:07Z</time>
      </trkpt>
      <trkpt lat="49.32475" lon="-0.36751">
        <ele>9.9</ele>
        <time>2023-07-05T13:50:08Z</time>
      </trkpt>
      <trkpt lat="49.32477" lon="-0.36759">
        <ele>9.9</ele>
        <time>2023-07-05T13:50:09Z</time>
      </trkpt>
      <trkpt lat="49.32479" lon="-0.36768">
        <ele>9.8</ele>
        <time>2023-07-05T13:50:10Z</time>
      </trkpt>
      <trkpt lat="49.32481" lon="-0.36777">
        <ele>9.8</ele>
        <time>2023-07-05T13:50:11Z</time>
      </trkpt>
      <trkpt lat="49.32484" lon="-0.36785">
        <ele>9.7</ele>
        <time>2023-07-05T13:50:12Z</time>
      </trkpt>
      <trkpt lat="49.32486" lon="-0.36794">
        <ele>9.6</ele>
        <time>2023-07-05T13:50:13Z</time>
      </trkpt>
      <trkpt lat="49.32488" lon="-0.36802">
        <ele>9.5</ele>
        <time>2023-07-05T13:50:14Z</time>
      </trkpt>
      <trkpt lat="49.3249" lon="-0.3681">
        <ele>9.4</ele>
        <time>2023-07-05T13:50:15Z</time>
      </trkpt>
      <trkpt lat="49.32493" lon="-0.36819">
        <ele>9.3</ele>
        <time>2023-07-05T13:50:16Z</time>
      </trkpt>
      <trkpt lat="49.32495" lon="-0.36828">
        <ele>9.3</ele>
        <time>2023-07-05T13:50:17Z</time>
      </trkpt>
      <trkpt lat="49.32497" lon="-0.36837">
        <ele>9.3</ele>
        <time>2023-07-05T13:50:18Z</time>
      </trkpt>
      <trkpt lat="49.325" lon="-0.36846">
        <ele>9.3</ele>
        <time>2023-07-05T13:50:19Z</time>
      </trkpt>
      <trkpt lat="49.32502" lon="-0.36855">
        <ele>9.2</ele>
        <time>2023-07-05T13:50:20Z</time>
      </trkpt>
      <trkpt lat="49.32505" lon="-0.36864">
        <ele>9.2</ele>
        <time>2023-07-05T13:50:21Z</time>
      </trkpt>
      <trkpt lat="49.32507" lon="-0.36873">
        <ele>9.1</ele>
        <time>2023-07-05T13:50:22Z</time>
      </trkpt>
      <trkpt lat="49.3251" lon="-0.36883">
        <ele>9</ele>
        <time>2023-07-05T13:50:23Z</time>
      </trkpt>
      <trkpt lat="49.32512" lon="-0.36893">
        <ele>8.8</ele>
        <time>2023-07-05T13:50:24Z</time>
      </trkpt>
      <trkpt lat="49.32515" lon="-0.36903">
        <ele>8.7</ele>
        <time>2023-07-05T13:50:25Z</time>
      </trkpt>
      <trkpt lat="49.32517" lon="-0.36912">
        <ele>8.6</ele>
        <time>2023-07-05T13:50:26Z</time>
      </trkpt>
      <trkpt lat="49.32519" lon="-0.36922">
        <ele>8.5</ele>
        <time>2023-07-05T13:50:27Z</time>
      </trkpt>
      <trkpt lat="49.32521" lon="-0.36932">
        <ele>8.4</ele>
        <time>2023-07-05T13:50:28Z</time>
      </trkpt>
      <trkpt lat="49.32524" lon="-0.36942">
        <ele>8.2</ele>
        <time>2023-07-05T13:50:29Z</time>
      </trkpt>
      <trkpt lat="49.32526" lon="-0.36952">
        <ele>8.1</ele>
        <time>2023-07-05T13:50:30Z</time>
      </trkpt>
      <trkpt lat="49.32528" lon="-0.36961">
        <ele>8</ele>
        <time>2023-07-05T13:50:31Z</time>
      </trkpt>
      <trkpt lat="49.3253" lon="-0.3697">
        <ele>8</ele>
        <time>2023-07-05T13:50:32Z</time>
      </trkpt>
      <trkpt lat="49.32532" lon="-0.36979">
        <ele>7.9</ele>
        <time>2023-07-05T13:50:33Z</time>
      </trkpt>
      <trkpt lat="49.32534" lon="-0.36988">
        <ele>7.8</ele>
        <time>2023-07-05T13:50:34Z</time>
      </trkpt>
      <trkpt lat="49.32536" lon="-0.36997">
        <ele>7.7</ele>
        <time>2023-07-05T13:50:35Z</time>
      </trkpt>
      <trkpt lat="49.32538" lon="-0.37005">
        <ele>7.7</ele>
        <time>2023-07-05T13:50:36Z</time>
      </trkpt>
      <trkpt lat="49.32539" lon="-0.37013">
        <ele>7.6</ele>
        <time>2023-07-05T13:50:37Z</time>
      </trkpt>
      <trkpt lat="49.32541" lon="-0.37021">
        <ele>7.6</ele>
        <time>2023-07-05T13:50:38Z</time>
      </trkpt>
      <trkpt lat="49.32543" lon="-0.37028">
        <ele>7.6</ele>
        <time>2023-07-05T13:50:39Z</time>
      </trkpt>
      <trkpt lat="49.32544" lon="-0.37035">
        <ele>7.5</ele>
        <time>2023-07-05T13:50:40Z</time>
      </trkpt>
      <trkpt lat="49.32546" lon="-0.37042">
        <ele>7.5</ele>
        <time>2023-07-05T13:50:41Z</time>
      </trkpt>
      <trkpt lat="49.32548" lon="-0.37049">
        <ele>7.4</ele>
        <time>2023-07-05T13:50:42Z</time>
      </trkpt>
      <trkpt lat="49.32549" lon="-0.37055">
        <ele>7.4</ele>
        <time>2023-07-05T13:50:43Z</time>
      </trkpt>
      <trkpt lat="49.3255" lon="-0.37061">
        <ele>7.4</ele>
        <time>2023-07-05T13:50:44Z</time>
      </trkpt>
      <trkpt lat="49.32551" lon="-0.37066">
        <ele>7.3</ele>
        <time>2023-07-05T13:50:45Z</time>
      </trkpt>
      <trkpt lat="49.32552" lon="-0.37071">
        <ele>7.3</ele>
        <time>2023-07-05T13:50:46Z</time>
      </trkpt>
      <trkpt lat="49.32552" lon="-0.37073">
        <ele>7.3</ele>
        <time>2023-07-05T13:50:47Z</time>
      </trkpt>
      <trkpt lat="49.32552" lon="-0.37074">
        <ele>7.3</ele>
        <time>2023-07-05T13:50:48Z</time>
      </trkpt>
      <trkpt lat="49.32553" lon="-0.37075">
        <ele>7.3</ele>
        <time>2023-07-05T13:50:49Z</time>
      </trkpt>
      <trkpt lat="49.32553" lon="-0.37075">
        <ele>7.3</ele>
        <time>2023-07-05T13:50:50Z</time>
      </trkpt>
      <trkpt lat="49.32554" lon="-0.37076">
        <ele>7.2</ele>
        <time>2023-07-05T13:50:51Z</time>
      </trkpt>
      <trkpt lat="49.32554" lon="-0.37076">
        <ele>7.1</ele>
        <time>2023-07-05T13:50:52Z</time>
      </trkpt>
      <trkpt lat="49.32554" lon="-0.37077">
        <ele>7.1</ele>
        <time>2023-07-05T13:50:53Z</time>
      </trkpt>
      <trkpt lat="49.32555" lon="-0.37078">
        <ele>7.1</ele>
        <time>2023-07-05T13:50:54Z</time>
      </trkpt>
      <trkpt lat="49.32555" lon="-0.37078">
        <ele>7.1</ele>
        <time>2023-07-05T13:50:55Z</time>
      </trkpt>
      <trkpt lat="49.32555" lon="-0.37079">
        <ele>7.1</ele>
        <time>2023-07-05T13:50:56Z</time>
      </trkpt>
      <trkpt lat="49.32556" lon="-0.37079">
        <ele>7.1</ele>
        <time>2023-07-05T13:50:57Z</time>
      </trkpt>
      <trkpt lat="49.32556" lon="-0.3708">
        <ele>7.1</ele>
        <time>2023-07-05T13:50:58Z</time>
      </trkpt>
      <trkpt lat="49.32557" lon="-0.3708">
        <ele>7.1</ele>
        <time>2023-07-05T13:50:59Z</time>
      </trkpt>
      <trkpt lat="49.32557" lon="-0.37081">
        <ele>7</ele>
        <time>2023-07-05T13:51:02Z</time>
      </trkpt>
      <trkpt lat="49.32557" lon="-0.37081">
        <ele>7</ele>
        <time>2023-07-05T13:51:03Z</time>
      </trkpt>
      <trkpt lat="49.32558" lon="-0.37082">
        <ele>7</ele>
        <time>2023-07-05T13:51:04Z</time>
      </trkpt>
      <trkpt lat="49.32561" lon="-0.37082">
        <ele>7</ele>
        <time>2023-07-05T13:51:05Z</time>
      </trkpt>
      <trkpt lat="49.32565" lon="-0.37082">
        <ele>6.9</ele>
        <time>2023-07-05T13:51:06Z</time>
      </trkpt>
      <trkpt lat="49.32568" lon="-0.37082">
        <ele>6.9</ele>
        <time>2023-07-05T13:51:07Z</time>
      </trkpt>
      <trkpt lat="49.32572" lon="-0.37082">
        <ele>6.8</ele>
        <time>2023-07-05T13:51:08Z</time>
      </trkpt>
      <trkpt lat="49.32575" lon="-0.37081">
        <ele>6.8</ele>
        <time>2023-07-05T13:51:09Z</time>
      </trkpt>
      <trkpt lat="49.32578" lon="-0.37081">
        <ele>6.7</ele>
        <time>2023-07-05T13:51:10Z</time>
      </trkpt>
      <trkpt lat="49.32581" lon="-0.3708">
        <ele>6.7</ele>
        <time>2023-07-05T13:51:11Z</time>
      </trkpt>
      <trkpt lat="49.32584" lon="-0.3708">
        <ele>6.6</ele>
        <time>2023-07-05T13:51:12Z</time>
      </trkpt>
      <trkpt lat="49.32587" lon="-0.37079">
        <ele>6.4</ele>
        <time>2023-07-05T13:51:13Z</time>
      </trkpt>
      <trkpt lat="49.3259" lon="-0.37078">
        <ele>6.2</ele>
        <time>2023-07-05T13:51:14Z</time>
      </trkpt>
      <trkpt lat="49.32593" lon="-0.37077">
        <ele>5.9</ele>
        <time>2023-07-05T13:51:15Z</time>
      </trkpt>
      <trkpt lat="49.32596" lon="-0.37076">
        <ele>5.7</ele>
        <time>2023-07-05T13:51:16Z</time>
      </trkpt>
      <trkpt lat="49.32599" lon="-0.37078">
        <ele>5.4</ele>
        <time>2023-07-05T13:51:17Z</time>
      </trkpt>
      <trkpt lat="49.326" lon="-0.37079">
        <ele>5.3</ele>
        <time>2023-07-05T13:51:18Z</time>
      </trkpt>
      <trkpt lat="49.32602" lon="-0.37083">
        <ele>5.3</ele>
        <time>2023-07-05T13:51:19Z</time>
      </trkpt>
      <trkpt lat="49.32603" lon="-0.37087">
        <ele>5.2</ele>
        <time>2023-07-05T13:51:20Z</time>
      </trkpt>
      <trkpt lat="49.32605" lon="-0.37091">
        <ele>5.2</ele>
        <time>2023-07-05T13:51:21Z</time>
      </trkpt>
      <trkpt lat="49.32606" lon="-0.37095">
        <ele>5.1</ele>
        <time>2023-07-05T13:51:22Z</time>
      </trkpt>
      <trkpt lat="49.32608" lon="-0.371">
        <ele>5.1</ele>
        <time>2023-07-05T13:51:23Z</time>
      </trkpt>
      <trkpt lat="49.32609" lon="-0.37104">
        <ele>5.1</ele>
        <time>2023-07-05T13:51:24Z</time>
      </trkpt>
      <trkpt lat="49.3261" lon="-0.37109">
        <ele>5</ele>
        <time>2023-07-05T13:51:25Z</time>
      </trkpt>
      <trkpt lat="49.32613" lon="-0.37116">
        <ele>5</ele>
        <time>2023-07-05T13:51:26Z</time>
      </trkpt>
      <trkpt lat="49.32615" lon="-0.37122">
        <ele>4.9</ele>
        <time>2023-07-05T13:51:27Z</time>
      </trkpt>
      <trkpt lat="49.32617" lon="-0.37128">
        <ele>4.9</ele>
        <time>2023-07-05T13:51:28Z</time>
      </trkpt>
      <trkpt lat="49.32618" lon="-0.37133">
        <ele>4.8</ele>
        <time>2023-07-05T13:51:29Z</time>
      </trkpt>
      <trkpt lat="49.32619" lon="-0.37139">
        <ele>4.8</ele>
        <time>2023-07-05T13:51:30Z</time>
      </trkpt>
      <trkpt lat="49.32621" lon="-0.37144">
        <ele>4.8</ele>
        <time>2023-07-05T13:51:31Z</time>
      </trkpt>
      <trkpt lat="49.32622" lon="-0.3715">
        <ele>4.7</ele>
        <time>2023-07-05T13:51:32Z</time>
      </trkpt>
      <trkpt lat="49.32624" lon="-0.37156">
        <ele>4.7</ele>
        <time>2023-07-05T13:51:33Z</time>
      </trkpt>
      <trkpt lat="49.32626" lon="-0.37162">
        <ele>4.6</ele>
        <time>2023-07-05T13:51:34Z</time>
      </trkpt>
      <trkpt lat="49.32628" lon="-0.37167">
        <ele>4.6</ele>
        <time>2023-07-05T13:51:35Z</time>
      </trkpt>
      <trkpt lat="49.32629" lon="-0.37173">
        <ele>4.5</ele>
        <time>2023-07-05T13:51:36Z</time>
      </trkpt>
      <trkpt lat="49.32631" lon="-0.37177">
        <ele>4.5</ele>
        <time>2023-07-05T13:51:37Z</time>
      </trkpt>
      <trkpt lat="49.32632" lon="-0.37182">
        <ele>4.5</ele>
        <time>2023-07-05T13:51:38Z</time>
      </trkpt>
      <trkpt lat="49.32634" lon="-0.37187">
        <ele>4.4</ele>
        <time>2023-07-05T13:51:39Z</time>
      </trkpt>
      <trkpt lat="49.32635" lon="-0.37191">
        <ele>4.4</ele>
        <time>2023-07-05T13:51:40Z</time>
      </trkpt>
      <trkpt lat="49.32636" lon="-0.37195">
        <ele>4.4</ele>
        <time>2023-07-05T13:51:41Z</time>
      </trkpt>
      <trkpt lat="49.32638" lon="-0.37199">
        <ele>4.3</ele>
        <time>2023-07-05T13:51:42Z</time>
      </trkpt>
      <trkpt lat="49.32639" lon="-0.37203">
        <ele>4.3</ele>
        <time>2023-07-05T13:51:43Z</time>
      </trkpt>
      <trkpt lat="49.32641" lon="-0.37208">
        <ele>4.3</ele>
        <time>2023-07-05T13:51:44Z</time>
      </trkpt>
      <trkpt lat="49.32642" lon="-0.37213">
        <ele>4.2</ele>
        <time>2023-07-05T13:51:45Z</time>
      </trkpt>
      <trkpt lat="49.32643" lon="-0.37218">
        <ele>4.2</ele>
        <time>2023-07-05T13:51:46Z</time>
      </trkpt>
      <trkpt lat="49.32644" lon="-0.37223">
        <ele>4.2</ele>
        <time>2023-07-05T13:51:47Z</time>
      </trkpt>
      <trkpt lat="49.32646" lon="-0.37228">
        <ele>4.2</ele>
        <time>2023-07-05T13:51:48Z</time>
      </trkpt>
      <trkpt lat="49.32648" lon="-0.37233">
        <ele>4.1</ele>
        <time>2023-07-05T13:51:49Z</time>
      </trkpt>
      <trkpt lat="49.32649" lon="-0.37239">
        <ele>4.1</ele>
        <time>2023-07-05T13:51:50Z</time>
      </trkpt>
      <trkpt lat="49.32651" lon="-0.37245">
        <ele>4.1</ele>
        <time>2023-07-05T13:51:51Z</time>
      </trkpt>
      <trkpt lat="49.32653" lon="-0.3725">
        <ele>4.1</ele>
        <time>2023-07-05T13:51:52Z</time>
      </trkpt>
      <trkpt lat="49.32654" lon="-0.37255">
        <ele>4.1</ele>
        <time>2023-07-05T13:51:53Z</time>
      </trkpt>
      <trkpt lat="49.32656" lon="-0.37261">
        <ele>4.1</ele>
        <time>2023-07-05T13:51:54Z</time>
      </trkpt>
      <trkpt lat="49.32657" lon="-0.37266">
        <ele>4.1</ele>
        <time>2023-07-05T13:51:55Z</time>
      </trkpt>
      <trkpt lat="49.32659" lon="-0.37272">
        <ele>4.1</ele>
        <time>2023-07-05T13:51:56Z</time>
      </trkpt>
      <trkpt lat="49.3266" lon="-0.37276">
        <ele>4.1</ele>
        <time>2023-07-05T13:51:57Z</time>
      </trkpt>
      <trkpt lat="49.32661" lon="-0.37281">
        <ele>4.2</ele>
        <time>2023-07-05T13:51:58Z</time>
      </trkpt>
      <trkpt lat="49.32662" lon="-0.37286">
        <ele>4.2</ele>
        <time>2023-07-05T13:51:59Z</time>
      </trkpt>
      <trkpt lat="49.32662" lon="-0.37291">
        <ele>4.2</ele>
        <time>2023-07-05T13:52:00Z</time>
      </trkpt>
      <trkpt lat="49.3266" lon="-0.37295">
        <ele>4.3</ele>
        <time>2023-07-05T13:52:01Z</time>
      </trkpt>
      <trkpt lat="49.32656" lon="-0.37298">
        <ele>4.3</ele>
        <time>2023-07-05T13:52:02Z</time>
      </trkpt>
      <trkpt lat="49.32653" lon="-0.373">
        <ele>4.4</ele>
        <time>2023-07-05T13:52:03Z</time>
      </trkpt>
      <trkpt lat="49.32649" lon="-0.37302">
        <ele>4.5</ele>
        <time>2023-07-05T13:52:04Z</time>
      </trkpt>
      <trkpt lat="49.32645" lon="-0.37304">
        <ele>4.7</ele>
        <time>2023-07-05T13:52:05Z</time>
      </trkpt>
      <trkpt lat="49.32642" lon="-0.37307">
        <ele>4.8</ele>
        <time>2023-07-05T13:52:06Z</time>
      </trkpt>
      <trkpt lat="49.32638" lon="-0.37311">
        <ele>4.9</ele>
        <time>2023-07-05T13:52:07Z</time>
      </trkpt>
      <trkpt lat="49.32635" lon="-0.37314">
        <ele>5.1</ele>
        <time>2023-07-05T13:52:08Z</time>
      </trkpt>
      <trkpt lat="49.32632" lon="-0.37317">
        <ele>5.2</ele>
        <time>2023-07-05T13:52:09Z</time>
      </trkpt>
      <trkpt lat="49.32629" lon="-0.37319">
        <ele>5.3</ele>
        <time>2023-07-05T13:52:10Z</time>
      </trkpt>
      <trkpt lat="49.32626" lon="-0.37321">
        <ele>5.4</ele>
        <time>2023-07-05T13:52:11Z</time>
      </trkpt>
      <trkpt lat="49.32622" lon="-0.37323">
        <ele>5.6</ele>
        <time>2023-07-05T13:52:12Z</time>
      </trkpt>
      <trkpt lat="49.32619" lon="-0.37326">
        <ele>5.7</ele>
        <time>2023-07-05T13:52:13Z</time>
      </trkpt>
      <trkpt lat="49.32615" lon="-0.37329">
        <ele>5.9</ele>
        <time>2023-07-05T13:52:14Z</time>
      </trkpt>
      <trkpt lat="49.32612" lon="-0.37332">
        <ele>6</ele>
        <time>2023-07-05T13:52:15Z</time>
      </trkpt>
      <trkpt lat="49.32609" lon="-0.37336">
        <ele>6.2</ele>
        <time>2023-07-05T13:52:16Z</time>
      </trkpt>
      <trkpt lat="49.32608" lon="-0.37342">
        <ele>6.4</ele>
        <time>2023-07-05T13:52:17Z</time>
      </trkpt>
      <trkpt lat="49.32609" lon="-0.37348">
        <ele>6.4</ele>
        <time>2023-07-05T13:52:18Z</time>
      </trkpt>
      <trkpt lat="49.3261" lon="-0.37355">
        <ele>6.5</ele>
        <time>2023-07-05T13:52:19Z</time>
      </trkpt>
      <trkpt lat="49.32612" lon="-0.3736">
        <ele>6.5</ele>
        <time>2023-07-05T13:52:20Z</time>
      </trkpt>
      <trkpt lat="49.32615" lon="-0.37365">
        <ele>6.6</ele>
        <time>2023-07-05T13:52:21Z</time>
      </trkpt>
      <trkpt lat="49.32616" lon="-0.37369">
        <ele>6.6</ele>
        <time>2023-07-05T13:52:22Z</time>
      </trkpt>
      <trkpt lat="49.32617" lon="-0.37375">
        <ele>6.7</ele>
        <time>2023-07-05T13:52:23Z</time>
      </trkpt>
      <trkpt lat="49.32617" lon="-0.3738">
        <ele>6.8</ele>
        <time>2023-07-05T13:52:24Z</time>
      </trkpt>
      <trkpt lat="49.32616" lon="-0.37384">
        <ele>6.8</ele>
        <time>2023-07-05T13:52:25Z</time>
      </trkpt>
      <trkpt lat="49.32614" lon="-0.37388">
        <ele>6.8</ele>
        <time>2023-07-05T13:52:26Z</time>
      </trkpt>
      <trkpt lat="49.32612" lon="-0.37392">
        <ele>6.9</ele>
        <time>2023-07-05T13:52:27Z</time>
      </trkpt>
      <trkpt lat="49.32611" lon="-0.37393">
        <ele>6.9</ele>
        <time>2023-07-05T13:52:28Z</time>
      </trkpt>
      <trkpt lat="49.32611" lon="-0.37398">
        <ele>7.1</ele>
        <time>2023-07-05T13:52:29Z</time>
      </trkpt>
      <trkpt lat="49.32612" lon="-0.37402">
        <ele>7.2</ele>
        <time>2023-07-05T13:52:30Z</time>
      </trkpt>
      <trkpt lat="49.32614" lon="-0.37407">
        <ele>7.2</ele>
        <time>2023-07-05T13:52:31Z</time>
      </trkpt>
      <trkpt lat="49.32617" lon="-0.37412">
        <ele>7.2</ele>
        <time>2023-07-05T13:52:32Z</time>
      </trkpt>
      <trkpt lat="49.32619" lon="-0.37417">
        <ele>7.3</ele>
        <time>2023-07-05T13:52:33Z</time>
      </trkpt>
      <trkpt lat="49.32621" lon="-0.37421">
        <ele>7.3</ele>
        <time>2023-07-05T13:52:34Z</time>
      </trkpt>
      <trkpt lat="49.32624" lon="-0.37427">
        <ele>7.3</ele>
        <time>2023-07-05T13:52:35Z</time>
      </trkpt>
      <trkpt lat="49.32627" lon="-0.37432">
        <ele>7.4</ele>
        <time>2023-07-05T13:52:36Z</time>
      </trkpt>
      <trkpt lat="49.32629" lon="-0.37438">
        <ele>7.4</ele>
        <time>2023-07-05T13:52:37Z</time>
      </trkpt>
      <trkpt lat="49.32633" lon="-0.37443">
        <ele>7.4</ele>
        <time>2023-07-05T13:52:38Z</time>
      </trkpt>
      <trkpt lat="49.32636" lon="-0.3745">
        <ele>7.5</ele>
        <time>2023-07-05T13:52:39Z</time>
      </trkpt>
      <trkpt lat="49.3264" lon="-0.37456">
        <ele>7.5</ele>
        <time>2023-07-05T13:52:40Z</time>
      </trkpt>
      <trkpt lat="49.32643" lon="-0.37461">
        <ele>7.6</ele>
        <time>2023-07-05T13:52:41Z</time>
      </trkpt>
      <trkpt lat="49.32646" lon="-0.37467">
        <ele>7.6</ele>
        <time>2023-07-05T13:52:42Z</time>
      </trkpt>
      <trkpt lat="49.32649" lon="-0.37473">
        <ele>7.6</ele>
        <time>2023-07-05T13:52:43Z</time>
      </trkpt>
      <trkpt lat="49.32652" lon="-0.3748">
        <ele>7.7</ele>
        <time>2023-07-05T13:52:44Z</time>
      </trkpt>
      <trkpt lat="49.32656" lon="-0.37486">
        <ele>7.7</ele>
        <time>2023-07-05T13:52:45Z</time>
      </trkpt>
      <trkpt lat="49.32659" lon="-0.37493">
        <ele>7.8</ele>
        <time>2023-07-05T13:52:46Z</time>
      </trkpt>
      <trkpt lat="49.32662" lon="-0.37499">
        <ele>7.8</ele>
        <time>2023-07-05T13:52:47Z</time>
      </trkpt>
      <trkpt lat="49.32665" lon="-0.37506">
        <ele>7.9</ele>
        <time>2023-07-05T13:52:48Z</time>
      </trkpt>
      <trkpt lat="49.32669" lon="-0.37512">
        <ele>7.9</ele>
        <time>2023-07-05T13:52:49Z</time>
      </trkpt>
      <trkpt lat="49.32673" lon="-0.37518">
        <ele>7.9</ele>
        <time>2023-07-05T13:52:50Z</time>
      </trkpt>
      <trkpt lat="49.32676" lon="-0.37523">
        <ele>8</ele>
        <time>2023-07-05T13:52:51Z</time>
      </trkpt>
      <trkpt lat="49.3268" lon="-0.3753">
        <ele>8</ele>
        <time>2023-07-05T13:52:52Z</time>
      </trkpt>
      <trkpt lat="49.32684" lon="-0.37536">
        <ele>8</ele>
        <time>2023-07-05T13:52:53Z</time>
      </trkpt>
      <trkpt lat="49.32687" lon="-0.37543">
        <ele>8.1</ele>
        <time>2023-07-05T13:52:54Z</time>
      </trkpt>
      <trkpt lat="49.32691" lon="-0.3755">
        <ele>8.1</ele>
        <time>2023-07-05T13:52:55Z</time>
      </trkpt>
      <trkpt lat="49.32695" lon="-0.37556">
        <ele>8.2</ele>
        <time>2023-07-05T13:52:56Z</time>
      </trkpt>
      <trkpt lat="49.32699" lon="-0.37563">
        <ele>8.2</ele>
        <time>2023-07-05T13:52:57Z</time>
      </trkpt>
      <trkpt lat="49.32702" lon="-0.3757">
        <ele>8.2</ele>
        <time>2023-07-05T13:52:58Z</time>
      </trkpt>
      <trkpt lat="49.32706" lon="-0.37576">
        <ele>8.2</ele>
        <time>2023-07-05T13:52:59Z</time>
      </trkpt>
      <trkpt lat="49.3271" lon="-0.37583">
        <ele>8.3</ele>
        <time>2023-07-05T13:53:00Z</time>
      </trkpt>
      <trkpt lat="49.32714" lon="-0.3759">
        <ele>8.3</ele>
        <time>2023-07-05T13:53:01Z</time>
      </trkpt>
      <trkpt lat="49.32717" lon="-0.37598">
        <ele>8.3</ele>
        <time>2023-07-05T13:53:02Z</time>
      </trkpt>
      <trkpt lat="49.32721" lon="-0.37606">
        <ele>8.3</ele>
        <time>2023-07-05T13:53:03Z</time>
      </trkpt>
      <trkpt lat="49.32724" lon="-0.37614">
        <ele>8.3</ele>
        <time>2023-07-05T13:53:04Z</time>
      </trkpt>
      <trkpt lat="49.32727" lon="-0.37622">
        <ele>8.3</ele>
        <time>2023-07-05T13:53:05Z</time>
      </trkpt>
      <trkpt lat="49.32729" lon="-0.37631">
        <ele>8.3</ele>
        <time>2023-07-05T13:53:06Z</time>
      </trkpt>
      <trkpt lat="49.32732" lon="-0.3764">
        <ele>8.2</ele>
        <time>2023-07-05T13:53:07Z</time>
      </trkpt>
      <trkpt lat="49.32735" lon="-0.37648">
        <ele>8.2</ele>
        <time>2023-07-05T13:53:08Z</time>
      </trkpt>
      <trkpt lat="49.32738" lon="-0.37657">
        <ele>8.2</ele>
        <time>2023-07-05T13:53:09Z</time>
      </trkpt>
      <trkpt lat="49.32741" lon="-0.37666">
        <ele>8.2</ele>
        <time>2023-07-05T13:53:10Z</time>
      </trkpt>
      <trkpt lat="49.32743" lon="-0.37675">
        <ele>8.2</ele>
        <time>2023-07-05T13:53:11Z</time>
      </trkpt>
      <trkpt lat="49.32746" lon="-0.37685">
        <ele>8.2</ele>
        <time>2023-07-05T13:53:12Z</time>
      </trkpt>
      <trkpt lat="49.32748" lon="-0.37694">
        <ele>8.2</ele>
        <time>2023-07-05T13:53:13Z</time>
      </trkpt>
      <trkpt lat="49.3275" lon="-0.37704">
        <ele>8.2</ele>
        <time>2023-07-05T13:53:14Z</time>
      </trkpt>
      <trkpt lat="49.32752" lon="-0.37713">
        <ele>8.1</ele>
        <time>2023-07-05T13:53:15Z</time>
      </trkpt>
      <trkpt lat="49.32754" lon="-0.37723">
        <ele>8.1</ele>
        <time>2023-07-05T13:53:16Z</time>
      </trkpt>
      <trkpt lat="49.32756" lon="-0.37732">
        <ele>8.1</ele>
        <time>2023-07-05T13:53:17Z</time>
      </trkpt>
      <trkpt lat="49.32758" lon="-0.37742">
        <ele>8.1</ele>
        <time>2023-07-05T13:53:18Z</time>
      </trkpt>
      <trkpt lat="49.3276" lon="-0.37751">
        <ele>8.1</ele>
        <time>2023-07-05T13:53:19Z</time>
      </trkpt>
      <trkpt lat="49.32762" lon="-0.3776">
        <ele>8.1</ele>
        <time>2023-07-05T13:53:20Z</time>
      </trkpt>
      <trkpt lat="49.32765" lon="-0.3777">
        <ele>8.1</ele>
        <time>2023-07-05T13:53:21Z</time>
      </trkpt>
      <trkpt lat="49.32768" lon="-0.3778">
        <ele>8.1</ele>
        <time>2023-07-05T13:53:22Z</time>
      </trkpt>
      <trkpt lat="49.3277" lon="-0.37789">
        <ele>8.1</ele>
        <time>2023-07-05T13:53:23Z</time>
      </trkpt>
      <trkpt lat="49.32773" lon="-0.37799">
        <ele>8</ele>
        <time>2023-07-05T13:53:24Z</time>
      </trkpt>
      <trkpt lat="49.32775" lon="-0.37809">
        <ele>8</ele>
        <time>2023-07-05T13:53:25Z</time>
      </trkpt>
      <trkpt lat="49.32777" lon="-0.37819">
        <ele>8</ele>
        <time>2023-07-05T13:53:26Z</time>
      </trkpt>
      <trkpt lat="49.32779" lon="-0.37829">
        <ele>8</ele>
        <time>2023-07-05T13:53:27Z</time>
      </trkpt>
      <trkpt lat="49.32781" lon="-0.37839">
        <ele>7.9</ele>
        <time>2023-07-05T13:53:28Z</time>
      </trkpt>
      <trkpt lat="49.32784" lon="-0.3785">
        <ele>7.9</ele>
        <time>2023-07-05T13:53:29Z</time>
      </trkpt>
      <trkpt lat="49.32786" lon="-0.3786">
        <ele>7.9</ele>
        <time>2023-07-05T13:53:30Z</time>
      </trkpt>
      <trkpt lat="49.32789" lon="-0.3787">
        <ele>7.8</ele>
        <time>2023-07-05T13:53:31Z</time>
      </trkpt>
      <trkpt lat="49.32791" lon="-0.37881">
        <ele>7.8</ele>
        <time>2023-07-05T13:53:32Z</time>
      </trkpt>
      <trkpt lat="49.32794" lon="-0.37891">
        <ele>7.7</ele>
        <time>2023-07-05T13:53:33Z</time>
      </trkpt>
      <trkpt lat="49.32796" lon="-0.37901">
        <ele>7.7</ele>
        <time>2023-07-05T13:53:34Z</time>
      </trkpt>
      <trkpt lat="49.32798" lon="-0.37911">
        <ele>7.7</ele>
        <time>2023-07-05T13:53:35Z</time>
      </trkpt>
      <trkpt lat="49.328" lon="-0.37922">
        <ele>7.6</ele>
        <time>2023-07-05T13:53:36Z</time>
      </trkpt>
      <trkpt lat="49.32803" lon="-0.37931">
        <ele>7.6</ele>
        <time>2023-07-05T13:53:37Z</time>
      </trkpt>
      <trkpt lat="49.32805" lon="-0.3794">
        <ele>7.5</ele>
        <time>2023-07-05T13:53:38Z</time>
      </trkpt>
      <trkpt lat="49.32807" lon="-0.3795">
        <ele>7.5</ele>
        <time>2023-07-05T13:53:39Z</time>
      </trkpt>
      <trkpt lat="49.32809" lon="-0.37959">
        <ele>7.5</ele>
        <time>2023-07-05T13:53:40Z</time>
      </trkpt>
      <trkpt lat="49.32812" lon="-0.37968">
        <ele>7.4</ele>
        <time>2023-07-05T13:53:41Z</time>
      </trkpt>
      <trkpt lat="49.32813" lon="-0.37975">
        <ele>7.4</ele>
        <time>2023-07-05T13:53:42Z</time>
      </trkpt>
      <trkpt lat="49.32815" lon="-0.37982">
        <ele>7.3</ele>
        <time>2023-07-05T13:53:43Z</time>
      </trkpt>
      <trkpt lat="49.32817" lon="-0.3799">
        <ele>7.3</ele>
        <time>2023-07-05T13:53:44Z</time>
      </trkpt>
      <trkpt lat="49.32819" lon="-0.37998">
        <ele>7.2</ele>
        <time>2023-07-05T13:53:45Z</time>
      </trkpt>
      <trkpt lat="49.32821" lon="-0.38007">
        <ele>7.1</ele>
        <time>2023-07-05T13:53:46Z</time>
      </trkpt>
      <trkpt lat="49.32824" lon="-0.38016">
        <ele>7</ele>
        <time>2023-07-05T13:53:47Z</time>
      </trkpt>
      <trkpt lat="49.32826" lon="-0.38025">
        <ele>7</ele>
        <time>2023-07-05T13:53:48Z</time>
      </trkpt>
      <trkpt lat="49.32828" lon="-0.38035">
        <ele>6.9</ele>
        <time>2023-07-05T13:53:49Z</time>
      </trkpt>
      <trkpt lat="49.3283" lon="-0.38044">
        <ele>6.8</ele>
        <time>2023-07-05T13:53:50Z</time>
      </trkpt>
      <trkpt lat="49.32832" lon="-0.38054">
        <ele>6.7</ele>
        <time>2023-07-05T13:53:51Z</time>
      </trkpt>
      <trkpt lat="49.32835" lon="-0.38064">
        <ele>6.7</ele>
        <time>2023-07-05T13:53:52Z</time>
      </trkpt>
      <trkpt lat="49.32837" lon="-0.38075">
        <ele>6.7</ele>
        <time>2023-07-05T13:53:53Z</time>
      </trkpt>
      <trkpt lat="49.3284" lon="-0.38085">
        <ele>6.6</ele>
        <time>2023-07-05T13:53:54Z</time>
      </trkpt>
      <trkpt lat="49.32842" lon="-0.38095">
        <ele>6.6</ele>
        <time>2023-07-05T13:53:55Z</time>
      </trkpt>
      <trkpt lat="49.32845" lon="-0.38105">
        <ele>6.5</ele>
        <time>2023-07-05T13:53:56Z</time>
      </trkpt>
      <trkpt lat="49.32847" lon="-0.38116">
        <ele>6.5</ele>
        <time>2023-07-05T13:53:57Z</time>
      </trkpt>
      <trkpt lat="49.32849" lon="-0.38126">
        <ele>6.4</ele>
        <time>2023-07-05T13:53:58Z</time>
      </trkpt>
      <trkpt lat="49.32852" lon="-0.38137">
        <ele>6.4</ele>
        <time>2023-07-05T13:53:59Z</time>
      </trkpt>
      <trkpt lat="49.32855" lon="-0.38147">
        <ele>6.3</ele>
        <time>2023-07-05T13:54:00Z</time>
      </trkpt>
      <trkpt lat="49.32858" lon="-0.38157">
        <ele>6.3</ele>
        <time>2023-07-05T13:54:01Z</time>
      </trkpt>
      <trkpt lat="49.3286" lon="-0.38168">
        <ele>6.2</ele>
        <time>2023-07-05T13:54:02Z</time>
      </trkpt>
      <trkpt lat="49.32863" lon="-0.38178">
        <ele>6.1</ele>
        <time>2023-07-05T13:54:03Z</time>
      </trkpt>
      <trkpt lat="49.32866" lon="-0.38189">
        <ele>6.1</ele>
        <time>2023-07-05T13:54:04Z</time>
      </trkpt>
      <trkpt lat="49.32868" lon="-0.382">
        <ele>6</ele>
        <time>2023-07-05T13:54:05Z</time>
      </trkpt>
      <trkpt lat="49.32871" lon="-0.38211">
        <ele>6</ele>
        <time>2023-07-05T13:54:06Z</time>
      </trkpt>
      <trkpt lat="49.32873" lon="-0.38222">
        <ele>5.9</ele>
        <time>2023-07-05T13:54:07Z</time>
      </trkpt>
      <trkpt lat="49.32876" lon="-0.38232">
        <ele>5.9</ele>
        <time>2023-07-05T13:54:08Z</time>
      </trkpt>
      <trkpt lat="49.32879" lon="-0.38243">
        <ele>5.9</ele>
        <time>2023-07-05T13:54:09Z</time>
      </trkpt>
      <trkpt lat="49.32881" lon="-0.38253">
        <ele>5.8</ele>
        <time>2023-07-05T13:54:10Z</time>
      </trkpt>
      <trkpt lat="49.32884" lon="-0.38264">
        <ele>5.8</ele>
        <time>2023-07-05T13:54:11Z</time>
      </trkpt>
      <trkpt lat="49.32886" lon="-0.38274">
        <ele>5.8</ele>
        <time>2023-07-05T13:54:12Z</time>
      </trkpt>
      <trkpt lat="49.32888" lon="-0.38285">
        <ele>5.7</ele>
        <time>2023-07-05T13:54:13Z</time>
      </trkpt>
      <trkpt lat="49.3289" lon="-0.38296">
        <ele>5.7</ele>
        <time>2023-07-05T13:54:14Z</time>
      </trkpt>
      <trkpt lat="49.32892" lon="-0.38307">
        <ele>5.7</ele>
        <time>2023-07-05T13:54:15Z</time>
      </trkpt>
      <trkpt lat="49.32894" lon="-0.38317">
        <ele>5.7</ele>
        <time>2023-07-05T13:54:16Z</time>
      </trkpt>
      <trkpt lat="49.32896" lon="-0.38328">
        <ele>5.7</ele>
        <time>2023-07-05T13:54:17Z</time>
      </trkpt>
      <trkpt lat="49.32899" lon="-0.38338">
        <ele>5.6</ele>
        <time>2023-07-05T13:54:18Z</time>
      </trkpt>
      <trkpt lat="49.32901" lon="-0.38349">
        <ele>5.6</ele>
        <time>2023-07-05T13:54:19Z</time>
      </trkpt>
      <trkpt lat="49.32904" lon="-0.38358">
        <ele>5.6</ele>
        <time>2023-07-05T13:54:20Z</time>
      </trkpt>
      <trkpt lat="49.32908" lon="-0.38369">
        <ele>5.6</ele>
        <time>2023-07-05T13:54:21Z</time>
      </trkpt>
      <trkpt lat="49.32911" lon="-0.38379">
        <ele>5.6</ele>
        <time>2023-07-05T13:54:22Z</time>
      </trkpt>
      <trkpt lat="49.32914" lon="-0.38389">
        <ele>5.5</ele>
        <time>2023-07-05T13:54:23Z</time>
      </trkpt>
      <trkpt lat="49.32916" lon="-0.384">
        <ele>5.5</ele>
        <time>2023-07-05T13:54:24Z</time>
      </trkpt>
      <trkpt lat="49.32919" lon="-0.3841">
        <ele>5.5</ele>
        <time>2023-07-05T13:54:25Z</time>
      </trkpt>
      <trkpt lat="49.32921" lon="-0.38421">
        <ele>5.5</ele>
        <time>2023-07-05T13:54:26Z</time>
      </trkpt>
      <trkpt lat="49.32924" lon="-0.38431">
        <ele>5.5</ele>
        <time>2023-07-05T13:54:27Z</time>
      </trkpt>
      <trkpt lat="49.32926" lon="-0.38441">
        <ele>5.5</ele>
        <time>2023-07-05T13:54:28Z</time>
      </trkpt>
      <trkpt lat="49.32929" lon="-0.38451">
        <ele>5.5</ele>
        <time>2023-07-05T13:54:29Z</time>
      </trkpt>
      <trkpt lat="49.32931" lon="-0.38461">
        <ele>5.5</ele>
        <time>2023-07-05T13:54:30Z</time>
      </trkpt>
      <trkpt lat="49.32933" lon="-0.38471">
        <ele>5.5</ele>
        <time>2023-07-05T13:54:31Z</time>
      </trkpt>
      <trkpt lat="49.32936" lon="-0.3848">
        <ele>5.5</ele>
        <time>2023-07-05T13:54:32Z</time>
      </trkpt>
      <trkpt lat="49.32938" lon="-0.38489">
        <ele>5.5</ele>
        <time>2023-07-05T13:54:33Z</time>
      </trkpt>
      <trkpt lat="49.3294" lon="-0.38498">
        <ele>5.5</ele>
        <time>2023-07-05T13:54:34Z</time>
      </trkpt>
      <trkpt lat="49.32942" lon="-0.38506">
        <ele>5.5</ele>
        <time>2023-07-05T13:54:35Z</time>
      </trkpt>
      <trkpt lat="49.32944" lon="-0.38514">
        <ele>5.5</ele>
        <time>2023-07-05T13:54:36Z</time>
      </trkpt>
      <trkpt lat="49.32946" lon="-0.38522">
        <ele>5.5</ele>
        <time>2023-07-05T13:54:37Z</time>
      </trkpt>
      <trkpt lat="49.32948" lon="-0.3853">
        <ele>5.5</ele>
        <time>2023-07-05T13:54:38Z</time>
      </trkpt>
      <trkpt lat="49.32949" lon="-0.38538">
        <ele>5.5</ele>
        <time>2023-07-05T13:54:39Z</time>
      </trkpt>
      <trkpt lat="49.32951" lon="-0.38544">
        <ele>5.5</ele>
        <time>2023-07-05T13:54:40Z</time>
      </trkpt>
      <trkpt lat="49.32952" lon="-0.3855">
        <ele>5.5</ele>
        <time>2023-07-05T13:54:41Z</time>
      </trkpt>
      <trkpt lat="49.32954" lon="-0.38557">
        <ele>5.5</ele>
        <time>2023-07-05T13:54:42Z</time>
      </trkpt>
      <trkpt lat="49.32955" lon="-0.38564">
        <ele>5.5</ele>
        <time>2023-07-05T13:54:43Z</time>
      </trkpt>
      <trkpt lat="49.32957" lon="-0.38572">
        <ele>5.5</ele>
        <time>2023-07-05T13:54:44Z</time>
      </trkpt>
      <trkpt lat="49.32959" lon="-0.3858">
        <ele>5.5</ele>
        <time>2023-07-05T13:54:45Z</time>
      </trkpt>
      <trkpt lat="49.32961" lon="-0.38588">
        <ele>5.5</ele>
        <time>2023-07-05T13:54:46Z</time>
      </trkpt>
      <trkpt lat="49.32963" lon="-0.38596">
        <ele>5.6</ele>
        <time>2023-07-05T13:54:47Z</time>
      </trkpt>
      <trkpt lat="49.32965" lon="-0.38603">
        <ele>5.6</ele>
        <time>2023-07-05T13:54:48Z</time>
      </trkpt>
      <trkpt lat="49.32967" lon="-0.38612">
        <ele>5.6</ele>
        <time>2023-07-05T13:54:49Z</time>
      </trkpt>
      <trkpt lat="49.3297" lon="-0.3862">
        <ele>5.6</ele>
        <time>2023-07-05T13:54:50Z</time>
      </trkpt>
      <trkpt lat="49.32972" lon="-0.38629">
        <ele>5.6</ele>
        <time>2023-07-05T13:54:51Z</time>
      </trkpt>
      <trkpt lat="49.32975" lon="-0.38638">
        <ele>5.6</ele>
        <time>2023-07-05T13:54:52Z</time>
      </trkpt>
      <trkpt lat="49.32977" lon="-0.38647">
        <ele>5.6</ele>
        <time>2023-07-05T13:54:53Z</time>
      </trkpt>
      <trkpt lat="49.32979" lon="-0.38657">
        <ele>5.6</ele>
        <time>2023-07-05T13:54:54Z</time>
      </trkpt>
      <trkpt lat="49.32981" lon="-0.38666">
        <ele>5.6</ele>
        <time>2023-07-05T13:54:55Z</time>
      </trkpt>
      <trkpt lat="49.32983" lon="-0.38675">
        <ele>5.7</ele>
        <time>2023-07-05T13:54:56Z</time>
      </trkpt>
      <trkpt lat="49.32985" lon="-0.38685">
        <ele>5.7</ele>
        <time>2023-07-05T13:54:57Z</time>
      </trkpt>
      <trkpt lat="49.32988" lon="-0.38695">
        <ele>5.7</ele>
        <time>2023-07-05T13:54:58Z</time>
      </trkpt>
      <trkpt lat="49.3299" lon="-0.38705">
        <ele>5.7</ele>
        <time>2023-07-05T13:54:59Z</time>
      </trkpt>
      <trkpt lat="49.32992" lon="-0.38714">
        <ele>5.7</ele>
        <time>2023-07-05T13:55:00Z</time>
      </trkpt>
      <trkpt lat="49.32994" lon="-0.38724">
        <ele>5.8</ele>
        <time>2023-07-05T13:55:01Z</time>
      </trkpt>
      <trkpt lat="49.32997" lon="-0.38733">
        <ele>5.8</ele>
        <time>2023-07-05T13:55:02Z</time>
      </trkpt>
      <trkpt lat="49.32999" lon="-0.38743">
        <ele>5.8</ele>
        <time>2023-07-05T13:55:03Z</time>
      </trkpt>
      <trkpt lat="49.33002" lon="-0.38751">
        <ele>5.8</ele>
        <time>2023-07-05T13:55:04Z</time>
      </trkpt>
      <trkpt lat="49.33003" lon="-0.3876">
        <ele>5.9</ele>
        <time>2023-07-05T13:55:05Z</time>
      </trkpt>
      <trkpt lat="49.33005" lon="-0.38768">
        <ele>5.9</ele>
        <time>2023-07-05T13:55:06Z</time>
      </trkpt>
      <trkpt lat="49.33007" lon="-0.38776">
        <ele>5.9</ele>
        <time>2023-07-05T13:55:07Z</time>
      </trkpt>
      <trkpt lat="49.33009" lon="-0.38783">
        <ele>6</ele>
        <time>2023-07-05T13:55:08Z</time>
      </trkpt>
      <trkpt lat="49.33012" lon="-0.3879">
        <ele>6</ele>
        <time>2023-07-05T13:55:09Z</time>
      </trkpt>
      <trkpt lat="49.33014" lon="-0.38798">
        <ele>6.1</ele>
        <time>2023-07-05T13:55:10Z</time>
      </trkpt>
      <trkpt lat="49.33016" lon="-0.38806">
        <ele>6.1</ele>
        <time>2023-07-05T13:55:11Z</time>
      </trkpt>
      <trkpt lat="49.33019" lon="-0.38814">
        <ele>6.2</ele>
        <time>2023-07-05T13:55:12Z</time>
      </trkpt>
      <trkpt lat="49.33021" lon="-0.38821">
        <ele>6.2</ele>
        <time>2023-07-05T13:55:13Z</time>
      </trkpt>
      <trkpt lat="49.33023" lon="-0.38828">
        <ele>6.3</ele>
        <time>2023-07-05T13:55:14Z</time>
      </trkpt>
      <trkpt lat="49.33025" lon="-0.38836">
        <ele>6.3</ele>
        <time>2023-07-05T13:55:15Z</time>
      </trkpt>
      <trkpt lat="49.33027" lon="-0.38843">
        <ele>6.4</ele>
        <time>2023-07-05T13:55:16Z</time>
      </trkpt>
      <trkpt lat="49.33028" lon="-0.38849">
        <ele>6.5</ele>
        <time>2023-07-05T13:55:17Z</time>
      </trkpt>
      <trkpt lat="49.33029" lon="-0.38855">
        <ele>6.5</ele>
        <time>2023-07-05T13:55:18Z</time>
      </trkpt>
      <trkpt lat="49.33031" lon="-0.38861">
        <ele>6.6</ele>
        <time>2023-07-05T13:55:19Z</time>
      </trkpt>
      <trkpt lat="49.33032" lon="-0.38866">
        <ele>6.6</ele>
        <time>2023-07-05T13:55:20Z</time>
      </trkpt>
      <trkpt lat="49.33034" lon="-0.38871">
        <ele>6.6</ele>
        <time>2023-07-05T13:55:21Z</time>
      </trkpt>
      <trkpt lat="49.33036" lon="-0.38876">
        <ele>6.7</ele>
        <time>2023-07-05T13:55:22Z</time>
      </trkpt>
      <trkpt lat="49.33038" lon="-0.38882">
        <ele>6.7</ele>
        <time>2023-07-05T13:55:23Z</time>
      </trkpt>
      <trkpt lat="49.3304" lon="-0.38888">
        <ele>6.7</ele>
        <time>2023-07-05T13:55:24Z</time>
      </trkpt>
      <trkpt lat="49.33042" lon="-0.38895">
        <ele>6.8</ele>
        <time>2023-07-05T13:55:25Z</time>
      </trkpt>
      <trkpt lat="49.33044" lon="-0.38901">
        <ele>6.8</ele>
        <time>2023-07-05T13:55:26Z</time>
      </trkpt>
      <trkpt lat="49.33047" lon="-0.38907">
        <ele>6.9</ele>
        <time>2023-07-05T13:55:27Z</time>
      </trkpt>
      <trkpt lat="49.3305" lon="-0.38913">
        <ele>6.9</ele>
        <time>2023-07-05T13:55:28Z</time>
      </trkpt>
      <trkpt lat="49.33052" lon="-0.3892">
        <ele>6.9</ele>
        <time>2023-07-05T13:55:29Z</time>
      </trkpt>
      <trkpt lat="49.33054" lon="-0.38927">
        <ele>7</ele>
        <time>2023-07-05T13:55:30Z</time>
      </trkpt>
      <trkpt lat="49.33056" lon="-0.38935">
        <ele>7</ele>
        <time>2023-07-05T13:55:31Z</time>
      </trkpt>
      <trkpt lat="49.33057" lon="-0.38943">
        <ele>7.1</ele>
        <time>2023-07-05T13:55:32Z</time>
      </trkpt>
      <trkpt lat="49.33059" lon="-0.38951">
        <ele>7.2</ele>
        <time>2023-07-05T13:55:33Z</time>
      </trkpt>
      <trkpt lat="49.33061" lon="-0.38959">
        <ele>7.2</ele>
        <time>2023-07-05T13:55:34Z</time>
      </trkpt>
      <trkpt lat="49.33063" lon="-0.38966">
        <ele>7.3</ele>
        <time>2023-07-05T13:55:35Z</time>
      </trkpt>
      <trkpt lat="49.33064" lon="-0.38974">
        <ele>7.3</ele>
        <time>2023-07-05T13:55:36Z</time>
      </trkpt>
      <trkpt lat="49.33066" lon="-0.38981">
        <ele>7.3</ele>
        <time>2023-07-05T13:55:37Z</time>
      </trkpt>
      <trkpt lat="49.33068" lon="-0.38989">
        <ele>7.4</ele>
        <time>2023-07-05T13:55:38Z</time>
      </trkpt>
      <trkpt lat="49.33069" lon="-0.38996">
        <ele>7.4</ele>
        <time>2023-07-05T13:55:39Z</time>
      </trkpt>
      <trkpt lat="49.3307" lon="-0.39004">
        <ele>7.4</ele>
        <time>2023-07-05T13:55:40Z</time>
      </trkpt>
      <trkpt lat="49.33072" lon="-0.39011">
        <ele>7.5</ele>
        <time>2023-07-05T13:55:41Z</time>
      </trkpt>
      <trkpt lat="49.33074" lon="-0.39018">
        <ele>7.5</ele>
        <time>2023-07-05T13:55:42Z</time>
      </trkpt>
      <trkpt lat="49.33075" lon="-0.39026">
        <ele>7.5</ele>
        <time>2023-07-05T13:55:43Z</time>
      </trkpt>
      <trkpt lat="49.33077" lon="-0.39034">
        <ele>7.6</ele>
        <time>2023-07-05T13:55:44Z</time>
      </trkpt>
      <trkpt lat="49.33079" lon="-0.39041">
        <ele>7.6</ele>
        <time>2023-07-05T13:55:45Z</time>
      </trkpt>
      <trkpt lat="49.33081" lon="-0.39048">
        <ele>7.7</ele>
        <time>2023-07-05T13:55:46Z</time>
      </trkpt>
      <trkpt lat="49.33083" lon="-0.39056">
        <ele>7.7</ele>
        <time>2023-07-05T13:55:47Z</time>
      </trkpt>
      <trkpt lat="49.33085" lon="-0.39063">
        <ele>7.7</ele>
        <time>2023-07-05T13:55:48Z</time>
      </trkpt>
      <trkpt lat="49.33088" lon="-0.39071">
        <ele>7.8</ele>
        <time>2023-07-05T13:55:49Z</time>
      </trkpt>
      <trkpt lat="49.3309" lon="-0.39078">
        <ele>7.8</ele>
        <time>2023-07-05T13:55:50Z</time>
      </trkpt>
      <trkpt lat="49.33093" lon="-0.39087">
        <ele>7.8</ele>
        <time>2023-07-05T13:55:51Z</time>
      </trkpt>
      <trkpt lat="49.33095" lon="-0.39094">
        <ele>7.8</ele>
        <time>2023-07-05T13:55:52Z</time>
      </trkpt>
      <trkpt lat="49.33097" lon="-0.39102">
        <ele>7.9</ele>
        <time>2023-07-05T13:55:53Z</time>
      </trkpt>
      <trkpt lat="49.33098" lon="-0.3911">
        <ele>7.9</ele>
        <time>2023-07-05T13:55:54Z</time>
      </trkpt>
      <trkpt lat="49.33099" lon="-0.39118">
        <ele>7.9</ele>
        <time>2023-07-05T13:55:55Z</time>
      </trkpt>
      <trkpt lat="49.33101" lon="-0.39126">
        <ele>7.9</ele>
        <time>2023-07-05T13:55:56Z</time>
      </trkpt>
      <trkpt lat="49.33102" lon="-0.39134">
        <ele>8</ele>
        <time>2023-07-05T13:55:57Z</time>
      </trkpt>
      <trkpt lat="49.33104" lon="-0.39141">
        <ele>8</ele>
        <time>2023-07-05T13:55:58Z</time>
      </trkpt>
      <trkpt lat="49.33106" lon="-0.39149">
        <ele>7.9</ele>
        <time>2023-07-05T13:55:59Z</time>
      </trkpt>
      <trkpt lat="49.33109" lon="-0.39156">
        <ele>7.9</ele>
        <time>2023-07-05T13:56:00Z</time>
      </trkpt>
      <trkpt lat="49.33111" lon="-0.39163">
        <ele>7.9</ele>
        <time>2023-07-05T13:56:01Z</time>
      </trkpt>
      <trkpt lat="49.33114" lon="-0.39169">
        <ele>7.9</ele>
        <time>2023-07-05T13:56:02Z</time>
      </trkpt>
      <trkpt lat="49.33116" lon="-0.39176">
        <ele>7.9</ele>
        <time>2023-07-05T13:56:03Z</time>
      </trkpt>
      <trkpt lat="49.33118" lon="-0.39182">
        <ele>7.8</ele>
        <time>2023-07-05T13:56:04Z</time>
      </trkpt>
      <trkpt lat="49.33122" lon="-0.39188">
        <ele>7.8</ele>
        <time>2023-07-05T13:56:05Z</time>
      </trkpt>
      <trkpt lat="49.33126" lon="-0.39194">
        <ele>7.8</ele>
        <time>2023-07-05T13:56:06Z</time>
      </trkpt>
      <trkpt lat="49.33131" lon="-0.39198">
        <ele>7.7</ele>
        <time>2023-07-05T13:56:07Z</time>
      </trkpt>
      <trkpt lat="49.33135" lon="-0.39204">
        <ele>7.7</ele>
        <time>2023-07-05T13:56:08Z</time>
      </trkpt>
      <trkpt lat="49.3314" lon="-0.39209">
        <ele>7.6</ele>
        <time>2023-07-05T13:56:09Z</time>
      </trkpt>
      <trkpt lat="49.33144" lon="-0.39215">
        <ele>7.6</ele>
        <time>2023-07-05T13:56:10Z</time>
      </trkpt>
      <trkpt lat="49.33147" lon="-0.39222">
        <ele>7.5</ele>
        <time>2023-07-05T13:56:11Z</time>
      </trkpt>
      <trkpt lat="49.3315" lon="-0.3923">
        <ele>7.5</ele>
        <time>2023-07-05T13:56:12Z</time>
      </trkpt>
      <trkpt lat="49.33154" lon="-0.39238">
        <ele>7.3</ele>
        <time>2023-07-05T13:56:13Z</time>
      </trkpt>
      <trkpt lat="49.33158" lon="-0.39245">
        <ele>7.2</ele>
        <time>2023-07-05T13:56:14Z</time>
      </trkpt>
      <trkpt lat="49.33162" lon="-0.39252">
        <ele>7.1</ele>
        <time>2023-07-05T13:56:15Z</time>
      </trkpt>
      <trkpt lat="49.33165" lon="-0.3926">
        <ele>7</ele>
        <time>2023-07-05T13:56:16Z</time>
      </trkpt>
      <trkpt lat="49.33168" lon="-0.39268">
        <ele>7</ele>
        <time>2023-07-05T13:56:17Z</time>
      </trkpt>
      <trkpt lat="49.33171" lon="-0.39275">
        <ele>6.9</ele>
        <time>2023-07-05T13:56:18Z</time>
      </trkpt>
      <trkpt lat="49.33175" lon="-0.39281">
        <ele>6.8</ele>
        <time>2023-07-05T13:56:19Z</time>
      </trkpt>
      <trkpt lat="49.33178" lon="-0.39288">
        <ele>6.7</ele>
        <time>2023-07-05T13:56:20Z</time>
      </trkpt>
      <trkpt lat="49.33182" lon="-0.39295">
        <ele>6.6</ele>
        <time>2023-07-05T13:56:21Z</time>
      </trkpt>
      <trkpt lat="49.33185" lon="-0.39302">
        <ele>6.5</ele>
        <time>2023-07-05T13:56:22Z</time>
      </trkpt>
      <trkpt lat="49.33188" lon="-0.3931">
        <ele>6.3</ele>
        <time>2023-07-05T13:56:23Z</time>
      </trkpt>
      <trkpt lat="49.33192" lon="-0.39317">
        <ele>6.1</ele>
        <time>2023-07-05T13:56:24Z</time>
      </trkpt>
      <trkpt lat="49.33194" lon="-0.39325">
        <ele>6.1</ele>
        <time>2023-07-05T13:56:25Z</time>
      </trkpt>
      <trkpt lat="49.33198" lon="-0.39334">
        <ele>6.1</ele>
        <time>2023-07-05T13:56:26Z</time>
      </trkpt>
      <trkpt lat="49.332" lon="-0.39342">
        <ele>6.1</ele>
        <time>2023-07-05T13:56:27Z</time>
      </trkpt>
      <trkpt lat="49.33203" lon="-0.39351">
        <ele>6.1</ele>
        <time>2023-07-05T13:56:28Z</time>
      </trkpt>
      <trkpt lat="49.33206" lon="-0.39358">
        <ele>6.2</ele>
        <time>2023-07-05T13:56:29Z</time>
      </trkpt>
      <trkpt lat="49.33209" lon="-0.39366">
        <ele>6.2</ele>
        <time>2023-07-05T13:56:30Z</time>
      </trkpt>
      <trkpt lat="49.33212" lon="-0.39375">
        <ele>6.3</ele>
        <time>2023-07-05T13:56:31Z</time>
      </trkpt>
      <trkpt lat="49.33215" lon="-0.39383">
        <ele>6.4</ele>
        <time>2023-07-05T13:56:32Z</time>
      </trkpt>
      <trkpt lat="49.33218" lon="-0.3939">
        <ele>6.5</ele>
        <time>2023-07-05T13:56:33Z</time>
      </trkpt>
      <trkpt lat="49.33221" lon="-0.39398">
        <ele>6.6</ele>
        <time>2023-07-05T13:56:34Z</time>
      </trkpt>
      <trkpt lat="49.33223" lon="-0.39405">
        <ele>6.7</ele>
        <time>2023-07-05T13:56:35Z</time>
      </trkpt>
      <trkpt lat="49.33226" lon="-0.39413">
        <ele>6.8</ele>
        <time>2023-07-05T13:56:36Z</time>
      </trkpt>
      <trkpt lat="49.33228" lon="-0.39419">
        <ele>6.9</ele>
        <time>2023-07-05T13:56:37Z</time>
      </trkpt>
      <trkpt lat="49.33232" lon="-0.39425">
        <ele>7</ele>
        <time>2023-07-05T13:56:38Z</time>
      </trkpt>
      <trkpt lat="49.33235" lon="-0.39431">
        <ele>7</ele>
        <time>2023-07-05T13:56:39Z</time>
      </trkpt>
      <trkpt lat="49.33238" lon="-0.39437">
        <ele>7</ele>
        <time>2023-07-05T13:56:40Z</time>
      </trkpt>
      <trkpt lat="49.33241" lon="-0.39444">
        <ele>7</ele>
        <time>2023-07-05T13:56:41Z</time>
      </trkpt>
      <trkpt lat="49.33244" lon="-0.3945">
        <ele>7</ele>
        <time>2023-07-05T13:56:42Z</time>
      </trkpt>
      <trkpt lat="49.33246" lon="-0.39455">
        <ele>7</ele>
        <time>2023-07-05T13:56:43Z</time>
      </trkpt>
      <trkpt lat="49.33247" lon="-0.39459">
        <ele>7</ele>
        <time>2023-07-05T13:56:44Z</time>
      </trkpt>
      <trkpt lat="49.33249" lon="-0.39464">
        <ele>7.1</ele>
        <time>2023-07-05T13:56:45Z</time>
      </trkpt>
      <trkpt lat="49.3325" lon="-0.39468">
        <ele>7.1</ele>
        <time>2023-07-05T13:56:46Z</time>
      </trkpt>
      <trkpt lat="49.33251" lon="-0.39472">
        <ele>7.1</ele>
        <time>2023-07-05T13:56:47Z</time>
      </trkpt>
      <trkpt lat="49.33253" lon="-0.39476">
        <ele>7.2</ele>
        <time>2023-07-05T13:56:48Z</time>
      </trkpt>
      <trkpt lat="49.33254" lon="-0.3948">
        <ele>7.2</ele>
        <time>2023-07-05T13:56:49Z</time>
      </trkpt>
      <trkpt lat="49.33255" lon="-0.39482">
        <ele>7.2</ele>
        <time>2023-07-05T13:56:50Z</time>
      </trkpt>
      <trkpt lat="49.33255" lon="-0.39484">
        <ele>7.2</ele>
        <time>2023-07-05T13:56:51Z</time>
      </trkpt>
      <trkpt lat="49.33256" lon="-0.39484">
        <ele>7.2</ele>
        <time>2023-07-05T13:56:52Z</time>
      </trkpt>
      <trkpt lat="49.33256" lon="-0.39483">
        <ele>7.2</ele>
        <time>2023-07-05T13:56:53Z</time>
      </trkpt>
      <trkpt lat="49.33256" lon="-0.39483">
        <ele>7.2</ele>
        <time>2023-07-05T13:56:54Z</time>
      </trkpt>
      <trkpt lat="49.33256" lon="-0.39483">
        <ele>7.2</ele>
        <time>2023-07-05T13:56:55Z</time>
      </trkpt>
      <trkpt lat="49.33256" lon="-0.39483">
        <ele>7.2</ele>
        <time>2023-07-05T13:56:56Z</time>
      </trkpt>
      <trkpt lat="49.33256" lon="-0.39483">
        <ele>7.2</ele>
        <time>2023-07-05T13:56:57Z</time>
      </trkpt>
      <trkpt lat="49.33256" lon="-0.39483">
        <ele>7.2</ele>
        <time>2023-07-05T13:56:58Z</time>
      </trkpt>
      <trkpt lat="49.33256" lon="-0.39482">
        <ele>7.2</ele>
        <time>2023-07-05T13:56:59Z</time>
      </trkpt>
      <trkpt lat="49.33256" lon="-0.39482">
        <ele>7.2</ele>
        <time>2023-07-05T13:57:00Z</time>
      </trkpt>
      <trkpt lat="49.33256" lon="-0.39482">
        <ele>7.2</ele>
        <time>2023-07-05T13:57:01Z</time>
      </trkpt>
      <trkpt lat="49.33256" lon="-0.39482">
        <ele>7.2</ele>
        <time>2023-07-05T13:57:02Z</time>
      </trkpt>
      <trkpt lat="49.33256" lon="-0.39491">
        <ele>7.3</ele>
        <time>2023-07-05T13:57:21Z</time>
      </trkpt>
      <trkpt lat="49.33257" lon="-0.39494">
        <ele>7.3</ele>
        <time>2023-07-05T13:57:22Z</time>
      </trkpt>
      <trkpt lat="49.33257" lon="-0.39496">
        <ele>7.3</ele>
        <time>2023-07-05T13:57:23Z</time>
      </trkpt>
      <trkpt lat="49.33258" lon="-0.39501">
        <ele>7.4</ele>
        <time>2023-07-05T13:57:24Z</time>
      </trkpt>
      <trkpt lat="49.33258" lon="-0.39503">
        <ele>7.4</ele>
        <time>2023-07-05T13:57:25Z</time>
      </trkpt>
      <trkpt lat="49.33259" lon="-0.39508">
        <ele>7.4</ele>
        <time>2023-07-05T13:57:26Z</time>
      </trkpt>
      <trkpt lat="49.33259" lon="-0.3951">
        <ele>7.5</ele>
        <time>2023-07-05T13:57:27Z</time>
      </trkpt>
      <trkpt lat="49.33259" lon="-0.39515">
        <ele>7.5</ele>
        <time>2023-07-05T13:57:28Z</time>
      </trkpt>
      <trkpt lat="49.3326" lon="-0.39519">
        <ele>7.5</ele>
        <time>2023-07-05T13:57:29Z</time>
      </trkpt>
      <trkpt lat="49.3326" lon="-0.39524">
        <ele>7.6</ele>
        <time>2023-07-05T13:57:30Z</time>
      </trkpt>
      <trkpt lat="49.33261" lon="-0.39529">
        <ele>7.6</ele>
        <time>2023-07-05T13:57:31Z</time>
      </trkpt>
      <trkpt lat="49.33261" lon="-0.39534">
        <ele>7.6</ele>
        <time>2023-07-05T13:57:32Z</time>
      </trkpt>
      <trkpt lat="49.33261" lon="-0.39538">
        <ele>7.7</ele>
        <time>2023-07-05T13:57:33Z</time>
      </trkpt>
      <trkpt lat="49.33262" lon="-0.39543">
        <ele>7.7</ele>
        <time>2023-07-05T13:57:34Z</time>
      </trkpt>
      <trkpt lat="49.33262" lon="-0.39547">
        <ele>7.7</ele>
        <time>2023-07-05T13:57:35Z</time>
      </trkpt>
      <trkpt lat="49.33263" lon="-0.39551">
        <ele>7.8</ele>
        <time>2023-07-05T13:57:36Z</time>
      </trkpt>
      <trkpt lat="49.33263" lon="-0.39556">
        <ele>7.8</ele>
        <time>2023-07-05T13:57:37Z</time>
      </trkpt>
      <trkpt lat="49.33264" lon="-0.39561">
        <ele>7.8</ele>
        <time>2023-07-05T13:57:38Z</time>
      </trkpt>
      <trkpt lat="49.33264" lon="-0.39565">
        <ele>7.9</ele>
        <time>2023-07-05T13:57:39Z</time>
      </trkpt>
      <trkpt lat="49.33265" lon="-0.3957">
        <ele>7.9</ele>
        <time>2023-07-05T13:57:40Z</time>
      </trkpt>
      <trkpt lat="49.33266" lon="-0.39574">
        <ele>7.9</ele>
        <time>2023-07-05T13:57:41Z</time>
      </trkpt>
      <trkpt lat="49.33266" lon="-0.3958">
        <ele>8</ele>
        <time>2023-07-05T13:57:42Z</time>
      </trkpt>
      <trkpt lat="49.33266" lon="-0.39582">
        <ele>8</ele>
        <time>2023-07-05T13:57:43Z</time>
      </trkpt>
      <trkpt lat="49.33268" lon="-0.39587">
        <ele>8</ele>
        <time>2023-07-05T13:57:44Z</time>
      </trkpt>
      <trkpt lat="49.33268" lon="-0.39588">
        <ele>8</ele>
        <time>2023-07-05T13:57:45Z</time>
      </trkpt>
      <trkpt lat="49.33271" lon="-0.3959">
        <ele>8</ele>
        <time>2023-07-05T13:57:46Z</time>
      </trkpt>
      <trkpt lat="49.33272" lon="-0.39591">
        <ele>8</ele>
        <time>2023-07-05T13:57:47Z</time>
      </trkpt>
      <trkpt lat="49.33274" lon="-0.3959">
        <ele>8.1</ele>
        <time>2023-07-05T13:57:48Z</time>
      </trkpt>
      <trkpt lat="49.33275" lon="-0.39589">
        <ele>8.1</ele>
        <time>2023-07-05T13:57:49Z</time>
      </trkpt>
      <trkpt lat="49.33278" lon="-0.39587">
        <ele>8.1</ele>
        <time>2023-07-05T13:57:50Z</time>
      </trkpt>
      <trkpt lat="49.3328" lon="-0.39586">
        <ele>8.1</ele>
        <time>2023-07-05T13:57:51Z</time>
      </trkpt>
      <trkpt lat="49.33282" lon="-0.39583">
        <ele>8.1</ele>
        <time>2023-07-05T13:57:52Z</time>
      </trkpt>
      <trkpt lat="49.33283" lon="-0.39582">
        <ele>8.1</ele>
        <time>2023-07-05T13:57:53Z</time>
      </trkpt>
      <trkpt lat="49.33285" lon="-0.39581">
        <ele>8.2</ele>
        <time>2023-07-05T13:57:54Z</time>
      </trkpt>
      <trkpt lat="49.33286" lon="-0.39582">
        <ele>8.2</ele>
        <time>2023-07-05T13:57:55Z</time>
      </trkpt>
      <trkpt lat="49.33288" lon="-0.39583">
        <ele>8.2</ele>
        <time>2023-07-05T13:57:56Z</time>
      </trkpt>
      <trkpt lat="49.3329" lon="-0.39583">
        <ele>8.2</ele>
        <time>2023-07-05T13:57:57Z</time>
      </trkpt>
      <trkpt lat="49.3329" lon="-0.39583">
        <ele>8.2</ele>
        <time>2023-07-05T13:57:58Z</time>
      </trkpt>
      <trkpt lat="49.3329" lon="-0.39583">
        <ele>8.2</ele>
        <time>2023-07-05T13:57:59Z</time>
      </trkpt>
      <trkpt lat="49.33289" lon="-0.39583">
        <ele>8.2</ele>
        <time>2023-07-05T13:58:00Z</time>
      </trkpt>
      <trkpt lat="49.33288" lon="-0.39583">
        <ele>8.2</ele>
        <time>2023-07-05T13:58:01Z</time>
      </trkpt>
      <trkpt lat="49.33288" lon="-0.39583">
        <ele>8.2</ele>
        <time>2023-07-05T13:58:02Z</time>
      </trkpt>
      <trkpt lat="49.33287" lon="-0.39582">
        <ele>8.2</ele>
        <time>2023-07-05T13:58:03Z</time>
      </trkpt>
      <trkpt lat="49.33287" lon="-0.39582">
        <ele>8.2</ele>
        <time>2023-07-05T13:58:04Z</time>
      </trkpt>
      <trkpt lat="49.33286" lon="-0.39582">
        <ele>8.2</ele>
        <time>2023-07-05T13:58:05Z</time>
      </trkpt>
      <trkpt lat="49.33286" lon="-0.39582">
        <ele>8.2</ele>
        <time>2023-07-05T13:58:06Z</time>
      </trkpt>
      <trkpt lat="49.33285" lon="-0.39582">
        <ele>8.2</ele>
        <time>2023-07-05T13:58:07Z</time>
      </trkpt>
      <trkpt lat="49.33284" lon="-0.39582">
        <ele>8.2</ele>
        <time>2023-07-05T13:58:08Z</time>
      </trkpt>
      <trkpt lat="49.33284" lon="-0.39582">
        <ele>8.2</ele>
        <time>2023-07-05T13:58:09Z</time>
      </trkpt>
      <trkpt lat="49.33283" lon="-0.39582">
        <ele>8.2</ele>
        <time>2023-07-05T13:58:10Z</time>
      </trkpt>
      <trkpt lat="49.33283" lon="-0.39582">
        <ele>8.3</ele>
        <time>2023-07-05T14:02:21Z</time>
      </trkpt>
      <trkpt lat="49.33282" lon="-0.39582">
        <ele>8.3</ele>
        <time>2023-07-05T14:02:22Z</time>
      </trkpt>
      <trkpt lat="49.33282" lon="-0.39582">
        <ele>8.3</ele>
        <time>2023-07-05T14:02:23Z</time>
      </trkpt>
      <trkpt lat="49.33278" lon="-0.39583">
        <ele>8.3</ele>
        <time>2023-07-05T14:02:24Z</time>
      </trkpt>
      <trkpt lat="49.33277" lon="-0.39583">
        <ele>8.3</ele>
        <time>2023-07-05T14:02:25Z</time>
      </trkpt>
      <trkpt lat="49.33272" lon="-0.39584">
        <ele>8.3</ele>
        <time>2023-07-05T14:02:26Z</time>
      </trkpt>
      <trkpt lat="49.33271" lon="-0.39584">
        <ele>8.3</ele>
        <time>2023-07-05T14:02:27Z</time>
      </trkpt>
      <trkpt lat="49.33268" lon="-0.39585">
        <ele>8.4</ele>
        <time>2023-07-05T14:02:28Z</time>
      </trkpt>
      <trkpt lat="49.33265" lon="-0.39588">
        <ele>8.4</ele>
        <time>2023-07-05T14:02:29Z</time>
      </trkpt>
      <trkpt lat="49.33262" lon="-0.39594">
        <ele>8.4</ele>
        <time>2023-07-05T14:02:30Z</time>
      </trkpt>
      <trkpt lat="49.33261" lon="-0.39602">
        <ele>8.5</ele>
        <time>2023-07-05T14:02:31Z</time>
      </trkpt>
      <trkpt lat="49.33262" lon="-0.39609">
        <ele>8.5</ele>
        <time>2023-07-05T14:02:32Z</time>
      </trkpt>
      <trkpt lat="49.33262" lon="-0.39615">
        <ele>8.5</ele>
        <time>2023-07-05T14:02:33Z</time>
      </trkpt>
      <trkpt lat="49.33263" lon="-0.39622">
        <ele>8.5</ele>
        <time>2023-07-05T14:02:34Z</time>
      </trkpt>
      <trkpt lat="49.33264" lon="-0.39629">
        <ele>8.5</ele>
        <time>2023-07-05T14:02:35Z</time>
      </trkpt>
      <trkpt lat="49.33265" lon="-0.39637">
        <ele>8.5</ele>
        <time>2023-07-05T14:02:36Z</time>
      </trkpt>
      <trkpt lat="49.33266" lon="-0.39644">
        <ele>8.5</ele>
        <time>2023-07-05T14:02:37Z</time>
      </trkpt>
      <trkpt lat="49.33266" lon="-0.39652">
        <ele>8.6</ele>
        <time>2023-07-05T14:02:38Z</time>
      </trkpt>
      <trkpt lat="49.33267" lon="-0.3966">
        <ele>8.6</ele>
        <time>2023-07-05T14:02:39Z</time>
      </trkpt>
      <trkpt lat="49.33268" lon="-0.39668">
        <ele>8.6</ele>
        <time>2023-07-05T14:02:40Z</time>
      </trkpt>
      <trkpt lat="49.33268" lon="-0.39676">
        <ele>8.6</ele>
        <time>2023-07-05T14:02:41Z</time>
      </trkpt>
      <trkpt lat="49.33269" lon="-0.39685">
        <ele>8.6</ele>
        <time>2023-07-05T14:02:42Z</time>
      </trkpt>
      <trkpt lat="49.33269" lon="-0.39694">
        <ele>8.6</ele>
        <time>2023-07-05T14:02:43Z</time>
      </trkpt>
      <trkpt lat="49.3327" lon="-0.39703">
        <ele>8.7</ele>
        <time>2023-07-05T14:02:44Z</time>
      </trkpt>
      <trkpt lat="49.33271" lon="-0.39711">
        <ele>8.7</ele>
        <time>2023-07-05T14:02:45Z</time>
      </trkpt>
      <trkpt lat="49.33273" lon="-0.3972">
        <ele>8.7</ele>
        <time>2023-07-05T14:02:46Z</time>
      </trkpt>
      <trkpt lat="49.33274" lon="-0.39728">
        <ele>8.7</ele>
        <time>2023-07-05T14:02:47Z</time>
      </trkpt>
      <trkpt lat="49.33276" lon="-0.39736">
        <ele>8.7</ele>
        <time>2023-07-05T14:02:48Z</time>
      </trkpt>
      <trkpt lat="49.33277" lon="-0.39745">
        <ele>8.7</ele>
        <time>2023-07-05T14:02:49Z</time>
      </trkpt>
      <trkpt lat="49.33278" lon="-0.39754">
        <ele>8.7</ele>
        <time>2023-07-05T14:02:50Z</time>
      </trkpt>
      <trkpt lat="49.33279" lon="-0.39764">
        <ele>8.7</ele>
        <time>2023-07-05T14:02:51Z</time>
      </trkpt>
      <trkpt lat="49.3328" lon="-0.39773">
        <ele>8.8</ele>
        <time>2023-07-05T14:02:52Z</time>
      </trkpt>
      <trkpt lat="49.3328" lon="-0.39782">
        <ele>8.8</ele>
        <time>2023-07-05T14:02:53Z</time>
      </trkpt>
      <trkpt lat="49.3328" lon="-0.39792">
        <ele>8.8</ele>
        <time>2023-07-05T14:02:54Z</time>
      </trkpt>
      <trkpt lat="49.33281" lon="-0.39801">
        <ele>8.8</ele>
        <time>2023-07-05T14:02:55Z</time>
      </trkpt>
      <trkpt lat="49.33282" lon="-0.39811">
        <ele>8.8</ele>
        <time>2023-07-05T14:02:56Z</time>
      </trkpt>
      <trkpt lat="49.33283" lon="-0.39821">
        <ele>8.8</ele>
        <time>2023-07-05T14:02:57Z</time>
      </trkpt>
      <trkpt lat="49.33283" lon="-0.39829">
        <ele>8.8</ele>
        <time>2023-07-05T14:02:58Z</time>
      </trkpt>
      <trkpt lat="49.33284" lon="-0.39838">
        <ele>8.9</ele>
        <time>2023-07-05T14:02:59Z</time>
      </trkpt>
      <trkpt lat="49.33285" lon="-0.39847">
        <ele>8.9</ele>
        <time>2023-07-05T14:03:00Z</time>
      </trkpt>
      <trkpt lat="49.33286" lon="-0.39856">
        <ele>8.9</ele>
        <time>2023-07-05T14:03:01Z</time>
      </trkpt>
      <trkpt lat="49.33287" lon="-0.39866">
        <ele>8.9</ele>
        <time>2023-07-05T14:03:02Z</time>
      </trkpt>
      <trkpt lat="49.33288" lon="-0.39875">
        <ele>8.9</ele>
        <time>2023-07-05T14:03:03Z</time>
      </trkpt>
      <trkpt lat="49.3329" lon="-0.39884">
        <ele>8.9</ele>
        <time>2023-07-05T14:03:04Z</time>
      </trkpt>
      <trkpt lat="49.3329" lon="-0.39893">
        <ele>9</ele>
        <time>2023-07-05T14:03:05Z</time>
      </trkpt>
      <trkpt lat="49.33291" lon="-0.39903">
        <ele>9</ele>
        <time>2023-07-05T14:03:06Z</time>
      </trkpt>
      <trkpt lat="49.33292" lon="-0.39913">
        <ele>9</ele>
        <time>2023-07-05T14:03:07Z</time>
      </trkpt>
      <trkpt lat="49.33293" lon="-0.39923">
        <ele>9</ele>
        <time>2023-07-05T14:03:08Z</time>
      </trkpt>
      <trkpt lat="49.33293" lon="-0.39932">
        <ele>9</ele>
        <time>2023-07-05T14:03:09Z</time>
      </trkpt>
      <trkpt lat="49.33294" lon="-0.39941">
        <ele>9.1</ele>
        <time>2023-07-05T14:03:10Z</time>
      </trkpt>
      <trkpt lat="49.33295" lon="-0.3995">
        <ele>9.1</ele>
        <time>2023-07-05T14:03:11Z</time>
      </trkpt>
      <trkpt lat="49.33296" lon="-0.39958">
        <ele>9.1</ele>
        <time>2023-07-05T14:03:12Z</time>
      </trkpt>
      <trkpt lat="49.33298" lon="-0.39967">
        <ele>9.1</ele>
        <time>2023-07-05T14:03:13Z</time>
      </trkpt>
      <trkpt lat="49.33299" lon="-0.39976">
        <ele>9.1</ele>
        <time>2023-07-05T14:03:14Z</time>
      </trkpt>
      <trkpt lat="49.333" lon="-0.39985">
        <ele>9.1</ele>
        <time>2023-07-05T14:03:15Z</time>
      </trkpt>
      <trkpt lat="49.333" lon="-0.39995">
        <ele>9.1</ele>
        <time>2023-07-05T14:03:16Z</time>
      </trkpt>
      <trkpt lat="49.33301" lon="-0.40004">
        <ele>9.1</ele>
        <time>2023-07-05T14:03:17Z</time>
      </trkpt>
      <trkpt lat="49.33302" lon="-0.40013">
        <ele>9.1</ele>
        <time>2023-07-05T14:03:18Z</time>
      </trkpt>
      <trkpt lat="49.33303" lon="-0.40022">
        <ele>9.1</ele>
        <time>2023-07-05T14:03:19Z</time>
      </trkpt>
      <trkpt lat="49.33304" lon="-0.40031">
        <ele>9.1</ele>
        <time>2023-07-05T14:03:20Z</time>
      </trkpt>
      <trkpt lat="49.33305" lon="-0.4004">
        <ele>9</ele>
        <time>2023-07-05T14:03:21Z</time>
      </trkpt>
      <trkpt lat="49.33306" lon="-0.40049">
        <ele>9</ele>
        <time>2023-07-05T14:03:22Z</time>
      </trkpt>
      <trkpt lat="49.33307" lon="-0.40058">
        <ele>9</ele>
        <time>2023-07-05T14:03:23Z</time>
      </trkpt>
      <trkpt lat="49.33308" lon="-0.40067">
        <ele>9</ele>
        <time>2023-07-05T14:03:24Z</time>
      </trkpt>
      <trkpt lat="49.33309" lon="-0.40076">
        <ele>8.9</ele>
        <time>2023-07-05T14:03:25Z</time>
      </trkpt>
      <trkpt lat="49.33311" lon="-0.40085">
        <ele>8.9</ele>
        <time>2023-07-05T14:03:26Z</time>
      </trkpt>
      <trkpt lat="49.33312" lon="-0.40093">
        <ele>8.9</ele>
        <time>2023-07-05T14:03:27Z</time>
      </trkpt>
      <trkpt lat="49.33313" lon="-0.40102">
        <ele>8.9</ele>
        <time>2023-07-05T14:03:28Z</time>
      </trkpt>
      <trkpt lat="49.33314" lon="-0.40111">
        <ele>8.8</ele>
        <time>2023-07-05T14:03:29Z</time>
      </trkpt>
      <trkpt lat="49.33315" lon="-0.40121">
        <ele>8.7</ele>
        <time>2023-07-05T14:03:30Z</time>
      </trkpt>
      <trkpt lat="49.33315" lon="-0.4013">
        <ele>8.7</ele>
        <time>2023-07-05T14:03:31Z</time>
      </trkpt>
      <trkpt lat="49.33316" lon="-0.40139">
        <ele>8.6</ele>
        <time>2023-07-05T14:03:32Z</time>
      </trkpt>
      <trkpt lat="49.33316" lon="-0.40148">
        <ele>8.6</ele>
        <time>2023-07-05T14:03:33Z</time>
      </trkpt>
      <trkpt lat="49.33316" lon="-0.40158">
        <ele>8.5</ele>
        <time>2023-07-05T14:03:34Z</time>
      </trkpt>
      <trkpt lat="49.33317" lon="-0.40168">
        <ele>8.5</ele>
        <time>2023-07-05T14:03:35Z</time>
      </trkpt>
      <trkpt lat="49.33317" lon="-0.40178">
        <ele>8.4</ele>
        <time>2023-07-05T14:03:36Z</time>
      </trkpt>
      <trkpt lat="49.33318" lon="-0.40188">
        <ele>8.3</ele>
        <time>2023-07-05T14:03:37Z</time>
      </trkpt>
      <trkpt lat="49.33318" lon="-0.40197">
        <ele>8.2</ele>
        <time>2023-07-05T14:03:38Z</time>
      </trkpt>
      <trkpt lat="49.33319" lon="-0.40207">
        <ele>8.1</ele>
        <time>2023-07-05T14:03:39Z</time>
      </trkpt>
      <trkpt lat="49.3332" lon="-0.40217">
        <ele>8</ele>
        <time>2023-07-05T14:03:40Z</time>
      </trkpt>
      <trkpt lat="49.3332" lon="-0.40227">
        <ele>7.9</ele>
        <time>2023-07-05T14:03:41Z</time>
      </trkpt>
      <trkpt lat="49.33321" lon="-0.40238">
        <ele>7.7</ele>
        <time>2023-07-05T14:03:42Z</time>
      </trkpt>
      <trkpt lat="49.33321" lon="-0.40248">
        <ele>7.6</ele>
        <time>2023-07-05T14:03:43Z</time>
      </trkpt>
      <trkpt lat="49.33321" lon="-0.40258">
        <ele>7.5</ele>
        <time>2023-07-05T14:03:44Z</time>
      </trkpt>
      <trkpt lat="49.33322" lon="-0.40268">
        <ele>7.3</ele>
        <time>2023-07-05T14:03:45Z</time>
      </trkpt>
      <trkpt lat="49.33323" lon="-0.40278">
        <ele>7.2</ele>
        <time>2023-07-05T14:03:46Z</time>
      </trkpt>
      <trkpt lat="49.33323" lon="-0.40288">
        <ele>7</ele>
        <time>2023-07-05T14:03:47Z</time>
      </trkpt>
      <trkpt lat="49.33324" lon="-0.40298">
        <ele>6.9</ele>
        <time>2023-07-05T14:03:48Z</time>
      </trkpt>
      <trkpt lat="49.33325" lon="-0.40309">
        <ele>6.8</ele>
        <time>2023-07-05T14:03:49Z</time>
      </trkpt>
      <trkpt lat="49.33326" lon="-0.40319">
        <ele>6.7</ele>
        <time>2023-07-05T14:03:50Z</time>
      </trkpt>
      <trkpt lat="49.33326" lon="-0.4033">
        <ele>6.5</ele>
        <time>2023-07-05T14:03:51Z</time>
      </trkpt>
      <trkpt lat="49.33327" lon="-0.40341">
        <ele>6.4</ele>
        <time>2023-07-05T14:03:52Z</time>
      </trkpt>
      <trkpt lat="49.33327" lon="-0.40351">
        <ele>6.3</ele>
        <time>2023-07-05T14:03:53Z</time>
      </trkpt>
      <trkpt lat="49.33328" lon="-0.4036">
        <ele>6.2</ele>
        <time>2023-07-05T14:03:54Z</time>
      </trkpt>
      <trkpt lat="49.33329" lon="-0.40371">
        <ele>6.1</ele>
        <time>2023-07-05T14:03:55Z</time>
      </trkpt>
      <trkpt lat="49.33331" lon="-0.40381">
        <ele>6</ele>
        <time>2023-07-05T14:03:56Z</time>
      </trkpt>
      <trkpt lat="49.33331" lon="-0.40392">
        <ele>5.9</ele>
        <time>2023-07-05T14:03:57Z</time>
      </trkpt>
      <trkpt lat="49.33332" lon="-0.40401">
        <ele>5.8</ele>
        <time>2023-07-05T14:03:58Z</time>
      </trkpt>
      <trkpt lat="49.33333" lon="-0.40411">
        <ele>5.7</ele>
        <time>2023-07-05T14:03:59Z</time>
      </trkpt>
      <trkpt lat="49.33334" lon="-0.40421">
        <ele>5.6</ele>
        <time>2023-07-05T14:04:00Z</time>
      </trkpt>
      <trkpt lat="49.33335" lon="-0.40431">
        <ele>5.5</ele>
        <time>2023-07-05T14:04:01Z</time>
      </trkpt>
      <trkpt lat="49.33336" lon="-0.40441">
        <ele>5.4</ele>
        <time>2023-07-05T14:04:02Z</time>
      </trkpt>
      <trkpt lat="49.33338" lon="-0.40452">
        <ele>5.3</ele>
        <time>2023-07-05T14:04:03Z</time>
      </trkpt>
      <trkpt lat="49.33339" lon="-0.40462">
        <ele>5.2</ele>
        <time>2023-07-05T14:04:04Z</time>
      </trkpt>
      <trkpt lat="49.3334" lon="-0.40472">
        <ele>5.1</ele>
        <time>2023-07-05T14:04:05Z</time>
      </trkpt>
      <trkpt lat="49.33341" lon="-0.40483">
        <ele>5</ele>
        <time>2023-07-05T14:04:06Z</time>
      </trkpt>
      <trkpt lat="49.33342" lon="-0.40494">
        <ele>4.9</ele>
        <time>2023-07-05T14:04:07Z</time>
      </trkpt>
      <trkpt lat="49.33342" lon="-0.40504">
        <ele>4.9</ele>
        <time>2023-07-05T14:04:08Z</time>
      </trkpt>
      <trkpt lat="49.33343" lon="-0.40514">
        <ele>4.8</ele>
        <time>2023-07-05T14:04:09Z</time>
      </trkpt>
      <trkpt lat="49.33344" lon="-0.40525">
        <ele>4.8</ele>
        <time>2023-07-05T14:04:10Z</time>
      </trkpt>
      <trkpt lat="49.33345" lon="-0.40535">
        <ele>4.7</ele>
        <time>2023-07-05T14:04:11Z</time>
      </trkpt>
      <trkpt lat="49.33346" lon="-0.40545">
        <ele>4.7</ele>
        <time>2023-07-05T14:04:12Z</time>
      </trkpt>
      <trkpt lat="49.33346" lon="-0.40556">
        <ele>4.6</ele>
        <time>2023-07-05T14:04:13Z</time>
      </trkpt>
      <trkpt lat="49.33346" lon="-0.40565">
        <ele>4.6</ele>
        <time>2023-07-05T14:04:14Z</time>
      </trkpt>
      <trkpt lat="49.33346" lon="-0.40575">
        <ele>4.5</ele>
        <time>2023-07-05T14:04:15Z</time>
      </trkpt>
      <trkpt lat="49.33347" lon="-0.40584">
        <ele>4.5</ele>
        <time>2023-07-05T14:04:16Z</time>
      </trkpt>
      <trkpt lat="49.33347" lon="-0.40593">
        <ele>4.5</ele>
        <time>2023-07-05T14:04:17Z</time>
      </trkpt>
      <trkpt lat="49.33347" lon="-0.40602">
        <ele>4.4</ele>
        <time>2023-07-05T14:04:18Z</time>
      </trkpt>
      <trkpt lat="49.33347" lon="-0.4061">
        <ele>4.4</ele>
        <time>2023-07-05T14:04:19Z</time>
      </trkpt>
      <trkpt lat="49.33347" lon="-0.40618">
        <ele>4.4</ele>
        <time>2023-07-05T14:04:20Z</time>
      </trkpt>
      <trkpt lat="49.33348" lon="-0.40627">
        <ele>4.3</ele>
        <time>2023-07-05T14:04:21Z</time>
      </trkpt>
      <trkpt lat="49.33348" lon="-0.40635">
        <ele>4.3</ele>
        <time>2023-07-05T14:04:22Z</time>
      </trkpt>
      <trkpt lat="49.33348" lon="-0.40644">
        <ele>4.3</ele>
        <time>2023-07-05T14:04:23Z</time>
      </trkpt>
      <trkpt lat="49.33349" lon="-0.40653">
        <ele>4.3</ele>
        <time>2023-07-05T14:04:24Z</time>
      </trkpt>
      <trkpt lat="49.3335" lon="-0.40662">
        <ele>4.2</ele>
        <time>2023-07-05T14:04:25Z</time>
      </trkpt>
      <trkpt lat="49.33351" lon="-0.40671">
        <ele>4.2</ele>
        <time>2023-07-05T14:04:26Z</time>
      </trkpt>
      <trkpt lat="49.33352" lon="-0.4068">
        <ele>4.2</ele>
        <time>2023-07-05T14:04:27Z</time>
      </trkpt>
      <trkpt lat="49.33353" lon="-0.40689">
        <ele>4.2</ele>
        <time>2023-07-05T14:04:28Z</time>
      </trkpt>
      <trkpt lat="49.33353" lon="-0.40698">
        <ele>4.2</ele>
        <time>2023-07-05T14:04:29Z</time>
      </trkpt>
      <trkpt lat="49.33354" lon="-0.40706">
        <ele>4.2</ele>
        <time>2023-07-05T14:04:30Z</time>
      </trkpt>
      <trkpt lat="49.33355" lon="-0.40715">
        <ele>4.2</ele>
        <time>2023-07-05T14:04:31Z</time>
      </trkpt>
      <trkpt lat="49.33356" lon="-0.40722">
        <ele>4.2</ele>
        <time>2023-07-05T14:04:32Z</time>
      </trkpt>
      <trkpt lat="49.33358" lon="-0.40729">
        <ele>4.1</ele>
        <time>2023-07-05T14:04:33Z</time>
      </trkpt>
      <trkpt lat="49.33358" lon="-0.40736">
        <ele>4.1</ele>
        <time>2023-07-05T14:04:34Z</time>
      </trkpt>
      <trkpt lat="49.33356" lon="-0.40742">
        <ele>4</ele>
        <time>2023-07-05T14:04:35Z</time>
      </trkpt>
      <trkpt lat="49.33351" lon="-0.40744">
        <ele>3.9</ele>
        <time>2023-07-05T14:04:36Z</time>
      </trkpt>
      <trkpt lat="49.33345" lon="-0.40742">
        <ele>3.8</ele>
        <time>2023-07-05T14:04:37Z</time>
      </trkpt>
      <trkpt lat="49.33339" lon="-0.40734">
        <ele>3.8</ele>
        <time>2023-07-05T14:04:38Z</time>
      </trkpt>
      <trkpt lat="49.33335" lon="-0.40725">
        <ele>3.9</ele>
        <time>2023-07-05T14:04:39Z</time>
      </trkpt>
      <trkpt lat="49.33331" lon="-0.40718">
        <ele>4.1</ele>
        <time>2023-07-05T14:04:40Z</time>
      </trkpt>
      <trkpt lat="49.33326" lon="-0.40712">
        <ele>4.2</ele>
        <time>2023-07-05T14:04:41Z</time>
      </trkpt>
      <trkpt lat="49.33321" lon="-0.40705">
        <ele>4.4</ele>
        <time>2023-07-05T14:04:42Z</time>
      </trkpt>
      <trkpt lat="49.33317" lon="-0.40699">
        <ele>4.6</ele>
        <time>2023-07-05T14:04:43Z</time>
      </trkpt>
      <trkpt lat="49.33313" lon="-0.40692">
        <ele>4.7</ele>
        <time>2023-07-05T14:04:44Z</time>
      </trkpt>
      <trkpt lat="49.3331" lon="-0.40687">
        <ele>4.9</ele>
        <time>2023-07-05T14:04:45Z</time>
      </trkpt>
      <trkpt lat="49.33306" lon="-0.40681">
        <ele>5</ele>
        <time>2023-07-05T14:04:46Z</time>
      </trkpt>
      <trkpt lat="49.33302" lon="-0.40675">
        <ele>5.2</ele>
        <time>2023-07-05T14:04:47Z</time>
      </trkpt>
      <trkpt lat="49.33298" lon="-0.40668">
        <ele>5.5</ele>
        <time>2023-07-05T14:04:48Z</time>
      </trkpt>
      <trkpt lat="49.33294" lon="-0.40662">
        <ele>5.7</ele>
        <time>2023-07-05T14:04:49Z</time>
      </trkpt>
      <trkpt lat="49.33289" lon="-0.40656">
        <ele>5.9</ele>
        <time>2023-07-05T14:04:50Z</time>
      </trkpt>
      <trkpt lat="49.33284" lon="-0.4065">
        <ele>6.2</ele>
        <time>2023-07-05T14:04:51Z</time>
      </trkpt>
      <trkpt lat="49.3328" lon="-0.40644">
        <ele>6.4</ele>
        <time>2023-07-05T14:04:52Z</time>
      </trkpt>
      <trkpt lat="49.33275" lon="-0.40637">
        <ele>6.6</ele>
        <time>2023-07-05T14:04:53Z</time>
      </trkpt>
      <trkpt lat="49.33271" lon="-0.40631">
        <ele>6.8</ele>
        <time>2023-07-05T14:04:54Z</time>
      </trkpt>
      <trkpt lat="49.33266" lon="-0.40625">
        <ele>7</ele>
        <time>2023-07-05T14:04:55Z</time>
      </trkpt>
      <trkpt lat="49.33261" lon="-0.4062">
        <ele>7.2</ele>
        <time>2023-07-05T14:04:56Z</time>
      </trkpt>
      <trkpt lat="49.33256" lon="-0.40613">
        <ele>7.4</ele>
        <time>2023-07-05T14:04:57Z</time>
      </trkpt>
      <trkpt lat="49.33251" lon="-0.40607">
        <ele>7.5</ele>
        <time>2023-07-05T14:04:58Z</time>
      </trkpt>
      <trkpt lat="49.33246" lon="-0.40601">
        <ele>7.7</ele>
        <time>2023-07-05T14:04:59Z</time>
      </trkpt>
      <trkpt lat="49.33241" lon="-0.40595">
        <ele>7.8</ele>
        <time>2023-07-05T14:05:00Z</time>
      </trkpt>
      <trkpt lat="49.33236" lon="-0.4059">
        <ele>7.9</ele>
        <time>2023-07-05T14:05:01Z</time>
      </trkpt>
      <trkpt lat="49.3323" lon="-0.40585">
        <ele>7.9</ele>
        <time>2023-07-05T14:05:02Z</time>
      </trkpt>
      <trkpt lat="49.33224" lon="-0.40582">
        <ele>8</ele>
        <time>2023-07-05T14:05:03Z</time>
      </trkpt>
      <trkpt lat="49.33217" lon="-0.40578">
        <ele>8.1</ele>
        <time>2023-07-05T14:05:04Z</time>
      </trkpt>
      <trkpt lat="49.3321" lon="-0.40574">
        <ele>8.2</ele>
        <time>2023-07-05T14:05:05Z</time>
      </trkpt>
      <trkpt lat="49.33203" lon="-0.40569">
        <ele>8.4</ele>
        <time>2023-07-05T14:05:06Z</time>
      </trkpt>
      <trkpt lat="49.33197" lon="-0.40562">
        <ele>8.6</ele>
        <time>2023-07-05T14:05:07Z</time>
      </trkpt>
      <trkpt lat="49.33191" lon="-0.40554">
        <ele>8.6</ele>
        <time>2023-07-05T14:05:08Z</time>
      </trkpt>
      <trkpt lat="49.33185" lon="-0.40545">
        <ele>8.6</ele>
        <time>2023-07-05T14:05:09Z</time>
      </trkpt>
      <trkpt lat="49.33179" lon="-0.40537">
        <ele>8.6</ele>
        <time>2023-07-05T14:05:10Z</time>
      </trkpt>
      <trkpt lat="49.33172" lon="-0.4053">
        <ele>8.7</ele>
        <time>2023-07-05T14:05:11Z</time>
      </trkpt>
      <trkpt lat="49.33165" lon="-0.40523">
        <ele>8.7</ele>
        <time>2023-07-05T14:05:12Z</time>
      </trkpt>
      <trkpt lat="49.33159" lon="-0.40517">
        <ele>8.7</ele>
        <time>2023-07-05T14:05:13Z</time>
      </trkpt>
      <trkpt lat="49.33152" lon="-0.40511">
        <ele>8.7</ele>
        <time>2023-07-05T14:05:14Z</time>
      </trkpt>
      <trkpt lat="49.33144" lon="-0.40505">
        <ele>8.7</ele>
        <time>2023-07-05T14:05:15Z</time>
      </trkpt>
      <trkpt lat="49.33138" lon="-0.40499">
        <ele>8.8</ele>
        <time>2023-07-05T14:05:16Z</time>
      </trkpt>
      <trkpt lat="49.33131" lon="-0.40493">
        <ele>8.8</ele>
        <time>2023-07-05T14:05:17Z</time>
      </trkpt>
      <trkpt lat="49.33125" lon="-0.40486">
        <ele>8.8</ele>
        <time>2023-07-05T14:05:18Z</time>
      </trkpt>
      <trkpt lat="49.33118" lon="-0.4048">
        <ele>8.8</ele>
        <time>2023-07-05T14:05:19Z</time>
      </trkpt>
      <trkpt lat="49.33111" lon="-0.40474">
        <ele>8.8</ele>
        <time>2023-07-05T14:05:20Z</time>
      </trkpt>
      <trkpt lat="49.33104" lon="-0.40468">
        <ele>8.8</ele>
        <time>2023-07-05T14:05:21Z</time>
      </trkpt>
      <trkpt lat="49.33097" lon="-0.40462">
        <ele>8.9</ele>
        <time>2023-07-05T14:05:22Z</time>
      </trkpt>
      <trkpt lat="49.33091" lon="-0.40456">
        <ele>8.9</ele>
        <time>2023-07-05T14:05:23Z</time>
      </trkpt>
      <trkpt lat="49.33085" lon="-0.4045">
        <ele>8.9</ele>
        <time>2023-07-05T14:05:24Z</time>
      </trkpt>
      <trkpt lat="49.33078" lon="-0.40444">
        <ele>8.9</ele>
        <time>2023-07-05T14:05:25Z</time>
      </trkpt>
      <trkpt lat="49.33072" lon="-0.40437">
        <ele>9</ele>
        <time>2023-07-05T14:05:26Z</time>
      </trkpt>
      <trkpt lat="49.33066" lon="-0.4043">
        <ele>9</ele>
        <time>2023-07-05T14:05:27Z</time>
      </trkpt>
      <trkpt lat="49.33059" lon="-0.40424">
        <ele>9</ele>
        <time>2023-07-05T14:05:28Z</time>
      </trkpt>
      <trkpt lat="49.33052" lon="-0.40417">
        <ele>9</ele>
        <time>2023-07-05T14:05:29Z</time>
      </trkpt>
      <trkpt lat="49.33046" lon="-0.4041">
        <ele>9</ele>
        <time>2023-07-05T14:05:30Z</time>
      </trkpt>
      <trkpt lat="49.33038" lon="-0.40403">
        <ele>9</ele>
        <time>2023-07-05T14:05:31Z</time>
      </trkpt>
      <trkpt lat="49.33032" lon="-0.40396">
        <ele>9.1</ele>
        <time>2023-07-05T14:05:32Z</time>
      </trkpt>
      <trkpt lat="49.33025" lon="-0.40387">
        <ele>9.1</ele>
        <time>2023-07-05T14:05:33Z</time>
      </trkpt>
      <trkpt lat="49.33019" lon="-0.40379">
        <ele>9.2</ele>
        <time>2023-07-05T14:05:34Z</time>
      </trkpt>
      <trkpt lat="49.33012" lon="-0.4037">
        <ele>9.2</ele>
        <time>2023-07-05T14:05:35Z</time>
      </trkpt>
      <trkpt lat="49.33005" lon="-0.40361">
        <ele>9.2</ele>
        <time>2023-07-05T14:05:36Z</time>
      </trkpt>
      <trkpt lat="49.32998" lon="-0.40353">
        <ele>9.3</ele>
        <time>2023-07-05T14:05:37Z</time>
      </trkpt>
      <trkpt lat="49.32992" lon="-0.40345">
        <ele>9.3</ele>
        <time>2023-07-05T14:05:38Z</time>
      </trkpt>
      <trkpt lat="49.32985" lon="-0.40336">
        <ele>9.3</ele>
        <time>2023-07-05T14:05:39Z</time>
      </trkpt>
      <trkpt lat="49.32979" lon="-0.40327">
        <ele>9.3</ele>
        <time>2023-07-05T14:05:40Z</time>
      </trkpt>
      <trkpt lat="49.32973" lon="-0.40317">
        <ele>9.4</ele>
        <time>2023-07-05T14:05:41Z</time>
      </trkpt>
      <trkpt lat="49.32967" lon="-0.40307">
        <ele>9.4</ele>
        <time>2023-07-05T14:05:42Z</time>
      </trkpt>
      <trkpt lat="49.32961" lon="-0.40297">
        <ele>9.4</ele>
        <time>2023-07-05T14:05:43Z</time>
      </trkpt>
      <trkpt lat="49.32956" lon="-0.40288">
        <ele>9.4</ele>
        <time>2023-07-05T14:05:44Z</time>
      </trkpt>
      <trkpt lat="49.3295" lon="-0.40278">
        <ele>9.5</ele>
        <time>2023-07-05T14:05:45Z</time>
      </trkpt>
      <trkpt lat="49.32944" lon="-0.40268">
        <ele>9.5</ele>
        <time>2023-07-05T14:05:46Z</time>
      </trkpt>
      <trkpt lat="49.32939" lon="-0.40257">
        <ele>9.6</ele>
        <time>2023-07-05T14:05:47Z</time>
      </trkpt>
      <trkpt lat="49.32933" lon="-0.40248">
        <ele>9.6</ele>
        <time>2023-07-05T14:05:48Z</time>
      </trkpt>
      <trkpt lat="49.32927" lon="-0.40238">
        <ele>9.7</ele>
        <time>2023-07-05T14:05:49Z</time>
      </trkpt>
      <trkpt lat="49.32922" lon="-0.40228">
        <ele>9.8</ele>
        <time>2023-07-05T14:05:50Z</time>
      </trkpt>
      <trkpt lat="49.32917" lon="-0.40218">
        <ele>9.8</ele>
        <time>2023-07-05T14:05:51Z</time>
      </trkpt>
      <trkpt lat="49.32912" lon="-0.40208">
        <ele>9.9</ele>
        <time>2023-07-05T14:05:52Z</time>
      </trkpt>
      <trkpt lat="49.32907" lon="-0.40198">
        <ele>9.9</ele>
        <time>2023-07-05T14:05:53Z</time>
      </trkpt>
      <trkpt lat="49.32902" lon="-0.40187">
        <ele>10</ele>
        <time>2023-07-05T14:05:54Z</time>
      </trkpt>
      <trkpt lat="49.32897" lon="-0.40176">
        <ele>10</ele>
        <time>2023-07-05T14:05:55Z</time>
      </trkpt>
      <trkpt lat="49.32892" lon="-0.40165">
        <ele>10</ele>
        <time>2023-07-05T14:05:56Z</time>
      </trkpt>
      <trkpt lat="49.32888" lon="-0.40153">
        <ele>10</ele>
        <time>2023-07-05T14:05:57Z</time>
      </trkpt>
      <trkpt lat="49.32883" lon="-0.40141">
        <ele>10</ele>
        <time>2023-07-05T14:05:58Z</time>
      </trkpt>
      <trkpt lat="49.32879" lon="-0.4013">
        <ele>10.1</ele>
        <time>2023-07-05T14:05:59Z</time>
      </trkpt>
      <trkpt lat="49.32874" lon="-0.40118">
        <ele>10.1</ele>
        <time>2023-07-05T14:06:00Z</time>
      </trkpt>
      <trkpt lat="49.3287" lon="-0.40106">
        <ele>10.1</ele>
        <time>2023-07-05T14:06:01Z</time>
      </trkpt>
      <trkpt lat="49.32867" lon="-0.40094">
        <ele>10.2</ele>
        <time>2023-07-05T14:06:02Z</time>
      </trkpt>
      <trkpt lat="49.32863" lon="-0.40081">
        <ele>10.2</ele>
        <time>2023-07-05T14:06:03Z</time>
      </trkpt>
      <trkpt lat="49.3286" lon="-0.40068">
        <ele>10.2</ele>
        <time>2023-07-05T14:06:04Z</time>
      </trkpt>
      <trkpt lat="49.32856" lon="-0.40056">
        <ele>10.2</ele>
        <time>2023-07-05T14:06:05Z</time>
      </trkpt>
      <trkpt lat="49.32853" lon="-0.40043">
        <ele>10.2</ele>
        <time>2023-07-05T14:06:06Z</time>
      </trkpt>
      <trkpt lat="49.32849" lon="-0.4003">
        <ele>10.2</ele>
        <time>2023-07-05T14:06:07Z</time>
      </trkpt>
      <trkpt lat="49.32846" lon="-0.40017">
        <ele>10.2</ele>
        <time>2023-07-05T14:06:08Z</time>
      </trkpt>
      <trkpt lat="49.32843" lon="-0.40005">
        <ele>10.2</ele>
        <time>2023-07-05T14:06:09Z</time>
      </trkpt>
      <trkpt lat="49.3284" lon="-0.39993">
        <ele>10.1</ele>
        <time>2023-07-05T14:06:10Z</time>
      </trkpt>
      <trkpt lat="49.32837" lon="-0.39981">
        <ele>10.1</ele>
        <time>2023-07-05T14:06:11Z</time>
      </trkpt>
      <trkpt lat="49.32835" lon="-0.39968">
        <ele>10.1</ele>
        <time>2023-07-05T14:06:12Z</time>
      </trkpt>
      <trkpt lat="49.32832" lon="-0.39956">
        <ele>10</ele>
        <time>2023-07-05T14:06:13Z</time>
      </trkpt>
      <trkpt lat="49.3283" lon="-0.39943">
        <ele>10</ele>
        <time>2023-07-05T14:06:14Z</time>
      </trkpt>
      <trkpt lat="49.32828" lon="-0.3993">
        <ele>10</ele>
        <time>2023-07-05T14:06:15Z</time>
      </trkpt>
      <trkpt lat="49.32826" lon="-0.39916">
        <ele>10</ele>
        <time>2023-07-05T14:06:16Z</time>
      </trkpt>
      <trkpt lat="49.32824" lon="-0.39903">
        <ele>10</ele>
        <time>2023-07-05T14:06:17Z</time>
      </trkpt>
      <trkpt lat="49.32822" lon="-0.3989">
        <ele>10</ele>
        <time>2023-07-05T14:06:18Z</time>
      </trkpt>
      <trkpt lat="49.3282" lon="-0.39876">
        <ele>9.9</ele>
        <time>2023-07-05T14:06:19Z</time>
      </trkpt>
      <trkpt lat="49.32818" lon="-0.39862">
        <ele>9.9</ele>
        <time>2023-07-05T14:06:20Z</time>
      </trkpt>
      <trkpt lat="49.32816" lon="-0.39848">
        <ele>9.8</ele>
        <time>2023-07-05T14:06:21Z</time>
      </trkpt>
      <trkpt lat="49.32815" lon="-0.39834">
        <ele>9.8</ele>
        <time>2023-07-05T14:06:22Z</time>
      </trkpt>
      <trkpt lat="49.32813" lon="-0.3982">
        <ele>9.7</ele>
        <time>2023-07-05T14:06:23Z</time>
      </trkpt>
      <trkpt lat="49.32811" lon="-0.39807">
        <ele>9.6</ele>
        <time>2023-07-05T14:06:24Z</time>
      </trkpt>
      <trkpt lat="49.32809" lon="-0.39793">
        <ele>9.5</ele>
        <time>2023-07-05T14:06:25Z</time>
      </trkpt>
      <trkpt lat="49.32807" lon="-0.39779">
        <ele>9.5</ele>
        <time>2023-07-05T14:06:26Z</time>
      </trkpt>
      <trkpt lat="49.32806" lon="-0.39766">
        <ele>9.4</ele>
        <time>2023-07-05T14:06:27Z</time>
      </trkpt>
      <trkpt lat="49.32804" lon="-0.39752">
        <ele>9.4</ele>
        <time>2023-07-05T14:06:28Z</time>
      </trkpt>
      <trkpt lat="49.32802" lon="-0.39739">
        <ele>9.4</ele>
        <time>2023-07-05T14:06:29Z</time>
      </trkpt>
      <trkpt lat="49.32801" lon="-0.39726">
        <ele>9.4</ele>
        <time>2023-07-05T14:06:30Z</time>
      </trkpt>
      <trkpt lat="49.32799" lon="-0.39714">
        <ele>9.4</ele>
        <time>2023-07-05T14:06:31Z</time>
      </trkpt>
      <trkpt lat="49.32798" lon="-0.39702">
        <ele>9.4</ele>
        <time>2023-07-05T14:06:32Z</time>
      </trkpt>
      <trkpt lat="49.32797" lon="-0.3969">
        <ele>9.4</ele>
        <time>2023-07-05T14:06:33Z</time>
      </trkpt>
      <trkpt lat="49.32795" lon="-0.39678">
        <ele>9.4</ele>
        <time>2023-07-05T14:06:34Z</time>
      </trkpt>
      <trkpt lat="49.32794" lon="-0.39666">
        <ele>9.4</ele>
        <time>2023-07-05T14:06:35Z</time>
      </trkpt>
      <trkpt lat="49.32793" lon="-0.39654">
        <ele>9.4</ele>
        <time>2023-07-05T14:06:36Z</time>
      </trkpt>
      <trkpt lat="49.32792" lon="-0.39641">
        <ele>9.4</ele>
        <time>2023-07-05T14:06:37Z</time>
      </trkpt>
      <trkpt lat="49.32791" lon="-0.39629">
        <ele>9.4</ele>
        <time>2023-07-05T14:06:38Z</time>
      </trkpt>
      <trkpt lat="49.32789" lon="-0.39618">
        <ele>9.4</ele>
        <time>2023-07-05T14:06:39Z</time>
      </trkpt>
      <trkpt lat="49.32787" lon="-0.39605">
        <ele>9.4</ele>
        <time>2023-07-05T14:06:40Z</time>
      </trkpt>
      <trkpt lat="49.32786" lon="-0.39593">
        <ele>9.4</ele>
        <time>2023-07-05T14:06:41Z</time>
      </trkpt>
      <trkpt lat="49.32785" lon="-0.3958">
        <ele>9.3</ele>
        <time>2023-07-05T14:06:42Z</time>
      </trkpt>
      <trkpt lat="49.32785" lon="-0.39568">
        <ele>9.3</ele>
        <time>2023-07-05T14:06:43Z</time>
      </trkpt>
      <trkpt lat="49.32784" lon="-0.39556">
        <ele>9.2</ele>
        <time>2023-07-05T14:06:44Z</time>
      </trkpt>
      <trkpt lat="49.32784" lon="-0.39545">
        <ele>9.2</ele>
        <time>2023-07-05T14:06:45Z</time>
      </trkpt>
      <trkpt lat="49.32784" lon="-0.39534">
        <ele>9.2</ele>
        <time>2023-07-05T14:06:46Z</time>
      </trkpt>
      <trkpt lat="49.32784" lon="-0.39525">
        <ele>9.2</ele>
        <time>2023-07-05T14:06:47Z</time>
      </trkpt>
      <trkpt lat="49.32784" lon="-0.39516">
        <ele>9.1</ele>
        <time>2023-07-05T14:06:48Z</time>
      </trkpt>
      <trkpt lat="49.32784" lon="-0.39505">
        <ele>9.1</ele>
        <time>2023-07-05T14:06:49Z</time>
      </trkpt>
      <trkpt lat="49.32785" lon="-0.39494">
        <ele>9.1</ele>
        <time>2023-07-05T14:06:50Z</time>
      </trkpt>
      <trkpt lat="49.32786" lon="-0.39482">
        <ele>9.1</ele>
        <time>2023-07-05T14:06:51Z</time>
      </trkpt>
      <trkpt lat="49.32786" lon="-0.39468">
        <ele>9</ele>
        <time>2023-07-05T14:06:52Z</time>
      </trkpt>
      <trkpt lat="49.32787" lon="-0.39455">
        <ele>9</ele>
        <time>2023-07-05T14:06:53Z</time>
      </trkpt>
      <trkpt lat="49.32787" lon="-0.39442">
        <ele>9</ele>
        <time>2023-07-05T14:06:54Z</time>
      </trkpt>
      <trkpt lat="49.32788" lon="-0.39429">
        <ele>8.9</ele>
        <time>2023-07-05T14:06:55Z</time>
      </trkpt>
      <trkpt lat="49.32789" lon="-0.39415">
        <ele>8.9</ele>
        <time>2023-07-05T14:06:56Z</time>
      </trkpt>
      <trkpt lat="49.32789" lon="-0.39401">
        <ele>8.8</ele>
        <time>2023-07-05T14:06:57Z</time>
      </trkpt>
      <trkpt lat="49.3279" lon="-0.39386">
        <ele>8.8</ele>
        <time>2023-07-05T14:06:58Z</time>
      </trkpt>
      <trkpt lat="49.3279" lon="-0.39373">
        <ele>8.8</ele>
        <time>2023-07-05T14:06:59Z</time>
      </trkpt>
      <trkpt lat="49.32789" lon="-0.39359">
        <ele>8.8</ele>
        <time>2023-07-05T14:07:00Z</time>
      </trkpt>
      <trkpt lat="49.32789" lon="-0.39346">
        <ele>8.9</ele>
        <time>2023-07-05T14:07:01Z</time>
      </trkpt>
      <trkpt lat="49.32788" lon="-0.39334">
        <ele>9</ele>
        <time>2023-07-05T14:07:02Z</time>
      </trkpt>
      <trkpt lat="49.32788" lon="-0.39321">
        <ele>9</ele>
        <time>2023-07-05T14:07:03Z</time>
      </trkpt>
      <trkpt lat="49.32788" lon="-0.39308">
        <ele>9.1</ele>
        <time>2023-07-05T14:07:04Z</time>
      </trkpt>
      <trkpt lat="49.32788" lon="-0.39294">
        <ele>9.1</ele>
        <time>2023-07-05T14:07:05Z</time>
      </trkpt>
      <trkpt lat="49.32787" lon="-0.3928">
        <ele>9.1</ele>
        <time>2023-07-05T14:07:06Z</time>
      </trkpt>
      <trkpt lat="49.32786" lon="-0.39266">
        <ele>9.2</ele>
        <time>2023-07-05T14:07:07Z</time>
      </trkpt>
      <trkpt lat="49.32785" lon="-0.39252">
        <ele>9.2</ele>
        <time>2023-07-05T14:07:08Z</time>
      </trkpt>
      <trkpt lat="49.32784" lon="-0.39238">
        <ele>9.2</ele>
        <time>2023-07-05T14:07:09Z</time>
      </trkpt>
      <trkpt lat="49.32783" lon="-0.39224">
        <ele>9.3</ele>
        <time>2023-07-05T14:07:10Z</time>
      </trkpt>
      <trkpt lat="49.32783" lon="-0.3921">
        <ele>9.3</ele>
        <time>2023-07-05T14:07:11Z</time>
      </trkpt>
      <trkpt lat="49.32781" lon="-0.39197">
        <ele>9.3</ele>
        <time>2023-07-05T14:07:12Z</time>
      </trkpt>
      <trkpt lat="49.3278" lon="-0.39184">
        <ele>9.3</ele>
        <time>2023-07-05T14:07:13Z</time>
      </trkpt>
      <trkpt lat="49.32778" lon="-0.39173">
        <ele>9.4</ele>
        <time>2023-07-05T14:07:14Z</time>
      </trkpt>
      <trkpt lat="49.32777" lon="-0.39161">
        <ele>9.4</ele>
        <time>2023-07-05T14:07:15Z</time>
      </trkpt>
      <trkpt lat="49.32775" lon="-0.39149">
        <ele>9.4</ele>
        <time>2023-07-05T14:07:16Z</time>
      </trkpt>
      <trkpt lat="49.32774" lon="-0.39137">
        <ele>9.4</ele>
        <time>2023-07-05T14:07:17Z</time>
      </trkpt>
      <trkpt lat="49.32772" lon="-0.39126">
        <ele>9.4</ele>
        <time>2023-07-05T14:07:18Z</time>
      </trkpt>
      <trkpt lat="49.3277" lon="-0.39115">
        <ele>9.4</ele>
        <time>2023-07-05T14:07:19Z</time>
      </trkpt>
      <trkpt lat="49.32768" lon="-0.39103">
        <ele>9.4</ele>
        <time>2023-07-05T14:07:20Z</time>
      </trkpt>
      <trkpt lat="49.32765" lon="-0.39092">
        <ele>9.4</ele>
        <time>2023-07-05T14:07:21Z</time>
      </trkpt>
      <trkpt lat="49.32763" lon="-0.39081">
        <ele>9.4</ele>
        <time>2023-07-05T14:07:22Z</time>
      </trkpt>
      <trkpt lat="49.32761" lon="-0.39069">
        <ele>9.4</ele>
        <time>2023-07-05T14:07:23Z</time>
      </trkpt>
      <trkpt lat="49.32759" lon="-0.39056">
        <ele>9.4</ele>
        <time>2023-07-05T14:07:24Z</time>
      </trkpt>
      <trkpt lat="49.32757" lon="-0.39045">
        <ele>9.4</ele>
        <time>2023-07-05T14:07:25Z</time>
      </trkpt>
      <trkpt lat="49.32756" lon="-0.39036">
        <ele>9.4</ele>
        <time>2023-07-05T14:07:26Z</time>
      </trkpt>
      <trkpt lat="49.32754" lon="-0.39027">
        <ele>9.4</ele>
        <time>2023-07-05T14:07:27Z</time>
      </trkpt>
      <trkpt lat="49.32752" lon="-0.39019">
        <ele>9.4</ele>
        <time>2023-07-05T14:07:28Z</time>
      </trkpt>
      <trkpt lat="49.32749" lon="-0.39011">
        <ele>9.4</ele>
        <time>2023-07-05T14:07:29Z</time>
      </trkpt>
      <trkpt lat="49.32746" lon="-0.39002">
        <ele>9.3</ele>
        <time>2023-07-05T14:07:30Z</time>
      </trkpt>
      <trkpt lat="49.32743" lon="-0.38993">
        <ele>9.3</ele>
        <time>2023-07-05T14:07:31Z</time>
      </trkpt>
      <trkpt lat="49.3274" lon="-0.38981">
        <ele>9.3</ele>
        <time>2023-07-05T14:07:32Z</time>
      </trkpt>
      <trkpt lat="49.32736" lon="-0.3897">
        <ele>9.2</ele>
        <time>2023-07-05T14:07:33Z</time>
      </trkpt>
      <trkpt lat="49.32733" lon="-0.38957">
        <ele>9.2</ele>
        <time>2023-07-05T14:07:34Z</time>
      </trkpt>
      <trkpt lat="49.32731" lon="-0.38945">
        <ele>9.2</ele>
        <time>2023-07-05T14:07:35Z</time>
      </trkpt>
      <trkpt lat="49.32728" lon="-0.38933">
        <ele>9.2</ele>
        <time>2023-07-05T14:07:36Z</time>
      </trkpt>
      <trkpt lat="49.32725" lon="-0.38921">
        <ele>9.2</ele>
        <time>2023-07-05T14:07:37Z</time>
      </trkpt>
      <trkpt lat="49.32721" lon="-0.38909">
        <ele>9.2</ele>
        <time>2023-07-05T14:07:38Z</time>
      </trkpt>
      <trkpt lat="49.32718" lon="-0.38897">
        <ele>9.2</ele>
        <time>2023-07-05T14:07:39Z</time>
      </trkpt>
      <trkpt lat="49.32716" lon="-0.38885">
        <ele>9.2</ele>
        <time>2023-07-05T14:07:40Z</time>
      </trkpt>
      <trkpt lat="49.32714" lon="-0.38873">
        <ele>9.2</ele>
        <time>2023-07-05T14:07:41Z</time>
      </trkpt>
      <trkpt lat="49.32711" lon="-0.38861">
        <ele>9.2</ele>
        <time>2023-07-05T14:07:42Z</time>
      </trkpt>
      <trkpt lat="49.32709" lon="-0.3885">
        <ele>9.1</ele>
        <time>2023-07-05T14:07:43Z</time>
      </trkpt>
      <trkpt lat="49.32707" lon="-0.38839">
        <ele>9.1</ele>
        <time>2023-07-05T14:07:44Z</time>
      </trkpt>
      <trkpt lat="49.32705" lon="-0.38828">
        <ele>9</ele>
        <time>2023-07-05T14:07:45Z</time>
      </trkpt>
      <trkpt lat="49.32704" lon="-0.38816">
        <ele>9</ele>
        <time>2023-07-05T14:07:46Z</time>
      </trkpt>
      <trkpt lat="49.32703" lon="-0.38806">
        <ele>9</ele>
        <time>2023-07-05T14:07:47Z</time>
      </trkpt>
      <trkpt lat="49.32702" lon="-0.38796">
        <ele>9</ele>
        <time>2023-07-05T14:07:48Z</time>
      </trkpt>
      <trkpt lat="49.32702" lon="-0.38788">
        <ele>8.9</ele>
        <time>2023-07-05T14:07:49Z</time>
      </trkpt>
      <trkpt lat="49.32701" lon="-0.3878">
        <ele>8.9</ele>
        <time>2023-07-05T14:07:50Z</time>
      </trkpt>
      <trkpt lat="49.327" lon="-0.38771">
        <ele>8.9</ele>
        <time>2023-07-05T14:07:51Z</time>
      </trkpt>
      <trkpt lat="49.32699" lon="-0.38763">
        <ele>8.8</ele>
        <time>2023-07-05T14:07:52Z</time>
      </trkpt>
      <trkpt lat="49.32698" lon="-0.38753">
        <ele>8.8</ele>
        <time>2023-07-05T14:07:53Z</time>
      </trkpt>
      <trkpt lat="49.32698" lon="-0.38743">
        <ele>8.8</ele>
        <time>2023-07-05T14:07:54Z</time>
      </trkpt>
      <trkpt lat="49.32697" lon="-0.38732">
        <ele>8.8</ele>
        <time>2023-07-05T14:07:55Z</time>
      </trkpt>
      <trkpt lat="49.32697" lon="-0.38722">
        <ele>8.7</ele>
        <time>2023-07-05T14:07:56Z</time>
      </trkpt>
      <trkpt lat="49.32696" lon="-0.3871">
        <ele>8.6</ele>
        <time>2023-07-05T14:07:57Z</time>
      </trkpt>
      <trkpt lat="49.32695" lon="-0.38697">
        <ele>8.5</ele>
        <time>2023-07-05T14:07:58Z</time>
      </trkpt>
      <trkpt lat="49.32693" lon="-0.38684">
        <ele>8.4</ele>
        <time>2023-07-05T14:07:59Z</time>
      </trkpt>
      <trkpt lat="49.32691" lon="-0.38671">
        <ele>8.2</ele>
        <time>2023-07-05T14:08:00Z</time>
      </trkpt>
      <trkpt lat="49.32687" lon="-0.38659">
        <ele>8.1</ele>
        <time>2023-07-05T14:08:01Z</time>
      </trkpt>
      <trkpt lat="49.32683" lon="-0.38647">
        <ele>8</ele>
        <time>2023-07-05T14:08:02Z</time>
      </trkpt>
      <trkpt lat="49.32678" lon="-0.38635">
        <ele>7.9</ele>
        <time>2023-07-05T14:08:03Z</time>
      </trkpt>
      <trkpt lat="49.32672" lon="-0.38624">
        <ele>7.8</ele>
        <time>2023-07-05T14:08:04Z</time>
      </trkpt>
      <trkpt lat="49.32666" lon="-0.38614">
        <ele>7.6</ele>
        <time>2023-07-05T14:08:05Z</time>
      </trkpt>
      <trkpt lat="49.3266" lon="-0.38604">
        <ele>7.5</ele>
        <time>2023-07-05T14:08:06Z</time>
      </trkpt>
      <trkpt lat="49.32654" lon="-0.38592">
        <ele>7.4</ele>
        <time>2023-07-05T14:08:07Z</time>
      </trkpt>
      <trkpt lat="49.32649" lon="-0.3858">
        <ele>7.3</ele>
        <time>2023-07-05T14:08:08Z</time>
      </trkpt>
      <trkpt lat="49.32644" lon="-0.38568">
        <ele>7.2</ele>
        <time>2023-07-05T14:08:09Z</time>
      </trkpt>
      <trkpt lat="49.32639" lon="-0.38556">
        <ele>7.1</ele>
        <time>2023-07-05T14:08:10Z</time>
      </trkpt>
      <trkpt lat="49.32633" lon="-0.38545">
        <ele>7</ele>
        <time>2023-07-05T14:08:11Z</time>
      </trkpt>
      <trkpt lat="49.32627" lon="-0.38533">
        <ele>6.9</ele>
        <time>2023-07-05T14:08:12Z</time>
      </trkpt>
      <trkpt lat="49.32621" lon="-0.38522">
        <ele>6.8</ele>
        <time>2023-07-05T14:08:13Z</time>
      </trkpt>
      <trkpt lat="49.32615" lon="-0.38512">
        <ele>6.7</ele>
        <time>2023-07-05T14:08:14Z</time>
      </trkpt>
      <trkpt lat="49.32608" lon="-0.38501">
        <ele>6.7</ele>
        <time>2023-07-05T14:08:15Z</time>
      </trkpt>
      <trkpt lat="49.32603" lon="-0.38489">
        <ele>6.6</ele>
        <time>2023-07-05T14:08:16Z</time>
      </trkpt>
      <trkpt lat="49.32598" lon="-0.38476">
        <ele>6.6</ele>
        <time>2023-07-05T14:08:17Z</time>
      </trkpt>
      <trkpt lat="49.32592" lon="-0.38464">
        <ele>6.6</ele>
        <time>2023-07-05T14:08:18Z</time>
      </trkpt>
      <trkpt lat="49.32587" lon="-0.38452">
        <ele>6.6</ele>
        <time>2023-07-05T14:08:19Z</time>
      </trkpt>
      <trkpt lat="49.32582" lon="-0.38441">
        <ele>6.7</ele>
        <time>2023-07-05T14:08:20Z</time>
      </trkpt>
      <trkpt lat="49.32577" lon="-0.38431">
        <ele>6.8</ele>
        <time>2023-07-05T14:08:21Z</time>
      </trkpt>
      <trkpt lat="49.32572" lon="-0.3842">
        <ele>6.9</ele>
        <time>2023-07-05T14:08:22Z</time>
      </trkpt>
      <trkpt lat="49.32567" lon="-0.3841">
        <ele>7</ele>
        <time>2023-07-05T14:08:23Z</time>
      </trkpt>
      <trkpt lat="49.32562" lon="-0.38399">
        <ele>7</ele>
        <time>2023-07-05T14:08:24Z</time>
      </trkpt>
      <trkpt lat="49.32556" lon="-0.38388">
        <ele>7.1</ele>
        <time>2023-07-05T14:08:25Z</time>
      </trkpt>
      <trkpt lat="49.32551" lon="-0.38376">
        <ele>7.3</ele>
        <time>2023-07-05T14:08:26Z</time>
      </trkpt>
      <trkpt lat="49.32546" lon="-0.38365">
        <ele>7.4</ele>
        <time>2023-07-05T14:08:27Z</time>
      </trkpt>
      <trkpt lat="49.32541" lon="-0.38355">
        <ele>7.5</ele>
        <time>2023-07-05T14:08:28Z</time>
      </trkpt>
      <trkpt lat="49.32536" lon="-0.38344">
        <ele>7.7</ele>
        <time>2023-07-05T14:08:29Z</time>
      </trkpt>
      <trkpt lat="49.32531" lon="-0.38334">
        <ele>7.8</ele>
        <time>2023-07-05T14:08:30Z</time>
      </trkpt>
      <trkpt lat="49.32526" lon="-0.38324">
        <ele>8</ele>
        <time>2023-07-05T14:08:31Z</time>
      </trkpt>
      <trkpt lat="49.32521" lon="-0.38314">
        <ele>8.2</ele>
        <time>2023-07-05T14:08:32Z</time>
      </trkpt>
      <trkpt lat="49.32516" lon="-0.38304">
        <ele>8.4</ele>
        <time>2023-07-05T14:08:33Z</time>
      </trkpt>
      <trkpt lat="49.32511" lon="-0.38295">
        <ele>8.5</ele>
        <time>2023-07-05T14:08:34Z</time>
      </trkpt>
      <trkpt lat="49.32505" lon="-0.38286">
        <ele>8.7</ele>
        <time>2023-07-05T14:08:35Z</time>
      </trkpt>
      <trkpt lat="49.325" lon="-0.38276">
        <ele>8.8</ele>
        <time>2023-07-05T14:08:36Z</time>
      </trkpt>
      <trkpt lat="49.32495" lon="-0.38266">
        <ele>8.9</ele>
        <time>2023-07-05T14:08:37Z</time>
      </trkpt>
      <trkpt lat="49.32491" lon="-0.38256">
        <ele>9</ele>
        <time>2023-07-05T14:08:38Z</time>
      </trkpt>
      <trkpt lat="49.32486" lon="-0.38246">
        <ele>9.1</ele>
        <time>2023-07-05T14:08:39Z</time>
      </trkpt>
      <trkpt lat="49.32481" lon="-0.38236">
        <ele>9.2</ele>
        <time>2023-07-05T14:08:40Z</time>
      </trkpt>
      <trkpt lat="49.32476" lon="-0.38227">
        <ele>9.2</ele>
        <time>2023-07-05T14:08:41Z</time>
      </trkpt>
      <trkpt lat="49.32471" lon="-0.38217">
        <ele>9.3</ele>
        <time>2023-07-05T14:08:42Z</time>
      </trkpt>
      <trkpt lat="49.32466" lon="-0.38207">
        <ele>9.4</ele>
        <time>2023-07-05T14:08:43Z</time>
      </trkpt>
      <trkpt lat="49.32462" lon="-0.38197">
        <ele>9.5</ele>
        <time>2023-07-05T14:08:44Z</time>
      </trkpt>
      <trkpt lat="49.32456" lon="-0.38188">
        <ele>9.5</ele>
        <time>2023-07-05T14:08:45Z</time>
      </trkpt>
      <trkpt lat="49.32451" lon="-0.38178">
        <ele>9.6</ele>
        <time>2023-07-05T14:08:46Z</time>
      </trkpt>
      <trkpt lat="49.32446" lon="-0.38167">
        <ele>9.6</ele>
        <time>2023-07-05T14:08:47Z</time>
      </trkpt>
      <trkpt lat="49.32441" lon="-0.38156">
        <ele>9.6</ele>
        <time>2023-07-05T14:08:48Z</time>
      </trkpt>
      <trkpt lat="49.32436" lon="-0.38145">
        <ele>9.7</ele>
        <time>2023-07-05T14:08:49Z</time>
      </trkpt>
      <trkpt lat="49.32431" lon="-0.38134">
        <ele>9.7</ele>
        <time>2023-07-05T14:08:50Z</time>
      </trkpt>
      <trkpt lat="49.32426" lon="-0.38124">
        <ele>9.7</ele>
        <time>2023-07-05T14:08:51Z</time>
      </trkpt>
      <trkpt lat="49.32421" lon="-0.38113">
        <ele>9.7</ele>
        <time>2023-07-05T14:08:52Z</time>
      </trkpt>
      <trkpt lat="49.32416" lon="-0.38103">
        <ele>9.7</ele>
        <time>2023-07-05T14:08:53Z</time>
      </trkpt>
      <trkpt lat="49.32411" lon="-0.38092">
        <ele>9.7</ele>
        <time>2023-07-05T14:08:54Z</time>
      </trkpt>
      <trkpt lat="49.32406" lon="-0.38081">
        <ele>9.7</ele>
        <time>2023-07-05T14:08:55Z</time>
      </trkpt>
      <trkpt lat="49.32401" lon="-0.3807">
        <ele>9.8</ele>
        <time>2023-07-05T14:08:56Z</time>
      </trkpt>
      <trkpt lat="49.32395" lon="-0.38059">
        <ele>9.8</ele>
        <time>2023-07-05T14:08:57Z</time>
      </trkpt>
      <trkpt lat="49.3239" lon="-0.38049">
        <ele>9.8</ele>
        <time>2023-07-05T14:08:58Z</time>
      </trkpt>
      <trkpt lat="49.32385" lon="-0.38038">
        <ele>9.8</ele>
        <time>2023-07-05T14:08:59Z</time>
      </trkpt>
      <trkpt lat="49.3238" lon="-0.38027">
        <ele>9.8</ele>
        <time>2023-07-05T14:09:00Z</time>
      </trkpt>
      <trkpt lat="49.32375" lon="-0.38017">
        <ele>9.8</ele>
        <time>2023-07-05T14:09:01Z</time>
      </trkpt>
      <trkpt lat="49.3237" lon="-0.38007">
        <ele>9.9</ele>
        <time>2023-07-05T14:09:02Z</time>
      </trkpt>
      <trkpt lat="49.32365" lon="-0.37997">
        <ele>9.9</ele>
        <time>2023-07-05T14:09:03Z</time>
      </trkpt>
      <trkpt lat="49.3236" lon="-0.37985">
        <ele>9.9</ele>
        <time>2023-07-05T14:09:04Z</time>
      </trkpt>
      <trkpt lat="49.32355" lon="-0.37974">
        <ele>9.9</ele>
        <time>2023-07-05T14:09:05Z</time>
      </trkpt>
      <trkpt lat="49.32349" lon="-0.37964">
        <ele>10</ele>
        <time>2023-07-05T14:09:06Z</time>
      </trkpt>
      <trkpt lat="49.32344" lon="-0.37953">
        <ele>10</ele>
        <time>2023-07-05T14:09:07Z</time>
      </trkpt>
      <trkpt lat="49.32339" lon="-0.37943">
        <ele>10.1</ele>
        <time>2023-07-05T14:09:08Z</time>
      </trkpt>
      <trkpt lat="49.32333" lon="-0.37932">
        <ele>10.1</ele>
        <time>2023-07-05T14:09:09Z</time>
      </trkpt>
      <trkpt lat="49.32328" lon="-0.37922">
        <ele>10.2</ele>
        <time>2023-07-05T14:09:10Z</time>
      </trkpt>
      <trkpt lat="49.32323" lon="-0.37911">
        <ele>10.2</ele>
        <time>2023-07-05T14:09:11Z</time>
      </trkpt>
      <trkpt lat="49.32318" lon="-0.379">
        <ele>10.2</ele>
        <time>2023-07-05T14:09:12Z</time>
      </trkpt>
      <trkpt lat="49.32313" lon="-0.37889">
        <ele>10.2</ele>
        <time>2023-07-05T14:09:13Z</time>
      </trkpt>
      <trkpt lat="49.32308" lon="-0.37877">
        <ele>10.2</ele>
        <time>2023-07-05T14:09:14Z</time>
      </trkpt>
      <trkpt lat="49.32304" lon="-0.37867">
        <ele>10.2</ele>
        <time>2023-07-05T14:09:15Z</time>
      </trkpt>
      <trkpt lat="49.32299" lon="-0.37856">
        <ele>10.2</ele>
        <time>2023-07-05T14:09:16Z</time>
      </trkpt>
      <trkpt lat="49.32293" lon="-0.37846">
        <ele>10.2</ele>
        <time>2023-07-05T14:09:17Z</time>
      </trkpt>
      <trkpt lat="49.32288" lon="-0.37836">
        <ele>10.2</ele>
        <time>2023-07-05T14:09:18Z</time>
      </trkpt>
      <trkpt lat="49.32283" lon="-0.37826">
        <ele>10.3</ele>
        <time>2023-07-05T14:09:19Z</time>
      </trkpt>
      <trkpt lat="49.32278" lon="-0.37817">
        <ele>10.3</ele>
        <time>2023-07-05T14:09:20Z</time>
      </trkpt>
      <trkpt lat="49.32273" lon="-0.37808">
        <ele>10.3</ele>
        <time>2023-07-05T14:09:21Z</time>
      </trkpt>
      <trkpt lat="49.32269" lon="-0.37798">
        <ele>10.2</ele>
        <time>2023-07-05T14:09:22Z</time>
      </trkpt>
      <trkpt lat="49.32265" lon="-0.3779">
        <ele>10.2</ele>
        <time>2023-07-05T14:09:23Z</time>
      </trkpt>
      <trkpt lat="49.3226" lon="-0.37781">
        <ele>10.1</ele>
        <time>2023-07-05T14:09:24Z</time>
      </trkpt>
      <trkpt lat="49.32255" lon="-0.37771">
        <ele>10</ele>
        <time>2023-07-05T14:09:25Z</time>
      </trkpt>
      <trkpt lat="49.3225" lon="-0.37761">
        <ele>9.9</ele>
        <time>2023-07-05T14:09:26Z</time>
      </trkpt>
      <trkpt lat="49.32245" lon="-0.37751">
        <ele>9.8</ele>
        <time>2023-07-05T14:09:27Z</time>
      </trkpt>
      <trkpt lat="49.3224" lon="-0.37741">
        <ele>9.7</ele>
        <time>2023-07-05T14:09:28Z</time>
      </trkpt>
      <trkpt lat="49.32236" lon="-0.3773">
        <ele>9.6</ele>
        <time>2023-07-05T14:09:29Z</time>
      </trkpt>
      <trkpt lat="49.32231" lon="-0.3772">
        <ele>9.4</ele>
        <time>2023-07-05T14:09:30Z</time>
      </trkpt>
      <trkpt lat="49.32226" lon="-0.3771">
        <ele>9.2</ele>
        <time>2023-07-05T14:09:31Z</time>
      </trkpt>
      <trkpt lat="49.32221" lon="-0.37699">
        <ele>9.1</ele>
        <time>2023-07-05T14:09:32Z</time>
      </trkpt>
      <trkpt lat="49.32216" lon="-0.37689">
        <ele>8.9</ele>
        <time>2023-07-05T14:09:33Z</time>
      </trkpt>
      <trkpt lat="49.32211" lon="-0.37678">
        <ele>8.7</ele>
        <time>2023-07-05T14:09:34Z</time>
      </trkpt>
      <trkpt lat="49.32205" lon="-0.37667">
        <ele>8.5</ele>
        <time>2023-07-05T14:09:35Z</time>
      </trkpt>
      <trkpt lat="49.322" lon="-0.37656">
        <ele>8.3</ele>
        <time>2023-07-05T14:09:36Z</time>
      </trkpt>
      <trkpt lat="49.32194" lon="-0.37646">
        <ele>8.1</ele>
        <time>2023-07-05T14:09:37Z</time>
      </trkpt>
      <trkpt lat="49.32188" lon="-0.37635">
        <ele>7.9</ele>
        <time>2023-07-05T14:09:38Z</time>
      </trkpt>
      <trkpt lat="49.32183" lon="-0.37625">
        <ele>7.7</ele>
        <time>2023-07-05T14:09:39Z</time>
      </trkpt>
      <trkpt lat="49.32177" lon="-0.37615">
        <ele>7.5</ele>
        <time>2023-07-05T14:09:40Z</time>
      </trkpt>
      <trkpt lat="49.3217" lon="-0.37606">
        <ele>7.4</ele>
        <time>2023-07-05T14:09:41Z</time>
      </trkpt>
      <trkpt lat="49.32163" lon="-0.37599">
        <ele>7.3</ele>
        <time>2023-07-05T14:09:42Z</time>
      </trkpt>
      <trkpt lat="49.32156" lon="-0.37591">
        <ele>7.1</ele>
        <time>2023-07-05T14:09:43Z</time>
      </trkpt>
      <trkpt lat="49.32149" lon="-0.37584">
        <ele>7</ele>
        <time>2023-07-05T14:09:44Z</time>
      </trkpt>
      <trkpt lat="49.32141" lon="-0.37576">
        <ele>6.8</ele>
        <time>2023-07-05T14:09:45Z</time>
      </trkpt>
      <trkpt lat="49.32134" lon="-0.37567">
        <ele>6.7</ele>
        <time>2023-07-05T14:09:46Z</time>
      </trkpt>
      <trkpt lat="49.32127" lon="-0.37559">
        <ele>6.6</ele>
        <time>2023-07-05T14:09:47Z</time>
      </trkpt>
      <trkpt lat="49.3212" lon="-0.3755">
        <ele>6.5</ele>
        <time>2023-07-05T14:09:48Z</time>
      </trkpt>
      <trkpt lat="49.32114" lon="-0.37541">
        <ele>6.4</ele>
        <time>2023-07-05T14:09:49Z</time>
      </trkpt>
      <trkpt lat="49.32108" lon="-0.37531">
        <ele>6.3</ele>
        <time>2023-07-05T14:09:50Z</time>
      </trkpt>
      <trkpt lat="49.32102" lon="-0.37521">
        <ele>6.3</ele>
        <time>2023-07-05T14:09:51Z</time>
      </trkpt>
      <trkpt lat="49.32096" lon="-0.3751">
        <ele>6.3</ele>
        <time>2023-07-05T14:09:52Z</time>
      </trkpt>
      <trkpt lat="49.32091" lon="-0.37501">
        <ele>6.4</ele>
        <time>2023-07-05T14:09:53Z</time>
      </trkpt>
      <trkpt lat="49.32086" lon="-0.37492">
        <ele>6.4</ele>
        <time>2023-07-05T14:09:54Z</time>
      </trkpt>
      <trkpt lat="49.3208" lon="-0.37483">
        <ele>6.5</ele>
        <time>2023-07-05T14:09:55Z</time>
      </trkpt>
      <trkpt lat="49.32075" lon="-0.37475">
        <ele>6.5</ele>
        <time>2023-07-05T14:09:56Z</time>
      </trkpt>
      <trkpt lat="49.32069" lon="-0.37467">
        <ele>6.5</ele>
        <time>2023-07-05T14:09:57Z</time>
      </trkpt>
      <trkpt lat="49.32064" lon="-0.37461">
        <ele>6.5</ele>
        <time>2023-07-05T14:09:58Z</time>
      </trkpt>
      <trkpt lat="49.32058" lon="-0.37453">
        <ele>6.5</ele>
        <time>2023-07-05T14:09:59Z</time>
      </trkpt>
      <trkpt lat="49.32054" lon="-0.37445">
        <ele>6.5</ele>
        <time>2023-07-05T14:10:00Z</time>
      </trkpt>
      <trkpt lat="49.32048" lon="-0.37437">
        <ele>6.6</ele>
        <time>2023-07-05T14:10:01Z</time>
      </trkpt>
      <trkpt lat="49.32044" lon="-0.37429">
        <ele>6.6</ele>
        <time>2023-07-05T14:10:02Z</time>
      </trkpt>
      <trkpt lat="49.32039" lon="-0.37421">
        <ele>6.6</ele>
        <time>2023-07-05T14:10:03Z</time>
      </trkpt>
      <trkpt lat="49.32035" lon="-0.37412">
        <ele>6.7</ele>
        <time>2023-07-05T14:10:04Z</time>
      </trkpt>
      <trkpt lat="49.32029" lon="-0.37404">
        <ele>6.7</ele>
        <time>2023-07-05T14:10:05Z</time>
      </trkpt>
      <trkpt lat="49.32024" lon="-0.37396">
        <ele>6.8</ele>
        <time>2023-07-05T14:10:06Z</time>
      </trkpt>
      <trkpt lat="49.32019" lon="-0.37388">
        <ele>6.9</ele>
        <time>2023-07-05T14:10:07Z</time>
      </trkpt>
      <trkpt lat="49.32013" lon="-0.37381">
        <ele>7</ele>
        <time>2023-07-05T14:10:08Z</time>
      </trkpt>
      <trkpt lat="49.32007" lon="-0.37374">
        <ele>7.1</ele>
        <time>2023-07-05T14:10:09Z</time>
      </trkpt>
      <trkpt lat="49.32001" lon="-0.37369">
        <ele>7.2</ele>
        <time>2023-07-05T14:10:10Z</time>
      </trkpt>
      <trkpt lat="49.31994" lon="-0.37364">
        <ele>7.3</ele>
        <time>2023-07-05T14:10:11Z</time>
      </trkpt>
      <trkpt lat="49.31986" lon="-0.37362">
        <ele>7.4</ele>
        <time>2023-07-05T14:10:12Z</time>
      </trkpt>
      <trkpt lat="49.31979" lon="-0.37359">
        <ele>7.5</ele>
        <time>2023-07-05T14:10:13Z</time>
      </trkpt>
      <trkpt lat="49.31971" lon="-0.37357">
        <ele>7.6</ele>
        <time>2023-07-05T14:10:14Z</time>
      </trkpt>
      <trkpt lat="49.31965" lon="-0.37352">
        <ele>7.7</ele>
        <time>2023-07-05T14:10:15Z</time>
      </trkpt>
      <trkpt lat="49.31959" lon="-0.37347">
        <ele>7.8</ele>
        <time>2023-07-05T14:10:16Z</time>
      </trkpt>
      <trkpt lat="49.31953" lon="-0.37341">
        <ele>8</ele>
        <time>2023-07-05T14:10:17Z</time>
      </trkpt>
      <trkpt lat="49.31948" lon="-0.37334">
        <ele>8.2</ele>
        <time>2023-07-05T14:10:18Z</time>
      </trkpt>
      <trkpt lat="49.31943" lon="-0.37326">
        <ele>8.4</ele>
        <time>2023-07-05T14:10:19Z</time>
      </trkpt>
      <trkpt lat="49.31937" lon="-0.3732">
        <ele>8.6</ele>
        <time>2023-07-05T14:10:20Z</time>
      </trkpt>
      <trkpt lat="49.31931" lon="-0.37314">
        <ele>8.6</ele>
        <time>2023-07-05T14:10:21Z</time>
      </trkpt>
      <trkpt lat="49.31924" lon="-0.37309">
        <ele>8.7</ele>
        <time>2023-07-05T14:10:22Z</time>
      </trkpt>
      <trkpt lat="49.31917" lon="-0.37307">
        <ele>8.8</ele>
        <time>2023-07-05T14:10:23Z</time>
      </trkpt>
      <trkpt lat="49.3191" lon="-0.37306">
        <ele>8.8</ele>
        <time>2023-07-05T14:10:24Z</time>
      </trkpt>
      <trkpt lat="49.31903" lon="-0.37306">
        <ele>8.9</ele>
        <time>2023-07-05T14:10:25Z</time>
      </trkpt>
      <trkpt lat="49.31895" lon="-0.37309">
        <ele>8.9</ele>
        <time>2023-07-05T14:10:26Z</time>
      </trkpt>
      <trkpt lat="49.31888" lon="-0.37312">
        <ele>9</ele>
        <time>2023-07-05T14:10:27Z</time>
      </trkpt>
      <trkpt lat="49.31881" lon="-0.37314">
        <ele>9.1</ele>
        <time>2023-07-05T14:10:28Z</time>
      </trkpt>
      <trkpt lat="49.31873" lon="-0.37318">
        <ele>9.2</ele>
        <time>2023-07-05T14:10:29Z</time>
      </trkpt>
      <trkpt lat="49.31866" lon="-0.37321">
        <ele>9.3</ele>
        <time>2023-07-05T14:10:30Z</time>
      </trkpt>
      <trkpt lat="49.31858" lon="-0.37323">
        <ele>9.4</ele>
        <time>2023-07-05T14:10:31Z</time>
      </trkpt>
      <trkpt lat="49.31852" lon="-0.37326">
        <ele>9.5</ele>
        <time>2023-07-05T14:10:32Z</time>
      </trkpt>
      <trkpt lat="49.31847" lon="-0.37328">
        <ele>9.5</ele>
        <time>2023-07-05T14:10:33Z</time>
      </trkpt>
      <trkpt lat="49.31842" lon="-0.3733">
        <ele>9.6</ele>
        <time>2023-07-05T14:10:34Z</time>
      </trkpt>
      <trkpt lat="49.31837" lon="-0.37331">
        <ele>9.6</ele>
        <time>2023-07-05T14:10:35Z</time>
      </trkpt>
      <trkpt lat="49.31832" lon="-0.37333">
        <ele>9.7</ele>
        <time>2023-07-05T14:10:36Z</time>
      </trkpt>
      <trkpt lat="49.31827" lon="-0.37335">
        <ele>9.8</ele>
        <time>2023-07-05T14:10:37Z</time>
      </trkpt>
      <trkpt lat="49.31823" lon="-0.37337">
        <ele>9.8</ele>
        <time>2023-07-05T14:10:38Z</time>
      </trkpt>
      <trkpt lat="49.31818" lon="-0.37338">
        <ele>9.8</ele>
        <time>2023-07-05T14:10:39Z</time>
      </trkpt>
      <trkpt lat="49.31813" lon="-0.3734">
        <ele>9.9</ele>
        <time>2023-07-05T14:10:40Z</time>
      </trkpt>
      <trkpt lat="49.31807" lon="-0.37343">
        <ele>9.9</ele>
        <time>2023-07-05T14:10:41Z</time>
      </trkpt>
      <trkpt lat="49.31801" lon="-0.37346">
        <ele>9.9</ele>
        <time>2023-07-05T14:10:42Z</time>
      </trkpt>
      <trkpt lat="49.31795" lon="-0.37347">
        <ele>10</ele>
        <time>2023-07-05T14:10:43Z</time>
      </trkpt>
      <trkpt lat="49.3179" lon="-0.37348">
        <ele>10</ele>
        <time>2023-07-05T14:10:44Z</time>
      </trkpt>
      <trkpt lat="49.31784" lon="-0.37349">
        <ele>10.1</ele>
        <time>2023-07-05T14:10:45Z</time>
      </trkpt>
      <trkpt lat="49.31778" lon="-0.3735">
        <ele>10.1</ele>
        <time>2023-07-05T14:10:46Z</time>
      </trkpt>
      <trkpt lat="49.31772" lon="-0.37352">
        <ele>10.1</ele>
        <time>2023-07-05T14:10:47Z</time>
      </trkpt>
      <trkpt lat="49.31767" lon="-0.37353">
        <ele>10.2</ele>
        <time>2023-07-05T14:10:48Z</time>
      </trkpt>
      <trkpt lat="49.31763" lon="-0.37353">
        <ele>10.2</ele>
        <time>2023-07-05T14:10:49Z</time>
      </trkpt>
      <trkpt lat="49.31759" lon="-0.37352">
        <ele>10.2</ele>
        <time>2023-07-05T14:10:50Z</time>
      </trkpt>
      <trkpt lat="49.31755" lon="-0.37351">
        <ele>10.2</ele>
        <time>2023-07-05T14:10:51Z</time>
      </trkpt>
      <trkpt lat="49.31751" lon="-0.37349">
        <ele>10.3</ele>
        <time>2023-07-05T14:10:52Z</time>
      </trkpt>
      <trkpt lat="49.31747" lon="-0.37348">
        <ele>10.3</ele>
        <time>2023-07-05T14:10:53Z</time>
      </trkpt>
      <trkpt lat="49.31741" lon="-0.37347">
        <ele>10.3</ele>
        <time>2023-07-05T14:10:54Z</time>
      </trkpt>
      <trkpt lat="49.31735" lon="-0.37345">
        <ele>10.3</ele>
        <time>2023-07-05T14:10:55Z</time>
      </trkpt>
      <trkpt lat="49.31727" lon="-0.37344">
        <ele>10.3</ele>
        <time>2023-07-05T14:10:56Z</time>
      </trkpt>
      <trkpt lat="49.3172" lon="-0.37343">
        <ele>10.3</ele>
        <time>2023-07-05T14:10:57Z</time>
      </trkpt>
      <trkpt lat="49.31713" lon="-0.37341">
        <ele>10.3</ele>
        <time>2023-07-05T14:10:58Z</time>
      </trkpt>
      <trkpt lat="49.31705" lon="-0.37341">
        <ele>10.4</ele>
        <time>2023-07-05T14:10:59Z</time>
      </trkpt>
      <trkpt lat="49.31696" lon="-0.3734">
        <ele>10.5</ele>
        <time>2023-07-05T14:11:00Z</time>
      </trkpt>
      <trkpt lat="49.31688" lon="-0.37338">
        <ele>10.5</ele>
        <time>2023-07-05T14:11:01Z</time>
      </trkpt>
      <trkpt lat="49.3168" lon="-0.37338">
        <ele>10.6</ele>
        <time>2023-07-05T14:11:02Z</time>
      </trkpt>
      <trkpt lat="49.31672" lon="-0.37338">
        <ele>10.7</ele>
        <time>2023-07-05T14:11:03Z</time>
      </trkpt>
      <trkpt lat="49.31664" lon="-0.37337">
        <ele>10.7</ele>
        <time>2023-07-05T14:11:04Z</time>
      </trkpt>
      <trkpt lat="49.31656" lon="-0.37335">
        <ele>10.8</ele>
        <time>2023-07-05T14:11:05Z</time>
      </trkpt>
      <trkpt lat="49.31648" lon="-0.37334">
        <ele>10.9</ele>
        <time>2023-07-05T14:11:06Z</time>
      </trkpt>
      <trkpt lat="49.3164" lon="-0.37333">
        <ele>10.9</ele>
        <time>2023-07-05T14:11:07Z</time>
      </trkpt>
      <trkpt lat="49.31632" lon="-0.37332">
        <ele>11</ele>
        <time>2023-07-05T14:11:08Z</time>
      </trkpt>
      <trkpt lat="49.31624" lon="-0.37331">
        <ele>11</ele>
        <time>2023-07-05T14:11:09Z</time>
      </trkpt>
      <trkpt lat="49.31616" lon="-0.37329">
        <ele>11.1</ele>
        <time>2023-07-05T14:11:10Z</time>
      </trkpt>
      <trkpt lat="49.31609" lon="-0.37328">
        <ele>11.2</ele>
        <time>2023-07-05T14:11:11Z</time>
      </trkpt>
      <trkpt lat="49.31601" lon="-0.37326">
        <ele>11.3</ele>
        <time>2023-07-05T14:11:12Z</time>
      </trkpt>
      <trkpt lat="49.31594" lon="-0.37325">
        <ele>11.3</ele>
        <time>2023-07-05T14:11:13Z</time>
      </trkpt>
      <trkpt lat="49.31586" lon="-0.37325">
        <ele>11.4</ele>
        <time>2023-07-05T14:11:14Z</time>
      </trkpt>
      <trkpt lat="49.31579" lon="-0.37324">
        <ele>11.5</ele>
        <time>2023-07-05T14:11:15Z</time>
      </trkpt>
      <trkpt lat="49.31572" lon="-0.37323">
        <ele>11.6</ele>
        <time>2023-07-05T14:11:16Z</time>
      </trkpt>
      <trkpt lat="49.31565" lon="-0.37322">
        <ele>11.7</ele>
        <time>2023-07-05T14:11:17Z</time>
      </trkpt>
      <trkpt lat="49.31558" lon="-0.37321">
        <ele>11.8</ele>
        <time>2023-07-05T14:11:18Z</time>
      </trkpt>
      <trkpt lat="49.31552" lon="-0.37319">
        <ele>11.9</ele>
        <time>2023-07-05T14:11:19Z</time>
      </trkpt>
      <trkpt lat="49.31546" lon="-0.37317">
        <ele>11.9</ele>
        <time>2023-07-05T14:11:20Z</time>
      </trkpt>
      <trkpt lat="49.31539" lon="-0.37315">
        <ele>12</ele>
        <time>2023-07-05T14:11:21Z</time>
      </trkpt>
      <trkpt lat="49.31532" lon="-0.37313">
        <ele>12.1</ele>
        <time>2023-07-05T14:11:22Z</time>
      </trkpt>
      <trkpt lat="49.31526" lon="-0.3731">
        <ele>12.2</ele>
        <time>2023-07-05T14:11:23Z</time>
      </trkpt>
      <trkpt lat="49.3152" lon="-0.37307">
        <ele>12.3</ele>
        <time>2023-07-05T14:11:24Z</time>
      </trkpt>
      <trkpt lat="49.31514" lon="-0.37305">
        <ele>12.4</ele>
        <time>2023-07-05T14:11:25Z</time>
      </trkpt>
      <trkpt lat="49.31507" lon="-0.37303">
        <ele>12.5</ele>
        <time>2023-07-05T14:11:26Z</time>
      </trkpt>
      <trkpt lat="49.315" lon="-0.37301">
        <ele>12.6</ele>
        <time>2023-07-05T14:11:27Z</time>
      </trkpt>
      <trkpt lat="49.31493" lon="-0.37299">
        <ele>12.7</ele>
        <time>2023-07-05T14:11:28Z</time>
      </trkpt>
      <trkpt lat="49.31486" lon="-0.37297">
        <ele>12.8</ele>
        <time>2023-07-05T14:11:29Z</time>
      </trkpt>
      <trkpt lat="49.31478" lon="-0.37294">
        <ele>12.9</ele>
        <time>2023-07-05T14:11:30Z</time>
      </trkpt>
      <trkpt lat="49.3147" lon="-0.37292">
        <ele>13</ele>
        <time>2023-07-05T14:11:31Z</time>
      </trkpt>
      <trkpt lat="49.31462" lon="-0.37289">
        <ele>13.1</ele>
        <time>2023-07-05T14:11:32Z</time>
      </trkpt>
      <trkpt lat="49.31455" lon="-0.37287">
        <ele>13.2</ele>
        <time>2023-07-05T14:11:33Z</time>
      </trkpt>
      <trkpt lat="49.31447" lon="-0.37284">
        <ele>13.3</ele>
        <time>2023-07-05T14:11:34Z</time>
      </trkpt>
      <trkpt lat="49.3144" lon="-0.37282">
        <ele>13.5</ele>
        <time>2023-07-05T14:11:35Z</time>
      </trkpt>
      <trkpt lat="49.31432" lon="-0.37281">
        <ele>13.6</ele>
        <time>2023-07-05T14:11:36Z</time>
      </trkpt>
      <trkpt lat="49.31425" lon="-0.37279">
        <ele>13.7</ele>
        <time>2023-07-05T14:11:37Z</time>
      </trkpt>
      <trkpt lat="49.31418" lon="-0.37277">
        <ele>13.8</ele>
        <time>2023-07-05T14:11:38Z</time>
      </trkpt>
      <trkpt lat="49.3141" lon="-0.37275">
        <ele>13.9</ele>
        <time>2023-07-05T14:11:39Z</time>
      </trkpt>
      <trkpt lat="49.31403" lon="-0.37273">
        <ele>13.9</ele>
        <time>2023-07-05T14:11:40Z</time>
      </trkpt>
      <trkpt lat="49.31396" lon="-0.37271">
        <ele>14</ele>
        <time>2023-07-05T14:11:41Z</time>
      </trkpt>
      <trkpt lat="49.31389" lon="-0.3727">
        <ele>14.1</ele>
        <time>2023-07-05T14:11:42Z</time>
      </trkpt>
      <trkpt lat="49.31381" lon="-0.37268">
        <ele>14.2</ele>
        <time>2023-07-05T14:11:43Z</time>
      </trkpt>
      <trkpt lat="49.31374" lon="-0.37266">
        <ele>14.3</ele>
        <time>2023-07-05T14:11:44Z</time>
      </trkpt>
      <trkpt lat="49.31366" lon="-0.37264">
        <ele>14.4</ele>
        <time>2023-07-05T14:11:45Z</time>
      </trkpt>
      <trkpt lat="49.31359" lon="-0.37262">
        <ele>14.5</ele>
        <time>2023-07-05T14:11:46Z</time>
      </trkpt>
      <trkpt lat="49.31351" lon="-0.3726">
        <ele>14.6</ele>
        <time>2023-07-05T14:11:47Z</time>
      </trkpt>
      <trkpt lat="49.31343" lon="-0.37258">
        <ele>14.7</ele>
        <time>2023-07-05T14:11:48Z</time>
      </trkpt>
      <trkpt lat="49.31334" lon="-0.37255">
        <ele>14.7</ele>
        <time>2023-07-05T14:11:49Z</time>
      </trkpt>
      <trkpt lat="49.31326" lon="-0.37252">
        <ele>14.8</ele>
        <time>2023-07-05T14:11:50Z</time>
      </trkpt>
      <trkpt lat="49.31318" lon="-0.37249">
        <ele>14.9</ele>
        <time>2023-07-05T14:11:51Z</time>
      </trkpt>
      <trkpt lat="49.3131" lon="-0.37246">
        <ele>15.1</ele>
        <time>2023-07-05T14:11:52Z</time>
      </trkpt>
      <trkpt lat="49.31302" lon="-0.37243">
        <ele>15.2</ele>
        <time>2023-07-05T14:11:53Z</time>
      </trkpt>
      <trkpt lat="49.31294" lon="-0.37241">
        <ele>15.3</ele>
        <time>2023-07-05T14:11:54Z</time>
      </trkpt>
      <trkpt lat="49.31287" lon="-0.3724">
        <ele>15.4</ele>
        <time>2023-07-05T14:11:55Z</time>
      </trkpt>
      <trkpt lat="49.31279" lon="-0.37238">
        <ele>15.5</ele>
        <time>2023-07-05T14:11:56Z</time>
      </trkpt>
      <trkpt lat="49.31271" lon="-0.37237">
        <ele>15.6</ele>
        <time>2023-07-05T14:11:57Z</time>
      </trkpt>
      <trkpt lat="49.31263" lon="-0.37235">
        <ele>15.7</ele>
        <time>2023-07-05T14:11:58Z</time>
      </trkpt>
      <trkpt lat="49.31255" lon="-0.37233">
        <ele>15.9</ele>
        <time>2023-07-05T14:11:59Z</time>
      </trkpt>
      <trkpt lat="49.31247" lon="-0.37232">
        <ele>16</ele>
        <time>2023-07-05T14:12:00Z</time>
      </trkpt>
      <trkpt lat="49.31239" lon="-0.37233">
        <ele>16.1</ele>
        <time>2023-07-05T14:12:01Z</time>
      </trkpt>
      <trkpt lat="49.31232" lon="-0.37234">
        <ele>16.3</ele>
        <time>2023-07-05T14:12:02Z</time>
      </trkpt>
      <trkpt lat="49.31223" lon="-0.37234">
        <ele>16.5</ele>
        <time>2023-07-05T14:12:03Z</time>
      </trkpt>
      <trkpt lat="49.31215" lon="-0.37236">
        <ele>16.8</ele>
        <time>2023-07-05T14:12:04Z</time>
      </trkpt>
      <trkpt lat="49.31207" lon="-0.37237">
        <ele>17</ele>
        <time>2023-07-05T14:12:05Z</time>
      </trkpt>
      <trkpt lat="49.312" lon="-0.37239">
        <ele>17.3</ele>
        <time>2023-07-05T14:12:06Z</time>
      </trkpt>
      <trkpt lat="49.31192" lon="-0.37241">
        <ele>17.5</ele>
        <time>2023-07-05T14:12:07Z</time>
      </trkpt>
      <trkpt lat="49.31185" lon="-0.37244">
        <ele>17.7</ele>
        <time>2023-07-05T14:12:08Z</time>
      </trkpt>
      <trkpt lat="49.31177" lon="-0.37247">
        <ele>18</ele>
        <time>2023-07-05T14:12:09Z</time>
      </trkpt>
      <trkpt lat="49.3117" lon="-0.37251">
        <ele>18.2</ele>
        <time>2023-07-05T14:12:10Z</time>
      </trkpt>
      <trkpt lat="49.31163" lon="-0.37254">
        <ele>18.4</ele>
        <time>2023-07-05T14:12:11Z</time>
      </trkpt>
      <trkpt lat="49.31156" lon="-0.37257">
        <ele>18.6</ele>
        <time>2023-07-05T14:12:12Z</time>
      </trkpt>
      <trkpt lat="49.31149" lon="-0.3726">
        <ele>18.9</ele>
        <time>2023-07-05T14:12:13Z</time>
      </trkpt>
      <trkpt lat="49.31142" lon="-0.37262">
        <ele>19.1</ele>
        <time>2023-07-05T14:12:14Z</time>
      </trkpt>
      <trkpt lat="49.31135" lon="-0.37264">
        <ele>19.3</ele>
        <time>2023-07-05T14:12:15Z</time>
      </trkpt>
      <trkpt lat="49.31128" lon="-0.37266">
        <ele>19.5</ele>
        <time>2023-07-05T14:12:16Z</time>
      </trkpt>
      <trkpt lat="49.3112" lon="-0.37269">
        <ele>19.7</ele>
        <time>2023-07-05T14:12:17Z</time>
      </trkpt>
      <trkpt lat="49.31114" lon="-0.37271">
        <ele>19.9</ele>
        <time>2023-07-05T14:12:18Z</time>
      </trkpt>
      <trkpt lat="49.31107" lon="-0.37273">
        <ele>20.1</ele>
        <time>2023-07-05T14:12:19Z</time>
      </trkpt>
      <trkpt lat="49.311" lon="-0.37275">
        <ele>20.4</ele>
        <time>2023-07-05T14:12:20Z</time>
      </trkpt>
      <trkpt lat="49.31093" lon="-0.37278">
        <ele>20.6</ele>
        <time>2023-07-05T14:12:21Z</time>
      </trkpt>
      <trkpt lat="49.31086" lon="-0.3728">
        <ele>20.8</ele>
        <time>2023-07-05T14:12:22Z</time>
      </trkpt>
      <trkpt lat="49.31079" lon="-0.37282">
        <ele>21</ele>
        <time>2023-07-05T14:12:23Z</time>
      </trkpt>
      <trkpt lat="49.31073" lon="-0.37284">
        <ele>21.1</ele>
        <time>2023-07-05T14:12:24Z</time>
      </trkpt>
      <trkpt lat="49.31066" lon="-0.37286">
        <ele>21.3</ele>
        <time>2023-07-05T14:12:25Z</time>
      </trkpt>
      <trkpt lat="49.3106" lon="-0.37288">
        <ele>21.5</ele>
        <time>2023-07-05T14:12:26Z</time>
      </trkpt>
      <trkpt lat="49.31053" lon="-0.37291">
        <ele>21.7</ele>
        <time>2023-07-05T14:12:27Z</time>
      </trkpt>
      <trkpt lat="49.31047" lon="-0.37292">
        <ele>21.8</ele>
        <time>2023-07-05T14:12:28Z</time>
      </trkpt>
      <trkpt lat="49.3104" lon="-0.37294">
        <ele>22</ele>
        <time>2023-07-05T14:12:29Z</time>
      </trkpt>
      <trkpt lat="49.31033" lon="-0.37296">
        <ele>22.1</ele>
        <time>2023-07-05T14:12:30Z</time>
      </trkpt>
      <trkpt lat="49.31027" lon="-0.37298">
        <ele>22.3</ele>
        <time>2023-07-05T14:12:31Z</time>
      </trkpt>
      <trkpt lat="49.31021" lon="-0.373">
        <ele>22.4</ele>
        <time>2023-07-05T14:12:32Z</time>
      </trkpt>
      <trkpt lat="49.31015" lon="-0.37302">
        <ele>22.5</ele>
        <time>2023-07-05T14:12:33Z</time>
      </trkpt>
      <trkpt lat="49.31009" lon="-0.37304">
        <ele>22.6</ele>
        <time>2023-07-05T14:12:34Z</time>
      </trkpt>
      <trkpt lat="49.31003" lon="-0.37306">
        <ele>22.7</ele>
        <time>2023-07-05T14:12:35Z</time>
      </trkpt>
      <trkpt lat="49.30997" lon="-0.37309">
        <ele>22.8</ele>
        <time>2023-07-05T14:12:36Z</time>
      </trkpt>
      <trkpt lat="49.30991" lon="-0.37311">
        <ele>22.8</ele>
        <time>2023-07-05T14:12:37Z</time>
      </trkpt>
      <trkpt lat="49.30984" lon="-0.37313">
        <ele>22.9</ele>
        <time>2023-07-05T14:12:38Z</time>
      </trkpt>
      <trkpt lat="49.30978" lon="-0.37315">
        <ele>23</ele>
        <time>2023-07-05T14:12:39Z</time>
      </trkpt>
      <trkpt lat="49.30971" lon="-0.37318">
        <ele>23</ele>
        <time>2023-07-05T14:12:40Z</time>
      </trkpt>
      <trkpt lat="49.30965" lon="-0.3732">
        <ele>23.1</ele>
        <time>2023-07-05T14:12:41Z</time>
      </trkpt>
      <trkpt lat="49.30958" lon="-0.37322">
        <ele>23.2</ele>
        <time>2023-07-05T14:12:42Z</time>
      </trkpt>
      <trkpt lat="49.30952" lon="-0.37324">
        <ele>23.2</ele>
        <time>2023-07-05T14:12:43Z</time>
      </trkpt>
      <trkpt lat="49.30945" lon="-0.37325">
        <ele>23.3</ele>
        <time>2023-07-05T14:12:44Z</time>
      </trkpt>
      <trkpt lat="49.30939" lon="-0.37328">
        <ele>23.3</ele>
        <time>2023-07-05T14:12:45Z</time>
      </trkpt>
      <trkpt lat="49.30933" lon="-0.3733">
        <ele>23.4</ele>
        <time>2023-07-05T14:12:46Z</time>
      </trkpt>
      <trkpt lat="49.30926" lon="-0.37332">
        <ele>23.4</ele>
        <time>2023-07-05T14:12:47Z</time>
      </trkpt>
      <trkpt lat="49.3092" lon="-0.37335">
        <ele>23.5</ele>
        <time>2023-07-05T14:12:48Z</time>
      </trkpt>
      <trkpt lat="49.30914" lon="-0.37337">
        <ele>23.5</ele>
        <time>2023-07-05T14:12:49Z</time>
      </trkpt>
      <trkpt lat="49.30907" lon="-0.37339">
        <ele>23.6</ele>
        <time>2023-07-05T14:12:50Z</time>
      </trkpt>
      <trkpt lat="49.30901" lon="-0.37341">
        <ele>23.6</ele>
        <time>2023-07-05T14:12:51Z</time>
      </trkpt>
      <trkpt lat="49.30894" lon="-0.37344">
        <ele>23.7</ele>
        <time>2023-07-05T14:12:52Z</time>
      </trkpt>
      <trkpt lat="49.30888" lon="-0.37346">
        <ele>23.7</ele>
        <time>2023-07-05T14:12:53Z</time>
      </trkpt>
      <trkpt lat="49.30881" lon="-0.37348">
        <ele>23.7</ele>
        <time>2023-07-05T14:12:54Z</time>
      </trkpt>
      <trkpt lat="49.30875" lon="-0.3735">
        <ele>23.7</ele>
        <time>2023-07-05T14:12:55Z</time>
      </trkpt>
      <trkpt lat="49.30868" lon="-0.37352">
        <ele>23.7</ele>
        <time>2023-07-05T14:12:56Z</time>
      </trkpt>
      <trkpt lat="49.30861" lon="-0.37354">
        <ele>23.7</ele>
        <time>2023-07-05T14:12:57Z</time>
      </trkpt>
      <trkpt lat="49.30853" lon="-0.37356">
        <ele>23.8</ele>
        <time>2023-07-05T14:12:58Z</time>
      </trkpt>
      <trkpt lat="49.30846" lon="-0.37359">
        <ele>23.8</ele>
        <time>2023-07-05T14:12:59Z</time>
      </trkpt>
      <trkpt lat="49.30838" lon="-0.37361">
        <ele>23.8</ele>
        <time>2023-07-05T14:13:00Z</time>
      </trkpt>
      <trkpt lat="49.30831" lon="-0.37364">
        <ele>23.8</ele>
        <time>2023-07-05T14:13:01Z</time>
      </trkpt>
      <trkpt lat="49.30824" lon="-0.37367">
        <ele>23.9</ele>
        <time>2023-07-05T14:13:02Z</time>
      </trkpt>
      <trkpt lat="49.30817" lon="-0.3737">
        <ele>23.9</ele>
        <time>2023-07-05T14:13:03Z</time>
      </trkpt>
      <trkpt lat="49.30809" lon="-0.37372">
        <ele>23.9</ele>
        <time>2023-07-05T14:13:04Z</time>
      </trkpt>
      <trkpt lat="49.30802" lon="-0.37375">
        <ele>23.9</ele>
        <time>2023-07-05T14:13:05Z</time>
      </trkpt>
      <trkpt lat="49.30794" lon="-0.37378">
        <ele>23.9</ele>
        <time>2023-07-05T14:13:06Z</time>
      </trkpt>
      <trkpt lat="49.30787" lon="-0.37381">
        <ele>23.9</ele>
        <time>2023-07-05T14:13:07Z</time>
      </trkpt>
      <trkpt lat="49.3078" lon="-0.37384">
        <ele>23.9</ele>
        <time>2023-07-05T14:13:08Z</time>
      </trkpt>
      <trkpt lat="49.30773" lon="-0.37387">
        <ele>23.9</ele>
        <time>2023-07-05T14:13:09Z</time>
      </trkpt>
      <trkpt lat="49.30766" lon="-0.37389">
        <ele>23.9</ele>
        <time>2023-07-05T14:13:10Z</time>
      </trkpt>
      <trkpt lat="49.30758" lon="-0.37392">
        <ele>24</ele>
        <time>2023-07-05T14:13:11Z</time>
      </trkpt>
      <trkpt lat="49.30751" lon="-0.37394">
        <ele>24</ele>
        <time>2023-07-05T14:13:12Z</time>
      </trkpt>
      <trkpt lat="49.30743" lon="-0.37397">
        <ele>24</ele>
        <time>2023-07-05T14:13:13Z</time>
      </trkpt>
      <trkpt lat="49.30735" lon="-0.37399">
        <ele>24</ele>
        <time>2023-07-05T14:13:14Z</time>
      </trkpt>
      <trkpt lat="49.30728" lon="-0.37402">
        <ele>24</ele>
        <time>2023-07-05T14:13:15Z</time>
      </trkpt>
      <trkpt lat="49.3072" lon="-0.37405">
        <ele>24</ele>
        <time>2023-07-05T14:13:16Z</time>
      </trkpt>
      <trkpt lat="49.30713" lon="-0.37407">
        <ele>24</ele>
        <time>2023-07-05T14:13:17Z</time>
      </trkpt>
      <trkpt lat="49.30705" lon="-0.3741">
        <ele>24</ele>
        <time>2023-07-05T14:13:18Z</time>
      </trkpt>
      <trkpt lat="49.30697" lon="-0.37413">
        <ele>24</ele>
        <time>2023-07-05T14:13:19Z</time>
      </trkpt>
      <trkpt lat="49.3069" lon="-0.37416">
        <ele>24.1</ele>
        <time>2023-07-05T14:13:20Z</time>
      </trkpt>
      <trkpt lat="49.30682" lon="-0.37418">
        <ele>24.1</ele>
        <time>2023-07-05T14:13:21Z</time>
      </trkpt>
      <trkpt lat="49.30674" lon="-0.3742">
        <ele>24.1</ele>
        <time>2023-07-05T14:13:22Z</time>
      </trkpt>
      <trkpt lat="49.30666" lon="-0.37423">
        <ele>24.1</ele>
        <time>2023-07-05T14:13:23Z</time>
      </trkpt>
      <trkpt lat="49.30659" lon="-0.37426">
        <ele>24.1</ele>
        <time>2023-07-05T14:13:24Z</time>
      </trkpt>
      <trkpt lat="49.30651" lon="-0.37428">
        <ele>24.1</ele>
        <time>2023-07-05T14:13:25Z</time>
      </trkpt>
      <trkpt lat="49.30643" lon="-0.37431">
        <ele>24.2</ele>
        <time>2023-07-05T14:13:26Z</time>
      </trkpt>
      <trkpt lat="49.30635" lon="-0.37434">
        <ele>24.2</ele>
        <time>2023-07-05T14:13:27Z</time>
      </trkpt>
      <trkpt lat="49.30627" lon="-0.37437">
        <ele>24.2</ele>
        <time>2023-07-05T14:13:28Z</time>
      </trkpt>
      <trkpt lat="49.30619" lon="-0.3744">
        <ele>24.2</ele>
        <time>2023-07-05T14:13:29Z</time>
      </trkpt>
      <trkpt lat="49.30611" lon="-0.37443">
        <ele>24.2</ele>
        <time>2023-07-05T14:13:30Z</time>
      </trkpt>
      <trkpt lat="49.30603" lon="-0.37445">
        <ele>24.3</ele>
        <time>2023-07-05T14:13:31Z</time>
      </trkpt>
      <trkpt lat="49.30596" lon="-0.37447">
        <ele>24.3</ele>
        <time>2023-07-05T14:13:32Z</time>
      </trkpt>
      <trkpt lat="49.30588" lon="-0.3745">
        <ele>24.3</ele>
        <time>2023-07-05T14:13:33Z</time>
      </trkpt>
      <trkpt lat="49.3058" lon="-0.37452">
        <ele>24.3</ele>
        <time>2023-07-05T14:13:34Z</time>
      </trkpt>
      <trkpt lat="49.30573" lon="-0.37455">
        <ele>24.3</ele>
        <time>2023-07-05T14:13:35Z</time>
      </trkpt>
      <trkpt lat="49.30566" lon="-0.37458">
        <ele>24.3</ele>
        <time>2023-07-05T14:13:36Z</time>
      </trkpt>
      <trkpt lat="49.30559" lon="-0.37461">
        <ele>24.3</ele>
        <time>2023-07-05T14:13:37Z</time>
      </trkpt>
      <trkpt lat="49.30552" lon="-0.37463">
        <ele>24.3</ele>
        <time>2023-07-05T14:13:38Z</time>
      </trkpt>
      <trkpt lat="49.30545" lon="-0.37466">
        <ele>24.3</ele>
        <time>2023-07-05T14:13:39Z</time>
      </trkpt>
      <trkpt lat="49.30537" lon="-0.37468">
        <ele>24.4</ele>
        <time>2023-07-05T14:13:40Z</time>
      </trkpt>
      <trkpt lat="49.30529" lon="-0.3747">
        <ele>24.4</ele>
        <time>2023-07-05T14:13:41Z</time>
      </trkpt>
      <trkpt lat="49.30522" lon="-0.37473">
        <ele>24.5</ele>
        <time>2023-07-05T14:13:42Z</time>
      </trkpt>
      <trkpt lat="49.30515" lon="-0.37475">
        <ele>24.5</ele>
        <time>2023-07-05T14:13:43Z</time>
      </trkpt>
      <trkpt lat="49.30507" lon="-0.37478">
        <ele>24.5</ele>
        <time>2023-07-05T14:13:44Z</time>
      </trkpt>
      <trkpt lat="49.305" lon="-0.3748">
        <ele>24.5</ele>
        <time>2023-07-05T14:13:45Z</time>
      </trkpt>
      <trkpt lat="49.30493" lon="-0.37483">
        <ele>24.5</ele>
        <time>2023-07-05T14:13:46Z</time>
      </trkpt>
      <trkpt lat="49.30487" lon="-0.37485">
        <ele>24.5</ele>
        <time>2023-07-05T14:13:47Z</time>
      </trkpt>
      <trkpt lat="49.3048" lon="-0.37487">
        <ele>24.5</ele>
        <time>2023-07-05T14:13:48Z</time>
      </trkpt>
      <trkpt lat="49.30473" lon="-0.3749">
        <ele>24.5</ele>
        <time>2023-07-05T14:13:49Z</time>
      </trkpt>
      <trkpt lat="49.30466" lon="-0.37492">
        <ele>24.5</ele>
        <time>2023-07-05T14:13:50Z</time>
      </trkpt>
      <trkpt lat="49.30458" lon="-0.37495">
        <ele>24.6</ele>
        <time>2023-07-05T14:13:51Z</time>
      </trkpt>
      <trkpt lat="49.30451" lon="-0.37497">
        <ele>24.6</ele>
        <time>2023-07-05T14:13:52Z</time>
      </trkpt>
      <trkpt lat="49.30444" lon="-0.375">
        <ele>24.6</ele>
        <time>2023-07-05T14:13:53Z</time>
      </trkpt>
      <trkpt lat="49.30437" lon="-0.37503">
        <ele>24.7</ele>
        <time>2023-07-05T14:13:54Z</time>
      </trkpt>
      <trkpt lat="49.3043" lon="-0.37505">
        <ele>24.7</ele>
        <time>2023-07-05T14:13:55Z</time>
      </trkpt>
      <trkpt lat="49.30423" lon="-0.37508">
        <ele>24.7</ele>
        <time>2023-07-05T14:13:56Z</time>
      </trkpt>
      <trkpt lat="49.30416" lon="-0.3751">
        <ele>24.8</ele>
        <time>2023-07-05T14:13:57Z</time>
      </trkpt>
      <trkpt lat="49.30408" lon="-0.37512">
        <ele>24.8</ele>
        <time>2023-07-05T14:13:58Z</time>
      </trkpt>
      <trkpt lat="49.304" lon="-0.37514">
        <ele>24.8</ele>
        <time>2023-07-05T14:13:59Z</time>
      </trkpt>
      <trkpt lat="49.30393" lon="-0.37516">
        <ele>24.8</ele>
        <time>2023-07-05T14:14:00Z</time>
      </trkpt>
      <trkpt lat="49.30386" lon="-0.37518">
        <ele>24.8</ele>
        <time>2023-07-05T14:14:01Z</time>
      </trkpt>
      <trkpt lat="49.30378" lon="-0.37521">
        <ele>24.9</ele>
        <time>2023-07-05T14:14:02Z</time>
      </trkpt>
      <trkpt lat="49.30371" lon="-0.37524">
        <ele>24.9</ele>
        <time>2023-07-05T14:14:03Z</time>
      </trkpt>
      <trkpt lat="49.30363" lon="-0.37526">
        <ele>25</ele>
        <time>2023-07-05T14:14:04Z</time>
      </trkpt>
      <trkpt lat="49.30355" lon="-0.37529">
        <ele>25</ele>
        <time>2023-07-05T14:14:05Z</time>
      </trkpt>
      <trkpt lat="49.30348" lon="-0.37531">
        <ele>25.1</ele>
        <time>2023-07-05T14:14:06Z</time>
      </trkpt>
      <trkpt lat="49.3034" lon="-0.37534">
        <ele>25.1</ele>
        <time>2023-07-05T14:14:07Z</time>
      </trkpt>
      <trkpt lat="49.30333" lon="-0.37536">
        <ele>25.1</ele>
        <time>2023-07-05T14:14:08Z</time>
      </trkpt>
      <trkpt lat="49.30325" lon="-0.37539">
        <ele>25.2</ele>
        <time>2023-07-05T14:14:09Z</time>
      </trkpt>
      <trkpt lat="49.30318" lon="-0.37542">
        <ele>25.3</ele>
        <time>2023-07-05T14:14:10Z</time>
      </trkpt>
      <trkpt lat="49.30311" lon="-0.37545">
        <ele>25.3</ele>
        <time>2023-07-05T14:14:11Z</time>
      </trkpt>
      <trkpt lat="49.30303" lon="-0.37548">
        <ele>25.3</ele>
        <time>2023-07-05T14:14:12Z</time>
      </trkpt>
      <trkpt lat="49.30295" lon="-0.37551">
        <ele>25.4</ele>
        <time>2023-07-05T14:14:13Z</time>
      </trkpt>
      <trkpt lat="49.30287" lon="-0.37553">
        <ele>25.4</ele>
        <time>2023-07-05T14:14:14Z</time>
      </trkpt>
      <trkpt lat="49.30279" lon="-0.37556">
        <ele>25.5</ele>
        <time>2023-07-05T14:14:15Z</time>
      </trkpt>
      <trkpt lat="49.30271" lon="-0.37559">
        <ele>25.5</ele>
        <time>2023-07-05T14:14:16Z</time>
      </trkpt>
      <trkpt lat="49.30263" lon="-0.37562">
        <ele>25.6</ele>
        <time>2023-07-05T14:14:17Z</time>
      </trkpt>
      <trkpt lat="49.30255" lon="-0.37565">
        <ele>25.6</ele>
        <time>2023-07-05T14:14:18Z</time>
      </trkpt>
      <trkpt lat="49.30247" lon="-0.37568">
        <ele>25.7</ele>
        <time>2023-07-05T14:14:19Z</time>
      </trkpt>
      <trkpt lat="49.30239" lon="-0.3757">
        <ele>25.7</ele>
        <time>2023-07-05T14:14:20Z</time>
      </trkpt>
      <trkpt lat="49.30231" lon="-0.37573">
        <ele>25.8</ele>
        <time>2023-07-05T14:14:21Z</time>
      </trkpt>
      <trkpt lat="49.30223" lon="-0.37575">
        <ele>26</ele>
        <time>2023-07-05T14:14:22Z</time>
      </trkpt>
      <trkpt lat="49.30216" lon="-0.37578">
        <ele>26.1</ele>
        <time>2023-07-05T14:14:23Z</time>
      </trkpt>
      <trkpt lat="49.30209" lon="-0.37581">
        <ele>26.2</ele>
        <time>2023-07-05T14:14:24Z</time>
      </trkpt>
      <trkpt lat="49.30203" lon="-0.37583">
        <ele>26.4</ele>
        <time>2023-07-05T14:14:25Z</time>
      </trkpt>
      <trkpt lat="49.30196" lon="-0.37586">
        <ele>26.6</ele>
        <time>2023-07-05T14:14:26Z</time>
      </trkpt>
      <trkpt lat="49.30191" lon="-0.37591">
        <ele>26.7</ele>
        <time>2023-07-05T14:14:27Z</time>
      </trkpt>
      <trkpt lat="49.30186" lon="-0.37596">
        <ele>26.9</ele>
        <time>2023-07-05T14:14:28Z</time>
      </trkpt>
      <trkpt lat="49.30182" lon="-0.37603">
        <ele>27.1</ele>
        <time>2023-07-05T14:14:29Z</time>
      </trkpt>
      <trkpt lat="49.3018" lon="-0.37611">
        <ele>27.2</ele>
        <time>2023-07-05T14:14:30Z</time>
      </trkpt>
      <trkpt lat="49.30178" lon="-0.37619">
        <ele>27.3</ele>
        <time>2023-07-05T14:14:31Z</time>
      </trkpt>
      <trkpt lat="49.30177" lon="-0.37626">
        <ele>27.4</ele>
        <time>2023-07-05T14:14:32Z</time>
      </trkpt>
      <trkpt lat="49.30175" lon="-0.3763">
        <ele>27.4</ele>
        <time>2023-07-05T14:14:33Z</time>
      </trkpt>
      <trkpt lat="49.30171" lon="-0.37633">
        <ele>27.5</ele>
        <time>2023-07-05T14:14:34Z</time>
      </trkpt>
      <trkpt lat="49.30167" lon="-0.37634">
        <ele>27.5</ele>
        <time>2023-07-05T14:14:35Z</time>
      </trkpt>
      <trkpt lat="49.30163" lon="-0.37632">
        <ele>27.6</ele>
        <time>2023-07-05T14:14:36Z</time>
      </trkpt>
      <trkpt lat="49.3016" lon="-0.37627">
        <ele>27.6</ele>
        <time>2023-07-05T14:14:37Z</time>
      </trkpt>
      <trkpt lat="49.30156" lon="-0.37624">
        <ele>27.7</ele>
        <time>2023-07-05T14:14:38Z</time>
      </trkpt>
      <trkpt lat="49.30152" lon="-0.37624">
        <ele>27.7</ele>
        <time>2023-07-05T14:14:39Z</time>
      </trkpt>
      <trkpt lat="49.30148" lon="-0.37626">
        <ele>27.7</ele>
        <time>2023-07-05T14:14:40Z</time>
      </trkpt>
      <trkpt lat="49.30143" lon="-0.37632">
        <ele>27.7</ele>
        <time>2023-07-05T14:14:41Z</time>
      </trkpt>
      <trkpt lat="49.30139" lon="-0.37639">
        <ele>27.7</ele>
        <time>2023-07-05T14:14:42Z</time>
      </trkpt>
      <trkpt lat="49.30135" lon="-0.37646">
        <ele>27.7</ele>
        <time>2023-07-05T14:14:43Z</time>
      </trkpt>
      <trkpt lat="49.30131" lon="-0.37654">
        <ele>27.6</ele>
        <time>2023-07-05T14:14:44Z</time>
      </trkpt>
      <trkpt lat="49.30128" lon="-0.37661">
        <ele>27.6</ele>
        <time>2023-07-05T14:14:45Z</time>
      </trkpt>
      <trkpt lat="49.30124" lon="-0.37669">
        <ele>27.7</ele>
        <time>2023-07-05T14:14:46Z</time>
      </trkpt>
      <trkpt lat="49.30121" lon="-0.37677">
        <ele>27.7</ele>
        <time>2023-07-05T14:14:47Z</time>
      </trkpt>
      <trkpt lat="49.30118" lon="-0.37684">
        <ele>27.7</ele>
        <time>2023-07-05T14:14:48Z</time>
      </trkpt>
      <trkpt lat="49.30116" lon="-0.37692">
        <ele>27.7</ele>
        <time>2023-07-05T14:14:49Z</time>
      </trkpt>
      <trkpt lat="49.30112" lon="-0.377">
        <ele>27.7</ele>
        <time>2023-07-05T14:14:50Z</time>
      </trkpt>
      <trkpt lat="49.30109" lon="-0.37707">
        <ele>27.8</ele>
        <time>2023-07-05T14:14:51Z</time>
      </trkpt>
      <trkpt lat="49.30106" lon="-0.37714">
        <ele>27.8</ele>
        <time>2023-07-05T14:14:52Z</time>
      </trkpt>
      <trkpt lat="49.30104" lon="-0.37723">
        <ele>27.8</ele>
        <time>2023-07-05T14:14:53Z</time>
      </trkpt>
      <trkpt lat="49.30101" lon="-0.37731">
        <ele>27.9</ele>
        <time>2023-07-05T14:14:54Z</time>
      </trkpt>
      <trkpt lat="49.30097" lon="-0.37739">
        <ele>27.9</ele>
        <time>2023-07-05T14:14:55Z</time>
      </trkpt>
      <trkpt lat="49.30095" lon="-0.37746">
        <ele>28</ele>
        <time>2023-07-05T14:14:56Z</time>
      </trkpt>
      <trkpt lat="49.30092" lon="-0.37754">
        <ele>28</ele>
        <time>2023-07-05T14:14:57Z</time>
      </trkpt>
      <trkpt lat="49.30089" lon="-0.37762">
        <ele>28.1</ele>
        <time>2023-07-05T14:14:58Z</time>
      </trkpt>
      <trkpt lat="49.30086" lon="-0.3777">
        <ele>28.1</ele>
        <time>2023-07-05T14:14:59Z</time>
      </trkpt>
      <trkpt lat="49.30083" lon="-0.37778">
        <ele>28.2</ele>
        <time>2023-07-05T14:15:00Z</time>
      </trkpt>
      <trkpt lat="49.3008" lon="-0.37786">
        <ele>28.3</ele>
        <time>2023-07-05T14:15:01Z</time>
      </trkpt>
      <trkpt lat="49.30077" lon="-0.37793">
        <ele>28.4</ele>
        <time>2023-07-05T14:15:02Z</time>
      </trkpt>
      <trkpt lat="49.30074" lon="-0.37801">
        <ele>28.5</ele>
        <time>2023-07-05T14:15:03Z</time>
      </trkpt>
      <trkpt lat="49.30071" lon="-0.37809">
        <ele>28.5</ele>
        <time>2023-07-05T14:15:04Z</time>
      </trkpt>
      <trkpt lat="49.30069" lon="-0.37817">
        <ele>28.6</ele>
        <time>2023-07-05T14:15:05Z</time>
      </trkpt>
      <trkpt lat="49.30066" lon="-0.37825">
        <ele>28.6</ele>
        <time>2023-07-05T14:15:06Z</time>
      </trkpt>
      <trkpt lat="49.30063" lon="-0.37834">
        <ele>28.7</ele>
        <time>2023-07-05T14:15:07Z</time>
      </trkpt>
      <trkpt lat="49.30061" lon="-0.37841">
        <ele>28.7</ele>
        <time>2023-07-05T14:15:08Z</time>
      </trkpt>
      <trkpt lat="49.30058" lon="-0.3785">
        <ele>28.8</ele>
        <time>2023-07-05T14:15:09Z</time>
      </trkpt>
      <trkpt lat="49.30055" lon="-0.37858">
        <ele>28.8</ele>
        <time>2023-07-05T14:15:10Z</time>
      </trkpt>
      <trkpt lat="49.30052" lon="-0.37866">
        <ele>28.9</ele>
        <time>2023-07-05T14:15:11Z</time>
      </trkpt>
      <trkpt lat="49.30049" lon="-0.37874">
        <ele>28.9</ele>
        <time>2023-07-05T14:15:12Z</time>
      </trkpt>
      <trkpt lat="49.30046" lon="-0.37883">
        <ele>29</ele>
        <time>2023-07-05T14:15:13Z</time>
      </trkpt>
      <trkpt lat="49.30043" lon="-0.37892">
        <ele>29</ele>
        <time>2023-07-05T14:15:14Z</time>
      </trkpt>
      <trkpt lat="49.3004" lon="-0.37901">
        <ele>29</ele>
        <time>2023-07-05T14:15:15Z</time>
      </trkpt>
      <trkpt lat="49.30037" lon="-0.3791">
        <ele>29.1</ele>
        <time>2023-07-05T14:15:16Z</time>
      </trkpt>
      <trkpt lat="49.30034" lon="-0.3792">
        <ele>29.1</ele>
        <time>2023-07-05T14:15:17Z</time>
      </trkpt>
      <trkpt lat="49.30031" lon="-0.37929">
        <ele>29.2</ele>
        <time>2023-07-05T14:15:18Z</time>
      </trkpt>
      <trkpt lat="49.30028" lon="-0.37938">
        <ele>29.2</ele>
        <time>2023-07-05T14:15:19Z</time>
      </trkpt>
      <trkpt lat="49.30025" lon="-0.37947">
        <ele>29.2</ele>
        <time>2023-07-05T14:15:20Z</time>
      </trkpt>
      <trkpt lat="49.30022" lon="-0.37956">
        <ele>29.3</ele>
        <time>2023-07-05T14:15:21Z</time>
      </trkpt>
      <trkpt lat="49.30018" lon="-0.37965">
        <ele>29.3</ele>
        <time>2023-07-05T14:15:22Z</time>
      </trkpt>
      <trkpt lat="49.30015" lon="-0.37974">
        <ele>29.4</ele>
        <time>2023-07-05T14:15:23Z</time>
      </trkpt>
      <trkpt lat="49.30012" lon="-0.37984">
        <ele>29.4</ele>
        <time>2023-07-05T14:15:24Z</time>
      </trkpt>
      <trkpt lat="49.30009" lon="-0.37993">
        <ele>29.5</ele>
        <time>2023-07-05T14:15:25Z</time>
      </trkpt>
      <trkpt lat="49.30006" lon="-0.38003">
        <ele>29.5</ele>
        <time>2023-07-05T14:15:26Z</time>
      </trkpt>
      <trkpt lat="49.30003" lon="-0.38012">
        <ele>29.5</ele>
        <time>2023-07-05T14:15:27Z</time>
      </trkpt>
      <trkpt lat="49.3" lon="-0.38022">
        <ele>29.6</ele>
        <time>2023-07-05T14:15:28Z</time>
      </trkpt>
      <trkpt lat="49.29997" lon="-0.38031">
        <ele>29.6</ele>
        <time>2023-07-05T14:15:29Z</time>
      </trkpt>
      <trkpt lat="49.29994" lon="-0.3804">
        <ele>29.7</ele>
        <time>2023-07-05T14:15:30Z</time>
      </trkpt>
      <trkpt lat="49.29991" lon="-0.38048">
        <ele>29.7</ele>
        <time>2023-07-05T14:15:31Z</time>
      </trkpt>
      <trkpt lat="49.29988" lon="-0.38056">
        <ele>29.8</ele>
        <time>2023-07-05T14:15:32Z</time>
      </trkpt>
      <trkpt lat="49.29985" lon="-0.38064">
        <ele>29.9</ele>
        <time>2023-07-05T14:15:33Z</time>
      </trkpt>
      <trkpt lat="49.29983" lon="-0.38071">
        <ele>29.9</ele>
        <time>2023-07-05T14:15:34Z</time>
      </trkpt>
      <trkpt lat="49.29981" lon="-0.38079">
        <ele>30</ele>
        <time>2023-07-05T14:15:35Z</time>
      </trkpt>
      <trkpt lat="49.29979" lon="-0.38085">
        <ele>30</ele>
        <time>2023-07-05T14:15:36Z</time>
      </trkpt>
      <trkpt lat="49.29979" lon="-0.3809">
        <ele>30</ele>
        <time>2023-07-05T14:15:37Z</time>
      </trkpt>
      <trkpt lat="49.29979" lon="-0.38095">
        <ele>30.1</ele>
        <time>2023-07-05T14:15:38Z</time>
      </trkpt>
      <trkpt lat="49.2998" lon="-0.381">
        <ele>30.1</ele>
        <time>2023-07-05T14:15:39Z</time>
      </trkpt>
      <trkpt lat="49.2998" lon="-0.38102">
        <ele>30.1</ele>
        <time>2023-07-05T14:15:40Z</time>
      </trkpt>
      <trkpt lat="49.29983" lon="-0.38106">
        <ele>30.1</ele>
        <time>2023-07-05T14:15:41Z</time>
      </trkpt>
      <trkpt lat="49.29983" lon="-0.38106">
        <ele>30.1</ele>
        <time>2023-07-05T14:15:42Z</time>
      </trkpt>
      <trkpt lat="49.29986" lon="-0.38109">
        <ele>30.1</ele>
        <time>2023-07-05T14:15:43Z</time>
      </trkpt>
      <trkpt lat="49.29987" lon="-0.38109">
        <ele>30.1</ele>
        <time>2023-07-05T14:15:44Z</time>
      </trkpt>
      <trkpt lat="49.2999" lon="-0.38111">
        <ele>30.1</ele>
        <time>2023-07-05T14:15:45Z</time>
      </trkpt>
      <trkpt lat="49.29991" lon="-0.38111">
        <ele>30.1</ele>
        <time>2023-07-05T14:15:46Z</time>
      </trkpt>
      <trkpt lat="49.29993" lon="-0.38112">
        <ele>30.1</ele>
        <time>2023-07-05T14:15:47Z</time>
      </trkpt>
      <trkpt lat="49.29994" lon="-0.38114">
        <ele>30.1</ele>
        <time>2023-07-05T14:15:48Z</time>
      </trkpt>
      <trkpt lat="49.29995" lon="-0.38116">
        <ele>30.1</ele>
        <time>2023-07-05T14:15:49Z</time>
      </trkpt>
      <trkpt lat="49.29995" lon="-0.38118">
        <ele>30.1</ele>
        <time>2023-07-05T14:15:50Z</time>
      </trkpt>
      <trkpt lat="49.29993" lon="-0.38123">
        <ele>30.2</ele>
        <time>2023-07-05T14:15:51Z</time>
      </trkpt>
      <trkpt lat="49.29992" lon="-0.38124">
        <ele>30.2</ele>
        <time>2023-07-05T14:15:52Z</time>
      </trkpt>
      <trkpt lat="49.29989" lon="-0.38128">
        <ele>30.2</ele>
        <time>2023-07-05T14:15:53Z</time>
      </trkpt>
      <trkpt lat="49.29988" lon="-0.38132">
        <ele>30.3</ele>
        <time>2023-07-05T14:15:54Z</time>
      </trkpt>
      <trkpt lat="49.29987" lon="-0.38137">
        <ele>30.3</ele>
        <time>2023-07-05T14:15:55Z</time>
      </trkpt>
      <trkpt lat="49.29987" lon="-0.38143">
        <ele>30.3</ele>
        <time>2023-07-05T14:15:56Z</time>
      </trkpt>
      <trkpt lat="49.29988" lon="-0.38148">
        <ele>30.3</ele>
        <time>2023-07-05T14:15:57Z</time>
      </trkpt>
      <trkpt lat="49.29989" lon="-0.38154">
        <ele>30.3</ele>
        <time>2023-07-05T14:15:58Z</time>
      </trkpt>
      <trkpt lat="49.2999" lon="-0.38159">
        <ele>30.4</ele>
        <time>2023-07-05T14:15:59Z</time>
      </trkpt>
      <trkpt lat="49.29987" lon="-0.38162">
        <ele>30.4</ele>
        <time>2023-07-05T14:16:00Z</time>
      </trkpt>
      <trkpt lat="49.29985" lon="-0.38163">
        <ele>30.4</ele>
        <time>2023-07-05T14:16:01Z</time>
      </trkpt>
      <trkpt lat="49.29982" lon="-0.38161">
        <ele>30.4</ele>
        <time>2023-07-05T14:16:02Z</time>
      </trkpt>
      <trkpt lat="49.29978" lon="-0.38158">
        <ele>30.4</ele>
        <time>2023-07-05T14:16:03Z</time>
      </trkpt>
      <trkpt lat="49.29975" lon="-0.38156">
        <ele>30.4</ele>
        <time>2023-07-05T14:16:04Z</time>
      </trkpt>
      <trkpt lat="49.29972" lon="-0.38157">
        <ele>30.4</ele>
        <time>2023-07-05T14:16:05Z</time>
      </trkpt>
      <trkpt lat="49.29969" lon="-0.3816">
        <ele>30.5</ele>
        <time>2023-07-05T14:16:06Z</time>
      </trkpt>
      <trkpt lat="49.29968" lon="-0.38162">
        <ele>30.5</ele>
        <time>2023-07-05T14:16:07Z</time>
      </trkpt>
      <trkpt lat="49.29966" lon="-0.38167">
        <ele>30.6</ele>
        <time>2023-07-05T14:16:08Z</time>
      </trkpt>
      <trkpt lat="49.29965" lon="-0.38172">
        <ele>30.7</ele>
        <time>2023-07-05T14:16:09Z</time>
      </trkpt>
      <trkpt lat="49.29964" lon="-0.38179">
        <ele>30.9</ele>
        <time>2023-07-05T14:16:10Z</time>
      </trkpt>
      <trkpt lat="49.29963" lon="-0.38185">
        <ele>30.9</ele>
        <time>2023-07-05T14:16:11Z</time>
      </trkpt>
      <trkpt lat="49.29962" lon="-0.38191">
        <ele>30.9</ele>
        <time>2023-07-05T14:16:12Z</time>
      </trkpt>
      <trkpt lat="49.29962" lon="-0.38196">
        <ele>31</ele>
        <time>2023-07-05T14:16:13Z</time>
      </trkpt>
      <trkpt lat="49.29961" lon="-0.38202">
        <ele>31</ele>
        <time>2023-07-05T14:16:14Z</time>
      </trkpt>
      <trkpt lat="49.29961" lon="-0.38207">
        <ele>31.1</ele>
        <time>2023-07-05T14:16:15Z</time>
      </trkpt>
      <trkpt lat="49.29961" lon="-0.38214">
        <ele>31.1</ele>
        <time>2023-07-05T14:16:16Z</time>
      </trkpt>
      <trkpt lat="49.2996" lon="-0.3822">
        <ele>31.2</ele>
        <time>2023-07-05T14:16:17Z</time>
      </trkpt>
      <trkpt lat="49.2996" lon="-0.38226">
        <ele>31.3</ele>
        <time>2023-07-05T14:16:18Z</time>
      </trkpt>
      <trkpt lat="49.29959" lon="-0.38231">
        <ele>31.3</ele>
        <time>2023-07-05T14:16:19Z</time>
      </trkpt>
      <trkpt lat="49.29958" lon="-0.38236">
        <ele>31.4</ele>
        <time>2023-07-05T14:16:20Z</time>
      </trkpt>
      <trkpt lat="49.29958" lon="-0.38242">
        <ele>31.4</ele>
        <time>2023-07-05T14:16:21Z</time>
      </trkpt>
      <trkpt lat="49.29957" lon="-0.38248">
        <ele>31.5</ele>
        <time>2023-07-05T14:16:22Z</time>
      </trkpt>
      <trkpt lat="49.29957" lon="-0.38254">
        <ele>31.6</ele>
        <time>2023-07-05T14:16:23Z</time>
      </trkpt>
      <trkpt lat="49.29956" lon="-0.3826">
        <ele>31.6</ele>
        <time>2023-07-05T14:16:24Z</time>
      </trkpt>
      <trkpt lat="49.29954" lon="-0.38266">
        <ele>31.7</ele>
        <time>2023-07-05T14:16:25Z</time>
      </trkpt>
      <trkpt lat="49.29953" lon="-0.38272">
        <ele>31.8</ele>
        <time>2023-07-05T14:16:26Z</time>
      </trkpt>
      <trkpt lat="49.29951" lon="-0.38277">
        <ele>31.8</ele>
        <time>2023-07-05T14:16:27Z</time>
      </trkpt>
      <trkpt lat="49.29949" lon="-0.38283">
        <ele>31.9</ele>
        <time>2023-07-05T14:16:28Z</time>
      </trkpt>
      <trkpt lat="49.29946" lon="-0.38288">
        <ele>31.9</ele>
        <time>2023-07-05T14:16:29Z</time>
      </trkpt>
      <trkpt lat="49.29942" lon="-0.38292">
        <ele>32</ele>
        <time>2023-07-05T14:16:30Z</time>
      </trkpt>
      <trkpt lat="49.2994" lon="-0.38296">
        <ele>32</ele>
        <time>2023-07-05T14:16:31Z</time>
      </trkpt>
      <trkpt lat="49.29937" lon="-0.383">
        <ele>32.1</ele>
        <time>2023-07-05T14:16:32Z</time>
      </trkpt>
      <trkpt lat="49.29933" lon="-0.38304">
        <ele>32.1</ele>
        <time>2023-07-05T14:16:33Z</time>
      </trkpt>
      <trkpt lat="49.29929" lon="-0.38309">
        <ele>32.1</ele>
        <time>2023-07-05T14:16:34Z</time>
      </trkpt>
      <trkpt lat="49.29925" lon="-0.38313">
        <ele>32.2</ele>
        <time>2023-07-05T14:16:35Z</time>
      </trkpt>
      <trkpt lat="49.2992" lon="-0.38318">
        <ele>32.2</ele>
        <time>2023-07-05T14:16:36Z</time>
      </trkpt>
      <trkpt lat="49.29916" lon="-0.38323">
        <ele>32.3</ele>
        <time>2023-07-05T14:16:37Z</time>
      </trkpt>
      <trkpt lat="49.29912" lon="-0.38329">
        <ele>32.3</ele>
        <time>2023-07-05T14:16:38Z</time>
      </trkpt>
      <trkpt lat="49.29908" lon="-0.38335">
        <ele>32.4</ele>
        <time>2023-07-05T14:16:39Z</time>
      </trkpt>
      <trkpt lat="49.29904" lon="-0.38341">
        <ele>32.5</ele>
        <time>2023-07-05T14:16:40Z</time>
      </trkpt>
      <trkpt lat="49.299" lon="-0.38347">
        <ele>32.5</ele>
        <time>2023-07-05T14:16:41Z</time>
      </trkpt>
      <trkpt lat="49.29895" lon="-0.38353">
        <ele>32.5</ele>
        <time>2023-07-05T14:16:42Z</time>
      </trkpt>
      <trkpt lat="49.29892" lon="-0.38359">
        <ele>32.5</ele>
        <time>2023-07-05T14:16:43Z</time>
      </trkpt>
      <trkpt lat="49.29888" lon="-0.38365">
        <ele>32.6</ele>
        <time>2023-07-05T14:16:44Z</time>
      </trkpt>
      <trkpt lat="49.29885" lon="-0.38371">
        <ele>32.6</ele>
        <time>2023-07-05T14:16:45Z</time>
      </trkpt>
      <trkpt lat="49.29883" lon="-0.38378">
        <ele>32.7</ele>
        <time>2023-07-05T14:16:46Z</time>
      </trkpt>
      <trkpt lat="49.2988" lon="-0.38385">
        <ele>32.7</ele>
        <time>2023-07-05T14:16:47Z</time>
      </trkpt>
      <trkpt lat="49.29878" lon="-0.38391">
        <ele>32.8</ele>
        <time>2023-07-05T14:16:48Z</time>
      </trkpt>
      <trkpt lat="49.29876" lon="-0.38395">
        <ele>32.9</ele>
        <time>2023-07-05T14:16:49Z</time>
      </trkpt>
      <trkpt lat="49.29873" lon="-0.38399">
        <ele>32.9</ele>
        <time>2023-07-05T14:16:50Z</time>
      </trkpt>
      <trkpt lat="49.2987" lon="-0.38403">
        <ele>33</ele>
        <time>2023-07-05T14:16:51Z</time>
      </trkpt>
      <trkpt lat="49.29867" lon="-0.38407">
        <ele>33</ele>
        <time>2023-07-05T14:16:52Z</time>
      </trkpt>
      <trkpt lat="49.29864" lon="-0.38412">
        <ele>33.1</ele>
        <time>2023-07-05T14:16:53Z</time>
      </trkpt>
      <trkpt lat="49.29861" lon="-0.38416">
        <ele>33.1</ele>
        <time>2023-07-05T14:16:54Z</time>
      </trkpt>
      <trkpt lat="49.29858" lon="-0.3842">
        <ele>33.1</ele>
        <time>2023-07-05T14:16:55Z</time>
      </trkpt>
      <trkpt lat="49.29854" lon="-0.38423">
        <ele>33.1</ele>
        <time>2023-07-05T14:16:56Z</time>
      </trkpt>
      <trkpt lat="49.29851" lon="-0.38427">
        <ele>33.1</ele>
        <time>2023-07-05T14:16:57Z</time>
      </trkpt>
      <trkpt lat="49.29848" lon="-0.38432">
        <ele>32.9</ele>
        <time>2023-07-05T14:16:58Z</time>
      </trkpt>
      <trkpt lat="49.29844" lon="-0.38438">
        <ele>33</ele>
        <time>2023-07-05T14:16:59Z</time>
      </trkpt>
      <trkpt lat="49.29841" lon="-0.38444">
        <ele>32.8</ele>
        <time>2023-07-05T14:17:00Z</time>
      </trkpt>
      <trkpt lat="49.29837" lon="-0.3845">
        <ele>32.7</ele>
        <time>2023-07-05T14:17:01Z</time>
      </trkpt>
      <trkpt lat="49.29833" lon="-0.38457">
        <ele>32.7</ele>
        <time>2023-07-05T14:17:02Z</time>
      </trkpt>
      <trkpt lat="49.29829" lon="-0.38463">
        <ele>32.7</ele>
        <time>2023-07-05T14:17:03Z</time>
      </trkpt>
      <trkpt lat="49.29824" lon="-0.38469">
        <ele>32.7</ele>
        <time>2023-07-05T14:17:04Z</time>
      </trkpt>
      <trkpt lat="49.29819" lon="-0.38476">
        <ele>32.6</ele>
        <time>2023-07-05T14:17:05Z</time>
      </trkpt>
      <trkpt lat="49.29815" lon="-0.38483">
        <ele>32.6</ele>
        <time>2023-07-05T14:17:06Z</time>
      </trkpt>
      <trkpt lat="49.29811" lon="-0.38489">
        <ele>32.6</ele>
        <time>2023-07-05T14:17:07Z</time>
      </trkpt>
      <trkpt lat="49.29808" lon="-0.38496">
        <ele>32.6</ele>
        <time>2023-07-05T14:17:08Z</time>
      </trkpt>
      <trkpt lat="49.29804" lon="-0.38502">
        <ele>32.6</ele>
        <time>2023-07-05T14:17:09Z</time>
      </trkpt>
      <trkpt lat="49.298" lon="-0.38508">
        <ele>32.7</ele>
        <time>2023-07-05T14:17:10Z</time>
      </trkpt>
      <trkpt lat="49.29795" lon="-0.38514">
        <ele>32.7</ele>
        <time>2023-07-05T14:17:11Z</time>
      </trkpt>
      <trkpt lat="49.29791" lon="-0.38519">
        <ele>32.8</ele>
        <time>2023-07-05T14:17:12Z</time>
      </trkpt>
      <trkpt lat="49.29786" lon="-0.38525">
        <ele>32.8</ele>
        <time>2023-07-05T14:17:13Z</time>
      </trkpt>
      <trkpt lat="49.29782" lon="-0.3853">
        <ele>32.9</ele>
        <time>2023-07-05T14:17:14Z</time>
      </trkpt>
      <trkpt lat="49.29776" lon="-0.38533">
        <ele>32.9</ele>
        <time>2023-07-05T14:17:15Z</time>
      </trkpt>
      <trkpt lat="49.29771" lon="-0.38535">
        <ele>32.9</ele>
        <time>2023-07-05T14:17:16Z</time>
      </trkpt>
      <trkpt lat="49.29764" lon="-0.38535">
        <ele>32.9</ele>
        <time>2023-07-05T14:17:17Z</time>
      </trkpt>
      <trkpt lat="49.29756" lon="-0.38534">
        <ele>32.9</ele>
        <time>2023-07-05T14:17:18Z</time>
      </trkpt>
      <trkpt lat="49.29749" lon="-0.38533">
        <ele>32.8</ele>
        <time>2023-07-05T14:17:19Z</time>
      </trkpt>
      <trkpt lat="49.29742" lon="-0.38533">
        <ele>32.8</ele>
        <time>2023-07-05T14:17:20Z</time>
      </trkpt>
      <trkpt lat="49.29735" lon="-0.38532">
        <ele>32.8</ele>
        <time>2023-07-05T14:17:21Z</time>
      </trkpt>
      <trkpt lat="49.29728" lon="-0.38532">
        <ele>32.7</ele>
        <time>2023-07-05T14:17:22Z</time>
      </trkpt>
      <trkpt lat="49.2972" lon="-0.38531">
        <ele>32.7</ele>
        <time>2023-07-05T14:17:23Z</time>
      </trkpt>
      <trkpt lat="49.29713" lon="-0.38532">
        <ele>32.6</ele>
        <time>2023-07-05T14:17:24Z</time>
      </trkpt>
      <trkpt lat="49.29706" lon="-0.38532">
        <ele>32.6</ele>
        <time>2023-07-05T14:17:25Z</time>
      </trkpt>
      <trkpt lat="49.29699" lon="-0.38532">
        <ele>32.5</ele>
        <time>2023-07-05T14:17:26Z</time>
      </trkpt>
      <trkpt lat="49.29692" lon="-0.38532">
        <ele>32.5</ele>
        <time>2023-07-05T14:17:27Z</time>
      </trkpt>
      <trkpt lat="49.29684" lon="-0.38531">
        <ele>32.4</ele>
        <time>2023-07-05T14:17:28Z</time>
      </trkpt>
      <trkpt lat="49.29677" lon="-0.38531">
        <ele>32.4</ele>
        <time>2023-07-05T14:17:29Z</time>
      </trkpt>
      <trkpt lat="49.2967" lon="-0.38531">
        <ele>32.3</ele>
        <time>2023-07-05T14:17:30Z</time>
      </trkpt>
      <trkpt lat="49.29663" lon="-0.38531">
        <ele>32.3</ele>
        <time>2023-07-05T14:17:31Z</time>
      </trkpt>
      <trkpt lat="49.29656" lon="-0.38531">
        <ele>32.2</ele>
        <time>2023-07-05T14:17:32Z</time>
      </trkpt>
      <trkpt lat="49.29649" lon="-0.38531">
        <ele>32.1</ele>
        <time>2023-07-05T14:17:33Z</time>
      </trkpt>
      <trkpt lat="49.29642" lon="-0.38531">
        <ele>31.8</ele>
        <time>2023-07-05T14:17:34Z</time>
      </trkpt>
      <trkpt lat="49.29635" lon="-0.38531">
        <ele>31.7</ele>
        <time>2023-07-05T14:17:35Z</time>
      </trkpt>
      <trkpt lat="49.29628" lon="-0.38531">
        <ele>31.5</ele>
        <time>2023-07-05T14:17:36Z</time>
      </trkpt>
      <trkpt lat="49.2962" lon="-0.38531">
        <ele>31.4</ele>
        <time>2023-07-05T14:17:37Z</time>
      </trkpt>
      <trkpt lat="49.29613" lon="-0.38531">
        <ele>31.2</ele>
        <time>2023-07-05T14:17:38Z</time>
      </trkpt>
      <trkpt lat="49.29605" lon="-0.38531">
        <ele>31</ele>
        <time>2023-07-05T14:17:39Z</time>
      </trkpt>
      <trkpt lat="49.29598" lon="-0.3853">
        <ele>30.8</ele>
        <time>2023-07-05T14:17:40Z</time>
      </trkpt>
      <trkpt lat="49.2959" lon="-0.38528">
        <ele>30.6</ele>
        <time>2023-07-05T14:17:41Z</time>
      </trkpt>
      <trkpt lat="49.29583" lon="-0.38525">
        <ele>30.4</ele>
        <time>2023-07-05T14:17:42Z</time>
      </trkpt>
      <trkpt lat="49.29577" lon="-0.38521">
        <ele>30.1</ele>
        <time>2023-07-05T14:17:43Z</time>
      </trkpt>
      <trkpt lat="49.29571" lon="-0.38515">
        <ele>29.9</ele>
        <time>2023-07-05T14:17:44Z</time>
      </trkpt>
      <trkpt lat="49.29567" lon="-0.38506">
        <ele>29.7</ele>
        <time>2023-07-05T14:17:45Z</time>
      </trkpt>
      <trkpt lat="49.29562" lon="-0.38497">
        <ele>29.5</ele>
        <time>2023-07-05T14:17:46Z</time>
      </trkpt>
      <trkpt lat="49.29556" lon="-0.38488">
        <ele>29.3</ele>
        <time>2023-07-05T14:17:47Z</time>
      </trkpt>
      <trkpt lat="49.29551" lon="-0.38479">
        <ele>29.1</ele>
        <time>2023-07-05T14:17:48Z</time>
      </trkpt>
      <trkpt lat="49.29545" lon="-0.3847">
        <ele>28.8</ele>
        <time>2023-07-05T14:17:49Z</time>
      </trkpt>
      <trkpt lat="49.2954" lon="-0.38461">
        <ele>28.5</ele>
        <time>2023-07-05T14:17:50Z</time>
      </trkpt>
      <trkpt lat="49.29534" lon="-0.38452">
        <ele>28.2</ele>
        <time>2023-07-05T14:17:51Z</time>
      </trkpt>
      <trkpt lat="49.29527" lon="-0.38443">
        <ele>28</ele>
        <time>2023-07-05T14:17:52Z</time>
      </trkpt>
      <trkpt lat="49.29521" lon="-0.38434">
        <ele>27.7</ele>
        <time>2023-07-05T14:17:53Z</time>
      </trkpt>
      <trkpt lat="49.29515" lon="-0.38425">
        <ele>27.4</ele>
        <time>2023-07-05T14:17:54Z</time>
      </trkpt>
      <trkpt lat="49.29509" lon="-0.38416">
        <ele>27.2</ele>
        <time>2023-07-05T14:17:55Z</time>
      </trkpt>
      <trkpt lat="49.29503" lon="-0.38407">
        <ele>27</ele>
        <time>2023-07-05T14:17:56Z</time>
      </trkpt>
      <trkpt lat="49.29497" lon="-0.38398">
        <ele>26.8</ele>
        <time>2023-07-05T14:17:57Z</time>
      </trkpt>
      <trkpt lat="49.29493" lon="-0.3839">
        <ele>26.7</ele>
        <time>2023-07-05T14:17:58Z</time>
      </trkpt>
      <trkpt lat="49.29489" lon="-0.38384">
        <ele>26.6</ele>
        <time>2023-07-05T14:17:59Z</time>
      </trkpt>
      <trkpt lat="49.29485" lon="-0.38378">
        <ele>26.6</ele>
        <time>2023-07-05T14:18:00Z</time>
      </trkpt>
      <trkpt lat="49.29482" lon="-0.38373">
        <ele>26.5</ele>
        <time>2023-07-05T14:18:01Z</time>
      </trkpt>
      <trkpt lat="49.29479" lon="-0.38369">
        <ele>26.5</ele>
        <time>2023-07-05T14:18:02Z</time>
      </trkpt>
      <trkpt lat="49.29475" lon="-0.38366">
        <ele>26.4</ele>
        <time>2023-07-05T14:18:03Z</time>
      </trkpt>
      <trkpt lat="49.29471" lon="-0.38366">
        <ele>26.2</ele>
        <time>2023-07-05T14:18:04Z</time>
      </trkpt>
      <trkpt lat="49.29466" lon="-0.38368">
        <ele>26.2</ele>
        <time>2023-07-05T14:18:05Z</time>
      </trkpt>
      <trkpt lat="49.29461" lon="-0.38372">
        <ele>26.1</ele>
        <time>2023-07-05T14:18:06Z</time>
      </trkpt>
      <trkpt lat="49.29457" lon="-0.38379">
        <ele>26.1</ele>
        <time>2023-07-05T14:18:07Z</time>
      </trkpt>
      <trkpt lat="49.29454" lon="-0.38386">
        <ele>26.1</ele>
        <time>2023-07-05T14:18:08Z</time>
      </trkpt>
      <trkpt lat="49.29451" lon="-0.38392">
        <ele>26.1</ele>
        <time>2023-07-05T14:18:09Z</time>
      </trkpt>
      <trkpt lat="49.29448" lon="-0.38398">
        <ele>26</ele>
        <time>2023-07-05T14:18:10Z</time>
      </trkpt>
      <trkpt lat="49.29445" lon="-0.38404">
        <ele>26</ele>
        <time>2023-07-05T14:18:11Z</time>
      </trkpt>
      <trkpt lat="49.29442" lon="-0.38409">
        <ele>26</ele>
        <time>2023-07-05T14:18:12Z</time>
      </trkpt>
      <trkpt lat="49.2944" lon="-0.38414">
        <ele>26</ele>
        <time>2023-07-05T14:18:13Z</time>
      </trkpt>
      <trkpt lat="49.29437" lon="-0.3842">
        <ele>26</ele>
        <time>2023-07-05T14:18:14Z</time>
      </trkpt>
      <trkpt lat="49.29435" lon="-0.38426">
        <ele>26</ele>
        <time>2023-07-05T14:18:15Z</time>
      </trkpt>
      <trkpt lat="49.29432" lon="-0.38432">
        <ele>25.9</ele>
        <time>2023-07-05T14:18:16Z</time>
      </trkpt>
      <trkpt lat="49.29429" lon="-0.38438">
        <ele>25.9</ele>
        <time>2023-07-05T14:18:17Z</time>
      </trkpt>
      <trkpt lat="49.29426" lon="-0.38444">
        <ele>25.8</ele>
        <time>2023-07-05T14:18:18Z</time>
      </trkpt>
      <trkpt lat="49.29423" lon="-0.3845">
        <ele>25.8</ele>
        <time>2023-07-05T14:18:19Z</time>
      </trkpt>
      <trkpt lat="49.2942" lon="-0.38457">
        <ele>25.7</ele>
        <time>2023-07-05T14:18:20Z</time>
      </trkpt>
      <trkpt lat="49.29416" lon="-0.38465">
        <ele>25.6</ele>
        <time>2023-07-05T14:18:21Z</time>
      </trkpt>
      <trkpt lat="49.29413" lon="-0.38472">
        <ele>25.6</ele>
        <time>2023-07-05T14:18:22Z</time>
      </trkpt>
      <trkpt lat="49.29409" lon="-0.38479">
        <ele>25.5</ele>
        <time>2023-07-05T14:18:23Z</time>
      </trkpt>
      <trkpt lat="49.29405" lon="-0.38486">
        <ele>25.4</ele>
        <time>2023-07-05T14:18:24Z</time>
      </trkpt>
      <trkpt lat="49.29401" lon="-0.38493">
        <ele>25.3</ele>
        <time>2023-07-05T14:18:25Z</time>
      </trkpt>
      <trkpt lat="49.29397" lon="-0.385">
        <ele>25.2</ele>
        <time>2023-07-05T14:18:26Z</time>
      </trkpt>
      <trkpt lat="49.29392" lon="-0.38508">
        <ele>25</ele>
        <time>2023-07-05T14:18:27Z</time>
      </trkpt>
      <trkpt lat="49.29388" lon="-0.38516">
        <ele>24.9</ele>
        <time>2023-07-05T14:18:28Z</time>
      </trkpt>
      <trkpt lat="49.29384" lon="-0.38524">
        <ele>24.8</ele>
        <time>2023-07-05T14:18:29Z</time>
      </trkpt>
      <trkpt lat="49.2938" lon="-0.38532">
        <ele>24.7</ele>
        <time>2023-07-05T14:18:30Z</time>
      </trkpt>
      <trkpt lat="49.29375" lon="-0.38541">
        <ele>24.6</ele>
        <time>2023-07-05T14:18:31Z</time>
      </trkpt>
      <trkpt lat="49.29371" lon="-0.38551">
        <ele>24.6</ele>
        <time>2023-07-05T14:18:32Z</time>
      </trkpt>
      <trkpt lat="49.29368" lon="-0.3856">
        <ele>24.5</ele>
        <time>2023-07-05T14:18:33Z</time>
      </trkpt>
      <trkpt lat="49.29365" lon="-0.38569">
        <ele>24.5</ele>
        <time>2023-07-05T14:18:34Z</time>
      </trkpt>
      <trkpt lat="49.29363" lon="-0.38578">
        <ele>24.6</ele>
        <time>2023-07-05T14:18:35Z</time>
      </trkpt>
      <trkpt lat="49.29361" lon="-0.38587">
        <ele>24.6</ele>
        <time>2023-07-05T14:18:36Z</time>
      </trkpt>
      <trkpt lat="49.29359" lon="-0.38596">
        <ele>24.7</ele>
        <time>2023-07-05T14:18:37Z</time>
      </trkpt>
      <trkpt lat="49.29357" lon="-0.38605">
        <ele>24.8</ele>
        <time>2023-07-05T14:18:38Z</time>
      </trkpt>
      <trkpt lat="49.29354" lon="-0.38614">
        <ele>24.9</ele>
        <time>2023-07-05T14:18:39Z</time>
      </trkpt>
      <trkpt lat="49.29352" lon="-0.38622">
        <ele>25</ele>
        <time>2023-07-05T14:18:40Z</time>
      </trkpt>
      <trkpt lat="49.2935" lon="-0.38629">
        <ele>25.1</ele>
        <time>2023-07-05T14:18:41Z</time>
      </trkpt>
      <trkpt lat="49.29347" lon="-0.38637">
        <ele>25.3</ele>
        <time>2023-07-05T14:18:42Z</time>
      </trkpt>
      <trkpt lat="49.29344" lon="-0.38645">
        <ele>25.4</ele>
        <time>2023-07-05T14:18:43Z</time>
      </trkpt>
      <trkpt lat="49.29341" lon="-0.38652">
        <ele>25.5</ele>
        <time>2023-07-05T14:18:44Z</time>
      </trkpt>
      <trkpt lat="49.29339" lon="-0.38659">
        <ele>25.7</ele>
        <time>2023-07-05T14:18:45Z</time>
      </trkpt>
      <trkpt lat="49.29336" lon="-0.38667">
        <ele>25.8</ele>
        <time>2023-07-05T14:18:46Z</time>
      </trkpt>
      <trkpt lat="49.29332" lon="-0.38674">
        <ele>25.9</ele>
        <time>2023-07-05T14:18:47Z</time>
      </trkpt>
      <trkpt lat="49.29329" lon="-0.38681">
        <ele>26.1</ele>
        <time>2023-07-05T14:18:48Z</time>
      </trkpt>
      <trkpt lat="49.29325" lon="-0.38687">
        <ele>26.2</ele>
        <time>2023-07-05T14:18:49Z</time>
      </trkpt>
      <trkpt lat="49.29323" lon="-0.38694">
        <ele>26.3</ele>
        <time>2023-07-05T14:18:50Z</time>
      </trkpt>
      <trkpt lat="49.2932" lon="-0.38701">
        <ele>26.5</ele>
        <time>2023-07-05T14:18:51Z</time>
      </trkpt>
      <trkpt lat="49.29317" lon="-0.38707">
        <ele>26.6</ele>
        <time>2023-07-05T14:18:52Z</time>
      </trkpt>
      <trkpt lat="49.29315" lon="-0.38712">
        <ele>26.7</ele>
        <time>2023-07-05T14:18:53Z</time>
      </trkpt>
      <trkpt lat="49.29312" lon="-0.38717">
        <ele>26.8</ele>
        <time>2023-07-05T14:18:54Z</time>
      </trkpt>
      <trkpt lat="49.29309" lon="-0.38722">
        <ele>26.9</ele>
        <time>2023-07-05T14:18:55Z</time>
      </trkpt>
      <trkpt lat="49.29305" lon="-0.38727">
        <ele>27</ele>
        <time>2023-07-05T14:18:56Z</time>
      </trkpt>
      <trkpt lat="49.29303" lon="-0.38731">
        <ele>27.1</ele>
        <time>2023-07-05T14:18:57Z</time>
      </trkpt>
      <trkpt lat="49.293" lon="-0.38736">
        <ele>27.1</ele>
        <time>2023-07-05T14:18:58Z</time>
      </trkpt>
      <trkpt lat="49.29298" lon="-0.38741">
        <ele>27.2</ele>
        <time>2023-07-05T14:18:59Z</time>
      </trkpt>
      <trkpt lat="49.29296" lon="-0.38747">
        <ele>27.2</ele>
        <time>2023-07-05T14:19:00Z</time>
      </trkpt>
      <trkpt lat="49.29292" lon="-0.38753">
        <ele>27.3</ele>
        <time>2023-07-05T14:19:01Z</time>
      </trkpt>
      <trkpt lat="49.29289" lon="-0.3876">
        <ele>27.3</ele>
        <time>2023-07-05T14:19:02Z</time>
      </trkpt>
      <trkpt lat="49.29284" lon="-0.38767">
        <ele>27.3</ele>
        <time>2023-07-05T14:19:03Z</time>
      </trkpt>
      <trkpt lat="49.29279" lon="-0.38773">
        <ele>27.2</ele>
        <time>2023-07-05T14:19:04Z</time>
      </trkpt>
      <trkpt lat="49.29274" lon="-0.38779">
        <ele>27.2</ele>
        <time>2023-07-05T14:19:05Z</time>
      </trkpt>
      <trkpt lat="49.2927" lon="-0.38785">
        <ele>27.1</ele>
        <time>2023-07-05T14:19:06Z</time>
      </trkpt>
      <trkpt lat="49.29266" lon="-0.38791">
        <ele>27.1</ele>
        <time>2023-07-05T14:19:07Z</time>
      </trkpt>
      <trkpt lat="49.29262" lon="-0.38797">
        <ele>27</ele>
        <time>2023-07-05T14:19:08Z</time>
      </trkpt>
      <trkpt lat="49.29258" lon="-0.38803">
        <ele>26.9</ele>
        <time>2023-07-05T14:19:09Z</time>
      </trkpt>
      <trkpt lat="49.29254" lon="-0.38809">
        <ele>26.9</ele>
        <time>2023-07-05T14:19:10Z</time>
      </trkpt>
      <trkpt lat="49.2925" lon="-0.38814">
        <ele>26.8</ele>
        <time>2023-07-05T14:19:11Z</time>
      </trkpt>
      <trkpt lat="49.29246" lon="-0.3882">
        <ele>26.8</ele>
        <time>2023-07-05T14:19:12Z</time>
      </trkpt>
      <trkpt lat="49.29241" lon="-0.38825">
        <ele>26.8</ele>
        <time>2023-07-05T14:19:13Z</time>
      </trkpt>
      <trkpt lat="49.29236" lon="-0.38831">
        <ele>26.7</ele>
        <time>2023-07-05T14:19:14Z</time>
      </trkpt>
      <trkpt lat="49.29231" lon="-0.38838">
        <ele>26.6</ele>
        <time>2023-07-05T14:19:15Z</time>
      </trkpt>
      <trkpt lat="49.29225" lon="-0.38845">
        <ele>26.5</ele>
        <time>2023-07-05T14:19:16Z</time>
      </trkpt>
      <trkpt lat="49.29219" lon="-0.3885">
        <ele>26.5</ele>
        <time>2023-07-05T14:19:17Z</time>
      </trkpt>
      <trkpt lat="49.29214" lon="-0.38856">
        <ele>26.3</ele>
        <time>2023-07-05T14:19:18Z</time>
      </trkpt>
      <trkpt lat="49.29209" lon="-0.38863">
        <ele>26.3</ele>
        <time>2023-07-05T14:19:19Z</time>
      </trkpt>
      <trkpt lat="49.29206" lon="-0.38871">
        <ele>26.4</ele>
        <time>2023-07-05T14:19:20Z</time>
      </trkpt>
      <trkpt lat="49.29205" lon="-0.3888">
        <ele>26.5</ele>
        <time>2023-07-05T14:19:21Z</time>
      </trkpt>
      <trkpt lat="49.29205" lon="-0.3889">
        <ele>26.6</ele>
        <time>2023-07-05T14:19:22Z</time>
      </trkpt>
      <trkpt lat="49.29206" lon="-0.38899">
        <ele>26.8</ele>
        <time>2023-07-05T14:19:23Z</time>
      </trkpt>
      <trkpt lat="49.29206" lon="-0.38908">
        <ele>26.9</ele>
        <time>2023-07-05T14:19:24Z</time>
      </trkpt>
      <trkpt lat="49.29206" lon="-0.38917">
        <ele>27.1</ele>
        <time>2023-07-05T14:19:25Z</time>
      </trkpt>
      <trkpt lat="49.29206" lon="-0.38926">
        <ele>27.2</ele>
        <time>2023-07-05T14:19:26Z</time>
      </trkpt>
      <trkpt lat="49.29206" lon="-0.38934">
        <ele>27.3</ele>
        <time>2023-07-05T14:19:27Z</time>
      </trkpt>
      <trkpt lat="49.29207" lon="-0.38943">
        <ele>27.5</ele>
        <time>2023-07-05T14:19:28Z</time>
      </trkpt>
      <trkpt lat="49.29208" lon="-0.38952">
        <ele>27.7</ele>
        <time>2023-07-05T14:19:29Z</time>
      </trkpt>
      <trkpt lat="49.29209" lon="-0.3896">
        <ele>27.9</ele>
        <time>2023-07-05T14:19:30Z</time>
      </trkpt>
      <trkpt lat="49.2921" lon="-0.38968">
        <ele>28</ele>
        <time>2023-07-05T14:19:31Z</time>
      </trkpt>
      <trkpt lat="49.2921" lon="-0.38976">
        <ele>28.2</ele>
        <time>2023-07-05T14:19:32Z</time>
      </trkpt>
      <trkpt lat="49.29211" lon="-0.38983">
        <ele>28.4</ele>
        <time>2023-07-05T14:19:33Z</time>
      </trkpt>
      <trkpt lat="49.29212" lon="-0.38991">
        <ele>28.5</ele>
        <time>2023-07-05T14:19:34Z</time>
      </trkpt>
      <trkpt lat="49.29212" lon="-0.38998">
        <ele>28.6</ele>
        <time>2023-07-05T14:19:35Z</time>
      </trkpt>
      <trkpt lat="49.29212" lon="-0.39005">
        <ele>28.8</ele>
        <time>2023-07-05T14:19:36Z</time>
      </trkpt>
      <trkpt lat="49.29213" lon="-0.39012">
        <ele>28.9</ele>
        <time>2023-07-05T14:19:37Z</time>
      </trkpt>
      <trkpt lat="49.29213" lon="-0.3902">
        <ele>29</ele>
        <time>2023-07-05T14:19:38Z</time>
      </trkpt>
      <trkpt lat="49.29213" lon="-0.39027">
        <ele>29.2</ele>
        <time>2023-07-05T14:19:39Z</time>
      </trkpt>
      <trkpt lat="49.29213" lon="-0.39034">
        <ele>29.3</ele>
        <time>2023-07-05T14:19:40Z</time>
      </trkpt>
      <trkpt lat="49.29213" lon="-0.39041">
        <ele>29.4</ele>
        <time>2023-07-05T14:19:41Z</time>
      </trkpt>
      <trkpt lat="49.29213" lon="-0.39048">
        <ele>29.5</ele>
        <time>2023-07-05T14:19:42Z</time>
      </trkpt>
      <trkpt lat="49.29214" lon="-0.39056">
        <ele>29.7</ele>
        <time>2023-07-05T14:19:43Z</time>
      </trkpt>
      <trkpt lat="49.29213" lon="-0.39064">
        <ele>29.8</ele>
        <time>2023-07-05T14:19:44Z</time>
      </trkpt>
      <trkpt lat="49.29212" lon="-0.39072">
        <ele>29.9</ele>
        <time>2023-07-05T14:19:45Z</time>
      </trkpt>
      <trkpt lat="49.2921" lon="-0.39079">
        <ele>30</ele>
        <time>2023-07-05T14:19:46Z</time>
      </trkpt>
      <trkpt lat="49.29208" lon="-0.39087">
        <ele>30.2</ele>
        <time>2023-07-05T14:19:47Z</time>
      </trkpt>
      <trkpt lat="49.29206" lon="-0.39094">
        <ele>30.2</ele>
        <time>2023-07-05T14:19:48Z</time>
      </trkpt>
      <trkpt lat="49.29204" lon="-0.39102">
        <ele>30.3</ele>
        <time>2023-07-05T14:19:49Z</time>
      </trkpt>
      <trkpt lat="49.29202" lon="-0.39109">
        <ele>30.4</ele>
        <time>2023-07-05T14:19:50Z</time>
      </trkpt>
      <trkpt lat="49.29199" lon="-0.39116">
        <ele>30.4</ele>
        <time>2023-07-05T14:19:51Z</time>
      </trkpt>
      <trkpt lat="49.29197" lon="-0.39122">
        <ele>30.5</ele>
        <time>2023-07-05T14:19:52Z</time>
      </trkpt>
      <trkpt lat="49.29193" lon="-0.39128">
        <ele>30.5</ele>
        <time>2023-07-05T14:19:53Z</time>
      </trkpt>
      <trkpt lat="49.29189" lon="-0.39133">
        <ele>30.6</ele>
        <time>2023-07-05T14:19:54Z</time>
      </trkpt>
      <trkpt lat="49.29185" lon="-0.39139">
        <ele>30.6</ele>
        <time>2023-07-05T14:19:55Z</time>
      </trkpt>
      <trkpt lat="49.29181" lon="-0.39144">
        <ele>30.6</ele>
        <time>2023-07-05T14:19:56Z</time>
      </trkpt>
      <trkpt lat="49.29177" lon="-0.39149">
        <ele>30.6</ele>
        <time>2023-07-05T14:19:57Z</time>
      </trkpt>
      <trkpt lat="49.29173" lon="-0.39155">
        <ele>30.6</ele>
        <time>2023-07-05T14:19:58Z</time>
      </trkpt>
      <trkpt lat="49.29169" lon="-0.3916">
        <ele>30.6</ele>
        <time>2023-07-05T14:19:59Z</time>
      </trkpt>
      <trkpt lat="49.29165" lon="-0.39166">
        <ele>30.6</ele>
        <time>2023-07-05T14:20:00Z</time>
      </trkpt>
      <trkpt lat="49.29163" lon="-0.3917">
        <ele>30.6</ele>
        <time>2023-07-05T14:20:01Z</time>
      </trkpt>
      <trkpt lat="49.2916" lon="-0.39174">
        <ele>30.6</ele>
        <time>2023-07-05T14:20:02Z</time>
      </trkpt>
      <trkpt lat="49.29158" lon="-0.39177">
        <ele>30.6</ele>
        <time>2023-07-05T14:20:03Z</time>
      </trkpt>
      <trkpt lat="49.29155" lon="-0.3918">
        <ele>30.6</ele>
        <time>2023-07-05T14:20:04Z</time>
      </trkpt>
      <trkpt lat="49.29154" lon="-0.39181">
        <ele>30.5</ele>
        <time>2023-07-05T14:20:05Z</time>
      </trkpt>
      <trkpt lat="49.29151" lon="-0.39179">
        <ele>30.5</ele>
        <time>2023-07-05T14:20:06Z</time>
      </trkpt>
      <trkpt lat="49.29149" lon="-0.39178">
        <ele>30.5</ele>
        <time>2023-07-05T14:20:07Z</time>
      </trkpt>
      <trkpt lat="49.29146" lon="-0.39174">
        <ele>30.5</ele>
        <time>2023-07-05T14:20:08Z</time>
      </trkpt>
      <trkpt lat="49.29143" lon="-0.39168">
        <ele>30.4</ele>
        <time>2023-07-05T14:20:09Z</time>
      </trkpt>
      <trkpt lat="49.29139" lon="-0.39162">
        <ele>30.3</ele>
        <time>2023-07-05T14:20:10Z</time>
      </trkpt>
      <trkpt lat="49.29136" lon="-0.39156">
        <ele>30.3</ele>
        <time>2023-07-05T14:20:11Z</time>
      </trkpt>
      <trkpt lat="49.29132" lon="-0.39149">
        <ele>30.2</ele>
        <time>2023-07-05T14:20:12Z</time>
      </trkpt>
      <trkpt lat="49.29129" lon="-0.39142">
        <ele>30.2</ele>
        <time>2023-07-05T14:20:13Z</time>
      </trkpt>
      <trkpt lat="49.29126" lon="-0.39134">
        <ele>30.1</ele>
        <time>2023-07-05T14:20:14Z</time>
      </trkpt>
      <trkpt lat="49.29123" lon="-0.39127">
        <ele>30.1</ele>
        <time>2023-07-05T14:20:15Z</time>
      </trkpt>
      <trkpt lat="49.2912" lon="-0.39119">
        <ele>30</ele>
        <time>2023-07-05T14:20:16Z</time>
      </trkpt>
      <trkpt lat="49.29116" lon="-0.39111">
        <ele>30</ele>
        <time>2023-07-05T14:20:17Z</time>
      </trkpt>
      <trkpt lat="49.29113" lon="-0.39104">
        <ele>30</ele>
        <time>2023-07-05T14:20:18Z</time>
      </trkpt>
      <trkpt lat="49.29108" lon="-0.39096">
        <ele>29.9</ele>
        <time>2023-07-05T14:20:19Z</time>
      </trkpt>
      <trkpt lat="49.29103" lon="-0.39088">
        <ele>29.9</ele>
        <time>2023-07-05T14:20:20Z</time>
      </trkpt>
      <trkpt lat="49.29099" lon="-0.39081">
        <ele>29.8</ele>
        <time>2023-07-05T14:20:21Z</time>
      </trkpt>
      <trkpt lat="49.29095" lon="-0.39073">
        <ele>29.8</ele>
        <time>2023-07-05T14:20:22Z</time>
      </trkpt>
      <trkpt lat="49.2909" lon="-0.39064">
        <ele>29.7</ele>
        <time>2023-07-05T14:20:23Z</time>
      </trkpt>
      <trkpt lat="49.29085" lon="-0.39056">
        <ele>29.7</ele>
        <time>2023-07-05T14:20:24Z</time>
      </trkpt>
      <trkpt lat="49.2908" lon="-0.39048">
        <ele>29.7</ele>
        <time>2023-07-05T14:20:25Z</time>
      </trkpt>
      <trkpt lat="49.29076" lon="-0.3904">
        <ele>29.6</ele>
        <time>2023-07-05T14:20:26Z</time>
      </trkpt>
      <trkpt lat="49.29071" lon="-0.39032">
        <ele>29.6</ele>
        <time>2023-07-05T14:20:27Z</time>
      </trkpt>
      <trkpt lat="49.29066" lon="-0.39025">
        <ele>29.5</ele>
        <time>2023-07-05T14:20:28Z</time>
      </trkpt>
      <trkpt lat="49.29061" lon="-0.39018">
        <ele>29.5</ele>
        <time>2023-07-05T14:20:29Z</time>
      </trkpt>
      <trkpt lat="49.29056" lon="-0.39011">
        <ele>29.4</ele>
        <time>2023-07-05T14:20:30Z</time>
      </trkpt>
      <trkpt lat="49.29051" lon="-0.39004">
        <ele>29.4</ele>
        <time>2023-07-05T14:20:31Z</time>
      </trkpt>
      <trkpt lat="49.29045" lon="-0.38997">
        <ele>29.3</ele>
        <time>2023-07-05T14:20:32Z</time>
      </trkpt>
      <trkpt lat="49.2904" lon="-0.3899">
        <ele>29.2</ele>
        <time>2023-07-05T14:20:33Z</time>
      </trkpt>
      <trkpt lat="49.29035" lon="-0.38983">
        <ele>29.2</ele>
        <time>2023-07-05T14:20:34Z</time>
      </trkpt>
      <trkpt lat="49.29029" lon="-0.38977">
        <ele>29.1</ele>
        <time>2023-07-05T14:20:35Z</time>
      </trkpt>
      <trkpt lat="49.29023" lon="-0.38971">
        <ele>29</ele>
        <time>2023-07-05T14:20:36Z</time>
      </trkpt>
      <trkpt lat="49.29017" lon="-0.38965">
        <ele>28.9</ele>
        <time>2023-07-05T14:20:37Z</time>
      </trkpt>
      <trkpt lat="49.29011" lon="-0.38959">
        <ele>28.8</ele>
        <time>2023-07-05T14:20:38Z</time>
      </trkpt>
      <trkpt lat="49.29006" lon="-0.38952">
        <ele>28.7</ele>
        <time>2023-07-05T14:20:39Z</time>
      </trkpt>
      <trkpt lat="49.29" lon="-0.38945">
        <ele>28.6</ele>
        <time>2023-07-05T14:20:40Z</time>
      </trkpt>
      <trkpt lat="49.28995" lon="-0.38938">
        <ele>28.4</ele>
        <time>2023-07-05T14:20:41Z</time>
      </trkpt>
      <trkpt lat="49.2899" lon="-0.38931">
        <ele>28.3</ele>
        <time>2023-07-05T14:20:42Z</time>
      </trkpt>
      <trkpt lat="49.28985" lon="-0.38924">
        <ele>28.2</ele>
        <time>2023-07-05T14:20:43Z</time>
      </trkpt>
      <trkpt lat="49.28981" lon="-0.38917">
        <ele>28</ele>
        <time>2023-07-05T14:20:44Z</time>
      </trkpt>
      <trkpt lat="49.28977" lon="-0.38909">
        <ele>27.9</ele>
        <time>2023-07-05T14:20:45Z</time>
      </trkpt>
      <trkpt lat="49.28973" lon="-0.38901">
        <ele>27.8</ele>
        <time>2023-07-05T14:20:46Z</time>
      </trkpt>
      <trkpt lat="49.2897" lon="-0.38892">
        <ele>27.7</ele>
        <time>2023-07-05T14:20:47Z</time>
      </trkpt>
      <trkpt lat="49.28966" lon="-0.38883">
        <ele>27.6</ele>
        <time>2023-07-05T14:20:48Z</time>
      </trkpt>
      <trkpt lat="49.28963" lon="-0.38874">
        <ele>27.5</ele>
        <time>2023-07-05T14:20:49Z</time>
      </trkpt>
      <trkpt lat="49.28961" lon="-0.38864">
        <ele>27.4</ele>
        <time>2023-07-05T14:20:50Z</time>
      </trkpt>
      <trkpt lat="49.28957" lon="-0.38854">
        <ele>27.3</ele>
        <time>2023-07-05T14:20:51Z</time>
      </trkpt>
      <trkpt lat="49.28954" lon="-0.38845">
        <ele>27.2</ele>
        <time>2023-07-05T14:20:52Z</time>
      </trkpt>
      <trkpt lat="49.28951" lon="-0.38835">
        <ele>27.2</ele>
        <time>2023-07-05T14:20:53Z</time>
      </trkpt>
      <trkpt lat="49.28948" lon="-0.38824">
        <ele>27.1</ele>
        <time>2023-07-05T14:20:54Z</time>
      </trkpt>
      <trkpt lat="49.28946" lon="-0.38814">
        <ele>27</ele>
        <time>2023-07-05T14:20:55Z</time>
      </trkpt>
      <trkpt lat="49.28944" lon="-0.38802">
        <ele>26.9</ele>
        <time>2023-07-05T14:20:56Z</time>
      </trkpt>
      <trkpt lat="49.28943" lon="-0.38791">
        <ele>26.8</ele>
        <time>2023-07-05T14:20:57Z</time>
      </trkpt>
      <trkpt lat="49.28943" lon="-0.38779">
        <ele>26.8</ele>
        <time>2023-07-05T14:20:58Z</time>
      </trkpt>
      <trkpt lat="49.28943" lon="-0.38767">
        <ele>26.8</ele>
        <time>2023-07-05T14:20:59Z</time>
      </trkpt>
      <trkpt lat="49.28943" lon="-0.38755">
        <ele>26.7</ele>
        <time>2023-07-05T14:21:00Z</time>
      </trkpt>
      <trkpt lat="49.28943" lon="-0.38744">
        <ele>26.7</ele>
        <time>2023-07-05T14:21:01Z</time>
      </trkpt>
      <trkpt lat="49.28943" lon="-0.38732">
        <ele>26.7</ele>
        <time>2023-07-05T14:21:02Z</time>
      </trkpt>
      <trkpt lat="49.28943" lon="-0.3872">
        <ele>26.7</ele>
        <time>2023-07-05T14:21:03Z</time>
      </trkpt>
      <trkpt lat="49.28944" lon="-0.38708">
        <ele>26.7</ele>
        <time>2023-07-05T14:21:04Z</time>
      </trkpt>
      <trkpt lat="49.28944" lon="-0.38697">
        <ele>26.8</ele>
        <time>2023-07-05T14:21:05Z</time>
      </trkpt>
      <trkpt lat="49.28944" lon="-0.38686">
        <ele>26.8</ele>
        <time>2023-07-05T14:21:06Z</time>
      </trkpt>
      <trkpt lat="49.28943" lon="-0.38676">
        <ele>26.8</ele>
        <time>2023-07-05T14:21:07Z</time>
      </trkpt>
      <trkpt lat="49.28944" lon="-0.38665">
        <ele>26.9</ele>
        <time>2023-07-05T14:21:08Z</time>
      </trkpt>
      <trkpt lat="49.28945" lon="-0.38655">
        <ele>26.9</ele>
        <time>2023-07-05T14:21:09Z</time>
      </trkpt>
      <trkpt lat="49.28946" lon="-0.38644">
        <ele>27</ele>
        <time>2023-07-05T14:21:10Z</time>
      </trkpt>
      <trkpt lat="49.28948" lon="-0.38635">
        <ele>27.2</ele>
        <time>2023-07-05T14:21:11Z</time>
      </trkpt>
      <trkpt lat="49.2895" lon="-0.38626">
        <ele>27.3</ele>
        <time>2023-07-05T14:21:12Z</time>
      </trkpt>
      <trkpt lat="49.28951" lon="-0.38616">
        <ele>27.4</ele>
        <time>2023-07-05T14:21:13Z</time>
      </trkpt>
      <trkpt lat="49.28953" lon="-0.38606">
        <ele>27.5</ele>
        <time>2023-07-05T14:21:14Z</time>
      </trkpt>
      <trkpt lat="49.28955" lon="-0.38595">
        <ele>27.6</ele>
        <time>2023-07-05T14:21:15Z</time>
      </trkpt>
      <trkpt lat="49.28956" lon="-0.38585">
        <ele>27.7</ele>
        <time>2023-07-05T14:21:16Z</time>
      </trkpt>
      <trkpt lat="49.28957" lon="-0.38574">
        <ele>27.9</ele>
        <time>2023-07-05T14:21:17Z</time>
      </trkpt>
      <trkpt lat="49.28957" lon="-0.38563">
        <ele>28</ele>
        <time>2023-07-05T14:21:18Z</time>
      </trkpt>
      <trkpt lat="49.28957" lon="-0.38551">
        <ele>28.2</ele>
        <time>2023-07-05T14:21:19Z</time>
      </trkpt>
      <trkpt lat="49.28956" lon="-0.3854">
        <ele>28.4</ele>
        <time>2023-07-05T14:21:20Z</time>
      </trkpt>
      <trkpt lat="49.28956" lon="-0.38528">
        <ele>28.6</ele>
        <time>2023-07-05T14:21:21Z</time>
      </trkpt>
      <trkpt lat="49.28955" lon="-0.38517">
        <ele>28.8</ele>
        <time>2023-07-05T14:21:22Z</time>
      </trkpt>
      <trkpt lat="49.28954" lon="-0.38506">
        <ele>29</ele>
        <time>2023-07-05T14:21:23Z</time>
      </trkpt>
      <trkpt lat="49.28951" lon="-0.38496">
        <ele>29.1</ele>
        <time>2023-07-05T14:21:24Z</time>
      </trkpt>
      <trkpt lat="49.28949" lon="-0.38486">
        <ele>29.3</ele>
        <time>2023-07-05T14:21:25Z</time>
      </trkpt>
      <trkpt lat="49.28946" lon="-0.38477">
        <ele>29.5</ele>
        <time>2023-07-05T14:21:26Z</time>
      </trkpt>
      <trkpt lat="49.28944" lon="-0.38469">
        <ele>29.6</ele>
        <time>2023-07-05T14:21:27Z</time>
      </trkpt>
      <trkpt lat="49.28942" lon="-0.38462">
        <ele>29.8</ele>
        <time>2023-07-05T14:21:28Z</time>
      </trkpt>
      <trkpt lat="49.28941" lon="-0.38455">
        <ele>29.9</ele>
        <time>2023-07-05T14:21:29Z</time>
      </trkpt>
      <trkpt lat="49.28939" lon="-0.38448">
        <ele>30.1</ele>
        <time>2023-07-05T14:21:30Z</time>
      </trkpt>
      <trkpt lat="49.28937" lon="-0.38442">
        <ele>30.2</ele>
        <time>2023-07-05T14:21:31Z</time>
      </trkpt>
      <trkpt lat="49.28936" lon="-0.38435">
        <ele>30.4</ele>
        <time>2023-07-05T14:21:32Z</time>
      </trkpt>
      <trkpt lat="49.28934" lon="-0.3843">
        <ele>30.5</ele>
        <time>2023-07-05T14:21:33Z</time>
      </trkpt>
      <trkpt lat="49.28933" lon="-0.38425">
        <ele>30.6</ele>
        <time>2023-07-05T14:21:34Z</time>
      </trkpt>
      <trkpt lat="49.28932" lon="-0.38424">
        <ele>30.6</ele>
        <time>2023-07-05T14:21:35Z</time>
      </trkpt>
      <trkpt lat="49.28932" lon="-0.38424">
        <ele>30.6</ele>
        <time>2023-07-05T14:21:36Z</time>
      </trkpt>
      <trkpt lat="49.28933" lon="-0.38424">
        <ele>30.6</ele>
        <time>2023-07-05T14:21:37Z</time>
      </trkpt>
      <trkpt lat="49.28933" lon="-0.38424">
        <ele>30.6</ele>
        <time>2023-07-05T14:21:38Z</time>
      </trkpt>
      <trkpt lat="49.28933" lon="-0.38424">
        <ele>30.7</ele>
        <time>2023-07-05T14:21:39Z</time>
      </trkpt>
      <trkpt lat="49.28933" lon="-0.38424">
        <ele>30.7</ele>
        <time>2023-07-05T14:21:40Z</time>
      </trkpt>
      <trkpt lat="49.28933" lon="-0.38424">
        <ele>30.7</ele>
        <time>2023-07-05T14:21:41Z</time>
      </trkpt>
      <trkpt lat="49.28932" lon="-0.38423">
        <ele>30.7</ele>
        <time>2023-07-05T14:21:42Z</time>
      </trkpt>
      <trkpt lat="49.28931" lon="-0.38422">
        <ele>30.7</ele>
        <time>2023-07-05T14:21:43Z</time>
      </trkpt>
      <trkpt lat="49.2893" lon="-0.3842">
        <ele>30.7</ele>
        <time>2023-07-05T14:21:44Z</time>
      </trkpt>
      <trkpt lat="49.28929" lon="-0.38419">
        <ele>30.8</ele>
        <time>2023-07-05T14:21:45Z</time>
      </trkpt>
      <trkpt lat="49.28928" lon="-0.38417">
        <ele>30.8</ele>
        <time>2023-07-05T14:21:46Z</time>
      </trkpt>
      <trkpt lat="49.28926" lon="-0.38414">
        <ele>30.9</ele>
        <time>2023-07-05T14:21:47Z</time>
      </trkpt>
      <trkpt lat="49.28925" lon="-0.38413">
        <ele>30.9</ele>
        <time>2023-07-05T14:21:48Z</time>
      </trkpt>
      <trkpt lat="49.28922" lon="-0.38409">
        <ele>31</ele>
        <time>2023-07-05T14:21:49Z</time>
      </trkpt>
      <trkpt lat="49.28921" lon="-0.38407">
        <ele>31</ele>
        <time>2023-07-05T14:21:50Z</time>
      </trkpt>
      <trkpt lat="49.28919" lon="-0.38404">
        <ele>31.1</ele>
        <time>2023-07-05T14:21:51Z</time>
      </trkpt>
      <trkpt lat="49.28916" lon="-0.384">
        <ele>31.2</ele>
        <time>2023-07-05T14:21:52Z</time>
      </trkpt>
      <trkpt lat="49.28913" lon="-0.38395">
        <ele>31.3</ele>
        <time>2023-07-05T14:21:53Z</time>
      </trkpt>
      <trkpt lat="49.28909" lon="-0.38389">
        <ele>31.5</ele>
        <time>2023-07-05T14:21:54Z</time>
      </trkpt>
      <trkpt lat="49.28905" lon="-0.38384">
        <ele>31.7</ele>
        <time>2023-07-05T14:21:55Z</time>
      </trkpt>
      <trkpt lat="49.289" lon="-0.38379">
        <ele>31.9</ele>
        <time>2023-07-05T14:21:56Z</time>
      </trkpt>
      <trkpt lat="49.28895" lon="-0.38374">
        <ele>32.1</ele>
        <time>2023-07-05T14:21:57Z</time>
      </trkpt>
      <trkpt lat="49.2889" lon="-0.38368">
        <ele>32.2</ele>
        <time>2023-07-05T14:21:58Z</time>
      </trkpt>
      <trkpt lat="49.28885" lon="-0.38362">
        <ele>32.4</ele>
        <time>2023-07-05T14:21:59Z</time>
      </trkpt>
      <trkpt lat="49.28881" lon="-0.38355">
        <ele>32.5</ele>
        <time>2023-07-05T14:22:00Z</time>
      </trkpt>
      <trkpt lat="49.28877" lon="-0.38348">
        <ele>32.6</ele>
        <time>2023-07-05T14:22:01Z</time>
      </trkpt>
      <trkpt lat="49.28873" lon="-0.38341">
        <ele>32.7</ele>
        <time>2023-07-05T14:22:02Z</time>
      </trkpt>
      <trkpt lat="49.28871" lon="-0.38335">
        <ele>32.9</ele>
        <time>2023-07-05T14:22:03Z</time>
      </trkpt>
      <trkpt lat="49.28868" lon="-0.38328">
        <ele>33</ele>
        <time>2023-07-05T14:22:04Z</time>
      </trkpt>
      <trkpt lat="49.28865" lon="-0.38321">
        <ele>33.1</ele>
        <time>2023-07-05T14:22:05Z</time>
      </trkpt>
      <trkpt lat="49.28862" lon="-0.38315">
        <ele>33.3</ele>
        <time>2023-07-05T14:22:06Z</time>
      </trkpt>
      <trkpt lat="49.28859" lon="-0.38308">
        <ele>33.4</ele>
        <time>2023-07-05T14:22:07Z</time>
      </trkpt>
      <trkpt lat="49.28856" lon="-0.38302">
        <ele>33.5</ele>
        <time>2023-07-05T14:22:08Z</time>
      </trkpt>
      <trkpt lat="49.28853" lon="-0.38295">
        <ele>33.7</ele>
        <time>2023-07-05T14:22:09Z</time>
      </trkpt>
      <trkpt lat="49.28851" lon="-0.38288">
        <ele>33.8</ele>
        <time>2023-07-05T14:22:10Z</time>
      </trkpt>
      <trkpt lat="49.28848" lon="-0.3828">
        <ele>33.9</ele>
        <time>2023-07-05T14:22:11Z</time>
      </trkpt>
      <trkpt lat="49.28845" lon="-0.38273">
        <ele>34.1</ele>
        <time>2023-07-05T14:22:12Z</time>
      </trkpt>
      <trkpt lat="49.28842" lon="-0.38265">
        <ele>34.2</ele>
        <time>2023-07-05T14:22:13Z</time>
      </trkpt>
      <trkpt lat="49.28839" lon="-0.38258">
        <ele>34.4</ele>
        <time>2023-07-05T14:22:14Z</time>
      </trkpt>
      <trkpt lat="49.28836" lon="-0.3825">
        <ele>34.5</ele>
        <time>2023-07-05T14:22:15Z</time>
      </trkpt>
      <trkpt lat="49.28834" lon="-0.38242">
        <ele>34.7</ele>
        <time>2023-07-05T14:22:16Z</time>
      </trkpt>
      <trkpt lat="49.28831" lon="-0.38235">
        <ele>34.8</ele>
        <time>2023-07-05T14:22:17Z</time>
      </trkpt>
      <trkpt lat="49.28828" lon="-0.38227">
        <ele>34.9</ele>
        <time>2023-07-05T14:22:18Z</time>
      </trkpt>
      <trkpt lat="49.28826" lon="-0.3822">
        <ele>35</ele>
        <time>2023-07-05T14:22:19Z</time>
      </trkpt>
      <trkpt lat="49.28823" lon="-0.38212">
        <ele>35.2</ele>
        <time>2023-07-05T14:22:20Z</time>
      </trkpt>
      <trkpt lat="49.2882" lon="-0.38206">
        <ele>35.3</ele>
        <time>2023-07-05T14:22:21Z</time>
      </trkpt>
      <trkpt lat="49.28816" lon="-0.382">
        <ele>35.4</ele>
        <time>2023-07-05T14:22:22Z</time>
      </trkpt>
      <trkpt lat="49.28812" lon="-0.38194">
        <ele>35.5</ele>
        <time>2023-07-05T14:22:23Z</time>
      </trkpt>
      <trkpt lat="49.28808" lon="-0.3819">
        <ele>35.6</ele>
        <time>2023-07-05T14:22:24Z</time>
      </trkpt>
      <trkpt lat="49.28802" lon="-0.38189">
        <ele>35.8</ele>
        <time>2023-07-05T14:22:25Z</time>
      </trkpt>
      <trkpt lat="49.28797" lon="-0.38188">
        <ele>35.9</ele>
        <time>2023-07-05T14:22:26Z</time>
      </trkpt>
      <trkpt lat="49.28791" lon="-0.38188">
        <ele>36.1</ele>
        <time>2023-07-05T14:22:27Z</time>
      </trkpt>
      <trkpt lat="49.28786" lon="-0.38188">
        <ele>36.2</ele>
        <time>2023-07-05T14:22:28Z</time>
      </trkpt>
      <trkpt lat="49.28781" lon="-0.38189">
        <ele>36.4</ele>
        <time>2023-07-05T14:22:29Z</time>
      </trkpt>
      <trkpt lat="49.28776" lon="-0.3819">
        <ele>36.5</ele>
        <time>2023-07-05T14:22:30Z</time>
      </trkpt>
      <trkpt lat="49.2877" lon="-0.38192">
        <ele>36.7</ele>
        <time>2023-07-05T14:22:31Z</time>
      </trkpt>
      <trkpt lat="49.28765" lon="-0.38194">
        <ele>36.9</ele>
        <time>2023-07-05T14:22:32Z</time>
      </trkpt>
      <trkpt lat="49.2876" lon="-0.38195">
        <ele>37</ele>
        <time>2023-07-05T14:22:33Z</time>
      </trkpt>
      <trkpt lat="49.28755" lon="-0.38197">
        <ele>37.2</ele>
        <time>2023-07-05T14:22:34Z</time>
      </trkpt>
      <trkpt lat="49.2875" lon="-0.38197">
        <ele>37.4</ele>
        <time>2023-07-05T14:22:35Z</time>
      </trkpt>
      <trkpt lat="49.28745" lon="-0.38198">
        <ele>37.5</ele>
        <time>2023-07-05T14:22:36Z</time>
      </trkpt>
      <trkpt lat="49.28741" lon="-0.382">
        <ele>37.7</ele>
        <time>2023-07-05T14:22:37Z</time>
      </trkpt>
      <trkpt lat="49.28738" lon="-0.38202">
        <ele>37.9</ele>
        <time>2023-07-05T14:22:38Z</time>
      </trkpt>
      <trkpt lat="49.28734" lon="-0.38204">
        <ele>38</ele>
        <time>2023-07-05T14:22:39Z</time>
      </trkpt>
      <trkpt lat="49.2873" lon="-0.38206">
        <ele>38.2</ele>
        <time>2023-07-05T14:22:40Z</time>
      </trkpt>
      <trkpt lat="49.28724" lon="-0.38206">
        <ele>38.4</ele>
        <time>2023-07-05T14:22:41Z</time>
      </trkpt>
      <trkpt lat="49.28718" lon="-0.38205">
        <ele>38.7</ele>
        <time>2023-07-05T14:22:42Z</time>
      </trkpt>
      <trkpt lat="49.28713" lon="-0.38204">
        <ele>39</ele>
        <time>2023-07-05T14:22:43Z</time>
      </trkpt>
      <trkpt lat="49.28707" lon="-0.38202">
        <ele>39.2</ele>
        <time>2023-07-05T14:22:44Z</time>
      </trkpt>
      <trkpt lat="49.28701" lon="-0.382">
        <ele>39.5</ele>
        <time>2023-07-05T14:22:45Z</time>
      </trkpt>
      <trkpt lat="49.28696" lon="-0.38197">
        <ele>39.8</ele>
        <time>2023-07-05T14:22:46Z</time>
      </trkpt>
      <trkpt lat="49.28691" lon="-0.38194">
        <ele>40</ele>
        <time>2023-07-05T14:22:47Z</time>
      </trkpt>
      <trkpt lat="49.28687" lon="-0.38191">
        <ele>40.2</ele>
        <time>2023-07-05T14:22:48Z</time>
      </trkpt>
      <trkpt lat="49.28683" lon="-0.38188">
        <ele>40.4</ele>
        <time>2023-07-05T14:22:49Z</time>
      </trkpt>
      <trkpt lat="49.28679" lon="-0.38186">
        <ele>40.6</ele>
        <time>2023-07-05T14:22:50Z</time>
      </trkpt>
      <trkpt lat="49.28674" lon="-0.38183">
        <ele>40.9</ele>
        <time>2023-07-05T14:22:51Z</time>
      </trkpt>
      <trkpt lat="49.28669" lon="-0.38181">
        <ele>41.1</ele>
        <time>2023-07-05T14:22:52Z</time>
      </trkpt>
      <trkpt lat="49.28665" lon="-0.38179">
        <ele>41.3</ele>
        <time>2023-07-05T14:22:53Z</time>
      </trkpt>
      <trkpt lat="49.28661" lon="-0.38177">
        <ele>41.5</ele>
        <time>2023-07-05T14:22:54Z</time>
      </trkpt>
      <trkpt lat="49.28657" lon="-0.38176">
        <ele>41.6</ele>
        <time>2023-07-05T14:22:55Z</time>
      </trkpt>
      <trkpt lat="49.28654" lon="-0.38175">
        <ele>41.8</ele>
        <time>2023-07-05T14:22:56Z</time>
      </trkpt>
      <trkpt lat="49.28649" lon="-0.38173">
        <ele>42</ele>
        <time>2023-07-05T14:22:57Z</time>
      </trkpt>
      <trkpt lat="49.28644" lon="-0.38171">
        <ele>42.2</ele>
        <time>2023-07-05T14:22:58Z</time>
      </trkpt>
      <trkpt lat="49.28638" lon="-0.38169">
        <ele>42.4</ele>
        <time>2023-07-05T14:22:59Z</time>
      </trkpt>
      <trkpt lat="49.28632" lon="-0.38167">
        <ele>42.7</ele>
        <time>2023-07-05T14:23:00Z</time>
      </trkpt>
      <trkpt lat="49.28627" lon="-0.38166">
        <ele>42.9</ele>
        <time>2023-07-05T14:23:01Z</time>
      </trkpt>
      <trkpt lat="49.28622" lon="-0.38166">
        <ele>43.1</ele>
        <time>2023-07-05T14:23:02Z</time>
      </trkpt>
      <trkpt lat="49.28617" lon="-0.38166">
        <ele>43.4</ele>
        <time>2023-07-05T14:23:03Z</time>
      </trkpt>
      <trkpt lat="49.28612" lon="-0.38165">
        <ele>43.6</ele>
        <time>2023-07-05T14:23:04Z</time>
      </trkpt>
      <trkpt lat="49.28606" lon="-0.38165">
        <ele>43.9</ele>
        <time>2023-07-05T14:23:05Z</time>
      </trkpt>
      <trkpt lat="49.28601" lon="-0.38165">
        <ele>44.2</ele>
        <time>2023-07-05T14:23:06Z</time>
      </trkpt>
      <trkpt lat="49.28595" lon="-0.38164">
        <ele>44.4</ele>
        <time>2023-07-05T14:23:07Z</time>
      </trkpt>
      <trkpt lat="49.2859" lon="-0.38163">
        <ele>44.7</ele>
        <time>2023-07-05T14:23:08Z</time>
      </trkpt>
      <trkpt lat="49.28586" lon="-0.38162">
        <ele>44.8</ele>
        <time>2023-07-05T14:23:09Z</time>
      </trkpt>
      <trkpt lat="49.28582" lon="-0.3816">
        <ele>45</ele>
        <time>2023-07-05T14:23:10Z</time>
      </trkpt>
      <trkpt lat="49.28577" lon="-0.38157">
        <ele>45.2</ele>
        <time>2023-07-05T14:23:11Z</time>
      </trkpt>
      <trkpt lat="49.28572" lon="-0.38155">
        <ele>45.4</ele>
        <time>2023-07-05T14:23:12Z</time>
      </trkpt>
      <trkpt lat="49.28567" lon="-0.38152">
        <ele>45.7</ele>
        <time>2023-07-05T14:23:13Z</time>
      </trkpt>
      <trkpt lat="49.28563" lon="-0.38149">
        <ele>45.8</ele>
        <time>2023-07-05T14:23:14Z</time>
      </trkpt>
      <trkpt lat="49.28559" lon="-0.38146">
        <ele>46</ele>
        <time>2023-07-05T14:23:15Z</time>
      </trkpt>
      <trkpt lat="49.28555" lon="-0.38143">
        <ele>46.2</ele>
        <time>2023-07-05T14:23:16Z</time>
      </trkpt>
      <trkpt lat="49.28549" lon="-0.3814">
        <ele>46.4</ele>
        <time>2023-07-05T14:23:17Z</time>
      </trkpt>
      <trkpt lat="49.28545" lon="-0.38137">
        <ele>46.6</ele>
        <time>2023-07-05T14:23:18Z</time>
      </trkpt>
      <trkpt lat="49.28539" lon="-0.38133">
        <ele>46.8</ele>
        <time>2023-07-05T14:23:19Z</time>
      </trkpt>
      <trkpt lat="49.28534" lon="-0.38128">
        <ele>47</ele>
        <time>2023-07-05T14:23:20Z</time>
      </trkpt>
      <trkpt lat="49.28529" lon="-0.38124">
        <ele>47.2</ele>
        <time>2023-07-05T14:23:21Z</time>
      </trkpt>
      <trkpt lat="49.28524" lon="-0.3812">
        <ele>47.4</ele>
        <time>2023-07-05T14:23:22Z</time>
      </trkpt>
      <trkpt lat="49.28519" lon="-0.38117">
        <ele>47.6</ele>
        <time>2023-07-05T14:23:23Z</time>
      </trkpt>
      <trkpt lat="49.28514" lon="-0.38114">
        <ele>47.8</ele>
        <time>2023-07-05T14:23:24Z</time>
      </trkpt>
      <trkpt lat="49.2851" lon="-0.38111">
        <ele>47.9</ele>
        <time>2023-07-05T14:23:25Z</time>
      </trkpt>
      <trkpt lat="49.28505" lon="-0.38107">
        <ele>48.1</ele>
        <time>2023-07-05T14:23:26Z</time>
      </trkpt>
      <trkpt lat="49.285" lon="-0.38104">
        <ele>48.3</ele>
        <time>2023-07-05T14:23:27Z</time>
      </trkpt>
      <trkpt lat="49.28495" lon="-0.38101">
        <ele>48.4</ele>
        <time>2023-07-05T14:23:28Z</time>
      </trkpt>
      <trkpt lat="49.2849" lon="-0.38097">
        <ele>48.6</ele>
        <time>2023-07-05T14:23:29Z</time>
      </trkpt>
      <trkpt lat="49.28486" lon="-0.38094">
        <ele>48.7</ele>
        <time>2023-07-05T14:23:30Z</time>
      </trkpt>
      <trkpt lat="49.28481" lon="-0.3809">
        <ele>48.9</ele>
        <time>2023-07-05T14:23:31Z</time>
      </trkpt>
      <trkpt lat="49.28477" lon="-0.38087">
        <ele>49</ele>
        <time>2023-07-05T14:23:32Z</time>
      </trkpt>
      <trkpt lat="49.28473" lon="-0.38084">
        <ele>49.1</ele>
        <time>2023-07-05T14:23:33Z</time>
      </trkpt>
      <trkpt lat="49.28468" lon="-0.38081">
        <ele>49.2</ele>
        <time>2023-07-05T14:23:34Z</time>
      </trkpt>
      <trkpt lat="49.28464" lon="-0.38078">
        <ele>49.4</ele>
        <time>2023-07-05T14:23:35Z</time>
      </trkpt>
      <trkpt lat="49.28459" lon="-0.38075">
        <ele>49.5</ele>
        <time>2023-07-05T14:23:36Z</time>
      </trkpt>
      <trkpt lat="49.28455" lon="-0.38072">
        <ele>49.6</ele>
        <time>2023-07-05T14:23:37Z</time>
      </trkpt>
      <trkpt lat="49.28451" lon="-0.3807">
        <ele>49.7</ele>
        <time>2023-07-05T14:23:38Z</time>
      </trkpt>
      <trkpt lat="49.28447" lon="-0.38067">
        <ele>49.8</ele>
        <time>2023-07-05T14:23:39Z</time>
      </trkpt>
      <trkpt lat="49.28443" lon="-0.38065">
        <ele>50</ele>
        <time>2023-07-05T14:23:40Z</time>
      </trkpt>
      <trkpt lat="49.28439" lon="-0.38062">
        <ele>50.1</ele>
        <time>2023-07-05T14:23:41Z</time>
      </trkpt>
      <trkpt lat="49.28435" lon="-0.38059">
        <ele>50.2</ele>
        <time>2023-07-05T14:23:42Z</time>
      </trkpt>
      <trkpt lat="49.28431" lon="-0.38056">
        <ele>50.3</ele>
        <time>2023-07-05T14:23:43Z</time>
      </trkpt>
      <trkpt lat="49.28427" lon="-0.38053">
        <ele>50.5</ele>
        <time>2023-07-05T14:23:44Z</time>
      </trkpt>
      <trkpt lat="49.28423" lon="-0.38051">
        <ele>50.6</ele>
        <time>2023-07-05T14:23:45Z</time>
      </trkpt>
      <trkpt lat="49.2842" lon="-0.38048">
        <ele>50.8</ele>
        <time>2023-07-05T14:23:46Z</time>
      </trkpt>
      <trkpt lat="49.28416" lon="-0.38046">
        <ele>50.9</ele>
        <time>2023-07-05T14:23:47Z</time>
      </trkpt>
      <trkpt lat="49.28412" lon="-0.38045">
        <ele>51.1</ele>
        <time>2023-07-05T14:23:48Z</time>
      </trkpt>
      <trkpt lat="49.28407" lon="-0.38045">
        <ele>51.1</ele>
        <time>2023-07-05T14:23:49Z</time>
      </trkpt>
      <trkpt lat="49.28403" lon="-0.38046">
        <ele>51.1</ele>
        <time>2023-07-05T14:23:50Z</time>
      </trkpt>
      <trkpt lat="49.28398" lon="-0.38049">
        <ele>51.2</ele>
        <time>2023-07-05T14:23:51Z</time>
      </trkpt>
      <trkpt lat="49.28394" lon="-0.38052">
        <ele>51.3</ele>
        <time>2023-07-05T14:23:52Z</time>
      </trkpt>
      <trkpt lat="49.28389" lon="-0.38054">
        <ele>51.3</ele>
        <time>2023-07-05T14:23:53Z</time>
      </trkpt>
      <trkpt lat="49.28384" lon="-0.38057">
        <ele>51.4</ele>
        <time>2023-07-05T14:23:54Z</time>
      </trkpt>
      <trkpt lat="49.28379" lon="-0.38059">
        <ele>51.5</ele>
        <time>2023-07-05T14:23:55Z</time>
      </trkpt>
      <trkpt lat="49.28375" lon="-0.38062">
        <ele>51.6</ele>
        <time>2023-07-05T14:23:56Z</time>
      </trkpt>
      <trkpt lat="49.2837" lon="-0.38064">
        <ele>51.6</ele>
        <time>2023-07-05T14:23:57Z</time>
      </trkpt>
      <trkpt lat="49.28365" lon="-0.38066">
        <ele>51.7</ele>
        <time>2023-07-05T14:23:58Z</time>
      </trkpt>
      <trkpt lat="49.28361" lon="-0.38068">
        <ele>51.8</ele>
        <time>2023-07-05T14:23:59Z</time>
      </trkpt>
      <trkpt lat="49.28356" lon="-0.38071">
        <ele>51.8</ele>
        <time>2023-07-05T14:24:00Z</time>
      </trkpt>
      <trkpt lat="49.2835" lon="-0.38073">
        <ele>51.8</ele>
        <time>2023-07-05T14:24:01Z</time>
      </trkpt>
      <trkpt lat="49.28344" lon="-0.38075">
        <ele>51.9</ele>
        <time>2023-07-05T14:24:02Z</time>
      </trkpt>
      <trkpt lat="49.28338" lon="-0.38077">
        <ele>52</ele>
        <time>2023-07-05T14:24:03Z</time>
      </trkpt>
      <trkpt lat="49.28332" lon="-0.38079">
        <ele>52</ele>
        <time>2023-07-05T14:24:04Z</time>
      </trkpt>
      <trkpt lat="49.28326" lon="-0.38081">
        <ele>52</ele>
        <time>2023-07-05T14:24:05Z</time>
      </trkpt>
      <trkpt lat="49.28319" lon="-0.38083">
        <ele>52</ele>
        <time>2023-07-05T14:24:06Z</time>
      </trkpt>
      <trkpt lat="49.28313" lon="-0.38085">
        <ele>52</ele>
        <time>2023-07-05T14:24:07Z</time>
      </trkpt>
      <trkpt lat="49.28307" lon="-0.38086">
        <ele>52</ele>
        <time>2023-07-05T14:24:08Z</time>
      </trkpt>
      <trkpt lat="49.28301" lon="-0.38087">
        <ele>52</ele>
        <time>2023-07-05T14:24:09Z</time>
      </trkpt>
      <trkpt lat="49.28296" lon="-0.38087">
        <ele>52</ele>
        <time>2023-07-05T14:24:10Z</time>
      </trkpt>
      <trkpt lat="49.28291" lon="-0.38088">
        <ele>52</ele>
        <time>2023-07-05T14:24:11Z</time>
      </trkpt>
      <trkpt lat="49.28285" lon="-0.38088">
        <ele>52</ele>
        <time>2023-07-05T14:24:12Z</time>
      </trkpt>
      <trkpt lat="49.2828" lon="-0.38088">
        <ele>52</ele>
        <time>2023-07-05T14:24:13Z</time>
      </trkpt>
      <trkpt lat="49.28275" lon="-0.38088">
        <ele>52</ele>
        <time>2023-07-05T14:24:14Z</time>
      </trkpt>
      <trkpt lat="49.28269" lon="-0.38088">
        <ele>52</ele>
        <time>2023-07-05T14:24:15Z</time>
      </trkpt>
      <trkpt lat="49.28264" lon="-0.38088">
        <ele>52</ele>
        <time>2023-07-05T14:24:16Z</time>
      </trkpt>
      <trkpt lat="49.28258" lon="-0.38087">
        <ele>52</ele>
        <time>2023-07-05T14:24:17Z</time>
      </trkpt>
      <trkpt lat="49.28253" lon="-0.38087">
        <ele>52</ele>
        <time>2023-07-05T14:24:18Z</time>
      </trkpt>
      <trkpt lat="49.28248" lon="-0.38086">
        <ele>52</ele>
        <time>2023-07-05T14:24:19Z</time>
      </trkpt>
      <trkpt lat="49.28243" lon="-0.38084">
        <ele>52</ele>
        <time>2023-07-05T14:24:20Z</time>
      </trkpt>
      <trkpt lat="49.28238" lon="-0.38082">
        <ele>52</ele>
        <time>2023-07-05T14:24:21Z</time>
      </trkpt>
      <trkpt lat="49.28232" lon="-0.3808">
        <ele>52</ele>
        <time>2023-07-05T14:24:22Z</time>
      </trkpt>
      <trkpt lat="49.28226" lon="-0.38079">
        <ele>51.9</ele>
        <time>2023-07-05T14:24:23Z</time>
      </trkpt>
      <trkpt lat="49.28219" lon="-0.38079">
        <ele>51.9</ele>
        <time>2023-07-05T14:24:24Z</time>
      </trkpt>
      <trkpt lat="49.28212" lon="-0.38077">
        <ele>51.9</ele>
        <time>2023-07-05T14:24:25Z</time>
      </trkpt>
      <trkpt lat="49.28205" lon="-0.38075">
        <ele>51.8</ele>
        <time>2023-07-05T14:24:26Z</time>
      </trkpt>
      <trkpt lat="49.28199" lon="-0.38073">
        <ele>51.8</ele>
        <time>2023-07-05T14:24:27Z</time>
      </trkpt>
      <trkpt lat="49.28192" lon="-0.38071">
        <ele>51.8</ele>
        <time>2023-07-05T14:24:28Z</time>
      </trkpt>
      <trkpt lat="49.28185" lon="-0.38069">
        <ele>51.8</ele>
        <time>2023-07-05T14:24:29Z</time>
      </trkpt>
      <trkpt lat="49.28178" lon="-0.38068">
        <ele>51.8</ele>
        <time>2023-07-05T14:24:30Z</time>
      </trkpt>
      <trkpt lat="49.28172" lon="-0.38066">
        <ele>51.7</ele>
        <time>2023-07-05T14:24:31Z</time>
      </trkpt>
      <trkpt lat="49.28166" lon="-0.38065">
        <ele>51.7</ele>
        <time>2023-07-05T14:24:32Z</time>
      </trkpt>
      <trkpt lat="49.2816" lon="-0.38063">
        <ele>51.7</ele>
        <time>2023-07-05T14:24:33Z</time>
      </trkpt>
      <trkpt lat="49.28153" lon="-0.38062">
        <ele>51.7</ele>
        <time>2023-07-05T14:24:34Z</time>
      </trkpt>
      <trkpt lat="49.28147" lon="-0.3806">
        <ele>51.7</ele>
        <time>2023-07-05T14:24:35Z</time>
      </trkpt>
      <trkpt lat="49.2814" lon="-0.38059">
        <ele>51.6</ele>
        <time>2023-07-05T14:24:36Z</time>
      </trkpt>
      <trkpt lat="49.28133" lon="-0.38057">
        <ele>51.6</ele>
        <time>2023-07-05T14:24:37Z</time>
      </trkpt>
      <trkpt lat="49.28126" lon="-0.38056">
        <ele>51.6</ele>
        <time>2023-07-05T14:24:38Z</time>
      </trkpt>
      <trkpt lat="49.28119" lon="-0.38054">
        <ele>51.6</ele>
        <time>2023-07-05T14:24:39Z</time>
      </trkpt>
      <trkpt lat="49.28112" lon="-0.38053">
        <ele>51.6</ele>
        <time>2023-07-05T14:24:40Z</time>
      </trkpt>
      <trkpt lat="49.28106" lon="-0.38051">
        <ele>51.6</ele>
        <time>2023-07-05T14:24:41Z</time>
      </trkpt>
      <trkpt lat="49.28099" lon="-0.38049">
        <ele>51.6</ele>
        <time>2023-07-05T14:24:42Z</time>
      </trkpt>
      <trkpt lat="49.28092" lon="-0.38046">
        <ele>51.6</ele>
        <time>2023-07-05T14:24:43Z</time>
      </trkpt>
      <trkpt lat="49.28085" lon="-0.38044">
        <ele>51.6</ele>
        <time>2023-07-05T14:24:44Z</time>
      </trkpt>
      <trkpt lat="49.28078" lon="-0.38042">
        <ele>51.6</ele>
        <time>2023-07-05T14:24:45Z</time>
      </trkpt>
      <trkpt lat="49.28071" lon="-0.3804">
        <ele>51.5</ele>
        <time>2023-07-05T14:24:46Z</time>
      </trkpt>
      <trkpt lat="49.28064" lon="-0.38038">
        <ele>51.5</ele>
        <time>2023-07-05T14:24:47Z</time>
      </trkpt>
      <trkpt lat="49.28057" lon="-0.38036">
        <ele>51.5</ele>
        <time>2023-07-05T14:24:48Z</time>
      </trkpt>
      <trkpt lat="49.2805" lon="-0.38034">
        <ele>51.5</ele>
        <time>2023-07-05T14:24:49Z</time>
      </trkpt>
      <trkpt lat="49.28043" lon="-0.38033">
        <ele>51.5</ele>
        <time>2023-07-05T14:24:50Z</time>
      </trkpt>
      <trkpt lat="49.28036" lon="-0.38031">
        <ele>51.5</ele>
        <time>2023-07-05T14:24:51Z</time>
      </trkpt>
      <trkpt lat="49.28028" lon="-0.38028">
        <ele>51.5</ele>
        <time>2023-07-05T14:24:52Z</time>
      </trkpt>
      <trkpt lat="49.2802" lon="-0.38025">
        <ele>51.5</ele>
        <time>2023-07-05T14:24:53Z</time>
      </trkpt>
      <trkpt lat="49.28013" lon="-0.38023">
        <ele>51.5</ele>
        <time>2023-07-05T14:24:54Z</time>
      </trkpt>
      <trkpt lat="49.28005" lon="-0.3802">
        <ele>51.5</ele>
        <time>2023-07-05T14:24:55Z</time>
      </trkpt>
      <trkpt lat="49.27998" lon="-0.38018">
        <ele>51.5</ele>
        <time>2023-07-05T14:24:56Z</time>
      </trkpt>
      <trkpt lat="49.27991" lon="-0.38016">
        <ele>51.5</ele>
        <time>2023-07-05T14:24:57Z</time>
      </trkpt>
      <trkpt lat="49.27984" lon="-0.38014">
        <ele>51.5</ele>
        <time>2023-07-05T14:24:58Z</time>
      </trkpt>
      <trkpt lat="49.27977" lon="-0.38013">
        <ele>51.5</ele>
        <time>2023-07-05T14:24:59Z</time>
      </trkpt>
      <trkpt lat="49.27971" lon="-0.38011">
        <ele>51.5</ele>
        <time>2023-07-05T14:25:00Z</time>
      </trkpt>
      <trkpt lat="49.27964" lon="-0.38009">
        <ele>51.5</ele>
        <time>2023-07-05T14:25:01Z</time>
      </trkpt>
      <trkpt lat="49.27957" lon="-0.38007">
        <ele>51.5</ele>
        <time>2023-07-05T14:25:02Z</time>
      </trkpt>
      <trkpt lat="49.2795" lon="-0.38004">
        <ele>51.5</ele>
        <time>2023-07-05T14:25:03Z</time>
      </trkpt>
      <trkpt lat="49.27942" lon="-0.38001">
        <ele>51.5</ele>
        <time>2023-07-05T14:25:04Z</time>
      </trkpt>
      <trkpt lat="49.27934" lon="-0.37999">
        <ele>51.4</ele>
        <time>2023-07-05T14:25:05Z</time>
      </trkpt>
      <trkpt lat="49.27926" lon="-0.37996">
        <ele>51.4</ele>
        <time>2023-07-05T14:25:06Z</time>
      </trkpt>
      <trkpt lat="49.27919" lon="-0.37994">
        <ele>51.4</ele>
        <time>2023-07-05T14:25:07Z</time>
      </trkpt>
      <trkpt lat="49.27911" lon="-0.37992">
        <ele>51.4</ele>
        <time>2023-07-05T14:25:08Z</time>
      </trkpt>
      <trkpt lat="49.27904" lon="-0.37989">
        <ele>51.4</ele>
        <time>2023-07-05T14:25:09Z</time>
      </trkpt>
      <trkpt lat="49.27897" lon="-0.37987">
        <ele>51.4</ele>
        <time>2023-07-05T14:25:10Z</time>
      </trkpt>
      <trkpt lat="49.27889" lon="-0.37985">
        <ele>51.4</ele>
        <time>2023-07-05T14:25:11Z</time>
      </trkpt>
      <trkpt lat="49.27882" lon="-0.37983">
        <ele>51.3</ele>
        <time>2023-07-05T14:25:12Z</time>
      </trkpt>
      <trkpt lat="49.27875" lon="-0.3798">
        <ele>51.3</ele>
        <time>2023-07-05T14:25:13Z</time>
      </trkpt>
      <trkpt lat="49.27867" lon="-0.37978">
        <ele>51.3</ele>
        <time>2023-07-05T14:25:14Z</time>
      </trkpt>
      <trkpt lat="49.27859" lon="-0.37975">
        <ele>51.2</ele>
        <time>2023-07-05T14:25:15Z</time>
      </trkpt>
      <trkpt lat="49.27852" lon="-0.37973">
        <ele>51.2</ele>
        <time>2023-07-05T14:25:16Z</time>
      </trkpt>
      <trkpt lat="49.27844" lon="-0.37971">
        <ele>51.2</ele>
        <time>2023-07-05T14:25:17Z</time>
      </trkpt>
      <trkpt lat="49.27836" lon="-0.3797">
        <ele>51.1</ele>
        <time>2023-07-05T14:25:18Z</time>
      </trkpt>
      <trkpt lat="49.27828" lon="-0.37969">
        <ele>51.1</ele>
        <time>2023-07-05T14:25:19Z</time>
      </trkpt>
      <trkpt lat="49.27821" lon="-0.37967">
        <ele>51</ele>
        <time>2023-07-05T14:25:20Z</time>
      </trkpt>
      <trkpt lat="49.27813" lon="-0.37966">
        <ele>51</ele>
        <time>2023-07-05T14:25:21Z</time>
      </trkpt>
      <trkpt lat="49.27805" lon="-0.37963">
        <ele>50.9</ele>
        <time>2023-07-05T14:25:22Z</time>
      </trkpt>
      <trkpt lat="49.27798" lon="-0.37962">
        <ele>50.9</ele>
        <time>2023-07-05T14:25:23Z</time>
      </trkpt>
      <trkpt lat="49.2779" lon="-0.3796">
        <ele>50.8</ele>
        <time>2023-07-05T14:25:24Z</time>
      </trkpt>
      <trkpt lat="49.27782" lon="-0.37958">
        <ele>50.6</ele>
        <time>2023-07-05T14:25:25Z</time>
      </trkpt>
      <trkpt lat="49.27774" lon="-0.37957">
        <ele>50.5</ele>
        <time>2023-07-05T14:25:26Z</time>
      </trkpt>
      <trkpt lat="49.27766" lon="-0.37956">
        <ele>50.4</ele>
        <time>2023-07-05T14:25:27Z</time>
      </trkpt>
      <trkpt lat="49.27759" lon="-0.37954">
        <ele>50.3</ele>
        <time>2023-07-05T14:25:28Z</time>
      </trkpt>
      <trkpt lat="49.27751" lon="-0.37953">
        <ele>50.1</ele>
        <time>2023-07-05T14:25:29Z</time>
      </trkpt>
      <trkpt lat="49.27743" lon="-0.37952">
        <ele>50</ele>
        <time>2023-07-05T14:25:30Z</time>
      </trkpt>
      <trkpt lat="49.27735" lon="-0.3795">
        <ele>49.8</ele>
        <time>2023-07-05T14:25:31Z</time>
      </trkpt>
      <trkpt lat="49.27726" lon="-0.37947">
        <ele>49.6</ele>
        <time>2023-07-05T14:25:32Z</time>
      </trkpt>
      <trkpt lat="49.27718" lon="-0.37945">
        <ele>49.5</ele>
        <time>2023-07-05T14:25:33Z</time>
      </trkpt>
      <trkpt lat="49.2771" lon="-0.37943">
        <ele>49.4</ele>
        <time>2023-07-05T14:25:34Z</time>
      </trkpt>
      <trkpt lat="49.27702" lon="-0.3794">
        <ele>49.2</ele>
        <time>2023-07-05T14:25:35Z</time>
      </trkpt>
      <trkpt lat="49.27694" lon="-0.37937">
        <ele>49.1</ele>
        <time>2023-07-05T14:25:36Z</time>
      </trkpt>
      <trkpt lat="49.27686" lon="-0.37935">
        <ele>49</ele>
        <time>2023-07-05T14:25:37Z</time>
      </trkpt>
      <trkpt lat="49.27678" lon="-0.37932">
        <ele>48.8</ele>
        <time>2023-07-05T14:25:38Z</time>
      </trkpt>
      <trkpt lat="49.2767" lon="-0.37929">
        <ele>48.7</ele>
        <time>2023-07-05T14:25:39Z</time>
      </trkpt>
      <trkpt lat="49.27662" lon="-0.37927">
        <ele>48.5</ele>
        <time>2023-07-05T14:25:40Z</time>
      </trkpt>
      <trkpt lat="49.27656" lon="-0.37924">
        <ele>48.4</ele>
        <time>2023-07-05T14:25:41Z</time>
      </trkpt>
      <trkpt lat="49.27649" lon="-0.37922">
        <ele>48.3</ele>
        <time>2023-07-05T14:25:42Z</time>
      </trkpt>
      <trkpt lat="49.27643" lon="-0.37919">
        <ele>48.3</ele>
        <time>2023-07-05T14:25:43Z</time>
      </trkpt>
      <trkpt lat="49.27636" lon="-0.37917">
        <ele>48.2</ele>
        <time>2023-07-05T14:25:44Z</time>
      </trkpt>
      <trkpt lat="49.2763" lon="-0.37915">
        <ele>48.1</ele>
        <time>2023-07-05T14:25:45Z</time>
      </trkpt>
      <trkpt lat="49.27623" lon="-0.37914">
        <ele>48.1</ele>
        <time>2023-07-05T14:25:46Z</time>
      </trkpt>
      <trkpt lat="49.27616" lon="-0.37912">
        <ele>48</ele>
        <time>2023-07-05T14:25:47Z</time>
      </trkpt>
      <trkpt lat="49.27609" lon="-0.3791">
        <ele>47.9</ele>
        <time>2023-07-05T14:25:48Z</time>
      </trkpt>
      <trkpt lat="49.27602" lon="-0.3791">
        <ele>47.9</ele>
        <time>2023-07-05T14:25:49Z</time>
      </trkpt>
      <trkpt lat="49.27595" lon="-0.3791">
        <ele>47.9</ele>
        <time>2023-07-05T14:25:50Z</time>
      </trkpt>
      <trkpt lat="49.27588" lon="-0.3791">
        <ele>47.9</ele>
        <time>2023-07-05T14:25:51Z</time>
      </trkpt>
      <trkpt lat="49.27581" lon="-0.3791">
        <ele>48</ele>
        <time>2023-07-05T14:25:52Z</time>
      </trkpt>
      <trkpt lat="49.27574" lon="-0.37911">
        <ele>48.2</ele>
        <time>2023-07-05T14:25:53Z</time>
      </trkpt>
      <trkpt lat="49.27568" lon="-0.37913">
        <ele>48.4</ele>
        <time>2023-07-05T14:25:54Z</time>
      </trkpt>
      <trkpt lat="49.27562" lon="-0.37917">
        <ele>48.4</ele>
        <time>2023-07-05T14:25:55Z</time>
      </trkpt>
      <trkpt lat="49.27556" lon="-0.37924">
        <ele>48.3</ele>
        <time>2023-07-05T14:25:56Z</time>
      </trkpt>
      <trkpt lat="49.27552" lon="-0.37931">
        <ele>48.2</ele>
        <time>2023-07-05T14:25:57Z</time>
      </trkpt>
      <trkpt lat="49.27547" lon="-0.37937">
        <ele>48.1</ele>
        <time>2023-07-05T14:25:58Z</time>
      </trkpt>
      <trkpt lat="49.27543" lon="-0.37942">
        <ele>48</ele>
        <time>2023-07-05T14:25:59Z</time>
      </trkpt>
      <trkpt lat="49.27538" lon="-0.37945">
        <ele>47.9</ele>
        <time>2023-07-05T14:26:00Z</time>
      </trkpt>
      <trkpt lat="49.27533" lon="-0.37945">
        <ele>47.8</ele>
        <time>2023-07-05T14:26:01Z</time>
      </trkpt>
      <trkpt lat="49.27528" lon="-0.37945">
        <ele>47.7</ele>
        <time>2023-07-05T14:26:02Z</time>
      </trkpt>
      <trkpt lat="49.27523" lon="-0.37944">
        <ele>47.5</ele>
        <time>2023-07-05T14:26:03Z</time>
      </trkpt>
      <trkpt lat="49.27518" lon="-0.37944">
        <ele>47.4</ele>
        <time>2023-07-05T14:26:04Z</time>
      </trkpt>
      <trkpt lat="49.27514" lon="-0.37944">
        <ele>47.2</ele>
        <time>2023-07-05T14:26:05Z</time>
      </trkpt>
      <trkpt lat="49.2751" lon="-0.37943">
        <ele>47.1</ele>
        <time>2023-07-05T14:26:06Z</time>
      </trkpt>
      <trkpt lat="49.27507" lon="-0.37942">
        <ele>47.2</ele>
        <time>2023-07-05T14:26:07Z</time>
      </trkpt>
      <trkpt lat="49.27503" lon="-0.37938">
        <ele>47.2</ele>
        <time>2023-07-05T14:26:08Z</time>
      </trkpt>
      <trkpt lat="49.27501" lon="-0.37934">
        <ele>47.2</ele>
        <time>2023-07-05T14:26:09Z</time>
      </trkpt>
      <trkpt lat="49.27501" lon="-0.37931">
        <ele>47.2</ele>
        <time>2023-07-05T14:26:10Z</time>
      </trkpt>
      <trkpt lat="49.27501" lon="-0.3793">
        <ele>47.2</ele>
        <time>2023-07-05T14:26:11Z</time>
      </trkpt>
      <trkpt lat="49.27501" lon="-0.3793">
        <ele>47.2</ele>
        <time>2023-07-05T14:26:12Z</time>
      </trkpt>
      <trkpt lat="49.27501" lon="-0.3793">
        <ele>47.2</ele>
        <time>2023-07-05T14:26:13Z</time>
      </trkpt>
      <trkpt lat="49.27502" lon="-0.3793">
        <ele>47.2</ele>
        <time>2023-07-05T14:26:14Z</time>
      </trkpt>
      <trkpt lat="49.27502" lon="-0.3793">
        <ele>47.2</ele>
        <time>2023-07-05T14:26:15Z</time>
      </trkpt>
      <trkpt lat="49.27502" lon="-0.3793">
        <ele>47.2</ele>
        <time>2023-07-05T14:26:16Z</time>
      </trkpt>
      <trkpt lat="49.27502" lon="-0.3793">
        <ele>47.2</ele>
        <time>2023-07-05T14:26:17Z</time>
      </trkpt>
      <trkpt lat="49.27502" lon="-0.3793">
        <ele>47.2</ele>
        <time>2023-07-05T14:26:18Z</time>
      </trkpt>
      <trkpt lat="49.27502" lon="-0.3793">
        <ele>47.2</ele>
        <time>2023-07-05T14:26:19Z</time>
      </trkpt>
      <trkpt lat="49.27502" lon="-0.3793">
        <ele>47.2</ele>
        <time>2023-07-05T14:26:20Z</time>
      </trkpt>
      <trkpt lat="49.27502" lon="-0.3793">
        <ele>47.2</ele>
        <time>2023-07-05T14:26:21Z</time>
      </trkpt>
      <trkpt lat="49.27502" lon="-0.3793">
        <ele>47.2</ele>
        <time>2023-07-05T14:26:22Z</time>
      </trkpt>
      <trkpt lat="49.27503" lon="-0.37937">
        <ele>47.2</ele>
        <time>2023-07-05T14:26:30Z</time>
      </trkpt>
      <trkpt lat="49.27505" lon="-0.37941">
        <ele>47.2</ele>
        <time>2023-07-05T14:26:31Z</time>
      </trkpt>
      <trkpt lat="49.27507" lon="-0.37944">
        <ele>47.2</ele>
        <time>2023-07-05T14:26:32Z</time>
      </trkpt>
      <trkpt lat="49.27511" lon="-0.37945">
        <ele>47.2</ele>
        <time>2023-07-05T14:26:33Z</time>
      </trkpt>
      <trkpt lat="49.27512" lon="-0.37945">
        <ele>47.2</ele>
        <time>2023-07-05T14:26:34Z</time>
      </trkpt>
      <trkpt lat="49.27514" lon="-0.37943">
        <ele>47.2</ele>
        <time>2023-07-05T14:26:35Z</time>
      </trkpt>
      <trkpt lat="49.27516" lon="-0.37939">
        <ele>47.2</ele>
        <time>2023-07-05T14:26:36Z</time>
      </trkpt>
      <trkpt lat="49.27516" lon="-0.37938">
        <ele>47.2</ele>
        <time>2023-07-05T14:26:37Z</time>
      </trkpt>
      <trkpt lat="49.27515" lon="-0.37933">
        <ele>47.3</ele>
        <time>2023-07-05T14:26:38Z</time>
      </trkpt>
      <trkpt lat="49.27515" lon="-0.37931">
        <ele>47.3</ele>
        <time>2023-07-05T14:26:39Z</time>
      </trkpt>
      <trkpt lat="49.27513" lon="-0.37927">
        <ele>47.3</ele>
        <time>2023-07-05T14:26:40Z</time>
      </trkpt>
      <trkpt lat="49.27512" lon="-0.37926">
        <ele>47.3</ele>
        <time>2023-07-05T14:26:41Z</time>
      </trkpt>
      <trkpt lat="49.2751" lon="-0.37922">
        <ele>47.3</ele>
        <time>2023-07-05T14:26:42Z</time>
      </trkpt>
      <trkpt lat="49.27508" lon="-0.37919">
        <ele>47.3</ele>
        <time>2023-07-05T14:26:43Z</time>
      </trkpt>
      <trkpt lat="49.27506" lon="-0.37916">
        <ele>47.2</ele>
        <time>2023-07-05T14:26:44Z</time>
      </trkpt>
      <trkpt lat="49.27503" lon="-0.37911">
        <ele>47.2</ele>
        <time>2023-07-05T14:26:45Z</time>
      </trkpt>
      <trkpt lat="49.27501" lon="-0.37906">
        <ele>47.2</ele>
        <time>2023-07-05T14:26:46Z</time>
      </trkpt>
      <trkpt lat="49.27498" lon="-0.379">
        <ele>47.2</ele>
        <time>2023-07-05T14:26:47Z</time>
      </trkpt>
      <trkpt lat="49.27496" lon="-0.37893">
        <ele>47.1</ele>
        <time>2023-07-05T14:26:48Z</time>
      </trkpt>
      <trkpt lat="49.27495" lon="-0.37885">
        <ele>47.1</ele>
        <time>2023-07-05T14:26:49Z</time>
      </trkpt>
      <trkpt lat="49.27494" lon="-0.37878">
        <ele>47.1</ele>
        <time>2023-07-05T14:26:50Z</time>
      </trkpt>
      <trkpt lat="49.27494" lon="-0.37871">
        <ele>47.1</ele>
        <time>2023-07-05T14:26:51Z</time>
      </trkpt>
      <trkpt lat="49.27494" lon="-0.37864">
        <ele>47.1</ele>
        <time>2023-07-05T14:26:52Z</time>
      </trkpt>
      <trkpt lat="49.27495" lon="-0.37858">
        <ele>47.1</ele>
        <time>2023-07-05T14:26:53Z</time>
      </trkpt>
      <trkpt lat="49.27497" lon="-0.37851">
        <ele>47</ele>
        <time>2023-07-05T14:26:54Z</time>
      </trkpt>
      <trkpt lat="49.27499" lon="-0.37844">
        <ele>47.1</ele>
        <time>2023-07-05T14:26:55Z</time>
      </trkpt>
      <trkpt lat="49.27502" lon="-0.37838">
        <ele>47.1</ele>
        <time>2023-07-05T14:26:56Z</time>
      </trkpt>
      <trkpt lat="49.27504" lon="-0.37831">
        <ele>47.1</ele>
        <time>2023-07-05T14:26:57Z</time>
      </trkpt>
      <trkpt lat="49.27507" lon="-0.37825">
        <ele>47.2</ele>
        <time>2023-07-05T14:26:58Z</time>
      </trkpt>
      <trkpt lat="49.27507" lon="-0.37819">
        <ele>47.2</ele>
        <time>2023-07-05T14:26:59Z</time>
      </trkpt>
      <trkpt lat="49.27507" lon="-0.37813">
        <ele>47.2</ele>
        <time>2023-07-05T14:27:00Z</time>
      </trkpt>
      <trkpt lat="49.27506" lon="-0.37808">
        <ele>47.3</ele>
        <time>2023-07-05T14:27:01Z</time>
      </trkpt>
      <trkpt lat="49.27504" lon="-0.37803">
        <ele>47.3</ele>
        <time>2023-07-05T14:27:02Z</time>
      </trkpt>
      <trkpt lat="49.27504" lon="-0.37802">
        <ele>47.3</ele>
        <time>2023-07-05T14:27:03Z</time>
      </trkpt>
      <trkpt lat="49.27503" lon="-0.378">
        <ele>47.3</ele>
        <time>2023-07-05T14:27:04Z</time>
      </trkpt>
      <trkpt lat="49.27502" lon="-0.37798">
        <ele>47.4</ele>
        <time>2023-07-05T14:27:05Z</time>
      </trkpt>
      <trkpt lat="49.27501" lon="-0.37797">
        <ele>47.4</ele>
        <time>2023-07-05T14:27:06Z</time>
      </trkpt>
      <trkpt lat="49.275" lon="-0.37797">
        <ele>47.4</ele>
        <time>2023-07-05T14:27:07Z</time>
      </trkpt>
      <trkpt lat="49.27499" lon="-0.37797">
        <ele>47.4</ele>
        <time>2023-07-05T14:27:08Z</time>
      </trkpt>
      <trkpt lat="49.27499" lon="-0.37797">
        <ele>47.4</ele>
        <time>2023-07-05T14:27:09Z</time>
      </trkpt>
      <trkpt lat="49.27498" lon="-0.37797">
        <ele>47.4</ele>
        <time>2023-07-05T14:27:10Z</time>
      </trkpt>
      <trkpt lat="49.27495" lon="-0.378">
        <ele>47.3</ele>
        <time>2023-07-05T14:27:11Z</time>
      </trkpt>
      <trkpt lat="49.27494" lon="-0.37801">
        <ele>47.3</ele>
        <time>2023-07-05T14:27:12Z</time>
      </trkpt>
      <trkpt lat="49.27492" lon="-0.37804">
        <ele>47.3</ele>
        <time>2023-07-05T14:27:13Z</time>
      </trkpt>
      <trkpt lat="49.2749" lon="-0.37809">
        <ele>47.2</ele>
        <time>2023-07-05T14:27:14Z</time>
      </trkpt>
      <trkpt lat="49.27489" lon="-0.37814">
        <ele>47.1</ele>
        <time>2023-07-05T14:27:15Z</time>
      </trkpt>
      <trkpt lat="49.27488" lon="-0.37821">
        <ele>46.9</ele>
        <time>2023-07-05T14:27:16Z</time>
      </trkpt>
      <trkpt lat="49.27486" lon="-0.37828">
        <ele>46.8</ele>
        <time>2023-07-05T14:27:17Z</time>
      </trkpt>
      <trkpt lat="49.27483" lon="-0.37833">
        <ele>46.6</ele>
        <time>2023-07-05T14:27:18Z</time>
      </trkpt>
      <trkpt lat="49.27478" lon="-0.37835">
        <ele>46.5</ele>
        <time>2023-07-05T14:27:19Z</time>
      </trkpt>
      <trkpt lat="49.27473" lon="-0.37835">
        <ele>46.3</ele>
        <time>2023-07-05T14:27:20Z</time>
      </trkpt>
      <trkpt lat="49.27467" lon="-0.37835">
        <ele>46.1</ele>
        <time>2023-07-05T14:27:21Z</time>
      </trkpt>
      <trkpt lat="49.27461" lon="-0.37834">
        <ele>45.9</ele>
        <time>2023-07-05T14:27:22Z</time>
      </trkpt>
      <trkpt lat="49.27455" lon="-0.37832">
        <ele>45.8</ele>
        <time>2023-07-05T14:27:23Z</time>
      </trkpt>
      <trkpt lat="49.27449" lon="-0.3783">
        <ele>45.7</ele>
        <time>2023-07-05T14:27:24Z</time>
      </trkpt>
      <trkpt lat="49.27442" lon="-0.37828">
        <ele>45.6</ele>
        <time>2023-07-05T14:27:25Z</time>
      </trkpt>
      <trkpt lat="49.27436" lon="-0.37826">
        <ele>45.5</ele>
        <time>2023-07-05T14:27:26Z</time>
      </trkpt>
      <trkpt lat="49.2743" lon="-0.37824">
        <ele>45.4</ele>
        <time>2023-07-05T14:27:27Z</time>
      </trkpt>
      <trkpt lat="49.27424" lon="-0.37822">
        <ele>45.4</ele>
        <time>2023-07-05T14:27:28Z</time>
      </trkpt>
      <trkpt lat="49.27417" lon="-0.37819">
        <ele>45.3</ele>
        <time>2023-07-05T14:27:29Z</time>
      </trkpt>
      <trkpt lat="49.2741" lon="-0.37817">
        <ele>45.3</ele>
        <time>2023-07-05T14:27:30Z</time>
      </trkpt>
      <trkpt lat="49.27404" lon="-0.37814">
        <ele>45.3</ele>
        <time>2023-07-05T14:27:31Z</time>
      </trkpt>
      <trkpt lat="49.27398" lon="-0.37812">
        <ele>45.3</ele>
        <time>2023-07-05T14:27:32Z</time>
      </trkpt>
      <trkpt lat="49.27391" lon="-0.37811">
        <ele>45.3</ele>
        <time>2023-07-05T14:27:33Z</time>
      </trkpt>
      <trkpt lat="49.27384" lon="-0.3781">
        <ele>45.3</ele>
        <time>2023-07-05T14:27:34Z</time>
      </trkpt>
      <trkpt lat="49.27378" lon="-0.37808">
        <ele>45.3</ele>
        <time>2023-07-05T14:27:35Z</time>
      </trkpt>
      <trkpt lat="49.27371" lon="-0.37806">
        <ele>45.3</ele>
        <time>2023-07-05T14:27:36Z</time>
      </trkpt>
      <trkpt lat="49.27364" lon="-0.37805">
        <ele>45.3</ele>
        <time>2023-07-05T14:27:37Z</time>
      </trkpt>
      <trkpt lat="49.27357" lon="-0.37803">
        <ele>45.4</ele>
        <time>2023-07-05T14:27:38Z</time>
      </trkpt>
      <trkpt lat="49.2735" lon="-0.37801">
        <ele>45.4</ele>
        <time>2023-07-05T14:27:39Z</time>
      </trkpt>
      <trkpt lat="49.27344" lon="-0.378">
        <ele>45.5</ele>
        <time>2023-07-05T14:27:40Z</time>
      </trkpt>
      <trkpt lat="49.27337" lon="-0.37798">
        <ele>45.5</ele>
        <time>2023-07-05T14:27:41Z</time>
      </trkpt>
      <trkpt lat="49.27331" lon="-0.37796">
        <ele>45.6</ele>
        <time>2023-07-05T14:27:42Z</time>
      </trkpt>
      <trkpt lat="49.27324" lon="-0.37795">
        <ele>45.6</ele>
        <time>2023-07-05T14:27:43Z</time>
      </trkpt>
      <trkpt lat="49.27317" lon="-0.37793">
        <ele>45.7</ele>
        <time>2023-07-05T14:27:44Z</time>
      </trkpt>
      <trkpt lat="49.2731" lon="-0.37792">
        <ele>45.7</ele>
        <time>2023-07-05T14:27:45Z</time>
      </trkpt>
      <trkpt lat="49.27303" lon="-0.3779">
        <ele>45.8</ele>
        <time>2023-07-05T14:27:46Z</time>
      </trkpt>
      <trkpt lat="49.27296" lon="-0.37789">
        <ele>45.8</ele>
        <time>2023-07-05T14:27:47Z</time>
      </trkpt>
      <trkpt lat="49.27289" lon="-0.37787">
        <ele>45.9</ele>
        <time>2023-07-05T14:27:48Z</time>
      </trkpt>
      <trkpt lat="49.27282" lon="-0.37786">
        <ele>45.9</ele>
        <time>2023-07-05T14:27:49Z</time>
      </trkpt>
      <trkpt lat="49.27276" lon="-0.37784">
        <ele>46</ele>
        <time>2023-07-05T14:27:50Z</time>
      </trkpt>
      <trkpt lat="49.27269" lon="-0.37783">
        <ele>46</ele>
        <time>2023-07-05T14:27:51Z</time>
      </trkpt>
      <trkpt lat="49.27262" lon="-0.37781">
        <ele>46</ele>
        <time>2023-07-05T14:27:52Z</time>
      </trkpt>
      <trkpt lat="49.27256" lon="-0.37779">
        <ele>46.1</ele>
        <time>2023-07-05T14:27:53Z</time>
      </trkpt>
      <trkpt lat="49.27249" lon="-0.37778">
        <ele>46.1</ele>
        <time>2023-07-05T14:27:54Z</time>
      </trkpt>
      <trkpt lat="49.27243" lon="-0.37776">
        <ele>46.2</ele>
        <time>2023-07-05T14:27:55Z</time>
      </trkpt>
      <trkpt lat="49.27236" lon="-0.37774">
        <ele>46.2</ele>
        <time>2023-07-05T14:27:56Z</time>
      </trkpt>
      <trkpt lat="49.27229" lon="-0.37772">
        <ele>46.2</ele>
        <time>2023-07-05T14:27:57Z</time>
      </trkpt>
      <trkpt lat="49.27222" lon="-0.3777">
        <ele>46.2</ele>
        <time>2023-07-05T14:27:58Z</time>
      </trkpt>
      <trkpt lat="49.27215" lon="-0.37768">
        <ele>46.2</ele>
        <time>2023-07-05T14:27:59Z</time>
      </trkpt>
      <trkpt lat="49.27208" lon="-0.37766">
        <ele>46.2</ele>
        <time>2023-07-05T14:28:00Z</time>
      </trkpt>
      <trkpt lat="49.27202" lon="-0.37763">
        <ele>46.2</ele>
        <time>2023-07-05T14:28:01Z</time>
      </trkpt>
      <trkpt lat="49.27195" lon="-0.3776">
        <ele>46.2</ele>
        <time>2023-07-05T14:28:02Z</time>
      </trkpt>
      <trkpt lat="49.27189" lon="-0.37758">
        <ele>46.2</ele>
        <time>2023-07-05T14:28:03Z</time>
      </trkpt>
      <trkpt lat="49.27182" lon="-0.37755">
        <ele>46.3</ele>
        <time>2023-07-05T14:28:04Z</time>
      </trkpt>
      <trkpt lat="49.27175" lon="-0.37752">
        <ele>46.3</ele>
        <time>2023-07-05T14:28:05Z</time>
      </trkpt>
      <trkpt lat="49.27167" lon="-0.37749">
        <ele>46.3</ele>
        <time>2023-07-05T14:28:06Z</time>
      </trkpt>
      <trkpt lat="49.2716" lon="-0.37747">
        <ele>46.3</ele>
        <time>2023-07-05T14:28:07Z</time>
      </trkpt>
      <trkpt lat="49.27152" lon="-0.37745">
        <ele>46.3</ele>
        <time>2023-07-05T14:28:08Z</time>
      </trkpt>
      <trkpt lat="49.27145" lon="-0.37744">
        <ele>46.3</ele>
        <time>2023-07-05T14:28:09Z</time>
      </trkpt>
      <trkpt lat="49.27137" lon="-0.37741">
        <ele>46.3</ele>
        <time>2023-07-05T14:28:10Z</time>
      </trkpt>
      <trkpt lat="49.27129" lon="-0.37739">
        <ele>46.4</ele>
        <time>2023-07-05T14:28:11Z</time>
      </trkpt>
      <trkpt lat="49.27121" lon="-0.37737">
        <ele>46.4</ele>
        <time>2023-07-05T14:28:12Z</time>
      </trkpt>
      <trkpt lat="49.27114" lon="-0.37734">
        <ele>46.5</ele>
        <time>2023-07-05T14:28:13Z</time>
      </trkpt>
      <trkpt lat="49.27107" lon="-0.37731">
        <ele>46.5</ele>
        <time>2023-07-05T14:28:14Z</time>
      </trkpt>
      <trkpt lat="49.271" lon="-0.37729">
        <ele>46.6</ele>
        <time>2023-07-05T14:28:15Z</time>
      </trkpt>
      <trkpt lat="49.27093" lon="-0.37727">
        <ele>46.7</ele>
        <time>2023-07-05T14:28:16Z</time>
      </trkpt>
      <trkpt lat="49.27086" lon="-0.37725">
        <ele>46.7</ele>
        <time>2023-07-05T14:28:17Z</time>
      </trkpt>
      <trkpt lat="49.2708" lon="-0.37723">
        <ele>46.8</ele>
        <time>2023-07-05T14:28:18Z</time>
      </trkpt>
      <trkpt lat="49.27073" lon="-0.37722">
        <ele>46.9</ele>
        <time>2023-07-05T14:28:19Z</time>
      </trkpt>
      <trkpt lat="49.27067" lon="-0.3772">
        <ele>47</ele>
        <time>2023-07-05T14:28:20Z</time>
      </trkpt>
      <trkpt lat="49.2706" lon="-0.37717">
        <ele>47.1</ele>
        <time>2023-07-05T14:28:21Z</time>
      </trkpt>
      <trkpt lat="49.27053" lon="-0.37715">
        <ele>47.2</ele>
        <time>2023-07-05T14:28:22Z</time>
      </trkpt>
      <trkpt lat="49.27046" lon="-0.37714">
        <ele>47.3</ele>
        <time>2023-07-05T14:28:23Z</time>
      </trkpt>
      <trkpt lat="49.27039" lon="-0.37712">
        <ele>47.3</ele>
        <time>2023-07-05T14:28:24Z</time>
      </trkpt>
      <trkpt lat="49.27032" lon="-0.37711">
        <ele>47.4</ele>
        <time>2023-07-05T14:28:25Z</time>
      </trkpt>
      <trkpt lat="49.27025" lon="-0.37709">
        <ele>47.5</ele>
        <time>2023-07-05T14:28:26Z</time>
      </trkpt>
      <trkpt lat="49.27019" lon="-0.37707">
        <ele>47.6</ele>
        <time>2023-07-05T14:28:27Z</time>
      </trkpt>
      <trkpt lat="49.27012" lon="-0.37705">
        <ele>47.7</ele>
        <time>2023-07-05T14:28:28Z</time>
      </trkpt>
      <trkpt lat="49.27005" lon="-0.37703">
        <ele>47.8</ele>
        <time>2023-07-05T14:28:29Z</time>
      </trkpt>
      <trkpt lat="49.26999" lon="-0.37701">
        <ele>47.9</ele>
        <time>2023-07-05T14:28:30Z</time>
      </trkpt>
      <trkpt lat="49.26992" lon="-0.37699">
        <ele>48</ele>
        <time>2023-07-05T14:28:31Z</time>
      </trkpt>
      <trkpt lat="49.26985" lon="-0.37696">
        <ele>48.1</ele>
        <time>2023-07-05T14:28:32Z</time>
      </trkpt>
      <trkpt lat="49.26978" lon="-0.37694">
        <ele>48.2</ele>
        <time>2023-07-05T14:28:33Z</time>
      </trkpt>
      <trkpt lat="49.2697" lon="-0.37691">
        <ele>48.2</ele>
        <time>2023-07-05T14:28:34Z</time>
      </trkpt>
      <trkpt lat="49.26963" lon="-0.37689">
        <ele>48.3</ele>
        <time>2023-07-05T14:28:35Z</time>
      </trkpt>
      <trkpt lat="49.26956" lon="-0.37688">
        <ele>48.3</ele>
        <time>2023-07-05T14:28:36Z</time>
      </trkpt>
      <trkpt lat="49.26949" lon="-0.37686">
        <ele>48.4</ele>
        <time>2023-07-05T14:28:37Z</time>
      </trkpt>
      <trkpt lat="49.26942" lon="-0.37686">
        <ele>48.4</ele>
        <time>2023-07-05T14:28:38Z</time>
      </trkpt>
      <trkpt lat="49.26936" lon="-0.37685">
        <ele>48.5</ele>
        <time>2023-07-05T14:28:39Z</time>
      </trkpt>
      <trkpt lat="49.26929" lon="-0.37684">
        <ele>48.6</ele>
        <time>2023-07-05T14:28:40Z</time>
      </trkpt>
      <trkpt lat="49.26922" lon="-0.37683">
        <ele>48.6</ele>
        <time>2023-07-05T14:28:41Z</time>
      </trkpt>
      <trkpt lat="49.26915" lon="-0.37683">
        <ele>48.7</ele>
        <time>2023-07-05T14:28:42Z</time>
      </trkpt>
      <trkpt lat="49.26907" lon="-0.37683">
        <ele>48.8</ele>
        <time>2023-07-05T14:28:43Z</time>
      </trkpt>
      <trkpt lat="49.269" lon="-0.37682">
        <ele>48.9</ele>
        <time>2023-07-05T14:28:44Z</time>
      </trkpt>
      <trkpt lat="49.26893" lon="-0.37682">
        <ele>49</ele>
        <time>2023-07-05T14:28:45Z</time>
      </trkpt>
      <trkpt lat="49.26887" lon="-0.37683">
        <ele>49</ele>
        <time>2023-07-05T14:28:46Z</time>
      </trkpt>
      <trkpt lat="49.26882" lon="-0.37684">
        <ele>49.1</ele>
        <time>2023-07-05T14:28:47Z</time>
      </trkpt>
      <trkpt lat="49.26875" lon="-0.37684">
        <ele>49.1</ele>
        <time>2023-07-05T14:28:48Z</time>
      </trkpt>
      <trkpt lat="49.26868" lon="-0.37684">
        <ele>49.1</ele>
        <time>2023-07-05T14:28:49Z</time>
      </trkpt>
      <trkpt lat="49.26861" lon="-0.37685">
        <ele>49.2</ele>
        <time>2023-07-05T14:28:50Z</time>
      </trkpt>
      <trkpt lat="49.26854" lon="-0.37685">
        <ele>49.3</ele>
        <time>2023-07-05T14:28:51Z</time>
      </trkpt>
      <trkpt lat="49.26847" lon="-0.37686">
        <ele>49.4</ele>
        <time>2023-07-05T14:28:52Z</time>
      </trkpt>
      <trkpt lat="49.26841" lon="-0.37685">
        <ele>49.5</ele>
        <time>2023-07-05T14:28:53Z</time>
      </trkpt>
      <trkpt lat="49.26835" lon="-0.37685">
        <ele>49.6</ele>
        <time>2023-07-05T14:28:54Z</time>
      </trkpt>
      <trkpt lat="49.26829" lon="-0.37685">
        <ele>49.7</ele>
        <time>2023-07-05T14:28:55Z</time>
      </trkpt>
      <trkpt lat="49.26825" lon="-0.37685">
        <ele>49.8</ele>
        <time>2023-07-05T14:28:56Z</time>
      </trkpt>
      <trkpt lat="49.2682" lon="-0.37685">
        <ele>49.8</ele>
        <time>2023-07-05T14:28:57Z</time>
      </trkpt>
      <trkpt lat="49.26816" lon="-0.37687">
        <ele>49.9</ele>
        <time>2023-07-05T14:28:58Z</time>
      </trkpt>
      <trkpt lat="49.26812" lon="-0.37689">
        <ele>50</ele>
        <time>2023-07-05T14:28:59Z</time>
      </trkpt>
      <trkpt lat="49.26806" lon="-0.37688">
        <ele>49.9</ele>
        <time>2023-07-05T14:29:00Z</time>
      </trkpt>
      <trkpt lat="49.268" lon="-0.37684">
        <ele>49.9</ele>
        <time>2023-07-05T14:29:01Z</time>
      </trkpt>
      <trkpt lat="49.26794" lon="-0.37681">
        <ele>49.9</ele>
        <time>2023-07-05T14:29:02Z</time>
      </trkpt>
      <trkpt lat="49.26787" lon="-0.37678">
        <ele>49.9</ele>
        <time>2023-07-05T14:29:03Z</time>
      </trkpt>
      <trkpt lat="49.26781" lon="-0.37675">
        <ele>49.9</ele>
        <time>2023-07-05T14:29:04Z</time>
      </trkpt>
      <trkpt lat="49.26775" lon="-0.37673">
        <ele>49.9</ele>
        <time>2023-07-05T14:29:05Z</time>
      </trkpt>
      <trkpt lat="49.26769" lon="-0.3767">
        <ele>50</ele>
        <time>2023-07-05T14:29:06Z</time>
      </trkpt>
      <trkpt lat="49.26763" lon="-0.37668">
        <ele>50</ele>
        <time>2023-07-05T14:29:07Z</time>
      </trkpt>
      <trkpt lat="49.26758" lon="-0.37666">
        <ele>50</ele>
        <time>2023-07-05T14:29:08Z</time>
      </trkpt>
      <trkpt lat="49.26752" lon="-0.37665">
        <ele>50.1</ele>
        <time>2023-07-05T14:29:09Z</time>
      </trkpt>
      <trkpt lat="49.26747" lon="-0.37664">
        <ele>50.1</ele>
        <time>2023-07-05T14:29:10Z</time>
      </trkpt>
      <trkpt lat="49.26741" lon="-0.37663">
        <ele>50.1</ele>
        <time>2023-07-05T14:29:11Z</time>
      </trkpt>
      <trkpt lat="49.26735" lon="-0.37663">
        <ele>50.1</ele>
        <time>2023-07-05T14:29:12Z</time>
      </trkpt>
      <trkpt lat="49.26729" lon="-0.37661">
        <ele>50.1</ele>
        <time>2023-07-05T14:29:13Z</time>
      </trkpt>
      <trkpt lat="49.26723" lon="-0.3766">
        <ele>50.1</ele>
        <time>2023-07-05T14:29:14Z</time>
      </trkpt>
      <trkpt lat="49.26716" lon="-0.37659">
        <ele>50.2</ele>
        <time>2023-07-05T14:29:15Z</time>
      </trkpt>
      <trkpt lat="49.26709" lon="-0.37658">
        <ele>50.2</ele>
        <time>2023-07-05T14:29:16Z</time>
      </trkpt>
      <trkpt lat="49.26703" lon="-0.37655">
        <ele>50.2</ele>
        <time>2023-07-05T14:29:17Z</time>
      </trkpt>
      <trkpt lat="49.26696" lon="-0.37654">
        <ele>50.2</ele>
        <time>2023-07-05T14:29:18Z</time>
      </trkpt>
      <trkpt lat="49.26689" lon="-0.37652">
        <ele>50.2</ele>
        <time>2023-07-05T14:29:19Z</time>
      </trkpt>
      <trkpt lat="49.26682" lon="-0.37651">
        <ele>50.3</ele>
        <time>2023-07-05T14:29:20Z</time>
      </trkpt>
      <trkpt lat="49.26674" lon="-0.37649">
        <ele>50.3</ele>
        <time>2023-07-05T14:29:21Z</time>
      </trkpt>
      <trkpt lat="49.26667" lon="-0.37646">
        <ele>50.4</ele>
        <time>2023-07-05T14:29:22Z</time>
      </trkpt>
      <trkpt lat="49.26661" lon="-0.37643">
        <ele>50.4</ele>
        <time>2023-07-05T14:29:23Z</time>
      </trkpt>
      <trkpt lat="49.26654" lon="-0.37641">
        <ele>50.5</ele>
        <time>2023-07-05T14:29:24Z</time>
      </trkpt>
      <trkpt lat="49.26647" lon="-0.37638">
        <ele>50.5</ele>
        <time>2023-07-05T14:29:25Z</time>
      </trkpt>
      <trkpt lat="49.2664" lon="-0.37636">
        <ele>50.6</ele>
        <time>2023-07-05T14:29:26Z</time>
      </trkpt>
      <trkpt lat="49.26633" lon="-0.37634">
        <ele>50.7</ele>
        <time>2023-07-05T14:29:27Z</time>
      </trkpt>
      <trkpt lat="49.26627" lon="-0.37631">
        <ele>50.7</ele>
        <time>2023-07-05T14:29:28Z</time>
      </trkpt>
      <trkpt lat="49.2662" lon="-0.37629">
        <ele>50.7</ele>
        <time>2023-07-05T14:29:29Z</time>
      </trkpt>
      <trkpt lat="49.26614" lon="-0.37627">
        <ele>50.8</ele>
        <time>2023-07-05T14:29:30Z</time>
      </trkpt>
      <trkpt lat="49.26607" lon="-0.37625">
        <ele>50.8</ele>
        <time>2023-07-05T14:29:31Z</time>
      </trkpt>
      <trkpt lat="49.266" lon="-0.37623">
        <ele>50.8</ele>
        <time>2023-07-05T14:29:32Z</time>
      </trkpt>
      <trkpt lat="49.26593" lon="-0.37621">
        <ele>50.8</ele>
        <time>2023-07-05T14:29:33Z</time>
      </trkpt>
      <trkpt lat="49.26587" lon="-0.37618">
        <ele>50.8</ele>
        <time>2023-07-05T14:29:34Z</time>
      </trkpt>
      <trkpt lat="49.2658" lon="-0.37616">
        <ele>50.8</ele>
        <time>2023-07-05T14:29:35Z</time>
      </trkpt>
      <trkpt lat="49.26573" lon="-0.37614">
        <ele>50.9</ele>
        <time>2023-07-05T14:29:36Z</time>
      </trkpt>
      <trkpt lat="49.26566" lon="-0.37612">
        <ele>50.9</ele>
        <time>2023-07-05T14:29:37Z</time>
      </trkpt>
      <trkpt lat="49.26559" lon="-0.37611">
        <ele>50.9</ele>
        <time>2023-07-05T14:29:38Z</time>
      </trkpt>
      <trkpt lat="49.26552" lon="-0.37609">
        <ele>50.9</ele>
        <time>2023-07-05T14:29:39Z</time>
      </trkpt>
      <trkpt lat="49.26545" lon="-0.37606">
        <ele>51</ele>
        <time>2023-07-05T14:29:40Z</time>
      </trkpt>
      <trkpt lat="49.26538" lon="-0.37604">
        <ele>51</ele>
        <time>2023-07-05T14:29:41Z</time>
      </trkpt>
      <trkpt lat="49.26531" lon="-0.37602">
        <ele>51.1</ele>
        <time>2023-07-05T14:29:42Z</time>
      </trkpt>
      <trkpt lat="49.26523" lon="-0.37601">
        <ele>51.1</ele>
        <time>2023-07-05T14:29:43Z</time>
      </trkpt>
      <trkpt lat="49.26517" lon="-0.37599">
        <ele>51.2</ele>
        <time>2023-07-05T14:29:44Z</time>
      </trkpt>
      <trkpt lat="49.2651" lon="-0.37597">
        <ele>51.2</ele>
        <time>2023-07-05T14:29:45Z</time>
      </trkpt>
      <trkpt lat="49.26502" lon="-0.37595">
        <ele>51.3</ele>
        <time>2023-07-05T14:29:46Z</time>
      </trkpt>
      <trkpt lat="49.26495" lon="-0.37593">
        <ele>51.3</ele>
        <time>2023-07-05T14:29:47Z</time>
      </trkpt>
      <trkpt lat="49.26487" lon="-0.37591">
        <ele>51.4</ele>
        <time>2023-07-05T14:29:48Z</time>
      </trkpt>
      <trkpt lat="49.2648" lon="-0.37589">
        <ele>51.4</ele>
        <time>2023-07-05T14:29:49Z</time>
      </trkpt>
      <trkpt lat="49.26472" lon="-0.37587">
        <ele>51.5</ele>
        <time>2023-07-05T14:29:50Z</time>
      </trkpt>
      <trkpt lat="49.26465" lon="-0.37585">
        <ele>51.5</ele>
        <time>2023-07-05T14:29:51Z</time>
      </trkpt>
      <trkpt lat="49.26458" lon="-0.37583">
        <ele>51.5</ele>
        <time>2023-07-05T14:29:52Z</time>
      </trkpt>
      <trkpt lat="49.26451" lon="-0.37581">
        <ele>51.6</ele>
        <time>2023-07-05T14:29:53Z</time>
      </trkpt>
      <trkpt lat="49.26444" lon="-0.37579">
        <ele>51.6</ele>
        <time>2023-07-05T14:29:54Z</time>
      </trkpt>
      <trkpt lat="49.26437" lon="-0.37576">
        <ele>51.6</ele>
        <time>2023-07-05T14:29:55Z</time>
      </trkpt>
      <trkpt lat="49.2643" lon="-0.37574">
        <ele>51.7</ele>
        <time>2023-07-05T14:29:56Z</time>
      </trkpt>
      <trkpt lat="49.26423" lon="-0.37572">
        <ele>51.7</ele>
        <time>2023-07-05T14:29:57Z</time>
      </trkpt>
      <trkpt lat="49.26416" lon="-0.3757">
        <ele>51.7</ele>
        <time>2023-07-05T14:29:58Z</time>
      </trkpt>
      <trkpt lat="49.2641" lon="-0.37567">
        <ele>51.7</ele>
        <time>2023-07-05T14:29:59Z</time>
      </trkpt>
      <trkpt lat="49.26403" lon="-0.37565">
        <ele>51.8</ele>
        <time>2023-07-05T14:30:00Z</time>
      </trkpt>
      <trkpt lat="49.26396" lon="-0.37563">
        <ele>51.8</ele>
        <time>2023-07-05T14:30:01Z</time>
      </trkpt>
      <trkpt lat="49.2639" lon="-0.37561">
        <ele>51.8</ele>
        <time>2023-07-05T14:30:02Z</time>
      </trkpt>
      <trkpt lat="49.26384" lon="-0.3756">
        <ele>51.8</ele>
        <time>2023-07-05T14:30:03Z</time>
      </trkpt>
      <trkpt lat="49.26377" lon="-0.37559">
        <ele>51.8</ele>
        <time>2023-07-05T14:30:04Z</time>
      </trkpt>
      <trkpt lat="49.26371" lon="-0.37559">
        <ele>51.8</ele>
        <time>2023-07-05T14:30:05Z</time>
      </trkpt>
      <trkpt lat="49.26365" lon="-0.37557">
        <ele>51.9</ele>
        <time>2023-07-05T14:30:06Z</time>
      </trkpt>
      <trkpt lat="49.26359" lon="-0.37555">
        <ele>51.9</ele>
        <time>2023-07-05T14:30:07Z</time>
      </trkpt>
      <trkpt lat="49.26352" lon="-0.37553">
        <ele>51.9</ele>
        <time>2023-07-05T14:30:08Z</time>
      </trkpt>
      <trkpt lat="49.26346" lon="-0.37552">
        <ele>51.9</ele>
        <time>2023-07-05T14:30:09Z</time>
      </trkpt>
      <trkpt lat="49.2634" lon="-0.3755">
        <ele>51.9</ele>
        <time>2023-07-05T14:30:10Z</time>
      </trkpt>
      <trkpt lat="49.26334" lon="-0.37548">
        <ele>51.9</ele>
        <time>2023-07-05T14:30:11Z</time>
      </trkpt>
      <trkpt lat="49.26327" lon="-0.37546">
        <ele>51.9</ele>
        <time>2023-07-05T14:30:12Z</time>
      </trkpt>
      <trkpt lat="49.26321" lon="-0.37544">
        <ele>51.9</ele>
        <time>2023-07-05T14:30:13Z</time>
      </trkpt>
      <trkpt lat="49.26315" lon="-0.37542">
        <ele>51.9</ele>
        <time>2023-07-05T14:30:14Z</time>
      </trkpt>
      <trkpt lat="49.26309" lon="-0.3754">
        <ele>51.9</ele>
        <time>2023-07-05T14:30:15Z</time>
      </trkpt>
      <trkpt lat="49.26303" lon="-0.37538">
        <ele>52</ele>
        <time>2023-07-05T14:30:16Z</time>
      </trkpt>
      <trkpt lat="49.26297" lon="-0.37536">
        <ele>52</ele>
        <time>2023-07-05T14:30:17Z</time>
      </trkpt>
      <trkpt lat="49.26291" lon="-0.37533">
        <ele>52</ele>
        <time>2023-07-05T14:30:18Z</time>
      </trkpt>
      <trkpt lat="49.26285" lon="-0.3753">
        <ele>52</ele>
        <time>2023-07-05T14:30:19Z</time>
      </trkpt>
      <trkpt lat="49.26278" lon="-0.37528">
        <ele>52</ele>
        <time>2023-07-05T14:30:20Z</time>
      </trkpt>
      <trkpt lat="49.26272" lon="-0.37527">
        <ele>52</ele>
        <time>2023-07-05T14:30:21Z</time>
      </trkpt>
      <trkpt lat="49.26265" lon="-0.37526">
        <ele>52</ele>
        <time>2023-07-05T14:30:22Z</time>
      </trkpt>
      <trkpt lat="49.26259" lon="-0.37524">
        <ele>52</ele>
        <time>2023-07-05T14:30:23Z</time>
      </trkpt>
      <trkpt lat="49.26254" lon="-0.37522">
        <ele>52</ele>
        <time>2023-07-05T14:30:24Z</time>
      </trkpt>
      <trkpt lat="49.26247" lon="-0.37521">
        <ele>52</ele>
        <time>2023-07-05T14:30:25Z</time>
      </trkpt>
      <trkpt lat="49.26241" lon="-0.3752">
        <ele>52</ele>
        <time>2023-07-05T14:30:26Z</time>
      </trkpt>
      <trkpt lat="49.26235" lon="-0.3752">
        <ele>52</ele>
        <time>2023-07-05T14:30:27Z</time>
      </trkpt>
      <trkpt lat="49.26228" lon="-0.37518">
        <ele>52</ele>
        <time>2023-07-05T14:30:28Z</time>
      </trkpt>
      <trkpt lat="49.26221" lon="-0.37517">
        <ele>52</ele>
        <time>2023-07-05T14:30:29Z</time>
      </trkpt>
      <trkpt lat="49.26215" lon="-0.37516">
        <ele>52</ele>
        <time>2023-07-05T14:30:30Z</time>
      </trkpt>
      <trkpt lat="49.26208" lon="-0.37514">
        <ele>52</ele>
        <time>2023-07-05T14:30:31Z</time>
      </trkpt>
      <trkpt lat="49.262" lon="-0.37513">
        <ele>52</ele>
        <time>2023-07-05T14:30:32Z</time>
      </trkpt>
      <trkpt lat="49.26193" lon="-0.37511">
        <ele>51.9</ele>
        <time>2023-07-05T14:30:33Z</time>
      </trkpt>
      <trkpt lat="49.26186" lon="-0.3751">
        <ele>51.9</ele>
        <time>2023-07-05T14:30:34Z</time>
      </trkpt>
      <trkpt lat="49.2618" lon="-0.37508">
        <ele>51.9</ele>
        <time>2023-07-05T14:30:35Z</time>
      </trkpt>
      <trkpt lat="49.26173" lon="-0.37507">
        <ele>51.9</ele>
        <time>2023-07-05T14:30:36Z</time>
      </trkpt>
      <trkpt lat="49.26167" lon="-0.37506">
        <ele>51.9</ele>
        <time>2023-07-05T14:30:37Z</time>
      </trkpt>
      <trkpt lat="49.2616" lon="-0.37504">
        <ele>51.9</ele>
        <time>2023-07-05T14:30:38Z</time>
      </trkpt>
      <trkpt lat="49.26153" lon="-0.37502">
        <ele>51.9</ele>
        <time>2023-07-05T14:30:39Z</time>
      </trkpt>
      <trkpt lat="49.26146" lon="-0.37501">
        <ele>51.8</ele>
        <time>2023-07-05T14:30:40Z</time>
      </trkpt>
      <trkpt lat="49.2614" lon="-0.375">
        <ele>51.8</ele>
        <time>2023-07-05T14:30:41Z</time>
      </trkpt>
      <trkpt lat="49.26133" lon="-0.37498">
        <ele>51.8</ele>
        <time>2023-07-05T14:30:42Z</time>
      </trkpt>
      <trkpt lat="49.26126" lon="-0.37497">
        <ele>51.7</ele>
        <time>2023-07-05T14:30:43Z</time>
      </trkpt>
      <trkpt lat="49.26121" lon="-0.37494">
        <ele>51.7</ele>
        <time>2023-07-05T14:30:44Z</time>
      </trkpt>
      <trkpt lat="49.26114" lon="-0.37492">
        <ele>51.6</ele>
        <time>2023-07-05T14:30:45Z</time>
      </trkpt>
      <trkpt lat="49.26108" lon="-0.3749">
        <ele>51.6</ele>
        <time>2023-07-05T14:30:46Z</time>
      </trkpt>
      <trkpt lat="49.26102" lon="-0.37488">
        <ele>51.6</ele>
        <time>2023-07-05T14:30:47Z</time>
      </trkpt>
      <trkpt lat="49.26096" lon="-0.37486">
        <ele>51.5</ele>
        <time>2023-07-05T14:30:48Z</time>
      </trkpt>
      <trkpt lat="49.26084" lon="-0.37483">
        <ele>51.5</ele>
        <time>2023-07-05T14:30:50Z</time>
      </trkpt>
      <trkpt lat="49.26077" lon="-0.37481">
        <ele>51.4</ele>
        <time>2023-07-05T14:30:51Z</time>
      </trkpt>
      <trkpt lat="49.2607" lon="-0.37479">
        <ele>51.3</ele>
        <time>2023-07-05T14:30:52Z</time>
      </trkpt>
      <trkpt lat="49.26063" lon="-0.37476">
        <ele>51.2</ele>
        <time>2023-07-05T14:30:53Z</time>
      </trkpt>
      <trkpt lat="49.26056" lon="-0.37474">
        <ele>51.1</ele>
        <time>2023-07-05T14:30:54Z</time>
      </trkpt>
      <trkpt lat="49.26048" lon="-0.37472">
        <ele>51</ele>
        <time>2023-07-05T14:30:55Z</time>
      </trkpt>
      <trkpt lat="49.26041" lon="-0.3747">
        <ele>50.9</ele>
        <time>2023-07-05T14:30:56Z</time>
      </trkpt>
      <trkpt lat="49.26034" lon="-0.37468">
        <ele>50.7</ele>
        <time>2023-07-05T14:30:57Z</time>
      </trkpt>
      <trkpt lat="49.26026" lon="-0.37467">
        <ele>50.6</ele>
        <time>2023-07-05T14:30:58Z</time>
      </trkpt>
      <trkpt lat="49.26018" lon="-0.37465">
        <ele>50.5</ele>
        <time>2023-07-05T14:30:59Z</time>
      </trkpt>
      <trkpt lat="49.2601" lon="-0.37464">
        <ele>50.4</ele>
        <time>2023-07-05T14:31:00Z</time>
      </trkpt>
      <trkpt lat="49.26002" lon="-0.37462">
        <ele>50.3</ele>
        <time>2023-07-05T14:31:01Z</time>
      </trkpt>
      <trkpt lat="49.25995" lon="-0.3746">
        <ele>50.2</ele>
        <time>2023-07-05T14:31:02Z</time>
      </trkpt>
      <trkpt lat="49.25987" lon="-0.37458">
        <ele>50.1</ele>
        <time>2023-07-05T14:31:03Z</time>
      </trkpt>
      <trkpt lat="49.2598" lon="-0.37455">
        <ele>50</ele>
        <time>2023-07-05T14:31:04Z</time>
      </trkpt>
      <trkpt lat="49.25972" lon="-0.37453">
        <ele>49.9</ele>
        <time>2023-07-05T14:31:05Z</time>
      </trkpt>
      <trkpt lat="49.25965" lon="-0.3745">
        <ele>49.8</ele>
        <time>2023-07-05T14:31:06Z</time>
      </trkpt>
      <trkpt lat="49.25958" lon="-0.37448">
        <ele>49.7</ele>
        <time>2023-07-05T14:31:07Z</time>
      </trkpt>
      <trkpt lat="49.25951" lon="-0.37447">
        <ele>49.6</ele>
        <time>2023-07-05T14:31:08Z</time>
      </trkpt>
      <trkpt lat="49.25943" lon="-0.37445">
        <ele>49.5</ele>
        <time>2023-07-05T14:31:09Z</time>
      </trkpt>
      <trkpt lat="49.25936" lon="-0.37444">
        <ele>49.4</ele>
        <time>2023-07-05T14:31:10Z</time>
      </trkpt>
      <trkpt lat="49.25929" lon="-0.37442">
        <ele>49.2</ele>
        <time>2023-07-05T14:31:11Z</time>
      </trkpt>
      <trkpt lat="49.25921" lon="-0.3744">
        <ele>49.1</ele>
        <time>2023-07-05T14:31:12Z</time>
      </trkpt>
      <trkpt lat="49.25914" lon="-0.37437">
        <ele>49</ele>
        <time>2023-07-05T14:31:13Z</time>
      </trkpt>
      <trkpt lat="49.25907" lon="-0.37434">
        <ele>48.8</ele>
        <time>2023-07-05T14:31:14Z</time>
      </trkpt>
      <trkpt lat="49.259" lon="-0.37432">
        <ele>48.7</ele>
        <time>2023-07-05T14:31:15Z</time>
      </trkpt>
      <trkpt lat="49.25893" lon="-0.3743">
        <ele>48.6</ele>
        <time>2023-07-05T14:31:16Z</time>
      </trkpt>
      <trkpt lat="49.25887" lon="-0.37428">
        <ele>48.5</ele>
        <time>2023-07-05T14:31:17Z</time>
      </trkpt>
      <trkpt lat="49.25881" lon="-0.37425">
        <ele>48.3</ele>
        <time>2023-07-05T14:31:18Z</time>
      </trkpt>
      <trkpt lat="49.25874" lon="-0.37423">
        <ele>48.2</ele>
        <time>2023-07-05T14:31:19Z</time>
      </trkpt>
      <trkpt lat="49.25867" lon="-0.37421">
        <ele>48.1</ele>
        <time>2023-07-05T14:31:20Z</time>
      </trkpt>
      <trkpt lat="49.2586" lon="-0.37419">
        <ele>48</ele>
        <time>2023-07-05T14:31:21Z</time>
      </trkpt>
      <trkpt lat="49.25853" lon="-0.37417">
        <ele>47.9</ele>
        <time>2023-07-05T14:31:22Z</time>
      </trkpt>
      <trkpt lat="49.25847" lon="-0.37414">
        <ele>47.9</ele>
        <time>2023-07-05T14:31:23Z</time>
      </trkpt>
      <trkpt lat="49.25841" lon="-0.37412">
        <ele>47.8</ele>
        <time>2023-07-05T14:31:24Z</time>
      </trkpt>
      <trkpt lat="49.25835" lon="-0.37409">
        <ele>47.8</ele>
        <time>2023-07-05T14:31:25Z</time>
      </trkpt>
      <trkpt lat="49.25829" lon="-0.37407">
        <ele>47.7</ele>
        <time>2023-07-05T14:31:26Z</time>
      </trkpt>
      <trkpt lat="49.25823" lon="-0.37405">
        <ele>47.6</ele>
        <time>2023-07-05T14:31:27Z</time>
      </trkpt>
      <trkpt lat="49.25818" lon="-0.37403">
        <ele>47.5</ele>
        <time>2023-07-05T14:31:28Z</time>
      </trkpt>
      <trkpt lat="49.25812" lon="-0.37401">
        <ele>47.4</ele>
        <time>2023-07-05T14:31:29Z</time>
      </trkpt>
      <trkpt lat="49.25806" lon="-0.374">
        <ele>47.3</ele>
        <time>2023-07-05T14:31:30Z</time>
      </trkpt>
      <trkpt lat="49.258" lon="-0.37398">
        <ele>47.2</ele>
        <time>2023-07-05T14:31:31Z</time>
      </trkpt>
      <trkpt lat="49.25795" lon="-0.37396">
        <ele>47.1</ele>
        <time>2023-07-05T14:31:32Z</time>
      </trkpt>
      <trkpt lat="49.25789" lon="-0.37395">
        <ele>47</ele>
        <time>2023-07-05T14:31:33Z</time>
      </trkpt>
      <trkpt lat="49.25783" lon="-0.37393">
        <ele>46.9</ele>
        <time>2023-07-05T14:31:34Z</time>
      </trkpt>
      <trkpt lat="49.25776" lon="-0.37391">
        <ele>46.8</ele>
        <time>2023-07-05T14:31:35Z</time>
      </trkpt>
      <trkpt lat="49.2577" lon="-0.3739">
        <ele>46.7</ele>
        <time>2023-07-05T14:31:36Z</time>
      </trkpt>
      <trkpt lat="49.25764" lon="-0.37388">
        <ele>46.6</ele>
        <time>2023-07-05T14:31:37Z</time>
      </trkpt>
      <trkpt lat="49.25757" lon="-0.37388">
        <ele>46.5</ele>
        <time>2023-07-05T14:31:38Z</time>
      </trkpt>
      <trkpt lat="49.2575" lon="-0.37387">
        <ele>46.4</ele>
        <time>2023-07-05T14:31:39Z</time>
      </trkpt>
      <trkpt lat="49.25744" lon="-0.37386">
        <ele>46.3</ele>
        <time>2023-07-05T14:31:40Z</time>
      </trkpt>
      <trkpt lat="49.25738" lon="-0.37384">
        <ele>46.2</ele>
        <time>2023-07-05T14:31:41Z</time>
      </trkpt>
      <trkpt lat="49.25732" lon="-0.37383">
        <ele>46.1</ele>
        <time>2023-07-05T14:31:42Z</time>
      </trkpt>
      <trkpt lat="49.25724" lon="-0.37382">
        <ele>46</ele>
        <time>2023-07-05T14:31:43Z</time>
      </trkpt>
      <trkpt lat="49.25717" lon="-0.3738">
        <ele>46</ele>
        <time>2023-07-05T14:31:44Z</time>
      </trkpt>
      <trkpt lat="49.25711" lon="-0.37378">
        <ele>45.9</ele>
        <time>2023-07-05T14:31:45Z</time>
      </trkpt>
      <trkpt lat="49.25704" lon="-0.37377">
        <ele>45.8</ele>
        <time>2023-07-05T14:31:46Z</time>
      </trkpt>
      <trkpt lat="49.25696" lon="-0.37375">
        <ele>45.7</ele>
        <time>2023-07-05T14:31:47Z</time>
      </trkpt>
      <trkpt lat="49.25689" lon="-0.37374">
        <ele>45.6</ele>
        <time>2023-07-05T14:31:48Z</time>
      </trkpt>
      <trkpt lat="49.25682" lon="-0.37371">
        <ele>45.6</ele>
        <time>2023-07-05T14:31:49Z</time>
      </trkpt>
      <trkpt lat="49.25674" lon="-0.37369">
        <ele>45.5</ele>
        <time>2023-07-05T14:31:50Z</time>
      </trkpt>
      <trkpt lat="49.25667" lon="-0.37367">
        <ele>45.4</ele>
        <time>2023-07-05T14:31:51Z</time>
      </trkpt>
      <trkpt lat="49.25659" lon="-0.37365">
        <ele>45.4</ele>
        <time>2023-07-05T14:31:52Z</time>
      </trkpt>
      <trkpt lat="49.25652" lon="-0.37363">
        <ele>45.3</ele>
        <time>2023-07-05T14:31:53Z</time>
      </trkpt>
      <trkpt lat="49.25645" lon="-0.37362">
        <ele>45.3</ele>
        <time>2023-07-05T14:31:54Z</time>
      </trkpt>
      <trkpt lat="49.25638" lon="-0.37361">
        <ele>45.1</ele>
        <time>2023-07-05T14:31:55Z</time>
      </trkpt>
      <trkpt lat="49.25632" lon="-0.3736">
        <ele>45</ele>
        <time>2023-07-05T14:31:56Z</time>
      </trkpt>
      <trkpt lat="49.25625" lon="-0.37358">
        <ele>44.9</ele>
        <time>2023-07-05T14:31:57Z</time>
      </trkpt>
      <trkpt lat="49.25618" lon="-0.37357">
        <ele>44.8</ele>
        <time>2023-07-05T14:31:58Z</time>
      </trkpt>
      <trkpt lat="49.25612" lon="-0.37355">
        <ele>44.7</ele>
        <time>2023-07-05T14:31:59Z</time>
      </trkpt>
      <trkpt lat="49.25605" lon="-0.37352">
        <ele>44.6</ele>
        <time>2023-07-05T14:32:00Z</time>
      </trkpt>
      <trkpt lat="49.25598" lon="-0.3735">
        <ele>44.6</ele>
        <time>2023-07-05T14:32:01Z</time>
      </trkpt>
      <trkpt lat="49.25592" lon="-0.37347">
        <ele>44.5</ele>
        <time>2023-07-05T14:32:02Z</time>
      </trkpt>
      <trkpt lat="49.25586" lon="-0.37345">
        <ele>44.5</ele>
        <time>2023-07-05T14:32:03Z</time>
      </trkpt>
      <trkpt lat="49.2558" lon="-0.37343">
        <ele>44.5</ele>
        <time>2023-07-05T14:32:04Z</time>
      </trkpt>
      <trkpt lat="49.25575" lon="-0.37341">
        <ele>44.6</ele>
        <time>2023-07-05T14:32:05Z</time>
      </trkpt>
      <trkpt lat="49.25569" lon="-0.3734">
        <ele>44.6</ele>
        <time>2023-07-05T14:32:06Z</time>
      </trkpt>
      <trkpt lat="49.25564" lon="-0.3734">
        <ele>44.6</ele>
        <time>2023-07-05T14:32:07Z</time>
      </trkpt>
      <trkpt lat="49.25558" lon="-0.37341">
        <ele>44.7</ele>
        <time>2023-07-05T14:32:08Z</time>
      </trkpt>
      <trkpt lat="49.25553" lon="-0.37341">
        <ele>44.7</ele>
        <time>2023-07-05T14:32:09Z</time>
      </trkpt>
      <trkpt lat="49.25549" lon="-0.3734">
        <ele>44.7</ele>
        <time>2023-07-05T14:32:10Z</time>
      </trkpt>
      <trkpt lat="49.25544" lon="-0.37337">
        <ele>44.8</ele>
        <time>2023-07-05T14:32:11Z</time>
      </trkpt>
      <trkpt lat="49.25539" lon="-0.37333">
        <ele>44.8</ele>
        <time>2023-07-05T14:32:12Z</time>
      </trkpt>
      <trkpt lat="49.25535" lon="-0.37329">
        <ele>44.9</ele>
        <time>2023-07-05T14:32:13Z</time>
      </trkpt>
      <trkpt lat="49.2553" lon="-0.37324">
        <ele>44.9</ele>
        <time>2023-07-05T14:32:14Z</time>
      </trkpt>
      <trkpt lat="49.25525" lon="-0.37322">
        <ele>44.9</ele>
        <time>2023-07-05T14:32:15Z</time>
      </trkpt>
      <trkpt lat="49.25521" lon="-0.3732">
        <ele>45</ele>
        <time>2023-07-05T14:32:16Z</time>
      </trkpt>
      <trkpt lat="49.25516" lon="-0.37319">
        <ele>45</ele>
        <time>2023-07-05T14:32:17Z</time>
      </trkpt>
      <trkpt lat="49.25511" lon="-0.37319">
        <ele>45</ele>
        <time>2023-07-05T14:32:18Z</time>
      </trkpt>
      <trkpt lat="49.25505" lon="-0.37318">
        <ele>45.1</ele>
        <time>2023-07-05T14:32:19Z</time>
      </trkpt>
      <trkpt lat="49.255" lon="-0.37318">
        <ele>45.1</ele>
        <time>2023-07-05T14:32:20Z</time>
      </trkpt>
      <trkpt lat="49.25495" lon="-0.37317">
        <ele>45.1</ele>
        <time>2023-07-05T14:32:21Z</time>
      </trkpt>
      <trkpt lat="49.2549" lon="-0.37316">
        <ele>45.2</ele>
        <time>2023-07-05T14:32:22Z</time>
      </trkpt>
      <trkpt lat="49.25485" lon="-0.37315">
        <ele>45.2</ele>
        <time>2023-07-05T14:32:23Z</time>
      </trkpt>
      <trkpt lat="49.25481" lon="-0.37314">
        <ele>45.3</ele>
        <time>2023-07-05T14:32:24Z</time>
      </trkpt>
      <trkpt lat="49.25476" lon="-0.37312">
        <ele>45.3</ele>
        <time>2023-07-05T14:32:25Z</time>
      </trkpt>
      <trkpt lat="49.25471" lon="-0.3731">
        <ele>45.3</ele>
        <time>2023-07-05T14:32:26Z</time>
      </trkpt>
      <trkpt lat="49.25466" lon="-0.37309">
        <ele>45.4</ele>
        <time>2023-07-05T14:32:27Z</time>
      </trkpt>
      <trkpt lat="49.2546" lon="-0.37308">
        <ele>45.4</ele>
        <time>2023-07-05T14:32:28Z</time>
      </trkpt>
      <trkpt lat="49.25455" lon="-0.37307">
        <ele>45.4</ele>
        <time>2023-07-05T14:32:29Z</time>
      </trkpt>
      <trkpt lat="49.2545" lon="-0.37306">
        <ele>45.5</ele>
        <time>2023-07-05T14:32:30Z</time>
      </trkpt>
      <trkpt lat="49.25445" lon="-0.37305">
        <ele>45.5</ele>
        <time>2023-07-05T14:32:31Z</time>
      </trkpt>
      <trkpt lat="49.2544" lon="-0.37303">
        <ele>45.5</ele>
        <time>2023-07-05T14:32:32Z</time>
      </trkpt>
      <trkpt lat="49.25434" lon="-0.37301">
        <ele>45.6</ele>
        <time>2023-07-05T14:32:33Z</time>
      </trkpt>
      <trkpt lat="49.25428" lon="-0.37299">
        <ele>45.6</ele>
        <time>2023-07-05T14:32:34Z</time>
      </trkpt>
      <trkpt lat="49.25422" lon="-0.37298">
        <ele>45.7</ele>
        <time>2023-07-05T14:32:35Z</time>
      </trkpt>
      <trkpt lat="49.25416" lon="-0.37296">
        <ele>45.7</ele>
        <time>2023-07-05T14:32:36Z</time>
      </trkpt>
      <trkpt lat="49.2541" lon="-0.37295">
        <ele>45.8</ele>
        <time>2023-07-05T14:32:37Z</time>
      </trkpt>
      <trkpt lat="49.25403" lon="-0.37293">
        <ele>45.9</ele>
        <time>2023-07-05T14:32:38Z</time>
      </trkpt>
      <trkpt lat="49.25396" lon="-0.37291">
        <ele>45.9</ele>
        <time>2023-07-05T14:32:39Z</time>
      </trkpt>
      <trkpt lat="49.2539" lon="-0.37289">
        <ele>46</ele>
        <time>2023-07-05T14:32:40Z</time>
      </trkpt>
      <trkpt lat="49.25384" lon="-0.37288">
        <ele>46.1</ele>
        <time>2023-07-05T14:32:41Z</time>
      </trkpt>
      <trkpt lat="49.25378" lon="-0.37286">
        <ele>46.1</ele>
        <time>2023-07-05T14:32:42Z</time>
      </trkpt>
      <trkpt lat="49.25372" lon="-0.37285">
        <ele>46.2</ele>
        <time>2023-07-05T14:32:43Z</time>
      </trkpt>
      <trkpt lat="49.25367" lon="-0.37283">
        <ele>46.3</ele>
        <time>2023-07-05T14:32:44Z</time>
      </trkpt>
      <trkpt lat="49.25361" lon="-0.37281">
        <ele>46.3</ele>
        <time>2023-07-05T14:32:45Z</time>
      </trkpt>
      <trkpt lat="49.25355" lon="-0.37279">
        <ele>46.3</ele>
        <time>2023-07-05T14:32:46Z</time>
      </trkpt>
      <trkpt lat="49.25349" lon="-0.37277">
        <ele>46.4</ele>
        <time>2023-07-05T14:32:47Z</time>
      </trkpt>
      <trkpt lat="49.25344" lon="-0.37276">
        <ele>46.4</ele>
        <time>2023-07-05T14:32:48Z</time>
      </trkpt>
      <trkpt lat="49.25338" lon="-0.37275">
        <ele>46.5</ele>
        <time>2023-07-05T14:32:49Z</time>
      </trkpt>
      <trkpt lat="49.25332" lon="-0.37273">
        <ele>46.6</ele>
        <time>2023-07-05T14:32:50Z</time>
      </trkpt>
      <trkpt lat="49.25325" lon="-0.37271">
        <ele>46.6</ele>
        <time>2023-07-05T14:32:51Z</time>
      </trkpt>
      <trkpt lat="49.25319" lon="-0.37269">
        <ele>46.7</ele>
        <time>2023-07-05T14:32:52Z</time>
      </trkpt>
      <trkpt lat="49.25312" lon="-0.37266">
        <ele>46.7</ele>
        <time>2023-07-05T14:32:53Z</time>
      </trkpt>
      <trkpt lat="49.25306" lon="-0.37264">
        <ele>46.7</ele>
        <time>2023-07-05T14:32:54Z</time>
      </trkpt>
      <trkpt lat="49.25299" lon="-0.37262">
        <ele>46.7</ele>
        <time>2023-07-05T14:32:55Z</time>
      </trkpt>
      <trkpt lat="49.25293" lon="-0.37259">
        <ele>46.8</ele>
        <time>2023-07-05T14:32:56Z</time>
      </trkpt>
      <trkpt lat="49.25287" lon="-0.37257">
        <ele>46.8</ele>
        <time>2023-07-05T14:32:57Z</time>
      </trkpt>
      <trkpt lat="49.25281" lon="-0.37254">
        <ele>46.9</ele>
        <time>2023-07-05T14:32:58Z</time>
      </trkpt>
      <trkpt lat="49.25275" lon="-0.37253">
        <ele>46.9</ele>
        <time>2023-07-05T14:32:59Z</time>
      </trkpt>
      <trkpt lat="49.25269" lon="-0.37252">
        <ele>47</ele>
        <time>2023-07-05T14:33:00Z</time>
      </trkpt>
      <trkpt lat="49.25265" lon="-0.37251">
        <ele>47</ele>
        <time>2023-07-05T14:33:01Z</time>
      </trkpt>
      <trkpt lat="49.2526" lon="-0.3725">
        <ele>47</ele>
        <time>2023-07-05T14:33:02Z</time>
      </trkpt>
      <trkpt lat="49.25255" lon="-0.37248">
        <ele>47.1</ele>
        <time>2023-07-05T14:33:03Z</time>
      </trkpt>
      <trkpt lat="49.25252" lon="-0.37245">
        <ele>47.1</ele>
        <time>2023-07-05T14:33:04Z</time>
      </trkpt>
      <trkpt lat="49.25249" lon="-0.37241">
        <ele>47.1</ele>
        <time>2023-07-05T14:33:05Z</time>
      </trkpt>
      <trkpt lat="49.25247" lon="-0.37236">
        <ele>47.1</ele>
        <time>2023-07-05T14:33:06Z</time>
      </trkpt>
      <trkpt lat="49.25245" lon="-0.3723">
        <ele>47</ele>
        <time>2023-07-05T14:33:07Z</time>
      </trkpt>
      <trkpt lat="49.25243" lon="-0.37224">
        <ele>46.9</ele>
        <time>2023-07-05T14:33:08Z</time>
      </trkpt>
      <trkpt lat="49.25242" lon="-0.37217">
        <ele>46.8</ele>
        <time>2023-07-05T14:33:09Z</time>
      </trkpt>
      <trkpt lat="49.25241" lon="-0.3721">
        <ele>46.7</ele>
        <time>2023-07-05T14:33:10Z</time>
      </trkpt>
      <trkpt lat="49.2524" lon="-0.37203">
        <ele>46.6</ele>
        <time>2023-07-05T14:33:11Z</time>
      </trkpt>
      <trkpt lat="49.25239" lon="-0.37196">
        <ele>46.5</ele>
        <time>2023-07-05T14:33:12Z</time>
      </trkpt>
      <trkpt lat="49.25238" lon="-0.37189">
        <ele>46.4</ele>
        <time>2023-07-05T14:33:13Z</time>
      </trkpt>
      <trkpt lat="49.25236" lon="-0.37182">
        <ele>46.2</ele>
        <time>2023-07-05T14:33:14Z</time>
      </trkpt>
      <trkpt lat="49.25235" lon="-0.37176">
        <ele>46.2</ele>
        <time>2023-07-05T14:33:15Z</time>
      </trkpt>
      <trkpt lat="49.25235" lon="-0.37169">
        <ele>46.1</ele>
        <time>2023-07-05T14:33:16Z</time>
      </trkpt>
      <trkpt lat="49.25234" lon="-0.37161">
        <ele>46</ele>
        <time>2023-07-05T14:33:17Z</time>
      </trkpt>
      <trkpt lat="49.25234" lon="-0.37152">
        <ele>45.9</ele>
        <time>2023-07-05T14:33:18Z</time>
      </trkpt>
      <trkpt lat="49.25233" lon="-0.37143">
        <ele>45.9</ele>
        <time>2023-07-05T14:33:19Z</time>
      </trkpt>
      <trkpt lat="49.25232" lon="-0.37135">
        <ele>45.9</ele>
        <time>2023-07-05T14:33:20Z</time>
      </trkpt>
      <trkpt lat="49.2523" lon="-0.37126">
        <ele>45.9</ele>
        <time>2023-07-05T14:33:21Z</time>
      </trkpt>
      <trkpt lat="49.25228" lon="-0.37117">
        <ele>45.9</ele>
        <time>2023-07-05T14:33:22Z</time>
      </trkpt>
      <trkpt lat="49.25226" lon="-0.37109">
        <ele>46</ele>
        <time>2023-07-05T14:33:23Z</time>
      </trkpt>
      <trkpt lat="49.25225" lon="-0.371">
        <ele>46</ele>
        <time>2023-07-05T14:33:24Z</time>
      </trkpt>
      <trkpt lat="49.25222" lon="-0.37091">
        <ele>46.1</ele>
        <time>2023-07-05T14:33:25Z</time>
      </trkpt>
      <trkpt lat="49.2522" lon="-0.37083">
        <ele>46.1</ele>
        <time>2023-07-05T14:33:26Z</time>
      </trkpt>
      <trkpt lat="49.25218" lon="-0.37074">
        <ele>46.2</ele>
        <time>2023-07-05T14:33:27Z</time>
      </trkpt>
      <trkpt lat="49.25215" lon="-0.37066">
        <ele>46.3</ele>
        <time>2023-07-05T14:33:28Z</time>
      </trkpt>
      <trkpt lat="49.25212" lon="-0.37058">
        <ele>46.4</ele>
        <time>2023-07-05T14:33:29Z</time>
      </trkpt>
      <trkpt lat="49.2521" lon="-0.37049">
        <ele>46.4</ele>
        <time>2023-07-05T14:33:30Z</time>
      </trkpt>
      <trkpt lat="49.25208" lon="-0.37039">
        <ele>46.5</ele>
        <time>2023-07-05T14:33:31Z</time>
      </trkpt>
      <trkpt lat="49.25205" lon="-0.3703">
        <ele>46.6</ele>
        <time>2023-07-05T14:33:32Z</time>
      </trkpt>
      <trkpt lat="49.25203" lon="-0.37019">
        <ele>46.7</ele>
        <time>2023-07-05T14:33:33Z</time>
      </trkpt>
      <trkpt lat="49.252" lon="-0.37009">
        <ele>46.7</ele>
        <time>2023-07-05T14:33:34Z</time>
      </trkpt>
      <trkpt lat="49.25197" lon="-0.36999">
        <ele>46.8</ele>
        <time>2023-07-05T14:33:35Z</time>
      </trkpt>
      <trkpt lat="49.25193" lon="-0.36988">
        <ele>47</ele>
        <time>2023-07-05T14:33:36Z</time>
      </trkpt>
      <trkpt lat="49.2519" lon="-0.36978">
        <ele>47.1</ele>
        <time>2023-07-05T14:33:37Z</time>
      </trkpt>
      <trkpt lat="49.25185" lon="-0.36967">
        <ele>47.3</ele>
        <time>2023-07-05T14:33:38Z</time>
      </trkpt>
      <trkpt lat="49.25181" lon="-0.36957">
        <ele>47.5</ele>
        <time>2023-07-05T14:33:39Z</time>
      </trkpt>
      <trkpt lat="49.25178" lon="-0.36949">
        <ele>47.6</ele>
        <time>2023-07-05T14:33:40Z</time>
      </trkpt>
      <trkpt lat="49.25174" lon="-0.36941">
        <ele>47.8</ele>
        <time>2023-07-05T14:33:41Z</time>
      </trkpt>
      <trkpt lat="49.25171" lon="-0.36933">
        <ele>47.9</ele>
        <time>2023-07-05T14:33:42Z</time>
      </trkpt>
      <trkpt lat="49.25168" lon="-0.36925">
        <ele>48</ele>
        <time>2023-07-05T14:33:43Z</time>
      </trkpt>
      <trkpt lat="49.25165" lon="-0.36917">
        <ele>48</ele>
        <time>2023-07-05T14:33:44Z</time>
      </trkpt>
      <trkpt lat="49.25162" lon="-0.36908">
        <ele>48.1</ele>
        <time>2023-07-05T14:33:45Z</time>
      </trkpt>
      <trkpt lat="49.25159" lon="-0.369">
        <ele>48.2</ele>
        <time>2023-07-05T14:33:46Z</time>
      </trkpt>
      <trkpt lat="49.25155" lon="-0.36891">
        <ele>48.3</ele>
        <time>2023-07-05T14:33:47Z</time>
      </trkpt>
      <trkpt lat="49.25151" lon="-0.36882">
        <ele>48.4</ele>
        <time>2023-07-05T14:33:48Z</time>
      </trkpt>
      <trkpt lat="49.25148" lon="-0.36874">
        <ele>48.5</ele>
        <time>2023-07-05T14:33:49Z</time>
      </trkpt>
      <trkpt lat="49.25146" lon="-0.36865">
        <ele>48.6</ele>
        <time>2023-07-05T14:33:50Z</time>
      </trkpt>
      <trkpt lat="49.25142" lon="-0.36857">
        <ele>48.7</ele>
        <time>2023-07-05T14:33:51Z</time>
      </trkpt>
      <trkpt lat="49.25139" lon="-0.36848">
        <ele>48.8</ele>
        <time>2023-07-05T14:33:52Z</time>
      </trkpt>
      <trkpt lat="49.25136" lon="-0.3684">
        <ele>48.9</ele>
        <time>2023-07-05T14:33:53Z</time>
      </trkpt>
      <trkpt lat="49.25133" lon="-0.36833">
        <ele>48.9</ele>
        <time>2023-07-05T14:33:54Z</time>
      </trkpt>
      <trkpt lat="49.2513" lon="-0.36826">
        <ele>49</ele>
        <time>2023-07-05T14:33:55Z</time>
      </trkpt>
      <trkpt lat="49.25126" lon="-0.36819">
        <ele>49</ele>
        <time>2023-07-05T14:33:56Z</time>
      </trkpt>
      <trkpt lat="49.25124" lon="-0.36811">
        <ele>49.1</ele>
        <time>2023-07-05T14:33:57Z</time>
      </trkpt>
      <trkpt lat="49.2512" lon="-0.36802">
        <ele>49.1</ele>
        <time>2023-07-05T14:33:58Z</time>
      </trkpt>
      <trkpt lat="49.25118" lon="-0.36792">
        <ele>49.1</ele>
        <time>2023-07-05T14:33:59Z</time>
      </trkpt>
      <trkpt lat="49.25115" lon="-0.36781">
        <ele>49.2</ele>
        <time>2023-07-05T14:34:00Z</time>
      </trkpt>
      <trkpt lat="49.25112" lon="-0.36771">
        <ele>49.2</ele>
        <time>2023-07-05T14:34:01Z</time>
      </trkpt>
      <trkpt lat="49.2511" lon="-0.36761">
        <ele>49.2</ele>
        <time>2023-07-05T14:34:02Z</time>
      </trkpt>
      <trkpt lat="49.25107" lon="-0.36751">
        <ele>49.2</ele>
        <time>2023-07-05T14:34:03Z</time>
      </trkpt>
      <trkpt lat="49.25105" lon="-0.36741">
        <ele>49.2</ele>
        <time>2023-07-05T14:34:04Z</time>
      </trkpt>
      <trkpt lat="49.25102" lon="-0.36733">
        <ele>49.2</ele>
        <time>2023-07-05T14:34:05Z</time>
      </trkpt>
      <trkpt lat="49.251" lon="-0.36725">
        <ele>49.1</ele>
        <time>2023-07-05T14:34:06Z</time>
      </trkpt>
      <trkpt lat="49.25097" lon="-0.36716">
        <ele>49.1</ele>
        <time>2023-07-05T14:34:07Z</time>
      </trkpt>
      <trkpt lat="49.25095" lon="-0.36707">
        <ele>49</ele>
        <time>2023-07-05T14:34:08Z</time>
      </trkpt>
      <trkpt lat="49.25092" lon="-0.36699">
        <ele>48.9</ele>
        <time>2023-07-05T14:34:09Z</time>
      </trkpt>
      <trkpt lat="49.25089" lon="-0.36691">
        <ele>48.9</ele>
        <time>2023-07-05T14:34:10Z</time>
      </trkpt>
      <trkpt lat="49.25086" lon="-0.36684">
        <ele>48.8</ele>
        <time>2023-07-05T14:34:11Z</time>
      </trkpt>
      <trkpt lat="49.25083" lon="-0.36676">
        <ele>48.8</ele>
        <time>2023-07-05T14:34:12Z</time>
      </trkpt>
      <trkpt lat="49.25081" lon="-0.36667">
        <ele>48.7</ele>
        <time>2023-07-05T14:34:13Z</time>
      </trkpt>
      <trkpt lat="49.25079" lon="-0.36658">
        <ele>48.6</ele>
        <time>2023-07-05T14:34:14Z</time>
      </trkpt>
      <trkpt lat="49.2508" lon="-0.36649">
        <ele>48.5</ele>
        <time>2023-07-05T14:34:15Z</time>
      </trkpt>
      <trkpt lat="49.25082" lon="-0.3664">
        <ele>48.4</ele>
        <time>2023-07-05T14:34:16Z</time>
      </trkpt>
      <trkpt lat="49.25084" lon="-0.36631">
        <ele>48.3</ele>
        <time>2023-07-05T14:34:17Z</time>
      </trkpt>
      <trkpt lat="49.25086" lon="-0.36622">
        <ele>48.2</ele>
        <time>2023-07-05T14:34:18Z</time>
      </trkpt>
      <trkpt lat="49.25088" lon="-0.36613">
        <ele>48</ele>
        <time>2023-07-05T14:34:19Z</time>
      </trkpt>
      <trkpt lat="49.2509" lon="-0.36604">
        <ele>47.8</ele>
        <time>2023-07-05T14:34:20Z</time>
      </trkpt>
      <trkpt lat="49.25092" lon="-0.36597">
        <ele>47.6</ele>
        <time>2023-07-05T14:34:21Z</time>
      </trkpt>
      <trkpt lat="49.25094" lon="-0.3659">
        <ele>47.5</ele>
        <time>2023-07-05T14:34:22Z</time>
      </trkpt>
      <trkpt lat="49.25095" lon="-0.36583">
        <ele>47.4</ele>
        <time>2023-07-05T14:34:23Z</time>
      </trkpt>
      <trkpt lat="49.25097" lon="-0.36577">
        <ele>47.2</ele>
        <time>2023-07-05T14:34:24Z</time>
      </trkpt>
      <trkpt lat="49.25099" lon="-0.36571">
        <ele>47.1</ele>
        <time>2023-07-05T14:34:25Z</time>
      </trkpt>
      <trkpt lat="49.25101" lon="-0.36566">
        <ele>47</ele>
        <time>2023-07-05T14:34:26Z</time>
      </trkpt>
      <trkpt lat="49.25103" lon="-0.3656">
        <ele>46.9</ele>
        <time>2023-07-05T14:34:27Z</time>
      </trkpt>
      <trkpt lat="49.25104" lon="-0.36555">
        <ele>46.8</ele>
        <time>2023-07-05T14:34:28Z</time>
      </trkpt>
      <trkpt lat="49.25106" lon="-0.36551">
        <ele>46.8</ele>
        <time>2023-07-05T14:34:29Z</time>
      </trkpt>
      <trkpt lat="49.25107" lon="-0.36549">
        <ele>46.7</ele>
        <time>2023-07-05T14:34:30Z</time>
      </trkpt>
      <trkpt lat="49.25107" lon="-0.36547">
        <ele>46.7</ele>
        <time>2023-07-05T14:34:31Z</time>
      </trkpt>
      <trkpt lat="49.25108" lon="-0.36544">
        <ele>46.7</ele>
        <time>2023-07-05T14:34:32Z</time>
      </trkpt>
      <trkpt lat="49.25108" lon="-0.36542">
        <ele>46.7</ele>
        <time>2023-07-05T14:34:33Z</time>
      </trkpt>
      <trkpt lat="49.25108" lon="-0.3654">
        <ele>46.7</ele>
        <time>2023-07-05T14:34:34Z</time>
      </trkpt>
      <trkpt lat="49.25108" lon="-0.36536">
        <ele>46.6</ele>
        <time>2023-07-05T14:34:35Z</time>
      </trkpt>
      <trkpt lat="49.25108" lon="-0.36531">
        <ele>46.6</ele>
        <time>2023-07-05T14:34:36Z</time>
      </trkpt>
      <trkpt lat="49.25106" lon="-0.36526">
        <ele>46.6</ele>
        <time>2023-07-05T14:34:37Z</time>
      </trkpt>
      <trkpt lat="49.25104" lon="-0.3652">
        <ele>46.6</ele>
        <time>2023-07-05T14:34:38Z</time>
      </trkpt>
      <trkpt lat="49.25102" lon="-0.36513">
        <ele>46.6</ele>
        <time>2023-07-05T14:34:39Z</time>
      </trkpt>
      <trkpt lat="49.251" lon="-0.36507">
        <ele>46.5</ele>
        <time>2023-07-05T14:34:40Z</time>
      </trkpt>
      <trkpt lat="49.25097" lon="-0.365">
        <ele>46.5</ele>
        <time>2023-07-05T14:34:41Z</time>
      </trkpt>
      <trkpt lat="49.25095" lon="-0.36495">
        <ele>46.5</ele>
        <time>2023-07-05T14:34:42Z</time>
      </trkpt>
      <trkpt lat="49.25091" lon="-0.36489">
        <ele>46.5</ele>
        <time>2023-07-05T14:34:43Z</time>
      </trkpt>
      <trkpt lat="49.25086" lon="-0.36482">
        <ele>46.5</ele>
        <time>2023-07-05T14:34:44Z</time>
      </trkpt>
      <trkpt lat="49.25081" lon="-0.36474">
        <ele>46.4</ele>
        <time>2023-07-05T14:34:45Z</time>
      </trkpt>
      <trkpt lat="49.25076" lon="-0.36467">
        <ele>46.4</ele>
        <time>2023-07-05T14:34:46Z</time>
      </trkpt>
      <trkpt lat="49.25071" lon="-0.36459">
        <ele>46.4</ele>
        <time>2023-07-05T14:34:47Z</time>
      </trkpt>
      <trkpt lat="49.25067" lon="-0.3645">
        <ele>46.4</ele>
        <time>2023-07-05T14:34:48Z</time>
      </trkpt>
      <trkpt lat="49.25062" lon="-0.36441">
        <ele>46.4</ele>
        <time>2023-07-05T14:34:49Z</time>
      </trkpt>
      <trkpt lat="49.25057" lon="-0.36433">
        <ele>46.4</ele>
        <time>2023-07-05T14:34:50Z</time>
      </trkpt>
      <trkpt lat="49.25053" lon="-0.36424">
        <ele>46.4</ele>
        <time>2023-07-05T14:34:51Z</time>
      </trkpt>
      <trkpt lat="49.25048" lon="-0.36416">
        <ele>46.4</ele>
        <time>2023-07-05T14:34:52Z</time>
      </trkpt>
      <trkpt lat="49.25042" lon="-0.36408">
        <ele>46.4</ele>
        <time>2023-07-05T14:34:53Z</time>
      </trkpt>
      <trkpt lat="49.25037" lon="-0.36399">
        <ele>46.4</ele>
        <time>2023-07-05T14:34:54Z</time>
      </trkpt>
      <trkpt lat="49.25031" lon="-0.36391">
        <ele>46.4</ele>
        <time>2023-07-05T14:34:55Z</time>
      </trkpt>
      <trkpt lat="49.25026" lon="-0.36382">
        <ele>46.4</ele>
        <time>2023-07-05T14:34:56Z</time>
      </trkpt>
      <trkpt lat="49.2502" lon="-0.36374">
        <ele>46.4</ele>
        <time>2023-07-05T14:34:57Z</time>
      </trkpt>
      <trkpt lat="49.25015" lon="-0.36365">
        <ele>46.4</ele>
        <time>2023-07-05T14:34:58Z</time>
      </trkpt>
      <trkpt lat="49.2501" lon="-0.36356">
        <ele>46.4</ele>
        <time>2023-07-05T14:34:59Z</time>
      </trkpt>
      <trkpt lat="49.25004" lon="-0.36348">
        <ele>46.5</ele>
        <time>2023-07-05T14:35:00Z</time>
      </trkpt>
      <trkpt lat="49.24999" lon="-0.36339">
        <ele>46.5</ele>
        <time>2023-07-05T14:35:01Z</time>
      </trkpt>
      <trkpt lat="49.24994" lon="-0.36331">
        <ele>46.5</ele>
        <time>2023-07-05T14:35:02Z</time>
      </trkpt>
      <trkpt lat="49.24989" lon="-0.36323">
        <ele>46.5</ele>
        <time>2023-07-05T14:35:03Z</time>
      </trkpt>
      <trkpt lat="49.24984" lon="-0.36315">
        <ele>46.5</ele>
        <time>2023-07-05T14:35:04Z</time>
      </trkpt>
      <trkpt lat="49.24978" lon="-0.36307">
        <ele>46.5</ele>
        <time>2023-07-05T14:35:05Z</time>
      </trkpt>
      <trkpt lat="49.24973" lon="-0.36299">
        <ele>46.5</ele>
        <time>2023-07-05T14:35:06Z</time>
      </trkpt>
      <trkpt lat="49.24968" lon="-0.36291">
        <ele>46.5</ele>
        <time>2023-07-05T14:35:07Z</time>
      </trkpt>
      <trkpt lat="49.24963" lon="-0.36282">
        <ele>46.5</ele>
        <time>2023-07-05T14:35:08Z</time>
      </trkpt>
      <trkpt lat="49.24957" lon="-0.36273">
        <ele>46.5</ele>
        <time>2023-07-05T14:35:09Z</time>
      </trkpt>
      <trkpt lat="49.24953" lon="-0.36264">
        <ele>46.5</ele>
        <time>2023-07-05T14:35:10Z</time>
      </trkpt>
      <trkpt lat="49.24948" lon="-0.36256">
        <ele>46.5</ele>
        <time>2023-07-05T14:35:11Z</time>
      </trkpt>
      <trkpt lat="49.24943" lon="-0.36248">
        <ele>46.5</ele>
        <time>2023-07-05T14:35:12Z</time>
      </trkpt>
      <trkpt lat="49.24938" lon="-0.36239">
        <ele>46.5</ele>
        <time>2023-07-05T14:35:13Z</time>
      </trkpt>
      <trkpt lat="49.24932" lon="-0.3623">
        <ele>46.5</ele>
        <time>2023-07-05T14:35:14Z</time>
      </trkpt>
      <trkpt lat="49.24927" lon="-0.36222">
        <ele>46.5</ele>
        <time>2023-07-05T14:35:15Z</time>
      </trkpt>
      <trkpt lat="49.24921" lon="-0.36213">
        <ele>46.5</ele>
        <time>2023-07-05T14:35:16Z</time>
      </trkpt>
      <trkpt lat="49.24916" lon="-0.36205">
        <ele>46.4</ele>
        <time>2023-07-05T14:35:17Z</time>
      </trkpt>
      <trkpt lat="49.24911" lon="-0.36196">
        <ele>46.4</ele>
        <time>2023-07-05T14:35:18Z</time>
      </trkpt>
      <trkpt lat="49.24906" lon="-0.36187">
        <ele>46.3</ele>
        <time>2023-07-05T14:35:19Z</time>
      </trkpt>
      <trkpt lat="49.24901" lon="-0.36177">
        <ele>46.2</ele>
        <time>2023-07-05T14:35:20Z</time>
      </trkpt>
      <trkpt lat="49.24897" lon="-0.36167">
        <ele>46.1</ele>
        <time>2023-07-05T14:35:21Z</time>
      </trkpt>
      <trkpt lat="49.24893" lon="-0.36156">
        <ele>46</ele>
        <time>2023-07-05T14:35:22Z</time>
      </trkpt>
      <trkpt lat="49.24889" lon="-0.36144">
        <ele>45.9</ele>
        <time>2023-07-05T14:35:23Z</time>
      </trkpt>
      <trkpt lat="49.24886" lon="-0.36133">
        <ele>45.8</ele>
        <time>2023-07-05T14:35:24Z</time>
      </trkpt>
      <trkpt lat="49.24882" lon="-0.36122">
        <ele>45.7</ele>
        <time>2023-07-05T14:35:25Z</time>
      </trkpt>
      <trkpt lat="49.24877" lon="-0.36112">
        <ele>45.6</ele>
        <time>2023-07-05T14:35:26Z</time>
      </trkpt>
      <trkpt lat="49.24873" lon="-0.361">
        <ele>45.5</ele>
        <time>2023-07-05T14:35:27Z</time>
      </trkpt>
      <trkpt lat="49.24868" lon="-0.36089">
        <ele>45.3</ele>
        <time>2023-07-05T14:35:28Z</time>
      </trkpt>
      <trkpt lat="49.24863" lon="-0.36077">
        <ele>45.2</ele>
        <time>2023-07-05T14:35:29Z</time>
      </trkpt>
      <trkpt lat="49.24859" lon="-0.36065">
        <ele>45.1</ele>
        <time>2023-07-05T14:35:30Z</time>
      </trkpt>
      <trkpt lat="49.24854" lon="-0.36052">
        <ele>44.9</ele>
        <time>2023-07-05T14:35:31Z</time>
      </trkpt>
      <trkpt lat="49.24849" lon="-0.3604">
        <ele>44.8</ele>
        <time>2023-07-05T14:35:32Z</time>
      </trkpt>
      <trkpt lat="49.24844" lon="-0.36027">
        <ele>44.6</ele>
        <time>2023-07-05T14:35:33Z</time>
      </trkpt>
      <trkpt lat="49.2484" lon="-0.36015">
        <ele>44.5</ele>
        <time>2023-07-05T14:35:34Z</time>
      </trkpt>
      <trkpt lat="49.24835" lon="-0.36003">
        <ele>44.3</ele>
        <time>2023-07-05T14:35:35Z</time>
      </trkpt>
      <trkpt lat="49.24831" lon="-0.3599">
        <ele>44.2</ele>
        <time>2023-07-05T14:35:36Z</time>
      </trkpt>
      <trkpt lat="49.24826" lon="-0.35978">
        <ele>44</ele>
        <time>2023-07-05T14:35:37Z</time>
      </trkpt>
      <trkpt lat="49.24821" lon="-0.35965">
        <ele>43.9</ele>
        <time>2023-07-05T14:35:38Z</time>
      </trkpt>
      <trkpt lat="49.24816" lon="-0.35953">
        <ele>43.7</ele>
        <time>2023-07-05T14:35:39Z</time>
      </trkpt>
      <trkpt lat="49.24811" lon="-0.35942">
        <ele>43.5</ele>
        <time>2023-07-05T14:35:40Z</time>
      </trkpt>
      <trkpt lat="49.24806" lon="-0.35929">
        <ele>43.3</ele>
        <time>2023-07-05T14:35:41Z</time>
      </trkpt>
      <trkpt lat="49.24801" lon="-0.35917">
        <ele>43.2</ele>
        <time>2023-07-05T14:35:42Z</time>
      </trkpt>
      <trkpt lat="49.24796" lon="-0.35905">
        <ele>43</ele>
        <time>2023-07-05T14:35:43Z</time>
      </trkpt>
      <trkpt lat="49.24791" lon="-0.35893">
        <ele>42.9</ele>
        <time>2023-07-05T14:35:44Z</time>
      </trkpt>
      <trkpt lat="49.24787" lon="-0.3588">
        <ele>42.7</ele>
        <time>2023-07-05T14:35:45Z</time>
      </trkpt>
      <trkpt lat="49.24781" lon="-0.35868">
        <ele>42.5</ele>
        <time>2023-07-05T14:35:46Z</time>
      </trkpt>
      <trkpt lat="49.24776" lon="-0.35856">
        <ele>42.3</ele>
        <time>2023-07-05T14:35:47Z</time>
      </trkpt>
      <trkpt lat="49.24771" lon="-0.35843">
        <ele>42.1</ele>
        <time>2023-07-05T14:35:48Z</time>
      </trkpt>
      <trkpt lat="49.24766" lon="-0.35831">
        <ele>41.9</ele>
        <time>2023-07-05T14:35:49Z</time>
      </trkpt>
      <trkpt lat="49.2476" lon="-0.35819">
        <ele>41.7</ele>
        <time>2023-07-05T14:35:50Z</time>
      </trkpt>
      <trkpt lat="49.24756" lon="-0.35807">
        <ele>41.4</ele>
        <time>2023-07-05T14:35:51Z</time>
      </trkpt>
      <trkpt lat="49.24751" lon="-0.35795">
        <ele>41.2</ele>
        <time>2023-07-05T14:35:52Z</time>
      </trkpt>
      <trkpt lat="49.24746" lon="-0.35782">
        <ele>41</ele>
        <time>2023-07-05T14:35:53Z</time>
      </trkpt>
      <trkpt lat="49.24741" lon="-0.35769">
        <ele>40.7</ele>
        <time>2023-07-05T14:35:54Z</time>
      </trkpt>
      <trkpt lat="49.24736" lon="-0.35757">
        <ele>40.4</ele>
        <time>2023-07-05T14:35:55Z</time>
      </trkpt>
      <trkpt lat="49.24731" lon="-0.35745">
        <ele>40.2</ele>
        <time>2023-07-05T14:35:56Z</time>
      </trkpt>
      <trkpt lat="49.24726" lon="-0.35733">
        <ele>40</ele>
        <time>2023-07-05T14:35:57Z</time>
      </trkpt>
      <trkpt lat="49.24721" lon="-0.3572">
        <ele>39.7</ele>
        <time>2023-07-05T14:35:58Z</time>
      </trkpt>
      <trkpt lat="49.24716" lon="-0.35708">
        <ele>39.4</ele>
        <time>2023-07-05T14:35:59Z</time>
      </trkpt>
      <trkpt lat="49.24712" lon="-0.35696">
        <ele>39.1</ele>
        <time>2023-07-05T14:36:00Z</time>
      </trkpt>
      <trkpt lat="49.24707" lon="-0.35683">
        <ele>38.9</ele>
        <time>2023-07-05T14:36:01Z</time>
      </trkpt>
      <trkpt lat="49.24701" lon="-0.3567">
        <ele>38.6</ele>
        <time>2023-07-05T14:36:02Z</time>
      </trkpt>
      <trkpt lat="49.24696" lon="-0.35656">
        <ele>38.3</ele>
        <time>2023-07-05T14:36:03Z</time>
      </trkpt>
      <trkpt lat="49.2469" lon="-0.35641">
        <ele>38</ele>
        <time>2023-07-05T14:36:04Z</time>
      </trkpt>
      <trkpt lat="49.24685" lon="-0.35627">
        <ele>37.6</ele>
        <time>2023-07-05T14:36:05Z</time>
      </trkpt>
      <trkpt lat="49.24679" lon="-0.35613">
        <ele>37.3</ele>
        <time>2023-07-05T14:36:06Z</time>
      </trkpt>
      <trkpt lat="49.24674" lon="-0.35598">
        <ele>36.9</ele>
        <time>2023-07-05T14:36:07Z</time>
      </trkpt>
      <trkpt lat="49.24668" lon="-0.35584">
        <ele>36.6</ele>
        <time>2023-07-05T14:36:08Z</time>
      </trkpt>
      <trkpt lat="49.24662" lon="-0.35569">
        <ele>36.2</ele>
        <time>2023-07-05T14:36:09Z</time>
      </trkpt>
      <trkpt lat="49.24656" lon="-0.35555">
        <ele>35.8</ele>
        <time>2023-07-05T14:36:10Z</time>
      </trkpt>
      <trkpt lat="49.2465" lon="-0.3554">
        <ele>35.4</ele>
        <time>2023-07-05T14:36:11Z</time>
      </trkpt>
      <trkpt lat="49.24644" lon="-0.35525">
        <ele>35</ele>
        <time>2023-07-05T14:36:12Z</time>
      </trkpt>
      <trkpt lat="49.24638" lon="-0.3551">
        <ele>34.7</ele>
        <time>2023-07-05T14:36:13Z</time>
      </trkpt>
      <trkpt lat="49.24632" lon="-0.35494">
        <ele>34.4</ele>
        <time>2023-07-05T14:36:14Z</time>
      </trkpt>
      <trkpt lat="49.24625" lon="-0.35479">
        <ele>34.1</ele>
        <time>2023-07-05T14:36:15Z</time>
      </trkpt>
      <trkpt lat="49.24619" lon="-0.35463">
        <ele>34</ele>
        <time>2023-07-05T14:36:16Z</time>
      </trkpt>
      <trkpt lat="49.24612" lon="-0.35447">
        <ele>33.9</ele>
        <time>2023-07-05T14:36:17Z</time>
      </trkpt>
      <trkpt lat="49.24607" lon="-0.35431">
        <ele>34</ele>
        <time>2023-07-05T14:36:18Z</time>
      </trkpt>
      <trkpt lat="49.24601" lon="-0.35415">
        <ele>34</ele>
        <time>2023-07-05T14:36:19Z</time>
      </trkpt>
      <trkpt lat="49.24595" lon="-0.354">
        <ele>34.2</ele>
        <time>2023-07-05T14:36:20Z</time>
      </trkpt>
      <trkpt lat="49.24588" lon="-0.35384">
        <ele>34.4</ele>
        <time>2023-07-05T14:36:21Z</time>
      </trkpt>
      <trkpt lat="49.24582" lon="-0.35368">
        <ele>34.7</ele>
        <time>2023-07-05T14:36:22Z</time>
      </trkpt>
      <trkpt lat="49.24576" lon="-0.35353">
        <ele>35</ele>
        <time>2023-07-05T14:36:23Z</time>
      </trkpt>
      <trkpt lat="49.24571" lon="-0.35336">
        <ele>35.3</ele>
        <time>2023-07-05T14:36:24Z</time>
      </trkpt>
      <trkpt lat="49.24566" lon="-0.3532">
        <ele>35.7</ele>
        <time>2023-07-05T14:36:25Z</time>
      </trkpt>
      <trkpt lat="49.24561" lon="-0.35304">
        <ele>36</ele>
        <time>2023-07-05T14:36:26Z</time>
      </trkpt>
      <trkpt lat="49.24556" lon="-0.35288">
        <ele>36.3</ele>
        <time>2023-07-05T14:36:27Z</time>
      </trkpt>
      <trkpt lat="49.24551" lon="-0.35272">
        <ele>36.6</ele>
        <time>2023-07-05T14:36:28Z</time>
      </trkpt>
      <trkpt lat="49.24546" lon="-0.35255">
        <ele>36.9</ele>
        <time>2023-07-05T14:36:29Z</time>
      </trkpt>
      <trkpt lat="49.24542" lon="-0.35239">
        <ele>37.2</ele>
        <time>2023-07-05T14:36:30Z</time>
      </trkpt>
      <trkpt lat="49.24537" lon="-0.35224">
        <ele>37.4</ele>
        <time>2023-07-05T14:36:31Z</time>
      </trkpt>
      <trkpt lat="49.24532" lon="-0.35208">
        <ele>37.6</ele>
        <time>2023-07-05T14:36:32Z</time>
      </trkpt>
      <trkpt lat="49.24527" lon="-0.35192">
        <ele>37.8</ele>
        <time>2023-07-05T14:36:33Z</time>
      </trkpt>
      <trkpt lat="49.24522" lon="-0.35176">
        <ele>37.9</ele>
        <time>2023-07-05T14:36:34Z</time>
      </trkpt>
      <trkpt lat="49.24518" lon="-0.3516">
        <ele>37.9</ele>
        <time>2023-07-05T14:36:35Z</time>
      </trkpt>
      <trkpt lat="49.24513" lon="-0.35144">
        <ele>38</ele>
        <time>2023-07-05T14:36:36Z</time>
      </trkpt>
      <trkpt lat="49.24508" lon="-0.35128">
        <ele>38</ele>
        <time>2023-07-05T14:36:37Z</time>
      </trkpt>
      <trkpt lat="49.24503" lon="-0.35112">
        <ele>38</ele>
        <time>2023-07-05T14:36:38Z</time>
      </trkpt>
      <trkpt lat="49.24498" lon="-0.35096">
        <ele>38</ele>
        <time>2023-07-05T14:36:39Z</time>
      </trkpt>
      <trkpt lat="49.24494" lon="-0.35081">
        <ele>37.9</ele>
        <time>2023-07-05T14:36:40Z</time>
      </trkpt>
      <trkpt lat="49.24489" lon="-0.35065">
        <ele>37.8</ele>
        <time>2023-07-05T14:36:41Z</time>
      </trkpt>
      <trkpt lat="49.24485" lon="-0.35048">
        <ele>37.8</ele>
        <time>2023-07-05T14:36:42Z</time>
      </trkpt>
      <trkpt lat="49.24481" lon="-0.35033">
        <ele>37.7</ele>
        <time>2023-07-05T14:36:43Z</time>
      </trkpt>
      <trkpt lat="49.24476" lon="-0.35016">
        <ele>37.6</ele>
        <time>2023-07-05T14:36:44Z</time>
      </trkpt>
      <trkpt lat="49.24473" lon="-0.35">
        <ele>37.5</ele>
        <time>2023-07-05T14:36:45Z</time>
      </trkpt>
      <trkpt lat="49.24469" lon="-0.34982">
        <ele>37.4</ele>
        <time>2023-07-05T14:36:46Z</time>
      </trkpt>
      <trkpt lat="49.24466" lon="-0.34964">
        <ele>37.4</ele>
        <time>2023-07-05T14:36:47Z</time>
      </trkpt>
      <trkpt lat="49.24462" lon="-0.34946">
        <ele>37.3</ele>
        <time>2023-07-05T14:36:48Z</time>
      </trkpt>
      <trkpt lat="49.24459" lon="-0.34927">
        <ele>37.2</ele>
        <time>2023-07-05T14:36:49Z</time>
      </trkpt>
      <trkpt lat="49.24455" lon="-0.34909">
        <ele>37.1</ele>
        <time>2023-07-05T14:36:50Z</time>
      </trkpt>
      <trkpt lat="49.24451" lon="-0.3489">
        <ele>37</ele>
        <time>2023-07-05T14:36:51Z</time>
      </trkpt>
      <trkpt lat="49.24448" lon="-0.34872">
        <ele>36.9</ele>
        <time>2023-07-05T14:36:52Z</time>
      </trkpt>
      <trkpt lat="49.24444" lon="-0.34853">
        <ele>36.8</ele>
        <time>2023-07-05T14:36:53Z</time>
      </trkpt>
      <trkpt lat="49.2444" lon="-0.34835">
        <ele>36.7</ele>
        <time>2023-07-05T14:36:54Z</time>
      </trkpt>
      <trkpt lat="49.24436" lon="-0.34817">
        <ele>36.6</ele>
        <time>2023-07-05T14:36:55Z</time>
      </trkpt>
      <trkpt lat="49.24433" lon="-0.34799">
        <ele>36.5</ele>
        <time>2023-07-05T14:36:56Z</time>
      </trkpt>
      <trkpt lat="49.24429" lon="-0.34781">
        <ele>36.5</ele>
        <time>2023-07-05T14:36:57Z</time>
      </trkpt>
      <trkpt lat="49.24425" lon="-0.34764">
        <ele>36.4</ele>
        <time>2023-07-05T14:36:58Z</time>
      </trkpt>
      <trkpt lat="49.24422" lon="-0.34747">
        <ele>36.3</ele>
        <time>2023-07-05T14:36:59Z</time>
      </trkpt>
      <trkpt lat="49.24418" lon="-0.34731">
        <ele>36.2</ele>
        <time>2023-07-05T14:37:00Z</time>
      </trkpt>
      <trkpt lat="49.24414" lon="-0.34715">
        <ele>36.1</ele>
        <time>2023-07-05T14:37:01Z</time>
      </trkpt>
      <trkpt lat="49.2441" lon="-0.34698">
        <ele>36.1</ele>
        <time>2023-07-05T14:37:02Z</time>
      </trkpt>
      <trkpt lat="49.24406" lon="-0.34681">
        <ele>35.9</ele>
        <time>2023-07-05T14:37:03Z</time>
      </trkpt>
      <trkpt lat="49.24401" lon="-0.34664">
        <ele>35.8</ele>
        <time>2023-07-05T14:37:04Z</time>
      </trkpt>
      <trkpt lat="49.24397" lon="-0.34647">
        <ele>35.7</ele>
        <time>2023-07-05T14:37:05Z</time>
      </trkpt>
      <trkpt lat="49.24393" lon="-0.3463">
        <ele>35.5</ele>
        <time>2023-07-05T14:37:06Z</time>
      </trkpt>
      <trkpt lat="49.24389" lon="-0.34613">
        <ele>35.3</ele>
        <time>2023-07-05T14:37:07Z</time>
      </trkpt>
      <trkpt lat="49.24385" lon="-0.34596">
        <ele>35.1</ele>
        <time>2023-07-05T14:37:08Z</time>
      </trkpt>
      <trkpt lat="49.2438" lon="-0.34579">
        <ele>34.9</ele>
        <time>2023-07-05T14:37:09Z</time>
      </trkpt>
      <trkpt lat="49.24375" lon="-0.34562">
        <ele>34.6</ele>
        <time>2023-07-05T14:37:10Z</time>
      </trkpt>
      <trkpt lat="49.24371" lon="-0.34545">
        <ele>34.3</ele>
        <time>2023-07-05T14:37:11Z</time>
      </trkpt>
      <trkpt lat="49.24367" lon="-0.34528">
        <ele>34</ele>
        <time>2023-07-05T14:37:12Z</time>
      </trkpt>
      <trkpt lat="49.24363" lon="-0.3451">
        <ele>33.7</ele>
        <time>2023-07-05T14:37:13Z</time>
      </trkpt>
      <trkpt lat="49.24359" lon="-0.34493">
        <ele>33.3</ele>
        <time>2023-07-05T14:37:14Z</time>
      </trkpt>
      <trkpt lat="49.24354" lon="-0.34476">
        <ele>33</ele>
        <time>2023-07-05T14:37:15Z</time>
      </trkpt>
      <trkpt lat="49.2435" lon="-0.34459">
        <ele>32.6</ele>
        <time>2023-07-05T14:37:16Z</time>
      </trkpt>
      <trkpt lat="49.24345" lon="-0.34442">
        <ele>32.3</ele>
        <time>2023-07-05T14:37:17Z</time>
      </trkpt>
      <trkpt lat="49.24341" lon="-0.34424">
        <ele>31.9</ele>
        <time>2023-07-05T14:37:18Z</time>
      </trkpt>
      <trkpt lat="49.24337" lon="-0.34407">
        <ele>31.5</ele>
        <time>2023-07-05T14:37:19Z</time>
      </trkpt>
      <trkpt lat="49.24333" lon="-0.34389">
        <ele>31.1</ele>
        <time>2023-07-05T14:37:20Z</time>
      </trkpt>
      <trkpt lat="49.24329" lon="-0.34372">
        <ele>30.7</ele>
        <time>2023-07-05T14:37:21Z</time>
      </trkpt>
      <trkpt lat="49.24326" lon="-0.34355">
        <ele>30.4</ele>
        <time>2023-07-05T14:37:22Z</time>
      </trkpt>
      <trkpt lat="49.24323" lon="-0.34338">
        <ele>30</ele>
        <time>2023-07-05T14:37:23Z</time>
      </trkpt>
      <trkpt lat="49.24321" lon="-0.3432">
        <ele>29.6</ele>
        <time>2023-07-05T14:37:24Z</time>
      </trkpt>
      <trkpt lat="49.24319" lon="-0.34303">
        <ele>29.3</ele>
        <time>2023-07-05T14:37:25Z</time>
      </trkpt>
      <trkpt lat="49.24318" lon="-0.34285">
        <ele>29.1</ele>
        <time>2023-07-05T14:37:26Z</time>
      </trkpt>
      <trkpt lat="49.24317" lon="-0.34268">
        <ele>28.8</ele>
        <time>2023-07-05T14:37:27Z</time>
      </trkpt>
      <trkpt lat="49.24318" lon="-0.34252">
        <ele>28.7</ele>
        <time>2023-07-05T14:37:28Z</time>
      </trkpt>
      <trkpt lat="49.24319" lon="-0.34235">
        <ele>28.5</ele>
        <time>2023-07-05T14:37:29Z</time>
      </trkpt>
      <trkpt lat="49.24321" lon="-0.34219">
        <ele>28.3</ele>
        <time>2023-07-05T14:37:30Z</time>
      </trkpt>
      <trkpt lat="49.24322" lon="-0.34203">
        <ele>28.2</ele>
        <time>2023-07-05T14:37:31Z</time>
      </trkpt>
      <trkpt lat="49.24324" lon="-0.34187">
        <ele>28</ele>
        <time>2023-07-05T14:37:32Z</time>
      </trkpt>
      <trkpt lat="49.24326" lon="-0.3417">
        <ele>27.9</ele>
        <time>2023-07-05T14:37:33Z</time>
      </trkpt>
      <trkpt lat="49.24328" lon="-0.34153">
        <ele>27.7</ele>
        <time>2023-07-05T14:37:34Z</time>
      </trkpt>
      <trkpt lat="49.24331" lon="-0.34136">
        <ele>27.6</ele>
        <time>2023-07-05T14:37:35Z</time>
      </trkpt>
      <trkpt lat="49.24334" lon="-0.34119">
        <ele>27.5</ele>
        <time>2023-07-05T14:37:36Z</time>
      </trkpt>
      <trkpt lat="49.24336" lon="-0.34102">
        <ele>27.4</ele>
        <time>2023-07-05T14:37:37Z</time>
      </trkpt>
      <trkpt lat="49.24338" lon="-0.34084">
        <ele>27.3</ele>
        <time>2023-07-05T14:37:38Z</time>
      </trkpt>
      <trkpt lat="49.24341" lon="-0.34067">
        <ele>27.3</ele>
        <time>2023-07-05T14:37:39Z</time>
      </trkpt>
      <trkpt lat="49.24343" lon="-0.34049">
        <ele>27.2</ele>
        <time>2023-07-05T14:37:40Z</time>
      </trkpt>
      <trkpt lat="49.24346" lon="-0.34031">
        <ele>27.2</ele>
        <time>2023-07-05T14:37:41Z</time>
      </trkpt>
      <trkpt lat="49.24348" lon="-0.34012">
        <ele>27.2</ele>
        <time>2023-07-05T14:37:42Z</time>
      </trkpt>
      <trkpt lat="49.24351" lon="-0.33993">
        <ele>27.2</ele>
        <time>2023-07-05T14:37:43Z</time>
      </trkpt>
      <trkpt lat="49.24353" lon="-0.33974">
        <ele>27.2</ele>
        <time>2023-07-05T14:37:44Z</time>
      </trkpt>
      <trkpt lat="49.24355" lon="-0.33954">
        <ele>27.1</ele>
        <time>2023-07-05T14:37:45Z</time>
      </trkpt>
      <trkpt lat="49.24358" lon="-0.33935">
        <ele>27.1</ele>
        <time>2023-07-05T14:37:46Z</time>
      </trkpt>
      <trkpt lat="49.2436" lon="-0.33915">
        <ele>27</ele>
        <time>2023-07-05T14:37:47Z</time>
      </trkpt>
      <trkpt lat="49.24362" lon="-0.33895">
        <ele>27</ele>
        <time>2023-07-05T14:37:48Z</time>
      </trkpt>
      <trkpt lat="49.24364" lon="-0.33875">
        <ele>27</ele>
        <time>2023-07-05T14:37:49Z</time>
      </trkpt>
      <trkpt lat="49.24365" lon="-0.33855">
        <ele>26.9</ele>
        <time>2023-07-05T14:37:50Z</time>
      </trkpt>
      <trkpt lat="49.24367" lon="-0.33834">
        <ele>26.9</ele>
        <time>2023-07-05T14:37:51Z</time>
      </trkpt>
      <trkpt lat="49.24368" lon="-0.33814">
        <ele>26.9</ele>
        <time>2023-07-05T14:37:52Z</time>
      </trkpt>
      <trkpt lat="49.24369" lon="-0.33794">
        <ele>26.9</ele>
        <time>2023-07-05T14:37:53Z</time>
      </trkpt>
      <trkpt lat="49.2437" lon="-0.33774">
        <ele>26.9</ele>
        <time>2023-07-05T14:37:54Z</time>
      </trkpt>
      <trkpt lat="49.24371" lon="-0.33755">
        <ele>26.9</ele>
        <time>2023-07-05T14:37:55Z</time>
      </trkpt>
      <trkpt lat="49.24371" lon="-0.33735">
        <ele>26.8</ele>
        <time>2023-07-05T14:37:56Z</time>
      </trkpt>
      <trkpt lat="49.24372" lon="-0.33715">
        <ele>26.8</ele>
        <time>2023-07-05T14:37:57Z</time>
      </trkpt>
      <trkpt lat="49.24373" lon="-0.33696">
        <ele>26.8</ele>
        <time>2023-07-05T14:37:58Z</time>
      </trkpt>
      <trkpt lat="49.24373" lon="-0.33678">
        <ele>26.8</ele>
        <time>2023-07-05T14:37:59Z</time>
      </trkpt>
      <trkpt lat="49.24373" lon="-0.3366">
        <ele>26.8</ele>
        <time>2023-07-05T14:38:00Z</time>
      </trkpt>
      <trkpt lat="49.24374" lon="-0.33643">
        <ele>26.8</ele>
        <time>2023-07-05T14:38:01Z</time>
      </trkpt>
      <trkpt lat="49.24374" lon="-0.33625">
        <ele>26.7</ele>
        <time>2023-07-05T14:38:02Z</time>
      </trkpt>
      <trkpt lat="49.24373" lon="-0.3361">
        <ele>26.7</ele>
        <time>2023-07-05T14:38:03Z</time>
      </trkpt>
      <trkpt lat="49.24371" lon="-0.33595">
        <ele>26.6</ele>
        <time>2023-07-05T14:38:04Z</time>
      </trkpt>
      <trkpt lat="49.24367" lon="-0.33582">
        <ele>26.5</ele>
        <time>2023-07-05T14:38:05Z</time>
      </trkpt>
      <trkpt lat="49.24363" lon="-0.33569">
        <ele>26.4</ele>
        <time>2023-07-05T14:38:06Z</time>
      </trkpt>
      <trkpt lat="49.2436" lon="-0.33556">
        <ele>26.4</ele>
        <time>2023-07-05T14:38:07Z</time>
      </trkpt>
      <trkpt lat="49.24361" lon="-0.33542">
        <ele>26.4</ele>
        <time>2023-07-05T14:38:08Z</time>
      </trkpt>
      <trkpt lat="49.24365" lon="-0.3353">
        <ele>26.4</ele>
        <time>2023-07-05T14:38:09Z</time>
      </trkpt>
      <trkpt lat="49.24369" lon="-0.33518">
        <ele>26.3</ele>
        <time>2023-07-05T14:38:10Z</time>
      </trkpt>
      <trkpt lat="49.24372" lon="-0.33505">
        <ele>26.2</ele>
        <time>2023-07-05T14:38:11Z</time>
      </trkpt>
      <trkpt lat="49.24372" lon="-0.33492">
        <ele>26.1</ele>
        <time>2023-07-05T14:38:12Z</time>
      </trkpt>
      <trkpt lat="49.24372" lon="-0.33479">
        <ele>26.1</ele>
        <time>2023-07-05T14:38:13Z</time>
      </trkpt>
      <trkpt lat="49.24373" lon="-0.33466">
        <ele>26</ele>
        <time>2023-07-05T14:38:14Z</time>
      </trkpt>
      <trkpt lat="49.24373" lon="-0.33453">
        <ele>26</ele>
        <time>2023-07-05T14:38:15Z</time>
      </trkpt>
      <trkpt lat="49.24373" lon="-0.3344">
        <ele>25.9</ele>
        <time>2023-07-05T14:38:16Z</time>
      </trkpt>
      <trkpt lat="49.24372" lon="-0.33427">
        <ele>25.9</ele>
        <time>2023-07-05T14:38:17Z</time>
      </trkpt>
      <trkpt lat="49.24372" lon="-0.33414">
        <ele>25.8</ele>
        <time>2023-07-05T14:38:18Z</time>
      </trkpt>
      <trkpt lat="49.24371" lon="-0.33401">
        <ele>25.8</ele>
        <time>2023-07-05T14:38:19Z</time>
      </trkpt>
      <trkpt lat="49.2437" lon="-0.33388">
        <ele>25.7</ele>
        <time>2023-07-05T14:38:20Z</time>
      </trkpt>
      <trkpt lat="49.24369" lon="-0.33375">
        <ele>25.7</ele>
        <time>2023-07-05T14:38:21Z</time>
      </trkpt>
      <trkpt lat="49.24368" lon="-0.33362">
        <ele>25.6</ele>
        <time>2023-07-05T14:38:22Z</time>
      </trkpt>
      <trkpt lat="49.24367" lon="-0.3335">
        <ele>25.6</ele>
        <time>2023-07-05T14:38:23Z</time>
      </trkpt>
      <trkpt lat="49.24367" lon="-0.33337">
        <ele>25.6</ele>
        <time>2023-07-05T14:38:24Z</time>
      </trkpt>
      <trkpt lat="49.24366" lon="-0.33325">
        <ele>25.5</ele>
        <time>2023-07-05T14:38:25Z</time>
      </trkpt>
      <trkpt lat="49.24365" lon="-0.33312">
        <ele>25.5</ele>
        <time>2023-07-05T14:38:26Z</time>
      </trkpt>
      <trkpt lat="49.24364" lon="-0.333">
        <ele>25.4</ele>
        <time>2023-07-05T14:38:27Z</time>
      </trkpt>
      <trkpt lat="49.24362" lon="-0.33287">
        <ele>25.3</ele>
        <time>2023-07-05T14:38:28Z</time>
      </trkpt>
      <trkpt lat="49.24361" lon="-0.33275">
        <ele>25.3</ele>
        <time>2023-07-05T14:38:29Z</time>
      </trkpt>
      <trkpt lat="49.24359" lon="-0.33262">
        <ele>25.2</ele>
        <time>2023-07-05T14:38:30Z</time>
      </trkpt>
      <trkpt lat="49.24358" lon="-0.33251">
        <ele>25.2</ele>
        <time>2023-07-05T14:38:31Z</time>
      </trkpt>
      <trkpt lat="49.24358" lon="-0.33239">
        <ele>25.1</ele>
        <time>2023-07-05T14:38:32Z</time>
      </trkpt>
      <trkpt lat="49.24358" lon="-0.33228">
        <ele>25.1</ele>
        <time>2023-07-05T14:38:33Z</time>
      </trkpt>
      <trkpt lat="49.24358" lon="-0.33218">
        <ele>25.1</ele>
        <time>2023-07-05T14:38:34Z</time>
      </trkpt>
      <trkpt lat="49.24357" lon="-0.33208">
        <ele>25</ele>
        <time>2023-07-05T14:38:35Z</time>
      </trkpt>
      <trkpt lat="49.24356" lon="-0.33198">
        <ele>25</ele>
        <time>2023-07-05T14:38:36Z</time>
      </trkpt>
      <trkpt lat="49.24355" lon="-0.33189">
        <ele>24.9</ele>
        <time>2023-07-05T14:38:37Z</time>
      </trkpt>
      <trkpt lat="49.24354" lon="-0.33179">
        <ele>24.9</ele>
        <time>2023-07-05T14:38:38Z</time>
      </trkpt>
      <trkpt lat="49.24353" lon="-0.33169">
        <ele>24.8</ele>
        <time>2023-07-05T14:38:39Z</time>
      </trkpt>
      <trkpt lat="49.24352" lon="-0.33159">
        <ele>24.8</ele>
        <time>2023-07-05T14:38:40Z</time>
      </trkpt>
      <trkpt lat="49.24351" lon="-0.33149">
        <ele>24.8</ele>
        <time>2023-07-05T14:38:41Z</time>
      </trkpt>
      <trkpt lat="49.24351" lon="-0.33139">
        <ele>24.8</ele>
        <time>2023-07-05T14:38:42Z</time>
      </trkpt>
      <trkpt lat="49.24351" lon="-0.33129">
        <ele>24.8</ele>
        <time>2023-07-05T14:38:43Z</time>
      </trkpt>
      <trkpt lat="49.24351" lon="-0.33119">
        <ele>24.7</ele>
        <time>2023-07-05T14:38:44Z</time>
      </trkpt>
      <trkpt lat="49.24351" lon="-0.33109">
        <ele>24.6</ele>
        <time>2023-07-05T14:38:45Z</time>
      </trkpt>
      <trkpt lat="49.24352" lon="-0.33099">
        <ele>24.5</ele>
        <time>2023-07-05T14:38:46Z</time>
      </trkpt>
      <trkpt lat="49.24353" lon="-0.33089">
        <ele>24.4</ele>
        <time>2023-07-05T14:38:47Z</time>
      </trkpt>
      <trkpt lat="49.24355" lon="-0.33079">
        <ele>24.3</ele>
        <time>2023-07-05T14:38:48Z</time>
      </trkpt>
      <trkpt lat="49.24357" lon="-0.33069">
        <ele>24.2</ele>
        <time>2023-07-05T14:38:49Z</time>
      </trkpt>
      <trkpt lat="49.24359" lon="-0.33059">
        <ele>24.2</ele>
        <time>2023-07-05T14:38:50Z</time>
      </trkpt>
      <trkpt lat="49.24361" lon="-0.3305">
        <ele>24.1</ele>
        <time>2023-07-05T14:38:51Z</time>
      </trkpt>
      <trkpt lat="49.24363" lon="-0.33041">
        <ele>24.1</ele>
        <time>2023-07-05T14:38:52Z</time>
      </trkpt>
      <trkpt lat="49.24364" lon="-0.33032">
        <ele>24</ele>
        <time>2023-07-05T14:38:53Z</time>
      </trkpt>
      <trkpt lat="49.24366" lon="-0.33022">
        <ele>24</ele>
        <time>2023-07-05T14:38:54Z</time>
      </trkpt>
      <trkpt lat="49.24368" lon="-0.33013">
        <ele>23.9</ele>
        <time>2023-07-05T14:38:55Z</time>
      </trkpt>
      <trkpt lat="49.2437" lon="-0.33004">
        <ele>23.9</ele>
        <time>2023-07-05T14:38:56Z</time>
      </trkpt>
      <trkpt lat="49.24372" lon="-0.32995">
        <ele>23.8</ele>
        <time>2023-07-05T14:38:57Z</time>
      </trkpt>
      <trkpt lat="49.24374" lon="-0.32985">
        <ele>23.8</ele>
        <time>2023-07-05T14:38:58Z</time>
      </trkpt>
      <trkpt lat="49.24376" lon="-0.32977">
        <ele>23.7</ele>
        <time>2023-07-05T14:38:59Z</time>
      </trkpt>
      <trkpt lat="49.24378" lon="-0.32969">
        <ele>23.7</ele>
        <time>2023-07-05T14:39:00Z</time>
      </trkpt>
      <trkpt lat="49.24379" lon="-0.3296">
        <ele>23.7</ele>
        <time>2023-07-05T14:39:01Z</time>
      </trkpt>
      <trkpt lat="49.24381" lon="-0.32953">
        <ele>23.6</ele>
        <time>2023-07-05T14:39:02Z</time>
      </trkpt>
      <trkpt lat="49.24381" lon="-0.32945">
        <ele>23.6</ele>
        <time>2023-07-05T14:39:03Z</time>
      </trkpt>
      <trkpt lat="49.24382" lon="-0.32938">
        <ele>23.6</ele>
        <time>2023-07-05T14:39:04Z</time>
      </trkpt>
      <trkpt lat="49.24382" lon="-0.32932">
        <ele>23.6</ele>
        <time>2023-07-05T14:39:05Z</time>
      </trkpt>
      <trkpt lat="49.24382" lon="-0.32926">
        <ele>23.6</ele>
        <time>2023-07-05T14:39:06Z</time>
      </trkpt>
      <trkpt lat="49.24382" lon="-0.3292">
        <ele>23.6</ele>
        <time>2023-07-05T14:39:07Z</time>
      </trkpt>
      <trkpt lat="49.24382" lon="-0.32914">
        <ele>23.6</ele>
        <time>2023-07-05T14:39:08Z</time>
      </trkpt>
      <trkpt lat="49.24383" lon="-0.32908">
        <ele>23.6</ele>
        <time>2023-07-05T14:39:09Z</time>
      </trkpt>
      <trkpt lat="49.24383" lon="-0.32901">
        <ele>23.6</ele>
        <time>2023-07-05T14:39:10Z</time>
      </trkpt>
      <trkpt lat="49.24382" lon="-0.32895">
        <ele>23.6</ele>
        <time>2023-07-05T14:39:11Z</time>
      </trkpt>
      <trkpt lat="49.2438" lon="-0.3289">
        <ele>23.6</ele>
        <time>2023-07-05T14:39:12Z</time>
      </trkpt>
      <trkpt lat="49.24376" lon="-0.32887">
        <ele>23.7</ele>
        <time>2023-07-05T14:39:13Z</time>
      </trkpt>
      <trkpt lat="49.24372" lon="-0.32884">
        <ele>23.7</ele>
        <time>2023-07-05T14:39:14Z</time>
      </trkpt>
      <trkpt lat="49.24368" lon="-0.32881">
        <ele>23.8</ele>
        <time>2023-07-05T14:39:15Z</time>
      </trkpt>
      <trkpt lat="49.24364" lon="-0.32877">
        <ele>23.8</ele>
        <time>2023-07-05T14:39:16Z</time>
      </trkpt>
      <trkpt lat="49.2436" lon="-0.32873">
        <ele>23.9</ele>
        <time>2023-07-05T14:39:17Z</time>
      </trkpt>
      <trkpt lat="49.24356" lon="-0.32869">
        <ele>23.9</ele>
        <time>2023-07-05T14:39:18Z</time>
      </trkpt>
      <trkpt lat="49.24352" lon="-0.32866">
        <ele>24</ele>
        <time>2023-07-05T14:39:19Z</time>
      </trkpt>
      <trkpt lat="49.24348" lon="-0.32861">
        <ele>24</ele>
        <time>2023-07-05T14:39:20Z</time>
      </trkpt>
      <trkpt lat="49.24344" lon="-0.32856">
        <ele>24</ele>
        <time>2023-07-05T14:39:21Z</time>
      </trkpt>
      <trkpt lat="49.2434" lon="-0.32851">
        <ele>24.1</ele>
        <time>2023-07-05T14:39:22Z</time>
      </trkpt>
      <trkpt lat="49.24336" lon="-0.32847">
        <ele>24.1</ele>
        <time>2023-07-05T14:39:23Z</time>
      </trkpt>
      <trkpt lat="49.24332" lon="-0.32843">
        <ele>24.1</ele>
        <time>2023-07-05T14:39:24Z</time>
      </trkpt>
      <trkpt lat="49.24327" lon="-0.32838">
        <ele>24.1</ele>
        <time>2023-07-05T14:39:25Z</time>
      </trkpt>
      <trkpt lat="49.24324" lon="-0.32833">
        <ele>24.1</ele>
        <time>2023-07-05T14:39:26Z</time>
      </trkpt>
      <trkpt lat="49.2432" lon="-0.32828">
        <ele>24.1</ele>
        <time>2023-07-05T14:39:27Z</time>
      </trkpt>
      <trkpt lat="49.24315" lon="-0.32824">
        <ele>24.1</ele>
        <time>2023-07-05T14:39:28Z</time>
      </trkpt>
      <trkpt lat="49.24311" lon="-0.3282">
        <ele>24.2</ele>
        <time>2023-07-05T14:39:29Z</time>
      </trkpt>
      <trkpt lat="49.24307" lon="-0.32815">
        <ele>24.2</ele>
        <time>2023-07-05T14:39:30Z</time>
      </trkpt>
      <trkpt lat="49.24303" lon="-0.3281">
        <ele>24.2</ele>
        <time>2023-07-05T14:39:31Z</time>
      </trkpt>
      <trkpt lat="49.24299" lon="-0.32804">
        <ele>24.1</ele>
        <time>2023-07-05T14:39:32Z</time>
      </trkpt>
      <trkpt lat="49.24294" lon="-0.328">
        <ele>24.1</ele>
        <time>2023-07-05T14:39:33Z</time>
      </trkpt>
      <trkpt lat="49.24289" lon="-0.32797">
        <ele>24.1</ele>
        <time>2023-07-05T14:39:34Z</time>
      </trkpt>
      <trkpt lat="49.24285" lon="-0.32793">
        <ele>24.1</ele>
        <time>2023-07-05T14:39:35Z</time>
      </trkpt>
      <trkpt lat="49.24281" lon="-0.32788">
        <ele>24.1</ele>
        <time>2023-07-05T14:39:36Z</time>
      </trkpt>
      <trkpt lat="49.24277" lon="-0.32784">
        <ele>24.1</ele>
        <time>2023-07-05T14:39:37Z</time>
      </trkpt>
      <trkpt lat="49.24274" lon="-0.3278">
        <ele>24.1</ele>
        <time>2023-07-05T14:39:38Z</time>
      </trkpt>
      <trkpt lat="49.24271" lon="-0.32777">
        <ele>24.1</ele>
        <time>2023-07-05T14:39:39Z</time>
      </trkpt>
      <trkpt lat="49.24268" lon="-0.32774">
        <ele>24</ele>
        <time>2023-07-05T14:39:40Z</time>
      </trkpt>
      <trkpt lat="49.24265" lon="-0.32771">
        <ele>24</ele>
        <time>2023-07-05T14:39:41Z</time>
      </trkpt>
      <trkpt lat="49.24263" lon="-0.32769">
        <ele>24</ele>
        <time>2023-07-05T14:39:42Z</time>
      </trkpt>
      <trkpt lat="49.2426" lon="-0.32765">
        <ele>24</ele>
        <time>2023-07-05T14:39:43Z</time>
      </trkpt>
      <trkpt lat="49.24258" lon="-0.32764">
        <ele>24</ele>
        <time>2023-07-05T14:39:44Z</time>
      </trkpt>
      <trkpt lat="49.24255" lon="-0.3276">
        <ele>24</ele>
        <time>2023-07-05T14:39:45Z</time>
      </trkpt>
      <trkpt lat="49.24254" lon="-0.32759">
        <ele>24</ele>
        <time>2023-07-05T14:39:46Z</time>
      </trkpt>
      <trkpt lat="49.24251" lon="-0.32756">
        <ele>24</ele>
        <time>2023-07-05T14:39:47Z</time>
      </trkpt>
      <trkpt lat="49.2425" lon="-0.32754">
        <ele>24</ele>
        <time>2023-07-05T14:39:48Z</time>
      </trkpt>
      <trkpt lat="49.24248" lon="-0.32751">
        <ele>24.1</ele>
        <time>2023-07-05T14:39:49Z</time>
      </trkpt>
      <trkpt lat="49.24247" lon="-0.3275">
        <ele>24.1</ele>
        <time>2023-07-05T14:39:50Z</time>
      </trkpt>
      <trkpt lat="49.24245" lon="-0.32748">
        <ele>24.1</ele>
        <time>2023-07-05T14:39:51Z</time>
      </trkpt>
      <trkpt lat="49.24244" lon="-0.32748">
        <ele>24.1</ele>
        <time>2023-07-05T14:39:52Z</time>
      </trkpt>
      <trkpt lat="49.24242" lon="-0.32743">
        <ele>24</ele>
        <time>2023-07-05T14:39:53Z</time>
      </trkpt>
      <trkpt lat="49.24241" lon="-0.32742">
        <ele>24</ele>
        <time>2023-07-05T14:39:54Z</time>
      </trkpt>
      <trkpt lat="49.24242" lon="-0.32736">
        <ele>23.8</ele>
        <time>2023-07-05T14:39:55Z</time>
      </trkpt>
      <trkpt lat="49.24244" lon="-0.32731">
        <ele>23.5</ele>
        <time>2023-07-05T14:39:56Z</time>
      </trkpt>
      <trkpt lat="49.24247" lon="-0.32725">
        <ele>23.2</ele>
        <time>2023-07-05T14:39:57Z</time>
      </trkpt>
      <trkpt lat="49.24251" lon="-0.32719">
        <ele>22.8</ele>
        <time>2023-07-05T14:39:58Z</time>
      </trkpt>
      <trkpt lat="49.24257" lon="-0.32713">
        <ele>22.2</ele>
        <time>2023-07-05T14:39:59Z</time>
      </trkpt>
      <trkpt lat="49.24262" lon="-0.32706">
        <ele>21.2</ele>
        <time>2023-07-05T14:40:00Z</time>
      </trkpt>
      <trkpt lat="49.24269" lon="-0.32697">
        <ele>20.4</ele>
        <time>2023-07-05T14:40:01Z</time>
      </trkpt>
      <trkpt lat="49.24274" lon="-0.32689">
        <ele>19.6</ele>
        <time>2023-07-05T14:40:02Z</time>
      </trkpt>
      <trkpt lat="49.24279" lon="-0.32679">
        <ele>18.8</ele>
        <time>2023-07-05T14:40:03Z</time>
      </trkpt>
      <trkpt lat="49.24284" lon="-0.32669">
        <ele>18.1</ele>
        <time>2023-07-05T14:40:04Z</time>
      </trkpt>
      <trkpt lat="49.24289" lon="-0.32657">
        <ele>17.3</ele>
        <time>2023-07-05T14:40:05Z</time>
      </trkpt>
      <trkpt lat="49.24294" lon="-0.32644">
        <ele>16.7</ele>
        <time>2023-07-05T14:40:06Z</time>
      </trkpt>
      <trkpt lat="49.24298" lon="-0.32629">
        <ele>16.1</ele>
        <time>2023-07-05T14:40:07Z</time>
      </trkpt>
      <trkpt lat="49.24302" lon="-0.32614">
        <ele>15.5</ele>
        <time>2023-07-05T14:40:08Z</time>
      </trkpt>
      <trkpt lat="49.24306" lon="-0.32599">
        <ele>15</ele>
        <time>2023-07-05T14:40:09Z</time>
      </trkpt>
      <trkpt lat="49.2431" lon="-0.32585">
        <ele>14.6</ele>
        <time>2023-07-05T14:40:10Z</time>
      </trkpt>
      <trkpt lat="49.24314" lon="-0.32573">
        <ele>14.3</ele>
        <time>2023-07-05T14:40:11Z</time>
      </trkpt>
      <trkpt lat="49.24319" lon="-0.32561">
        <ele>14.1</ele>
        <time>2023-07-05T14:40:12Z</time>
      </trkpt>
      <trkpt lat="49.24324" lon="-0.32551">
        <ele>13.9</ele>
        <time>2023-07-05T14:40:13Z</time>
      </trkpt>
      <trkpt lat="49.24328" lon="-0.32541">
        <ele>13.8</ele>
        <time>2023-07-05T14:40:14Z</time>
      </trkpt>
      <trkpt lat="49.24333" lon="-0.3253">
        <ele>13.7</ele>
        <time>2023-07-05T14:40:15Z</time>
      </trkpt>
      <trkpt lat="49.24336" lon="-0.32519">
        <ele>13.8</ele>
        <time>2023-07-05T14:40:16Z</time>
      </trkpt>
      <trkpt lat="49.24336" lon="-0.32508">
        <ele>14</ele>
        <time>2023-07-05T14:40:17Z</time>
      </trkpt>
      <trkpt lat="49.24336" lon="-0.32496">
        <ele>14.3</ele>
        <time>2023-07-05T14:40:18Z</time>
      </trkpt>
      <trkpt lat="49.24334" lon="-0.32486">
        <ele>14.6</ele>
        <time>2023-07-05T14:40:19Z</time>
      </trkpt>
      <trkpt lat="49.24331" lon="-0.32476">
        <ele>14.9</ele>
        <time>2023-07-05T14:40:20Z</time>
      </trkpt>
      <trkpt lat="49.24327" lon="-0.32469">
        <ele>15.1</ele>
        <time>2023-07-05T14:40:21Z</time>
      </trkpt>
      <trkpt lat="49.24323" lon="-0.32463">
        <ele>15.2</ele>
        <time>2023-07-05T14:40:22Z</time>
      </trkpt>
      <trkpt lat="49.24318" lon="-0.32458">
        <ele>15.3</ele>
        <time>2023-07-05T14:40:23Z</time>
      </trkpt>
      <trkpt lat="49.24313" lon="-0.32455">
        <ele>15.5</ele>
        <time>2023-07-05T14:40:24Z</time>
      </trkpt>
      <trkpt lat="49.24308" lon="-0.32453">
        <ele>15.7</ele>
        <time>2023-07-05T14:40:25Z</time>
      </trkpt>
      <trkpt lat="49.24303" lon="-0.32451">
        <ele>15.9</ele>
        <time>2023-07-05T14:40:26Z</time>
      </trkpt>
      <trkpt lat="49.24299" lon="-0.32448">
        <ele>16.1</ele>
        <time>2023-07-05T14:40:27Z</time>
      </trkpt>
      <trkpt lat="49.24294" lon="-0.32445">
        <ele>16.3</ele>
        <time>2023-07-05T14:40:28Z</time>
      </trkpt>
      <trkpt lat="49.24289" lon="-0.32443">
        <ele>16.5</ele>
        <time>2023-07-05T14:40:29Z</time>
      </trkpt>
      <trkpt lat="49.24284" lon="-0.3244">
        <ele>16.7</ele>
        <time>2023-07-05T14:40:30Z</time>
      </trkpt>
      <trkpt lat="49.2428" lon="-0.32437">
        <ele>16.9</ele>
        <time>2023-07-05T14:40:31Z</time>
      </trkpt>
      <trkpt lat="49.24275" lon="-0.32434">
        <ele>17.2</ele>
        <time>2023-07-05T14:40:32Z</time>
      </trkpt>
      <trkpt lat="49.24271" lon="-0.32431">
        <ele>17.4</ele>
        <time>2023-07-05T14:40:33Z</time>
      </trkpt>
      <trkpt lat="49.24267" lon="-0.32427">
        <ele>17.5</ele>
        <time>2023-07-05T14:40:34Z</time>
      </trkpt>
      <trkpt lat="49.24264" lon="-0.32422">
        <ele>17.7</ele>
        <time>2023-07-05T14:40:35Z</time>
      </trkpt>
      <trkpt lat="49.24261" lon="-0.32417">
        <ele>17.9</ele>
        <time>2023-07-05T14:40:36Z</time>
      </trkpt>
      <trkpt lat="49.24257" lon="-0.32412">
        <ele>18</ele>
        <time>2023-07-05T14:40:37Z</time>
      </trkpt>
      <trkpt lat="49.24253" lon="-0.32407">
        <ele>18.2</ele>
        <time>2023-07-05T14:40:38Z</time>
      </trkpt>
      <trkpt lat="49.24249" lon="-0.324">
        <ele>18.4</ele>
        <time>2023-07-05T14:40:39Z</time>
      </trkpt>
      <trkpt lat="49.24246" lon="-0.32393">
        <ele>18.6</ele>
        <time>2023-07-05T14:40:40Z</time>
      </trkpt>
      <trkpt lat="49.24243" lon="-0.32384">
        <ele>18.8</ele>
        <time>2023-07-05T14:40:41Z</time>
      </trkpt>
      <trkpt lat="49.2424" lon="-0.32375">
        <ele>19</ele>
        <time>2023-07-05T14:40:42Z</time>
      </trkpt>
      <trkpt lat="49.24239" lon="-0.32365">
        <ele>19.2</ele>
        <time>2023-07-05T14:40:43Z</time>
      </trkpt>
      <trkpt lat="49.24237" lon="-0.32356">
        <ele>19.4</ele>
        <time>2023-07-05T14:40:44Z</time>
      </trkpt>
      <trkpt lat="49.24237" lon="-0.32347">
        <ele>19.6</ele>
        <time>2023-07-05T14:40:45Z</time>
      </trkpt>
      <trkpt lat="49.24237" lon="-0.32337">
        <ele>19.9</ele>
        <time>2023-07-05T14:40:46Z</time>
      </trkpt>
      <trkpt lat="49.24237" lon="-0.32328">
        <ele>20.1</ele>
        <time>2023-07-05T14:40:47Z</time>
      </trkpt>
      <trkpt lat="49.24238" lon="-0.32319">
        <ele>20.4</ele>
        <time>2023-07-05T14:40:48Z</time>
      </trkpt>
      <trkpt lat="49.24238" lon="-0.3231">
        <ele>20.6</ele>
        <time>2023-07-05T14:40:49Z</time>
      </trkpt>
      <trkpt lat="49.24238" lon="-0.32301">
        <ele>20.9</ele>
        <time>2023-07-05T14:40:50Z</time>
      </trkpt>
      <trkpt lat="49.24237" lon="-0.32292">
        <ele>21.1</ele>
        <time>2023-07-05T14:40:51Z</time>
      </trkpt>
      <trkpt lat="49.24236" lon="-0.32284">
        <ele>21.3</ele>
        <time>2023-07-05T14:40:52Z</time>
      </trkpt>
      <trkpt lat="49.24234" lon="-0.32276">
        <ele>21.5</ele>
        <time>2023-07-05T14:40:53Z</time>
      </trkpt>
      <trkpt lat="49.24233" lon="-0.32268">
        <ele>21.7</ele>
        <time>2023-07-05T14:40:54Z</time>
      </trkpt>
      <trkpt lat="49.24231" lon="-0.32259">
        <ele>21.9</ele>
        <time>2023-07-05T14:40:55Z</time>
      </trkpt>
      <trkpt lat="49.24229" lon="-0.32251">
        <ele>22.1</ele>
        <time>2023-07-05T14:40:56Z</time>
      </trkpt>
      <trkpt lat="49.24227" lon="-0.32243">
        <ele>22.3</ele>
        <time>2023-07-05T14:40:57Z</time>
      </trkpt>
      <trkpt lat="49.24226" lon="-0.32235">
        <ele>22.5</ele>
        <time>2023-07-05T14:40:58Z</time>
      </trkpt>
      <trkpt lat="49.24224" lon="-0.32226">
        <ele>22.7</ele>
        <time>2023-07-05T14:40:59Z</time>
      </trkpt>
      <trkpt lat="49.24223" lon="-0.32217">
        <ele>23</ele>
        <time>2023-07-05T14:41:00Z</time>
      </trkpt>
      <trkpt lat="49.24221" lon="-0.32209">
        <ele>23.2</ele>
        <time>2023-07-05T14:41:01Z</time>
      </trkpt>
      <trkpt lat="49.2422" lon="-0.322">
        <ele>23.4</ele>
        <time>2023-07-05T14:41:02Z</time>
      </trkpt>
      <trkpt lat="49.24219" lon="-0.3219">
        <ele>23.6</ele>
        <time>2023-07-05T14:41:03Z</time>
      </trkpt>
      <trkpt lat="49.24218" lon="-0.32181">
        <ele>23.8</ele>
        <time>2023-07-05T14:41:04Z</time>
      </trkpt>
      <trkpt lat="49.24217" lon="-0.32171">
        <ele>24</ele>
        <time>2023-07-05T14:41:05Z</time>
      </trkpt>
      <trkpt lat="49.24215" lon="-0.32162">
        <ele>24.1</ele>
        <time>2023-07-05T14:41:06Z</time>
      </trkpt>
      <trkpt lat="49.24213" lon="-0.32153">
        <ele>24.3</ele>
        <time>2023-07-05T14:41:07Z</time>
      </trkpt>
      <trkpt lat="49.24211" lon="-0.32144">
        <ele>24.4</ele>
        <time>2023-07-05T14:41:08Z</time>
      </trkpt>
      <trkpt lat="49.24208" lon="-0.32135">
        <ele>24.5</ele>
        <time>2023-07-05T14:41:09Z</time>
      </trkpt>
      <trkpt lat="49.24204" lon="-0.32127">
        <ele>24.6</ele>
        <time>2023-07-05T14:41:10Z</time>
      </trkpt>
      <trkpt lat="49.24199" lon="-0.32119">
        <ele>24.7</ele>
        <time>2023-07-05T14:41:11Z</time>
      </trkpt>
      <trkpt lat="49.24194" lon="-0.32111">
        <ele>24.7</ele>
        <time>2023-07-05T14:41:12Z</time>
      </trkpt>
      <trkpt lat="49.24188" lon="-0.32104">
        <ele>24.8</ele>
        <time>2023-07-05T14:41:13Z</time>
      </trkpt>
      <trkpt lat="49.24184" lon="-0.32097">
        <ele>24.9</ele>
        <time>2023-07-05T14:41:14Z</time>
      </trkpt>
      <trkpt lat="49.24179" lon="-0.32089">
        <ele>24.9</ele>
        <time>2023-07-05T14:41:15Z</time>
      </trkpt>
      <trkpt lat="49.24174" lon="-0.32082">
        <ele>24.9</ele>
        <time>2023-07-05T14:41:16Z</time>
      </trkpt>
      <trkpt lat="49.24168" lon="-0.32074">
        <ele>24.9</ele>
        <time>2023-07-05T14:41:17Z</time>
      </trkpt>
      <trkpt lat="49.24163" lon="-0.32067">
        <ele>24.9</ele>
        <time>2023-07-05T14:41:18Z</time>
      </trkpt>
      <trkpt lat="49.24159" lon="-0.32059">
        <ele>25</ele>
        <time>2023-07-05T14:41:19Z</time>
      </trkpt>
      <trkpt lat="49.24154" lon="-0.3205">
        <ele>25</ele>
        <time>2023-07-05T14:41:20Z</time>
      </trkpt>
      <trkpt lat="49.24149" lon="-0.32043">
        <ele>25.1</ele>
        <time>2023-07-05T14:41:21Z</time>
      </trkpt>
      <trkpt lat="49.24144" lon="-0.32035">
        <ele>25.1</ele>
        <time>2023-07-05T14:41:22Z</time>
      </trkpt>
      <trkpt lat="49.24138" lon="-0.32028">
        <ele>25.1</ele>
        <time>2023-07-05T14:41:23Z</time>
      </trkpt>
      <trkpt lat="49.24134" lon="-0.3202">
        <ele>25.2</ele>
        <time>2023-07-05T14:41:24Z</time>
      </trkpt>
      <trkpt lat="49.24129" lon="-0.32012">
        <ele>25.2</ele>
        <time>2023-07-05T14:41:25Z</time>
      </trkpt>
      <trkpt lat="49.24124" lon="-0.32005">
        <ele>25.3</ele>
        <time>2023-07-05T14:41:26Z</time>
      </trkpt>
      <trkpt lat="49.24118" lon="-0.31998">
        <ele>25.3</ele>
        <time>2023-07-05T14:41:27Z</time>
      </trkpt>
      <trkpt lat="49.24112" lon="-0.31991">
        <ele>25.3</ele>
        <time>2023-07-05T14:41:28Z</time>
      </trkpt>
      <trkpt lat="49.24106" lon="-0.31985">
        <ele>25.4</ele>
        <time>2023-07-05T14:41:29Z</time>
      </trkpt>
      <trkpt lat="49.241" lon="-0.31979">
        <ele>25.4</ele>
        <time>2023-07-05T14:41:30Z</time>
      </trkpt>
      <trkpt lat="49.24095" lon="-0.31972">
        <ele>25.3</ele>
        <time>2023-07-05T14:41:31Z</time>
      </trkpt>
      <trkpt lat="49.2409" lon="-0.31964">
        <ele>25.3</ele>
        <time>2023-07-05T14:41:32Z</time>
      </trkpt>
      <trkpt lat="49.24084" lon="-0.31956">
        <ele>25.3</ele>
        <time>2023-07-05T14:41:33Z</time>
      </trkpt>
      <trkpt lat="49.24079" lon="-0.31949">
        <ele>25.3</ele>
        <time>2023-07-05T14:41:34Z</time>
      </trkpt>
      <trkpt lat="49.24074" lon="-0.31942">
        <ele>25.4</ele>
        <time>2023-07-05T14:41:35Z</time>
      </trkpt>
      <trkpt lat="49.24069" lon="-0.31934">
        <ele>25.4</ele>
        <time>2023-07-05T14:41:36Z</time>
      </trkpt>
      <trkpt lat="49.24064" lon="-0.31926">
        <ele>25.4</ele>
        <time>2023-07-05T14:41:37Z</time>
      </trkpt>
      <trkpt lat="49.24059" lon="-0.31918">
        <ele>25.4</ele>
        <time>2023-07-05T14:41:38Z</time>
      </trkpt>
      <trkpt lat="49.24054" lon="-0.31909">
        <ele>25.4</ele>
        <time>2023-07-05T14:41:39Z</time>
      </trkpt>
      <trkpt lat="49.24048" lon="-0.31901">
        <ele>25.4</ele>
        <time>2023-07-05T14:41:40Z</time>
      </trkpt>
      <trkpt lat="49.24043" lon="-0.31893">
        <ele>25.4</ele>
        <time>2023-07-05T14:41:41Z</time>
      </trkpt>
      <trkpt lat="49.24038" lon="-0.31885">
        <ele>25.4</ele>
        <time>2023-07-05T14:41:42Z</time>
      </trkpt>
      <trkpt lat="49.24033" lon="-0.31877">
        <ele>25.4</ele>
        <time>2023-07-05T14:41:43Z</time>
      </trkpt>
      <trkpt lat="49.24028" lon="-0.31869">
        <ele>25.3</ele>
        <time>2023-07-05T14:41:44Z</time>
      </trkpt>
      <trkpt lat="49.24023" lon="-0.31861">
        <ele>25.3</ele>
        <time>2023-07-05T14:41:45Z</time>
      </trkpt>
      <trkpt lat="49.24017" lon="-0.31853">
        <ele>25.3</ele>
        <time>2023-07-05T14:41:46Z</time>
      </trkpt>
      <trkpt lat="49.24012" lon="-0.31845">
        <ele>25.4</ele>
        <time>2023-07-05T14:41:47Z</time>
      </trkpt>
      <trkpt lat="49.24007" lon="-0.31837">
        <ele>25.4</ele>
        <time>2023-07-05T14:41:48Z</time>
      </trkpt>
      <trkpt lat="49.24002" lon="-0.31828">
        <ele>25.3</ele>
        <time>2023-07-05T14:41:49Z</time>
      </trkpt>
      <trkpt lat="49.23997" lon="-0.3182">
        <ele>25.3</ele>
        <time>2023-07-05T14:41:50Z</time>
      </trkpt>
      <trkpt lat="49.23991" lon="-0.31812">
        <ele>25.3</ele>
        <time>2023-07-05T14:41:51Z</time>
      </trkpt>
      <trkpt lat="49.23986" lon="-0.31803">
        <ele>25.3</ele>
        <time>2023-07-05T14:41:52Z</time>
      </trkpt>
      <trkpt lat="49.2398" lon="-0.31794">
        <ele>25.3</ele>
        <time>2023-07-05T14:41:53Z</time>
      </trkpt>
      <trkpt lat="49.23975" lon="-0.31785">
        <ele>25.3</ele>
        <time>2023-07-05T14:41:54Z</time>
      </trkpt>
      <trkpt lat="49.23969" lon="-0.31776">
        <ele>25.3</ele>
        <time>2023-07-05T14:41:55Z</time>
      </trkpt>
      <trkpt lat="49.23964" lon="-0.31768">
        <ele>25.3</ele>
        <time>2023-07-05T14:41:56Z</time>
      </trkpt>
      <trkpt lat="49.23958" lon="-0.31759">
        <ele>25.3</ele>
        <time>2023-07-05T14:41:57Z</time>
      </trkpt>
      <trkpt lat="49.23952" lon="-0.3175">
        <ele>25.2</ele>
        <time>2023-07-05T14:41:58Z</time>
      </trkpt>
      <trkpt lat="49.23947" lon="-0.31741">
        <ele>25.2</ele>
        <time>2023-07-05T14:41:59Z</time>
      </trkpt>
      <trkpt lat="49.23941" lon="-0.31733">
        <ele>25.2</ele>
        <time>2023-07-05T14:42:00Z</time>
      </trkpt>
      <trkpt lat="49.23936" lon="-0.31724">
        <ele>25.1</ele>
        <time>2023-07-05T14:42:01Z</time>
      </trkpt>
      <trkpt lat="49.23931" lon="-0.31715">
        <ele>25.1</ele>
        <time>2023-07-05T14:42:02Z</time>
      </trkpt>
      <trkpt lat="49.23926" lon="-0.31707">
        <ele>25</ele>
        <time>2023-07-05T14:42:03Z</time>
      </trkpt>
      <trkpt lat="49.2392" lon="-0.31698">
        <ele>25</ele>
        <time>2023-07-05T14:42:04Z</time>
      </trkpt>
      <trkpt lat="49.23915" lon="-0.31689">
        <ele>25</ele>
        <time>2023-07-05T14:42:05Z</time>
      </trkpt>
      <trkpt lat="49.2391" lon="-0.3168">
        <ele>25</ele>
        <time>2023-07-05T14:42:06Z</time>
      </trkpt>
      <trkpt lat="49.23904" lon="-0.31671">
        <ele>24.9</ele>
        <time>2023-07-05T14:42:07Z</time>
      </trkpt>
      <trkpt lat="49.23898" lon="-0.31662">
        <ele>24.9</ele>
        <time>2023-07-05T14:42:08Z</time>
      </trkpt>
      <trkpt lat="49.23892" lon="-0.31653">
        <ele>24.8</ele>
        <time>2023-07-05T14:42:09Z</time>
      </trkpt>
      <trkpt lat="49.23886" lon="-0.31644">
        <ele>24.8</ele>
        <time>2023-07-05T14:42:10Z</time>
      </trkpt>
      <trkpt lat="49.2388" lon="-0.31635">
        <ele>24.8</ele>
        <time>2023-07-05T14:42:11Z</time>
      </trkpt>
      <trkpt lat="49.23874" lon="-0.31626">
        <ele>24.8</ele>
        <time>2023-07-05T14:42:12Z</time>
      </trkpt>
      <trkpt lat="49.23869" lon="-0.31617">
        <ele>24.8</ele>
        <time>2023-07-05T14:42:13Z</time>
      </trkpt>
      <trkpt lat="49.23863" lon="-0.31608">
        <ele>24.8</ele>
        <time>2023-07-05T14:42:14Z</time>
      </trkpt>
      <trkpt lat="49.23857" lon="-0.31599">
        <ele>24.8</ele>
        <time>2023-07-05T14:42:15Z</time>
      </trkpt>
      <trkpt lat="49.23852" lon="-0.3159">
        <ele>24.8</ele>
        <time>2023-07-05T14:42:16Z</time>
      </trkpt>
      <trkpt lat="49.23846" lon="-0.31581">
        <ele>24.8</ele>
        <time>2023-07-05T14:42:17Z</time>
      </trkpt>
      <trkpt lat="49.2384" lon="-0.31571">
        <ele>24.7</ele>
        <time>2023-07-05T14:42:18Z</time>
      </trkpt>
      <trkpt lat="49.23834" lon="-0.31561">
        <ele>24.6</ele>
        <time>2023-07-05T14:42:19Z</time>
      </trkpt>
      <trkpt lat="49.23828" lon="-0.31551">
        <ele>24.5</ele>
        <time>2023-07-05T14:42:20Z</time>
      </trkpt>
      <trkpt lat="49.23822" lon="-0.31541">
        <ele>24.3</ele>
        <time>2023-07-05T14:42:21Z</time>
      </trkpt>
      <trkpt lat="49.23816" lon="-0.31531">
        <ele>24.2</ele>
        <time>2023-07-05T14:42:22Z</time>
      </trkpt>
      <trkpt lat="49.2381" lon="-0.31521">
        <ele>24</ele>
        <time>2023-07-05T14:42:23Z</time>
      </trkpt>
      <trkpt lat="49.23805" lon="-0.3151">
        <ele>23.8</ele>
        <time>2023-07-05T14:42:24Z</time>
      </trkpt>
      <trkpt lat="49.23799" lon="-0.315">
        <ele>23.7</ele>
        <time>2023-07-05T14:42:25Z</time>
      </trkpt>
      <trkpt lat="49.23793" lon="-0.3149">
        <ele>23.6</ele>
        <time>2023-07-05T14:42:26Z</time>
      </trkpt>
      <trkpt lat="49.23788" lon="-0.31479">
        <ele>23.5</ele>
        <time>2023-07-05T14:42:27Z</time>
      </trkpt>
      <trkpt lat="49.23782" lon="-0.31468">
        <ele>23.4</ele>
        <time>2023-07-05T14:42:28Z</time>
      </trkpt>
      <trkpt lat="49.23777" lon="-0.31458">
        <ele>23.4</ele>
        <time>2023-07-05T14:42:29Z</time>
      </trkpt>
      <trkpt lat="49.23771" lon="-0.31447">
        <ele>23.4</ele>
        <time>2023-07-05T14:42:30Z</time>
      </trkpt>
      <trkpt lat="49.23766" lon="-0.31437">
        <ele>23.4</ele>
        <time>2023-07-05T14:42:31Z</time>
      </trkpt>
      <trkpt lat="49.23761" lon="-0.31426">
        <ele>23.4</ele>
        <time>2023-07-05T14:42:32Z</time>
      </trkpt>
      <trkpt lat="49.23756" lon="-0.31416">
        <ele>23.5</ele>
        <time>2023-07-05T14:42:33Z</time>
      </trkpt>
      <trkpt lat="49.23751" lon="-0.31405">
        <ele>23.5</ele>
        <time>2023-07-05T14:42:34Z</time>
      </trkpt>
      <trkpt lat="49.23746" lon="-0.31395">
        <ele>23.7</ele>
        <time>2023-07-05T14:42:35Z</time>
      </trkpt>
      <trkpt lat="49.2374" lon="-0.31384">
        <ele>23.8</ele>
        <time>2023-07-05T14:42:36Z</time>
      </trkpt>
      <trkpt lat="49.23735" lon="-0.31373">
        <ele>23.9</ele>
        <time>2023-07-05T14:42:37Z</time>
      </trkpt>
      <trkpt lat="49.2373" lon="-0.31363">
        <ele>24.1</ele>
        <time>2023-07-05T14:42:38Z</time>
      </trkpt>
      <trkpt lat="49.23725" lon="-0.31353">
        <ele>24.3</ele>
        <time>2023-07-05T14:42:39Z</time>
      </trkpt>
      <trkpt lat="49.2372" lon="-0.31342">
        <ele>24.6</ele>
        <time>2023-07-05T14:42:40Z</time>
      </trkpt>
      <trkpt lat="49.23715" lon="-0.31332">
        <ele>24.9</ele>
        <time>2023-07-05T14:42:41Z</time>
      </trkpt>
      <trkpt lat="49.2371" lon="-0.31322">
        <ele>25.2</ele>
        <time>2023-07-05T14:42:42Z</time>
      </trkpt>
      <trkpt lat="49.23706" lon="-0.31312">
        <ele>25.5</ele>
        <time>2023-07-05T14:42:43Z</time>
      </trkpt>
      <trkpt lat="49.23701" lon="-0.31303">
        <ele>25.8</ele>
        <time>2023-07-05T14:42:44Z</time>
      </trkpt>
      <trkpt lat="49.23696" lon="-0.31294">
        <ele>26</ele>
        <time>2023-07-05T14:42:45Z</time>
      </trkpt>
      <trkpt lat="49.23691" lon="-0.31284">
        <ele>26.2</ele>
        <time>2023-07-05T14:42:46Z</time>
      </trkpt>
      <trkpt lat="49.23687" lon="-0.31275">
        <ele>26.4</ele>
        <time>2023-07-05T14:42:47Z</time>
      </trkpt>
      <trkpt lat="49.23682" lon="-0.31266">
        <ele>26.6</ele>
        <time>2023-07-05T14:42:48Z</time>
      </trkpt>
      <trkpt lat="49.23677" lon="-0.31257">
        <ele>26.8</ele>
        <time>2023-07-05T14:42:49Z</time>
      </trkpt>
      <trkpt lat="49.23672" lon="-0.31247">
        <ele>27</ele>
        <time>2023-07-05T14:42:50Z</time>
      </trkpt>
      <trkpt lat="49.23668" lon="-0.31237">
        <ele>27.2</ele>
        <time>2023-07-05T14:42:51Z</time>
      </trkpt>
      <trkpt lat="49.23663" lon="-0.31228">
        <ele>27.4</ele>
        <time>2023-07-05T14:42:52Z</time>
      </trkpt>
      <trkpt lat="49.23659" lon="-0.31218">
        <ele>27.5</ele>
        <time>2023-07-05T14:42:53Z</time>
      </trkpt>
      <trkpt lat="49.23654" lon="-0.31209">
        <ele>27.7</ele>
        <time>2023-07-05T14:42:54Z</time>
      </trkpt>
      <trkpt lat="49.23649" lon="-0.312">
        <ele>27.9</ele>
        <time>2023-07-05T14:42:55Z</time>
      </trkpt>
      <trkpt lat="49.23644" lon="-0.3119">
        <ele>28</ele>
        <time>2023-07-05T14:42:56Z</time>
      </trkpt>
      <trkpt lat="49.23639" lon="-0.3118">
        <ele>28.2</ele>
        <time>2023-07-05T14:42:57Z</time>
      </trkpt>
      <trkpt lat="49.23634" lon="-0.31171">
        <ele>28.4</ele>
        <time>2023-07-05T14:42:58Z</time>
      </trkpt>
      <trkpt lat="49.23629" lon="-0.31162">
        <ele>28.5</ele>
        <time>2023-07-05T14:42:59Z</time>
      </trkpt>
      <trkpt lat="49.23623" lon="-0.31153">
        <ele>28.7</ele>
        <time>2023-07-05T14:43:00Z</time>
      </trkpt>
      <trkpt lat="49.23617" lon="-0.31143">
        <ele>28.9</ele>
        <time>2023-07-05T14:43:01Z</time>
      </trkpt>
      <trkpt lat="49.23612" lon="-0.31133">
        <ele>29</ele>
        <time>2023-07-05T14:43:02Z</time>
      </trkpt>
      <trkpt lat="49.23606" lon="-0.31123">
        <ele>29.2</ele>
        <time>2023-07-05T14:43:03Z</time>
      </trkpt>
      <trkpt lat="49.23601" lon="-0.31114">
        <ele>29.3</ele>
        <time>2023-07-05T14:43:04Z</time>
      </trkpt>
      <trkpt lat="49.23595" lon="-0.31104">
        <ele>29.4</ele>
        <time>2023-07-05T14:43:05Z</time>
      </trkpt>
      <trkpt lat="49.2359" lon="-0.31094">
        <ele>29.5</ele>
        <time>2023-07-05T14:43:06Z</time>
      </trkpt>
      <trkpt lat="49.23584" lon="-0.31084">
        <ele>29.6</ele>
        <time>2023-07-05T14:43:07Z</time>
      </trkpt>
      <trkpt lat="49.23579" lon="-0.31074">
        <ele>29.8</ele>
        <time>2023-07-05T14:43:08Z</time>
      </trkpt>
      <trkpt lat="49.23573" lon="-0.31064">
        <ele>29.9</ele>
        <time>2023-07-05T14:43:09Z</time>
      </trkpt>
      <trkpt lat="49.23568" lon="-0.31054">
        <ele>30</ele>
        <time>2023-07-05T14:43:10Z</time>
      </trkpt>
      <trkpt lat="49.23562" lon="-0.31044">
        <ele>30.2</ele>
        <time>2023-07-05T14:43:11Z</time>
      </trkpt>
      <trkpt lat="49.23556" lon="-0.31034">
        <ele>30.3</ele>
        <time>2023-07-05T14:43:12Z</time>
      </trkpt>
      <trkpt lat="49.23551" lon="-0.31024">
        <ele>30.5</ele>
        <time>2023-07-05T14:43:13Z</time>
      </trkpt>
      <trkpt lat="49.23545" lon="-0.31014">
        <ele>30.6</ele>
        <time>2023-07-05T14:43:14Z</time>
      </trkpt>
      <trkpt lat="49.23539" lon="-0.31004">
        <ele>30.7</ele>
        <time>2023-07-05T14:43:15Z</time>
      </trkpt>
      <trkpt lat="49.23533" lon="-0.30994">
        <ele>30.9</ele>
        <time>2023-07-05T14:43:16Z</time>
      </trkpt>
      <trkpt lat="49.23528" lon="-0.30984">
        <ele>30.9</ele>
        <time>2023-07-05T14:43:17Z</time>
      </trkpt>
      <trkpt lat="49.23522" lon="-0.30975">
        <ele>31</ele>
        <time>2023-07-05T14:43:18Z</time>
      </trkpt>
      <trkpt lat="49.23517" lon="-0.30965">
        <ele>31.1</ele>
        <time>2023-07-05T14:43:19Z</time>
      </trkpt>
      <trkpt lat="49.23512" lon="-0.30956">
        <ele>31.1</ele>
        <time>2023-07-05T14:43:20Z</time>
      </trkpt>
      <trkpt lat="49.23506" lon="-0.30947">
        <ele>31.1</ele>
        <time>2023-07-05T14:43:21Z</time>
      </trkpt>
      <trkpt lat="49.235" lon="-0.30938">
        <ele>31</ele>
        <time>2023-07-05T14:43:22Z</time>
      </trkpt>
      <trkpt lat="49.23493" lon="-0.3093">
        <ele>31</ele>
        <time>2023-07-05T14:43:23Z</time>
      </trkpt>
      <trkpt lat="49.23486" lon="-0.30923">
        <ele>31</ele>
        <time>2023-07-05T14:43:24Z</time>
      </trkpt>
      <trkpt lat="49.23478" lon="-0.30916">
        <ele>30.9</ele>
        <time>2023-07-05T14:43:25Z</time>
      </trkpt>
      <trkpt lat="49.2347" lon="-0.30911">
        <ele>30.9</ele>
        <time>2023-07-05T14:43:26Z</time>
      </trkpt>
      <trkpt lat="49.23461" lon="-0.30907">
        <ele>30.9</ele>
        <time>2023-07-05T14:43:27Z</time>
      </trkpt>
      <trkpt lat="49.23452" lon="-0.30905">
        <ele>30.9</ele>
        <time>2023-07-05T14:43:28Z</time>
      </trkpt>
      <trkpt lat="49.23443" lon="-0.30904">
        <ele>30.9</ele>
        <time>2023-07-05T14:43:29Z</time>
      </trkpt>
      <trkpt lat="49.23434" lon="-0.30905">
        <ele>31</ele>
        <time>2023-07-05T14:43:30Z</time>
      </trkpt>
      <trkpt lat="49.23426" lon="-0.30906">
        <ele>31</ele>
        <time>2023-07-05T14:43:31Z</time>
      </trkpt>
      <trkpt lat="49.23418" lon="-0.30908">
        <ele>31</ele>
        <time>2023-07-05T14:43:32Z</time>
      </trkpt>
      <trkpt lat="49.2341" lon="-0.3091">
        <ele>31</ele>
        <time>2023-07-05T14:43:33Z</time>
      </trkpt>
      <trkpt lat="49.23402" lon="-0.30912">
        <ele>31.1</ele>
        <time>2023-07-05T14:43:34Z</time>
      </trkpt>
      <trkpt lat="49.23394" lon="-0.30914">
        <ele>31.1</ele>
        <time>2023-07-05T14:43:35Z</time>
      </trkpt>
      <trkpt lat="49.23386" lon="-0.30916">
        <ele>31.1</ele>
        <time>2023-07-05T14:43:36Z</time>
      </trkpt>
      <trkpt lat="49.23377" lon="-0.3092">
        <ele>31.2</ele>
        <time>2023-07-05T14:43:37Z</time>
      </trkpt>
      <trkpt lat="49.23369" lon="-0.30924">
        <ele>31.2</ele>
        <time>2023-07-05T14:43:38Z</time>
      </trkpt>
      <trkpt lat="49.23362" lon="-0.30928">
        <ele>31.1</ele>
        <time>2023-07-05T14:43:39Z</time>
      </trkpt>
      <trkpt lat="49.23354" lon="-0.30934">
        <ele>31.1</ele>
        <time>2023-07-05T14:43:40Z</time>
      </trkpt>
      <trkpt lat="49.23347" lon="-0.30941">
        <ele>31.1</ele>
        <time>2023-07-05T14:43:41Z</time>
      </trkpt>
      <trkpt lat="49.2334" lon="-0.30949">
        <ele>31.1</ele>
        <time>2023-07-05T14:43:42Z</time>
      </trkpt>
      <trkpt lat="49.23334" lon="-0.30959">
        <ele>31</ele>
        <time>2023-07-05T14:43:43Z</time>
      </trkpt>
      <trkpt lat="49.23328" lon="-0.30967">
        <ele>31</ele>
        <time>2023-07-05T14:43:44Z</time>
      </trkpt>
      <trkpt lat="49.23321" lon="-0.30976">
        <ele>30.9</ele>
        <time>2023-07-05T14:43:45Z</time>
      </trkpt>
      <trkpt lat="49.23314" lon="-0.30982">
        <ele>30.8</ele>
        <time>2023-07-05T14:43:46Z</time>
      </trkpt>
      <trkpt lat="49.23306" lon="-0.30985">
        <ele>30.7</ele>
        <time>2023-07-05T14:43:47Z</time>
      </trkpt>
      <trkpt lat="49.23297" lon="-0.30984">
        <ele>30.5</ele>
        <time>2023-07-05T14:43:48Z</time>
      </trkpt>
      <trkpt lat="49.23288" lon="-0.30978">
        <ele>30.4</ele>
        <time>2023-07-05T14:43:49Z</time>
      </trkpt>
      <trkpt lat="49.2328" lon="-0.30969">
        <ele>30.2</ele>
        <time>2023-07-05T14:43:50Z</time>
      </trkpt>
      <trkpt lat="49.23273" lon="-0.30956">
        <ele>30.1</ele>
        <time>2023-07-05T14:43:51Z</time>
      </trkpt>
      <trkpt lat="49.23267" lon="-0.30944">
        <ele>29.9</ele>
        <time>2023-07-05T14:43:52Z</time>
      </trkpt>
      <trkpt lat="49.23262" lon="-0.30931">
        <ele>29.8</ele>
        <time>2023-07-05T14:43:53Z</time>
      </trkpt>
      <trkpt lat="49.23258" lon="-0.30918">
        <ele>29.7</ele>
        <time>2023-07-05T14:43:54Z</time>
      </trkpt>
      <trkpt lat="49.23254" lon="-0.30905">
        <ele>29.6</ele>
        <time>2023-07-05T14:43:55Z</time>
      </trkpt>
      <trkpt lat="49.23249" lon="-0.30891">
        <ele>29.4</ele>
        <time>2023-07-05T14:43:56Z</time>
      </trkpt>
      <trkpt lat="49.23245" lon="-0.30878">
        <ele>29.3</ele>
        <time>2023-07-05T14:43:57Z</time>
      </trkpt>
      <trkpt lat="49.2324" lon="-0.30866">
        <ele>29.2</ele>
        <time>2023-07-05T14:43:58Z</time>
      </trkpt>
      <trkpt lat="49.23236" lon="-0.30853">
        <ele>29.1</ele>
        <time>2023-07-05T14:43:59Z</time>
      </trkpt>
      <trkpt lat="49.23231" lon="-0.3084">
        <ele>28.9</ele>
        <time>2023-07-05T14:44:00Z</time>
      </trkpt>
      <trkpt lat="49.23227" lon="-0.30827">
        <ele>28.8</ele>
        <time>2023-07-05T14:44:01Z</time>
      </trkpt>
      <trkpt lat="49.23223" lon="-0.30815">
        <ele>28.7</ele>
        <time>2023-07-05T14:44:02Z</time>
      </trkpt>
      <trkpt lat="49.23219" lon="-0.30803">
        <ele>28.6</ele>
        <time>2023-07-05T14:44:03Z</time>
      </trkpt>
      <trkpt lat="49.23215" lon="-0.30792">
        <ele>28.5</ele>
        <time>2023-07-05T14:44:04Z</time>
      </trkpt>
      <trkpt lat="49.23211" lon="-0.30781">
        <ele>28.4</ele>
        <time>2023-07-05T14:44:05Z</time>
      </trkpt>
      <trkpt lat="49.23206" lon="-0.3077">
        <ele>28.3</ele>
        <time>2023-07-05T14:44:06Z</time>
      </trkpt>
      <trkpt lat="49.23201" lon="-0.3076">
        <ele>28.1</ele>
        <time>2023-07-05T14:44:07Z</time>
      </trkpt>
      <trkpt lat="49.23195" lon="-0.30751">
        <ele>28</ele>
        <time>2023-07-05T14:44:08Z</time>
      </trkpt>
      <trkpt lat="49.23188" lon="-0.30743">
        <ele>27.8</ele>
        <time>2023-07-05T14:44:09Z</time>
      </trkpt>
      <trkpt lat="49.23182" lon="-0.30735">
        <ele>27.7</ele>
        <time>2023-07-05T14:44:10Z</time>
      </trkpt>
      <trkpt lat="49.23175" lon="-0.30729">
        <ele>27.6</ele>
        <time>2023-07-05T14:44:11Z</time>
      </trkpt>
      <trkpt lat="49.23168" lon="-0.30723">
        <ele>27.5</ele>
        <time>2023-07-05T14:44:12Z</time>
      </trkpt>
      <trkpt lat="49.23161" lon="-0.30717">
        <ele>27.4</ele>
        <time>2023-07-05T14:44:13Z</time>
      </trkpt>
      <trkpt lat="49.23155" lon="-0.3071">
        <ele>27.3</ele>
        <time>2023-07-05T14:44:14Z</time>
      </trkpt>
      <trkpt lat="49.23148" lon="-0.30702">
        <ele>27.4</ele>
        <time>2023-07-05T14:44:15Z</time>
      </trkpt>
      <trkpt lat="49.23142" lon="-0.30693">
        <ele>27.4</ele>
        <time>2023-07-05T14:44:16Z</time>
      </trkpt>
      <trkpt lat="49.23137" lon="-0.30685">
        <ele>27.4</ele>
        <time>2023-07-05T14:44:17Z</time>
      </trkpt>
      <trkpt lat="49.23132" lon="-0.30676">
        <ele>27.3</ele>
        <time>2023-07-05T14:44:18Z</time>
      </trkpt>
      <trkpt lat="49.23128" lon="-0.30668">
        <ele>27.3</ele>
        <time>2023-07-05T14:44:19Z</time>
      </trkpt>
      <trkpt lat="49.23123" lon="-0.30661">
        <ele>27.3</ele>
        <time>2023-07-05T14:44:20Z</time>
      </trkpt>
      <trkpt lat="49.23118" lon="-0.30654">
        <ele>27.3</ele>
        <time>2023-07-05T14:44:21Z</time>
      </trkpt>
      <trkpt lat="49.23113" lon="-0.30647">
        <ele>27.3</ele>
        <time>2023-07-05T14:44:22Z</time>
      </trkpt>
      <trkpt lat="49.23111" lon="-0.30638">
        <ele>27.2</ele>
        <time>2023-07-05T14:44:23Z</time>
      </trkpt>
      <trkpt lat="49.2311" lon="-0.30629">
        <ele>27.2</ele>
        <time>2023-07-05T14:44:24Z</time>
      </trkpt>
      <trkpt lat="49.2311" lon="-0.30619">
        <ele>27.1</ele>
        <time>2023-07-05T14:44:25Z</time>
      </trkpt>
      <trkpt lat="49.2311" lon="-0.3061">
        <ele>27</ele>
        <time>2023-07-05T14:44:26Z</time>
      </trkpt>
      <trkpt lat="49.23111" lon="-0.30601">
        <ele>27</ele>
        <time>2023-07-05T14:44:27Z</time>
      </trkpt>
      <trkpt lat="49.23109" lon="-0.30591">
        <ele>26.9</ele>
        <time>2023-07-05T14:44:28Z</time>
      </trkpt>
      <trkpt lat="49.23107" lon="-0.30582">
        <ele>26.9</ele>
        <time>2023-07-05T14:44:29Z</time>
      </trkpt>
      <trkpt lat="49.23104" lon="-0.30573">
        <ele>26.9</ele>
        <time>2023-07-05T14:44:30Z</time>
      </trkpt>
      <trkpt lat="49.23103" lon="-0.30565">
        <ele>26.8</ele>
        <time>2023-07-05T14:44:31Z</time>
      </trkpt>
      <trkpt lat="49.23102" lon="-0.30556">
        <ele>26.8</ele>
        <time>2023-07-05T14:44:32Z</time>
      </trkpt>
      <trkpt lat="49.23101" lon="-0.30548">
        <ele>26.8</ele>
        <time>2023-07-05T14:44:33Z</time>
      </trkpt>
      <trkpt lat="49.23101" lon="-0.30538">
        <ele>26.7</ele>
        <time>2023-07-05T14:44:34Z</time>
      </trkpt>
      <trkpt lat="49.23101" lon="-0.30528">
        <ele>26.6</ele>
        <time>2023-07-05T14:44:35Z</time>
      </trkpt>
      <trkpt lat="49.23101" lon="-0.30518">
        <ele>26.5</ele>
        <time>2023-07-05T14:44:36Z</time>
      </trkpt>
      <trkpt lat="49.231" lon="-0.30508">
        <ele>26.4</ele>
        <time>2023-07-05T14:44:37Z</time>
      </trkpt>
      <trkpt lat="49.23099" lon="-0.30496">
        <ele>26.3</ele>
        <time>2023-07-05T14:44:38Z</time>
      </trkpt>
      <trkpt lat="49.23098" lon="-0.30484">
        <ele>26.2</ele>
        <time>2023-07-05T14:44:39Z</time>
      </trkpt>
      <trkpt lat="49.23096" lon="-0.30472">
        <ele>26</ele>
        <time>2023-07-05T14:44:40Z</time>
      </trkpt>
      <trkpt lat="49.23094" lon="-0.3046">
        <ele>25.8</ele>
        <time>2023-07-05T14:44:41Z</time>
      </trkpt>
      <trkpt lat="49.23092" lon="-0.30448">
        <ele>25.6</ele>
        <time>2023-07-05T14:44:42Z</time>
      </trkpt>
      <trkpt lat="49.23088" lon="-0.30437">
        <ele>25.5</ele>
        <time>2023-07-05T14:44:43Z</time>
      </trkpt>
      <trkpt lat="49.23085" lon="-0.30426">
        <ele>25.4</ele>
        <time>2023-07-05T14:44:44Z</time>
      </trkpt>
      <trkpt lat="49.23081" lon="-0.30414">
        <ele>25.2</ele>
        <time>2023-07-05T14:44:45Z</time>
      </trkpt>
      <trkpt lat="49.23077" lon="-0.30403">
        <ele>25.1</ele>
        <time>2023-07-05T14:44:46Z</time>
      </trkpt>
      <trkpt lat="49.23073" lon="-0.30392">
        <ele>25</ele>
        <time>2023-07-05T14:44:47Z</time>
      </trkpt>
      <trkpt lat="49.23069" lon="-0.30381">
        <ele>24.8</ele>
        <time>2023-07-05T14:44:48Z</time>
      </trkpt>
      <trkpt lat="49.23065" lon="-0.3037">
        <ele>24.7</ele>
        <time>2023-07-05T14:44:49Z</time>
      </trkpt>
      <trkpt lat="49.23061" lon="-0.30359">
        <ele>24.5</ele>
        <time>2023-07-05T14:44:50Z</time>
      </trkpt>
      <trkpt lat="49.23057" lon="-0.30348">
        <ele>24.3</ele>
        <time>2023-07-05T14:44:51Z</time>
      </trkpt>
      <trkpt lat="49.23053" lon="-0.30337">
        <ele>24.1</ele>
        <time>2023-07-05T14:44:52Z</time>
      </trkpt>
      <trkpt lat="49.23049" lon="-0.30326">
        <ele>24</ele>
        <time>2023-07-05T14:44:53Z</time>
      </trkpt>
      <trkpt lat="49.23045" lon="-0.30316">
        <ele>23.8</ele>
        <time>2023-07-05T14:44:54Z</time>
      </trkpt>
      <trkpt lat="49.23041" lon="-0.30306">
        <ele>23.7</ele>
        <time>2023-07-05T14:44:55Z</time>
      </trkpt>
      <trkpt lat="49.23037" lon="-0.30295">
        <ele>23.6</ele>
        <time>2023-07-05T14:44:56Z</time>
      </trkpt>
      <trkpt lat="49.23033" lon="-0.30285">
        <ele>23.4</ele>
        <time>2023-07-05T14:44:57Z</time>
      </trkpt>
      <trkpt lat="49.23029" lon="-0.30274">
        <ele>23.4</ele>
        <time>2023-07-05T14:44:58Z</time>
      </trkpt>
      <trkpt lat="49.23025" lon="-0.30264">
        <ele>23.4</ele>
        <time>2023-07-05T14:44:59Z</time>
      </trkpt>
      <trkpt lat="49.23022" lon="-0.30253">
        <ele>23.3</ele>
        <time>2023-07-05T14:45:00Z</time>
      </trkpt>
      <trkpt lat="49.23018" lon="-0.30242">
        <ele>23.1</ele>
        <time>2023-07-05T14:45:01Z</time>
      </trkpt>
      <trkpt lat="49.23013" lon="-0.30232">
        <ele>23</ele>
        <time>2023-07-05T14:45:02Z</time>
      </trkpt>
      <trkpt lat="49.23009" lon="-0.30222">
        <ele>22.9</ele>
        <time>2023-07-05T14:45:03Z</time>
      </trkpt>
      <trkpt lat="49.23004" lon="-0.30212">
        <ele>22.8</ele>
        <time>2023-07-05T14:45:04Z</time>
      </trkpt>
      <trkpt lat="49.23" lon="-0.30203">
        <ele>22.7</ele>
        <time>2023-07-05T14:45:05Z</time>
      </trkpt>
      <trkpt lat="49.22995" lon="-0.30194">
        <ele>22.6</ele>
        <time>2023-07-05T14:45:06Z</time>
      </trkpt>
      <trkpt lat="49.2299" lon="-0.30185">
        <ele>22.5</ele>
        <time>2023-07-05T14:45:07Z</time>
      </trkpt>
      <trkpt lat="49.22986" lon="-0.30176">
        <ele>22.4</ele>
        <time>2023-07-05T14:45:08Z</time>
      </trkpt>
      <trkpt lat="49.22982" lon="-0.30167">
        <ele>22.3</ele>
        <time>2023-07-05T14:45:09Z</time>
      </trkpt>
      <trkpt lat="49.22977" lon="-0.30158">
        <ele>22.2</ele>
        <time>2023-07-05T14:45:10Z</time>
      </trkpt>
      <trkpt lat="49.22972" lon="-0.30148">
        <ele>22.2</ele>
        <time>2023-07-05T14:45:11Z</time>
      </trkpt>
      <trkpt lat="49.22968" lon="-0.30138">
        <ele>22.1</ele>
        <time>2023-07-05T14:45:12Z</time>
      </trkpt>
      <trkpt lat="49.22963" lon="-0.30129">
        <ele>21.9</ele>
        <time>2023-07-05T14:45:13Z</time>
      </trkpt>
      <trkpt lat="49.22959" lon="-0.3012">
        <ele>21.8</ele>
        <time>2023-07-05T14:45:14Z</time>
      </trkpt>
      <trkpt lat="49.22954" lon="-0.3011">
        <ele>21.7</ele>
        <time>2023-07-05T14:45:15Z</time>
      </trkpt>
      <trkpt lat="49.22949" lon="-0.30101">
        <ele>21.6</ele>
        <time>2023-07-05T14:45:16Z</time>
      </trkpt>
      <trkpt lat="49.22945" lon="-0.30092">
        <ele>21.4</ele>
        <time>2023-07-05T14:45:17Z</time>
      </trkpt>
      <trkpt lat="49.22941" lon="-0.30083">
        <ele>21.3</ele>
        <time>2023-07-05T14:45:18Z</time>
      </trkpt>
      <trkpt lat="49.22936" lon="-0.30074">
        <ele>21.1</ele>
        <time>2023-07-05T14:45:19Z</time>
      </trkpt>
      <trkpt lat="49.22932" lon="-0.30065">
        <ele>20.9</ele>
        <time>2023-07-05T14:45:20Z</time>
      </trkpt>
      <trkpt lat="49.22927" lon="-0.30057">
        <ele>20.7</ele>
        <time>2023-07-05T14:45:21Z</time>
      </trkpt>
      <trkpt lat="49.22923" lon="-0.30048">
        <ele>20.5</ele>
        <time>2023-07-05T14:45:22Z</time>
      </trkpt>
      <trkpt lat="49.22918" lon="-0.30039">
        <ele>20.3</ele>
        <time>2023-07-05T14:45:23Z</time>
      </trkpt>
      <trkpt lat="49.22914" lon="-0.3003">
        <ele>20</ele>
        <time>2023-07-05T14:45:24Z</time>
      </trkpt>
      <trkpt lat="49.2291" lon="-0.3002">
        <ele>19.8</ele>
        <time>2023-07-05T14:45:25Z</time>
      </trkpt>
      <trkpt lat="49.22906" lon="-0.3001">
        <ele>19.6</ele>
        <time>2023-07-05T14:45:26Z</time>
      </trkpt>
      <trkpt lat="49.22903" lon="-0.29999">
        <ele>19.4</ele>
        <time>2023-07-05T14:45:27Z</time>
      </trkpt>
      <trkpt lat="49.22901" lon="-0.29987">
        <ele>19.1</ele>
        <time>2023-07-05T14:45:28Z</time>
      </trkpt>
      <trkpt lat="49.22898" lon="-0.29976">
        <ele>18.9</ele>
        <time>2023-07-05T14:45:29Z</time>
      </trkpt>
      <trkpt lat="49.22895" lon="-0.29964">
        <ele>18.7</ele>
        <time>2023-07-05T14:45:30Z</time>
      </trkpt>
      <trkpt lat="49.22893" lon="-0.29952">
        <ele>18.5</ele>
        <time>2023-07-05T14:45:31Z</time>
      </trkpt>
      <trkpt lat="49.2289" lon="-0.2994">
        <ele>18.3</ele>
        <time>2023-07-05T14:45:32Z</time>
      </trkpt>
      <trkpt lat="49.22887" lon="-0.29929">
        <ele>18.1</ele>
        <time>2023-07-05T14:45:33Z</time>
      </trkpt>
      <trkpt lat="49.22885" lon="-0.29917">
        <ele>18</ele>
        <time>2023-07-05T14:45:34Z</time>
      </trkpt>
      <trkpt lat="49.22883" lon="-0.29906">
        <ele>17.9</ele>
        <time>2023-07-05T14:45:35Z</time>
      </trkpt>
      <trkpt lat="49.22882" lon="-0.29895">
        <ele>17.8</ele>
        <time>2023-07-05T14:45:36Z</time>
      </trkpt>
      <trkpt lat="49.22882" lon="-0.29884">
        <ele>17.8</ele>
        <time>2023-07-05T14:45:37Z</time>
      </trkpt>
      <trkpt lat="49.22883" lon="-0.29875">
        <ele>17.8</ele>
        <time>2023-07-05T14:45:38Z</time>
      </trkpt>
      <trkpt lat="49.22885" lon="-0.29866">
        <ele>17.7</ele>
        <time>2023-07-05T14:45:39Z</time>
      </trkpt>
      <trkpt lat="49.22888" lon="-0.29858">
        <ele>17.7</ele>
        <time>2023-07-05T14:45:40Z</time>
      </trkpt>
      <trkpt lat="49.2289" lon="-0.29849">
        <ele>17.6</ele>
        <time>2023-07-05T14:45:41Z</time>
      </trkpt>
      <trkpt lat="49.22892" lon="-0.29839">
        <ele>17.5</ele>
        <time>2023-07-05T14:45:42Z</time>
      </trkpt>
      <trkpt lat="49.22894" lon="-0.29829">
        <ele>17.4</ele>
        <time>2023-07-05T14:45:43Z</time>
      </trkpt>
      <trkpt lat="49.22896" lon="-0.2982">
        <ele>17.3</ele>
        <time>2023-07-05T14:45:44Z</time>
      </trkpt>
      <trkpt lat="49.22899" lon="-0.29809">
        <ele>17.2</ele>
        <time>2023-07-05T14:45:45Z</time>
      </trkpt>
      <trkpt lat="49.22901" lon="-0.29799">
        <ele>17.1</ele>
        <time>2023-07-05T14:45:46Z</time>
      </trkpt>
      <trkpt lat="49.22905" lon="-0.29789">
        <ele>17</ele>
        <time>2023-07-05T14:45:47Z</time>
      </trkpt>
      <trkpt lat="49.22908" lon="-0.29779">
        <ele>16.9</ele>
        <time>2023-07-05T14:45:48Z</time>
      </trkpt>
      <trkpt lat="49.22912" lon="-0.2977">
        <ele>16.8</ele>
        <time>2023-07-05T14:45:49Z</time>
      </trkpt>
      <trkpt lat="49.22917" lon="-0.29761">
        <ele>16.7</ele>
        <time>2023-07-05T14:45:50Z</time>
      </trkpt>
      <trkpt lat="49.22921" lon="-0.29752">
        <ele>16.6</ele>
        <time>2023-07-05T14:45:51Z</time>
      </trkpt>
      <trkpt lat="49.22926" lon="-0.29744">
        <ele>16.5</ele>
        <time>2023-07-05T14:45:52Z</time>
      </trkpt>
      <trkpt lat="49.22931" lon="-0.29736">
        <ele>16.4</ele>
        <time>2023-07-05T14:45:53Z</time>
      </trkpt>
      <trkpt lat="49.22936" lon="-0.29729">
        <ele>16.4</ele>
        <time>2023-07-05T14:45:54Z</time>
      </trkpt>
      <trkpt lat="49.22941" lon="-0.29723">
        <ele>16.3</ele>
        <time>2023-07-05T14:45:55Z</time>
      </trkpt>
      <trkpt lat="49.22946" lon="-0.29717">
        <ele>16.2</ele>
        <time>2023-07-05T14:45:56Z</time>
      </trkpt>
      <trkpt lat="49.22951" lon="-0.29711">
        <ele>16.2</ele>
        <time>2023-07-05T14:45:57Z</time>
      </trkpt>
      <trkpt lat="49.22956" lon="-0.29706">
        <ele>16.1</ele>
        <time>2023-07-05T14:45:58Z</time>
      </trkpt>
      <trkpt lat="49.22961" lon="-0.29701">
        <ele>16</ele>
        <time>2023-07-05T14:45:59Z</time>
      </trkpt>
      <trkpt lat="49.22967" lon="-0.29696">
        <ele>15.9</ele>
        <time>2023-07-05T14:46:00Z</time>
      </trkpt>
      <trkpt lat="49.22972" lon="-0.2969">
        <ele>15.9</ele>
        <time>2023-07-05T14:46:01Z</time>
      </trkpt>
      <trkpt lat="49.22977" lon="-0.29685">
        <ele>15.9</ele>
        <time>2023-07-05T14:46:02Z</time>
      </trkpt>
      <trkpt lat="49.22982" lon="-0.29681">
        <ele>15.8</ele>
        <time>2023-07-05T14:46:03Z</time>
      </trkpt>
      <trkpt lat="49.22986" lon="-0.29677">
        <ele>15.8</ele>
        <time>2023-07-05T14:46:04Z</time>
      </trkpt>
      <trkpt lat="49.2299" lon="-0.29672">
        <ele>15.8</ele>
        <time>2023-07-05T14:46:05Z</time>
      </trkpt>
      <trkpt lat="49.22994" lon="-0.29668">
        <ele>15.7</ele>
        <time>2023-07-05T14:46:06Z</time>
      </trkpt>
      <trkpt lat="49.22998" lon="-0.29663">
        <ele>15.7</ele>
        <time>2023-07-05T14:46:07Z</time>
      </trkpt>
      <trkpt lat="49.23002" lon="-0.29658">
        <ele>15.7</ele>
        <time>2023-07-05T14:46:08Z</time>
      </trkpt>
      <trkpt lat="49.23006" lon="-0.29653">
        <ele>15.6</ele>
        <time>2023-07-05T14:46:09Z</time>
      </trkpt>
      <trkpt lat="49.23009" lon="-0.29647">
        <ele>15.6</ele>
        <time>2023-07-05T14:46:10Z</time>
      </trkpt>
      <trkpt lat="49.23009" lon="-0.29638">
        <ele>15.5</ele>
        <time>2023-07-05T14:46:11Z</time>
      </trkpt>
      <trkpt lat="49.23008" lon="-0.29628">
        <ele>15.5</ele>
        <time>2023-07-05T14:46:12Z</time>
      </trkpt>
      <trkpt lat="49.23006" lon="-0.29617">
        <ele>15.4</ele>
        <time>2023-07-05T14:46:13Z</time>
      </trkpt>
      <trkpt lat="49.23005" lon="-0.29607">
        <ele>15.3</ele>
        <time>2023-07-05T14:46:14Z</time>
      </trkpt>
      <trkpt lat="49.23005" lon="-0.29598">
        <ele>15.3</ele>
        <time>2023-07-05T14:46:15Z</time>
      </trkpt>
      <trkpt lat="49.23007" lon="-0.29591">
        <ele>15.3</ele>
        <time>2023-07-05T14:46:16Z</time>
      </trkpt>
      <trkpt lat="49.23012" lon="-0.29587">
        <ele>15.3</ele>
        <time>2023-07-05T14:46:17Z</time>
      </trkpt>
      <trkpt lat="49.23018" lon="-0.29585">
        <ele>15.3</ele>
        <time>2023-07-05T14:46:18Z</time>
      </trkpt>
      <trkpt lat="49.23025" lon="-0.29583">
        <ele>15.3</ele>
        <time>2023-07-05T14:46:19Z</time>
      </trkpt>
      <trkpt lat="49.23031" lon="-0.29582">
        <ele>15.3</ele>
        <time>2023-07-05T14:46:20Z</time>
      </trkpt>
      <trkpt lat="49.23038" lon="-0.2958">
        <ele>15.3</ele>
        <time>2023-07-05T14:46:21Z</time>
      </trkpt>
      <trkpt lat="49.23044" lon="-0.29577">
        <ele>15.3</ele>
        <time>2023-07-05T14:46:22Z</time>
      </trkpt>
      <trkpt lat="49.23051" lon="-0.29574">
        <ele>15.3</ele>
        <time>2023-07-05T14:46:23Z</time>
      </trkpt>
      <trkpt lat="49.23057" lon="-0.29571">
        <ele>15.3</ele>
        <time>2023-07-05T14:46:24Z</time>
      </trkpt>
      <trkpt lat="49.23062" lon="-0.29567">
        <ele>15.3</ele>
        <time>2023-07-05T14:46:25Z</time>
      </trkpt>
      <trkpt lat="49.23068" lon="-0.29562">
        <ele>15.2</ele>
        <time>2023-07-05T14:46:26Z</time>
      </trkpt>
      <trkpt lat="49.23073" lon="-0.29558">
        <ele>15.2</ele>
        <time>2023-07-05T14:46:27Z</time>
      </trkpt>
      <trkpt lat="49.23078" lon="-0.29553">
        <ele>15.2</ele>
        <time>2023-07-05T14:46:28Z</time>
      </trkpt>
      <trkpt lat="49.23083" lon="-0.29548">
        <ele>15.2</ele>
        <time>2023-07-05T14:46:29Z</time>
      </trkpt>
      <trkpt lat="49.23088" lon="-0.29542">
        <ele>15.1</ele>
        <time>2023-07-05T14:46:30Z</time>
      </trkpt>
      <trkpt lat="49.23093" lon="-0.29536">
        <ele>15.1</ele>
        <time>2023-07-05T14:46:31Z</time>
      </trkpt>
      <trkpt lat="49.23098" lon="-0.2953">
        <ele>15</ele>
        <time>2023-07-05T14:46:32Z</time>
      </trkpt>
      <trkpt lat="49.23103" lon="-0.29523">
        <ele>15</ele>
        <time>2023-07-05T14:46:33Z</time>
      </trkpt>
      <trkpt lat="49.23108" lon="-0.29516">
        <ele>14.9</ele>
        <time>2023-07-05T14:46:34Z</time>
      </trkpt>
      <trkpt lat="49.23112" lon="-0.29509">
        <ele>14.9</ele>
        <time>2023-07-05T14:46:35Z</time>
      </trkpt>
      <trkpt lat="49.23116" lon="-0.29502">
        <ele>14.8</ele>
        <time>2023-07-05T14:46:36Z</time>
      </trkpt>
      <trkpt lat="49.2312" lon="-0.29495">
        <ele>14.8</ele>
        <time>2023-07-05T14:46:37Z</time>
      </trkpt>
      <trkpt lat="49.23124" lon="-0.29487">
        <ele>14.8</ele>
        <time>2023-07-05T14:46:38Z</time>
      </trkpt>
      <trkpt lat="49.23127" lon="-0.2948">
        <ele>14.7</ele>
        <time>2023-07-05T14:46:39Z</time>
      </trkpt>
      <trkpt lat="49.2313" lon="-0.29472">
        <ele>14.7</ele>
        <time>2023-07-05T14:46:40Z</time>
      </trkpt>
      <trkpt lat="49.23134" lon="-0.29465">
        <ele>14.7</ele>
        <time>2023-07-05T14:46:41Z</time>
      </trkpt>
      <trkpt lat="49.23137" lon="-0.29458">
        <ele>14.6</ele>
        <time>2023-07-05T14:46:42Z</time>
      </trkpt>
      <trkpt lat="49.2314" lon="-0.29451">
        <ele>14.6</ele>
        <time>2023-07-05T14:46:43Z</time>
      </trkpt>
      <trkpt lat="49.23143" lon="-0.29444">
        <ele>14.5</ele>
        <time>2023-07-05T14:46:44Z</time>
      </trkpt>
      <trkpt lat="49.23145" lon="-0.29437">
        <ele>14.5</ele>
        <time>2023-07-05T14:46:45Z</time>
      </trkpt>
      <trkpt lat="49.23147" lon="-0.2943">
        <ele>14.4</ele>
        <time>2023-07-05T14:46:46Z</time>
      </trkpt>
      <trkpt lat="49.23148" lon="-0.29423">
        <ele>14.4</ele>
        <time>2023-07-05T14:46:47Z</time>
      </trkpt>
      <trkpt lat="49.23149" lon="-0.29415">
        <ele>14.3</ele>
        <time>2023-07-05T14:46:48Z</time>
      </trkpt>
      <trkpt lat="49.2315" lon="-0.29408">
        <ele>14.2</ele>
        <time>2023-07-05T14:46:49Z</time>
      </trkpt>
      <trkpt lat="49.23149" lon="-0.294">
        <ele>14.2</ele>
        <time>2023-07-05T14:46:50Z</time>
      </trkpt>
      <trkpt lat="49.23148" lon="-0.29391">
        <ele>14.1</ele>
        <time>2023-07-05T14:46:51Z</time>
      </trkpt>
      <trkpt lat="49.23146" lon="-0.29382">
        <ele>13.9</ele>
        <time>2023-07-05T14:46:52Z</time>
      </trkpt>
      <trkpt lat="49.23143" lon="-0.29373">
        <ele>13.8</ele>
        <time>2023-07-05T14:46:53Z</time>
      </trkpt>
      <trkpt lat="49.23139" lon="-0.29364">
        <ele>13.7</ele>
        <time>2023-07-05T14:46:54Z</time>
      </trkpt>
      <trkpt lat="49.23134" lon="-0.29355">
        <ele>13.6</ele>
        <time>2023-07-05T14:46:55Z</time>
      </trkpt>
      <trkpt lat="49.23128" lon="-0.29347">
        <ele>13.5</ele>
        <time>2023-07-05T14:46:56Z</time>
      </trkpt>
      <trkpt lat="49.23122" lon="-0.2934">
        <ele>13.4</ele>
        <time>2023-07-05T14:46:57Z</time>
      </trkpt>
      <trkpt lat="49.23114" lon="-0.29334">
        <ele>13.2</ele>
        <time>2023-07-05T14:46:58Z</time>
      </trkpt>
      <trkpt lat="49.23107" lon="-0.29328">
        <ele>13.1</ele>
        <time>2023-07-05T14:46:59Z</time>
      </trkpt>
      <trkpt lat="49.23101" lon="-0.29322">
        <ele>13</ele>
        <time>2023-07-05T14:47:00Z</time>
      </trkpt>
      <trkpt lat="49.23094" lon="-0.29315">
        <ele>12.8</ele>
        <time>2023-07-05T14:47:01Z</time>
      </trkpt>
      <trkpt lat="49.23089" lon="-0.29307">
        <ele>12.7</ele>
        <time>2023-07-05T14:47:02Z</time>
      </trkpt>
      <trkpt lat="49.23083" lon="-0.29299">
        <ele>12.6</ele>
        <time>2023-07-05T14:47:03Z</time>
      </trkpt>
      <trkpt lat="49.23077" lon="-0.2929">
        <ele>12.4</ele>
        <time>2023-07-05T14:47:04Z</time>
      </trkpt>
      <trkpt lat="49.23072" lon="-0.29282">
        <ele>12.3</ele>
        <time>2023-07-05T14:47:05Z</time>
      </trkpt>
      <trkpt lat="49.23066" lon="-0.29274">
        <ele>12.1</ele>
        <time>2023-07-05T14:47:06Z</time>
      </trkpt>
      <trkpt lat="49.2306" lon="-0.29266">
        <ele>12</ele>
        <time>2023-07-05T14:47:07Z</time>
      </trkpt>
      <trkpt lat="49.23055" lon="-0.29258">
        <ele>11.8</ele>
        <time>2023-07-05T14:47:08Z</time>
      </trkpt>
      <trkpt lat="49.2305" lon="-0.2925">
        <ele>11.6</ele>
        <time>2023-07-05T14:47:09Z</time>
      </trkpt>
      <trkpt lat="49.23045" lon="-0.29242">
        <ele>11.4</ele>
        <time>2023-07-05T14:47:10Z</time>
      </trkpt>
      <trkpt lat="49.2304" lon="-0.29234">
        <ele>11.2</ele>
        <time>2023-07-05T14:47:11Z</time>
      </trkpt>
      <trkpt lat="49.23035" lon="-0.29227">
        <ele>10.9</ele>
        <time>2023-07-05T14:47:12Z</time>
      </trkpt>
      <trkpt lat="49.23031" lon="-0.29219">
        <ele>10.6</ele>
        <time>2023-07-05T14:47:13Z</time>
      </trkpt>
      <trkpt lat="49.23026" lon="-0.29211">
        <ele>10.4</ele>
        <time>2023-07-05T14:47:14Z</time>
      </trkpt>
      <trkpt lat="49.23021" lon="-0.29204">
        <ele>10.1</ele>
        <time>2023-07-05T14:47:15Z</time>
      </trkpt>
      <trkpt lat="49.23017" lon="-0.29196">
        <ele>9.8</ele>
        <time>2023-07-05T14:47:16Z</time>
      </trkpt>
      <trkpt lat="49.23012" lon="-0.29188">
        <ele>9.5</ele>
        <time>2023-07-05T14:47:17Z</time>
      </trkpt>
      <trkpt lat="49.23007" lon="-0.29181">
        <ele>9.2</ele>
        <time>2023-07-05T14:47:18Z</time>
      </trkpt>
      <trkpt lat="49.23002" lon="-0.29174">
        <ele>9</ele>
        <time>2023-07-05T14:47:19Z</time>
      </trkpt>
      <trkpt lat="49.22997" lon="-0.29168">
        <ele>9.1</ele>
        <time>2023-07-05T14:47:20Z</time>
      </trkpt>
      <trkpt lat="49.22992" lon="-0.29164">
        <ele>9.2</ele>
        <time>2023-07-05T14:47:21Z</time>
      </trkpt>
      <trkpt lat="49.22986" lon="-0.29162">
        <ele>9.2</ele>
        <time>2023-07-05T14:47:22Z</time>
      </trkpt>
      <trkpt lat="49.2298" lon="-0.2916">
        <ele>9.2</ele>
        <time>2023-07-05T14:47:23Z</time>
      </trkpt>
      <trkpt lat="49.22974" lon="-0.29158">
        <ele>9.1</ele>
        <time>2023-07-05T14:47:24Z</time>
      </trkpt>
      <trkpt lat="49.22969" lon="-0.29153">
        <ele>8.6</ele>
        <time>2023-07-05T14:47:25Z</time>
      </trkpt>
      <trkpt lat="49.22967" lon="-0.29146">
        <ele>8.6</ele>
        <time>2023-07-05T14:47:26Z</time>
      </trkpt>
      <trkpt lat="49.22968" lon="-0.29138">
        <ele>7.8</ele>
        <time>2023-07-05T14:47:27Z</time>
      </trkpt>
      <trkpt lat="49.22971" lon="-0.29131">
        <ele>7.5</ele>
        <time>2023-07-05T14:47:28Z</time>
      </trkpt>
      <trkpt lat="49.22975" lon="-0.29126">
        <ele>7.3</ele>
        <time>2023-07-05T14:47:29Z</time>
      </trkpt>
      <trkpt lat="49.2298" lon="-0.29125">
        <ele>7.1</ele>
        <time>2023-07-05T14:47:30Z</time>
      </trkpt>
      <trkpt lat="49.22984" lon="-0.29124">
        <ele>6.9</ele>
        <time>2023-07-05T14:47:31Z</time>
      </trkpt>
      <trkpt lat="49.22988" lon="-0.29124">
        <ele>6.9</ele>
        <time>2023-07-05T14:47:32Z</time>
      </trkpt>
      <trkpt lat="49.22991" lon="-0.29122">
        <ele>6.8</ele>
        <time>2023-07-05T14:47:33Z</time>
      </trkpt>
      <trkpt lat="49.22992" lon="-0.29118">
        <ele>6.8</ele>
        <time>2023-07-05T14:47:34Z</time>
      </trkpt>
      <trkpt lat="49.22992" lon="-0.29117">
        <ele>6.8</ele>
        <time>2023-07-05T14:47:35Z</time>
      </trkpt>
      <trkpt lat="49.22988" lon="-0.29114">
        <ele>6.7</ele>
        <time>2023-07-05T14:47:36Z</time>
      </trkpt>
      <trkpt lat="49.22987" lon="-0.29113">
        <ele>6.7</ele>
        <time>2023-07-05T14:47:37Z</time>
      </trkpt>
      <trkpt lat="49.22983" lon="-0.29112">
        <ele>6.6</ele>
        <time>2023-07-05T14:47:38Z</time>
      </trkpt>
      <trkpt lat="49.22982" lon="-0.29112">
        <ele>6.6</ele>
        <time>2023-07-05T14:47:39Z</time>
      </trkpt>
      <trkpt lat="49.22979" lon="-0.2911">
        <ele>6.6</ele>
        <time>2023-07-05T14:47:40Z</time>
      </trkpt>
      <trkpt lat="49.22976" lon="-0.29107">
        <ele>6.5</ele>
        <time>2023-07-05T14:47:41Z</time>
      </trkpt>
      <trkpt lat="49.22973" lon="-0.29103">
        <ele>6.5</ele>
        <time>2023-07-05T14:47:42Z</time>
      </trkpt>
      <trkpt lat="49.2297" lon="-0.291">
        <ele>6.4</ele>
        <time>2023-07-05T14:47:43Z</time>
      </trkpt>
      <trkpt lat="49.22968" lon="-0.29097">
        <ele>6.3</ele>
        <time>2023-07-05T14:47:44Z</time>
      </trkpt>
      <trkpt lat="49.22965" lon="-0.29093">
        <ele>6.1</ele>
        <time>2023-07-05T14:47:45Z</time>
      </trkpt>
      <trkpt lat="49.22964" lon="-0.29088">
        <ele>6</ele>
        <time>2023-07-05T14:47:46Z</time>
      </trkpt>
      <trkpt lat="49.22964" lon="-0.29082">
        <ele>6</ele>
        <time>2023-07-05T14:47:47Z</time>
      </trkpt>
      <trkpt lat="49.22965" lon="-0.29078">
        <ele>6</ele>
        <time>2023-07-05T14:47:48Z</time>
      </trkpt>
      <trkpt lat="49.22968" lon="-0.29072">
        <ele>6</ele>
        <time>2023-07-05T14:47:49Z</time>
      </trkpt>
      <trkpt lat="49.22971" lon="-0.29066">
        <ele>6</ele>
        <time>2023-07-05T14:47:50Z</time>
      </trkpt>
      <trkpt lat="49.22974" lon="-0.29058">
        <ele>6</ele>
        <time>2023-07-05T14:47:51Z</time>
      </trkpt>
      <trkpt lat="49.22978" lon="-0.2905">
        <ele>6</ele>
        <time>2023-07-05T14:47:52Z</time>
      </trkpt>
      <trkpt lat="49.22982" lon="-0.29042">
        <ele>6</ele>
        <time>2023-07-05T14:47:53Z</time>
      </trkpt>
      <trkpt lat="49.22986" lon="-0.29035">
        <ele>6</ele>
        <time>2023-07-05T14:47:54Z</time>
      </trkpt>
      <trkpt lat="49.2299" lon="-0.29026">
        <ele>6</ele>
        <time>2023-07-05T14:47:55Z</time>
      </trkpt>
      <trkpt lat="49.22995" lon="-0.29018">
        <ele>6</ele>
        <time>2023-07-05T14:47:56Z</time>
      </trkpt>
      <trkpt lat="49.22999" lon="-0.2901">
        <ele>6.1</ele>
        <time>2023-07-05T14:47:57Z</time>
      </trkpt>
      <trkpt lat="49.23004" lon="-0.29002">
        <ele>6.1</ele>
        <time>2023-07-05T14:47:58Z</time>
      </trkpt>
      <trkpt lat="49.23008" lon="-0.28993">
        <ele>6.1</ele>
        <time>2023-07-05T14:47:59Z</time>
      </trkpt>
      <trkpt lat="49.23012" lon="-0.28985">
        <ele>6.1</ele>
        <time>2023-07-05T14:48:00Z</time>
      </trkpt>
      <trkpt lat="49.23016" lon="-0.28977">
        <ele>6.1</ele>
        <time>2023-07-05T14:48:01Z</time>
      </trkpt>
      <trkpt lat="49.23021" lon="-0.2897">
        <ele>6.1</ele>
        <time>2023-07-05T14:48:02Z</time>
      </trkpt>
      <trkpt lat="49.23024" lon="-0.28963">
        <ele>6.1</ele>
        <time>2023-07-05T14:48:03Z</time>
      </trkpt>
      <trkpt lat="49.23028" lon="-0.28956">
        <ele>6.1</ele>
        <time>2023-07-05T14:48:04Z</time>
      </trkpt>
      <trkpt lat="49.23032" lon="-0.28949">
        <ele>6.1</ele>
        <time>2023-07-05T14:48:05Z</time>
      </trkpt>
      <trkpt lat="49.23035" lon="-0.28943">
        <ele>6.2</ele>
        <time>2023-07-05T14:48:06Z</time>
      </trkpt>
      <trkpt lat="49.23038" lon="-0.28936">
        <ele>6.2</ele>
        <time>2023-07-05T14:48:07Z</time>
      </trkpt>
      <trkpt lat="49.23042" lon="-0.28928">
        <ele>6.2</ele>
        <time>2023-07-05T14:48:08Z</time>
      </trkpt>
      <trkpt lat="49.23046" lon="-0.28921">
        <ele>6.2</ele>
        <time>2023-07-05T14:48:09Z</time>
      </trkpt>
      <trkpt lat="49.2305" lon="-0.28913">
        <ele>6.2</ele>
        <time>2023-07-05T14:48:10Z</time>
      </trkpt>
      <trkpt lat="49.23053" lon="-0.28906">
        <ele>6.2</ele>
        <time>2023-07-05T14:48:11Z</time>
      </trkpt>
      <trkpt lat="49.23057" lon="-0.28898">
        <ele>6.2</ele>
        <time>2023-07-05T14:48:12Z</time>
      </trkpt>
      <trkpt lat="49.23061" lon="-0.28889">
        <ele>6.1</ele>
        <time>2023-07-05T14:48:13Z</time>
      </trkpt>
      <trkpt lat="49.23066" lon="-0.28881">
        <ele>6.1</ele>
        <time>2023-07-05T14:48:14Z</time>
      </trkpt>
      <trkpt lat="49.2307" lon="-0.28873">
        <ele>6.1</ele>
        <time>2023-07-05T14:48:15Z</time>
      </trkpt>
      <trkpt lat="49.23074" lon="-0.28864">
        <ele>6.1</ele>
        <time>2023-07-05T14:48:16Z</time>
      </trkpt>
      <trkpt lat="49.23079" lon="-0.28855">
        <ele>6.1</ele>
        <time>2023-07-05T14:48:17Z</time>
      </trkpt>
      <trkpt lat="49.23083" lon="-0.28847">
        <ele>6.1</ele>
        <time>2023-07-05T14:48:18Z</time>
      </trkpt>
      <trkpt lat="49.23088" lon="-0.28838">
        <ele>6.1</ele>
        <time>2023-07-05T14:48:19Z</time>
      </trkpt>
      <trkpt lat="49.23092" lon="-0.28829">
        <ele>6.1</ele>
        <time>2023-07-05T14:48:20Z</time>
      </trkpt>
      <trkpt lat="49.23096" lon="-0.2882">
        <ele>6.1</ele>
        <time>2023-07-05T14:48:21Z</time>
      </trkpt>
      <trkpt lat="49.231" lon="-0.28811">
        <ele>6.1</ele>
        <time>2023-07-05T14:48:22Z</time>
      </trkpt>
      <trkpt lat="49.23105" lon="-0.28802">
        <ele>6.1</ele>
        <time>2023-07-05T14:48:23Z</time>
      </trkpt>
      <trkpt lat="49.23109" lon="-0.28794">
        <ele>6.1</ele>
        <time>2023-07-05T14:48:24Z</time>
      </trkpt>
      <trkpt lat="49.23114" lon="-0.28785">
        <ele>6.1</ele>
        <time>2023-07-05T14:48:25Z</time>
      </trkpt>
      <trkpt lat="49.23118" lon="-0.28777">
        <ele>6.1</ele>
        <time>2023-07-05T14:48:26Z</time>
      </trkpt>
      <trkpt lat="49.23123" lon="-0.28768">
        <ele>6</ele>
        <time>2023-07-05T14:48:27Z</time>
      </trkpt>
      <trkpt lat="49.23127" lon="-0.2876">
        <ele>6</ele>
        <time>2023-07-05T14:48:28Z</time>
      </trkpt>
      <trkpt lat="49.23131" lon="-0.28751">
        <ele>6</ele>
        <time>2023-07-05T14:48:29Z</time>
      </trkpt>
      <trkpt lat="49.23136" lon="-0.28743">
        <ele>6</ele>
        <time>2023-07-05T14:48:30Z</time>
      </trkpt>
      <trkpt lat="49.2314" lon="-0.28735">
        <ele>6</ele>
        <time>2023-07-05T14:48:31Z</time>
      </trkpt>
      <trkpt lat="49.23144" lon="-0.28727">
        <ele>6</ele>
        <time>2023-07-05T14:48:32Z</time>
      </trkpt>
      <trkpt lat="49.23149" lon="-0.28718">
        <ele>6</ele>
        <time>2023-07-05T14:48:33Z</time>
      </trkpt>
      <trkpt lat="49.23153" lon="-0.28709">
        <ele>6.1</ele>
        <time>2023-07-05T14:48:34Z</time>
      </trkpt>
      <trkpt lat="49.23157" lon="-0.28701">
        <ele>6.1</ele>
        <time>2023-07-05T14:48:35Z</time>
      </trkpt>
      <trkpt lat="49.23161" lon="-0.28692">
        <ele>6.1</ele>
        <time>2023-07-05T14:48:36Z</time>
      </trkpt>
      <trkpt lat="49.23165" lon="-0.28684">
        <ele>6.1</ele>
        <time>2023-07-05T14:48:37Z</time>
      </trkpt>
      <trkpt lat="49.2317" lon="-0.28676">
        <ele>6.1</ele>
        <time>2023-07-05T14:48:38Z</time>
      </trkpt>
      <trkpt lat="49.23174" lon="-0.28667">
        <ele>6.1</ele>
        <time>2023-07-05T14:48:39Z</time>
      </trkpt>
      <trkpt lat="49.23179" lon="-0.28659">
        <ele>6.1</ele>
        <time>2023-07-05T14:48:40Z</time>
      </trkpt>
      <trkpt lat="49.23183" lon="-0.28651">
        <ele>6.1</ele>
        <time>2023-07-05T14:48:41Z</time>
      </trkpt>
      <trkpt lat="49.23187" lon="-0.28642">
        <ele>6.1</ele>
        <time>2023-07-05T14:48:42Z</time>
      </trkpt>
      <trkpt lat="49.23192" lon="-0.28634">
        <ele>6.1</ele>
        <time>2023-07-05T14:48:43Z</time>
      </trkpt>
      <trkpt lat="49.23197" lon="-0.28625">
        <ele>6.1</ele>
        <time>2023-07-05T14:48:44Z</time>
      </trkpt>
      <trkpt lat="49.23201" lon="-0.28615">
        <ele>6.1</ele>
        <time>2023-07-05T14:48:45Z</time>
      </trkpt>
      <trkpt lat="49.23206" lon="-0.28606">
        <ele>6.1</ele>
        <time>2023-07-05T14:48:46Z</time>
      </trkpt>
      <trkpt lat="49.2321" lon="-0.28598">
        <ele>6.1</ele>
        <time>2023-07-05T14:48:47Z</time>
      </trkpt>
      <trkpt lat="49.23214" lon="-0.28589">
        <ele>6.1</ele>
        <time>2023-07-05T14:48:48Z</time>
      </trkpt>
      <trkpt lat="49.23219" lon="-0.2858">
        <ele>6.1</ele>
        <time>2023-07-05T14:48:49Z</time>
      </trkpt>
      <trkpt lat="49.23223" lon="-0.28571">
        <ele>6.1</ele>
        <time>2023-07-05T14:48:50Z</time>
      </trkpt>
      <trkpt lat="49.23227" lon="-0.28563">
        <ele>6.1</ele>
        <time>2023-07-05T14:48:51Z</time>
      </trkpt>
      <trkpt lat="49.23232" lon="-0.28554">
        <ele>6.1</ele>
        <time>2023-07-05T14:48:52Z</time>
      </trkpt>
      <trkpt lat="49.23236" lon="-0.28546">
        <ele>6.1</ele>
        <time>2023-07-05T14:48:53Z</time>
      </trkpt>
      <trkpt lat="49.23241" lon="-0.28537">
        <ele>6.2</ele>
        <time>2023-07-05T14:48:54Z</time>
      </trkpt>
      <trkpt lat="49.23246" lon="-0.28529">
        <ele>6.2</ele>
        <time>2023-07-05T14:48:55Z</time>
      </trkpt>
      <trkpt lat="49.23251" lon="-0.28521">
        <ele>6.2</ele>
        <time>2023-07-05T14:48:56Z</time>
      </trkpt>
      <trkpt lat="49.23256" lon="-0.28513">
        <ele>6.3</ele>
        <time>2023-07-05T14:48:57Z</time>
      </trkpt>
      <trkpt lat="49.23261" lon="-0.28504">
        <ele>6.3</ele>
        <time>2023-07-05T14:48:58Z</time>
      </trkpt>
      <trkpt lat="49.23266" lon="-0.28494">
        <ele>6.3</ele>
        <time>2023-07-05T14:48:59Z</time>
      </trkpt>
      <trkpt lat="49.23271" lon="-0.28486">
        <ele>6.3</ele>
        <time>2023-07-05T14:49:00Z</time>
      </trkpt>
      <trkpt lat="49.23276" lon="-0.28477">
        <ele>6.3</ele>
        <time>2023-07-05T14:49:01Z</time>
      </trkpt>
      <trkpt lat="49.23281" lon="-0.28468">
        <ele>6.3</ele>
        <time>2023-07-05T14:49:02Z</time>
      </trkpt>
      <trkpt lat="49.23286" lon="-0.28459">
        <ele>6.3</ele>
        <time>2023-07-05T14:49:03Z</time>
      </trkpt>
      <trkpt lat="49.23291" lon="-0.2845">
        <ele>6.3</ele>
        <time>2023-07-05T14:49:04Z</time>
      </trkpt>
      <trkpt lat="49.23296" lon="-0.28441">
        <ele>6.3</ele>
        <time>2023-07-05T14:49:05Z</time>
      </trkpt>
      <trkpt lat="49.23301" lon="-0.28432">
        <ele>6.3</ele>
        <time>2023-07-05T14:49:06Z</time>
      </trkpt>
      <trkpt lat="49.23306" lon="-0.28423">
        <ele>6.3</ele>
        <time>2023-07-05T14:49:07Z</time>
      </trkpt>
      <trkpt lat="49.23311" lon="-0.28414">
        <ele>6.3</ele>
        <time>2023-07-05T14:49:08Z</time>
      </trkpt>
      <trkpt lat="49.23316" lon="-0.28405">
        <ele>6.3</ele>
        <time>2023-07-05T14:49:09Z</time>
      </trkpt>
      <trkpt lat="49.23321" lon="-0.28397">
        <ele>6.3</ele>
        <time>2023-07-05T14:49:10Z</time>
      </trkpt>
      <trkpt lat="49.23326" lon="-0.2839">
        <ele>6.3</ele>
        <time>2023-07-05T14:49:11Z</time>
      </trkpt>
      <trkpt lat="49.2333" lon="-0.28383">
        <ele>6.3</ele>
        <time>2023-07-05T14:49:12Z</time>
      </trkpt>
      <trkpt lat="49.23335" lon="-0.28376">
        <ele>6.3</ele>
        <time>2023-07-05T14:49:13Z</time>
      </trkpt>
      <trkpt lat="49.2334" lon="-0.28368">
        <ele>6.3</ele>
        <time>2023-07-05T14:49:14Z</time>
      </trkpt>
      <trkpt lat="49.23345" lon="-0.2836">
        <ele>6.2</ele>
        <time>2023-07-05T14:49:15Z</time>
      </trkpt>
      <trkpt lat="49.2335" lon="-0.28351">
        <ele>6.2</ele>
        <time>2023-07-05T14:49:16Z</time>
      </trkpt>
      <trkpt lat="49.23355" lon="-0.28342">
        <ele>6.2</ele>
        <time>2023-07-05T14:49:17Z</time>
      </trkpt>
      <trkpt lat="49.23361" lon="-0.28333">
        <ele>6.1</ele>
        <time>2023-07-05T14:49:18Z</time>
      </trkpt>
      <trkpt lat="49.23366" lon="-0.28324">
        <ele>6.1</ele>
        <time>2023-07-05T14:49:19Z</time>
      </trkpt>
      <trkpt lat="49.23371" lon="-0.28315">
        <ele>6.1</ele>
        <time>2023-07-05T14:49:20Z</time>
      </trkpt>
      <trkpt lat="49.23377" lon="-0.28307">
        <ele>6.1</ele>
        <time>2023-07-05T14:49:21Z</time>
      </trkpt>
      <trkpt lat="49.23382" lon="-0.28298">
        <ele>6</ele>
        <time>2023-07-05T14:49:22Z</time>
      </trkpt>
      <trkpt lat="49.23388" lon="-0.28289">
        <ele>6</ele>
        <time>2023-07-05T14:49:23Z</time>
      </trkpt>
      <trkpt lat="49.23393" lon="-0.28281">
        <ele>6</ele>
        <time>2023-07-05T14:49:24Z</time>
      </trkpt>
      <trkpt lat="49.23399" lon="-0.28273">
        <ele>6</ele>
        <time>2023-07-05T14:49:25Z</time>
      </trkpt>
      <trkpt lat="49.23404" lon="-0.28264">
        <ele>6</ele>
        <time>2023-07-05T14:49:26Z</time>
      </trkpt>
      <trkpt lat="49.2341" lon="-0.28256">
        <ele>5.9</ele>
        <time>2023-07-05T14:49:27Z</time>
      </trkpt>
      <trkpt lat="49.23416" lon="-0.28248">
        <ele>5.9</ele>
        <time>2023-07-05T14:49:28Z</time>
      </trkpt>
      <trkpt lat="49.23422" lon="-0.2824">
        <ele>5.9</ele>
        <time>2023-07-05T14:49:29Z</time>
      </trkpt>
      <trkpt lat="49.23428" lon="-0.28231">
        <ele>5.9</ele>
        <time>2023-07-05T14:49:30Z</time>
      </trkpt>
      <trkpt lat="49.23434" lon="-0.28222">
        <ele>5.8</ele>
        <time>2023-07-05T14:49:31Z</time>
      </trkpt>
      <trkpt lat="49.2344" lon="-0.28214">
        <ele>5.8</ele>
        <time>2023-07-05T14:49:32Z</time>
      </trkpt>
      <trkpt lat="49.23446" lon="-0.28205">
        <ele>5.8</ele>
        <time>2023-07-05T14:49:33Z</time>
      </trkpt>
      <trkpt lat="49.23452" lon="-0.28197">
        <ele>5.7</ele>
        <time>2023-07-05T14:49:34Z</time>
      </trkpt>
      <trkpt lat="49.23458" lon="-0.28188">
        <ele>5.7</ele>
        <time>2023-07-05T14:49:35Z</time>
      </trkpt>
      <trkpt lat="49.23465" lon="-0.28179">
        <ele>5.6</ele>
        <time>2023-07-05T14:49:36Z</time>
      </trkpt>
      <trkpt lat="49.23471" lon="-0.28171">
        <ele>5.6</ele>
        <time>2023-07-05T14:49:37Z</time>
      </trkpt>
      <trkpt lat="49.23477" lon="-0.28164">
        <ele>5.6</ele>
        <time>2023-07-05T14:49:38Z</time>
      </trkpt>
      <trkpt lat="49.23483" lon="-0.28157">
        <ele>5.6</ele>
        <time>2023-07-05T14:49:39Z</time>
      </trkpt>
      <trkpt lat="49.23489" lon="-0.2815">
        <ele>5.5</ele>
        <time>2023-07-05T14:49:40Z</time>
      </trkpt>
      <trkpt lat="49.23494" lon="-0.28142">
        <ele>5.5</ele>
        <time>2023-07-05T14:49:41Z</time>
      </trkpt>
      <trkpt lat="49.235" lon="-0.28136">
        <ele>5.5</ele>
        <time>2023-07-05T14:49:42Z</time>
      </trkpt>
      <trkpt lat="49.23507" lon="-0.28128">
        <ele>5.4</ele>
        <time>2023-07-05T14:49:43Z</time>
      </trkpt>
      <trkpt lat="49.23514" lon="-0.28121">
        <ele>5.4</ele>
        <time>2023-07-05T14:49:44Z</time>
      </trkpt>
      <trkpt lat="49.23521" lon="-0.28114">
        <ele>5.3</ele>
        <time>2023-07-05T14:49:45Z</time>
      </trkpt>
      <trkpt lat="49.23528" lon="-0.28107">
        <ele>5.2</ele>
        <time>2023-07-05T14:49:46Z</time>
      </trkpt>
      <trkpt lat="49.23535" lon="-0.281">
        <ele>5.1</ele>
        <time>2023-07-05T14:49:47Z</time>
      </trkpt>
      <trkpt lat="49.23542" lon="-0.28093">
        <ele>5</ele>
        <time>2023-07-05T14:49:48Z</time>
      </trkpt>
      <trkpt lat="49.23549" lon="-0.28087">
        <ele>4.9</ele>
        <time>2023-07-05T14:49:49Z</time>
      </trkpt>
      <trkpt lat="49.23557" lon="-0.2808">
        <ele>4.9</ele>
        <time>2023-07-05T14:49:50Z</time>
      </trkpt>
      <trkpt lat="49.23564" lon="-0.28073">
        <ele>4.9</ele>
        <time>2023-07-05T14:49:51Z</time>
      </trkpt>
      <trkpt lat="49.2357" lon="-0.28066">
        <ele>4.8</ele>
        <time>2023-07-05T14:49:52Z</time>
      </trkpt>
      <trkpt lat="49.23576" lon="-0.28059">
        <ele>4.8</ele>
        <time>2023-07-05T14:49:53Z</time>
      </trkpt>
      <trkpt lat="49.23582" lon="-0.28051">
        <ele>4.8</ele>
        <time>2023-07-05T14:49:54Z</time>
      </trkpt>
      <trkpt lat="49.23588" lon="-0.28045">
        <ele>4.8</ele>
        <time>2023-07-05T14:49:55Z</time>
      </trkpt>
      <trkpt lat="49.23595" lon="-0.28037">
        <ele>4.8</ele>
        <time>2023-07-05T14:49:56Z</time>
      </trkpt>
      <trkpt lat="49.23602" lon="-0.2803">
        <ele>4.8</ele>
        <time>2023-07-05T14:49:57Z</time>
      </trkpt>
      <trkpt lat="49.23609" lon="-0.28023">
        <ele>4.7</ele>
        <time>2023-07-05T14:49:58Z</time>
      </trkpt>
      <trkpt lat="49.23616" lon="-0.28016">
        <ele>4.7</ele>
        <time>2023-07-05T14:49:59Z</time>
      </trkpt>
      <trkpt lat="49.23623" lon="-0.28009">
        <ele>4.7</ele>
        <time>2023-07-05T14:50:00Z</time>
      </trkpt>
      <trkpt lat="49.23629" lon="-0.28002">
        <ele>4.7</ele>
        <time>2023-07-05T14:50:01Z</time>
      </trkpt>
      <trkpt lat="49.23636" lon="-0.27995">
        <ele>4.6</ele>
        <time>2023-07-05T14:50:02Z</time>
      </trkpt>
      <trkpt lat="49.23643" lon="-0.27987">
        <ele>4.6</ele>
        <time>2023-07-05T14:50:03Z</time>
      </trkpt>
      <trkpt lat="49.2365" lon="-0.2798">
        <ele>4.6</ele>
        <time>2023-07-05T14:50:04Z</time>
      </trkpt>
      <trkpt lat="49.23657" lon="-0.27974">
        <ele>4.6</ele>
        <time>2023-07-05T14:50:05Z</time>
      </trkpt>
      <trkpt lat="49.23664" lon="-0.27968">
        <ele>4.6</ele>
        <time>2023-07-05T14:50:06Z</time>
      </trkpt>
      <trkpt lat="49.23671" lon="-0.27961">
        <ele>4.6</ele>
        <time>2023-07-05T14:50:07Z</time>
      </trkpt>
      <trkpt lat="49.23678" lon="-0.27955">
        <ele>4.5</ele>
        <time>2023-07-05T14:50:08Z</time>
      </trkpt>
      <trkpt lat="49.23685" lon="-0.27949">
        <ele>4.5</ele>
        <time>2023-07-05T14:50:09Z</time>
      </trkpt>
      <trkpt lat="49.23693" lon="-0.27943">
        <ele>4.5</ele>
        <time>2023-07-05T14:50:10Z</time>
      </trkpt>
      <trkpt lat="49.23699" lon="-0.27936">
        <ele>4.5</ele>
        <time>2023-07-05T14:50:11Z</time>
      </trkpt>
      <trkpt lat="49.23706" lon="-0.2793">
        <ele>4.5</ele>
        <time>2023-07-05T14:50:12Z</time>
      </trkpt>
      <trkpt lat="49.23713" lon="-0.27924">
        <ele>4.5</ele>
        <time>2023-07-05T14:50:13Z</time>
      </trkpt>
      <trkpt lat="49.2372" lon="-0.27918">
        <ele>4.5</ele>
        <time>2023-07-05T14:50:14Z</time>
      </trkpt>
      <trkpt lat="49.23727" lon="-0.27912">
        <ele>4.5</ele>
        <time>2023-07-05T14:50:15Z</time>
      </trkpt>
      <trkpt lat="49.23735" lon="-0.27906">
        <ele>4.5</ele>
        <time>2023-07-05T14:50:16Z</time>
      </trkpt>
      <trkpt lat="49.23742" lon="-0.279">
        <ele>4.5</ele>
        <time>2023-07-05T14:50:17Z</time>
      </trkpt>
      <trkpt lat="49.23749" lon="-0.27894">
        <ele>4.5</ele>
        <time>2023-07-05T14:50:18Z</time>
      </trkpt>
      <trkpt lat="49.23757" lon="-0.27888">
        <ele>4.5</ele>
        <time>2023-07-05T14:50:19Z</time>
      </trkpt>
      <trkpt lat="49.23764" lon="-0.27882">
        <ele>4.5</ele>
        <time>2023-07-05T14:50:20Z</time>
      </trkpt>
      <trkpt lat="49.23771" lon="-0.27876">
        <ele>4.5</ele>
        <time>2023-07-05T14:50:21Z</time>
      </trkpt>
      <trkpt lat="49.23778" lon="-0.2787">
        <ele>4.5</ele>
        <time>2023-07-05T14:50:22Z</time>
      </trkpt>
      <trkpt lat="49.23785" lon="-0.27864">
        <ele>4.5</ele>
        <time>2023-07-05T14:50:23Z</time>
      </trkpt>
      <trkpt lat="49.23793" lon="-0.27859">
        <ele>4.5</ele>
        <time>2023-07-05T14:50:24Z</time>
      </trkpt>
      <trkpt lat="49.238" lon="-0.27853">
        <ele>4.5</ele>
        <time>2023-07-05T14:50:25Z</time>
      </trkpt>
      <trkpt lat="49.23807" lon="-0.27848">
        <ele>4.5</ele>
        <time>2023-07-05T14:50:26Z</time>
      </trkpt>
      <trkpt lat="49.23814" lon="-0.27843">
        <ele>4.5</ele>
        <time>2023-07-05T14:50:27Z</time>
      </trkpt>
      <trkpt lat="49.23821" lon="-0.27837">
        <ele>4.5</ele>
        <time>2023-07-05T14:50:28Z</time>
      </trkpt>
      <trkpt lat="49.23828" lon="-0.27831">
        <ele>4.5</ele>
        <time>2023-07-05T14:50:29Z</time>
      </trkpt>
      <trkpt lat="49.23835" lon="-0.27825">
        <ele>4.6</ele>
        <time>2023-07-05T14:50:30Z</time>
      </trkpt>
      <trkpt lat="49.23843" lon="-0.27819">
        <ele>4.6</ele>
        <time>2023-07-05T14:50:31Z</time>
      </trkpt>
      <trkpt lat="49.2385" lon="-0.27814">
        <ele>4.6</ele>
        <time>2023-07-05T14:50:32Z</time>
      </trkpt>
      <trkpt lat="49.23857" lon="-0.27808">
        <ele>4.7</ele>
        <time>2023-07-05T14:50:33Z</time>
      </trkpt>
      <trkpt lat="49.23864" lon="-0.27802">
        <ele>4.7</ele>
        <time>2023-07-05T14:50:34Z</time>
      </trkpt>
      <trkpt lat="49.23872" lon="-0.27796">
        <ele>4.7</ele>
        <time>2023-07-05T14:50:35Z</time>
      </trkpt>
      <trkpt lat="49.23878" lon="-0.27791">
        <ele>4.7</ele>
        <time>2023-07-05T14:50:36Z</time>
      </trkpt>
      <trkpt lat="49.23885" lon="-0.27785">
        <ele>4.7</ele>
        <time>2023-07-05T14:50:37Z</time>
      </trkpt>
      <trkpt lat="49.23892" lon="-0.2778">
        <ele>4.7</ele>
        <time>2023-07-05T14:50:38Z</time>
      </trkpt>
      <trkpt lat="49.23899" lon="-0.27774">
        <ele>4.7</ele>
        <time>2023-07-05T14:50:39Z</time>
      </trkpt>
      <trkpt lat="49.23907" lon="-0.27769">
        <ele>4.7</ele>
        <time>2023-07-05T14:50:40Z</time>
      </trkpt>
      <trkpt lat="49.23914" lon="-0.27763">
        <ele>4.7</ele>
        <time>2023-07-05T14:50:41Z</time>
      </trkpt>
      <trkpt lat="49.23921" lon="-0.27757">
        <ele>4.7</ele>
        <time>2023-07-05T14:50:42Z</time>
      </trkpt>
      <trkpt lat="49.23929" lon="-0.27752">
        <ele>4.6</ele>
        <time>2023-07-05T14:50:43Z</time>
      </trkpt>
      <trkpt lat="49.23937" lon="-0.27747">
        <ele>4.6</ele>
        <time>2023-07-05T14:50:44Z</time>
      </trkpt>
      <trkpt lat="49.23944" lon="-0.27741">
        <ele>4.6</ele>
        <time>2023-07-05T14:50:45Z</time>
      </trkpt>
      <trkpt lat="49.23951" lon="-0.27735">
        <ele>4.5</ele>
        <time>2023-07-05T14:50:46Z</time>
      </trkpt>
      <trkpt lat="49.23959" lon="-0.2773">
        <ele>4.5</ele>
        <time>2023-07-05T14:50:47Z</time>
      </trkpt>
      <trkpt lat="49.23966" lon="-0.27724">
        <ele>4.5</ele>
        <time>2023-07-05T14:50:48Z</time>
      </trkpt>
      <trkpt lat="49.23974" lon="-0.27718">
        <ele>4.5</ele>
        <time>2023-07-05T14:50:49Z</time>
      </trkpt>
      <trkpt lat="49.23982" lon="-0.27712">
        <ele>4.5</ele>
        <time>2023-07-05T14:50:50Z</time>
      </trkpt>
      <trkpt lat="49.23989" lon="-0.27707">
        <ele>4.5</ele>
        <time>2023-07-05T14:50:51Z</time>
      </trkpt>
      <trkpt lat="49.23997" lon="-0.27701">
        <ele>4.5</ele>
        <time>2023-07-05T14:50:52Z</time>
      </trkpt>
      <trkpt lat="49.24004" lon="-0.27696">
        <ele>4.5</ele>
        <time>2023-07-05T14:50:53Z</time>
      </trkpt>
      <trkpt lat="49.24011" lon="-0.27691">
        <ele>4.5</ele>
        <time>2023-07-05T14:50:54Z</time>
      </trkpt>
      <trkpt lat="49.24017" lon="-0.27686">
        <ele>4.4</ele>
        <time>2023-07-05T14:50:55Z</time>
      </trkpt>
      <trkpt lat="49.24024" lon="-0.27681">
        <ele>4.4</ele>
        <time>2023-07-05T14:50:56Z</time>
      </trkpt>
      <trkpt lat="49.24031" lon="-0.27675">
        <ele>4.4</ele>
        <time>2023-07-05T14:50:57Z</time>
      </trkpt>
      <trkpt lat="49.24039" lon="-0.2767">
        <ele>4.3</ele>
        <time>2023-07-05T14:50:58Z</time>
      </trkpt>
      <trkpt lat="49.24046" lon="-0.27664">
        <ele>4.3</ele>
        <time>2023-07-05T14:50:59Z</time>
      </trkpt>
      <trkpt lat="49.24053" lon="-0.27659">
        <ele>4.3</ele>
        <time>2023-07-05T14:51:00Z</time>
      </trkpt>
      <trkpt lat="49.24061" lon="-0.27653">
        <ele>4.2</ele>
        <time>2023-07-05T14:51:01Z</time>
      </trkpt>
      <trkpt lat="49.24068" lon="-0.27647">
        <ele>4.2</ele>
        <time>2023-07-05T14:51:02Z</time>
      </trkpt>
      <trkpt lat="49.24076" lon="-0.27641">
        <ele>4.2</ele>
        <time>2023-07-05T14:51:03Z</time>
      </trkpt>
      <trkpt lat="49.24083" lon="-0.27636">
        <ele>4.3</ele>
        <time>2023-07-05T14:51:04Z</time>
      </trkpt>
      <trkpt lat="49.2409" lon="-0.2763">
        <ele>4.3</ele>
        <time>2023-07-05T14:51:05Z</time>
      </trkpt>
      <trkpt lat="49.24097" lon="-0.27625">
        <ele>4.3</ele>
        <time>2023-07-05T14:51:06Z</time>
      </trkpt>
      <trkpt lat="49.24104" lon="-0.2762">
        <ele>4.3</ele>
        <time>2023-07-05T14:51:07Z</time>
      </trkpt>
      <trkpt lat="49.2411" lon="-0.27615">
        <ele>4.3</ele>
        <time>2023-07-05T14:51:08Z</time>
      </trkpt>
      <trkpt lat="49.24117" lon="-0.2761">
        <ele>4.3</ele>
        <time>2023-07-05T14:51:09Z</time>
      </trkpt>
      <trkpt lat="49.24123" lon="-0.27605">
        <ele>4.3</ele>
        <time>2023-07-05T14:51:10Z</time>
      </trkpt>
      <trkpt lat="49.24129" lon="-0.276">
        <ele>4.3</ele>
        <time>2023-07-05T14:51:11Z</time>
      </trkpt>
      <trkpt lat="49.24135" lon="-0.27596">
        <ele>4.3</ele>
        <time>2023-07-05T14:51:12Z</time>
      </trkpt>
      <trkpt lat="49.24141" lon="-0.27592">
        <ele>4.3</ele>
        <time>2023-07-05T14:51:13Z</time>
      </trkpt>
      <trkpt lat="49.24146" lon="-0.27588">
        <ele>4.3</ele>
        <time>2023-07-05T14:51:14Z</time>
      </trkpt>
      <trkpt lat="49.24152" lon="-0.27584">
        <ele>4.3</ele>
        <time>2023-07-05T14:51:15Z</time>
      </trkpt>
      <trkpt lat="49.24157" lon="-0.27579">
        <ele>4.4</ele>
        <time>2023-07-05T14:51:16Z</time>
      </trkpt>
      <trkpt lat="49.24163" lon="-0.27575">
        <ele>4.4</ele>
        <time>2023-07-05T14:51:17Z</time>
      </trkpt>
      <trkpt lat="49.24168" lon="-0.27571">
        <ele>4.4</ele>
        <time>2023-07-05T14:51:18Z</time>
      </trkpt>
      <trkpt lat="49.24173" lon="-0.27566">
        <ele>4.4</ele>
        <time>2023-07-05T14:51:19Z</time>
      </trkpt>
      <trkpt lat="49.24178" lon="-0.2756">
        <ele>4.5</ele>
        <time>2023-07-05T14:51:20Z</time>
      </trkpt>
      <trkpt lat="49.24183" lon="-0.27553">
        <ele>4.5</ele>
        <time>2023-07-05T14:51:21Z</time>
      </trkpt>
      <trkpt lat="49.24187" lon="-0.27546">
        <ele>4.5</ele>
        <time>2023-07-05T14:51:22Z</time>
      </trkpt>
      <trkpt lat="49.24191" lon="-0.27538">
        <ele>4.6</ele>
        <time>2023-07-05T14:51:23Z</time>
      </trkpt>
      <trkpt lat="49.24195" lon="-0.27531">
        <ele>4.6</ele>
        <time>2023-07-05T14:51:24Z</time>
      </trkpt>
      <trkpt lat="49.24199" lon="-0.27525">
        <ele>4.7</ele>
        <time>2023-07-05T14:51:25Z</time>
      </trkpt>
      <trkpt lat="49.24203" lon="-0.27519">
        <ele>4.7</ele>
        <time>2023-07-05T14:51:26Z</time>
      </trkpt>
      <trkpt lat="49.24208" lon="-0.27514">
        <ele>4.8</ele>
        <time>2023-07-05T14:51:27Z</time>
      </trkpt>
      <trkpt lat="49.24213" lon="-0.2751">
        <ele>4.9</ele>
        <time>2023-07-05T14:51:28Z</time>
      </trkpt>
      <trkpt lat="49.24218" lon="-0.27506">
        <ele>5</ele>
        <time>2023-07-05T14:51:29Z</time>
      </trkpt>
      <trkpt lat="49.24222" lon="-0.27503">
        <ele>5.1</ele>
        <time>2023-07-05T14:51:30Z</time>
      </trkpt>
      <trkpt lat="49.24227" lon="-0.27499">
        <ele>5.2</ele>
        <time>2023-07-05T14:51:31Z</time>
      </trkpt>
      <trkpt lat="49.24231" lon="-0.27497">
        <ele>5.3</ele>
        <time>2023-07-05T14:51:32Z</time>
      </trkpt>
      <trkpt lat="49.24235" lon="-0.27494">
        <ele>5.4</ele>
        <time>2023-07-05T14:51:33Z</time>
      </trkpt>
      <trkpt lat="49.24238" lon="-0.27492">
        <ele>5.6</ele>
        <time>2023-07-05T14:51:34Z</time>
      </trkpt>
      <trkpt lat="49.24241" lon="-0.2749">
        <ele>5.6</ele>
        <time>2023-07-05T14:51:35Z</time>
      </trkpt>
      <trkpt lat="49.24244" lon="-0.27487">
        <ele>5.7</ele>
        <time>2023-07-05T14:51:36Z</time>
      </trkpt>
      <trkpt lat="49.24245" lon="-0.27487">
        <ele>5.8</ele>
        <time>2023-07-05T14:51:37Z</time>
      </trkpt>
      <trkpt lat="49.24248" lon="-0.27485">
        <ele>5.9</ele>
        <time>2023-07-05T14:51:38Z</time>
      </trkpt>
      <trkpt lat="49.24248" lon="-0.27484">
        <ele>5.9</ele>
        <time>2023-07-05T14:51:39Z</time>
      </trkpt>
      <trkpt lat="49.24251" lon="-0.27482">
        <ele>6</ele>
        <time>2023-07-05T14:51:40Z</time>
      </trkpt>
      <trkpt lat="49.24252" lon="-0.27481">
        <ele>6</ele>
        <time>2023-07-05T14:51:41Z</time>
      </trkpt>
      <trkpt lat="49.24255" lon="-0.27479">
        <ele>6</ele>
        <time>2023-07-05T14:51:42Z</time>
      </trkpt>
      <trkpt lat="49.24256" lon="-0.27479">
        <ele>6.1</ele>
        <time>2023-07-05T14:51:43Z</time>
      </trkpt>
      <trkpt lat="49.24257" lon="-0.27474">
        <ele>6.1</ele>
        <time>2023-07-05T14:51:44Z</time>
      </trkpt>
      <trkpt lat="49.24258" lon="-0.27472">
        <ele>6.1</ele>
        <time>2023-07-05T14:51:45Z</time>
      </trkpt>
      <trkpt lat="49.24258" lon="-0.27466">
        <ele>6.2</ele>
        <time>2023-07-05T14:51:46Z</time>
      </trkpt>
      <trkpt lat="49.24256" lon="-0.2746">
        <ele>6.2</ele>
        <time>2023-07-05T14:51:47Z</time>
      </trkpt>
      <trkpt lat="49.24255" lon="-0.27455">
        <ele>6.2</ele>
        <time>2023-07-05T14:51:48Z</time>
      </trkpt>
      <trkpt lat="49.24252" lon="-0.27449">
        <ele>6.2</ele>
        <time>2023-07-05T14:51:49Z</time>
      </trkpt>
      <trkpt lat="49.2425" lon="-0.27442">
        <ele>6.2</ele>
        <time>2023-07-05T14:51:50Z</time>
      </trkpt>
      <trkpt lat="49.24247" lon="-0.27435">
        <ele>6.2</ele>
        <time>2023-07-05T14:51:51Z</time>
      </trkpt>
      <trkpt lat="49.24245" lon="-0.27428">
        <ele>6.2</ele>
        <time>2023-07-05T14:51:52Z</time>
      </trkpt>
      <trkpt lat="49.24242" lon="-0.2742">
        <ele>6.2</ele>
        <time>2023-07-05T14:51:53Z</time>
      </trkpt>
      <trkpt lat="49.2424" lon="-0.27411">
        <ele>6.2</ele>
        <time>2023-07-05T14:51:54Z</time>
      </trkpt>
      <trkpt lat="49.24236" lon="-0.27402">
        <ele>6.2</ele>
        <time>2023-07-05T14:51:55Z</time>
      </trkpt>
      <trkpt lat="49.24234" lon="-0.27393">
        <ele>6.2</ele>
        <time>2023-07-05T14:51:56Z</time>
      </trkpt>
      <trkpt lat="49.24231" lon="-0.27385">
        <ele>6.2</ele>
        <time>2023-07-05T14:51:57Z</time>
      </trkpt>
      <trkpt lat="49.24228" lon="-0.27377">
        <ele>6.2</ele>
        <time>2023-07-05T14:51:58Z</time>
      </trkpt>
      <trkpt lat="49.24225" lon="-0.27368">
        <ele>6.1</ele>
        <time>2023-07-05T14:51:59Z</time>
      </trkpt>
      <trkpt lat="49.24222" lon="-0.27359">
        <ele>6.1</ele>
        <time>2023-07-05T14:52:00Z</time>
      </trkpt>
      <trkpt lat="49.2422" lon="-0.27352">
        <ele>6</ele>
        <time>2023-07-05T14:52:01Z</time>
      </trkpt>
      <trkpt lat="49.24218" lon="-0.27347">
        <ele>6</ele>
        <time>2023-07-05T14:52:02Z</time>
      </trkpt>
      <trkpt lat="49.24216" lon="-0.27343">
        <ele>5.9</ele>
        <time>2023-07-05T14:52:03Z</time>
      </trkpt>
      <trkpt lat="49.24214" lon="-0.2734">
        <ele>5.9</ele>
        <time>2023-07-05T14:52:04Z</time>
      </trkpt>
      <trkpt lat="49.24212" lon="-0.27338">
        <ele>5.9</ele>
        <time>2023-07-05T14:52:05Z</time>
      </trkpt>
      <trkpt lat="49.24209" lon="-0.27335">
        <ele>5.8</ele>
        <time>2023-07-05T14:52:06Z</time>
      </trkpt>
      <trkpt lat="49.24206" lon="-0.2733">
        <ele>5.8</ele>
        <time>2023-07-05T14:52:07Z</time>
      </trkpt>
      <trkpt lat="49.24204" lon="-0.27324">
        <ele>5.7</ele>
        <time>2023-07-05T14:52:08Z</time>
      </trkpt>
      <trkpt lat="49.242" lon="-0.27318">
        <ele>5.7</ele>
        <time>2023-07-05T14:52:09Z</time>
      </trkpt>
      <trkpt lat="49.24196" lon="-0.27311">
        <ele>5.6</ele>
        <time>2023-07-05T14:52:10Z</time>
      </trkpt>
      <trkpt lat="49.24192" lon="-0.27305">
        <ele>5.5</ele>
        <time>2023-07-05T14:52:11Z</time>
      </trkpt>
      <trkpt lat="49.24187" lon="-0.27298">
        <ele>5.4</ele>
        <time>2023-07-05T14:52:12Z</time>
      </trkpt>
      <trkpt lat="49.24183" lon="-0.27291">
        <ele>5.4</ele>
        <time>2023-07-05T14:52:13Z</time>
      </trkpt>
      <trkpt lat="49.24179" lon="-0.27282">
        <ele>5.3</ele>
        <time>2023-07-05T14:52:14Z</time>
      </trkpt>
      <trkpt lat="49.24175" lon="-0.27273">
        <ele>5.2</ele>
        <time>2023-07-05T14:52:15Z</time>
      </trkpt>
      <trkpt lat="49.24173" lon="-0.27264">
        <ele>5.1</ele>
        <time>2023-07-05T14:52:16Z</time>
      </trkpt>
      <trkpt lat="49.2417" lon="-0.27255">
        <ele>5</ele>
        <time>2023-07-05T14:52:17Z</time>
      </trkpt>
      <trkpt lat="49.24168" lon="-0.27247">
        <ele>5</ele>
        <time>2023-07-05T14:52:18Z</time>
      </trkpt>
      <trkpt lat="49.24166" lon="-0.27238">
        <ele>4.9</ele>
        <time>2023-07-05T14:52:19Z</time>
      </trkpt>
      <trkpt lat="49.24163" lon="-0.2723">
        <ele>4.8</ele>
        <time>2023-07-05T14:52:20Z</time>
      </trkpt>
      <trkpt lat="49.24159" lon="-0.27221">
        <ele>4.7</ele>
        <time>2023-07-05T14:52:21Z</time>
      </trkpt>
      <trkpt lat="49.24155" lon="-0.27213">
        <ele>4.6</ele>
        <time>2023-07-05T14:52:22Z</time>
      </trkpt>
      <trkpt lat="49.24151" lon="-0.27204">
        <ele>4.5</ele>
        <time>2023-07-05T14:52:23Z</time>
      </trkpt>
      <trkpt lat="49.24148" lon="-0.27193">
        <ele>4.4</ele>
        <time>2023-07-05T14:52:24Z</time>
      </trkpt>
      <trkpt lat="49.24145" lon="-0.27182">
        <ele>4.3</ele>
        <time>2023-07-05T14:52:25Z</time>
      </trkpt>
      <trkpt lat="49.24143" lon="-0.27172">
        <ele>4.3</ele>
        <time>2023-07-05T14:52:26Z</time>
      </trkpt>
      <trkpt lat="49.24141" lon="-0.27161">
        <ele>4.2</ele>
        <time>2023-07-05T14:52:27Z</time>
      </trkpt>
      <trkpt lat="49.24138" lon="-0.27151">
        <ele>4.1</ele>
        <time>2023-07-05T14:52:28Z</time>
      </trkpt>
      <trkpt lat="49.24135" lon="-0.2714">
        <ele>4</ele>
        <time>2023-07-05T14:52:29Z</time>
      </trkpt>
      <trkpt lat="49.24133" lon="-0.2713">
        <ele>4</ele>
        <time>2023-07-05T14:52:30Z</time>
      </trkpt>
      <trkpt lat="49.24131" lon="-0.27119">
        <ele>4</ele>
        <time>2023-07-05T14:52:31Z</time>
      </trkpt>
      <trkpt lat="49.24128" lon="-0.27108">
        <ele>4</ele>
        <time>2023-07-05T14:52:32Z</time>
      </trkpt>
      <trkpt lat="49.24126" lon="-0.27096">
        <ele>4</ele>
        <time>2023-07-05T14:52:33Z</time>
      </trkpt>
      <trkpt lat="49.24124" lon="-0.27085">
        <ele>4</ele>
        <time>2023-07-05T14:52:34Z</time>
      </trkpt>
      <trkpt lat="49.24122" lon="-0.27074">
        <ele>4</ele>
        <time>2023-07-05T14:52:35Z</time>
      </trkpt>
      <trkpt lat="49.24119" lon="-0.27064">
        <ele>4</ele>
        <time>2023-07-05T14:52:36Z</time>
      </trkpt>
      <trkpt lat="49.24117" lon="-0.27054">
        <ele>4.1</ele>
        <time>2023-07-05T14:52:37Z</time>
      </trkpt>
      <trkpt lat="49.24115" lon="-0.27044">
        <ele>4.2</ele>
        <time>2023-07-05T14:52:38Z</time>
      </trkpt>
      <trkpt lat="49.24113" lon="-0.27034">
        <ele>4.2</ele>
        <time>2023-07-05T14:52:39Z</time>
      </trkpt>
      <trkpt lat="49.2411" lon="-0.27024">
        <ele>4.3</ele>
        <time>2023-07-05T14:52:40Z</time>
      </trkpt>
      <trkpt lat="49.24108" lon="-0.27015">
        <ele>4.3</ele>
        <time>2023-07-05T14:52:41Z</time>
      </trkpt>
      <trkpt lat="49.24106" lon="-0.27006">
        <ele>4.4</ele>
        <time>2023-07-05T14:52:42Z</time>
      </trkpt>
      <trkpt lat="49.24104" lon="-0.26997">
        <ele>4.5</ele>
        <time>2023-07-05T14:52:43Z</time>
      </trkpt>
      <trkpt lat="49.24102" lon="-0.26988">
        <ele>4.5</ele>
        <time>2023-07-05T14:52:44Z</time>
      </trkpt>
      <trkpt lat="49.241" lon="-0.2698">
        <ele>4.6</ele>
        <time>2023-07-05T14:52:45Z</time>
      </trkpt>
      <trkpt lat="49.24098" lon="-0.26972">
        <ele>4.7</ele>
        <time>2023-07-05T14:52:46Z</time>
      </trkpt>
      <trkpt lat="49.24096" lon="-0.26964">
        <ele>4.8</ele>
        <time>2023-07-05T14:52:47Z</time>
      </trkpt>
      <trkpt lat="49.24094" lon="-0.26957">
        <ele>4.9</ele>
        <time>2023-07-05T14:52:48Z</time>
      </trkpt>
      <trkpt lat="49.24093" lon="-0.2695">
        <ele>5</ele>
        <time>2023-07-05T14:52:49Z</time>
      </trkpt>
      <trkpt lat="49.24091" lon="-0.26945">
        <ele>5</ele>
        <time>2023-07-05T14:52:50Z</time>
      </trkpt>
      <trkpt lat="49.24088" lon="-0.2694">
        <ele>5.1</ele>
        <time>2023-07-05T14:52:51Z</time>
      </trkpt>
      <trkpt lat="49.24084" lon="-0.26938">
        <ele>5.1</ele>
        <time>2023-07-05T14:52:52Z</time>
      </trkpt>
      <trkpt lat="49.24081" lon="-0.26937">
        <ele>5.1</ele>
        <time>2023-07-05T14:52:53Z</time>
      </trkpt>
      <trkpt lat="49.24079" lon="-0.26934">
        <ele>5</ele>
        <time>2023-07-05T14:52:54Z</time>
      </trkpt>
      <trkpt lat="49.24077" lon="-0.2693">
        <ele>5</ele>
        <time>2023-07-05T14:52:55Z</time>
      </trkpt>
      <trkpt lat="49.24076" lon="-0.26926">
        <ele>5</ele>
        <time>2023-07-05T14:52:56Z</time>
      </trkpt>
      <trkpt lat="49.24076" lon="-0.26922">
        <ele>5.1</ele>
        <time>2023-07-05T14:52:57Z</time>
      </trkpt>
      <trkpt lat="49.24075" lon="-0.26917">
        <ele>5.1</ele>
        <time>2023-07-05T14:52:58Z</time>
      </trkpt>
      <trkpt lat="49.24074" lon="-0.26913">
        <ele>5.1</ele>
        <time>2023-07-05T14:52:59Z</time>
      </trkpt>
      <trkpt lat="49.24075" lon="-0.26909">
        <ele>5.2</ele>
        <time>2023-07-05T14:53:00Z</time>
      </trkpt>
      <trkpt lat="49.24076" lon="-0.26904">
        <ele>5.2</ele>
        <time>2023-07-05T14:53:01Z</time>
      </trkpt>
      <trkpt lat="49.24077" lon="-0.26898">
        <ele>5.4</ele>
        <time>2023-07-05T14:53:02Z</time>
      </trkpt>
      <trkpt lat="49.24078" lon="-0.26889">
        <ele>5.4</ele>
        <time>2023-07-05T14:53:03Z</time>
      </trkpt>
      <trkpt lat="49.24077" lon="-0.26881">
        <ele>5.4</ele>
        <time>2023-07-05T14:53:04Z</time>
      </trkpt>
      <trkpt lat="49.24076" lon="-0.26873">
        <ele>5.5</ele>
        <time>2023-07-05T14:53:05Z</time>
      </trkpt>
      <trkpt lat="49.24073" lon="-0.26864">
        <ele>5.5</ele>
        <time>2023-07-05T14:53:06Z</time>
      </trkpt>
      <trkpt lat="49.24071" lon="-0.26855">
        <ele>5.6</ele>
        <time>2023-07-05T14:53:07Z</time>
      </trkpt>
      <trkpt lat="49.24069" lon="-0.26846">
        <ele>5.7</ele>
        <time>2023-07-05T14:53:08Z</time>
      </trkpt>
      <trkpt lat="49.24067" lon="-0.26837">
        <ele>5.8</ele>
        <time>2023-07-05T14:53:09Z</time>
      </trkpt>
      <trkpt lat="49.24065" lon="-0.26827">
        <ele>5.9</ele>
        <time>2023-07-05T14:53:10Z</time>
      </trkpt>
      <trkpt lat="49.24062" lon="-0.26817">
        <ele>6</ele>
        <time>2023-07-05T14:53:11Z</time>
      </trkpt>
      <trkpt lat="49.2406" lon="-0.26808">
        <ele>6.1</ele>
        <time>2023-07-05T14:53:12Z</time>
      </trkpt>
      <trkpt lat="49.24059" lon="-0.26799">
        <ele>6.2</ele>
        <time>2023-07-05T14:53:13Z</time>
      </trkpt>
      <trkpt lat="49.24057" lon="-0.2679">
        <ele>6.3</ele>
        <time>2023-07-05T14:53:14Z</time>
      </trkpt>
      <trkpt lat="49.24055" lon="-0.26781">
        <ele>6.4</ele>
        <time>2023-07-05T14:53:15Z</time>
      </trkpt>
      <trkpt lat="49.24053" lon="-0.26773">
        <ele>6.4</ele>
        <time>2023-07-05T14:53:16Z</time>
      </trkpt>
      <trkpt lat="49.24051" lon="-0.26765">
        <ele>6.5</ele>
        <time>2023-07-05T14:53:17Z</time>
      </trkpt>
      <trkpt lat="49.24049" lon="-0.26757">
        <ele>6.6</ele>
        <time>2023-07-05T14:53:18Z</time>
      </trkpt>
      <trkpt lat="49.24048" lon="-0.26749">
        <ele>6.7</ele>
        <time>2023-07-05T14:53:19Z</time>
      </trkpt>
      <trkpt lat="49.24046" lon="-0.26741">
        <ele>6.7</ele>
        <time>2023-07-05T14:53:20Z</time>
      </trkpt>
      <trkpt lat="49.24045" lon="-0.26732">
        <ele>6.8</ele>
        <time>2023-07-05T14:53:21Z</time>
      </trkpt>
      <trkpt lat="49.24044" lon="-0.26724">
        <ele>6.8</ele>
        <time>2023-07-05T14:53:22Z</time>
      </trkpt>
      <trkpt lat="49.24042" lon="-0.26716">
        <ele>6.9</ele>
        <time>2023-07-05T14:53:23Z</time>
      </trkpt>
      <trkpt lat="49.2404" lon="-0.26708">
        <ele>6.9</ele>
        <time>2023-07-05T14:53:24Z</time>
      </trkpt>
      <trkpt lat="49.24038" lon="-0.267">
        <ele>6.9</ele>
        <time>2023-07-05T14:53:25Z</time>
      </trkpt>
      <trkpt lat="49.24036" lon="-0.26691">
        <ele>6.9</ele>
        <time>2023-07-05T14:53:26Z</time>
      </trkpt>
      <trkpt lat="49.24034" lon="-0.26683">
        <ele>7</ele>
        <time>2023-07-05T14:53:27Z</time>
      </trkpt>
      <trkpt lat="49.24032" lon="-0.26674">
        <ele>7</ele>
        <time>2023-07-05T14:53:28Z</time>
      </trkpt>
      <trkpt lat="49.2403" lon="-0.26664">
        <ele>7</ele>
        <time>2023-07-05T14:53:29Z</time>
      </trkpt>
      <trkpt lat="49.24028" lon="-0.26655">
        <ele>7</ele>
        <time>2023-07-05T14:53:30Z</time>
      </trkpt>
      <trkpt lat="49.24026" lon="-0.26646">
        <ele>7</ele>
        <time>2023-07-05T14:53:31Z</time>
      </trkpt>
      <trkpt lat="49.24024" lon="-0.26636">
        <ele>7</ele>
        <time>2023-07-05T14:53:32Z</time>
      </trkpt>
      <trkpt lat="49.24022" lon="-0.26627">
        <ele>7</ele>
        <time>2023-07-05T14:53:33Z</time>
      </trkpt>
      <trkpt lat="49.24019" lon="-0.26617">
        <ele>7</ele>
        <time>2023-07-05T14:53:34Z</time>
      </trkpt>
      <trkpt lat="49.24017" lon="-0.26607">
        <ele>7</ele>
        <time>2023-07-05T14:53:35Z</time>
      </trkpt>
      <trkpt lat="49.24014" lon="-0.26596">
        <ele>7</ele>
        <time>2023-07-05T14:53:36Z</time>
      </trkpt>
      <trkpt lat="49.24012" lon="-0.26586">
        <ele>7</ele>
        <time>2023-07-05T14:53:37Z</time>
      </trkpt>
      <trkpt lat="49.2401" lon="-0.26576">
        <ele>7</ele>
        <time>2023-07-05T14:53:38Z</time>
      </trkpt>
      <trkpt lat="49.24007" lon="-0.26565">
        <ele>7</ele>
        <time>2023-07-05T14:53:39Z</time>
      </trkpt>
      <trkpt lat="49.24004" lon="-0.26555">
        <ele>7</ele>
        <time>2023-07-05T14:53:40Z</time>
      </trkpt>
      <trkpt lat="49.24001" lon="-0.26545">
        <ele>7</ele>
        <time>2023-07-05T14:53:41Z</time>
      </trkpt>
      <trkpt lat="49.23999" lon="-0.26534">
        <ele>7.1</ele>
        <time>2023-07-05T14:53:42Z</time>
      </trkpt>
      <trkpt lat="49.23996" lon="-0.26523">
        <ele>7.1</ele>
        <time>2023-07-05T14:53:43Z</time>
      </trkpt>
      <trkpt lat="49.23994" lon="-0.26513">
        <ele>7.1</ele>
        <time>2023-07-05T14:53:44Z</time>
      </trkpt>
      <trkpt lat="49.23991" lon="-0.26502">
        <ele>7.1</ele>
        <time>2023-07-05T14:53:45Z</time>
      </trkpt>
      <trkpt lat="49.23988" lon="-0.26492">
        <ele>7.2</ele>
        <time>2023-07-05T14:53:46Z</time>
      </trkpt>
      <trkpt lat="49.23985" lon="-0.26481">
        <ele>7.2</ele>
        <time>2023-07-05T14:53:47Z</time>
      </trkpt>
      <trkpt lat="49.23982" lon="-0.26471">
        <ele>7.2</ele>
        <time>2023-07-05T14:53:48Z</time>
      </trkpt>
      <trkpt lat="49.2398" lon="-0.26462">
        <ele>7.2</ele>
        <time>2023-07-05T14:53:49Z</time>
      </trkpt>
      <trkpt lat="49.23977" lon="-0.26453">
        <ele>7.3</ele>
        <time>2023-07-05T14:53:50Z</time>
      </trkpt>
      <trkpt lat="49.23973" lon="-0.26444">
        <ele>7.3</ele>
        <time>2023-07-05T14:53:51Z</time>
      </trkpt>
      <trkpt lat="49.2397" lon="-0.26435">
        <ele>7.3</ele>
        <time>2023-07-05T14:53:52Z</time>
      </trkpt>
      <trkpt lat="49.23966" lon="-0.26426">
        <ele>7.3</ele>
        <time>2023-07-05T14:53:53Z</time>
      </trkpt>
      <trkpt lat="49.23962" lon="-0.26418">
        <ele>7.3</ele>
        <time>2023-07-05T14:53:54Z</time>
      </trkpt>
      <trkpt lat="49.23958" lon="-0.2641">
        <ele>7.3</ele>
        <time>2023-07-05T14:53:55Z</time>
      </trkpt>
      <trkpt lat="49.23953" lon="-0.26405">
        <ele>7.2</ele>
        <time>2023-07-05T14:53:56Z</time>
      </trkpt>
      <trkpt lat="49.23947" lon="-0.26401">
        <ele>7.2</ele>
        <time>2023-07-05T14:53:57Z</time>
      </trkpt>
      <trkpt lat="49.23941" lon="-0.264">
        <ele>7.2</ele>
        <time>2023-07-05T14:53:58Z</time>
      </trkpt>
      <trkpt lat="49.23935" lon="-0.26399">
        <ele>7.2</ele>
        <time>2023-07-05T14:53:59Z</time>
      </trkpt>
      <trkpt lat="49.2393" lon="-0.26396">
        <ele>7.2</ele>
        <time>2023-07-05T14:54:00Z</time>
      </trkpt>
      <trkpt lat="49.23925" lon="-0.26392">
        <ele>7.2</ele>
        <time>2023-07-05T14:54:01Z</time>
      </trkpt>
      <trkpt lat="49.2392" lon="-0.26386">
        <ele>7.2</ele>
        <time>2023-07-05T14:54:02Z</time>
      </trkpt>
      <trkpt lat="49.23916" lon="-0.26378">
        <ele>7.1</ele>
        <time>2023-07-05T14:54:03Z</time>
      </trkpt>
      <trkpt lat="49.23913" lon="-0.2637">
        <ele>7.1</ele>
        <time>2023-07-05T14:54:04Z</time>
      </trkpt>
      <trkpt lat="49.23911" lon="-0.2636">
        <ele>7.1</ele>
        <time>2023-07-05T14:54:05Z</time>
      </trkpt>
      <trkpt lat="49.23909" lon="-0.2635">
        <ele>7</ele>
        <time>2023-07-05T14:54:06Z</time>
      </trkpt>
      <trkpt lat="49.23906" lon="-0.2634">
        <ele>6.9</ele>
        <time>2023-07-05T14:54:07Z</time>
      </trkpt>
      <trkpt lat="49.23902" lon="-0.26331">
        <ele>6.9</ele>
        <time>2023-07-05T14:54:08Z</time>
      </trkpt>
      <trkpt lat="49.23899" lon="-0.26322">
        <ele>6.8</ele>
        <time>2023-07-05T14:54:09Z</time>
      </trkpt>
      <trkpt lat="49.23896" lon="-0.26312">
        <ele>6.8</ele>
        <time>2023-07-05T14:54:10Z</time>
      </trkpt>
      <trkpt lat="49.23894" lon="-0.26302">
        <ele>6.8</ele>
        <time>2023-07-05T14:54:11Z</time>
      </trkpt>
      <trkpt lat="49.23894" lon="-0.26291">
        <ele>6.8</ele>
        <time>2023-07-05T14:54:12Z</time>
      </trkpt>
      <trkpt lat="49.23895" lon="-0.2628">
        <ele>6.9</ele>
        <time>2023-07-05T14:54:13Z</time>
      </trkpt>
      <trkpt lat="49.23897" lon="-0.2627">
        <ele>7</ele>
        <time>2023-07-05T14:54:14Z</time>
      </trkpt>
      <trkpt lat="49.23899" lon="-0.2626">
        <ele>7.1</ele>
        <time>2023-07-05T14:54:15Z</time>
      </trkpt>
      <trkpt lat="49.239" lon="-0.26249">
        <ele>7.3</ele>
        <time>2023-07-05T14:54:16Z</time>
      </trkpt>
      <trkpt lat="49.23899" lon="-0.26239">
        <ele>7.5</ele>
        <time>2023-07-05T14:54:17Z</time>
      </trkpt>
      <trkpt lat="49.23898" lon="-0.26228">
        <ele>7.7</ele>
        <time>2023-07-05T14:54:18Z</time>
      </trkpt>
      <trkpt lat="49.23896" lon="-0.26219">
        <ele>7.9</ele>
        <time>2023-07-05T14:54:19Z</time>
      </trkpt>
      <trkpt lat="49.23892" lon="-0.2621">
        <ele>8.2</ele>
        <time>2023-07-05T14:54:20Z</time>
      </trkpt>
      <trkpt lat="49.23888" lon="-0.26201">
        <ele>8.4</ele>
        <time>2023-07-05T14:54:21Z</time>
      </trkpt>
      <trkpt lat="49.23883" lon="-0.26194">
        <ele>8.7</ele>
        <time>2023-07-05T14:54:22Z</time>
      </trkpt>
      <trkpt lat="49.23878" lon="-0.26187">
        <ele>8.9</ele>
        <time>2023-07-05T14:54:23Z</time>
      </trkpt>
      <trkpt lat="49.23873" lon="-0.2618">
        <ele>9.2</ele>
        <time>2023-07-05T14:54:24Z</time>
      </trkpt>
      <trkpt lat="49.23868" lon="-0.26175">
        <ele>9.5</ele>
        <time>2023-07-05T14:54:25Z</time>
      </trkpt>
      <trkpt lat="49.23863" lon="-0.26171">
        <ele>9.8</ele>
        <time>2023-07-05T14:54:26Z</time>
      </trkpt>
      <trkpt lat="49.23858" lon="-0.26166">
        <ele>10</ele>
        <time>2023-07-05T14:54:27Z</time>
      </trkpt>
      <trkpt lat="49.23854" lon="-0.26161">
        <ele>10.3</ele>
        <time>2023-07-05T14:54:28Z</time>
      </trkpt>
      <trkpt lat="49.2385" lon="-0.26157">
        <ele>10.5</ele>
        <time>2023-07-05T14:54:29Z</time>
      </trkpt>
      <trkpt lat="49.23845" lon="-0.26152">
        <ele>10.8</ele>
        <time>2023-07-05T14:54:30Z</time>
      </trkpt>
      <trkpt lat="49.23839" lon="-0.26147">
        <ele>11</ele>
        <time>2023-07-05T14:54:31Z</time>
      </trkpt>
      <trkpt lat="49.23832" lon="-0.26143">
        <ele>11.3</ele>
        <time>2023-07-05T14:54:32Z</time>
      </trkpt>
      <trkpt lat="49.23826" lon="-0.26139">
        <ele>11.6</ele>
        <time>2023-07-05T14:54:33Z</time>
      </trkpt>
      <trkpt lat="49.23819" lon="-0.26134">
        <ele>11.9</ele>
        <time>2023-07-05T14:54:34Z</time>
      </trkpt>
      <trkpt lat="49.23812" lon="-0.26127">
        <ele>12.1</ele>
        <time>2023-07-05T14:54:35Z</time>
      </trkpt>
      <trkpt lat="49.23805" lon="-0.2612">
        <ele>12.4</ele>
        <time>2023-07-05T14:54:36Z</time>
      </trkpt>
      <trkpt lat="49.23798" lon="-0.26112">
        <ele>12.7</ele>
        <time>2023-07-05T14:54:37Z</time>
      </trkpt>
      <trkpt lat="49.23792" lon="-0.26104">
        <ele>13</ele>
        <time>2023-07-05T14:54:38Z</time>
      </trkpt>
      <trkpt lat="49.23785" lon="-0.26095">
        <ele>13.2</ele>
        <time>2023-07-05T14:54:39Z</time>
      </trkpt>
      <trkpt lat="49.2378" lon="-0.26086">
        <ele>13.5</ele>
        <time>2023-07-05T14:54:40Z</time>
      </trkpt>
      <trkpt lat="49.23774" lon="-0.26077">
        <ele>13.8</ele>
        <time>2023-07-05T14:54:41Z</time>
      </trkpt>
      <trkpt lat="49.23768" lon="-0.26069">
        <ele>14</ele>
        <time>2023-07-05T14:54:42Z</time>
      </trkpt>
      <trkpt lat="49.23762" lon="-0.2606">
        <ele>14.2</ele>
        <time>2023-07-05T14:54:43Z</time>
      </trkpt>
      <trkpt lat="49.23756" lon="-0.26051">
        <ele>14.5</ele>
        <time>2023-07-05T14:54:44Z</time>
      </trkpt>
      <trkpt lat="49.2375" lon="-0.26043">
        <ele>14.7</ele>
        <time>2023-07-05T14:54:45Z</time>
      </trkpt>
      <trkpt lat="49.23744" lon="-0.26034">
        <ele>14.9</ele>
        <time>2023-07-05T14:54:46Z</time>
      </trkpt>
      <trkpt lat="49.23738" lon="-0.26025">
        <ele>15.1</ele>
        <time>2023-07-05T14:54:47Z</time>
      </trkpt>
      <trkpt lat="49.23733" lon="-0.26017">
        <ele>15.3</ele>
        <time>2023-07-05T14:54:48Z</time>
      </trkpt>
      <trkpt lat="49.23727" lon="-0.2601">
        <ele>15.5</ele>
        <time>2023-07-05T14:54:49Z</time>
      </trkpt>
      <trkpt lat="49.23721" lon="-0.26003">
        <ele>15.6</ele>
        <time>2023-07-05T14:54:50Z</time>
      </trkpt>
      <trkpt lat="49.23714" lon="-0.25996">
        <ele>15.7</ele>
        <time>2023-07-05T14:54:51Z</time>
      </trkpt>
      <trkpt lat="49.23708" lon="-0.2599">
        <ele>15.7</ele>
        <time>2023-07-05T14:54:52Z</time>
      </trkpt>
      <trkpt lat="49.23702" lon="-0.25984">
        <ele>15.8</ele>
        <time>2023-07-05T14:54:53Z</time>
      </trkpt>
      <trkpt lat="49.23695" lon="-0.25979">
        <ele>15.7</ele>
        <time>2023-07-05T14:54:54Z</time>
      </trkpt>
      <trkpt lat="49.23689" lon="-0.25973">
        <ele>15.6</ele>
        <time>2023-07-05T14:54:55Z</time>
      </trkpt>
      <trkpt lat="49.23682" lon="-0.25968">
        <ele>15.4</ele>
        <time>2023-07-05T14:54:56Z</time>
      </trkpt>
      <trkpt lat="49.23675" lon="-0.25962">
        <ele>15.3</ele>
        <time>2023-07-05T14:54:57Z</time>
      </trkpt>
      <trkpt lat="49.23668" lon="-0.25957">
        <ele>15.1</ele>
        <time>2023-07-05T14:54:58Z</time>
      </trkpt>
      <trkpt lat="49.23661" lon="-0.25952">
        <ele>14.9</ele>
        <time>2023-07-05T14:54:59Z</time>
      </trkpt>
      <trkpt lat="49.23654" lon="-0.25947">
        <ele>14.6</ele>
        <time>2023-07-05T14:55:00Z</time>
      </trkpt>
      <trkpt lat="49.23646" lon="-0.25943">
        <ele>14.4</ele>
        <time>2023-07-05T14:55:01Z</time>
      </trkpt>
      <trkpt lat="49.23639" lon="-0.25938">
        <ele>14.2</ele>
        <time>2023-07-05T14:55:02Z</time>
      </trkpt>
      <trkpt lat="49.23632" lon="-0.25933">
        <ele>14</ele>
        <time>2023-07-05T14:55:03Z</time>
      </trkpt>
      <trkpt lat="49.23626" lon="-0.25928">
        <ele>13.8</ele>
        <time>2023-07-05T14:55:04Z</time>
      </trkpt>
      <trkpt lat="49.23619" lon="-0.25922">
        <ele>13.7</ele>
        <time>2023-07-05T14:55:05Z</time>
      </trkpt>
      <trkpt lat="49.23612" lon="-0.25917">
        <ele>13.5</ele>
        <time>2023-07-05T14:55:06Z</time>
      </trkpt>
      <trkpt lat="49.23605" lon="-0.25911">
        <ele>13.4</ele>
        <time>2023-07-05T14:55:07Z</time>
      </trkpt>
      <trkpt lat="49.23597" lon="-0.25905">
        <ele>13.2</ele>
        <time>2023-07-05T14:55:08Z</time>
      </trkpt>
      <trkpt lat="49.23589" lon="-0.259">
        <ele>13</ele>
        <time>2023-07-05T14:55:09Z</time>
      </trkpt>
      <trkpt lat="49.23582" lon="-0.25895">
        <ele>12.9</ele>
        <time>2023-07-05T14:55:10Z</time>
      </trkpt>
      <trkpt lat="49.23574" lon="-0.25889">
        <ele>12.7</ele>
        <time>2023-07-05T14:55:11Z</time>
      </trkpt>
      <trkpt lat="49.23566" lon="-0.25884">
        <ele>12.6</ele>
        <time>2023-07-05T14:55:12Z</time>
      </trkpt>
      <trkpt lat="49.23559" lon="-0.25879">
        <ele>12.5</ele>
        <time>2023-07-05T14:55:13Z</time>
      </trkpt>
      <trkpt lat="49.23552" lon="-0.25874">
        <ele>12.4</ele>
        <time>2023-07-05T14:55:14Z</time>
      </trkpt>
      <trkpt lat="49.23545" lon="-0.25868">
        <ele>12.4</ele>
        <time>2023-07-05T14:55:15Z</time>
      </trkpt>
      <trkpt lat="49.23538" lon="-0.25862">
        <ele>12.4</ele>
        <time>2023-07-05T14:55:16Z</time>
      </trkpt>
      <trkpt lat="49.2353" lon="-0.25857">
        <ele>12.4</ele>
        <time>2023-07-05T14:55:17Z</time>
      </trkpt>
      <trkpt lat="49.23522" lon="-0.25852">
        <ele>12.4</ele>
        <time>2023-07-05T14:55:18Z</time>
      </trkpt>
      <trkpt lat="49.23515" lon="-0.25846">
        <ele>12.4</ele>
        <time>2023-07-05T14:55:19Z</time>
      </trkpt>
      <trkpt lat="49.23508" lon="-0.2584">
        <ele>12.4</ele>
        <time>2023-07-05T14:55:20Z</time>
      </trkpt>
      <trkpt lat="49.23502" lon="-0.25834">
        <ele>12.4</ele>
        <time>2023-07-05T14:55:21Z</time>
      </trkpt>
      <trkpt lat="49.23496" lon="-0.25827">
        <ele>12.4</ele>
        <time>2023-07-05T14:55:22Z</time>
      </trkpt>
      <trkpt lat="49.23489" lon="-0.25821">
        <ele>12.5</ele>
        <time>2023-07-05T14:55:23Z</time>
      </trkpt>
      <trkpt lat="49.23483" lon="-0.25816">
        <ele>12.6</ele>
        <time>2023-07-05T14:55:24Z</time>
      </trkpt>
      <trkpt lat="49.23476" lon="-0.2581">
        <ele>12.7</ele>
        <time>2023-07-05T14:55:25Z</time>
      </trkpt>
      <trkpt lat="49.23469" lon="-0.25804">
        <ele>12.9</ele>
        <time>2023-07-05T14:55:26Z</time>
      </trkpt>
      <trkpt lat="49.23463" lon="-0.25798">
        <ele>13.1</ele>
        <time>2023-07-05T14:55:27Z</time>
      </trkpt>
      <trkpt lat="49.23457" lon="-0.25792">
        <ele>13.3</ele>
        <time>2023-07-05T14:55:28Z</time>
      </trkpt>
      <trkpt lat="49.23451" lon="-0.25786">
        <ele>13.4</ele>
        <time>2023-07-05T14:55:29Z</time>
      </trkpt>
      <trkpt lat="49.23445" lon="-0.25781">
        <ele>13.6</ele>
        <time>2023-07-05T14:55:30Z</time>
      </trkpt>
      <trkpt lat="49.23439" lon="-0.25775">
        <ele>13.8</ele>
        <time>2023-07-05T14:55:31Z</time>
      </trkpt>
      <trkpt lat="49.23433" lon="-0.25769">
        <ele>14</ele>
        <time>2023-07-05T14:55:32Z</time>
      </trkpt>
      <trkpt lat="49.23427" lon="-0.25764">
        <ele>14.1</ele>
        <time>2023-07-05T14:55:33Z</time>
      </trkpt>
      <trkpt lat="49.23422" lon="-0.25759">
        <ele>14.2</ele>
        <time>2023-07-05T14:55:34Z</time>
      </trkpt>
      <trkpt lat="49.23416" lon="-0.25753">
        <ele>14.3</ele>
        <time>2023-07-05T14:55:35Z</time>
      </trkpt>
      <trkpt lat="49.2341" lon="-0.25747">
        <ele>14.4</ele>
        <time>2023-07-05T14:55:36Z</time>
      </trkpt>
      <trkpt lat="49.23404" lon="-0.25741">
        <ele>14.4</ele>
        <time>2023-07-05T14:55:37Z</time>
      </trkpt>
      <trkpt lat="49.23398" lon="-0.25734">
        <ele>14.5</ele>
        <time>2023-07-05T14:55:38Z</time>
      </trkpt>
      <trkpt lat="49.23392" lon="-0.25728">
        <ele>14.6</ele>
        <time>2023-07-05T14:55:39Z</time>
      </trkpt>
      <trkpt lat="49.23386" lon="-0.25722">
        <ele>14.6</ele>
        <time>2023-07-05T14:55:40Z</time>
      </trkpt>
      <trkpt lat="49.2338" lon="-0.25716">
        <ele>14.6</ele>
        <time>2023-07-05T14:55:41Z</time>
      </trkpt>
      <trkpt lat="49.23375" lon="-0.25709">
        <ele>14.7</ele>
        <time>2023-07-05T14:55:42Z</time>
      </trkpt>
      <trkpt lat="49.23369" lon="-0.25703">
        <ele>14.7</ele>
        <time>2023-07-05T14:55:43Z</time>
      </trkpt>
      <trkpt lat="49.23364" lon="-0.25697">
        <ele>14.8</ele>
        <time>2023-07-05T14:55:44Z</time>
      </trkpt>
      <trkpt lat="49.23358" lon="-0.25691">
        <ele>14.8</ele>
        <time>2023-07-05T14:55:45Z</time>
      </trkpt>
      <trkpt lat="49.23352" lon="-0.25686">
        <ele>14.9</ele>
        <time>2023-07-05T14:55:46Z</time>
      </trkpt>
      <trkpt lat="49.23347" lon="-0.2568">
        <ele>14.9</ele>
        <time>2023-07-05T14:55:47Z</time>
      </trkpt>
      <trkpt lat="49.23341" lon="-0.25674">
        <ele>14.9</ele>
        <time>2023-07-05T14:55:48Z</time>
      </trkpt>
      <trkpt lat="49.23336" lon="-0.25669">
        <ele>14.9</ele>
        <time>2023-07-05T14:55:49Z</time>
      </trkpt>
      <trkpt lat="49.23331" lon="-0.25663">
        <ele>14.9</ele>
        <time>2023-07-05T14:55:50Z</time>
      </trkpt>
      <trkpt lat="49.23326" lon="-0.25657">
        <ele>14.9</ele>
        <time>2023-07-05T14:55:51Z</time>
      </trkpt>
      <trkpt lat="49.23321" lon="-0.25651">
        <ele>14.8</ele>
        <time>2023-07-05T14:55:52Z</time>
      </trkpt>
      <trkpt lat="49.23315" lon="-0.25644">
        <ele>14.8</ele>
        <time>2023-07-05T14:55:53Z</time>
      </trkpt>
      <trkpt lat="49.23309" lon="-0.25638">
        <ele>14.7</ele>
        <time>2023-07-05T14:55:54Z</time>
      </trkpt>
      <trkpt lat="49.23304" lon="-0.25631">
        <ele>14.6</ele>
        <time>2023-07-05T14:55:55Z</time>
      </trkpt>
      <trkpt lat="49.23298" lon="-0.25624">
        <ele>14.5</ele>
        <time>2023-07-05T14:55:56Z</time>
      </trkpt>
      <trkpt lat="49.23292" lon="-0.25618">
        <ele>14.5</ele>
        <time>2023-07-05T14:55:57Z</time>
      </trkpt>
      <trkpt lat="49.23285" lon="-0.25612">
        <ele>14.4</ele>
        <time>2023-07-05T14:55:58Z</time>
      </trkpt>
      <trkpt lat="49.23279" lon="-0.25605">
        <ele>14.3</ele>
        <time>2023-07-05T14:55:59Z</time>
      </trkpt>
      <trkpt lat="49.23273" lon="-0.25598">
        <ele>14.2</ele>
        <time>2023-07-05T14:56:00Z</time>
      </trkpt>
      <trkpt lat="49.23267" lon="-0.25592">
        <ele>14.1</ele>
        <time>2023-07-05T14:56:01Z</time>
      </trkpt>
      <trkpt lat="49.23261" lon="-0.25585">
        <ele>14</ele>
        <time>2023-07-05T14:56:02Z</time>
      </trkpt>
      <trkpt lat="49.23255" lon="-0.25578">
        <ele>13.9</ele>
        <time>2023-07-05T14:56:03Z</time>
      </trkpt>
      <trkpt lat="49.23249" lon="-0.25571">
        <ele>13.8</ele>
        <time>2023-07-05T14:56:04Z</time>
      </trkpt>
      <trkpt lat="49.23242" lon="-0.25565">
        <ele>13.7</ele>
        <time>2023-07-05T14:56:05Z</time>
      </trkpt>
      <trkpt lat="49.23236" lon="-0.25558">
        <ele>13.6</ele>
        <time>2023-07-05T14:56:06Z</time>
      </trkpt>
      <trkpt lat="49.2323" lon="-0.25552">
        <ele>13.5</ele>
        <time>2023-07-05T14:56:07Z</time>
      </trkpt>
      <trkpt lat="49.23224" lon="-0.25545">
        <ele>13.4</ele>
        <time>2023-07-05T14:56:08Z</time>
      </trkpt>
      <trkpt lat="49.23218" lon="-0.25539">
        <ele>13.3</ele>
        <time>2023-07-05T14:56:09Z</time>
      </trkpt>
      <trkpt lat="49.23211" lon="-0.25533">
        <ele>13.2</ele>
        <time>2023-07-05T14:56:10Z</time>
      </trkpt>
      <trkpt lat="49.23205" lon="-0.25527">
        <ele>13</ele>
        <time>2023-07-05T14:56:11Z</time>
      </trkpt>
      <trkpt lat="49.23199" lon="-0.2552">
        <ele>12.9</ele>
        <time>2023-07-05T14:56:12Z</time>
      </trkpt>
      <trkpt lat="49.23193" lon="-0.25514">
        <ele>12.7</ele>
        <time>2023-07-05T14:56:13Z</time>
      </trkpt>
      <trkpt lat="49.23187" lon="-0.25507">
        <ele>12.6</ele>
        <time>2023-07-05T14:56:14Z</time>
      </trkpt>
      <trkpt lat="49.23181" lon="-0.255">
        <ele>12.5</ele>
        <time>2023-07-05T14:56:15Z</time>
      </trkpt>
      <trkpt lat="49.23175" lon="-0.25493">
        <ele>12.4</ele>
        <time>2023-07-05T14:56:16Z</time>
      </trkpt>
      <trkpt lat="49.23169" lon="-0.25487">
        <ele>12.3</ele>
        <time>2023-07-05T14:56:17Z</time>
      </trkpt>
      <trkpt lat="49.23163" lon="-0.2548">
        <ele>12.2</ele>
        <time>2023-07-05T14:56:18Z</time>
      </trkpt>
      <trkpt lat="49.23157" lon="-0.25473">
        <ele>12.1</ele>
        <time>2023-07-05T14:56:19Z</time>
      </trkpt>
      <trkpt lat="49.23151" lon="-0.25466">
        <ele>12</ele>
        <time>2023-07-05T14:56:20Z</time>
      </trkpt>
      <trkpt lat="49.23145" lon="-0.2546">
        <ele>11.9</ele>
        <time>2023-07-05T14:56:21Z</time>
      </trkpt>
      <trkpt lat="49.23139" lon="-0.25454">
        <ele>11.8</ele>
        <time>2023-07-05T14:56:22Z</time>
      </trkpt>
      <trkpt lat="49.23134" lon="-0.25447">
        <ele>11.7</ele>
        <time>2023-07-05T14:56:23Z</time>
      </trkpt>
      <trkpt lat="49.23128" lon="-0.2544">
        <ele>11.6</ele>
        <time>2023-07-05T14:56:24Z</time>
      </trkpt>
      <trkpt lat="49.23123" lon="-0.25434">
        <ele>11.5</ele>
        <time>2023-07-05T14:56:25Z</time>
      </trkpt>
      <trkpt lat="49.23118" lon="-0.25428">
        <ele>11.4</ele>
        <time>2023-07-05T14:56:26Z</time>
      </trkpt>
      <trkpt lat="49.23114" lon="-0.25421">
        <ele>11.3</ele>
        <time>2023-07-05T14:56:27Z</time>
      </trkpt>
      <trkpt lat="49.23111" lon="-0.25414">
        <ele>11.2</ele>
        <time>2023-07-05T14:56:28Z</time>
      </trkpt>
      <trkpt lat="49.23111" lon="-0.25405">
        <ele>11.1</ele>
        <time>2023-07-05T14:56:29Z</time>
      </trkpt>
      <trkpt lat="49.23112" lon="-0.25394">
        <ele>11.1</ele>
        <time>2023-07-05T14:56:30Z</time>
      </trkpt>
      <trkpt lat="49.23116" lon="-0.25386">
        <ele>11.2</ele>
        <time>2023-07-05T14:56:31Z</time>
      </trkpt>
      <trkpt lat="49.2312" lon="-0.2538">
        <ele>11.2</ele>
        <time>2023-07-05T14:56:32Z</time>
      </trkpt>
      <trkpt lat="49.23125" lon="-0.25374">
        <ele>11.4</ele>
        <time>2023-07-05T14:56:33Z</time>
      </trkpt>
      <trkpt lat="49.23129" lon="-0.2537">
        <ele>11.4</ele>
        <time>2023-07-05T14:56:34Z</time>
      </trkpt>
      <trkpt lat="49.23134" lon="-0.25365">
        <ele>11.5</ele>
        <time>2023-07-05T14:56:35Z</time>
      </trkpt>
      <trkpt lat="49.23137" lon="-0.2536">
        <ele>11.6</ele>
        <time>2023-07-05T14:56:36Z</time>
      </trkpt>
      <trkpt lat="49.2314" lon="-0.25354">
        <ele>11.7</ele>
        <time>2023-07-05T14:56:37Z</time>
      </trkpt>
      <trkpt lat="49.23143" lon="-0.25347">
        <ele>11.7</ele>
        <time>2023-07-05T14:56:38Z</time>
      </trkpt>
      <trkpt lat="49.23145" lon="-0.25341">
        <ele>11.7</ele>
        <time>2023-07-05T14:56:39Z</time>
      </trkpt>
      <trkpt lat="49.23147" lon="-0.25334">
        <ele>11.8</ele>
        <time>2023-07-05T14:56:40Z</time>
      </trkpt>
      <trkpt lat="49.23148" lon="-0.25331">
        <ele>11.8</ele>
        <time>2023-07-05T14:56:41Z</time>
      </trkpt>
      <trkpt lat="49.2315" lon="-0.25326">
        <ele>11.8</ele>
        <time>2023-07-05T14:56:42Z</time>
      </trkpt>
      <trkpt lat="49.23153" lon="-0.25319">
        <ele>11.9</ele>
        <time>2023-07-05T14:56:43Z</time>
      </trkpt>
      <trkpt lat="49.23155" lon="-0.25313">
        <ele>11.9</ele>
        <time>2023-07-05T14:56:44Z</time>
      </trkpt>
      <trkpt lat="49.23158" lon="-0.25307">
        <ele>12</ele>
        <time>2023-07-05T14:56:45Z</time>
      </trkpt>
      <trkpt lat="49.23161" lon="-0.25301">
        <ele>12</ele>
        <time>2023-07-05T14:56:46Z</time>
      </trkpt>
      <trkpt lat="49.23164" lon="-0.25295">
        <ele>12.1</ele>
        <time>2023-07-05T14:56:47Z</time>
      </trkpt>
      <trkpt lat="49.23167" lon="-0.25289">
        <ele>12.1</ele>
        <time>2023-07-05T14:56:48Z</time>
      </trkpt>
      <trkpt lat="49.2317" lon="-0.25281">
        <ele>12.2</ele>
        <time>2023-07-05T14:56:49Z</time>
      </trkpt>
      <trkpt lat="49.23174" lon="-0.25274">
        <ele>12.2</ele>
        <time>2023-07-05T14:56:50Z</time>
      </trkpt>
      <trkpt lat="49.23177" lon="-0.25267">
        <ele>12.3</ele>
        <time>2023-07-05T14:56:51Z</time>
      </trkpt>
      <trkpt lat="49.23181" lon="-0.25259">
        <ele>12.3</ele>
        <time>2023-07-05T14:56:52Z</time>
      </trkpt>
      <trkpt lat="49.23184" lon="-0.25253">
        <ele>12.4</ele>
        <time>2023-07-05T14:56:53Z</time>
      </trkpt>
      <trkpt lat="49.23187" lon="-0.25246">
        <ele>12.5</ele>
        <time>2023-07-05T14:56:54Z</time>
      </trkpt>
      <trkpt lat="49.2319" lon="-0.25239">
        <ele>12.5</ele>
        <time>2023-07-05T14:56:55Z</time>
      </trkpt>
      <trkpt lat="49.23193" lon="-0.25232">
        <ele>12.6</ele>
        <time>2023-07-05T14:56:56Z</time>
      </trkpt>
      <trkpt lat="49.23196" lon="-0.25226">
        <ele>12.6</ele>
        <time>2023-07-05T14:56:57Z</time>
      </trkpt>
      <trkpt lat="49.23199" lon="-0.2522">
        <ele>12.7</ele>
        <time>2023-07-05T14:56:58Z</time>
      </trkpt>
      <trkpt lat="49.23202" lon="-0.25213">
        <ele>12.7</ele>
        <time>2023-07-05T14:56:59Z</time>
      </trkpt>
      <trkpt lat="49.23205" lon="-0.25207">
        <ele>12.8</ele>
        <time>2023-07-05T14:57:00Z</time>
      </trkpt>
      <trkpt lat="49.23208" lon="-0.252">
        <ele>12.9</ele>
        <time>2023-07-05T14:57:01Z</time>
      </trkpt>
      <trkpt lat="49.23212" lon="-0.25193">
        <ele>12.9</ele>
        <time>2023-07-05T14:57:02Z</time>
      </trkpt>
      <trkpt lat="49.23215" lon="-0.25186">
        <ele>13</ele>
        <time>2023-07-05T14:57:03Z</time>
      </trkpt>
      <trkpt lat="49.23218" lon="-0.25179">
        <ele>13</ele>
        <time>2023-07-05T14:57:04Z</time>
      </trkpt>
      <trkpt lat="49.23221" lon="-0.25172">
        <ele>13.1</ele>
        <time>2023-07-05T14:57:05Z</time>
      </trkpt>
      <trkpt lat="49.23224" lon="-0.25164">
        <ele>13.1</ele>
        <time>2023-07-05T14:57:06Z</time>
      </trkpt>
      <trkpt lat="49.23227" lon="-0.25157">
        <ele>13.2</ele>
        <time>2023-07-05T14:57:07Z</time>
      </trkpt>
      <trkpt lat="49.23229" lon="-0.2515">
        <ele>13.2</ele>
        <time>2023-07-05T14:57:08Z</time>
      </trkpt>
      <trkpt lat="49.23232" lon="-0.25143">
        <ele>13.3</ele>
        <time>2023-07-05T14:57:09Z</time>
      </trkpt>
      <trkpt lat="49.23235" lon="-0.25136">
        <ele>13.4</ele>
        <time>2023-07-05T14:57:10Z</time>
      </trkpt>
      <trkpt lat="49.23237" lon="-0.25129">
        <ele>13.4</ele>
        <time>2023-07-05T14:57:11Z</time>
      </trkpt>
      <trkpt lat="49.2324" lon="-0.25122">
        <ele>13.4</ele>
        <time>2023-07-05T14:57:12Z</time>
      </trkpt>
      <trkpt lat="49.23243" lon="-0.25114">
        <ele>13.5</ele>
        <time>2023-07-05T14:57:13Z</time>
      </trkpt>
      <trkpt lat="49.23245" lon="-0.25107">
        <ele>13.5</ele>
        <time>2023-07-05T14:57:14Z</time>
      </trkpt>
      <trkpt lat="49.23248" lon="-0.25099">
        <ele>13.5</ele>
        <time>2023-07-05T14:57:15Z</time>
      </trkpt>
      <trkpt lat="49.2325" lon="-0.25092">
        <ele>13.6</ele>
        <time>2023-07-05T14:57:16Z</time>
      </trkpt>
      <trkpt lat="49.23253" lon="-0.25085">
        <ele>13.6</ele>
        <time>2023-07-05T14:57:17Z</time>
      </trkpt>
      <trkpt lat="49.23255" lon="-0.25078">
        <ele>13.7</ele>
        <time>2023-07-05T14:57:18Z</time>
      </trkpt>
      <trkpt lat="49.23258" lon="-0.2507">
        <ele>13.8</ele>
        <time>2023-07-05T14:57:19Z</time>
      </trkpt>
      <trkpt lat="49.2326" lon="-0.25063">
        <ele>13.9</ele>
        <time>2023-07-05T14:57:20Z</time>
      </trkpt>
      <trkpt lat="49.23263" lon="-0.25055">
        <ele>13.9</ele>
        <time>2023-07-05T14:57:21Z</time>
      </trkpt>
      <trkpt lat="49.23266" lon="-0.25048">
        <ele>14</ele>
        <time>2023-07-05T14:57:22Z</time>
      </trkpt>
      <trkpt lat="49.23268" lon="-0.2504">
        <ele>14.1</ele>
        <time>2023-07-05T14:57:23Z</time>
      </trkpt>
      <trkpt lat="49.2327" lon="-0.25032">
        <ele>14.2</ele>
        <time>2023-07-05T14:57:24Z</time>
      </trkpt>
      <trkpt lat="49.23273" lon="-0.25024">
        <ele>14.2</ele>
        <time>2023-07-05T14:57:25Z</time>
      </trkpt>
      <trkpt lat="49.23275" lon="-0.25016">
        <ele>14.3</ele>
        <time>2023-07-05T14:57:26Z</time>
      </trkpt>
      <trkpt lat="49.23277" lon="-0.25009">
        <ele>14.4</ele>
        <time>2023-07-05T14:57:27Z</time>
      </trkpt>
      <trkpt lat="49.2328" lon="-0.25001">
        <ele>14.5</ele>
        <time>2023-07-05T14:57:28Z</time>
      </trkpt>
      <trkpt lat="49.23282" lon="-0.24994">
        <ele>14.5</ele>
        <time>2023-07-05T14:57:29Z</time>
      </trkpt>
      <trkpt lat="49.23284" lon="-0.24986">
        <ele>14.6</ele>
        <time>2023-07-05T14:57:30Z</time>
      </trkpt>
      <trkpt lat="49.23287" lon="-0.24978">
        <ele>14.6</ele>
        <time>2023-07-05T14:57:31Z</time>
      </trkpt>
      <trkpt lat="49.23289" lon="-0.2497">
        <ele>14.7</ele>
        <time>2023-07-05T14:57:32Z</time>
      </trkpt>
      <trkpt lat="49.23291" lon="-0.24961">
        <ele>14.8</ele>
        <time>2023-07-05T14:57:33Z</time>
      </trkpt>
      <trkpt lat="49.23293" lon="-0.24953">
        <ele>14.9</ele>
        <time>2023-07-05T14:57:34Z</time>
      </trkpt>
      <trkpt lat="49.23294" lon="-0.24944">
        <ele>14.9</ele>
        <time>2023-07-05T14:57:35Z</time>
      </trkpt>
      <trkpt lat="49.23296" lon="-0.24936">
        <ele>15</ele>
        <time>2023-07-05T14:57:36Z</time>
      </trkpt>
      <trkpt lat="49.23298" lon="-0.24928">
        <ele>15.1</ele>
        <time>2023-07-05T14:57:37Z</time>
      </trkpt>
      <trkpt lat="49.23299" lon="-0.24919">
        <ele>15.2</ele>
        <time>2023-07-05T14:57:38Z</time>
      </trkpt>
      <trkpt lat="49.23301" lon="-0.24911">
        <ele>15.3</ele>
        <time>2023-07-05T14:57:39Z</time>
      </trkpt>
      <trkpt lat="49.23303" lon="-0.24902">
        <ele>15.4</ele>
        <time>2023-07-05T14:57:40Z</time>
      </trkpt>
      <trkpt lat="49.23305" lon="-0.24894">
        <ele>15.5</ele>
        <time>2023-07-05T14:57:41Z</time>
      </trkpt>
      <trkpt lat="49.23306" lon="-0.24886">
        <ele>15.6</ele>
        <time>2023-07-05T14:57:42Z</time>
      </trkpt>
      <trkpt lat="49.23308" lon="-0.24878">
        <ele>15.6</ele>
        <time>2023-07-05T14:57:43Z</time>
      </trkpt>
      <trkpt lat="49.2331" lon="-0.2487">
        <ele>15.7</ele>
        <time>2023-07-05T14:57:44Z</time>
      </trkpt>
      <trkpt lat="49.23312" lon="-0.24862">
        <ele>15.8</ele>
        <time>2023-07-05T14:57:45Z</time>
      </trkpt>
      <trkpt lat="49.23314" lon="-0.24854">
        <ele>15.9</ele>
        <time>2023-07-05T14:57:46Z</time>
      </trkpt>
      <trkpt lat="49.23316" lon="-0.24846">
        <ele>15.9</ele>
        <time>2023-07-05T14:57:47Z</time>
      </trkpt>
      <trkpt lat="49.23318" lon="-0.24838">
        <ele>16</ele>
        <time>2023-07-05T14:57:48Z</time>
      </trkpt>
      <trkpt lat="49.23319" lon="-0.24829">
        <ele>16</ele>
        <time>2023-07-05T14:57:49Z</time>
      </trkpt>
      <trkpt lat="49.23321" lon="-0.24821">
        <ele>16.1</ele>
        <time>2023-07-05T14:57:50Z</time>
      </trkpt>
      <trkpt lat="49.23323" lon="-0.24813">
        <ele>16.1</ele>
        <time>2023-07-05T14:57:51Z</time>
      </trkpt>
      <trkpt lat="49.23325" lon="-0.24805">
        <ele>16.2</ele>
        <time>2023-07-05T14:57:52Z</time>
      </trkpt>
      <trkpt lat="49.23326" lon="-0.24797">
        <ele>16.3</ele>
        <time>2023-07-05T14:57:53Z</time>
      </trkpt>
      <trkpt lat="49.23328" lon="-0.24788">
        <ele>16.3</ele>
        <time>2023-07-05T14:57:54Z</time>
      </trkpt>
      <trkpt lat="49.23329" lon="-0.2478">
        <ele>16.4</ele>
        <time>2023-07-05T14:57:55Z</time>
      </trkpt>
      <trkpt lat="49.23331" lon="-0.24772">
        <ele>16.4</ele>
        <time>2023-07-05T14:57:56Z</time>
      </trkpt>
      <trkpt lat="49.23333" lon="-0.24764">
        <ele>16.4</ele>
        <time>2023-07-05T14:57:57Z</time>
      </trkpt>
      <trkpt lat="49.23335" lon="-0.24755">
        <ele>16.5</ele>
        <time>2023-07-05T14:57:58Z</time>
      </trkpt>
      <trkpt lat="49.23336" lon="-0.24746">
        <ele>16.5</ele>
        <time>2023-07-05T14:57:59Z</time>
      </trkpt>
      <trkpt lat="49.23338" lon="-0.24738">
        <ele>16.5</ele>
        <time>2023-07-05T14:58:00Z</time>
      </trkpt>
      <trkpt lat="49.2334" lon="-0.2473">
        <ele>16.5</ele>
        <time>2023-07-05T14:58:01Z</time>
      </trkpt>
      <trkpt lat="49.23342" lon="-0.24721">
        <ele>16.5</ele>
        <time>2023-07-05T14:58:02Z</time>
      </trkpt>
      <trkpt lat="49.23344" lon="-0.24712">
        <ele>16.5</ele>
        <time>2023-07-05T14:58:03Z</time>
      </trkpt>
      <trkpt lat="49.23346" lon="-0.24703">
        <ele>16.6</ele>
        <time>2023-07-05T14:58:04Z</time>
      </trkpt>
      <trkpt lat="49.23348" lon="-0.24694">
        <ele>16.5</ele>
        <time>2023-07-05T14:58:05Z</time>
      </trkpt>
      <trkpt lat="49.23351" lon="-0.24685">
        <ele>16.5</ele>
        <time>2023-07-05T14:58:06Z</time>
      </trkpt>
      <trkpt lat="49.23353" lon="-0.24677">
        <ele>16.5</ele>
        <time>2023-07-05T14:58:07Z</time>
      </trkpt>
      <trkpt lat="49.23356" lon="-0.24669">
        <ele>16.5</ele>
        <time>2023-07-05T14:58:08Z</time>
      </trkpt>
      <trkpt lat="49.2336" lon="-0.24661">
        <ele>16.5</ele>
        <time>2023-07-05T14:58:09Z</time>
      </trkpt>
      <trkpt lat="49.23363" lon="-0.24653">
        <ele>16.5</ele>
        <time>2023-07-05T14:58:10Z</time>
      </trkpt>
      <trkpt lat="49.23367" lon="-0.24646">
        <ele>16.5</ele>
        <time>2023-07-05T14:58:11Z</time>
      </trkpt>
      <trkpt lat="49.23371" lon="-0.24639">
        <ele>16.4</ele>
        <time>2023-07-05T14:58:12Z</time>
      </trkpt>
      <trkpt lat="49.23375" lon="-0.24631">
        <ele>16.4</ele>
        <time>2023-07-05T14:58:13Z</time>
      </trkpt>
      <trkpt lat="49.23379" lon="-0.24624">
        <ele>16.4</ele>
        <time>2023-07-05T14:58:14Z</time>
      </trkpt>
      <trkpt lat="49.23382" lon="-0.24618">
        <ele>16.4</ele>
        <time>2023-07-05T14:58:15Z</time>
      </trkpt>
      <trkpt lat="49.23386" lon="-0.24611">
        <ele>16.3</ele>
        <time>2023-07-05T14:58:16Z</time>
      </trkpt>
      <trkpt lat="49.2339" lon="-0.24605">
        <ele>16.3</ele>
        <time>2023-07-05T14:58:17Z</time>
      </trkpt>
      <trkpt lat="49.23394" lon="-0.24599">
        <ele>16.3</ele>
        <time>2023-07-05T14:58:18Z</time>
      </trkpt>
      <trkpt lat="49.23398" lon="-0.24593">
        <ele>16.3</ele>
        <time>2023-07-05T14:58:19Z</time>
      </trkpt>
      <trkpt lat="49.23402" lon="-0.24587">
        <ele>16.4</ele>
        <time>2023-07-05T14:58:20Z</time>
      </trkpt>
      <trkpt lat="49.23405" lon="-0.2458">
        <ele>16.4</ele>
        <time>2023-07-05T14:58:21Z</time>
      </trkpt>
      <trkpt lat="49.23409" lon="-0.24574">
        <ele>16.4</ele>
        <time>2023-07-05T14:58:22Z</time>
      </trkpt>
      <trkpt lat="49.23413" lon="-0.24568">
        <ele>16.4</ele>
        <time>2023-07-05T14:58:23Z</time>
      </trkpt>
      <trkpt lat="49.23416" lon="-0.24561">
        <ele>16.4</ele>
        <time>2023-07-05T14:58:24Z</time>
      </trkpt>
      <trkpt lat="49.23419" lon="-0.24555">
        <ele>16.4</ele>
        <time>2023-07-05T14:58:25Z</time>
      </trkpt>
      <trkpt lat="49.23422" lon="-0.24548">
        <ele>16.5</ele>
        <time>2023-07-05T14:58:26Z</time>
      </trkpt>
      <trkpt lat="49.23426" lon="-0.24541">
        <ele>16.5</ele>
        <time>2023-07-05T14:58:27Z</time>
      </trkpt>
      <trkpt lat="49.23429" lon="-0.24534">
        <ele>16.5</ele>
        <time>2023-07-05T14:58:28Z</time>
      </trkpt>
      <trkpt lat="49.23432" lon="-0.24527">
        <ele>16.6</ele>
        <time>2023-07-05T14:58:29Z</time>
      </trkpt>
      <trkpt lat="49.23435" lon="-0.24519">
        <ele>16.6</ele>
        <time>2023-07-05T14:58:30Z</time>
      </trkpt>
      <trkpt lat="49.23438" lon="-0.24512">
        <ele>16.6</ele>
        <time>2023-07-05T14:58:31Z</time>
      </trkpt>
      <trkpt lat="49.23442" lon="-0.24505">
        <ele>16.7</ele>
        <time>2023-07-05T14:58:32Z</time>
      </trkpt>
      <trkpt lat="49.23445" lon="-0.24497">
        <ele>16.8</ele>
        <time>2023-07-05T14:58:33Z</time>
      </trkpt>
      <trkpt lat="49.23447" lon="-0.2449">
        <ele>16.8</ele>
        <time>2023-07-05T14:58:34Z</time>
      </trkpt>
      <trkpt lat="49.2345" lon="-0.24482">
        <ele>16.9</ele>
        <time>2023-07-05T14:58:35Z</time>
      </trkpt>
      <trkpt lat="49.23452" lon="-0.24475">
        <ele>17</ele>
        <time>2023-07-05T14:58:36Z</time>
      </trkpt>
      <trkpt lat="49.23455" lon="-0.24467">
        <ele>17.1</ele>
        <time>2023-07-05T14:58:37Z</time>
      </trkpt>
      <trkpt lat="49.23457" lon="-0.2446">
        <ele>17.2</ele>
        <time>2023-07-05T14:58:38Z</time>
      </trkpt>
      <trkpt lat="49.23459" lon="-0.24453">
        <ele>17.3</ele>
        <time>2023-07-05T14:58:39Z</time>
      </trkpt>
      <trkpt lat="49.23461" lon="-0.24446">
        <ele>17.4</ele>
        <time>2023-07-05T14:58:40Z</time>
      </trkpt>
      <trkpt lat="49.23463" lon="-0.24439">
        <ele>17.5</ele>
        <time>2023-07-05T14:58:41Z</time>
      </trkpt>
      <trkpt lat="49.23466" lon="-0.24431">
        <ele>17.6</ele>
        <time>2023-07-05T14:58:42Z</time>
      </trkpt>
      <trkpt lat="49.23468" lon="-0.24425">
        <ele>17.7</ele>
        <time>2023-07-05T14:58:43Z</time>
      </trkpt>
      <trkpt lat="49.2347" lon="-0.24418">
        <ele>17.8</ele>
        <time>2023-07-05T14:58:44Z</time>
      </trkpt>
      <trkpt lat="49.23471" lon="-0.24411">
        <ele>17.9</ele>
        <time>2023-07-05T14:58:45Z</time>
      </trkpt>
      <trkpt lat="49.23473" lon="-0.24404">
        <ele>18</ele>
        <time>2023-07-05T14:58:46Z</time>
      </trkpt>
      <trkpt lat="49.23475" lon="-0.24397">
        <ele>18.1</ele>
        <time>2023-07-05T14:58:47Z</time>
      </trkpt>
      <trkpt lat="49.23477" lon="-0.2439">
        <ele>18.1</ele>
        <time>2023-07-05T14:58:48Z</time>
      </trkpt>
      <trkpt lat="49.23479" lon="-0.24383">
        <ele>18.2</ele>
        <time>2023-07-05T14:58:49Z</time>
      </trkpt>
      <trkpt lat="49.2348" lon="-0.24376">
        <ele>18.3</ele>
        <time>2023-07-05T14:58:50Z</time>
      </trkpt>
      <trkpt lat="49.23482" lon="-0.24369">
        <ele>18.4</ele>
        <time>2023-07-05T14:58:51Z</time>
      </trkpt>
      <trkpt lat="49.23484" lon="-0.24361">
        <ele>18.5</ele>
        <time>2023-07-05T14:58:52Z</time>
      </trkpt>
      <trkpt lat="49.23486" lon="-0.24355">
        <ele>18.6</ele>
        <time>2023-07-05T14:58:53Z</time>
      </trkpt>
      <trkpt lat="49.23487" lon="-0.24348">
        <ele>18.7</ele>
        <time>2023-07-05T14:58:54Z</time>
      </trkpt>
      <trkpt lat="49.23489" lon="-0.24341">
        <ele>18.8</ele>
        <time>2023-07-05T14:58:55Z</time>
      </trkpt>
      <trkpt lat="49.2349" lon="-0.24334">
        <ele>18.9</ele>
        <time>2023-07-05T14:58:56Z</time>
      </trkpt>
      <trkpt lat="49.23492" lon="-0.24326">
        <ele>19</ele>
        <time>2023-07-05T14:58:57Z</time>
      </trkpt>
      <trkpt lat="49.23494" lon="-0.24319">
        <ele>19.1</ele>
        <time>2023-07-05T14:58:58Z</time>
      </trkpt>
      <trkpt lat="49.23495" lon="-0.24312">
        <ele>19.2</ele>
        <time>2023-07-05T14:58:59Z</time>
      </trkpt>
      <trkpt lat="49.23497" lon="-0.24305">
        <ele>19.4</ele>
        <time>2023-07-05T14:59:00Z</time>
      </trkpt>
      <trkpt lat="49.23499" lon="-0.24298">
        <ele>19.5</ele>
        <time>2023-07-05T14:59:01Z</time>
      </trkpt>
      <trkpt lat="49.235" lon="-0.24291">
        <ele>19.5</ele>
        <time>2023-07-05T14:59:02Z</time>
      </trkpt>
      <trkpt lat="49.23502" lon="-0.24283">
        <ele>19.6</ele>
        <time>2023-07-05T14:59:03Z</time>
      </trkpt>
      <trkpt lat="49.23504" lon="-0.24275">
        <ele>19.7</ele>
        <time>2023-07-05T14:59:04Z</time>
      </trkpt>
      <trkpt lat="49.23505" lon="-0.24267">
        <ele>19.8</ele>
        <time>2023-07-05T14:59:05Z</time>
      </trkpt>
      <trkpt lat="49.23507" lon="-0.24259">
        <ele>19.9</ele>
        <time>2023-07-05T14:59:06Z</time>
      </trkpt>
      <trkpt lat="49.23509" lon="-0.24251">
        <ele>20</ele>
        <time>2023-07-05T14:59:07Z</time>
      </trkpt>
      <trkpt lat="49.23511" lon="-0.24243">
        <ele>20</ele>
        <time>2023-07-05T14:59:08Z</time>
      </trkpt>
      <trkpt lat="49.23513" lon="-0.24234">
        <ele>20.1</ele>
        <time>2023-07-05T14:59:09Z</time>
      </trkpt>
      <trkpt lat="49.23514" lon="-0.24226">
        <ele>20.2</ele>
        <time>2023-07-05T14:59:10Z</time>
      </trkpt>
      <trkpt lat="49.23516" lon="-0.24217">
        <ele>20.2</ele>
        <time>2023-07-05T14:59:11Z</time>
      </trkpt>
      <trkpt lat="49.23518" lon="-0.24209">
        <ele>20.3</ele>
        <time>2023-07-05T14:59:12Z</time>
      </trkpt>
      <trkpt lat="49.23519" lon="-0.24201">
        <ele>20.4</ele>
        <time>2023-07-05T14:59:13Z</time>
      </trkpt>
      <trkpt lat="49.23521" lon="-0.24193">
        <ele>20.4</ele>
        <time>2023-07-05T14:59:14Z</time>
      </trkpt>
      <trkpt lat="49.23522" lon="-0.24185">
        <ele>20.5</ele>
        <time>2023-07-05T14:59:15Z</time>
      </trkpt>
      <trkpt lat="49.23524" lon="-0.24177">
        <ele>20.5</ele>
        <time>2023-07-05T14:59:16Z</time>
      </trkpt>
      <trkpt lat="49.23526" lon="-0.24169">
        <ele>20.6</ele>
        <time>2023-07-05T14:59:17Z</time>
      </trkpt>
      <trkpt lat="49.23527" lon="-0.24161">
        <ele>20.7</ele>
        <time>2023-07-05T14:59:18Z</time>
      </trkpt>
      <trkpt lat="49.23529" lon="-0.24153">
        <ele>20.7</ele>
        <time>2023-07-05T14:59:19Z</time>
      </trkpt>
      <trkpt lat="49.23531" lon="-0.24146">
        <ele>20.8</ele>
        <time>2023-07-05T14:59:20Z</time>
      </trkpt>
      <trkpt lat="49.23533" lon="-0.24138">
        <ele>20.9</ele>
        <time>2023-07-05T14:59:21Z</time>
      </trkpt>
      <trkpt lat="49.23535" lon="-0.24129">
        <ele>21</ele>
        <time>2023-07-05T14:59:22Z</time>
      </trkpt>
      <trkpt lat="49.23537" lon="-0.24121">
        <ele>21.2</ele>
        <time>2023-07-05T14:59:23Z</time>
      </trkpt>
      <trkpt lat="49.2354" lon="-0.24111">
        <ele>21.3</ele>
        <time>2023-07-05T14:59:24Z</time>
      </trkpt>
      <trkpt lat="49.23543" lon="-0.24102">
        <ele>21.5</ele>
        <time>2023-07-05T14:59:25Z</time>
      </trkpt>
      <trkpt lat="49.23545" lon="-0.24092">
        <ele>21.6</ele>
        <time>2023-07-05T14:59:26Z</time>
      </trkpt>
      <trkpt lat="49.23548" lon="-0.24081">
        <ele>21.8</ele>
        <time>2023-07-05T14:59:27Z</time>
      </trkpt>
      <trkpt lat="49.2355" lon="-0.2407">
        <ele>21.9</ele>
        <time>2023-07-05T14:59:28Z</time>
      </trkpt>
      <trkpt lat="49.23553" lon="-0.24059">
        <ele>22.1</ele>
        <time>2023-07-05T14:59:29Z</time>
      </trkpt>
      <trkpt lat="49.23555" lon="-0.24048">
        <ele>22.2</ele>
        <time>2023-07-05T14:59:30Z</time>
      </trkpt>
      <trkpt lat="49.23557" lon="-0.24038">
        <ele>22.4</ele>
        <time>2023-07-05T14:59:31Z</time>
      </trkpt>
      <trkpt lat="49.23559" lon="-0.2403">
        <ele>22.5</ele>
        <time>2023-07-05T14:59:32Z</time>
      </trkpt>
      <trkpt lat="49.23561" lon="-0.24022">
        <ele>22.6</ele>
        <time>2023-07-05T14:59:33Z</time>
      </trkpt>
      <trkpt lat="49.23563" lon="-0.24014">
        <ele>22.7</ele>
        <time>2023-07-05T14:59:34Z</time>
      </trkpt>
      <trkpt lat="49.23566" lon="-0.24006">
        <ele>22.8</ele>
        <time>2023-07-05T14:59:35Z</time>
      </trkpt>
      <trkpt lat="49.23569" lon="-0.23997">
        <ele>22.9</ele>
        <time>2023-07-05T14:59:36Z</time>
      </trkpt>
      <trkpt lat="49.23571" lon="-0.23988">
        <ele>23</ele>
        <time>2023-07-05T14:59:37Z</time>
      </trkpt>
      <trkpt lat="49.23574" lon="-0.23979">
        <ele>23</ele>
        <time>2023-07-05T14:59:38Z</time>
      </trkpt>
      <trkpt lat="49.23576" lon="-0.23969">
        <ele>23</ele>
        <time>2023-07-05T14:59:39Z</time>
      </trkpt>
      <trkpt lat="49.23579" lon="-0.23961">
        <ele>23.1</ele>
        <time>2023-07-05T14:59:40Z</time>
      </trkpt>
      <trkpt lat="49.23582" lon="-0.23952">
        <ele>23.1</ele>
        <time>2023-07-05T14:59:41Z</time>
      </trkpt>
      <trkpt lat="49.23585" lon="-0.23943">
        <ele>23.1</ele>
        <time>2023-07-05T14:59:42Z</time>
      </trkpt>
      <trkpt lat="49.23588" lon="-0.23934">
        <ele>23</ele>
        <time>2023-07-05T14:59:43Z</time>
      </trkpt>
      <trkpt lat="49.23591" lon="-0.23924">
        <ele>23</ele>
        <time>2023-07-05T14:59:44Z</time>
      </trkpt>
      <trkpt lat="49.23595" lon="-0.23914">
        <ele>23</ele>
        <time>2023-07-05T14:59:45Z</time>
      </trkpt>
      <trkpt lat="49.23598" lon="-0.23905">
        <ele>23</ele>
        <time>2023-07-05T14:59:46Z</time>
      </trkpt>
      <trkpt lat="49.23601" lon="-0.23895">
        <ele>22.9</ele>
        <time>2023-07-05T14:59:47Z</time>
      </trkpt>
      <trkpt lat="49.23604" lon="-0.23886">
        <ele>22.9</ele>
        <time>2023-07-05T14:59:48Z</time>
      </trkpt>
      <trkpt lat="49.23607" lon="-0.23876">
        <ele>22.8</ele>
        <time>2023-07-05T14:59:49Z</time>
      </trkpt>
      <trkpt lat="49.2361" lon="-0.23867">
        <ele>22.7</ele>
        <time>2023-07-05T14:59:50Z</time>
      </trkpt>
      <trkpt lat="49.23614" lon="-0.23857">
        <ele>22.6</ele>
        <time>2023-07-05T14:59:51Z</time>
      </trkpt>
      <trkpt lat="49.23617" lon="-0.23847">
        <ele>22.5</ele>
        <time>2023-07-05T14:59:52Z</time>
      </trkpt>
      <trkpt lat="49.2362" lon="-0.23837">
        <ele>22.5</ele>
        <time>2023-07-05T14:59:53Z</time>
      </trkpt>
      <trkpt lat="49.23623" lon="-0.23827">
        <ele>22.4</ele>
        <time>2023-07-05T14:59:54Z</time>
      </trkpt>
      <trkpt lat="49.23626" lon="-0.23816">
        <ele>22.3</ele>
        <time>2023-07-05T14:59:55Z</time>
      </trkpt>
      <trkpt lat="49.23629" lon="-0.23805">
        <ele>22.3</ele>
        <time>2023-07-05T14:59:56Z</time>
      </trkpt>
      <trkpt lat="49.23631" lon="-0.23793">
        <ele>22.2</ele>
        <time>2023-07-05T14:59:57Z</time>
      </trkpt>
      <trkpt lat="49.23633" lon="-0.23781">
        <ele>22.1</ele>
        <time>2023-07-05T14:59:58Z</time>
      </trkpt>
      <trkpt lat="49.23635" lon="-0.23769">
        <ele>22.1</ele>
        <time>2023-07-05T14:59:59Z</time>
      </trkpt>
      <trkpt lat="49.23638" lon="-0.23756">
        <ele>22.1</ele>
        <time>2023-07-05T15:00:00Z</time>
      </trkpt>
      <trkpt lat="49.23641" lon="-0.23744">
        <ele>22</ele>
        <time>2023-07-05T15:00:01Z</time>
      </trkpt>
      <trkpt lat="49.23644" lon="-0.23732">
        <ele>22</ele>
        <time>2023-07-05T15:00:02Z</time>
      </trkpt>
      <trkpt lat="49.23646" lon="-0.23719">
        <ele>22</ele>
        <time>2023-07-05T15:00:03Z</time>
      </trkpt>
      <trkpt lat="49.23649" lon="-0.23708">
        <ele>22</ele>
        <time>2023-07-05T15:00:04Z</time>
      </trkpt>
      <trkpt lat="49.23651" lon="-0.23696">
        <ele>22</ele>
        <time>2023-07-05T15:00:05Z</time>
      </trkpt>
      <trkpt lat="49.23654" lon="-0.23686">
        <ele>22</ele>
        <time>2023-07-05T15:00:06Z</time>
      </trkpt>
      <trkpt lat="49.23656" lon="-0.23675">
        <ele>22</ele>
        <time>2023-07-05T15:00:07Z</time>
      </trkpt>
      <trkpt lat="49.23659" lon="-0.23665">
        <ele>22.1</ele>
        <time>2023-07-05T15:00:08Z</time>
      </trkpt>
      <trkpt lat="49.23661" lon="-0.23654">
        <ele>22.1</ele>
        <time>2023-07-05T15:00:09Z</time>
      </trkpt>
      <trkpt lat="49.23662" lon="-0.23642">
        <ele>22.2</ele>
        <time>2023-07-05T15:00:10Z</time>
      </trkpt>
      <trkpt lat="49.23664" lon="-0.23631">
        <ele>22.3</ele>
        <time>2023-07-05T15:00:11Z</time>
      </trkpt>
      <trkpt lat="49.23666" lon="-0.23619">
        <ele>22.4</ele>
        <time>2023-07-05T15:00:12Z</time>
      </trkpt>
      <trkpt lat="49.23668" lon="-0.23608">
        <ele>22.4</ele>
        <time>2023-07-05T15:00:13Z</time>
      </trkpt>
      <trkpt lat="49.2367" lon="-0.23598">
        <ele>22.5</ele>
        <time>2023-07-05T15:00:14Z</time>
      </trkpt>
      <trkpt lat="49.23672" lon="-0.23587">
        <ele>22.6</ele>
        <time>2023-07-05T15:00:15Z</time>
      </trkpt>
      <trkpt lat="49.23674" lon="-0.23576">
        <ele>22.7</ele>
        <time>2023-07-05T15:00:16Z</time>
      </trkpt>
      <trkpt lat="49.23676" lon="-0.23565">
        <ele>22.8</ele>
        <time>2023-07-05T15:00:17Z</time>
      </trkpt>
      <trkpt lat="49.23678" lon="-0.23553">
        <ele>23</ele>
        <time>2023-07-05T15:00:18Z</time>
      </trkpt>
      <trkpt lat="49.2368" lon="-0.23542">
        <ele>23.1</ele>
        <time>2023-07-05T15:00:19Z</time>
      </trkpt>
      <trkpt lat="49.23683" lon="-0.23532">
        <ele>23.2</ele>
        <time>2023-07-05T15:00:20Z</time>
      </trkpt>
      <trkpt lat="49.23685" lon="-0.23521">
        <ele>23.4</ele>
        <time>2023-07-05T15:00:21Z</time>
      </trkpt>
      <trkpt lat="49.23688" lon="-0.23511">
        <ele>23.5</ele>
        <time>2023-07-05T15:00:22Z</time>
      </trkpt>
      <trkpt lat="49.2369" lon="-0.23501">
        <ele>23.7</ele>
        <time>2023-07-05T15:00:23Z</time>
      </trkpt>
      <trkpt lat="49.23693" lon="-0.23492">
        <ele>23.9</ele>
        <time>2023-07-05T15:00:24Z</time>
      </trkpt>
      <trkpt lat="49.23695" lon="-0.23482">
        <ele>24</ele>
        <time>2023-07-05T15:00:25Z</time>
      </trkpt>
      <trkpt lat="49.23698" lon="-0.23472">
        <ele>24.2</ele>
        <time>2023-07-05T15:00:26Z</time>
      </trkpt>
      <trkpt lat="49.23701" lon="-0.23463">
        <ele>24.4</ele>
        <time>2023-07-05T15:00:27Z</time>
      </trkpt>
      <trkpt lat="49.23703" lon="-0.23453">
        <ele>24.6</ele>
        <time>2023-07-05T15:00:28Z</time>
      </trkpt>
      <trkpt lat="49.23706" lon="-0.23444">
        <ele>24.7</ele>
        <time>2023-07-05T15:00:29Z</time>
      </trkpt>
      <trkpt lat="49.23709" lon="-0.23434">
        <ele>24.9</ele>
        <time>2023-07-05T15:00:30Z</time>
      </trkpt>
      <trkpt lat="49.23712" lon="-0.23425">
        <ele>25.1</ele>
        <time>2023-07-05T15:00:31Z</time>
      </trkpt>
      <trkpt lat="49.23715" lon="-0.23415">
        <ele>25.2</ele>
        <time>2023-07-05T15:00:32Z</time>
      </trkpt>
      <trkpt lat="49.23718" lon="-0.23406">
        <ele>25.4</ele>
        <time>2023-07-05T15:00:33Z</time>
      </trkpt>
      <trkpt lat="49.23721" lon="-0.23397">
        <ele>25.6</ele>
        <time>2023-07-05T15:00:34Z</time>
      </trkpt>
      <trkpt lat="49.23724" lon="-0.23388">
        <ele>25.8</ele>
        <time>2023-07-05T15:00:35Z</time>
      </trkpt>
      <trkpt lat="49.23727" lon="-0.23379">
        <ele>25.9</ele>
        <time>2023-07-05T15:00:36Z</time>
      </trkpt>
      <trkpt lat="49.2373" lon="-0.23371">
        <ele>26.1</ele>
        <time>2023-07-05T15:00:37Z</time>
      </trkpt>
      <trkpt lat="49.23733" lon="-0.23363">
        <ele>26.3</ele>
        <time>2023-07-05T15:00:38Z</time>
      </trkpt>
      <trkpt lat="49.23736" lon="-0.23355">
        <ele>26.4</ele>
        <time>2023-07-05T15:00:39Z</time>
      </trkpt>
      <trkpt lat="49.23739" lon="-0.23347">
        <ele>26.6</ele>
        <time>2023-07-05T15:00:40Z</time>
      </trkpt>
      <trkpt lat="49.23742" lon="-0.23339">
        <ele>26.7</ele>
        <time>2023-07-05T15:00:41Z</time>
      </trkpt>
      <trkpt lat="49.23745" lon="-0.23331">
        <ele>26.8</ele>
        <time>2023-07-05T15:00:42Z</time>
      </trkpt>
      <trkpt lat="49.23748" lon="-0.23323">
        <ele>26.9</ele>
        <time>2023-07-05T15:00:43Z</time>
      </trkpt>
      <trkpt lat="49.23751" lon="-0.23315">
        <ele>27</ele>
        <time>2023-07-05T15:00:44Z</time>
      </trkpt>
      <trkpt lat="49.23753" lon="-0.23306">
        <ele>27.1</ele>
        <time>2023-07-05T15:00:45Z</time>
      </trkpt>
      <trkpt lat="49.23756" lon="-0.23298">
        <ele>27.3</ele>
        <time>2023-07-05T15:00:46Z</time>
      </trkpt>
      <trkpt lat="49.23757" lon="-0.23289">
        <ele>27.4</ele>
        <time>2023-07-05T15:00:47Z</time>
      </trkpt>
      <trkpt lat="49.23759" lon="-0.2328">
        <ele>27.5</ele>
        <time>2023-07-05T15:00:48Z</time>
      </trkpt>
      <trkpt lat="49.2376" lon="-0.2327">
        <ele>27.6</ele>
        <time>2023-07-05T15:00:49Z</time>
      </trkpt>
      <trkpt lat="49.23761" lon="-0.23261">
        <ele>27.8</ele>
        <time>2023-07-05T15:00:50Z</time>
      </trkpt>
      <trkpt lat="49.23763" lon="-0.23252">
        <ele>27.9</ele>
        <time>2023-07-05T15:00:51Z</time>
      </trkpt>
      <trkpt lat="49.23764" lon="-0.23243">
        <ele>28</ele>
        <time>2023-07-05T15:00:52Z</time>
      </trkpt>
      <trkpt lat="49.23765" lon="-0.23234">
        <ele>28.1</ele>
        <time>2023-07-05T15:00:53Z</time>
      </trkpt>
      <trkpt lat="49.23767" lon="-0.23224">
        <ele>28.2</ele>
        <time>2023-07-05T15:00:54Z</time>
      </trkpt>
      <trkpt lat="49.23768" lon="-0.23215">
        <ele>28.2</ele>
        <time>2023-07-05T15:00:55Z</time>
      </trkpt>
      <trkpt lat="49.23769" lon="-0.23206">
        <ele>28.3</ele>
        <time>2023-07-05T15:00:56Z</time>
      </trkpt>
      <trkpt lat="49.2377" lon="-0.23197">
        <ele>28.4</ele>
        <time>2023-07-05T15:00:57Z</time>
      </trkpt>
      <trkpt lat="49.23771" lon="-0.23187">
        <ele>28.5</ele>
        <time>2023-07-05T15:00:58Z</time>
      </trkpt>
      <trkpt lat="49.23772" lon="-0.23178">
        <ele>28.6</ele>
        <time>2023-07-05T15:00:59Z</time>
      </trkpt>
      <trkpt lat="49.23774" lon="-0.23168">
        <ele>28.6</ele>
        <time>2023-07-05T15:01:00Z</time>
      </trkpt>
      <trkpt lat="49.23775" lon="-0.23159">
        <ele>28.7</ele>
        <time>2023-07-05T15:01:01Z</time>
      </trkpt>
      <trkpt lat="49.23776" lon="-0.2315">
        <ele>28.8</ele>
        <time>2023-07-05T15:01:02Z</time>
      </trkpt>
      <trkpt lat="49.23778" lon="-0.2314">
        <ele>28.9</ele>
        <time>2023-07-05T15:01:03Z</time>
      </trkpt>
      <trkpt lat="49.2378" lon="-0.23129">
        <ele>29</ele>
        <time>2023-07-05T15:01:04Z</time>
      </trkpt>
      <trkpt lat="49.23782" lon="-0.23119">
        <ele>29.1</ele>
        <time>2023-07-05T15:01:05Z</time>
      </trkpt>
      <trkpt lat="49.23784" lon="-0.23109">
        <ele>29.2</ele>
        <time>2023-07-05T15:01:06Z</time>
      </trkpt>
      <trkpt lat="49.23786" lon="-0.231">
        <ele>29.3</ele>
        <time>2023-07-05T15:01:07Z</time>
      </trkpt>
      <trkpt lat="49.23788" lon="-0.2309">
        <ele>29.4</ele>
        <time>2023-07-05T15:01:08Z</time>
      </trkpt>
      <trkpt lat="49.23791" lon="-0.23081">
        <ele>29.5</ele>
        <time>2023-07-05T15:01:09Z</time>
      </trkpt>
      <trkpt lat="49.23793" lon="-0.23072">
        <ele>29.7</ele>
        <time>2023-07-05T15:01:10Z</time>
      </trkpt>
      <trkpt lat="49.23797" lon="-0.23064">
        <ele>29.9</ele>
        <time>2023-07-05T15:01:11Z</time>
      </trkpt>
      <trkpt lat="49.238" lon="-0.23056">
        <ele>30</ele>
        <time>2023-07-05T15:01:12Z</time>
      </trkpt>
      <trkpt lat="49.23803" lon="-0.23048">
        <ele>30.2</ele>
        <time>2023-07-05T15:01:13Z</time>
      </trkpt>
      <trkpt lat="49.23807" lon="-0.2304">
        <ele>30.4</ele>
        <time>2023-07-05T15:01:14Z</time>
      </trkpt>
      <trkpt lat="49.2381" lon="-0.23033">
        <ele>30.5</ele>
        <time>2023-07-05T15:01:15Z</time>
      </trkpt>
      <trkpt lat="49.23813" lon="-0.23025">
        <ele>30.7</ele>
        <time>2023-07-05T15:01:16Z</time>
      </trkpt>
      <trkpt lat="49.23816" lon="-0.23016">
        <ele>30.8</ele>
        <time>2023-07-05T15:01:17Z</time>
      </trkpt>
      <trkpt lat="49.23819" lon="-0.23008">
        <ele>31</ele>
        <time>2023-07-05T15:01:18Z</time>
      </trkpt>
      <trkpt lat="49.23821" lon="-0.22999">
        <ele>31.2</ele>
        <time>2023-07-05T15:01:19Z</time>
      </trkpt>
      <trkpt lat="49.23823" lon="-0.2299">
        <ele>31.4</ele>
        <time>2023-07-05T15:01:20Z</time>
      </trkpt>
      <trkpt lat="49.23825" lon="-0.2298">
        <ele>31.6</ele>
        <time>2023-07-05T15:01:21Z</time>
      </trkpt>
      <trkpt lat="49.23827" lon="-0.2297">
        <ele>31.9</ele>
        <time>2023-07-05T15:01:22Z</time>
      </trkpt>
      <trkpt lat="49.23829" lon="-0.22961">
        <ele>32.2</ele>
        <time>2023-07-05T15:01:23Z</time>
      </trkpt>
      <trkpt lat="49.2383" lon="-0.22952">
        <ele>32.5</ele>
        <time>2023-07-05T15:01:24Z</time>
      </trkpt>
      <trkpt lat="49.23832" lon="-0.22944">
        <ele>32.8</ele>
        <time>2023-07-05T15:01:25Z</time>
      </trkpt>
      <trkpt lat="49.23833" lon="-0.22935">
        <ele>33.1</ele>
        <time>2023-07-05T15:01:26Z</time>
      </trkpt>
      <trkpt lat="49.23834" lon="-0.22926">
        <ele>33.5</ele>
        <time>2023-07-05T15:01:27Z</time>
      </trkpt>
      <trkpt lat="49.23836" lon="-0.22918">
        <ele>33.8</ele>
        <time>2023-07-05T15:01:28Z</time>
      </trkpt>
      <trkpt lat="49.23837" lon="-0.2291">
        <ele>34.2</ele>
        <time>2023-07-05T15:01:29Z</time>
      </trkpt>
      <trkpt lat="49.23839" lon="-0.22902">
        <ele>34.5</ele>
        <time>2023-07-05T15:01:30Z</time>
      </trkpt>
      <trkpt lat="49.23841" lon="-0.22895">
        <ele>34.9</ele>
        <time>2023-07-05T15:01:31Z</time>
      </trkpt>
      <trkpt lat="49.23842" lon="-0.22888">
        <ele>35.2</ele>
        <time>2023-07-05T15:01:32Z</time>
      </trkpt>
      <trkpt lat="49.23844" lon="-0.22881">
        <ele>35.6</ele>
        <time>2023-07-05T15:01:33Z</time>
      </trkpt>
      <trkpt lat="49.23846" lon="-0.22874">
        <ele>35.9</ele>
        <time>2023-07-05T15:01:34Z</time>
      </trkpt>
      <trkpt lat="49.23848" lon="-0.22868">
        <ele>36.2</ele>
        <time>2023-07-05T15:01:35Z</time>
      </trkpt>
      <trkpt lat="49.2385" lon="-0.22861">
        <ele>36.6</ele>
        <time>2023-07-05T15:01:36Z</time>
      </trkpt>
      <trkpt lat="49.23852" lon="-0.22855">
        <ele>37</ele>
        <time>2023-07-05T15:01:37Z</time>
      </trkpt>
      <trkpt lat="49.23854" lon="-0.22849">
        <ele>37.4</ele>
        <time>2023-07-05T15:01:38Z</time>
      </trkpt>
      <trkpt lat="49.23855" lon="-0.22842">
        <ele>37.8</ele>
        <time>2023-07-05T15:01:39Z</time>
      </trkpt>
      <trkpt lat="49.23857" lon="-0.22837">
        <ele>38.2</ele>
        <time>2023-07-05T15:01:40Z</time>
      </trkpt>
      <trkpt lat="49.2386" lon="-0.22832">
        <ele>38.5</ele>
        <time>2023-07-05T15:01:41Z</time>
      </trkpt>
      <trkpt lat="49.23862" lon="-0.22827">
        <ele>38.9</ele>
        <time>2023-07-05T15:01:42Z</time>
      </trkpt>
      <trkpt lat="49.23864" lon="-0.22821">
        <ele>39.3</ele>
        <time>2023-07-05T15:01:43Z</time>
      </trkpt>
      <trkpt lat="49.23867" lon="-0.22816">
        <ele>39.7</ele>
        <time>2023-07-05T15:01:44Z</time>
      </trkpt>
      <trkpt lat="49.2387" lon="-0.22812">
        <ele>40</ele>
        <time>2023-07-05T15:01:45Z</time>
      </trkpt>
      <trkpt lat="49.23872" lon="-0.22808">
        <ele>40.4</ele>
        <time>2023-07-05T15:01:46Z</time>
      </trkpt>
      <trkpt lat="49.23875" lon="-0.22803">
        <ele>40.7</ele>
        <time>2023-07-05T15:01:47Z</time>
      </trkpt>
      <trkpt lat="49.23877" lon="-0.22799">
        <ele>41.1</ele>
        <time>2023-07-05T15:01:48Z</time>
      </trkpt>
      <trkpt lat="49.2388" lon="-0.22795">
        <ele>41.5</ele>
        <time>2023-07-05T15:01:49Z</time>
      </trkpt>
      <trkpt lat="49.23883" lon="-0.22791">
        <ele>41.9</ele>
        <time>2023-07-05T15:01:50Z</time>
      </trkpt>
      <trkpt lat="49.23885" lon="-0.22788">
        <ele>42.2</ele>
        <time>2023-07-05T15:01:51Z</time>
      </trkpt>
      <trkpt lat="49.23888" lon="-0.22784">
        <ele>42.6</ele>
        <time>2023-07-05T15:01:52Z</time>
      </trkpt>
      <trkpt lat="49.23891" lon="-0.22781">
        <ele>43</ele>
        <time>2023-07-05T15:01:53Z</time>
      </trkpt>
      <trkpt lat="49.23893" lon="-0.22778">
        <ele>43.3</ele>
        <time>2023-07-05T15:01:54Z</time>
      </trkpt>
      <trkpt lat="49.23896" lon="-0.22775">
        <ele>43.7</ele>
        <time>2023-07-05T15:01:55Z</time>
      </trkpt>
      <trkpt lat="49.23899" lon="-0.22772">
        <ele>44</ele>
        <time>2023-07-05T15:01:56Z</time>
      </trkpt>
      <trkpt lat="49.23902" lon="-0.22769">
        <ele>44.4</ele>
        <time>2023-07-05T15:01:57Z</time>
      </trkpt>
      <trkpt lat="49.23904" lon="-0.22766">
        <ele>44.7</ele>
        <time>2023-07-05T15:01:58Z</time>
      </trkpt>
      <trkpt lat="49.23907" lon="-0.22762">
        <ele>45.1</ele>
        <time>2023-07-05T15:01:59Z</time>
      </trkpt>
      <trkpt lat="49.2391" lon="-0.22759">
        <ele>45.4</ele>
        <time>2023-07-05T15:02:00Z</time>
      </trkpt>
      <trkpt lat="49.23912" lon="-0.22756">
        <ele>45.7</ele>
        <time>2023-07-05T15:02:01Z</time>
      </trkpt>
      <trkpt lat="49.23915" lon="-0.22753">
        <ele>46.1</ele>
        <time>2023-07-05T15:02:02Z</time>
      </trkpt>
      <trkpt lat="49.23917" lon="-0.2275">
        <ele>46.4</ele>
        <time>2023-07-05T15:02:03Z</time>
      </trkpt>
      <trkpt lat="49.2392" lon="-0.22747">
        <ele>46.7</ele>
        <time>2023-07-05T15:02:04Z</time>
      </trkpt>
      <trkpt lat="49.23923" lon="-0.22744">
        <ele>47.1</ele>
        <time>2023-07-05T15:02:05Z</time>
      </trkpt>
      <trkpt lat="49.23925" lon="-0.22741">
        <ele>47.4</ele>
        <time>2023-07-05T15:02:06Z</time>
      </trkpt>
      <trkpt lat="49.23928" lon="-0.22738">
        <ele>47.8</ele>
        <time>2023-07-05T15:02:07Z</time>
      </trkpt>
      <trkpt lat="49.2393" lon="-0.22734">
        <ele>48.1</ele>
        <time>2023-07-05T15:02:08Z</time>
      </trkpt>
      <trkpt lat="49.23933" lon="-0.22731">
        <ele>48.4</ele>
        <time>2023-07-05T15:02:09Z</time>
      </trkpt>
      <trkpt lat="49.23935" lon="-0.22728">
        <ele>48.8</ele>
        <time>2023-07-05T15:02:10Z</time>
      </trkpt>
      <trkpt lat="49.23938" lon="-0.22725">
        <ele>49.1</ele>
        <time>2023-07-05T15:02:11Z</time>
      </trkpt>
      <trkpt lat="49.2394" lon="-0.22721">
        <ele>49.4</ele>
        <time>2023-07-05T15:02:12Z</time>
      </trkpt>
      <trkpt lat="49.23942" lon="-0.22717">
        <ele>49.7</ele>
        <time>2023-07-05T15:02:13Z</time>
      </trkpt>
      <trkpt lat="49.23945" lon="-0.22714">
        <ele>50</ele>
        <time>2023-07-05T15:02:14Z</time>
      </trkpt>
      <trkpt lat="49.23947" lon="-0.2271">
        <ele>50.3</ele>
        <time>2023-07-05T15:02:15Z</time>
      </trkpt>
      <trkpt lat="49.2395" lon="-0.22707">
        <ele>50.6</ele>
        <time>2023-07-05T15:02:16Z</time>
      </trkpt>
      <trkpt lat="49.23952" lon="-0.22703">
        <ele>50.9</ele>
        <time>2023-07-05T15:02:17Z</time>
      </trkpt>
      <trkpt lat="49.23954" lon="-0.227">
        <ele>51.2</ele>
        <time>2023-07-05T15:02:18Z</time>
      </trkpt>
      <trkpt lat="49.23956" lon="-0.22696">
        <ele>51.5</ele>
        <time>2023-07-05T15:02:19Z</time>
      </trkpt>
      <trkpt lat="49.23958" lon="-0.22692">
        <ele>51.8</ele>
        <time>2023-07-05T15:02:20Z</time>
      </trkpt>
      <trkpt lat="49.2396" lon="-0.22688">
        <ele>52.1</ele>
        <time>2023-07-05T15:02:21Z</time>
      </trkpt>
      <trkpt lat="49.23963" lon="-0.22685">
        <ele>52.3</ele>
        <time>2023-07-05T15:02:22Z</time>
      </trkpt>
      <trkpt lat="49.23965" lon="-0.22681">
        <ele>52.6</ele>
        <time>2023-07-05T15:02:23Z</time>
      </trkpt>
      <trkpt lat="49.23967" lon="-0.22677">
        <ele>52.8</ele>
        <time>2023-07-05T15:02:24Z</time>
      </trkpt>
      <trkpt lat="49.23969" lon="-0.22673">
        <ele>53</ele>
        <time>2023-07-05T15:02:25Z</time>
      </trkpt>
      <trkpt lat="49.23971" lon="-0.2267">
        <ele>53.2</ele>
        <time>2023-07-05T15:02:26Z</time>
      </trkpt>
      <trkpt lat="49.23973" lon="-0.22667">
        <ele>53.4</ele>
        <time>2023-07-05T15:02:27Z</time>
      </trkpt>
      <trkpt lat="49.23975" lon="-0.22664">
        <ele>53.6</ele>
        <time>2023-07-05T15:02:28Z</time>
      </trkpt>
      <trkpt lat="49.23977" lon="-0.2266">
        <ele>53.7</ele>
        <time>2023-07-05T15:02:29Z</time>
      </trkpt>
      <trkpt lat="49.2398" lon="-0.22657">
        <ele>53.8</ele>
        <time>2023-07-05T15:02:30Z</time>
      </trkpt>
      <trkpt lat="49.23982" lon="-0.22653">
        <ele>54</ele>
        <time>2023-07-05T15:02:31Z</time>
      </trkpt>
      <trkpt lat="49.23984" lon="-0.22649">
        <ele>54.1</ele>
        <time>2023-07-05T15:02:32Z</time>
      </trkpt>
      <trkpt lat="49.23987" lon="-0.22646">
        <ele>54.2</ele>
        <time>2023-07-05T15:02:33Z</time>
      </trkpt>
      <trkpt lat="49.23989" lon="-0.22642">
        <ele>54.4</ele>
        <time>2023-07-05T15:02:34Z</time>
      </trkpt>
      <trkpt lat="49.23992" lon="-0.22638">
        <ele>54.5</ele>
        <time>2023-07-05T15:02:35Z</time>
      </trkpt>
      <trkpt lat="49.23995" lon="-0.22634">
        <ele>54.7</ele>
        <time>2023-07-05T15:02:36Z</time>
      </trkpt>
      <trkpt lat="49.23998" lon="-0.2263">
        <ele>54.8</ele>
        <time>2023-07-05T15:02:37Z</time>
      </trkpt>
      <trkpt lat="49.24001" lon="-0.22626">
        <ele>54.9</ele>
        <time>2023-07-05T15:02:38Z</time>
      </trkpt>
      <trkpt lat="49.24005" lon="-0.22622">
        <ele>55.1</ele>
        <time>2023-07-05T15:02:39Z</time>
      </trkpt>
      <trkpt lat="49.24008" lon="-0.22619">
        <ele>55.2</ele>
        <time>2023-07-05T15:02:40Z</time>
      </trkpt>
      <trkpt lat="49.24011" lon="-0.22615">
        <ele>55.3</ele>
        <time>2023-07-05T15:02:41Z</time>
      </trkpt>
      <trkpt lat="49.24014" lon="-0.22612">
        <ele>55.4</ele>
        <time>2023-07-05T15:02:42Z</time>
      </trkpt>
      <trkpt lat="49.24017" lon="-0.22608">
        <ele>55.5</ele>
        <time>2023-07-05T15:02:43Z</time>
      </trkpt>
      <trkpt lat="49.2402" lon="-0.22605">
        <ele>55.5</ele>
        <time>2023-07-05T15:02:44Z</time>
      </trkpt>
      <trkpt lat="49.24024" lon="-0.22601">
        <ele>55.5</ele>
        <time>2023-07-05T15:02:45Z</time>
      </trkpt>
      <trkpt lat="49.24027" lon="-0.22598">
        <ele>55.6</ele>
        <time>2023-07-05T15:02:46Z</time>
      </trkpt>
      <trkpt lat="49.2403" lon="-0.22594">
        <ele>55.6</ele>
        <time>2023-07-05T15:02:47Z</time>
      </trkpt>
      <trkpt lat="49.24034" lon="-0.2259">
        <ele>55.6</ele>
        <time>2023-07-05T15:02:48Z</time>
      </trkpt>
      <trkpt lat="49.24037" lon="-0.22585">
        <ele>55.6</ele>
        <time>2023-07-05T15:02:49Z</time>
      </trkpt>
      <trkpt lat="49.24041" lon="-0.2258">
        <ele>55.7</ele>
        <time>2023-07-05T15:02:50Z</time>
      </trkpt>
      <trkpt lat="49.24044" lon="-0.22575">
        <ele>55.7</ele>
        <time>2023-07-05T15:02:51Z</time>
      </trkpt>
      <trkpt lat="49.24048" lon="-0.2257">
        <ele>55.7</ele>
        <time>2023-07-05T15:02:52Z</time>
      </trkpt>
      <trkpt lat="49.24051" lon="-0.22565">
        <ele>55.7</ele>
        <time>2023-07-05T15:02:53Z</time>
      </trkpt>
      <trkpt lat="49.24055" lon="-0.22559">
        <ele>55.7</ele>
        <time>2023-07-05T15:02:54Z</time>
      </trkpt>
      <trkpt lat="49.24059" lon="-0.22553">
        <ele>55.7</ele>
        <time>2023-07-05T15:02:55Z</time>
      </trkpt>
      <trkpt lat="49.24062" lon="-0.22548">
        <ele>55.7</ele>
        <time>2023-07-05T15:02:56Z</time>
      </trkpt>
      <trkpt lat="49.24066" lon="-0.22542">
        <ele>55.7</ele>
        <time>2023-07-05T15:02:57Z</time>
      </trkpt>
      <trkpt lat="49.2407" lon="-0.22537">
        <ele>55.7</ele>
        <time>2023-07-05T15:02:58Z</time>
      </trkpt>
      <trkpt lat="49.24074" lon="-0.22531">
        <ele>55.7</ele>
        <time>2023-07-05T15:02:59Z</time>
      </trkpt>
      <trkpt lat="49.24077" lon="-0.22525">
        <ele>55.7</ele>
        <time>2023-07-05T15:03:00Z</time>
      </trkpt>
      <trkpt lat="49.2408" lon="-0.22519">
        <ele>55.7</ele>
        <time>2023-07-05T15:03:01Z</time>
      </trkpt>
      <trkpt lat="49.24084" lon="-0.22514">
        <ele>55.7</ele>
        <time>2023-07-05T15:03:02Z</time>
      </trkpt>
      <trkpt lat="49.24088" lon="-0.22508">
        <ele>55.7</ele>
        <time>2023-07-05T15:03:03Z</time>
      </trkpt>
      <trkpt lat="49.24092" lon="-0.22502">
        <ele>55.7</ele>
        <time>2023-07-05T15:03:04Z</time>
      </trkpt>
      <trkpt lat="49.24096" lon="-0.22496">
        <ele>55.6</ele>
        <time>2023-07-05T15:03:05Z</time>
      </trkpt>
      <trkpt lat="49.24099" lon="-0.22489">
        <ele>55.6</ele>
        <time>2023-07-05T15:03:06Z</time>
      </trkpt>
      <trkpt lat="49.24102" lon="-0.22482">
        <ele>55.6</ele>
        <time>2023-07-05T15:03:07Z</time>
      </trkpt>
      <trkpt lat="49.24106" lon="-0.22474">
        <ele>55.5</ele>
        <time>2023-07-05T15:03:08Z</time>
      </trkpt>
      <trkpt lat="49.24109" lon="-0.22465">
        <ele>55.4</ele>
        <time>2023-07-05T15:03:09Z</time>
      </trkpt>
      <trkpt lat="49.24112" lon="-0.22456">
        <ele>55.4</ele>
        <time>2023-07-05T15:03:10Z</time>
      </trkpt>
      <trkpt lat="49.24114" lon="-0.22447">
        <ele>55.3</ele>
        <time>2023-07-05T15:03:11Z</time>
      </trkpt>
      <trkpt lat="49.24117" lon="-0.22437">
        <ele>55.2</ele>
        <time>2023-07-05T15:03:12Z</time>
      </trkpt>
      <trkpt lat="49.24119" lon="-0.22426">
        <ele>55.1</ele>
        <time>2023-07-05T15:03:13Z</time>
      </trkpt>
      <trkpt lat="49.24122" lon="-0.22416">
        <ele>55</ele>
        <time>2023-07-05T15:03:14Z</time>
      </trkpt>
      <trkpt lat="49.24125" lon="-0.22406">
        <ele>55</ele>
        <time>2023-07-05T15:03:15Z</time>
      </trkpt>
      <trkpt lat="49.24127" lon="-0.22396">
        <ele>54.9</ele>
        <time>2023-07-05T15:03:16Z</time>
      </trkpt>
      <trkpt lat="49.2413" lon="-0.22386">
        <ele>54.8</ele>
        <time>2023-07-05T15:03:17Z</time>
      </trkpt>
      <trkpt lat="49.24133" lon="-0.22377">
        <ele>54.8</ele>
        <time>2023-07-05T15:03:18Z</time>
      </trkpt>
      <trkpt lat="49.24135" lon="-0.22366">
        <ele>54.7</ele>
        <time>2023-07-05T15:03:19Z</time>
      </trkpt>
      <trkpt lat="49.24138" lon="-0.22356">
        <ele>54.6</ele>
        <time>2023-07-05T15:03:20Z</time>
      </trkpt>
      <trkpt lat="49.24142" lon="-0.22346">
        <ele>54.6</ele>
        <time>2023-07-05T15:03:21Z</time>
      </trkpt>
      <trkpt lat="49.24145" lon="-0.22335">
        <ele>54.5</ele>
        <time>2023-07-05T15:03:22Z</time>
      </trkpt>
      <trkpt lat="49.24149" lon="-0.22324">
        <ele>54.4</ele>
        <time>2023-07-05T15:03:23Z</time>
      </trkpt>
      <trkpt lat="49.24153" lon="-0.22313">
        <ele>54.4</ele>
        <time>2023-07-05T15:03:24Z</time>
      </trkpt>
      <trkpt lat="49.24157" lon="-0.22303">
        <ele>54.3</ele>
        <time>2023-07-05T15:03:25Z</time>
      </trkpt>
      <trkpt lat="49.24161" lon="-0.22293">
        <ele>54.2</ele>
        <time>2023-07-05T15:03:26Z</time>
      </trkpt>
      <trkpt lat="49.24165" lon="-0.22283">
        <ele>54.2</ele>
        <time>2023-07-05T15:03:27Z</time>
      </trkpt>
      <trkpt lat="49.24169" lon="-0.22272">
        <ele>54.1</ele>
        <time>2023-07-05T15:03:28Z</time>
      </trkpt>
      <trkpt lat="49.24173" lon="-0.22261">
        <ele>54</ele>
        <time>2023-07-05T15:03:29Z</time>
      </trkpt>
      <trkpt lat="49.24177" lon="-0.22251">
        <ele>54</ele>
        <time>2023-07-05T15:03:30Z</time>
      </trkpt>
      <trkpt lat="49.24181" lon="-0.2224">
        <ele>53.9</ele>
        <time>2023-07-05T15:03:31Z</time>
      </trkpt>
      <trkpt lat="49.24185" lon="-0.2223">
        <ele>53.8</ele>
        <time>2023-07-05T15:03:32Z</time>
      </trkpt>
      <trkpt lat="49.24189" lon="-0.22219">
        <ele>53.8</ele>
        <time>2023-07-05T15:03:33Z</time>
      </trkpt>
      <trkpt lat="49.24193" lon="-0.22207">
        <ele>53.7</ele>
        <time>2023-07-05T15:03:34Z</time>
      </trkpt>
      <trkpt lat="49.24196" lon="-0.22195">
        <ele>53.7</ele>
        <time>2023-07-05T15:03:35Z</time>
      </trkpt>
      <trkpt lat="49.24199" lon="-0.22184">
        <ele>53.7</ele>
        <time>2023-07-05T15:03:36Z</time>
      </trkpt>
      <trkpt lat="49.24202" lon="-0.22172">
        <ele>53.7</ele>
        <time>2023-07-05T15:03:37Z</time>
      </trkpt>
      <trkpt lat="49.24205" lon="-0.2216">
        <ele>53.7</ele>
        <time>2023-07-05T15:03:38Z</time>
      </trkpt>
      <trkpt lat="49.24208" lon="-0.22148">
        <ele>53.8</ele>
        <time>2023-07-05T15:03:39Z</time>
      </trkpt>
      <trkpt lat="49.2421" lon="-0.22135">
        <ele>53.8</ele>
        <time>2023-07-05T15:03:40Z</time>
      </trkpt>
      <trkpt lat="49.24213" lon="-0.22124">
        <ele>53.8</ele>
        <time>2023-07-05T15:03:41Z</time>
      </trkpt>
      <trkpt lat="49.24217" lon="-0.22112">
        <ele>53.9</ele>
        <time>2023-07-05T15:03:42Z</time>
      </trkpt>
      <trkpt lat="49.2422" lon="-0.221">
        <ele>53.9</ele>
        <time>2023-07-05T15:03:43Z</time>
      </trkpt>
      <trkpt lat="49.24224" lon="-0.2209">
        <ele>53.9</ele>
        <time>2023-07-05T15:03:44Z</time>
      </trkpt>
      <trkpt lat="49.24228" lon="-0.22079">
        <ele>53.9</ele>
        <time>2023-07-05T15:03:45Z</time>
      </trkpt>
      <trkpt lat="49.24233" lon="-0.2207">
        <ele>53.9</ele>
        <time>2023-07-05T15:03:46Z</time>
      </trkpt>
      <trkpt lat="49.24238" lon="-0.2206">
        <ele>54</ele>
        <time>2023-07-05T15:03:47Z</time>
      </trkpt>
      <trkpt lat="49.24243" lon="-0.22052">
        <ele>54</ele>
        <time>2023-07-05T15:03:48Z</time>
      </trkpt>
      <trkpt lat="49.24247" lon="-0.22042">
        <ele>54.1</ele>
        <time>2023-07-05T15:03:49Z</time>
      </trkpt>
      <trkpt lat="49.24252" lon="-0.22033">
        <ele>54.1</ele>
        <time>2023-07-05T15:03:50Z</time>
      </trkpt>
      <trkpt lat="49.24257" lon="-0.22024">
        <ele>54.2</ele>
        <time>2023-07-05T15:03:51Z</time>
      </trkpt>
      <trkpt lat="49.24261" lon="-0.22014">
        <ele>54.2</ele>
        <time>2023-07-05T15:03:52Z</time>
      </trkpt>
      <trkpt lat="49.24266" lon="-0.22005">
        <ele>54.2</ele>
        <time>2023-07-05T15:03:53Z</time>
      </trkpt>
      <trkpt lat="49.24271" lon="-0.21995">
        <ele>54.2</ele>
        <time>2023-07-05T15:03:54Z</time>
      </trkpt>
      <trkpt lat="49.24276" lon="-0.21986">
        <ele>54.2</ele>
        <time>2023-07-05T15:03:55Z</time>
      </trkpt>
      <trkpt lat="49.24281" lon="-0.21977">
        <ele>54.2</ele>
        <time>2023-07-05T15:03:56Z</time>
      </trkpt>
      <trkpt lat="49.24285" lon="-0.21967">
        <ele>54.1</ele>
        <time>2023-07-05T15:03:57Z</time>
      </trkpt>
      <trkpt lat="49.2429" lon="-0.21957">
        <ele>54.1</ele>
        <time>2023-07-05T15:03:58Z</time>
      </trkpt>
      <trkpt lat="49.24295" lon="-0.21948">
        <ele>54</ele>
        <time>2023-07-05T15:03:59Z</time>
      </trkpt>
      <trkpt lat="49.24299" lon="-0.21938">
        <ele>53.9</ele>
        <time>2023-07-05T15:04:00Z</time>
      </trkpt>
      <trkpt lat="49.24304" lon="-0.21928">
        <ele>53.8</ele>
        <time>2023-07-05T15:04:01Z</time>
      </trkpt>
      <trkpt lat="49.24309" lon="-0.21918">
        <ele>53.7</ele>
        <time>2023-07-05T15:04:02Z</time>
      </trkpt>
      <trkpt lat="49.24314" lon="-0.21908">
        <ele>53.6</ele>
        <time>2023-07-05T15:04:03Z</time>
      </trkpt>
      <trkpt lat="49.2432" lon="-0.21899">
        <ele>53.5</ele>
        <time>2023-07-05T15:04:04Z</time>
      </trkpt>
      <trkpt lat="49.24325" lon="-0.21889">
        <ele>53.4</ele>
        <time>2023-07-05T15:04:05Z</time>
      </trkpt>
      <trkpt lat="49.2433" lon="-0.21879">
        <ele>53.3</ele>
        <time>2023-07-05T15:04:06Z</time>
      </trkpt>
      <trkpt lat="49.24335" lon="-0.2187">
        <ele>53.2</ele>
        <time>2023-07-05T15:04:07Z</time>
      </trkpt>
      <trkpt lat="49.2434" lon="-0.2186">
        <ele>53</ele>
        <time>2023-07-05T15:04:08Z</time>
      </trkpt>
      <trkpt lat="49.24345" lon="-0.2185">
        <ele>52.9</ele>
        <time>2023-07-05T15:04:09Z</time>
      </trkpt>
      <trkpt lat="49.24351" lon="-0.2184">
        <ele>52.7</ele>
        <time>2023-07-05T15:04:10Z</time>
      </trkpt>
      <trkpt lat="49.24356" lon="-0.21831">
        <ele>52.5</ele>
        <time>2023-07-05T15:04:11Z</time>
      </trkpt>
      <trkpt lat="49.24362" lon="-0.21821">
        <ele>52.3</ele>
        <time>2023-07-05T15:04:12Z</time>
      </trkpt>
      <trkpt lat="49.24367" lon="-0.21811">
        <ele>52.1</ele>
        <time>2023-07-05T15:04:13Z</time>
      </trkpt>
      <trkpt lat="49.24373" lon="-0.218">
        <ele>51.8</ele>
        <time>2023-07-05T15:04:14Z</time>
      </trkpt>
      <trkpt lat="49.24378" lon="-0.2179">
        <ele>51.5</ele>
        <time>2023-07-05T15:04:15Z</time>
      </trkpt>
      <trkpt lat="49.24384" lon="-0.21778">
        <ele>51.3</ele>
        <time>2023-07-05T15:04:16Z</time>
      </trkpt>
      <trkpt lat="49.24389" lon="-0.21767">
        <ele>51</ele>
        <time>2023-07-05T15:04:17Z</time>
      </trkpt>
      <trkpt lat="49.24395" lon="-0.21756">
        <ele>50.7</ele>
        <time>2023-07-05T15:04:18Z</time>
      </trkpt>
      <trkpt lat="49.24401" lon="-0.21745">
        <ele>50.4</ele>
        <time>2023-07-05T15:04:19Z</time>
      </trkpt>
      <trkpt lat="49.24407" lon="-0.21734">
        <ele>50.1</ele>
        <time>2023-07-05T15:04:20Z</time>
      </trkpt>
      <trkpt lat="49.24412" lon="-0.21723">
        <ele>49.7</ele>
        <time>2023-07-05T15:04:21Z</time>
      </trkpt>
      <trkpt lat="49.24418" lon="-0.21712">
        <ele>49.4</ele>
        <time>2023-07-05T15:04:22Z</time>
      </trkpt>
      <trkpt lat="49.24424" lon="-0.21701">
        <ele>49</ele>
        <time>2023-07-05T15:04:23Z</time>
      </trkpt>
      <trkpt lat="49.2443" lon="-0.2169">
        <ele>48.7</ele>
        <time>2023-07-05T15:04:24Z</time>
      </trkpt>
      <trkpt lat="49.24435" lon="-0.21679">
        <ele>48.4</ele>
        <time>2023-07-05T15:04:25Z</time>
      </trkpt>
      <trkpt lat="49.24441" lon="-0.21668">
        <ele>48</ele>
        <time>2023-07-05T15:04:26Z</time>
      </trkpt>
      <trkpt lat="49.24447" lon="-0.21656">
        <ele>47.7</ele>
        <time>2023-07-05T15:04:27Z</time>
      </trkpt>
      <trkpt lat="49.24453" lon="-0.21645">
        <ele>47.4</ele>
        <time>2023-07-05T15:04:28Z</time>
      </trkpt>
      <trkpt lat="49.2446" lon="-0.21634">
        <ele>47.1</ele>
        <time>2023-07-05T15:04:29Z</time>
      </trkpt>
      <trkpt lat="49.24466" lon="-0.21622">
        <ele>46.9</ele>
        <time>2023-07-05T15:04:30Z</time>
      </trkpt>
      <trkpt lat="49.24472" lon="-0.2161">
        <ele>46.6</ele>
        <time>2023-07-05T15:04:31Z</time>
      </trkpt>
      <trkpt lat="49.24478" lon="-0.21598">
        <ele>46.4</ele>
        <time>2023-07-05T15:04:32Z</time>
      </trkpt>
      <trkpt lat="49.24484" lon="-0.21586">
        <ele>46.1</ele>
        <time>2023-07-05T15:04:33Z</time>
      </trkpt>
      <trkpt lat="49.24491" lon="-0.21573">
        <ele>45.9</ele>
        <time>2023-07-05T15:04:34Z</time>
      </trkpt>
      <trkpt lat="49.24497" lon="-0.21561">
        <ele>45.6</ele>
        <time>2023-07-05T15:04:35Z</time>
      </trkpt>
      <trkpt lat="49.24503" lon="-0.21549">
        <ele>45.4</ele>
        <time>2023-07-05T15:04:36Z</time>
      </trkpt>
      <trkpt lat="49.24509" lon="-0.21537">
        <ele>45.2</ele>
        <time>2023-07-05T15:04:37Z</time>
      </trkpt>
      <trkpt lat="49.24516" lon="-0.21525">
        <ele>45</ele>
        <time>2023-07-05T15:04:38Z</time>
      </trkpt>
      <trkpt lat="49.24522" lon="-0.21513">
        <ele>44.8</ele>
        <time>2023-07-05T15:04:39Z</time>
      </trkpt>
      <trkpt lat="49.24528" lon="-0.21501">
        <ele>44.7</ele>
        <time>2023-07-05T15:04:40Z</time>
      </trkpt>
      <trkpt lat="49.24535" lon="-0.2149">
        <ele>44.6</ele>
        <time>2023-07-05T15:04:41Z</time>
      </trkpt>
      <trkpt lat="49.24541" lon="-0.21477">
        <ele>44.5</ele>
        <time>2023-07-05T15:04:42Z</time>
      </trkpt>
      <trkpt lat="49.24547" lon="-0.21465">
        <ele>44.4</ele>
        <time>2023-07-05T15:04:43Z</time>
      </trkpt>
      <trkpt lat="49.24553" lon="-0.21454">
        <ele>44.3</ele>
        <time>2023-07-05T15:04:44Z</time>
      </trkpt>
      <trkpt lat="49.24559" lon="-0.21442">
        <ele>44.2</ele>
        <time>2023-07-05T15:04:45Z</time>
      </trkpt>
      <trkpt lat="49.24565" lon="-0.2143">
        <ele>44.1</ele>
        <time>2023-07-05T15:04:46Z</time>
      </trkpt>
      <trkpt lat="49.24571" lon="-0.21419">
        <ele>44</ele>
        <time>2023-07-05T15:04:47Z</time>
      </trkpt>
      <trkpt lat="49.24577" lon="-0.21407">
        <ele>43.9</ele>
        <time>2023-07-05T15:04:48Z</time>
      </trkpt>
      <trkpt lat="49.24583" lon="-0.21395">
        <ele>43.7</ele>
        <time>2023-07-05T15:04:49Z</time>
      </trkpt>
      <trkpt lat="49.24589" lon="-0.21383">
        <ele>43.6</ele>
        <time>2023-07-05T15:04:50Z</time>
      </trkpt>
      <trkpt lat="49.24595" lon="-0.21372">
        <ele>43.4</ele>
        <time>2023-07-05T15:04:51Z</time>
      </trkpt>
      <trkpt lat="49.24601" lon="-0.2136">
        <ele>43.3</ele>
        <time>2023-07-05T15:04:52Z</time>
      </trkpt>
      <trkpt lat="49.24606" lon="-0.21348">
        <ele>43.1</ele>
        <time>2023-07-05T15:04:53Z</time>
      </trkpt>
      <trkpt lat="49.24612" lon="-0.21336">
        <ele>42.9</ele>
        <time>2023-07-05T15:04:54Z</time>
      </trkpt>
      <trkpt lat="49.24618" lon="-0.21325">
        <ele>42.8</ele>
        <time>2023-07-05T15:04:55Z</time>
      </trkpt>
      <trkpt lat="49.24624" lon="-0.21313">
        <ele>42.7</ele>
        <time>2023-07-05T15:04:56Z</time>
      </trkpt>
      <trkpt lat="49.2463" lon="-0.21302">
        <ele>42.5</ele>
        <time>2023-07-05T15:04:57Z</time>
      </trkpt>
      <trkpt lat="49.24636" lon="-0.21291">
        <ele>42.4</ele>
        <time>2023-07-05T15:04:58Z</time>
      </trkpt>
      <trkpt lat="49.24643" lon="-0.2128">
        <ele>42.3</ele>
        <time>2023-07-05T15:04:59Z</time>
      </trkpt>
      <trkpt lat="49.2465" lon="-0.2127">
        <ele>42.2</ele>
        <time>2023-07-05T15:05:00Z</time>
      </trkpt>
      <trkpt lat="49.24658" lon="-0.21261">
        <ele>42.2</ele>
        <time>2023-07-05T15:05:01Z</time>
      </trkpt>
      <trkpt lat="49.24667" lon="-0.21253">
        <ele>42.1</ele>
        <time>2023-07-05T15:05:02Z</time>
      </trkpt>
      <trkpt lat="49.24676" lon="-0.21246">
        <ele>41.9</ele>
        <time>2023-07-05T15:05:03Z</time>
      </trkpt>
      <trkpt lat="49.24685" lon="-0.21239">
        <ele>41.7</ele>
        <time>2023-07-05T15:05:04Z</time>
      </trkpt>
      <trkpt lat="49.24695" lon="-0.21232">
        <ele>41.4</ele>
        <time>2023-07-05T15:05:05Z</time>
      </trkpt>
      <trkpt lat="49.24705" lon="-0.21226">
        <ele>41.1</ele>
        <time>2023-07-05T15:05:06Z</time>
      </trkpt>
      <trkpt lat="49.24716" lon="-0.21219">
        <ele>40.7</ele>
        <time>2023-07-05T15:05:07Z</time>
      </trkpt>
      <trkpt lat="49.24726" lon="-0.21212">
        <ele>40.4</ele>
        <time>2023-07-05T15:05:08Z</time>
      </trkpt>
      <trkpt lat="49.24735" lon="-0.21205">
        <ele>40.1</ele>
        <time>2023-07-05T15:05:09Z</time>
      </trkpt>
      <trkpt lat="49.24745" lon="-0.21197">
        <ele>39.7</ele>
        <time>2023-07-05T15:05:10Z</time>
      </trkpt>
      <trkpt lat="49.24755" lon="-0.2119">
        <ele>39.3</ele>
        <time>2023-07-05T15:05:11Z</time>
      </trkpt>
      <trkpt lat="49.24765" lon="-0.21183">
        <ele>39</ele>
        <time>2023-07-05T15:05:12Z</time>
      </trkpt>
      <trkpt lat="49.24776" lon="-0.21177">
        <ele>38.8</ele>
        <time>2023-07-05T15:05:13Z</time>
      </trkpt>
      <trkpt lat="49.24786" lon="-0.2117">
        <ele>38.5</ele>
        <time>2023-07-05T15:05:14Z</time>
      </trkpt>
      <trkpt lat="49.24796" lon="-0.21164">
        <ele>38.3</ele>
        <time>2023-07-05T15:05:15Z</time>
      </trkpt>
      <trkpt lat="49.24806" lon="-0.21157">
        <ele>38.2</ele>
        <time>2023-07-05T15:05:16Z</time>
      </trkpt>
      <trkpt lat="49.24816" lon="-0.2115">
        <ele>38.1</ele>
        <time>2023-07-05T15:05:17Z</time>
      </trkpt>
      <trkpt lat="49.24825" lon="-0.21144">
        <ele>38</ele>
        <time>2023-07-05T15:05:18Z</time>
      </trkpt>
      <trkpt lat="49.24835" lon="-0.21137">
        <ele>37.9</ele>
        <time>2023-07-05T15:05:19Z</time>
      </trkpt>
      <trkpt lat="49.24844" lon="-0.21132">
        <ele>37.8</ele>
        <time>2023-07-05T15:05:20Z</time>
      </trkpt>
      <trkpt lat="49.24853" lon="-0.21126">
        <ele>37.7</ele>
        <time>2023-07-05T15:05:21Z</time>
      </trkpt>
      <trkpt lat="49.24862" lon="-0.21121">
        <ele>37.6</ele>
        <time>2023-07-05T15:05:22Z</time>
      </trkpt>
      <trkpt lat="49.24871" lon="-0.21116">
        <ele>37.6</ele>
        <time>2023-07-05T15:05:23Z</time>
      </trkpt>
      <trkpt lat="49.24878" lon="-0.21112">
        <ele>37.6</ele>
        <time>2023-07-05T15:05:24Z</time>
      </trkpt>
      <trkpt lat="49.24886" lon="-0.21108">
        <ele>37.6</ele>
        <time>2023-07-05T15:05:25Z</time>
      </trkpt>
      <trkpt lat="49.24893" lon="-0.21104">
        <ele>37.6</ele>
        <time>2023-07-05T15:05:26Z</time>
      </trkpt>
      <trkpt lat="49.249" lon="-0.211">
        <ele>37.5</ele>
        <time>2023-07-05T15:05:27Z</time>
      </trkpt>
      <trkpt lat="49.24908" lon="-0.21096">
        <ele>37.5</ele>
        <time>2023-07-05T15:05:28Z</time>
      </trkpt>
      <trkpt lat="49.24915" lon="-0.21092">
        <ele>37.5</ele>
        <time>2023-07-05T15:05:29Z</time>
      </trkpt>
      <trkpt lat="49.24923" lon="-0.21088">
        <ele>37.4</ele>
        <time>2023-07-05T15:05:30Z</time>
      </trkpt>
      <trkpt lat="49.24931" lon="-0.21085">
        <ele>37.4</ele>
        <time>2023-07-05T15:05:31Z</time>
      </trkpt>
      <trkpt lat="49.24938" lon="-0.2108">
        <ele>37.4</ele>
        <time>2023-07-05T15:05:32Z</time>
      </trkpt>
      <trkpt lat="49.24946" lon="-0.21076">
        <ele>37.3</ele>
        <time>2023-07-05T15:05:33Z</time>
      </trkpt>
      <trkpt lat="49.24954" lon="-0.21071">
        <ele>37.3</ele>
        <time>2023-07-05T15:05:34Z</time>
      </trkpt>
      <trkpt lat="49.24962" lon="-0.21065">
        <ele>37.2</ele>
        <time>2023-07-05T15:05:35Z</time>
      </trkpt>
      <trkpt lat="49.24969" lon="-0.21058">
        <ele>37.1</ele>
        <time>2023-07-05T15:05:36Z</time>
      </trkpt>
      <trkpt lat="49.24977" lon="-0.21052">
        <ele>37.1</ele>
        <time>2023-07-05T15:05:37Z</time>
      </trkpt>
      <trkpt lat="49.24984" lon="-0.21045">
        <ele>37.1</ele>
        <time>2023-07-05T15:05:38Z</time>
      </trkpt>
      <trkpt lat="49.24992" lon="-0.21038">
        <ele>37</ele>
        <time>2023-07-05T15:05:39Z</time>
      </trkpt>
      <trkpt lat="49.24999" lon="-0.2103">
        <ele>37</ele>
        <time>2023-07-05T15:05:40Z</time>
      </trkpt>
      <trkpt lat="49.25007" lon="-0.21023">
        <ele>37</ele>
        <time>2023-07-05T15:05:41Z</time>
      </trkpt>
      <trkpt lat="49.25014" lon="-0.21016">
        <ele>36.9</ele>
        <time>2023-07-05T15:05:42Z</time>
      </trkpt>
      <trkpt lat="49.25021" lon="-0.21009">
        <ele>36.8</ele>
        <time>2023-07-05T15:05:43Z</time>
      </trkpt>
      <trkpt lat="49.25028" lon="-0.21002">
        <ele>36.7</ele>
        <time>2023-07-05T15:05:44Z</time>
      </trkpt>
      <trkpt lat="49.25035" lon="-0.20995">
        <ele>36.6</ele>
        <time>2023-07-05T15:05:45Z</time>
      </trkpt>
      <trkpt lat="49.25043" lon="-0.20988">
        <ele>36.6</ele>
        <time>2023-07-05T15:05:46Z</time>
      </trkpt>
      <trkpt lat="49.2505" lon="-0.20982">
        <ele>36.5</ele>
        <time>2023-07-05T15:05:47Z</time>
      </trkpt>
      <trkpt lat="49.25058" lon="-0.20976">
        <ele>36.4</ele>
        <time>2023-07-05T15:05:48Z</time>
      </trkpt>
      <trkpt lat="49.25066" lon="-0.2097">
        <ele>36.3</ele>
        <time>2023-07-05T15:05:49Z</time>
      </trkpt>
      <trkpt lat="49.25074" lon="-0.20964">
        <ele>36.2</ele>
        <time>2023-07-05T15:05:50Z</time>
      </trkpt>
      <trkpt lat="49.25082" lon="-0.20957">
        <ele>36.1</ele>
        <time>2023-07-05T15:05:51Z</time>
      </trkpt>
      <trkpt lat="49.2509" lon="-0.2095">
        <ele>36</ele>
        <time>2023-07-05T15:05:52Z</time>
      </trkpt>
      <trkpt lat="49.25098" lon="-0.20944">
        <ele>35.9</ele>
        <time>2023-07-05T15:05:53Z</time>
      </trkpt>
      <trkpt lat="49.25106" lon="-0.20938">
        <ele>35.8</ele>
        <time>2023-07-05T15:05:54Z</time>
      </trkpt>
      <trkpt lat="49.25114" lon="-0.20932">
        <ele>35.6</ele>
        <time>2023-07-05T15:05:55Z</time>
      </trkpt>
      <trkpt lat="49.25123" lon="-0.20926">
        <ele>35.5</ele>
        <time>2023-07-05T15:05:56Z</time>
      </trkpt>
      <trkpt lat="49.25132" lon="-0.20921">
        <ele>35.4</ele>
        <time>2023-07-05T15:05:57Z</time>
      </trkpt>
      <trkpt lat="49.2514" lon="-0.20915">
        <ele>35.3</ele>
        <time>2023-07-05T15:05:58Z</time>
      </trkpt>
      <trkpt lat="49.25149" lon="-0.20909">
        <ele>35.2</ele>
        <time>2023-07-05T15:05:59Z</time>
      </trkpt>
      <trkpt lat="49.25158" lon="-0.20904">
        <ele>35</ele>
        <time>2023-07-05T15:06:00Z</time>
      </trkpt>
      <trkpt lat="49.25168" lon="-0.20898">
        <ele>34.9</ele>
        <time>2023-07-05T15:06:01Z</time>
      </trkpt>
      <trkpt lat="49.25177" lon="-0.20893">
        <ele>34.7</ele>
        <time>2023-07-05T15:06:02Z</time>
      </trkpt>
      <trkpt lat="49.25187" lon="-0.20887">
        <ele>34.6</ele>
        <time>2023-07-05T15:06:03Z</time>
      </trkpt>
      <trkpt lat="49.25196" lon="-0.20881">
        <ele>34.5</ele>
        <time>2023-07-05T15:06:04Z</time>
      </trkpt>
      <trkpt lat="49.25205" lon="-0.20876">
        <ele>34.4</ele>
        <time>2023-07-05T15:06:05Z</time>
      </trkpt>
      <trkpt lat="49.25214" lon="-0.20871">
        <ele>34.4</ele>
        <time>2023-07-05T15:06:06Z</time>
      </trkpt>
      <trkpt lat="49.25223" lon="-0.20867">
        <ele>34.2</ele>
        <time>2023-07-05T15:06:07Z</time>
      </trkpt>
      <trkpt lat="49.25232" lon="-0.20862">
        <ele>34.1</ele>
        <time>2023-07-05T15:06:08Z</time>
      </trkpt>
      <trkpt lat="49.25241" lon="-0.20857">
        <ele>34</ele>
        <time>2023-07-05T15:06:09Z</time>
      </trkpt>
      <trkpt lat="49.25249" lon="-0.20853">
        <ele>33.9</ele>
        <time>2023-07-05T15:06:10Z</time>
      </trkpt>
      <trkpt lat="49.25258" lon="-0.20848">
        <ele>33.8</ele>
        <time>2023-07-05T15:06:11Z</time>
      </trkpt>
      <trkpt lat="49.25266" lon="-0.20844">
        <ele>33.7</ele>
        <time>2023-07-05T15:06:12Z</time>
      </trkpt>
      <trkpt lat="49.25275" lon="-0.20839">
        <ele>33.6</ele>
        <time>2023-07-05T15:06:13Z</time>
      </trkpt>
      <trkpt lat="49.25284" lon="-0.20835">
        <ele>33.5</ele>
        <time>2023-07-05T15:06:14Z</time>
      </trkpt>
      <trkpt lat="49.25293" lon="-0.2083">
        <ele>33.4</ele>
        <time>2023-07-05T15:06:15Z</time>
      </trkpt>
      <trkpt lat="49.25302" lon="-0.20825">
        <ele>33.3</ele>
        <time>2023-07-05T15:06:16Z</time>
      </trkpt>
      <trkpt lat="49.25311" lon="-0.20821">
        <ele>33.2</ele>
        <time>2023-07-05T15:06:17Z</time>
      </trkpt>
      <trkpt lat="49.2532" lon="-0.20816">
        <ele>33.2</ele>
        <time>2023-07-05T15:06:18Z</time>
      </trkpt>
      <trkpt lat="49.25329" lon="-0.20812">
        <ele>33.2</ele>
        <time>2023-07-05T15:06:19Z</time>
      </trkpt>
      <trkpt lat="49.25337" lon="-0.20808">
        <ele>33.1</ele>
        <time>2023-07-05T15:06:20Z</time>
      </trkpt>
      <trkpt lat="49.25346" lon="-0.20803">
        <ele>33.1</ele>
        <time>2023-07-05T15:06:21Z</time>
      </trkpt>
      <trkpt lat="49.25355" lon="-0.20798">
        <ele>33</ele>
        <time>2023-07-05T15:06:22Z</time>
      </trkpt>
      <trkpt lat="49.25364" lon="-0.20794">
        <ele>32.9</ele>
        <time>2023-07-05T15:06:23Z</time>
      </trkpt>
      <trkpt lat="49.25373" lon="-0.20789">
        <ele>32.8</ele>
        <time>2023-07-05T15:06:24Z</time>
      </trkpt>
      <trkpt lat="49.25381" lon="-0.20784">
        <ele>32.8</ele>
        <time>2023-07-05T15:06:25Z</time>
      </trkpt>
      <trkpt lat="49.25389" lon="-0.20778">
        <ele>32.7</ele>
        <time>2023-07-05T15:06:26Z</time>
      </trkpt>
      <trkpt lat="49.25397" lon="-0.20772">
        <ele>32.6</ele>
        <time>2023-07-05T15:06:27Z</time>
      </trkpt>
      <trkpt lat="49.25406" lon="-0.20767">
        <ele>32.5</ele>
        <time>2023-07-05T15:06:28Z</time>
      </trkpt>
      <trkpt lat="49.25414" lon="-0.20761">
        <ele>32.4</ele>
        <time>2023-07-05T15:06:29Z</time>
      </trkpt>
      <trkpt lat="49.25422" lon="-0.20754">
        <ele>32.3</ele>
        <time>2023-07-05T15:06:30Z</time>
      </trkpt>
      <trkpt lat="49.2543" lon="-0.20748">
        <ele>32.2</ele>
        <time>2023-07-05T15:06:31Z</time>
      </trkpt>
      <trkpt lat="49.25438" lon="-0.20741">
        <ele>32.1</ele>
        <time>2023-07-05T15:06:32Z</time>
      </trkpt>
      <trkpt lat="49.25446" lon="-0.20735">
        <ele>32</ele>
        <time>2023-07-05T15:06:33Z</time>
      </trkpt>
      <trkpt lat="49.25455" lon="-0.20728">
        <ele>31.9</ele>
        <time>2023-07-05T15:06:34Z</time>
      </trkpt>
      <trkpt lat="49.25463" lon="-0.20722">
        <ele>31.8</ele>
        <time>2023-07-05T15:06:35Z</time>
      </trkpt>
      <trkpt lat="49.25472" lon="-0.20717">
        <ele>31.7</ele>
        <time>2023-07-05T15:06:36Z</time>
      </trkpt>
      <trkpt lat="49.2548" lon="-0.2071">
        <ele>31.5</ele>
        <time>2023-07-05T15:06:37Z</time>
      </trkpt>
      <trkpt lat="49.25488" lon="-0.20704">
        <ele>31.4</ele>
        <time>2023-07-05T15:06:38Z</time>
      </trkpt>
      <trkpt lat="49.25497" lon="-0.20697">
        <ele>31.3</ele>
        <time>2023-07-05T15:06:39Z</time>
      </trkpt>
      <trkpt lat="49.25505" lon="-0.2069">
        <ele>31.2</ele>
        <time>2023-07-05T15:06:40Z</time>
      </trkpt>
      <trkpt lat="49.25513" lon="-0.20683">
        <ele>31.1</ele>
        <time>2023-07-05T15:06:41Z</time>
      </trkpt>
      <trkpt lat="49.25521" lon="-0.20674">
        <ele>31</ele>
        <time>2023-07-05T15:06:42Z</time>
      </trkpt>
      <trkpt lat="49.25528" lon="-0.20665">
        <ele>30.9</ele>
        <time>2023-07-05T15:06:43Z</time>
      </trkpt>
      <trkpt lat="49.25535" lon="-0.20656">
        <ele>30.7</ele>
        <time>2023-07-05T15:06:44Z</time>
      </trkpt>
      <trkpt lat="49.25542" lon="-0.20646">
        <ele>30.5</ele>
        <time>2023-07-05T15:06:45Z</time>
      </trkpt>
      <trkpt lat="49.25549" lon="-0.20636">
        <ele>30.4</ele>
        <time>2023-07-05T15:06:46Z</time>
      </trkpt>
      <trkpt lat="49.25557" lon="-0.20626">
        <ele>30.3</ele>
        <time>2023-07-05T15:06:47Z</time>
      </trkpt>
      <trkpt lat="49.25564" lon="-0.20617">
        <ele>30.1</ele>
        <time>2023-07-05T15:06:48Z</time>
      </trkpt>
      <trkpt lat="49.2557" lon="-0.20607">
        <ele>30</ele>
        <time>2023-07-05T15:06:49Z</time>
      </trkpt>
      <trkpt lat="49.25577" lon="-0.20598">
        <ele>29.9</ele>
        <time>2023-07-05T15:06:50Z</time>
      </trkpt>
      <trkpt lat="49.25585" lon="-0.20589">
        <ele>29.7</ele>
        <time>2023-07-05T15:06:51Z</time>
      </trkpt>
      <trkpt lat="49.25592" lon="-0.2058">
        <ele>29.6</ele>
        <time>2023-07-05T15:06:52Z</time>
      </trkpt>
      <trkpt lat="49.256" lon="-0.20572">
        <ele>29.4</ele>
        <time>2023-07-05T15:06:53Z</time>
      </trkpt>
      <trkpt lat="49.25608" lon="-0.20565">
        <ele>29.2</ele>
        <time>2023-07-05T15:06:54Z</time>
      </trkpt>
      <trkpt lat="49.25616" lon="-0.20558">
        <ele>28.9</ele>
        <time>2023-07-05T15:06:55Z</time>
      </trkpt>
      <trkpt lat="49.25624" lon="-0.20551">
        <ele>28.7</ele>
        <time>2023-07-05T15:06:56Z</time>
      </trkpt>
      <trkpt lat="49.25632" lon="-0.20544">
        <ele>28.5</ele>
        <time>2023-07-05T15:06:57Z</time>
      </trkpt>
      <trkpt lat="49.2564" lon="-0.20536">
        <ele>28.3</ele>
        <time>2023-07-05T15:06:58Z</time>
      </trkpt>
      <trkpt lat="49.25648" lon="-0.20528">
        <ele>28.1</ele>
        <time>2023-07-05T15:06:59Z</time>
      </trkpt>
      <trkpt lat="49.25657" lon="-0.2052">
        <ele>27.9</ele>
        <time>2023-07-05T15:07:00Z</time>
      </trkpt>
      <trkpt lat="49.25664" lon="-0.20512">
        <ele>27.7</ele>
        <time>2023-07-05T15:07:01Z</time>
      </trkpt>
      <trkpt lat="49.25672" lon="-0.20503">
        <ele>27.4</ele>
        <time>2023-07-05T15:07:02Z</time>
      </trkpt>
      <trkpt lat="49.2568" lon="-0.20494">
        <ele>27.2</ele>
        <time>2023-07-05T15:07:03Z</time>
      </trkpt>
      <trkpt lat="49.25688" lon="-0.20484">
        <ele>27</ele>
        <time>2023-07-05T15:07:04Z</time>
      </trkpt>
      <trkpt lat="49.25696" lon="-0.20474">
        <ele>26.8</ele>
        <time>2023-07-05T15:07:05Z</time>
      </trkpt>
      <trkpt lat="49.25704" lon="-0.20464">
        <ele>26.6</ele>
        <time>2023-07-05T15:07:06Z</time>
      </trkpt>
      <trkpt lat="49.25711" lon="-0.20453">
        <ele>26.3</ele>
        <time>2023-07-05T15:07:07Z</time>
      </trkpt>
      <trkpt lat="49.25719" lon="-0.20443">
        <ele>26.1</ele>
        <time>2023-07-05T15:07:08Z</time>
      </trkpt>
      <trkpt lat="49.25727" lon="-0.20433">
        <ele>25.9</ele>
        <time>2023-07-05T15:07:09Z</time>
      </trkpt>
      <trkpt lat="49.25735" lon="-0.20424">
        <ele>25.7</ele>
        <time>2023-07-05T15:07:10Z</time>
      </trkpt>
      <trkpt lat="49.25743" lon="-0.20414">
        <ele>25.5</ele>
        <time>2023-07-05T15:07:11Z</time>
      </trkpt>
      <trkpt lat="49.25751" lon="-0.20404">
        <ele>25.3</ele>
        <time>2023-07-05T15:07:12Z</time>
      </trkpt>
      <trkpt lat="49.25759" lon="-0.20395">
        <ele>25.1</ele>
        <time>2023-07-05T15:07:13Z</time>
      </trkpt>
      <trkpt lat="49.25767" lon="-0.20385">
        <ele>24.9</ele>
        <time>2023-07-05T15:07:14Z</time>
      </trkpt>
      <trkpt lat="49.25775" lon="-0.20375">
        <ele>24.7</ele>
        <time>2023-07-05T15:07:15Z</time>
      </trkpt>
      <trkpt lat="49.25783" lon="-0.20366">
        <ele>24.5</ele>
        <time>2023-07-05T15:07:16Z</time>
      </trkpt>
      <trkpt lat="49.25791" lon="-0.20356">
        <ele>24.4</ele>
        <time>2023-07-05T15:07:17Z</time>
      </trkpt>
      <trkpt lat="49.25799" lon="-0.20346">
        <ele>24.3</ele>
        <time>2023-07-05T15:07:18Z</time>
      </trkpt>
      <trkpt lat="49.25806" lon="-0.20336">
        <ele>24.1</ele>
        <time>2023-07-05T15:07:19Z</time>
      </trkpt>
      <trkpt lat="49.25814" lon="-0.20326">
        <ele>24</ele>
        <time>2023-07-05T15:07:20Z</time>
      </trkpt>
      <trkpt lat="49.25822" lon="-0.20317">
        <ele>23.8</ele>
        <time>2023-07-05T15:07:21Z</time>
      </trkpt>
      <trkpt lat="49.2583" lon="-0.20307">
        <ele>23.7</ele>
        <time>2023-07-05T15:07:22Z</time>
      </trkpt>
      <trkpt lat="49.25838" lon="-0.20298">
        <ele>23.5</ele>
        <time>2023-07-05T15:07:23Z</time>
      </trkpt>
      <trkpt lat="49.25846" lon="-0.20289">
        <ele>23.3</ele>
        <time>2023-07-05T15:07:24Z</time>
      </trkpt>
      <trkpt lat="49.25854" lon="-0.2028">
        <ele>23.2</ele>
        <time>2023-07-05T15:07:25Z</time>
      </trkpt>
      <trkpt lat="49.25862" lon="-0.2027">
        <ele>23</ele>
        <time>2023-07-05T15:07:26Z</time>
      </trkpt>
      <trkpt lat="49.2587" lon="-0.2026">
        <ele>22.8</ele>
        <time>2023-07-05T15:07:27Z</time>
      </trkpt>
      <trkpt lat="49.25878" lon="-0.2025">
        <ele>22.6</ele>
        <time>2023-07-05T15:07:28Z</time>
      </trkpt>
      <trkpt lat="49.25886" lon="-0.20241">
        <ele>22.4</ele>
        <time>2023-07-05T15:07:29Z</time>
      </trkpt>
      <trkpt lat="49.25894" lon="-0.20231">
        <ele>22.1</ele>
        <time>2023-07-05T15:07:30Z</time>
      </trkpt>
      <trkpt lat="49.25902" lon="-0.20222">
        <ele>21.9</ele>
        <time>2023-07-05T15:07:31Z</time>
      </trkpt>
      <trkpt lat="49.2591" lon="-0.20212">
        <ele>21.7</ele>
        <time>2023-07-05T15:07:32Z</time>
      </trkpt>
      <trkpt lat="49.25918" lon="-0.20202">
        <ele>21.5</ele>
        <time>2023-07-05T15:07:33Z</time>
      </trkpt>
      <trkpt lat="49.25926" lon="-0.20192">
        <ele>21.3</ele>
        <time>2023-07-05T15:07:34Z</time>
      </trkpt>
      <trkpt lat="49.25934" lon="-0.20182">
        <ele>21.1</ele>
        <time>2023-07-05T15:07:35Z</time>
      </trkpt>
      <trkpt lat="49.25942" lon="-0.20171">
        <ele>20.9</ele>
        <time>2023-07-05T15:07:36Z</time>
      </trkpt>
      <trkpt lat="49.2595" lon="-0.2016">
        <ele>20.6</ele>
        <time>2023-07-05T15:07:37Z</time>
      </trkpt>
      <trkpt lat="49.25958" lon="-0.2015">
        <ele>20.4</ele>
        <time>2023-07-05T15:07:38Z</time>
      </trkpt>
      <trkpt lat="49.25966" lon="-0.2014">
        <ele>20.1</ele>
        <time>2023-07-05T15:07:39Z</time>
      </trkpt>
      <trkpt lat="49.25973" lon="-0.20129">
        <ele>19.9</ele>
        <time>2023-07-05T15:07:40Z</time>
      </trkpt>
      <trkpt lat="49.25981" lon="-0.20119">
        <ele>19.6</ele>
        <time>2023-07-05T15:07:41Z</time>
      </trkpt>
      <trkpt lat="49.25989" lon="-0.20109">
        <ele>19.4</ele>
        <time>2023-07-05T15:07:42Z</time>
      </trkpt>
      <trkpt lat="49.25996" lon="-0.20099">
        <ele>19.2</ele>
        <time>2023-07-05T15:07:43Z</time>
      </trkpt>
      <trkpt lat="49.26004" lon="-0.20089">
        <ele>18.9</ele>
        <time>2023-07-05T15:07:44Z</time>
      </trkpt>
      <trkpt lat="49.26011" lon="-0.20079">
        <ele>18.6</ele>
        <time>2023-07-05T15:07:45Z</time>
      </trkpt>
      <trkpt lat="49.26019" lon="-0.20069">
        <ele>18.4</ele>
        <time>2023-07-05T15:07:46Z</time>
      </trkpt>
      <trkpt lat="49.26026" lon="-0.20058">
        <ele>18.2</ele>
        <time>2023-07-05T15:07:47Z</time>
      </trkpt>
      <trkpt lat="49.26032" lon="-0.20048">
        <ele>17.9</ele>
        <time>2023-07-05T15:07:48Z</time>
      </trkpt>
      <trkpt lat="49.26038" lon="-0.20037">
        <ele>17.8</ele>
        <time>2023-07-05T15:07:49Z</time>
      </trkpt>
      <trkpt lat="49.26044" lon="-0.20026">
        <ele>17.6</ele>
        <time>2023-07-05T15:07:50Z</time>
      </trkpt>
      <trkpt lat="49.26051" lon="-0.20015">
        <ele>17.4</ele>
        <time>2023-07-05T15:07:51Z</time>
      </trkpt>
      <trkpt lat="49.26057" lon="-0.20004">
        <ele>17.3</ele>
        <time>2023-07-05T15:07:52Z</time>
      </trkpt>
      <trkpt lat="49.26064" lon="-0.19993">
        <ele>17.2</ele>
        <time>2023-07-05T15:07:53Z</time>
      </trkpt>
      <trkpt lat="49.2607" lon="-0.19982">
        <ele>17.1</ele>
        <time>2023-07-05T15:07:54Z</time>
      </trkpt>
      <trkpt lat="49.26077" lon="-0.1997">
        <ele>17.1</ele>
        <time>2023-07-05T15:07:55Z</time>
      </trkpt>
      <trkpt lat="49.26084" lon="-0.19959">
        <ele>17.1</ele>
        <time>2023-07-05T15:07:56Z</time>
      </trkpt>
      <trkpt lat="49.26091" lon="-0.19948">
        <ele>17.2</ele>
        <time>2023-07-05T15:07:57Z</time>
      </trkpt>
      <trkpt lat="49.26097" lon="-0.19937">
        <ele>17.3</ele>
        <time>2023-07-05T15:07:58Z</time>
      </trkpt>
      <trkpt lat="49.26104" lon="-0.19926">
        <ele>17.4</ele>
        <time>2023-07-05T15:07:59Z</time>
      </trkpt>
      <trkpt lat="49.26111" lon="-0.19915">
        <ele>17.6</ele>
        <time>2023-07-05T15:08:00Z</time>
      </trkpt>
      <trkpt lat="49.26117" lon="-0.19905">
        <ele>17.7</ele>
        <time>2023-07-05T15:08:01Z</time>
      </trkpt>
      <trkpt lat="49.26124" lon="-0.19895">
        <ele>17.9</ele>
        <time>2023-07-05T15:08:02Z</time>
      </trkpt>
      <trkpt lat="49.2613" lon="-0.19884">
        <ele>18.1</ele>
        <time>2023-07-05T15:08:03Z</time>
      </trkpt>
      <trkpt lat="49.26136" lon="-0.19875">
        <ele>18.3</ele>
        <time>2023-07-05T15:08:04Z</time>
      </trkpt>
      <trkpt lat="49.26142" lon="-0.19865">
        <ele>18.4</ele>
        <time>2023-07-05T15:08:05Z</time>
      </trkpt>
      <trkpt lat="49.26148" lon="-0.19856">
        <ele>18.6</ele>
        <time>2023-07-05T15:08:06Z</time>
      </trkpt>
      <trkpt lat="49.26154" lon="-0.19847">
        <ele>18.7</ele>
        <time>2023-07-05T15:08:07Z</time>
      </trkpt>
      <trkpt lat="49.26159" lon="-0.19838">
        <ele>18.8</ele>
        <time>2023-07-05T15:08:08Z</time>
      </trkpt>
      <trkpt lat="49.26165" lon="-0.1983">
        <ele>18.9</ele>
        <time>2023-07-05T15:08:09Z</time>
      </trkpt>
      <trkpt lat="49.2617" lon="-0.19821">
        <ele>19</ele>
        <time>2023-07-05T15:08:10Z</time>
      </trkpt>
      <trkpt lat="49.26176" lon="-0.19814">
        <ele>19.1</ele>
        <time>2023-07-05T15:08:11Z</time>
      </trkpt>
      <trkpt lat="49.26183" lon="-0.19806">
        <ele>19.1</ele>
        <time>2023-07-05T15:08:12Z</time>
      </trkpt>
      <trkpt lat="49.26189" lon="-0.19799">
        <ele>19.2</ele>
        <time>2023-07-05T15:08:13Z</time>
      </trkpt>
      <trkpt lat="49.26195" lon="-0.19791">
        <ele>19.3</ele>
        <time>2023-07-05T15:08:14Z</time>
      </trkpt>
      <trkpt lat="49.26201" lon="-0.19784">
        <ele>19.3</ele>
        <time>2023-07-05T15:08:15Z</time>
      </trkpt>
      <trkpt lat="49.26207" lon="-0.19777">
        <ele>19.4</ele>
        <time>2023-07-05T15:08:16Z</time>
      </trkpt>
      <trkpt lat="49.26214" lon="-0.19771">
        <ele>19.4</ele>
        <time>2023-07-05T15:08:17Z</time>
      </trkpt>
      <trkpt lat="49.26221" lon="-0.19764">
        <ele>19.4</ele>
        <time>2023-07-05T15:08:18Z</time>
      </trkpt>
      <trkpt lat="49.26228" lon="-0.19758">
        <ele>19.3</ele>
        <time>2023-07-05T15:08:19Z</time>
      </trkpt>
      <trkpt lat="49.26235" lon="-0.19752">
        <ele>19.2</ele>
        <time>2023-07-05T15:08:20Z</time>
      </trkpt>
      <trkpt lat="49.26242" lon="-0.19746">
        <ele>19.1</ele>
        <time>2023-07-05T15:08:21Z</time>
      </trkpt>
      <trkpt lat="49.26249" lon="-0.19739">
        <ele>19</ele>
        <time>2023-07-05T15:08:22Z</time>
      </trkpt>
      <trkpt lat="49.26256" lon="-0.19733">
        <ele>18.8</ele>
        <time>2023-07-05T15:08:23Z</time>
      </trkpt>
      <trkpt lat="49.26263" lon="-0.19726">
        <ele>18.7</ele>
        <time>2023-07-05T15:08:24Z</time>
      </trkpt>
      <trkpt lat="49.2627" lon="-0.1972">
        <ele>18.5</ele>
        <time>2023-07-05T15:08:25Z</time>
      </trkpt>
      <trkpt lat="49.26277" lon="-0.19714">
        <ele>18.4</ele>
        <time>2023-07-05T15:08:26Z</time>
      </trkpt>
      <trkpt lat="49.26285" lon="-0.19708">
        <ele>18.2</ele>
        <time>2023-07-05T15:08:27Z</time>
      </trkpt>
      <trkpt lat="49.26293" lon="-0.19702">
        <ele>18</ele>
        <time>2023-07-05T15:08:28Z</time>
      </trkpt>
      <trkpt lat="49.26301" lon="-0.19697">
        <ele>17.9</ele>
        <time>2023-07-05T15:08:29Z</time>
      </trkpt>
      <trkpt lat="49.2631" lon="-0.19693">
        <ele>17.7</ele>
        <time>2023-07-05T15:08:30Z</time>
      </trkpt>
      <trkpt lat="49.26319" lon="-0.19688">
        <ele>17.5</ele>
        <time>2023-07-05T15:08:31Z</time>
      </trkpt>
      <trkpt lat="49.26328" lon="-0.19683">
        <ele>17.3</ele>
        <time>2023-07-05T15:08:32Z</time>
      </trkpt>
      <trkpt lat="49.26337" lon="-0.19678">
        <ele>17.1</ele>
        <time>2023-07-05T15:08:33Z</time>
      </trkpt>
      <trkpt lat="49.26346" lon="-0.19674">
        <ele>16.9</ele>
        <time>2023-07-05T15:08:34Z</time>
      </trkpt>
      <trkpt lat="49.26355" lon="-0.19669">
        <ele>16.8</ele>
        <time>2023-07-05T15:08:35Z</time>
      </trkpt>
      <trkpt lat="49.26365" lon="-0.19665">
        <ele>16.6</ele>
        <time>2023-07-05T15:08:36Z</time>
      </trkpt>
      <trkpt lat="49.26374" lon="-0.19661">
        <ele>16.5</ele>
        <time>2023-07-05T15:08:37Z</time>
      </trkpt>
      <trkpt lat="49.26383" lon="-0.19656">
        <ele>16.4</ele>
        <time>2023-07-05T15:08:38Z</time>
      </trkpt>
      <trkpt lat="49.26392" lon="-0.19652">
        <ele>16.2</ele>
        <time>2023-07-05T15:08:39Z</time>
      </trkpt>
      <trkpt lat="49.26401" lon="-0.19647">
        <ele>16</ele>
        <time>2023-07-05T15:08:40Z</time>
      </trkpt>
      <trkpt lat="49.2641" lon="-0.19642">
        <ele>15.9</ele>
        <time>2023-07-05T15:08:41Z</time>
      </trkpt>
      <trkpt lat="49.2642" lon="-0.19638">
        <ele>15.8</ele>
        <time>2023-07-05T15:08:42Z</time>
      </trkpt>
      <trkpt lat="49.26429" lon="-0.19633">
        <ele>15.6</ele>
        <time>2023-07-05T15:08:43Z</time>
      </trkpt>
      <trkpt lat="49.26438" lon="-0.19628">
        <ele>15.5</ele>
        <time>2023-07-05T15:08:44Z</time>
      </trkpt>
      <trkpt lat="49.26447" lon="-0.19623">
        <ele>15.4</ele>
        <time>2023-07-05T15:08:45Z</time>
      </trkpt>
      <trkpt lat="49.26457" lon="-0.19618">
        <ele>15.3</ele>
        <time>2023-07-05T15:08:46Z</time>
      </trkpt>
      <trkpt lat="49.26466" lon="-0.19612">
        <ele>15.2</ele>
        <time>2023-07-05T15:08:47Z</time>
      </trkpt>
      <trkpt lat="49.26475" lon="-0.19607">
        <ele>15.1</ele>
        <time>2023-07-05T15:08:48Z</time>
      </trkpt>
      <trkpt lat="49.26485" lon="-0.19602">
        <ele>15</ele>
        <time>2023-07-05T15:08:49Z</time>
      </trkpt>
      <trkpt lat="49.26494" lon="-0.19597">
        <ele>14.9</ele>
        <time>2023-07-05T15:08:50Z</time>
      </trkpt>
      <trkpt lat="49.26503" lon="-0.19591">
        <ele>14.8</ele>
        <time>2023-07-05T15:08:51Z</time>
      </trkpt>
      <trkpt lat="49.26512" lon="-0.19586">
        <ele>14.8</ele>
        <time>2023-07-05T15:08:52Z</time>
      </trkpt>
      <trkpt lat="49.26521" lon="-0.19579">
        <ele>14.7</ele>
        <time>2023-07-05T15:08:53Z</time>
      </trkpt>
      <trkpt lat="49.2653" lon="-0.19572">
        <ele>14.6</ele>
        <time>2023-07-05T15:08:54Z</time>
      </trkpt>
      <trkpt lat="49.26538" lon="-0.19564">
        <ele>14.5</ele>
        <time>2023-07-05T15:08:55Z</time>
      </trkpt>
      <trkpt lat="49.26546" lon="-0.19556">
        <ele>14.4</ele>
        <time>2023-07-05T15:08:56Z</time>
      </trkpt>
      <trkpt lat="49.26554" lon="-0.19547">
        <ele>14.3</ele>
        <time>2023-07-05T15:08:57Z</time>
      </trkpt>
      <trkpt lat="49.26562" lon="-0.19537">
        <ele>14.2</ele>
        <time>2023-07-05T15:08:58Z</time>
      </trkpt>
      <trkpt lat="49.26569" lon="-0.19527">
        <ele>14.1</ele>
        <time>2023-07-05T15:08:59Z</time>
      </trkpt>
      <trkpt lat="49.26577" lon="-0.19517">
        <ele>14</ele>
        <time>2023-07-05T15:09:00Z</time>
      </trkpt>
      <trkpt lat="49.26584" lon="-0.19508">
        <ele>13.9</ele>
        <time>2023-07-05T15:09:01Z</time>
      </trkpt>
      <trkpt lat="49.26592" lon="-0.19498">
        <ele>13.9</ele>
        <time>2023-07-05T15:09:02Z</time>
      </trkpt>
      <trkpt lat="49.266" lon="-0.19489">
        <ele>13.8</ele>
        <time>2023-07-05T15:09:03Z</time>
      </trkpt>
      <trkpt lat="49.26607" lon="-0.1948">
        <ele>13.8</ele>
        <time>2023-07-05T15:09:04Z</time>
      </trkpt>
      <trkpt lat="49.26615" lon="-0.19472">
        <ele>13.7</ele>
        <time>2023-07-05T15:09:05Z</time>
      </trkpt>
      <trkpt lat="49.26623" lon="-0.19464">
        <ele>13.7</ele>
        <time>2023-07-05T15:09:06Z</time>
      </trkpt>
      <trkpt lat="49.26631" lon="-0.19456">
        <ele>13.8</ele>
        <time>2023-07-05T15:09:07Z</time>
      </trkpt>
      <trkpt lat="49.2664" lon="-0.19449">
        <ele>13.8</ele>
        <time>2023-07-05T15:09:08Z</time>
      </trkpt>
      <trkpt lat="49.26648" lon="-0.19442">
        <ele>13.9</ele>
        <time>2023-07-05T15:09:09Z</time>
      </trkpt>
      <trkpt lat="49.26657" lon="-0.19435">
        <ele>13.9</ele>
        <time>2023-07-05T15:09:10Z</time>
      </trkpt>
      <trkpt lat="49.26666" lon="-0.19428">
        <ele>14</ele>
        <time>2023-07-05T15:09:11Z</time>
      </trkpt>
      <trkpt lat="49.26674" lon="-0.19421">
        <ele>14.1</ele>
        <time>2023-07-05T15:09:12Z</time>
      </trkpt>
      <trkpt lat="49.26683" lon="-0.19414">
        <ele>14.1</ele>
        <time>2023-07-05T15:09:13Z</time>
      </trkpt>
      <trkpt lat="49.26691" lon="-0.19408">
        <ele>14.2</ele>
        <time>2023-07-05T15:09:14Z</time>
      </trkpt>
      <trkpt lat="49.267" lon="-0.19401">
        <ele>14.2</ele>
        <time>2023-07-05T15:09:15Z</time>
      </trkpt>
      <trkpt lat="49.26709" lon="-0.19394">
        <ele>14.2</ele>
        <time>2023-07-05T15:09:16Z</time>
      </trkpt>
      <trkpt lat="49.26718" lon="-0.19388">
        <ele>14.3</ele>
        <time>2023-07-05T15:09:17Z</time>
      </trkpt>
      <trkpt lat="49.26726" lon="-0.19381">
        <ele>14.3</ele>
        <time>2023-07-05T15:09:18Z</time>
      </trkpt>
      <trkpt lat="49.26735" lon="-0.19375">
        <ele>14.4</ele>
        <time>2023-07-05T15:09:19Z</time>
      </trkpt>
      <trkpt lat="49.26744" lon="-0.19369">
        <ele>14.4</ele>
        <time>2023-07-05T15:09:20Z</time>
      </trkpt>
      <trkpt lat="49.26752" lon="-0.19363">
        <ele>14.5</ele>
        <time>2023-07-05T15:09:21Z</time>
      </trkpt>
      <trkpt lat="49.26761" lon="-0.19357">
        <ele>14.5</ele>
        <time>2023-07-05T15:09:22Z</time>
      </trkpt>
      <trkpt lat="49.26769" lon="-0.19351">
        <ele>14.6</ele>
        <time>2023-07-05T15:09:23Z</time>
      </trkpt>
      <trkpt lat="49.26778" lon="-0.19345">
        <ele>14.6</ele>
        <time>2023-07-05T15:09:24Z</time>
      </trkpt>
      <trkpt lat="49.26787" lon="-0.19338">
        <ele>14.7</ele>
        <time>2023-07-05T15:09:25Z</time>
      </trkpt>
      <trkpt lat="49.26796" lon="-0.19331">
        <ele>14.7</ele>
        <time>2023-07-05T15:09:26Z</time>
      </trkpt>
      <trkpt lat="49.26804" lon="-0.19324">
        <ele>14.7</ele>
        <time>2023-07-05T15:09:27Z</time>
      </trkpt>
      <trkpt lat="49.26813" lon="-0.19317">
        <ele>14.7</ele>
        <time>2023-07-05T15:09:28Z</time>
      </trkpt>
      <trkpt lat="49.26822" lon="-0.1931">
        <ele>14.7</ele>
        <time>2023-07-05T15:09:29Z</time>
      </trkpt>
      <trkpt lat="49.26831" lon="-0.19303">
        <ele>14.7</ele>
        <time>2023-07-05T15:09:30Z</time>
      </trkpt>
      <trkpt lat="49.2684" lon="-0.19296">
        <ele>14.7</ele>
        <time>2023-07-05T15:09:31Z</time>
      </trkpt>
      <trkpt lat="49.26848" lon="-0.1929">
        <ele>14.7</ele>
        <time>2023-07-05T15:09:32Z</time>
      </trkpt>
      <trkpt lat="49.26857" lon="-0.19283">
        <ele>14.7</ele>
        <time>2023-07-05T15:09:33Z</time>
      </trkpt>
      <trkpt lat="49.26866" lon="-0.19277">
        <ele>14.7</ele>
        <time>2023-07-05T15:09:34Z</time>
      </trkpt>
      <trkpt lat="49.26875" lon="-0.19271">
        <ele>14.7</ele>
        <time>2023-07-05T15:09:35Z</time>
      </trkpt>
      <trkpt lat="49.26884" lon="-0.19264">
        <ele>14.7</ele>
        <time>2023-07-05T15:09:36Z</time>
      </trkpt>
      <trkpt lat="49.26892" lon="-0.19257">
        <ele>14.7</ele>
        <time>2023-07-05T15:09:37Z</time>
      </trkpt>
      <trkpt lat="49.269" lon="-0.19251">
        <ele>14.7</ele>
        <time>2023-07-05T15:09:38Z</time>
      </trkpt>
      <trkpt lat="49.26908" lon="-0.19245">
        <ele>14.6</ele>
        <time>2023-07-05T15:09:39Z</time>
      </trkpt>
      <trkpt lat="49.26916" lon="-0.19238">
        <ele>14.6</ele>
        <time>2023-07-05T15:09:40Z</time>
      </trkpt>
      <trkpt lat="49.26923" lon="-0.19231">
        <ele>14.5</ele>
        <time>2023-07-05T15:09:41Z</time>
      </trkpt>
      <trkpt lat="49.26931" lon="-0.19222">
        <ele>14.4</ele>
        <time>2023-07-05T15:09:42Z</time>
      </trkpt>
      <trkpt lat="49.26938" lon="-0.19214">
        <ele>14.3</ele>
        <time>2023-07-05T15:09:43Z</time>
      </trkpt>
      <trkpt lat="49.26946" lon="-0.19206">
        <ele>14.3</ele>
        <time>2023-07-05T15:09:44Z</time>
      </trkpt>
      <trkpt lat="49.26953" lon="-0.19198">
        <ele>14.2</ele>
        <time>2023-07-05T15:09:45Z</time>
      </trkpt>
      <trkpt lat="49.26961" lon="-0.19192">
        <ele>14.1</ele>
        <time>2023-07-05T15:09:46Z</time>
      </trkpt>
      <trkpt lat="49.26969" lon="-0.19185">
        <ele>14</ele>
        <time>2023-07-05T15:09:47Z</time>
      </trkpt>
      <trkpt lat="49.26977" lon="-0.19179">
        <ele>13.9</ele>
        <time>2023-07-05T15:09:48Z</time>
      </trkpt>
      <trkpt lat="49.26984" lon="-0.19173">
        <ele>13.9</ele>
        <time>2023-07-05T15:09:49Z</time>
      </trkpt>
      <trkpt lat="49.26992" lon="-0.19167">
        <ele>13.8</ele>
        <time>2023-07-05T15:09:50Z</time>
      </trkpt>
      <trkpt lat="49.26999" lon="-0.19161">
        <ele>13.7</ele>
        <time>2023-07-05T15:09:51Z</time>
      </trkpt>
      <trkpt lat="49.27006" lon="-0.19155">
        <ele>13.6</ele>
        <time>2023-07-05T15:09:52Z</time>
      </trkpt>
      <trkpt lat="49.27013" lon="-0.1915">
        <ele>13.5</ele>
        <time>2023-07-05T15:09:53Z</time>
      </trkpt>
      <trkpt lat="49.27021" lon="-0.19145">
        <ele>13.3</ele>
        <time>2023-07-05T15:09:54Z</time>
      </trkpt>
      <trkpt lat="49.27028" lon="-0.1914">
        <ele>13.2</ele>
        <time>2023-07-05T15:09:55Z</time>
      </trkpt>
      <trkpt lat="49.27035" lon="-0.19134">
        <ele>13</ele>
        <time>2023-07-05T15:09:56Z</time>
      </trkpt>
      <trkpt lat="49.27043" lon="-0.19129">
        <ele>12.9</ele>
        <time>2023-07-05T15:09:57Z</time>
      </trkpt>
      <trkpt lat="49.2705" lon="-0.19124">
        <ele>12.7</ele>
        <time>2023-07-05T15:09:58Z</time>
      </trkpt>
      <trkpt lat="49.27058" lon="-0.1912">
        <ele>12.5</ele>
        <time>2023-07-05T15:09:59Z</time>
      </trkpt>
      <trkpt lat="49.27065" lon="-0.19115">
        <ele>12.3</ele>
        <time>2023-07-05T15:10:00Z</time>
      </trkpt>
      <trkpt lat="49.27072" lon="-0.1911">
        <ele>12.2</ele>
        <time>2023-07-05T15:10:01Z</time>
      </trkpt>
      <trkpt lat="49.2708" lon="-0.19104">
        <ele>12</ele>
        <time>2023-07-05T15:10:02Z</time>
      </trkpt>
      <trkpt lat="49.27087" lon="-0.19098">
        <ele>11.9</ele>
        <time>2023-07-05T15:10:03Z</time>
      </trkpt>
      <trkpt lat="49.27095" lon="-0.19093">
        <ele>11.7</ele>
        <time>2023-07-05T15:10:04Z</time>
      </trkpt>
      <trkpt lat="49.27102" lon="-0.19086">
        <ele>11.6</ele>
        <time>2023-07-05T15:10:05Z</time>
      </trkpt>
      <trkpt lat="49.27109" lon="-0.1908">
        <ele>11.4</ele>
        <time>2023-07-05T15:10:06Z</time>
      </trkpt>
      <trkpt lat="49.27116" lon="-0.19074">
        <ele>11.3</ele>
        <time>2023-07-05T15:10:07Z</time>
      </trkpt>
      <trkpt lat="49.27122" lon="-0.19068">
        <ele>11.2</ele>
        <time>2023-07-05T15:10:08Z</time>
      </trkpt>
      <trkpt lat="49.27129" lon="-0.19064">
        <ele>11</ele>
        <time>2023-07-05T15:10:09Z</time>
      </trkpt>
      <trkpt lat="49.27137" lon="-0.19061">
        <ele>10.9</ele>
        <time>2023-07-05T15:10:10Z</time>
      </trkpt>
      <trkpt lat="49.27144" lon="-0.19057">
        <ele>10.6</ele>
        <time>2023-07-05T15:10:11Z</time>
      </trkpt>
      <trkpt lat="49.2715" lon="-0.19052">
        <ele>10.4</ele>
        <time>2023-07-05T15:10:12Z</time>
      </trkpt>
      <trkpt lat="49.27157" lon="-0.19047">
        <ele>10.2</ele>
        <time>2023-07-05T15:10:13Z</time>
      </trkpt>
      <trkpt lat="49.27163" lon="-0.19041">
        <ele>9.9</ele>
        <time>2023-07-05T15:10:14Z</time>
      </trkpt>
      <trkpt lat="49.2717" lon="-0.19035">
        <ele>9.7</ele>
        <time>2023-07-05T15:10:15Z</time>
      </trkpt>
      <trkpt lat="49.27176" lon="-0.19029">
        <ele>9.5</ele>
        <time>2023-07-05T15:10:16Z</time>
      </trkpt>
      <trkpt lat="49.27184" lon="-0.19022">
        <ele>9.2</ele>
        <time>2023-07-05T15:10:17Z</time>
      </trkpt>
      <trkpt lat="49.27191" lon="-0.19015">
        <ele>9</ele>
        <time>2023-07-05T15:10:18Z</time>
      </trkpt>
      <trkpt lat="49.27199" lon="-0.19008">
        <ele>8.7</ele>
        <time>2023-07-05T15:10:19Z</time>
      </trkpt>
      <trkpt lat="49.27207" lon="-0.19001">
        <ele>8.4</ele>
        <time>2023-07-05T15:10:20Z</time>
      </trkpt>
      <trkpt lat="49.27216" lon="-0.18993">
        <ele>8.1</ele>
        <time>2023-07-05T15:10:21Z</time>
      </trkpt>
      <trkpt lat="49.27224" lon="-0.18986">
        <ele>7.8</ele>
        <time>2023-07-05T15:10:22Z</time>
      </trkpt>
      <trkpt lat="49.27233" lon="-0.18978">
        <ele>7.5</ele>
        <time>2023-07-05T15:10:23Z</time>
      </trkpt>
      <trkpt lat="49.27242" lon="-0.1897">
        <ele>7.2</ele>
        <time>2023-07-05T15:10:24Z</time>
      </trkpt>
      <trkpt lat="49.27252" lon="-0.18961">
        <ele>6.9</ele>
        <time>2023-07-05T15:10:25Z</time>
      </trkpt>
      <trkpt lat="49.27261" lon="-0.18951">
        <ele>6.6</ele>
        <time>2023-07-05T15:10:26Z</time>
      </trkpt>
      <trkpt lat="49.27269" lon="-0.18942">
        <ele>6.4</ele>
        <time>2023-07-05T15:10:27Z</time>
      </trkpt>
      <trkpt lat="49.27278" lon="-0.18933">
        <ele>6.2</ele>
        <time>2023-07-05T15:10:28Z</time>
      </trkpt>
      <trkpt lat="49.27287" lon="-0.18925">
        <ele>6</ele>
        <time>2023-07-05T15:10:29Z</time>
      </trkpt>
      <trkpt lat="49.27296" lon="-0.18916">
        <ele>5.7</ele>
        <time>2023-07-05T15:10:30Z</time>
      </trkpt>
      <trkpt lat="49.27305" lon="-0.18908">
        <ele>5.5</ele>
        <time>2023-07-05T15:10:31Z</time>
      </trkpt>
      <trkpt lat="49.27313" lon="-0.189">
        <ele>5.3</ele>
        <time>2023-07-05T15:10:32Z</time>
      </trkpt>
      <trkpt lat="49.27322" lon="-0.18891">
        <ele>5.1</ele>
        <time>2023-07-05T15:10:33Z</time>
      </trkpt>
      <trkpt lat="49.2733" lon="-0.18882">
        <ele>5</ele>
        <time>2023-07-05T15:10:34Z</time>
      </trkpt>
      <trkpt lat="49.27339" lon="-0.18874">
        <ele>4.8</ele>
        <time>2023-07-05T15:10:35Z</time>
      </trkpt>
      <trkpt lat="49.27347" lon="-0.18865">
        <ele>4.6</ele>
        <time>2023-07-05T15:10:36Z</time>
      </trkpt>
      <trkpt lat="49.27356" lon="-0.18857">
        <ele>4.5</ele>
        <time>2023-07-05T15:10:37Z</time>
      </trkpt>
      <trkpt lat="49.27364" lon="-0.18848">
        <ele>4.4</ele>
        <time>2023-07-05T15:10:38Z</time>
      </trkpt>
      <trkpt lat="49.27372" lon="-0.1884">
        <ele>4.2</ele>
        <time>2023-07-05T15:10:39Z</time>
      </trkpt>
      <trkpt lat="49.2738" lon="-0.18833">
        <ele>4.2</ele>
        <time>2023-07-05T15:10:40Z</time>
      </trkpt>
      <trkpt lat="49.27388" lon="-0.18825">
        <ele>4.1</ele>
        <time>2023-07-05T15:10:41Z</time>
      </trkpt>
      <trkpt lat="49.27396" lon="-0.18817">
        <ele>4</ele>
        <time>2023-07-05T15:10:42Z</time>
      </trkpt>
      <trkpt lat="49.27405" lon="-0.18809">
        <ele>4</ele>
        <time>2023-07-05T15:10:43Z</time>
      </trkpt>
      <trkpt lat="49.27413" lon="-0.18801">
        <ele>4</ele>
        <time>2023-07-05T15:10:44Z</time>
      </trkpt>
      <trkpt lat="49.27421" lon="-0.18793">
        <ele>4</ele>
        <time>2023-07-05T15:10:45Z</time>
      </trkpt>
      <trkpt lat="49.27429" lon="-0.18785">
        <ele>4</ele>
        <time>2023-07-05T15:10:46Z</time>
      </trkpt>
      <trkpt lat="49.27437" lon="-0.18777">
        <ele>3.9</ele>
        <time>2023-07-05T15:10:47Z</time>
      </trkpt>
      <trkpt lat="49.27446" lon="-0.1877">
        <ele>3.9</ele>
        <time>2023-07-05T15:10:48Z</time>
      </trkpt>
      <trkpt lat="49.27454" lon="-0.18763">
        <ele>3.9</ele>
        <time>2023-07-05T15:10:49Z</time>
      </trkpt>
      <trkpt lat="49.27462" lon="-0.18755">
        <ele>4</ele>
        <time>2023-07-05T15:10:50Z</time>
      </trkpt>
      <trkpt lat="49.27469" lon="-0.18748">
        <ele>4</ele>
        <time>2023-07-05T15:10:51Z</time>
      </trkpt>
      <trkpt lat="49.27477" lon="-0.18741">
        <ele>4.1</ele>
        <time>2023-07-05T15:10:52Z</time>
      </trkpt>
      <trkpt lat="49.27484" lon="-0.18734">
        <ele>4.1</ele>
        <time>2023-07-05T15:10:53Z</time>
      </trkpt>
      <trkpt lat="49.27492" lon="-0.18727">
        <ele>4.1</ele>
        <time>2023-07-05T15:10:54Z</time>
      </trkpt>
      <trkpt lat="49.27499" lon="-0.18719">
        <ele>4</ele>
        <time>2023-07-05T15:10:55Z</time>
      </trkpt>
      <trkpt lat="49.27507" lon="-0.18711">
        <ele>4</ele>
        <time>2023-07-05T15:10:56Z</time>
      </trkpt>
      <trkpt lat="49.27515" lon="-0.18703">
        <ele>3.9</ele>
        <time>2023-07-05T15:10:57Z</time>
      </trkpt>
      <trkpt lat="49.27523" lon="-0.18696">
        <ele>3.9</ele>
        <time>2023-07-05T15:10:58Z</time>
      </trkpt>
      <trkpt lat="49.27531" lon="-0.18689">
        <ele>3.9</ele>
        <time>2023-07-05T15:10:59Z</time>
      </trkpt>
      <trkpt lat="49.27539" lon="-0.18681">
        <ele>3.9</ele>
        <time>2023-07-05T15:11:00Z</time>
      </trkpt>
      <trkpt lat="49.27547" lon="-0.18674">
        <ele>3.9</ele>
        <time>2023-07-05T15:11:01Z</time>
      </trkpt>
      <trkpt lat="49.27555" lon="-0.18666">
        <ele>4</ele>
        <time>2023-07-05T15:11:02Z</time>
      </trkpt>
      <trkpt lat="49.27564" lon="-0.18658">
        <ele>4</ele>
        <time>2023-07-05T15:11:03Z</time>
      </trkpt>
      <trkpt lat="49.27572" lon="-0.1865">
        <ele>4</ele>
        <time>2023-07-05T15:11:04Z</time>
      </trkpt>
      <trkpt lat="49.2758" lon="-0.18642">
        <ele>4</ele>
        <time>2023-07-05T15:11:05Z</time>
      </trkpt>
      <trkpt lat="49.27588" lon="-0.18634">
        <ele>4.1</ele>
        <time>2023-07-05T15:11:06Z</time>
      </trkpt>
      <trkpt lat="49.27595" lon="-0.18627">
        <ele>4.1</ele>
        <time>2023-07-05T15:11:07Z</time>
      </trkpt>
      <trkpt lat="49.27603" lon="-0.18619">
        <ele>4.1</ele>
        <time>2023-07-05T15:11:08Z</time>
      </trkpt>
      <trkpt lat="49.27611" lon="-0.18611">
        <ele>4.1</ele>
        <time>2023-07-05T15:11:09Z</time>
      </trkpt>
      <trkpt lat="49.27619" lon="-0.18604">
        <ele>4.1</ele>
        <time>2023-07-05T15:11:10Z</time>
      </trkpt>
      <trkpt lat="49.27627" lon="-0.18597">
        <ele>4</ele>
        <time>2023-07-05T15:11:11Z</time>
      </trkpt>
      <trkpt lat="49.27635" lon="-0.18589">
        <ele>4</ele>
        <time>2023-07-05T15:11:12Z</time>
      </trkpt>
      <trkpt lat="49.27643" lon="-0.18582">
        <ele>4</ele>
        <time>2023-07-05T15:11:13Z</time>
      </trkpt>
      <trkpt lat="49.2765" lon="-0.18574">
        <ele>4</ele>
        <time>2023-07-05T15:11:14Z</time>
      </trkpt>
      <trkpt lat="49.27658" lon="-0.18567">
        <ele>4</ele>
        <time>2023-07-05T15:11:15Z</time>
      </trkpt>
      <trkpt lat="49.27665" lon="-0.18559">
        <ele>4.1</ele>
        <time>2023-07-05T15:11:16Z</time>
      </trkpt>
      <trkpt lat="49.27673" lon="-0.18551">
        <ele>4.1</ele>
        <time>2023-07-05T15:11:17Z</time>
      </trkpt>
      <trkpt lat="49.27681" lon="-0.18544">
        <ele>4.2</ele>
        <time>2023-07-05T15:11:18Z</time>
      </trkpt>
      <trkpt lat="49.27689" lon="-0.18536">
        <ele>4.2</ele>
        <time>2023-07-05T15:11:19Z</time>
      </trkpt>
      <trkpt lat="49.27697" lon="-0.18528">
        <ele>4.2</ele>
        <time>2023-07-05T15:11:20Z</time>
      </trkpt>
      <trkpt lat="49.27705" lon="-0.18521">
        <ele>4.2</ele>
        <time>2023-07-05T15:11:21Z</time>
      </trkpt>
      <trkpt lat="49.27713" lon="-0.18513">
        <ele>4.2</ele>
        <time>2023-07-05T15:11:22Z</time>
      </trkpt>
      <trkpt lat="49.2772" lon="-0.18505">
        <ele>4.2</ele>
        <time>2023-07-05T15:11:23Z</time>
      </trkpt>
      <trkpt lat="49.27728" lon="-0.18498">
        <ele>4.2</ele>
        <time>2023-07-05T15:11:24Z</time>
      </trkpt>
      <trkpt lat="49.27735" lon="-0.18491">
        <ele>4.2</ele>
        <time>2023-07-05T15:11:25Z</time>
      </trkpt>
      <trkpt lat="49.27743" lon="-0.18484">
        <ele>4.3</ele>
        <time>2023-07-05T15:11:26Z</time>
      </trkpt>
      <trkpt lat="49.27751" lon="-0.18477">
        <ele>4.3</ele>
        <time>2023-07-05T15:11:27Z</time>
      </trkpt>
      <trkpt lat="49.27759" lon="-0.18469">
        <ele>4.3</ele>
        <time>2023-07-05T15:11:28Z</time>
      </trkpt>
      <trkpt lat="49.27766" lon="-0.18461">
        <ele>4.2</ele>
        <time>2023-07-05T15:11:29Z</time>
      </trkpt>
      <trkpt lat="49.27774" lon="-0.18454">
        <ele>4.2</ele>
        <time>2023-07-05T15:11:30Z</time>
      </trkpt>
      <trkpt lat="49.27781" lon="-0.18446">
        <ele>4.1</ele>
        <time>2023-07-05T15:11:31Z</time>
      </trkpt>
      <trkpt lat="49.27789" lon="-0.18439">
        <ele>4.1</ele>
        <time>2023-07-05T15:11:32Z</time>
      </trkpt>
      <trkpt lat="49.27797" lon="-0.18431">
        <ele>4.1</ele>
        <time>2023-07-05T15:11:33Z</time>
      </trkpt>
      <trkpt lat="49.27805" lon="-0.18424">
        <ele>4.1</ele>
        <time>2023-07-05T15:11:34Z</time>
      </trkpt>
      <trkpt lat="49.27813" lon="-0.18416">
        <ele>4.1</ele>
        <time>2023-07-05T15:11:35Z</time>
      </trkpt>
      <trkpt lat="49.2782" lon="-0.18409">
        <ele>4.1</ele>
        <time>2023-07-05T15:11:36Z</time>
      </trkpt>
      <trkpt lat="49.27828" lon="-0.18401">
        <ele>4.1</ele>
        <time>2023-07-05T15:11:37Z</time>
      </trkpt>
      <trkpt lat="49.27836" lon="-0.18394">
        <ele>4.1</ele>
        <time>2023-07-05T15:11:38Z</time>
      </trkpt>
      <trkpt lat="49.27844" lon="-0.18386">
        <ele>4.1</ele>
        <time>2023-07-05T15:11:39Z</time>
      </trkpt>
      <trkpt lat="49.27852" lon="-0.18379">
        <ele>4</ele>
        <time>2023-07-05T15:11:40Z</time>
      </trkpt>
      <trkpt lat="49.2786" lon="-0.18371">
        <ele>4</ele>
        <time>2023-07-05T15:11:41Z</time>
      </trkpt>
      <trkpt lat="49.27868" lon="-0.18362">
        <ele>4</ele>
        <time>2023-07-05T15:11:42Z</time>
      </trkpt>
      <trkpt lat="49.27877" lon="-0.18354">
        <ele>4</ele>
        <time>2023-07-05T15:11:43Z</time>
      </trkpt>
      <trkpt lat="49.27885" lon="-0.18346">
        <ele>4</ele>
        <time>2023-07-05T15:11:44Z</time>
      </trkpt>
      <trkpt lat="49.27894" lon="-0.18337">
        <ele>4</ele>
        <time>2023-07-05T15:11:45Z</time>
      </trkpt>
      <trkpt lat="49.27902" lon="-0.18329">
        <ele>4</ele>
        <time>2023-07-05T15:11:46Z</time>
      </trkpt>
      <trkpt lat="49.27911" lon="-0.1832">
        <ele>4</ele>
        <time>2023-07-05T15:11:47Z</time>
      </trkpt>
      <trkpt lat="49.27919" lon="-0.18311">
        <ele>4</ele>
        <time>2023-07-05T15:11:48Z</time>
      </trkpt>
      <trkpt lat="49.27928" lon="-0.18303">
        <ele>4</ele>
        <time>2023-07-05T15:11:49Z</time>
      </trkpt>
      <trkpt lat="49.27937" lon="-0.18295">
        <ele>4.1</ele>
        <time>2023-07-05T15:11:50Z</time>
      </trkpt>
      <trkpt lat="49.27946" lon="-0.18287">
        <ele>4.1</ele>
        <time>2023-07-05T15:11:51Z</time>
      </trkpt>
      <trkpt lat="49.27955" lon="-0.18279">
        <ele>4.2</ele>
        <time>2023-07-05T15:11:52Z</time>
      </trkpt>
      <trkpt lat="49.27964" lon="-0.18271">
        <ele>4.2</ele>
        <time>2023-07-05T15:11:53Z</time>
      </trkpt>
      <trkpt lat="49.27973" lon="-0.18263">
        <ele>4.3</ele>
        <time>2023-07-05T15:11:54Z</time>
      </trkpt>
      <trkpt lat="49.27981" lon="-0.18254">
        <ele>4.4</ele>
        <time>2023-07-05T15:11:55Z</time>
      </trkpt>
      <trkpt lat="49.2799" lon="-0.18246">
        <ele>4.4</ele>
        <time>2023-07-05T15:11:56Z</time>
      </trkpt>
      <trkpt lat="49.27999" lon="-0.18238">
        <ele>4.4</ele>
        <time>2023-07-05T15:11:57Z</time>
      </trkpt>
      <trkpt lat="49.28008" lon="-0.1823">
        <ele>4.5</ele>
        <time>2023-07-05T15:11:58Z</time>
      </trkpt>
      <trkpt lat="49.28016" lon="-0.18222">
        <ele>4.5</ele>
        <time>2023-07-05T15:11:59Z</time>
      </trkpt>
      <trkpt lat="49.28025" lon="-0.18214">
        <ele>4.5</ele>
        <time>2023-07-05T15:12:00Z</time>
      </trkpt>
      <trkpt lat="49.28034" lon="-0.18205">
        <ele>4.4</ele>
        <time>2023-07-05T15:12:01Z</time>
      </trkpt>
      <trkpt lat="49.28042" lon="-0.18197">
        <ele>4.4</ele>
        <time>2023-07-05T15:12:02Z</time>
      </trkpt>
      <trkpt lat="49.2805" lon="-0.18189">
        <ele>4.4</ele>
        <time>2023-07-05T15:12:03Z</time>
      </trkpt>
      <trkpt lat="49.28058" lon="-0.1818">
        <ele>4.3</ele>
        <time>2023-07-05T15:12:04Z</time>
      </trkpt>
      <trkpt lat="49.28067" lon="-0.18171">
        <ele>4.3</ele>
        <time>2023-07-05T15:12:05Z</time>
      </trkpt>
      <trkpt lat="49.28075" lon="-0.18162">
        <ele>4.2</ele>
        <time>2023-07-05T15:12:06Z</time>
      </trkpt>
      <trkpt lat="49.28084" lon="-0.18153">
        <ele>4.1</ele>
        <time>2023-07-05T15:12:07Z</time>
      </trkpt>
      <trkpt lat="49.28092" lon="-0.18144">
        <ele>4.1</ele>
        <time>2023-07-05T15:12:08Z</time>
      </trkpt>
      <trkpt lat="49.28101" lon="-0.18136">
        <ele>4</ele>
        <time>2023-07-05T15:12:09Z</time>
      </trkpt>
      <trkpt lat="49.28109" lon="-0.18128">
        <ele>4</ele>
        <time>2023-07-05T15:12:10Z</time>
      </trkpt>
      <trkpt lat="49.28118" lon="-0.1812">
        <ele>3.9</ele>
        <time>2023-07-05T15:12:11Z</time>
      </trkpt>
      <trkpt lat="49.28126" lon="-0.18112">
        <ele>3.9</ele>
        <time>2023-07-05T15:12:12Z</time>
      </trkpt>
      <trkpt lat="49.28135" lon="-0.18104">
        <ele>3.9</ele>
        <time>2023-07-05T15:12:13Z</time>
      </trkpt>
      <trkpt lat="49.28143" lon="-0.18097">
        <ele>3.9</ele>
        <time>2023-07-05T15:12:14Z</time>
      </trkpt>
      <trkpt lat="49.28152" lon="-0.18089">
        <ele>3.9</ele>
        <time>2023-07-05T15:12:15Z</time>
      </trkpt>
      <trkpt lat="49.2816" lon="-0.18081">
        <ele>3.9</ele>
        <time>2023-07-05T15:12:16Z</time>
      </trkpt>
      <trkpt lat="49.28169" lon="-0.18072">
        <ele>3.9</ele>
        <time>2023-07-05T15:12:17Z</time>
      </trkpt>
      <trkpt lat="49.28177" lon="-0.18064">
        <ele>3.9</ele>
        <time>2023-07-05T15:12:18Z</time>
      </trkpt>
      <trkpt lat="49.28186" lon="-0.18057">
        <ele>3.9</ele>
        <time>2023-07-05T15:12:19Z</time>
      </trkpt>
      <trkpt lat="49.28194" lon="-0.18049">
        <ele>3.9</ele>
        <time>2023-07-05T15:12:20Z</time>
      </trkpt>
      <trkpt lat="49.28203" lon="-0.18041">
        <ele>3.8</ele>
        <time>2023-07-05T15:12:21Z</time>
      </trkpt>
      <trkpt lat="49.28211" lon="-0.18033">
        <ele>3.8</ele>
        <time>2023-07-05T15:12:22Z</time>
      </trkpt>
      <trkpt lat="49.28219" lon="-0.18025">
        <ele>3.8</ele>
        <time>2023-07-05T15:12:23Z</time>
      </trkpt>
      <trkpt lat="49.28228" lon="-0.18016">
        <ele>3.7</ele>
        <time>2023-07-05T15:12:24Z</time>
      </trkpt>
      <trkpt lat="49.28236" lon="-0.18008">
        <ele>3.7</ele>
        <time>2023-07-05T15:12:25Z</time>
      </trkpt>
      <trkpt lat="49.28245" lon="-0.18">
        <ele>3.7</ele>
        <time>2023-07-05T15:12:26Z</time>
      </trkpt>
      <trkpt lat="49.28254" lon="-0.17992">
        <ele>3.6</ele>
        <time>2023-07-05T15:12:27Z</time>
      </trkpt>
      <trkpt lat="49.28262" lon="-0.17984">
        <ele>3.6</ele>
        <time>2023-07-05T15:12:28Z</time>
      </trkpt>
      <trkpt lat="49.28271" lon="-0.17977">
        <ele>3.6</ele>
        <time>2023-07-05T15:12:29Z</time>
      </trkpt>
      <trkpt lat="49.28279" lon="-0.17969">
        <ele>3.6</ele>
        <time>2023-07-05T15:12:30Z</time>
      </trkpt>
      <trkpt lat="49.28288" lon="-0.17961">
        <ele>3.7</ele>
        <time>2023-07-05T15:12:31Z</time>
      </trkpt>
      <trkpt lat="49.28296" lon="-0.17953">
        <ele>3.7</ele>
        <time>2023-07-05T15:12:32Z</time>
      </trkpt>
      <trkpt lat="49.28304" lon="-0.17945">
        <ele>3.7</ele>
        <time>2023-07-05T15:12:33Z</time>
      </trkpt>
      <trkpt lat="49.28312" lon="-0.17936">
        <ele>3.8</ele>
        <time>2023-07-05T15:12:34Z</time>
      </trkpt>
      <trkpt lat="49.2832" lon="-0.17929">
        <ele>3.8</ele>
        <time>2023-07-05T15:12:35Z</time>
      </trkpt>
      <trkpt lat="49.28328" lon="-0.1792">
        <ele>3.7</ele>
        <time>2023-07-05T15:12:36Z</time>
      </trkpt>
      <trkpt lat="49.28336" lon="-0.17912">
        <ele>3.7</ele>
        <time>2023-07-05T15:12:37Z</time>
      </trkpt>
      <trkpt lat="49.28345" lon="-0.17905">
        <ele>3.6</ele>
        <time>2023-07-05T15:12:38Z</time>
      </trkpt>
      <trkpt lat="49.28353" lon="-0.17897">
        <ele>3.7</ele>
        <time>2023-07-05T15:12:39Z</time>
      </trkpt>
      <trkpt lat="49.28361" lon="-0.1789">
        <ele>3.7</ele>
        <time>2023-07-05T15:12:40Z</time>
      </trkpt>
      <trkpt lat="49.2837" lon="-0.17883">
        <ele>3.7</ele>
        <time>2023-07-05T15:12:41Z</time>
      </trkpt>
      <trkpt lat="49.28378" lon="-0.17876">
        <ele>3.8</ele>
        <time>2023-07-05T15:12:42Z</time>
      </trkpt>
      <trkpt lat="49.28386" lon="-0.17869">
        <ele>3.8</ele>
        <time>2023-07-05T15:12:43Z</time>
      </trkpt>
      <trkpt lat="49.28394" lon="-0.17862">
        <ele>3.9</ele>
        <time>2023-07-05T15:12:44Z</time>
      </trkpt>
      <trkpt lat="49.284" lon="-0.17855">
        <ele>3.9</ele>
        <time>2023-07-05T15:12:45Z</time>
      </trkpt>
      <trkpt lat="49.28407" lon="-0.17848">
        <ele>3.9</ele>
        <time>2023-07-05T15:12:46Z</time>
      </trkpt>
      <trkpt lat="49.28413" lon="-0.1784">
        <ele>4</ele>
        <time>2023-07-05T15:12:47Z</time>
      </trkpt>
      <trkpt lat="49.2842" lon="-0.17833">
        <ele>4.1</ele>
        <time>2023-07-05T15:12:48Z</time>
      </trkpt>
      <trkpt lat="49.28426" lon="-0.17827">
        <ele>4.2</ele>
        <time>2023-07-05T15:12:49Z</time>
      </trkpt>
      <trkpt lat="49.28433" lon="-0.1782">
        <ele>4.4</ele>
        <time>2023-07-05T15:12:50Z</time>
      </trkpt>
      <trkpt lat="49.28438" lon="-0.17814">
        <ele>4.5</ele>
        <time>2023-07-05T15:12:51Z</time>
      </trkpt>
      <trkpt lat="49.28444" lon="-0.17808">
        <ele>4.6</ele>
        <time>2023-07-05T15:12:52Z</time>
      </trkpt>
      <trkpt lat="49.2845" lon="-0.17803">
        <ele>4.8</ele>
        <time>2023-07-05T15:12:53Z</time>
      </trkpt>
      <trkpt lat="49.28456" lon="-0.17798">
        <ele>4.9</ele>
        <time>2023-07-05T15:12:54Z</time>
      </trkpt>
      <trkpt lat="49.28461" lon="-0.17794">
        <ele>5</ele>
        <time>2023-07-05T15:12:55Z</time>
      </trkpt>
      <trkpt lat="49.28467" lon="-0.1779">
        <ele>5</ele>
        <time>2023-07-05T15:12:56Z</time>
      </trkpt>
      <trkpt lat="49.28471" lon="-0.17786">
        <ele>5.2</ele>
        <time>2023-07-05T15:12:57Z</time>
      </trkpt>
      <trkpt lat="49.28475" lon="-0.17779">
        <ele>5.1</ele>
        <time>2023-07-05T15:12:58Z</time>
      </trkpt>
      <trkpt lat="49.28478" lon="-0.17771">
        <ele>5.1</ele>
        <time>2023-07-05T15:12:59Z</time>
      </trkpt>
      <trkpt lat="49.28479" lon="-0.17763">
        <ele>5.1</ele>
        <time>2023-07-05T15:13:00Z</time>
      </trkpt>
      <trkpt lat="49.2848" lon="-0.17754">
        <ele>5.1</ele>
        <time>2023-07-05T15:13:01Z</time>
      </trkpt>
      <trkpt lat="49.2848" lon="-0.17745">
        <ele>5.1</ele>
        <time>2023-07-05T15:13:02Z</time>
      </trkpt>
      <trkpt lat="49.28481" lon="-0.17737">
        <ele>5.1</ele>
        <time>2023-07-05T15:13:03Z</time>
      </trkpt>
      <trkpt lat="49.28482" lon="-0.17729">
        <ele>5.1</ele>
        <time>2023-07-05T15:13:04Z</time>
      </trkpt>
      <trkpt lat="49.28483" lon="-0.17722">
        <ele>5.1</ele>
        <time>2023-07-05T15:13:05Z</time>
      </trkpt>
      <trkpt lat="49.28484" lon="-0.17714">
        <ele>5.1</ele>
        <time>2023-07-05T15:13:06Z</time>
      </trkpt>
      <trkpt lat="49.28486" lon="-0.17707">
        <ele>5.1</ele>
        <time>2023-07-05T15:13:07Z</time>
      </trkpt>
      <trkpt lat="49.28487" lon="-0.177">
        <ele>5.1</ele>
        <time>2023-07-05T15:13:08Z</time>
      </trkpt>
      <trkpt lat="49.28488" lon="-0.17693">
        <ele>5.1</ele>
        <time>2023-07-05T15:13:09Z</time>
      </trkpt>
      <trkpt lat="49.28489" lon="-0.17686">
        <ele>5.1</ele>
        <time>2023-07-05T15:13:10Z</time>
      </trkpt>
      <trkpt lat="49.2849" lon="-0.17679">
        <ele>5.1</ele>
        <time>2023-07-05T15:13:11Z</time>
      </trkpt>
      <trkpt lat="49.2849" lon="-0.17673">
        <ele>5.1</ele>
        <time>2023-07-05T15:13:12Z</time>
      </trkpt>
      <trkpt lat="49.28491" lon="-0.17667">
        <ele>5.2</ele>
        <time>2023-07-05T15:13:13Z</time>
      </trkpt>
      <trkpt lat="49.28492" lon="-0.17661">
        <ele>5.2</ele>
        <time>2023-07-05T15:13:14Z</time>
      </trkpt>
      <trkpt lat="49.28492" lon="-0.17655">
        <ele>5.2</ele>
        <time>2023-07-05T15:13:15Z</time>
      </trkpt>
      <trkpt lat="49.28492" lon="-0.17648">
        <ele>5.2</ele>
        <time>2023-07-05T15:13:16Z</time>
      </trkpt>
      <trkpt lat="49.28492" lon="-0.17642">
        <ele>5.2</ele>
        <time>2023-07-05T15:13:17Z</time>
      </trkpt>
      <trkpt lat="49.28493" lon="-0.17636">
        <ele>5.2</ele>
        <time>2023-07-05T15:13:18Z</time>
      </trkpt>
      <trkpt lat="49.28493" lon="-0.1763">
        <ele>5.2</ele>
        <time>2023-07-05T15:13:19Z</time>
      </trkpt>
      <trkpt lat="49.28493" lon="-0.17624">
        <ele>5.2</ele>
        <time>2023-07-05T15:13:20Z</time>
      </trkpt>
      <trkpt lat="49.28493" lon="-0.17618">
        <ele>5.3</ele>
        <time>2023-07-05T15:13:21Z</time>
      </trkpt>
      <trkpt lat="49.28493" lon="-0.17612">
        <ele>5.3</ele>
        <time>2023-07-05T15:13:22Z</time>
      </trkpt>
      <trkpt lat="49.28493" lon="-0.17606">
        <ele>5.3</ele>
        <time>2023-07-05T15:13:23Z</time>
      </trkpt>
      <trkpt lat="49.28493" lon="-0.17599">
        <ele>5.3</ele>
        <time>2023-07-05T15:13:24Z</time>
      </trkpt>
      <trkpt lat="49.28493" lon="-0.17593">
        <ele>5.3</ele>
        <time>2023-07-05T15:13:25Z</time>
      </trkpt>
      <trkpt lat="49.28492" lon="-0.17586">
        <ele>5.3</ele>
        <time>2023-07-05T15:13:26Z</time>
      </trkpt>
      <trkpt lat="49.28491" lon="-0.17579">
        <ele>5.3</ele>
        <time>2023-07-05T15:13:27Z</time>
      </trkpt>
      <trkpt lat="49.28491" lon="-0.17572">
        <ele>5.3</ele>
        <time>2023-07-05T15:13:28Z</time>
      </trkpt>
      <trkpt lat="49.2849" lon="-0.17565">
        <ele>5.2</ele>
        <time>2023-07-05T15:13:29Z</time>
      </trkpt>
      <trkpt lat="49.2849" lon="-0.17558">
        <ele>5.2</ele>
        <time>2023-07-05T15:13:30Z</time>
      </trkpt>
      <trkpt lat="49.28489" lon="-0.17551">
        <ele>5.2</ele>
        <time>2023-07-05T15:13:31Z</time>
      </trkpt>
      <trkpt lat="49.28488" lon="-0.17544">
        <ele>5.1</ele>
        <time>2023-07-05T15:13:32Z</time>
      </trkpt>
      <trkpt lat="49.28488" lon="-0.17537">
        <ele>5.1</ele>
        <time>2023-07-05T15:13:33Z</time>
      </trkpt>
      <trkpt lat="49.28487" lon="-0.17531">
        <ele>5.1</ele>
        <time>2023-07-05T15:13:34Z</time>
      </trkpt>
      <trkpt lat="49.28486" lon="-0.17524">
        <ele>5.1</ele>
        <time>2023-07-05T15:13:35Z</time>
      </trkpt>
      <trkpt lat="49.28485" lon="-0.17517">
        <ele>5.1</ele>
        <time>2023-07-05T15:13:36Z</time>
      </trkpt>
      <trkpt lat="49.28484" lon="-0.17509">
        <ele>5.1</ele>
        <time>2023-07-05T15:13:37Z</time>
      </trkpt>
      <trkpt lat="49.28483" lon="-0.17502">
        <ele>5.1</ele>
        <time>2023-07-05T15:13:38Z</time>
      </trkpt>
      <trkpt lat="49.28482" lon="-0.17494">
        <ele>5.1</ele>
        <time>2023-07-05T15:13:39Z</time>
      </trkpt>
      <trkpt lat="49.28481" lon="-0.17486">
        <ele>5</ele>
        <time>2023-07-05T15:13:40Z</time>
      </trkpt>
      <trkpt lat="49.2848" lon="-0.17478">
        <ele>5</ele>
        <time>2023-07-05T15:13:41Z</time>
      </trkpt>
      <trkpt lat="49.28478" lon="-0.1747">
        <ele>5</ele>
        <time>2023-07-05T15:13:42Z</time>
      </trkpt>
      <trkpt lat="49.28477" lon="-0.17462">
        <ele>5</ele>
        <time>2023-07-05T15:13:43Z</time>
      </trkpt>
      <trkpt lat="49.28477" lon="-0.17454">
        <ele>5</ele>
        <time>2023-07-05T15:13:44Z</time>
      </trkpt>
      <trkpt lat="49.28476" lon="-0.17446">
        <ele>5</ele>
        <time>2023-07-05T15:13:45Z</time>
      </trkpt>
      <trkpt lat="49.28475" lon="-0.17438">
        <ele>5</ele>
        <time>2023-07-05T15:13:46Z</time>
      </trkpt>
      <trkpt lat="49.28474" lon="-0.1743">
        <ele>5</ele>
        <time>2023-07-05T15:13:47Z</time>
      </trkpt>
      <trkpt lat="49.28472" lon="-0.17423">
        <ele>5</ele>
        <time>2023-07-05T15:13:48Z</time>
      </trkpt>
      <trkpt lat="49.28472" lon="-0.17416">
        <ele>5</ele>
        <time>2023-07-05T15:13:49Z</time>
      </trkpt>
      <trkpt lat="49.28471" lon="-0.17409">
        <ele>5</ele>
        <time>2023-07-05T15:13:50Z</time>
      </trkpt>
      <trkpt lat="49.2847" lon="-0.17402">
        <ele>5</ele>
        <time>2023-07-05T15:13:51Z</time>
      </trkpt>
      <trkpt lat="49.28469" lon="-0.17395">
        <ele>4.9</ele>
        <time>2023-07-05T15:13:52Z</time>
      </trkpt>
      <trkpt lat="49.28468" lon="-0.17388">
        <ele>4.9</ele>
        <time>2023-07-05T15:13:53Z</time>
      </trkpt>
      <trkpt lat="49.28467" lon="-0.17381">
        <ele>4.9</ele>
        <time>2023-07-05T15:13:54Z</time>
      </trkpt>
      <trkpt lat="49.28466" lon="-0.17375">
        <ele>4.9</ele>
        <time>2023-07-05T15:13:55Z</time>
      </trkpt>
      <trkpt lat="49.28465" lon="-0.17369">
        <ele>4.9</ele>
        <time>2023-07-05T15:13:56Z</time>
      </trkpt>
      <trkpt lat="49.28465" lon="-0.17362">
        <ele>4.9</ele>
        <time>2023-07-05T15:13:57Z</time>
      </trkpt>
      <trkpt lat="49.28463" lon="-0.17356">
        <ele>4.9</ele>
        <time>2023-07-05T15:13:58Z</time>
      </trkpt>
      <trkpt lat="49.28462" lon="-0.1735">
        <ele>4.9</ele>
        <time>2023-07-05T15:13:59Z</time>
      </trkpt>
      <trkpt lat="49.28461" lon="-0.17343">
        <ele>4.8</ele>
        <time>2023-07-05T15:14:00Z</time>
      </trkpt>
      <trkpt lat="49.2846" lon="-0.17336">
        <ele>4.8</ele>
        <time>2023-07-05T15:14:01Z</time>
      </trkpt>
      <trkpt lat="49.28459" lon="-0.17329">
        <ele>4.8</ele>
        <time>2023-07-05T15:14:02Z</time>
      </trkpt>
      <trkpt lat="49.28458" lon="-0.17321">
        <ele>4.8</ele>
        <time>2023-07-05T15:14:03Z</time>
      </trkpt>
      <trkpt lat="49.28457" lon="-0.17312">
        <ele>4.8</ele>
        <time>2023-07-05T15:14:04Z</time>
      </trkpt>
      <trkpt lat="49.28456" lon="-0.17304">
        <ele>4.8</ele>
        <time>2023-07-05T15:14:05Z</time>
      </trkpt>
      <trkpt lat="49.28455" lon="-0.17295">
        <ele>4.8</ele>
        <time>2023-07-05T15:14:06Z</time>
      </trkpt>
      <trkpt lat="49.28454" lon="-0.17286">
        <ele>4.8</ele>
        <time>2023-07-05T15:14:07Z</time>
      </trkpt>
      <trkpt lat="49.28453" lon="-0.17277">
        <ele>4.7</ele>
        <time>2023-07-05T15:14:08Z</time>
      </trkpt>
      <trkpt lat="49.28452" lon="-0.17267">
        <ele>4.7</ele>
        <time>2023-07-05T15:14:09Z</time>
      </trkpt>
      <trkpt lat="49.28451" lon="-0.17257">
        <ele>4.7</ele>
        <time>2023-07-05T15:14:10Z</time>
      </trkpt>
      <trkpt lat="49.28449" lon="-0.17248">
        <ele>4.7</ele>
        <time>2023-07-05T15:14:11Z</time>
      </trkpt>
      <trkpt lat="49.28448" lon="-0.17239">
        <ele>4.7</ele>
        <time>2023-07-05T15:14:12Z</time>
      </trkpt>
      <trkpt lat="49.28447" lon="-0.17229">
        <ele>4.7</ele>
        <time>2023-07-05T15:14:13Z</time>
      </trkpt>
      <trkpt lat="49.28446" lon="-0.17219">
        <ele>4.7</ele>
        <time>2023-07-05T15:14:14Z</time>
      </trkpt>
      <trkpt lat="49.28445" lon="-0.1721">
        <ele>4.7</ele>
        <time>2023-07-05T15:14:15Z</time>
      </trkpt>
      <trkpt lat="49.28444" lon="-0.172">
        <ele>4.7</ele>
        <time>2023-07-05T15:14:16Z</time>
      </trkpt>
      <trkpt lat="49.28443" lon="-0.17191">
        <ele>4.7</ele>
        <time>2023-07-05T15:14:17Z</time>
      </trkpt>
      <trkpt lat="49.28442" lon="-0.1718">
        <ele>4.7</ele>
        <time>2023-07-05T15:14:18Z</time>
      </trkpt>
      <trkpt lat="49.28441" lon="-0.1717">
        <ele>4.7</ele>
        <time>2023-07-05T15:14:19Z</time>
      </trkpt>
      <trkpt lat="49.2844" lon="-0.1716">
        <ele>4.7</ele>
        <time>2023-07-05T15:14:20Z</time>
      </trkpt>
      <trkpt lat="49.28439" lon="-0.17151">
        <ele>4.7</ele>
        <time>2023-07-05T15:14:21Z</time>
      </trkpt>
      <trkpt lat="49.28438" lon="-0.17142">
        <ele>4.7</ele>
        <time>2023-07-05T15:14:22Z</time>
      </trkpt>
      <trkpt lat="49.28437" lon="-0.17132">
        <ele>4.7</ele>
        <time>2023-07-05T15:14:23Z</time>
      </trkpt>
      <trkpt lat="49.28436" lon="-0.17122">
        <ele>4.7</ele>
        <time>2023-07-05T15:14:24Z</time>
      </trkpt>
      <trkpt lat="49.28435" lon="-0.17113">
        <ele>4.7</ele>
        <time>2023-07-05T15:14:25Z</time>
      </trkpt>
      <trkpt lat="49.28434" lon="-0.17104">
        <ele>4.7</ele>
        <time>2023-07-05T15:14:26Z</time>
      </trkpt>
      <trkpt lat="49.28434" lon="-0.17095">
        <ele>4.7</ele>
        <time>2023-07-05T15:14:27Z</time>
      </trkpt>
      <trkpt lat="49.28434" lon="-0.17087">
        <ele>4.7</ele>
        <time>2023-07-05T15:14:28Z</time>
      </trkpt>
      <trkpt lat="49.28433" lon="-0.17079">
        <ele>4.7</ele>
        <time>2023-07-05T15:14:29Z</time>
      </trkpt>
      <trkpt lat="49.28432" lon="-0.17071">
        <ele>4.7</ele>
        <time>2023-07-05T15:14:30Z</time>
      </trkpt>
      <trkpt lat="49.28431" lon="-0.17063">
        <ele>4.7</ele>
        <time>2023-07-05T15:14:31Z</time>
      </trkpt>
      <trkpt lat="49.2843" lon="-0.17056">
        <ele>4.7</ele>
        <time>2023-07-05T15:14:32Z</time>
      </trkpt>
      <trkpt lat="49.28429" lon="-0.17048">
        <ele>4.7</ele>
        <time>2023-07-05T15:14:33Z</time>
      </trkpt>
      <trkpt lat="49.28428" lon="-0.17041">
        <ele>4.7</ele>
        <time>2023-07-05T15:14:34Z</time>
      </trkpt>
      <trkpt lat="49.28428" lon="-0.17034">
        <ele>4.7</ele>
        <time>2023-07-05T15:14:35Z</time>
      </trkpt>
      <trkpt lat="49.28428" lon="-0.17028">
        <ele>4.7</ele>
        <time>2023-07-05T15:14:36Z</time>
      </trkpt>
      <trkpt lat="49.28428" lon="-0.17021">
        <ele>4.7</ele>
        <time>2023-07-05T15:14:37Z</time>
      </trkpt>
      <trkpt lat="49.28428" lon="-0.17015">
        <ele>4.7</ele>
        <time>2023-07-05T15:14:38Z</time>
      </trkpt>
      <trkpt lat="49.28429" lon="-0.17008">
        <ele>4.7</ele>
        <time>2023-07-05T15:14:39Z</time>
      </trkpt>
      <trkpt lat="49.28429" lon="-0.17001">
        <ele>4.7</ele>
        <time>2023-07-05T15:14:40Z</time>
      </trkpt>
      <trkpt lat="49.28429" lon="-0.16993">
        <ele>4.7</ele>
        <time>2023-07-05T15:14:41Z</time>
      </trkpt>
      <trkpt lat="49.28429" lon="-0.16985">
        <ele>4.7</ele>
        <time>2023-07-05T15:14:42Z</time>
      </trkpt>
      <trkpt lat="49.28429" lon="-0.16978">
        <ele>4.7</ele>
        <time>2023-07-05T15:14:43Z</time>
      </trkpt>
      <trkpt lat="49.28429" lon="-0.1697">
        <ele>4.8</ele>
        <time>2023-07-05T15:14:44Z</time>
      </trkpt>
      <trkpt lat="49.28429" lon="-0.16961">
        <ele>4.8</ele>
        <time>2023-07-05T15:14:45Z</time>
      </trkpt>
      <trkpt lat="49.2843" lon="-0.16953">
        <ele>4.8</ele>
        <time>2023-07-05T15:14:46Z</time>
      </trkpt>
      <trkpt lat="49.2843" lon="-0.16945">
        <ele>4.8</ele>
        <time>2023-07-05T15:14:47Z</time>
      </trkpt>
      <trkpt lat="49.2843" lon="-0.16936">
        <ele>4.8</ele>
        <time>2023-07-05T15:14:48Z</time>
      </trkpt>
      <trkpt lat="49.2843" lon="-0.16927">
        <ele>4.8</ele>
        <time>2023-07-05T15:14:49Z</time>
      </trkpt>
      <trkpt lat="49.28431" lon="-0.16917">
        <ele>4.8</ele>
        <time>2023-07-05T15:14:50Z</time>
      </trkpt>
      <trkpt lat="49.28431" lon="-0.16908">
        <ele>4.8</ele>
        <time>2023-07-05T15:14:51Z</time>
      </trkpt>
      <trkpt lat="49.28433" lon="-0.16898">
        <ele>4.9</ele>
        <time>2023-07-05T15:14:52Z</time>
      </trkpt>
      <trkpt lat="49.28434" lon="-0.16888">
        <ele>4.9</ele>
        <time>2023-07-05T15:14:53Z</time>
      </trkpt>
      <trkpt lat="49.28435" lon="-0.16878">
        <ele>4.9</ele>
        <time>2023-07-05T15:14:54Z</time>
      </trkpt>
      <trkpt lat="49.28437" lon="-0.16869">
        <ele>4.9</ele>
        <time>2023-07-05T15:14:55Z</time>
      </trkpt>
      <trkpt lat="49.28438" lon="-0.16859">
        <ele>4.9</ele>
        <time>2023-07-05T15:14:56Z</time>
      </trkpt>
      <trkpt lat="49.28439" lon="-0.16849">
        <ele>4.9</ele>
        <time>2023-07-05T15:14:57Z</time>
      </trkpt>
      <trkpt lat="49.2844" lon="-0.16839">
        <ele>4.9</ele>
        <time>2023-07-05T15:14:58Z</time>
      </trkpt>
      <trkpt lat="49.28441" lon="-0.16829">
        <ele>5</ele>
        <time>2023-07-05T15:14:59Z</time>
      </trkpt>
      <trkpt lat="49.28442" lon="-0.16819">
        <ele>5</ele>
        <time>2023-07-05T15:15:00Z</time>
      </trkpt>
      <trkpt lat="49.28444" lon="-0.16809">
        <ele>5</ele>
        <time>2023-07-05T15:15:01Z</time>
      </trkpt>
      <trkpt lat="49.28445" lon="-0.16799">
        <ele>5</ele>
        <time>2023-07-05T15:15:02Z</time>
      </trkpt>
      <trkpt lat="49.28446" lon="-0.16789">
        <ele>5</ele>
        <time>2023-07-05T15:15:03Z</time>
      </trkpt>
      <trkpt lat="49.28447" lon="-0.16779">
        <ele>5</ele>
        <time>2023-07-05T15:15:04Z</time>
      </trkpt>
      <trkpt lat="49.28448" lon="-0.16768">
        <ele>5</ele>
        <time>2023-07-05T15:15:05Z</time>
      </trkpt>
      <trkpt lat="49.28448" lon="-0.16757">
        <ele>5.1</ele>
        <time>2023-07-05T15:15:06Z</time>
      </trkpt>
      <trkpt lat="49.28449" lon="-0.16747">
        <ele>5.1</ele>
        <time>2023-07-05T15:15:07Z</time>
      </trkpt>
      <trkpt lat="49.28449" lon="-0.16736">
        <ele>5.1</ele>
        <time>2023-07-05T15:15:08Z</time>
      </trkpt>
      <trkpt lat="49.28449" lon="-0.16725">
        <ele>5.1</ele>
        <time>2023-07-05T15:15:09Z</time>
      </trkpt>
      <trkpt lat="49.28449" lon="-0.16715">
        <ele>5.1</ele>
        <time>2023-07-05T15:15:10Z</time>
      </trkpt>
      <trkpt lat="49.28449" lon="-0.16704">
        <ele>5.2</ele>
        <time>2023-07-05T15:15:11Z</time>
      </trkpt>
      <trkpt lat="49.28449" lon="-0.16693">
        <ele>5.2</ele>
        <time>2023-07-05T15:15:12Z</time>
      </trkpt>
      <trkpt lat="49.28448" lon="-0.16682">
        <ele>5.2</ele>
        <time>2023-07-05T15:15:13Z</time>
      </trkpt>
      <trkpt lat="49.28448" lon="-0.16671">
        <ele>5.2</ele>
        <time>2023-07-05T15:15:14Z</time>
      </trkpt>
      <trkpt lat="49.28447" lon="-0.1666">
        <ele>5.3</ele>
        <time>2023-07-05T15:15:15Z</time>
      </trkpt>
      <trkpt lat="49.28446" lon="-0.16649">
        <ele>5.3</ele>
        <time>2023-07-05T15:15:16Z</time>
      </trkpt>
      <trkpt lat="49.28445" lon="-0.16639">
        <ele>5.3</ele>
        <time>2023-07-05T15:15:17Z</time>
      </trkpt>
      <trkpt lat="49.28445" lon="-0.16627">
        <ele>5.2</ele>
        <time>2023-07-05T15:15:18Z</time>
      </trkpt>
      <trkpt lat="49.28444" lon="-0.16616">
        <ele>5.2</ele>
        <time>2023-07-05T15:15:19Z</time>
      </trkpt>
      <trkpt lat="49.28444" lon="-0.16604">
        <ele>5.2</ele>
        <time>2023-07-05T15:15:20Z</time>
      </trkpt>
      <trkpt lat="49.28444" lon="-0.16593">
        <ele>5.2</ele>
        <time>2023-07-05T15:15:21Z</time>
      </trkpt>
      <trkpt lat="49.28444" lon="-0.16581">
        <ele>5.2</ele>
        <time>2023-07-05T15:15:22Z</time>
      </trkpt>
      <trkpt lat="49.28444" lon="-0.16569">
        <ele>5.2</ele>
        <time>2023-07-05T15:15:23Z</time>
      </trkpt>
      <trkpt lat="49.28444" lon="-0.16557">
        <ele>5.2</ele>
        <time>2023-07-05T15:15:24Z</time>
      </trkpt>
      <trkpt lat="49.28444" lon="-0.16547">
        <ele>5.2</ele>
        <time>2023-07-05T15:15:25Z</time>
      </trkpt>
      <trkpt lat="49.28444" lon="-0.16536">
        <ele>5.1</ele>
        <time>2023-07-05T15:15:26Z</time>
      </trkpt>
      <trkpt lat="49.28444" lon="-0.16526">
        <ele>5.1</ele>
        <time>2023-07-05T15:15:27Z</time>
      </trkpt>
      <trkpt lat="49.28445" lon="-0.16515">
        <ele>5.1</ele>
        <time>2023-07-05T15:15:28Z</time>
      </trkpt>
      <trkpt lat="49.28446" lon="-0.16504">
        <ele>5.1</ele>
        <time>2023-07-05T15:15:29Z</time>
      </trkpt>
      <trkpt lat="49.28447" lon="-0.16493">
        <ele>5.1</ele>
        <time>2023-07-05T15:15:30Z</time>
      </trkpt>
      <trkpt lat="49.28448" lon="-0.16481">
        <ele>5.1</ele>
        <time>2023-07-05T15:15:31Z</time>
      </trkpt>
      <trkpt lat="49.28448" lon="-0.1647">
        <ele>5.1</ele>
        <time>2023-07-05T15:15:32Z</time>
      </trkpt>
      <trkpt lat="49.28449" lon="-0.16458">
        <ele>5.1</ele>
        <time>2023-07-05T15:15:33Z</time>
      </trkpt>
      <trkpt lat="49.2845" lon="-0.16448">
        <ele>5.1</ele>
        <time>2023-07-05T15:15:34Z</time>
      </trkpt>
      <trkpt lat="49.28451" lon="-0.16437">
        <ele>5.1</ele>
        <time>2023-07-05T15:15:35Z</time>
      </trkpt>
      <trkpt lat="49.28452" lon="-0.16425">
        <ele>5.1</ele>
        <time>2023-07-05T15:15:36Z</time>
      </trkpt>
      <trkpt lat="49.28453" lon="-0.16414">
        <ele>5.1</ele>
        <time>2023-07-05T15:15:37Z</time>
      </trkpt>
      <trkpt lat="49.28454" lon="-0.16401">
        <ele>5.1</ele>
        <time>2023-07-05T15:15:38Z</time>
      </trkpt>
      <trkpt lat="49.28456" lon="-0.16389">
        <ele>5.1</ele>
        <time>2023-07-05T15:15:39Z</time>
      </trkpt>
      <trkpt lat="49.28457" lon="-0.16377">
        <ele>5.1</ele>
        <time>2023-07-05T15:15:40Z</time>
      </trkpt>
      <trkpt lat="49.28458" lon="-0.16366">
        <ele>5.1</ele>
        <time>2023-07-05T15:15:41Z</time>
      </trkpt>
      <trkpt lat="49.2846" lon="-0.16355">
        <ele>5</ele>
        <time>2023-07-05T15:15:42Z</time>
      </trkpt>
      <trkpt lat="49.28462" lon="-0.16343">
        <ele>5</ele>
        <time>2023-07-05T15:15:43Z</time>
      </trkpt>
      <trkpt lat="49.28463" lon="-0.16331">
        <ele>5</ele>
        <time>2023-07-05T15:15:44Z</time>
      </trkpt>
      <trkpt lat="49.28464" lon="-0.16319">
        <ele>5</ele>
        <time>2023-07-05T15:15:45Z</time>
      </trkpt>
      <trkpt lat="49.28465" lon="-0.16308">
        <ele>5</ele>
        <time>2023-07-05T15:15:46Z</time>
      </trkpt>
      <trkpt lat="49.28466" lon="-0.16296">
        <ele>4.9</ele>
        <time>2023-07-05T15:15:47Z</time>
      </trkpt>
      <trkpt lat="49.28468" lon="-0.16284">
        <ele>4.9</ele>
        <time>2023-07-05T15:15:48Z</time>
      </trkpt>
      <trkpt lat="49.2847" lon="-0.16273">
        <ele>4.9</ele>
        <time>2023-07-05T15:15:49Z</time>
      </trkpt>
      <trkpt lat="49.28471" lon="-0.16262">
        <ele>4.9</ele>
        <time>2023-07-05T15:15:50Z</time>
      </trkpt>
      <trkpt lat="49.28472" lon="-0.16251">
        <ele>4.9</ele>
        <time>2023-07-05T15:15:51Z</time>
      </trkpt>
      <trkpt lat="49.28473" lon="-0.1624">
        <ele>4.9</ele>
        <time>2023-07-05T15:15:52Z</time>
      </trkpt>
      <trkpt lat="49.28474" lon="-0.16229">
        <ele>4.8</ele>
        <time>2023-07-05T15:15:53Z</time>
      </trkpt>
      <trkpt lat="49.28475" lon="-0.16219">
        <ele>4.8</ele>
        <time>2023-07-05T15:15:54Z</time>
      </trkpt>
      <trkpt lat="49.28475" lon="-0.16208">
        <ele>4.8</ele>
        <time>2023-07-05T15:15:55Z</time>
      </trkpt>
      <trkpt lat="49.28475" lon="-0.16197">
        <ele>4.8</ele>
        <time>2023-07-05T15:15:56Z</time>
      </trkpt>
      <trkpt lat="49.28475" lon="-0.16186">
        <ele>4.8</ele>
        <time>2023-07-05T15:15:57Z</time>
      </trkpt>
      <trkpt lat="49.28474" lon="-0.16175">
        <ele>4.9</ele>
        <time>2023-07-05T15:15:58Z</time>
      </trkpt>
      <trkpt lat="49.28474" lon="-0.16165">
        <ele>4.9</ele>
        <time>2023-07-05T15:15:59Z</time>
      </trkpt>
      <trkpt lat="49.28474" lon="-0.16155">
        <ele>4.8</ele>
        <time>2023-07-05T15:16:00Z</time>
      </trkpt>
      <trkpt lat="49.28473" lon="-0.16145">
        <ele>4.8</ele>
        <time>2023-07-05T15:16:01Z</time>
      </trkpt>
      <trkpt lat="49.28471" lon="-0.16135">
        <ele>4.8</ele>
        <time>2023-07-05T15:16:02Z</time>
      </trkpt>
      <trkpt lat="49.28471" lon="-0.16126">
        <ele>4.8</ele>
        <time>2023-07-05T15:16:03Z</time>
      </trkpt>
      <trkpt lat="49.2847" lon="-0.16115">
        <ele>4.8</ele>
        <time>2023-07-05T15:16:04Z</time>
      </trkpt>
      <trkpt lat="49.28469" lon="-0.16104">
        <ele>4.8</ele>
        <time>2023-07-05T15:16:05Z</time>
      </trkpt>
      <trkpt lat="49.28468" lon="-0.16093">
        <ele>4.8</ele>
        <time>2023-07-05T15:16:06Z</time>
      </trkpt>
      <trkpt lat="49.28467" lon="-0.16082">
        <ele>4.8</ele>
        <time>2023-07-05T15:16:07Z</time>
      </trkpt>
      <trkpt lat="49.28467" lon="-0.1607">
        <ele>4.8</ele>
        <time>2023-07-05T15:16:08Z</time>
      </trkpt>
      <trkpt lat="49.28466" lon="-0.16059">
        <ele>4.8</ele>
        <time>2023-07-05T15:16:09Z</time>
      </trkpt>
      <trkpt lat="49.28465" lon="-0.16048">
        <ele>4.8</ele>
        <time>2023-07-05T15:16:10Z</time>
      </trkpt>
      <trkpt lat="49.28464" lon="-0.16036">
        <ele>4.8</ele>
        <time>2023-07-05T15:16:11Z</time>
      </trkpt>
      <trkpt lat="49.28464" lon="-0.16025">
        <ele>4.8</ele>
        <time>2023-07-05T15:16:12Z</time>
      </trkpt>
      <trkpt lat="49.28464" lon="-0.16013">
        <ele>4.8</ele>
        <time>2023-07-05T15:16:13Z</time>
      </trkpt>
      <trkpt lat="49.28463" lon="-0.16002">
        <ele>4.8</ele>
        <time>2023-07-05T15:16:14Z</time>
      </trkpt>
      <trkpt lat="49.28463" lon="-0.1599">
        <ele>4.8</ele>
        <time>2023-07-05T15:16:15Z</time>
      </trkpt>
      <trkpt lat="49.28462" lon="-0.15979">
        <ele>4.8</ele>
        <time>2023-07-05T15:16:16Z</time>
      </trkpt>
      <trkpt lat="49.28461" lon="-0.15968">
        <ele>4.7</ele>
        <time>2023-07-05T15:16:17Z</time>
      </trkpt>
      <trkpt lat="49.28461" lon="-0.15956">
        <ele>4.7</ele>
        <time>2023-07-05T15:16:18Z</time>
      </trkpt>
      <trkpt lat="49.2846" lon="-0.15945">
        <ele>4.7</ele>
        <time>2023-07-05T15:16:19Z</time>
      </trkpt>
      <trkpt lat="49.28459" lon="-0.15934">
        <ele>4.7</ele>
        <time>2023-07-05T15:16:20Z</time>
      </trkpt>
      <trkpt lat="49.28459" lon="-0.15922">
        <ele>4.7</ele>
        <time>2023-07-05T15:16:21Z</time>
      </trkpt>
      <trkpt lat="49.28459" lon="-0.1591">
        <ele>4.7</ele>
        <time>2023-07-05T15:16:22Z</time>
      </trkpt>
      <trkpt lat="49.28458" lon="-0.15898">
        <ele>4.8</ele>
        <time>2023-07-05T15:16:23Z</time>
      </trkpt>
      <trkpt lat="49.28458" lon="-0.15886">
        <ele>4.8</ele>
        <time>2023-07-05T15:16:24Z</time>
      </trkpt>
      <trkpt lat="49.28457" lon="-0.15875">
        <ele>4.8</ele>
        <time>2023-07-05T15:16:25Z</time>
      </trkpt>
      <trkpt lat="49.28457" lon="-0.15864">
        <ele>4.8</ele>
        <time>2023-07-05T15:16:26Z</time>
      </trkpt>
      <trkpt lat="49.28456" lon="-0.15853">
        <ele>4.8</ele>
        <time>2023-07-05T15:16:27Z</time>
      </trkpt>
      <trkpt lat="49.28456" lon="-0.15842">
        <ele>4.8</ele>
        <time>2023-07-05T15:16:28Z</time>
      </trkpt>
      <trkpt lat="49.28456" lon="-0.1583">
        <ele>4.9</ele>
        <time>2023-07-05T15:16:29Z</time>
      </trkpt>
      <trkpt lat="49.28455" lon="-0.15819">
        <ele>4.9</ele>
        <time>2023-07-05T15:16:30Z</time>
      </trkpt>
      <trkpt lat="49.28455" lon="-0.15807">
        <ele>4.9</ele>
        <time>2023-07-05T15:16:31Z</time>
      </trkpt>
      <trkpt lat="49.28454" lon="-0.15795">
        <ele>4.9</ele>
        <time>2023-07-05T15:16:32Z</time>
      </trkpt>
      <trkpt lat="49.28453" lon="-0.15784">
        <ele>4.9</ele>
        <time>2023-07-05T15:16:33Z</time>
      </trkpt>
      <trkpt lat="49.28452" lon="-0.15773">
        <ele>4.9</ele>
        <time>2023-07-05T15:16:34Z</time>
      </trkpt>
      <trkpt lat="49.28451" lon="-0.15762">
        <ele>4.9</ele>
        <time>2023-07-05T15:16:35Z</time>
      </trkpt>
      <trkpt lat="49.28451" lon="-0.1575">
        <ele>4.9</ele>
        <time>2023-07-05T15:16:36Z</time>
      </trkpt>
      <trkpt lat="49.28451" lon="-0.15738">
        <ele>4.9</ele>
        <time>2023-07-05T15:16:37Z</time>
      </trkpt>
      <trkpt lat="49.2845" lon="-0.15725">
        <ele>4.9</ele>
        <time>2023-07-05T15:16:38Z</time>
      </trkpt>
      <trkpt lat="49.2845" lon="-0.15714">
        <ele>4.8</ele>
        <time>2023-07-05T15:16:39Z</time>
      </trkpt>
      <trkpt lat="49.28449" lon="-0.15702">
        <ele>4.8</ele>
        <time>2023-07-05T15:16:40Z</time>
      </trkpt>
      <trkpt lat="49.28449" lon="-0.15691">
        <ele>4.8</ele>
        <time>2023-07-05T15:16:41Z</time>
      </trkpt>
      <trkpt lat="49.28448" lon="-0.15679">
        <ele>4.8</ele>
        <time>2023-07-05T15:16:42Z</time>
      </trkpt>
      <trkpt lat="49.28448" lon="-0.15668">
        <ele>4.8</ele>
        <time>2023-07-05T15:16:43Z</time>
      </trkpt>
      <trkpt lat="49.28447" lon="-0.15656">
        <ele>4.8</ele>
        <time>2023-07-05T15:16:44Z</time>
      </trkpt>
      <trkpt lat="49.28447" lon="-0.15644">
        <ele>4.8</ele>
        <time>2023-07-05T15:16:45Z</time>
      </trkpt>
      <trkpt lat="49.28447" lon="-0.15633">
        <ele>4.7</ele>
        <time>2023-07-05T15:16:46Z</time>
      </trkpt>
      <trkpt lat="49.28446" lon="-0.15622">
        <ele>4.7</ele>
        <time>2023-07-05T15:16:47Z</time>
      </trkpt>
      <trkpt lat="49.28446" lon="-0.1561">
        <ele>4.7</ele>
        <time>2023-07-05T15:16:48Z</time>
      </trkpt>
      <trkpt lat="49.28446" lon="-0.15598">
        <ele>4.7</ele>
        <time>2023-07-05T15:16:49Z</time>
      </trkpt>
      <trkpt lat="49.28445" lon="-0.15586">
        <ele>4.7</ele>
        <time>2023-07-05T15:16:50Z</time>
      </trkpt>
      <trkpt lat="49.28445" lon="-0.15574">
        <ele>4.7</ele>
        <time>2023-07-05T15:16:51Z</time>
      </trkpt>
      <trkpt lat="49.28444" lon="-0.15562">
        <ele>4.7</ele>
        <time>2023-07-05T15:16:52Z</time>
      </trkpt>
      <trkpt lat="49.28444" lon="-0.1555">
        <ele>4.7</ele>
        <time>2023-07-05T15:16:53Z</time>
      </trkpt>
      <trkpt lat="49.28444" lon="-0.15538">
        <ele>4.7</ele>
        <time>2023-07-05T15:16:54Z</time>
      </trkpt>
      <trkpt lat="49.28443" lon="-0.15527">
        <ele>4.6</ele>
        <time>2023-07-05T15:16:55Z</time>
      </trkpt>
      <trkpt lat="49.28443" lon="-0.15516">
        <ele>4.6</ele>
        <time>2023-07-05T15:16:56Z</time>
      </trkpt>
      <trkpt lat="49.28443" lon="-0.15505">
        <ele>4.6</ele>
        <time>2023-07-05T15:16:57Z</time>
      </trkpt>
      <trkpt lat="49.28442" lon="-0.15494">
        <ele>4.6</ele>
        <time>2023-07-05T15:16:58Z</time>
      </trkpt>
      <trkpt lat="49.28442" lon="-0.15482">
        <ele>4.5</ele>
        <time>2023-07-05T15:16:59Z</time>
      </trkpt>
      <trkpt lat="49.28441" lon="-0.15471">
        <ele>4.5</ele>
        <time>2023-07-05T15:17:00Z</time>
      </trkpt>
      <trkpt lat="49.2844" lon="-0.1546">
        <ele>4.4</ele>
        <time>2023-07-05T15:17:01Z</time>
      </trkpt>
      <trkpt lat="49.2844" lon="-0.15448">
        <ele>4.4</ele>
        <time>2023-07-05T15:17:02Z</time>
      </trkpt>
      <trkpt lat="49.28439" lon="-0.15437">
        <ele>4.3</ele>
        <time>2023-07-05T15:17:03Z</time>
      </trkpt>
      <trkpt lat="49.28439" lon="-0.15426">
        <ele>4.3</ele>
        <time>2023-07-05T15:17:04Z</time>
      </trkpt>
      <trkpt lat="49.28438" lon="-0.15414">
        <ele>4.3</ele>
        <time>2023-07-05T15:17:05Z</time>
      </trkpt>
      <trkpt lat="49.28438" lon="-0.15402">
        <ele>4.3</ele>
        <time>2023-07-05T15:17:06Z</time>
      </trkpt>
      <trkpt lat="49.28438" lon="-0.15391">
        <ele>4.3</ele>
        <time>2023-07-05T15:17:07Z</time>
      </trkpt>
      <trkpt lat="49.28437" lon="-0.1538">
        <ele>4.3</ele>
        <time>2023-07-05T15:17:08Z</time>
      </trkpt>
      <trkpt lat="49.28437" lon="-0.15369">
        <ele>4.3</ele>
        <time>2023-07-05T15:17:09Z</time>
      </trkpt>
      <trkpt lat="49.28437" lon="-0.15357">
        <ele>4.3</ele>
        <time>2023-07-05T15:17:10Z</time>
      </trkpt>
      <trkpt lat="49.28436" lon="-0.15346">
        <ele>4.3</ele>
        <time>2023-07-05T15:17:11Z</time>
      </trkpt>
      <trkpt lat="49.28436" lon="-0.15335">
        <ele>4.3</ele>
        <time>2023-07-05T15:17:12Z</time>
      </trkpt>
      <trkpt lat="49.28435" lon="-0.15324">
        <ele>4.3</ele>
        <time>2023-07-05T15:17:13Z</time>
      </trkpt>
      <trkpt lat="49.28435" lon="-0.15312">
        <ele>4.3</ele>
        <time>2023-07-05T15:17:14Z</time>
      </trkpt>
      <trkpt lat="49.28435" lon="-0.15301">
        <ele>4.3</ele>
        <time>2023-07-05T15:17:15Z</time>
      </trkpt>
      <trkpt lat="49.28435" lon="-0.1529">
        <ele>4.3</ele>
        <time>2023-07-05T15:17:16Z</time>
      </trkpt>
      <trkpt lat="49.28435" lon="-0.15279">
        <ele>4.4</ele>
        <time>2023-07-05T15:17:17Z</time>
      </trkpt>
      <trkpt lat="49.28435" lon="-0.15267">
        <ele>4.4</ele>
        <time>2023-07-05T15:17:18Z</time>
      </trkpt>
      <trkpt lat="49.28435" lon="-0.15256">
        <ele>4.4</ele>
        <time>2023-07-05T15:17:19Z</time>
      </trkpt>
      <trkpt lat="49.28435" lon="-0.15246">
        <ele>4.5</ele>
        <time>2023-07-05T15:17:20Z</time>
      </trkpt>
      <trkpt lat="49.28435" lon="-0.15234">
        <ele>4.5</ele>
        <time>2023-07-05T15:17:21Z</time>
      </trkpt>
      <trkpt lat="49.28434" lon="-0.15223">
        <ele>4.5</ele>
        <time>2023-07-05T15:17:22Z</time>
      </trkpt>
      <trkpt lat="49.28434" lon="-0.15212">
        <ele>4.5</ele>
        <time>2023-07-05T15:17:23Z</time>
      </trkpt>
      <trkpt lat="49.28433" lon="-0.15201">
        <ele>4.5</ele>
        <time>2023-07-05T15:17:24Z</time>
      </trkpt>
      <trkpt lat="49.28433" lon="-0.1519">
        <ele>4.5</ele>
        <time>2023-07-05T15:17:25Z</time>
      </trkpt>
      <trkpt lat="49.28432" lon="-0.1518">
        <ele>4.5</ele>
        <time>2023-07-05T15:17:26Z</time>
      </trkpt>
      <trkpt lat="49.28431" lon="-0.1517">
        <ele>4.5</ele>
        <time>2023-07-05T15:17:27Z</time>
      </trkpt>
      <trkpt lat="49.2843" lon="-0.15159">
        <ele>4.5</ele>
        <time>2023-07-05T15:17:28Z</time>
      </trkpt>
      <trkpt lat="49.2843" lon="-0.15149">
        <ele>4.5</ele>
        <time>2023-07-05T15:17:29Z</time>
      </trkpt>
      <trkpt lat="49.2843" lon="-0.15138">
        <ele>4.5</ele>
        <time>2023-07-05T15:17:30Z</time>
      </trkpt>
      <trkpt lat="49.2843" lon="-0.15127">
        <ele>4.5</ele>
        <time>2023-07-05T15:17:31Z</time>
      </trkpt>
      <trkpt lat="49.2843" lon="-0.15116">
        <ele>4.5</ele>
        <time>2023-07-05T15:17:32Z</time>
      </trkpt>
      <trkpt lat="49.2843" lon="-0.15105">
        <ele>4.5</ele>
        <time>2023-07-05T15:17:33Z</time>
      </trkpt>
      <trkpt lat="49.28429" lon="-0.15094">
        <ele>4.5</ele>
        <time>2023-07-05T15:17:34Z</time>
      </trkpt>
      <trkpt lat="49.2843" lon="-0.15083">
        <ele>4.5</ele>
        <time>2023-07-05T15:17:35Z</time>
      </trkpt>
      <trkpt lat="49.2843" lon="-0.15072">
        <ele>4.5</ele>
        <time>2023-07-05T15:17:36Z</time>
      </trkpt>
      <trkpt lat="49.28431" lon="-0.15061">
        <ele>4.6</ele>
        <time>2023-07-05T15:17:37Z</time>
      </trkpt>
      <trkpt lat="49.28432" lon="-0.1505">
        <ele>4.6</ele>
        <time>2023-07-05T15:17:38Z</time>
      </trkpt>
      <trkpt lat="49.28434" lon="-0.15039">
        <ele>4.6</ele>
        <time>2023-07-05T15:17:39Z</time>
      </trkpt>
      <trkpt lat="49.28435" lon="-0.15027">
        <ele>4.6</ele>
        <time>2023-07-05T15:17:40Z</time>
      </trkpt>
      <trkpt lat="49.28436" lon="-0.15015">
        <ele>4.6</ele>
        <time>2023-07-05T15:17:41Z</time>
      </trkpt>
      <trkpt lat="49.28438" lon="-0.15004">
        <ele>4.6</ele>
        <time>2023-07-05T15:17:42Z</time>
      </trkpt>
      <trkpt lat="49.28439" lon="-0.14992">
        <ele>4.6</ele>
        <time>2023-07-05T15:17:43Z</time>
      </trkpt>
      <trkpt lat="49.2844" lon="-0.1498">
        <ele>4.6</ele>
        <time>2023-07-05T15:17:44Z</time>
      </trkpt>
      <trkpt lat="49.2844" lon="-0.14969">
        <ele>4.6</ele>
        <time>2023-07-05T15:17:45Z</time>
      </trkpt>
      <trkpt lat="49.28441" lon="-0.14957">
        <ele>4.6</ele>
        <time>2023-07-05T15:17:46Z</time>
      </trkpt>
      <trkpt lat="49.28441" lon="-0.14945">
        <ele>4.6</ele>
        <time>2023-07-05T15:17:47Z</time>
      </trkpt>
      <trkpt lat="49.28442" lon="-0.14932">
        <ele>4.6</ele>
        <time>2023-07-05T15:17:48Z</time>
      </trkpt>
      <trkpt lat="49.28443" lon="-0.14921">
        <ele>4.6</ele>
        <time>2023-07-05T15:17:49Z</time>
      </trkpt>
      <trkpt lat="49.28443" lon="-0.14909">
        <ele>4.6</ele>
        <time>2023-07-05T15:17:50Z</time>
      </trkpt>
      <trkpt lat="49.28444" lon="-0.14897">
        <ele>4.6</ele>
        <time>2023-07-05T15:17:51Z</time>
      </trkpt>
      <trkpt lat="49.28444" lon="-0.14885">
        <ele>4.6</ele>
        <time>2023-07-05T15:17:52Z</time>
      </trkpt>
      <trkpt lat="49.28445" lon="-0.14873">
        <ele>4.6</ele>
        <time>2023-07-05T15:17:53Z</time>
      </trkpt>
      <trkpt lat="49.28446" lon="-0.14862">
        <ele>4.6</ele>
        <time>2023-07-05T15:17:54Z</time>
      </trkpt>
      <trkpt lat="49.28446" lon="-0.1485">
        <ele>4.5</ele>
        <time>2023-07-05T15:17:55Z</time>
      </trkpt>
      <trkpt lat="49.28447" lon="-0.14838">
        <ele>4.5</ele>
        <time>2023-07-05T15:17:56Z</time>
      </trkpt>
      <trkpt lat="49.28448" lon="-0.14826">
        <ele>4.5</ele>
        <time>2023-07-05T15:17:57Z</time>
      </trkpt>
      <trkpt lat="49.28449" lon="-0.14814">
        <ele>4.5</ele>
        <time>2023-07-05T15:17:58Z</time>
      </trkpt>
      <trkpt lat="49.2845" lon="-0.14802">
        <ele>4.5</ele>
        <time>2023-07-05T15:17:59Z</time>
      </trkpt>
      <trkpt lat="49.28451" lon="-0.1479">
        <ele>4.5</ele>
        <time>2023-07-05T15:18:00Z</time>
      </trkpt>
      <trkpt lat="49.28452" lon="-0.14779">
        <ele>4.5</ele>
        <time>2023-07-05T15:18:01Z</time>
      </trkpt>
      <trkpt lat="49.28453" lon="-0.14767">
        <ele>4.5</ele>
        <time>2023-07-05T15:18:02Z</time>
      </trkpt>
      <trkpt lat="49.28454" lon="-0.14756">
        <ele>4.5</ele>
        <time>2023-07-05T15:18:03Z</time>
      </trkpt>
      <trkpt lat="49.28454" lon="-0.14745">
        <ele>4.5</ele>
        <time>2023-07-05T15:18:04Z</time>
      </trkpt>
      <trkpt lat="49.28455" lon="-0.14734">
        <ele>4.5</ele>
        <time>2023-07-05T15:18:05Z</time>
      </trkpt>
      <trkpt lat="49.28456" lon="-0.14722">
        <ele>4.5</ele>
        <time>2023-07-05T15:18:06Z</time>
      </trkpt>
      <trkpt lat="49.28456" lon="-0.1471">
        <ele>4.5</ele>
        <time>2023-07-05T15:18:07Z</time>
      </trkpt>
      <trkpt lat="49.28457" lon="-0.14699">
        <ele>4.5</ele>
        <time>2023-07-05T15:18:08Z</time>
      </trkpt>
      <trkpt lat="49.28458" lon="-0.14688">
        <ele>4.5</ele>
        <time>2023-07-05T15:18:09Z</time>
      </trkpt>
      <trkpt lat="49.28458" lon="-0.14676">
        <ele>4.5</ele>
        <time>2023-07-05T15:18:10Z</time>
      </trkpt>
      <trkpt lat="49.28459" lon="-0.14665">
        <ele>4.5</ele>
        <time>2023-07-05T15:18:11Z</time>
      </trkpt>
      <trkpt lat="49.2846" lon="-0.14654">
        <ele>4.5</ele>
        <time>2023-07-05T15:18:12Z</time>
      </trkpt>
      <trkpt lat="49.28461" lon="-0.14642">
        <ele>4.5</ele>
        <time>2023-07-05T15:18:13Z</time>
      </trkpt>
      <trkpt lat="49.28461" lon="-0.14631">
        <ele>4.5</ele>
        <time>2023-07-05T15:18:14Z</time>
      </trkpt>
      <trkpt lat="49.28462" lon="-0.14619">
        <ele>4.5</ele>
        <time>2023-07-05T15:18:15Z</time>
      </trkpt>
      <trkpt lat="49.28462" lon="-0.14607">
        <ele>4.5</ele>
        <time>2023-07-05T15:18:16Z</time>
      </trkpt>
      <trkpt lat="49.28463" lon="-0.14595">
        <ele>4.5</ele>
        <time>2023-07-05T15:18:17Z</time>
      </trkpt>
      <trkpt lat="49.28464" lon="-0.14584">
        <ele>4.5</ele>
        <time>2023-07-05T15:18:18Z</time>
      </trkpt>
      <trkpt lat="49.28464" lon="-0.14572">
        <ele>4.5</ele>
        <time>2023-07-05T15:18:19Z</time>
      </trkpt>
      <trkpt lat="49.28465" lon="-0.1456">
        <ele>4.5</ele>
        <time>2023-07-05T15:18:20Z</time>
      </trkpt>
      <trkpt lat="49.28466" lon="-0.14549">
        <ele>4.5</ele>
        <time>2023-07-05T15:18:21Z</time>
      </trkpt>
      <trkpt lat="49.28468" lon="-0.14538">
        <ele>4.5</ele>
        <time>2023-07-05T15:18:22Z</time>
      </trkpt>
      <trkpt lat="49.28469" lon="-0.14526">
        <ele>4.6</ele>
        <time>2023-07-05T15:18:23Z</time>
      </trkpt>
      <trkpt lat="49.28471" lon="-0.14514">
        <ele>4.6</ele>
        <time>2023-07-05T15:18:24Z</time>
      </trkpt>
      <trkpt lat="49.28473" lon="-0.14502">
        <ele>4.6</ele>
        <time>2023-07-05T15:18:25Z</time>
      </trkpt>
      <trkpt lat="49.28475" lon="-0.14491">
        <ele>4.6</ele>
        <time>2023-07-05T15:18:26Z</time>
      </trkpt>
      <trkpt lat="49.28477" lon="-0.14479">
        <ele>4.6</ele>
        <time>2023-07-05T15:18:27Z</time>
      </trkpt>
      <trkpt lat="49.2848" lon="-0.14468">
        <ele>4.7</ele>
        <time>2023-07-05T15:18:28Z</time>
      </trkpt>
      <trkpt lat="49.28483" lon="-0.14457">
        <ele>4.7</ele>
        <time>2023-07-05T15:18:29Z</time>
      </trkpt>
      <trkpt lat="49.28485" lon="-0.14446">
        <ele>4.7</ele>
        <time>2023-07-05T15:18:30Z</time>
      </trkpt>
      <trkpt lat="49.28488" lon="-0.14435">
        <ele>4.7</ele>
        <time>2023-07-05T15:18:31Z</time>
      </trkpt>
      <trkpt lat="49.28491" lon="-0.14424">
        <ele>4.7</ele>
        <time>2023-07-05T15:18:32Z</time>
      </trkpt>
      <trkpt lat="49.28494" lon="-0.14413">
        <ele>4.7</ele>
        <time>2023-07-05T15:18:33Z</time>
      </trkpt>
      <trkpt lat="49.28496" lon="-0.14402">
        <ele>4.8</ele>
        <time>2023-07-05T15:18:34Z</time>
      </trkpt>
      <trkpt lat="49.28498" lon="-0.14391">
        <ele>4.8</ele>
        <time>2023-07-05T15:18:35Z</time>
      </trkpt>
      <trkpt lat="49.28501" lon="-0.1438">
        <ele>4.8</ele>
        <time>2023-07-05T15:18:36Z</time>
      </trkpt>
      <trkpt lat="49.28502" lon="-0.14369">
        <ele>4.8</ele>
        <time>2023-07-05T15:18:37Z</time>
      </trkpt>
      <trkpt lat="49.28504" lon="-0.14358">
        <ele>4.8</ele>
        <time>2023-07-05T15:18:38Z</time>
      </trkpt>
      <trkpt lat="49.28506" lon="-0.14346">
        <ele>4.8</ele>
        <time>2023-07-05T15:18:39Z</time>
      </trkpt>
      <trkpt lat="49.28509" lon="-0.14335">
        <ele>4.8</ele>
        <time>2023-07-05T15:18:40Z</time>
      </trkpt>
      <trkpt lat="49.2851" lon="-0.14324">
        <ele>4.9</ele>
        <time>2023-07-05T15:18:41Z</time>
      </trkpt>
      <trkpt lat="49.28512" lon="-0.14313">
        <ele>4.9</ele>
        <time>2023-07-05T15:18:42Z</time>
      </trkpt>
      <trkpt lat="49.28513" lon="-0.14302">
        <ele>4.9</ele>
        <time>2023-07-05T15:18:43Z</time>
      </trkpt>
      <trkpt lat="49.28515" lon="-0.14291">
        <ele>4.9</ele>
        <time>2023-07-05T15:18:44Z</time>
      </trkpt>
      <trkpt lat="49.28516" lon="-0.1428">
        <ele>4.9</ele>
        <time>2023-07-05T15:18:45Z</time>
      </trkpt>
      <trkpt lat="49.28518" lon="-0.1427">
        <ele>5</ele>
        <time>2023-07-05T15:18:46Z</time>
      </trkpt>
      <trkpt lat="49.28519" lon="-0.14259">
        <ele>5</ele>
        <time>2023-07-05T15:18:47Z</time>
      </trkpt>
      <trkpt lat="49.2852" lon="-0.14248">
        <ele>5</ele>
        <time>2023-07-05T15:18:48Z</time>
      </trkpt>
      <trkpt lat="49.28522" lon="-0.14237">
        <ele>5</ele>
        <time>2023-07-05T15:18:49Z</time>
      </trkpt>
      <trkpt lat="49.28523" lon="-0.14226">
        <ele>5</ele>
        <time>2023-07-05T15:18:50Z</time>
      </trkpt>
      <trkpt lat="49.28525" lon="-0.14214">
        <ele>4.9</ele>
        <time>2023-07-05T15:18:51Z</time>
      </trkpt>
      <trkpt lat="49.28527" lon="-0.14202">
        <ele>4.9</ele>
        <time>2023-07-05T15:18:52Z</time>
      </trkpt>
      <trkpt lat="49.28528" lon="-0.14191">
        <ele>4.9</ele>
        <time>2023-07-05T15:18:53Z</time>
      </trkpt>
      <trkpt lat="49.2853" lon="-0.14179">
        <ele>4.9</ele>
        <time>2023-07-05T15:18:54Z</time>
      </trkpt>
      <trkpt lat="49.28531" lon="-0.14167">
        <ele>4.9</ele>
        <time>2023-07-05T15:18:55Z</time>
      </trkpt>
      <trkpt lat="49.28532" lon="-0.14155">
        <ele>4.9</ele>
        <time>2023-07-05T15:18:56Z</time>
      </trkpt>
      <trkpt lat="49.28534" lon="-0.14144">
        <ele>4.9</ele>
        <time>2023-07-05T15:18:57Z</time>
      </trkpt>
      <trkpt lat="49.28535" lon="-0.14132">
        <ele>4.9</ele>
        <time>2023-07-05T15:18:58Z</time>
      </trkpt>
      <trkpt lat="49.28537" lon="-0.1412">
        <ele>4.9</ele>
        <time>2023-07-05T15:18:59Z</time>
      </trkpt>
      <trkpt lat="49.28539" lon="-0.14109">
        <ele>4.9</ele>
        <time>2023-07-05T15:19:00Z</time>
      </trkpt>
      <trkpt lat="49.2854" lon="-0.14097">
        <ele>4.9</ele>
        <time>2023-07-05T15:19:01Z</time>
      </trkpt>
      <trkpt lat="49.28541" lon="-0.14086">
        <ele>4.9</ele>
        <time>2023-07-05T15:19:02Z</time>
      </trkpt>
      <trkpt lat="49.28542" lon="-0.14075">
        <ele>4.8</ele>
        <time>2023-07-05T15:19:03Z</time>
      </trkpt>
      <trkpt lat="49.28543" lon="-0.14063">
        <ele>4.8</ele>
        <time>2023-07-05T15:19:04Z</time>
      </trkpt>
      <trkpt lat="49.28544" lon="-0.14051">
        <ele>4.8</ele>
        <time>2023-07-05T15:19:05Z</time>
      </trkpt>
      <trkpt lat="49.28544" lon="-0.14039">
        <ele>4.8</ele>
        <time>2023-07-05T15:19:06Z</time>
      </trkpt>
      <trkpt lat="49.28544" lon="-0.14028">
        <ele>4.8</ele>
        <time>2023-07-05T15:19:07Z</time>
      </trkpt>
      <trkpt lat="49.28544" lon="-0.14016">
        <ele>4.8</ele>
        <time>2023-07-05T15:19:08Z</time>
      </trkpt>
      <trkpt lat="49.28545" lon="-0.14005">
        <ele>4.8</ele>
        <time>2023-07-05T15:19:09Z</time>
      </trkpt>
      <trkpt lat="49.28545" lon="-0.13994">
        <ele>4.8</ele>
        <time>2023-07-05T15:19:10Z</time>
      </trkpt>
      <trkpt lat="49.28545" lon="-0.13982">
        <ele>4.8</ele>
        <time>2023-07-05T15:19:11Z</time>
      </trkpt>
      <trkpt lat="49.28545" lon="-0.13971">
        <ele>4.8</ele>
        <time>2023-07-05T15:19:12Z</time>
      </trkpt>
      <trkpt lat="49.28546" lon="-0.1396">
        <ele>4.8</ele>
        <time>2023-07-05T15:19:13Z</time>
      </trkpt>
      <trkpt lat="49.28547" lon="-0.13949">
        <ele>4.7</ele>
        <time>2023-07-05T15:19:14Z</time>
      </trkpt>
      <trkpt lat="49.28547" lon="-0.13938">
        <ele>4.7</ele>
        <time>2023-07-05T15:19:15Z</time>
      </trkpt>
      <trkpt lat="49.28548" lon="-0.13927">
        <ele>4.8</ele>
        <time>2023-07-05T15:19:16Z</time>
      </trkpt>
      <trkpt lat="49.28549" lon="-0.13916">
        <ele>4.8</ele>
        <time>2023-07-05T15:19:17Z</time>
      </trkpt>
      <trkpt lat="49.2855" lon="-0.13905">
        <ele>4.8</ele>
        <time>2023-07-05T15:19:18Z</time>
      </trkpt>
      <trkpt lat="49.28551" lon="-0.13894">
        <ele>4.8</ele>
        <time>2023-07-05T15:19:19Z</time>
      </trkpt>
      <trkpt lat="49.28552" lon="-0.13884">
        <ele>4.8</ele>
        <time>2023-07-05T15:19:20Z</time>
      </trkpt>
      <trkpt lat="49.28553" lon="-0.13874">
        <ele>4.8</ele>
        <time>2023-07-05T15:19:21Z</time>
      </trkpt>
      <trkpt lat="49.28554" lon="-0.13863">
        <ele>4.8</ele>
        <time>2023-07-05T15:19:22Z</time>
      </trkpt>
      <trkpt lat="49.28556" lon="-0.13853">
        <ele>4.8</ele>
        <time>2023-07-05T15:19:23Z</time>
      </trkpt>
      <trkpt lat="49.28557" lon="-0.13843">
        <ele>4.8</ele>
        <time>2023-07-05T15:19:24Z</time>
      </trkpt>
      <trkpt lat="49.28558" lon="-0.13833">
        <ele>4.8</ele>
        <time>2023-07-05T15:19:25Z</time>
      </trkpt>
      <trkpt lat="49.2856" lon="-0.13823">
        <ele>4.9</ele>
        <time>2023-07-05T15:19:26Z</time>
      </trkpt>
      <trkpt lat="49.28561" lon="-0.13812">
        <ele>4.9</ele>
        <time>2023-07-05T15:19:27Z</time>
      </trkpt>
      <trkpt lat="49.28562" lon="-0.13801">
        <ele>4.9</ele>
        <time>2023-07-05T15:19:28Z</time>
      </trkpt>
      <trkpt lat="49.28563" lon="-0.13789">
        <ele>4.9</ele>
        <time>2023-07-05T15:19:29Z</time>
      </trkpt>
      <trkpt lat="49.28565" lon="-0.13778">
        <ele>4.9</ele>
        <time>2023-07-05T15:19:30Z</time>
      </trkpt>
      <trkpt lat="49.28566" lon="-0.13766">
        <ele>4.9</ele>
        <time>2023-07-05T15:19:31Z</time>
      </trkpt>
      <trkpt lat="49.28568" lon="-0.13754">
        <ele>5</ele>
        <time>2023-07-05T15:19:32Z</time>
      </trkpt>
      <trkpt lat="49.2857" lon="-0.13743">
        <ele>5</ele>
        <time>2023-07-05T15:19:33Z</time>
      </trkpt>
      <trkpt lat="49.28572" lon="-0.13732">
        <ele>5</ele>
        <time>2023-07-05T15:19:34Z</time>
      </trkpt>
      <trkpt lat="49.28574" lon="-0.1372">
        <ele>5</ele>
        <time>2023-07-05T15:19:35Z</time>
      </trkpt>
      <trkpt lat="49.28575" lon="-0.13709">
        <ele>5.1</ele>
        <time>2023-07-05T15:19:36Z</time>
      </trkpt>
      <trkpt lat="49.28577" lon="-0.13697">
        <ele>5.1</ele>
        <time>2023-07-05T15:19:37Z</time>
      </trkpt>
      <trkpt lat="49.28578" lon="-0.13686">
        <ele>5.1</ele>
        <time>2023-07-05T15:19:38Z</time>
      </trkpt>
      <trkpt lat="49.2858" lon="-0.13676">
        <ele>5.1</ele>
        <time>2023-07-05T15:19:39Z</time>
      </trkpt>
      <trkpt lat="49.28581" lon="-0.13664">
        <ele>5.2</ele>
        <time>2023-07-05T15:19:40Z</time>
      </trkpt>
      <trkpt lat="49.28583" lon="-0.13653">
        <ele>5.2</ele>
        <time>2023-07-05T15:19:41Z</time>
      </trkpt>
      <trkpt lat="49.28584" lon="-0.13643">
        <ele>5.2</ele>
        <time>2023-07-05T15:19:42Z</time>
      </trkpt>
      <trkpt lat="49.28585" lon="-0.13632">
        <ele>5.2</ele>
        <time>2023-07-05T15:19:43Z</time>
      </trkpt>
      <trkpt lat="49.28587" lon="-0.13622">
        <ele>5.3</ele>
        <time>2023-07-05T15:19:44Z</time>
      </trkpt>
      <trkpt lat="49.28588" lon="-0.13611">
        <ele>5.3</ele>
        <time>2023-07-05T15:19:45Z</time>
      </trkpt>
      <trkpt lat="49.28589" lon="-0.13601">
        <ele>5.3</ele>
        <time>2023-07-05T15:19:46Z</time>
      </trkpt>
      <trkpt lat="49.2859" lon="-0.1359">
        <ele>5.3</ele>
        <time>2023-07-05T15:19:47Z</time>
      </trkpt>
      <trkpt lat="49.28592" lon="-0.13579">
        <ele>5.3</ele>
        <time>2023-07-05T15:19:48Z</time>
      </trkpt>
      <trkpt lat="49.28593" lon="-0.13568">
        <ele>5.3</ele>
        <time>2023-07-05T15:19:49Z</time>
      </trkpt>
      <trkpt lat="49.28595" lon="-0.13557">
        <ele>5.4</ele>
        <time>2023-07-05T15:19:50Z</time>
      </trkpt>
      <trkpt lat="49.28596" lon="-0.13547">
        <ele>5.4</ele>
        <time>2023-07-05T15:19:51Z</time>
      </trkpt>
      <trkpt lat="49.28598" lon="-0.13537">
        <ele>5.4</ele>
        <time>2023-07-05T15:19:52Z</time>
      </trkpt>
      <trkpt lat="49.28599" lon="-0.13527">
        <ele>5.4</ele>
        <time>2023-07-05T15:19:53Z</time>
      </trkpt>
      <trkpt lat="49.28601" lon="-0.13516">
        <ele>5.4</ele>
        <time>2023-07-05T15:19:54Z</time>
      </trkpt>
      <trkpt lat="49.28602" lon="-0.13505">
        <ele>5.4</ele>
        <time>2023-07-05T15:19:55Z</time>
      </trkpt>
      <trkpt lat="49.28603" lon="-0.13494">
        <ele>5.4</ele>
        <time>2023-07-05T15:19:56Z</time>
      </trkpt>
      <trkpt lat="49.28605" lon="-0.13483">
        <ele>5.4</ele>
        <time>2023-07-05T15:19:57Z</time>
      </trkpt>
      <trkpt lat="49.28606" lon="-0.13472">
        <ele>5.4</ele>
        <time>2023-07-05T15:19:58Z</time>
      </trkpt>
      <trkpt lat="49.28608" lon="-0.1346">
        <ele>5.4</ele>
        <time>2023-07-05T15:19:59Z</time>
      </trkpt>
      <trkpt lat="49.28609" lon="-0.13449">
        <ele>5.4</ele>
        <time>2023-07-05T15:20:00Z</time>
      </trkpt>
      <trkpt lat="49.28611" lon="-0.13439">
        <ele>5.4</ele>
        <time>2023-07-05T15:20:01Z</time>
      </trkpt>
      <trkpt lat="49.28612" lon="-0.13428">
        <ele>5.4</ele>
        <time>2023-07-05T15:20:02Z</time>
      </trkpt>
      <trkpt lat="49.28614" lon="-0.13417">
        <ele>5.4</ele>
        <time>2023-07-05T15:20:03Z</time>
      </trkpt>
      <trkpt lat="49.28615" lon="-0.13406">
        <ele>5.4</ele>
        <time>2023-07-05T15:20:04Z</time>
      </trkpt>
      <trkpt lat="49.28617" lon="-0.13394">
        <ele>5.4</ele>
        <time>2023-07-05T15:20:05Z</time>
      </trkpt>
      <trkpt lat="49.28618" lon="-0.13382">
        <ele>5.4</ele>
        <time>2023-07-05T15:20:06Z</time>
      </trkpt>
      <trkpt lat="49.28619" lon="-0.1337">
        <ele>5.4</ele>
        <time>2023-07-05T15:20:07Z</time>
      </trkpt>
      <trkpt lat="49.28621" lon="-0.13359">
        <ele>5.4</ele>
        <time>2023-07-05T15:20:08Z</time>
      </trkpt>
      <trkpt lat="49.28622" lon="-0.13348">
        <ele>5.4</ele>
        <time>2023-07-05T15:20:09Z</time>
      </trkpt>
      <trkpt lat="49.28624" lon="-0.13337">
        <ele>5.4</ele>
        <time>2023-07-05T15:20:10Z</time>
      </trkpt>
      <trkpt lat="49.28625" lon="-0.13325">
        <ele>5.4</ele>
        <time>2023-07-05T15:20:11Z</time>
      </trkpt>
      <trkpt lat="49.28627" lon="-0.13314">
        <ele>5.3</ele>
        <time>2023-07-05T15:20:12Z</time>
      </trkpt>
      <trkpt lat="49.28629" lon="-0.13302">
        <ele>5.3</ele>
        <time>2023-07-05T15:20:13Z</time>
      </trkpt>
      <trkpt lat="49.2863" lon="-0.13291">
        <ele>5.3</ele>
        <time>2023-07-05T15:20:14Z</time>
      </trkpt>
      <trkpt lat="49.28632" lon="-0.1328">
        <ele>5.3</ele>
        <time>2023-07-05T15:20:15Z</time>
      </trkpt>
      <trkpt lat="49.28633" lon="-0.13268">
        <ele>5.3</ele>
        <time>2023-07-05T15:20:16Z</time>
      </trkpt>
      <trkpt lat="49.28634" lon="-0.13256">
        <ele>5.3</ele>
        <time>2023-07-05T15:20:17Z</time>
      </trkpt>
      <trkpt lat="49.28636" lon="-0.13245">
        <ele>5.3</ele>
        <time>2023-07-05T15:20:18Z</time>
      </trkpt>
      <trkpt lat="49.28638" lon="-0.13233">
        <ele>5.3</ele>
        <time>2023-07-05T15:20:19Z</time>
      </trkpt>
      <trkpt lat="49.28639" lon="-0.13221">
        <ele>5.3</ele>
        <time>2023-07-05T15:20:20Z</time>
      </trkpt>
      <trkpt lat="49.28641" lon="-0.13209">
        <ele>5.3</ele>
        <time>2023-07-05T15:20:21Z</time>
      </trkpt>
      <trkpt lat="49.28642" lon="-0.13197">
        <ele>5.2</ele>
        <time>2023-07-05T15:20:22Z</time>
      </trkpt>
      <trkpt lat="49.28643" lon="-0.13186">
        <ele>5.2</ele>
        <time>2023-07-05T15:20:23Z</time>
      </trkpt>
      <trkpt lat="49.28645" lon="-0.13175">
        <ele>5.2</ele>
        <time>2023-07-05T15:20:24Z</time>
      </trkpt>
      <trkpt lat="49.28646" lon="-0.13163">
        <ele>5.2</ele>
        <time>2023-07-05T15:20:25Z</time>
      </trkpt>
      <trkpt lat="49.28648" lon="-0.13152">
        <ele>5.1</ele>
        <time>2023-07-05T15:20:26Z</time>
      </trkpt>
      <trkpt lat="49.2865" lon="-0.1314">
        <ele>5.1</ele>
        <time>2023-07-05T15:20:27Z</time>
      </trkpt>
      <trkpt lat="49.28652" lon="-0.13129">
        <ele>5.1</ele>
        <time>2023-07-05T15:20:28Z</time>
      </trkpt>
      <trkpt lat="49.28653" lon="-0.13117">
        <ele>5.1</ele>
        <time>2023-07-05T15:20:29Z</time>
      </trkpt>
      <trkpt lat="49.28655" lon="-0.13106">
        <ele>5.1</ele>
        <time>2023-07-05T15:20:30Z</time>
      </trkpt>
      <trkpt lat="49.28656" lon="-0.13095">
        <ele>5.1</ele>
        <time>2023-07-05T15:20:31Z</time>
      </trkpt>
      <trkpt lat="49.28658" lon="-0.13083">
        <ele>5.1</ele>
        <time>2023-07-05T15:20:32Z</time>
      </trkpt>
      <trkpt lat="49.28659" lon="-0.13072">
        <ele>5.1</ele>
        <time>2023-07-05T15:20:33Z</time>
      </trkpt>
      <trkpt lat="49.28661" lon="-0.1306">
        <ele>5.1</ele>
        <time>2023-07-05T15:20:34Z</time>
      </trkpt>
      <trkpt lat="49.28662" lon="-0.13048">
        <ele>5.1</ele>
        <time>2023-07-05T15:20:35Z</time>
      </trkpt>
      <trkpt lat="49.28663" lon="-0.13037">
        <ele>5.1</ele>
        <time>2023-07-05T15:20:36Z</time>
      </trkpt>
      <trkpt lat="49.28665" lon="-0.13026">
        <ele>5.1</ele>
        <time>2023-07-05T15:20:37Z</time>
      </trkpt>
      <trkpt lat="49.28667" lon="-0.13014">
        <ele>5.1</ele>
        <time>2023-07-05T15:20:38Z</time>
      </trkpt>
      <trkpt lat="49.28669" lon="-0.13003">
        <ele>5.1</ele>
        <time>2023-07-05T15:20:39Z</time>
      </trkpt>
      <trkpt lat="49.2867" lon="-0.12991">
        <ele>5.1</ele>
        <time>2023-07-05T15:20:40Z</time>
      </trkpt>
      <trkpt lat="49.28672" lon="-0.12979">
        <ele>5.1</ele>
        <time>2023-07-05T15:20:41Z</time>
      </trkpt>
      <trkpt lat="49.28673" lon="-0.12968">
        <ele>5.1</ele>
        <time>2023-07-05T15:20:42Z</time>
      </trkpt>
      <trkpt lat="49.28675" lon="-0.12956">
        <ele>5.1</ele>
        <time>2023-07-05T15:20:43Z</time>
      </trkpt>
      <trkpt lat="49.28676" lon="-0.12945">
        <ele>5.1</ele>
        <time>2023-07-05T15:20:44Z</time>
      </trkpt>
      <trkpt lat="49.28678" lon="-0.12933">
        <ele>5.1</ele>
        <time>2023-07-05T15:20:45Z</time>
      </trkpt>
      <trkpt lat="49.28679" lon="-0.12922">
        <ele>5.2</ele>
        <time>2023-07-05T15:20:46Z</time>
      </trkpt>
      <trkpt lat="49.28681" lon="-0.1291">
        <ele>5.2</ele>
        <time>2023-07-05T15:20:47Z</time>
      </trkpt>
      <trkpt lat="49.28682" lon="-0.12899">
        <ele>5.2</ele>
        <time>2023-07-05T15:20:48Z</time>
      </trkpt>
      <trkpt lat="49.28684" lon="-0.12887">
        <ele>5.2</ele>
        <time>2023-07-05T15:20:49Z</time>
      </trkpt>
      <trkpt lat="49.28685" lon="-0.12876">
        <ele>5.2</ele>
        <time>2023-07-05T15:20:50Z</time>
      </trkpt>
      <trkpt lat="49.28687" lon="-0.12865">
        <ele>5.2</ele>
        <time>2023-07-05T15:20:51Z</time>
      </trkpt>
      <trkpt lat="49.28688" lon="-0.12854">
        <ele>5.2</ele>
        <time>2023-07-05T15:20:52Z</time>
      </trkpt>
      <trkpt lat="49.28689" lon="-0.12843">
        <ele>5.3</ele>
        <time>2023-07-05T15:20:53Z</time>
      </trkpt>
      <trkpt lat="49.2869" lon="-0.12832">
        <ele>5.3</ele>
        <time>2023-07-05T15:20:54Z</time>
      </trkpt>
      <trkpt lat="49.28692" lon="-0.12821">
        <ele>5.3</ele>
        <time>2023-07-05T15:20:55Z</time>
      </trkpt>
      <trkpt lat="49.28693" lon="-0.1281">
        <ele>5.3</ele>
        <time>2023-07-05T15:20:56Z</time>
      </trkpt>
      <trkpt lat="49.28695" lon="-0.12799">
        <ele>5.3</ele>
        <time>2023-07-05T15:20:57Z</time>
      </trkpt>
      <trkpt lat="49.28696" lon="-0.12788">
        <ele>5.3</ele>
        <time>2023-07-05T15:20:58Z</time>
      </trkpt>
      <trkpt lat="49.28697" lon="-0.12777">
        <ele>5.3</ele>
        <time>2023-07-05T15:20:59Z</time>
      </trkpt>
      <trkpt lat="49.28699" lon="-0.12767">
        <ele>5.3</ele>
        <time>2023-07-05T15:21:00Z</time>
      </trkpt>
      <trkpt lat="49.287" lon="-0.12756">
        <ele>5.3</ele>
        <time>2023-07-05T15:21:01Z</time>
      </trkpt>
      <trkpt lat="49.28701" lon="-0.12746">
        <ele>5.3</ele>
        <time>2023-07-05T15:21:02Z</time>
      </trkpt>
      <trkpt lat="49.28703" lon="-0.12736">
        <ele>5.3</ele>
        <time>2023-07-05T15:21:03Z</time>
      </trkpt>
      <trkpt lat="49.28704" lon="-0.12726">
        <ele>5.3</ele>
        <time>2023-07-05T15:21:04Z</time>
      </trkpt>
      <trkpt lat="49.28705" lon="-0.12715">
        <ele>5.3</ele>
        <time>2023-07-05T15:21:05Z</time>
      </trkpt>
      <trkpt lat="49.28707" lon="-0.12704">
        <ele>5.3</ele>
        <time>2023-07-05T15:21:06Z</time>
      </trkpt>
      <trkpt lat="49.28708" lon="-0.12693">
        <ele>5.3</ele>
        <time>2023-07-05T15:21:07Z</time>
      </trkpt>
      <trkpt lat="49.2871" lon="-0.12683">
        <ele>5.3</ele>
        <time>2023-07-05T15:21:08Z</time>
      </trkpt>
      <trkpt lat="49.28711" lon="-0.12673">
        <ele>5.3</ele>
        <time>2023-07-05T15:21:09Z</time>
      </trkpt>
      <trkpt lat="49.28713" lon="-0.12663">
        <ele>5.3</ele>
        <time>2023-07-05T15:21:10Z</time>
      </trkpt>
      <trkpt lat="49.28714" lon="-0.12653">
        <ele>5.4</ele>
        <time>2023-07-05T15:21:11Z</time>
      </trkpt>
      <trkpt lat="49.28715" lon="-0.12642">
        <ele>5.4</ele>
        <time>2023-07-05T15:21:12Z</time>
      </trkpt>
      <trkpt lat="49.28716" lon="-0.12633">
        <ele>5.4</ele>
        <time>2023-07-05T15:21:13Z</time>
      </trkpt>
      <trkpt lat="49.28715" lon="-0.12623">
        <ele>5.4</ele>
        <time>2023-07-05T15:21:14Z</time>
      </trkpt>
      <trkpt lat="49.28713" lon="-0.12615">
        <ele>5.4</ele>
        <time>2023-07-05T15:21:15Z</time>
      </trkpt>
      <trkpt lat="49.28709" lon="-0.12607">
        <ele>5.3</ele>
        <time>2023-07-05T15:21:16Z</time>
      </trkpt>
      <trkpt lat="49.28704" lon="-0.12602">
        <ele>5.2</ele>
        <time>2023-07-05T15:21:17Z</time>
      </trkpt>
      <trkpt lat="49.28697" lon="-0.12599">
        <ele>5.2</ele>
        <time>2023-07-05T15:21:18Z</time>
      </trkpt>
      <trkpt lat="49.2869" lon="-0.12598">
        <ele>5.1</ele>
        <time>2023-07-05T15:21:19Z</time>
      </trkpt>
      <trkpt lat="49.28683" lon="-0.12596">
        <ele>5</ele>
        <time>2023-07-05T15:21:20Z</time>
      </trkpt>
      <trkpt lat="49.28676" lon="-0.12594">
        <ele>5</ele>
        <time>2023-07-05T15:21:21Z</time>
      </trkpt>
      <trkpt lat="49.28669" lon="-0.12593">
        <ele>4.9</ele>
        <time>2023-07-05T15:21:22Z</time>
      </trkpt>
      <trkpt lat="49.28662" lon="-0.12591">
        <ele>4.9</ele>
        <time>2023-07-05T15:21:23Z</time>
      </trkpt>
      <trkpt lat="49.28655" lon="-0.1259">
        <ele>4.9</ele>
        <time>2023-07-05T15:21:24Z</time>
      </trkpt>
      <trkpt lat="49.28649" lon="-0.12589">
        <ele>4.9</ele>
        <time>2023-07-05T15:21:25Z</time>
      </trkpt>
      <trkpt lat="49.28643" lon="-0.12588">
        <ele>4.8</ele>
        <time>2023-07-05T15:21:26Z</time>
      </trkpt>
      <trkpt lat="49.28636" lon="-0.12587">
        <ele>4.8</ele>
        <time>2023-07-05T15:21:27Z</time>
      </trkpt>
      <trkpt lat="49.2863" lon="-0.12586">
        <ele>4.8</ele>
        <time>2023-07-05T15:21:28Z</time>
      </trkpt>
      <trkpt lat="49.28624" lon="-0.12584">
        <ele>4.8</ele>
        <time>2023-07-05T15:21:29Z</time>
      </trkpt>
      <trkpt lat="49.28617" lon="-0.12582">
        <ele>4.7</ele>
        <time>2023-07-05T15:21:30Z</time>
      </trkpt>
      <trkpt lat="49.2861" lon="-0.12581">
        <ele>4.7</ele>
        <time>2023-07-05T15:21:31Z</time>
      </trkpt>
      <trkpt lat="49.28602" lon="-0.12579">
        <ele>4.6</ele>
        <time>2023-07-05T15:21:32Z</time>
      </trkpt>
      <trkpt lat="49.28595" lon="-0.12577">
        <ele>4.6</ele>
        <time>2023-07-05T15:21:33Z</time>
      </trkpt>
      <trkpt lat="49.28589" lon="-0.12575">
        <ele>4.6</ele>
        <time>2023-07-05T15:21:34Z</time>
      </trkpt>
      <trkpt lat="49.28582" lon="-0.12574">
        <ele>4.5</ele>
        <time>2023-07-05T15:21:35Z</time>
      </trkpt>
      <trkpt lat="49.28575" lon="-0.12572">
        <ele>4.5</ele>
        <time>2023-07-05T15:21:36Z</time>
      </trkpt>
      <trkpt lat="49.28568" lon="-0.1257">
        <ele>4.5</ele>
        <time>2023-07-05T15:21:37Z</time>
      </trkpt>
      <trkpt lat="49.28562" lon="-0.12569">
        <ele>4.5</ele>
        <time>2023-07-05T15:21:38Z</time>
      </trkpt>
      <trkpt lat="49.28555" lon="-0.12569">
        <ele>4.5</ele>
        <time>2023-07-05T15:21:39Z</time>
      </trkpt>
      <trkpt lat="49.28549" lon="-0.1257">
        <ele>4.5</ele>
        <time>2023-07-05T15:21:40Z</time>
      </trkpt>
      <trkpt lat="49.28543" lon="-0.12573">
        <ele>4.5</ele>
        <time>2023-07-05T15:21:41Z</time>
      </trkpt>
      <trkpt lat="49.28538" lon="-0.12576">
        <ele>4.5</ele>
        <time>2023-07-05T15:21:42Z</time>
      </trkpt>
      <trkpt lat="49.28532" lon="-0.12577">
        <ele>4.5</ele>
        <time>2023-07-05T15:21:43Z</time>
      </trkpt>
      <trkpt lat="49.28526" lon="-0.12575">
        <ele>4.4</ele>
        <time>2023-07-05T15:21:44Z</time>
      </trkpt>
      <trkpt lat="49.2852" lon="-0.12569">
        <ele>4.4</ele>
        <time>2023-07-05T15:21:45Z</time>
      </trkpt>
      <trkpt lat="49.28516" lon="-0.12561">
        <ele>4.4</ele>
        <time>2023-07-05T15:21:46Z</time>
      </trkpt>
      <trkpt lat="49.28516" lon="-0.12551">
        <ele>4.5</ele>
        <time>2023-07-05T15:21:47Z</time>
      </trkpt>
      <trkpt lat="49.28519" lon="-0.12541">
        <ele>4.5</ele>
        <time>2023-07-05T15:21:48Z</time>
      </trkpt>
      <trkpt lat="49.28524" lon="-0.12532">
        <ele>4.5</ele>
        <time>2023-07-05T15:21:49Z</time>
      </trkpt>
      <trkpt lat="49.2853" lon="-0.12524">
        <ele>4.5</ele>
        <time>2023-07-05T15:21:50Z</time>
      </trkpt>
      <trkpt lat="49.28535" lon="-0.12516">
        <ele>4.4</ele>
        <time>2023-07-05T15:21:51Z</time>
      </trkpt>
      <trkpt lat="49.2854" lon="-0.12509">
        <ele>4.4</ele>
        <time>2023-07-05T15:21:52Z</time>
      </trkpt>
      <trkpt lat="49.28544" lon="-0.125">
        <ele>4.4</ele>
        <time>2023-07-05T15:21:53Z</time>
      </trkpt>
      <trkpt lat="49.28547" lon="-0.12489">
        <ele>4.4</ele>
        <time>2023-07-05T15:21:54Z</time>
      </trkpt>
      <trkpt lat="49.28549" lon="-0.12478">
        <ele>4.4</ele>
        <time>2023-07-05T15:21:55Z</time>
      </trkpt>
      <trkpt lat="49.2855" lon="-0.12466">
        <ele>4.4</ele>
        <time>2023-07-05T15:21:56Z</time>
      </trkpt>
      <trkpt lat="49.28552" lon="-0.12455">
        <ele>4.4</ele>
        <time>2023-07-05T15:21:57Z</time>
      </trkpt>
      <trkpt lat="49.28554" lon="-0.12444">
        <ele>4.3</ele>
        <time>2023-07-05T15:21:58Z</time>
      </trkpt>
      <trkpt lat="49.28556" lon="-0.12433">
        <ele>4.3</ele>
        <time>2023-07-05T15:21:59Z</time>
      </trkpt>
      <trkpt lat="49.28557" lon="-0.12422">
        <ele>4.3</ele>
        <time>2023-07-05T15:22:00Z</time>
      </trkpt>
      <trkpt lat="49.2856" lon="-0.12412">
        <ele>4.3</ele>
        <time>2023-07-05T15:22:01Z</time>
      </trkpt>
      <trkpt lat="49.28562" lon="-0.12403">
        <ele>4.3</ele>
        <time>2023-07-05T15:22:02Z</time>
      </trkpt>
      <trkpt lat="49.28565" lon="-0.12392">
        <ele>4.3</ele>
        <time>2023-07-05T15:22:03Z</time>
      </trkpt>
      <trkpt lat="49.28567" lon="-0.12382">
        <ele>4.2</ele>
        <time>2023-07-05T15:22:04Z</time>
      </trkpt>
      <trkpt lat="49.28569" lon="-0.12371">
        <ele>4.2</ele>
        <time>2023-07-05T15:22:05Z</time>
      </trkpt>
      <trkpt lat="49.28571" lon="-0.12361">
        <ele>4.2</ele>
        <time>2023-07-05T15:22:06Z</time>
      </trkpt>
      <trkpt lat="49.28574" lon="-0.1235">
        <ele>4.2</ele>
        <time>2023-07-05T15:22:07Z</time>
      </trkpt>
      <trkpt lat="49.28576" lon="-0.1234">
        <ele>4.2</ele>
        <time>2023-07-05T15:22:08Z</time>
      </trkpt>
      <trkpt lat="49.28578" lon="-0.1233">
        <ele>4.2</ele>
        <time>2023-07-05T15:22:09Z</time>
      </trkpt>
      <trkpt lat="49.2858" lon="-0.12319">
        <ele>4.2</ele>
        <time>2023-07-05T15:22:10Z</time>
      </trkpt>
      <trkpt lat="49.28581" lon="-0.12308">
        <ele>4.2</ele>
        <time>2023-07-05T15:22:11Z</time>
      </trkpt>
      <trkpt lat="49.28583" lon="-0.12297">
        <ele>4.2</ele>
        <time>2023-07-05T15:22:12Z</time>
      </trkpt>
      <trkpt lat="49.28586" lon="-0.12287">
        <ele>4.2</ele>
        <time>2023-07-05T15:22:13Z</time>
      </trkpt>
      <trkpt lat="49.28588" lon="-0.12277">
        <ele>4.2</ele>
        <time>2023-07-05T15:22:14Z</time>
      </trkpt>
      <trkpt lat="49.2859" lon="-0.12267">
        <ele>4.2</ele>
        <time>2023-07-05T15:22:15Z</time>
      </trkpt>
      <trkpt lat="49.28592" lon="-0.12256">
        <ele>4.2</ele>
        <time>2023-07-05T15:22:16Z</time>
      </trkpt>
      <trkpt lat="49.28594" lon="-0.12246">
        <ele>4.1</ele>
        <time>2023-07-05T15:22:17Z</time>
      </trkpt>
      <trkpt lat="49.28596" lon="-0.12236">
        <ele>4.1</ele>
        <time>2023-07-05T15:22:18Z</time>
      </trkpt>
      <trkpt lat="49.28598" lon="-0.12226">
        <ele>4.1</ele>
        <time>2023-07-05T15:22:19Z</time>
      </trkpt>
      <trkpt lat="49.286" lon="-0.12215">
        <ele>4.1</ele>
        <time>2023-07-05T15:22:20Z</time>
      </trkpt>
      <trkpt lat="49.28602" lon="-0.12204">
        <ele>4.1</ele>
        <time>2023-07-05T15:22:21Z</time>
      </trkpt>
      <trkpt lat="49.28604" lon="-0.12194">
        <ele>4.2</ele>
        <time>2023-07-05T15:22:22Z</time>
      </trkpt>
      <trkpt lat="49.28606" lon="-0.12183">
        <ele>4.2</ele>
        <time>2023-07-05T15:22:23Z</time>
      </trkpt>
      <trkpt lat="49.28608" lon="-0.12173">
        <ele>4.2</ele>
        <time>2023-07-05T15:22:24Z</time>
      </trkpt>
      <trkpt lat="49.2861" lon="-0.12162">
        <ele>4.2</ele>
        <time>2023-07-05T15:22:25Z</time>
      </trkpt>
      <trkpt lat="49.28613" lon="-0.12152">
        <ele>4.3</ele>
        <time>2023-07-05T15:22:26Z</time>
      </trkpt>
      <trkpt lat="49.28615" lon="-0.12141">
        <ele>4.3</ele>
        <time>2023-07-05T15:22:27Z</time>
      </trkpt>
      <trkpt lat="49.28617" lon="-0.1213">
        <ele>4.4</ele>
        <time>2023-07-05T15:22:28Z</time>
      </trkpt>
      <trkpt lat="49.28619" lon="-0.1212">
        <ele>4.4</ele>
        <time>2023-07-05T15:22:29Z</time>
      </trkpt>
      <trkpt lat="49.28621" lon="-0.12109">
        <ele>4.5</ele>
        <time>2023-07-05T15:22:30Z</time>
      </trkpt>
      <trkpt lat="49.28623" lon="-0.12098">
        <ele>4.5</ele>
        <time>2023-07-05T15:22:31Z</time>
      </trkpt>
      <trkpt lat="49.28625" lon="-0.12088">
        <ele>4.5</ele>
        <time>2023-07-05T15:22:32Z</time>
      </trkpt>
      <trkpt lat="49.28627" lon="-0.12079">
        <ele>4.5</ele>
        <time>2023-07-05T15:22:33Z</time>
      </trkpt>
      <trkpt lat="49.28629" lon="-0.12069">
        <ele>4.5</ele>
        <time>2023-07-05T15:22:34Z</time>
      </trkpt>
      <trkpt lat="49.28631" lon="-0.1206">
        <ele>4.5</ele>
        <time>2023-07-05T15:22:35Z</time>
      </trkpt>
      <trkpt lat="49.28632" lon="-0.12051">
        <ele>4.5</ele>
        <time>2023-07-05T15:22:36Z</time>
      </trkpt>
      <trkpt lat="49.28633" lon="-0.12042">
        <ele>4.5</ele>
        <time>2023-07-05T15:22:37Z</time>
      </trkpt>
      <trkpt lat="49.28635" lon="-0.12034">
        <ele>4.6</ele>
        <time>2023-07-05T15:22:38Z</time>
      </trkpt>
      <trkpt lat="49.28636" lon="-0.12026">
        <ele>4.6</ele>
        <time>2023-07-05T15:22:39Z</time>
      </trkpt>
      <trkpt lat="49.28638" lon="-0.12018">
        <ele>4.6</ele>
        <time>2023-07-05T15:22:40Z</time>
      </trkpt>
      <trkpt lat="49.28639" lon="-0.12011">
        <ele>4.6</ele>
        <time>2023-07-05T15:22:41Z</time>
      </trkpt>
      <trkpt lat="49.28641" lon="-0.12004">
        <ele>4.6</ele>
        <time>2023-07-05T15:22:42Z</time>
      </trkpt>
      <trkpt lat="49.28642" lon="-0.11997">
        <ele>4.6</ele>
        <time>2023-07-05T15:22:43Z</time>
      </trkpt>
      <trkpt lat="49.28643" lon="-0.1199">
        <ele>4.6</ele>
        <time>2023-07-05T15:22:44Z</time>
      </trkpt>
      <trkpt lat="49.28644" lon="-0.11984">
        <ele>4.6</ele>
        <time>2023-07-05T15:22:45Z</time>
      </trkpt>
      <trkpt lat="49.28645" lon="-0.11979">
        <ele>4.6</ele>
        <time>2023-07-05T15:22:46Z</time>
      </trkpt>
      <trkpt lat="49.28647" lon="-0.11974">
        <ele>4.6</ele>
        <time>2023-07-05T15:22:47Z</time>
      </trkpt>
      <trkpt lat="49.28648" lon="-0.11969">
        <ele>4.6</ele>
        <time>2023-07-05T15:22:48Z</time>
      </trkpt>
      <trkpt lat="49.28649" lon="-0.11964">
        <ele>4.6</ele>
        <time>2023-07-05T15:22:49Z</time>
      </trkpt>
      <trkpt lat="49.28649" lon="-0.11962">
        <ele>4.6</ele>
        <time>2023-07-05T15:22:50Z</time>
      </trkpt>
      <trkpt lat="49.2865" lon="-0.11956">
        <ele>4.6</ele>
        <time>2023-07-05T15:22:51Z</time>
      </trkpt>
      <trkpt lat="49.2865" lon="-0.11955">
        <ele>4.6</ele>
        <time>2023-07-05T15:22:52Z</time>
      </trkpt>
      <trkpt lat="49.28651" lon="-0.11951">
        <ele>4.6</ele>
        <time>2023-07-05T15:22:53Z</time>
      </trkpt>
      <trkpt lat="49.28651" lon="-0.11949">
        <ele>4.6</ele>
        <time>2023-07-05T15:22:54Z</time>
      </trkpt>
      <trkpt lat="49.28651" lon="-0.11947">
        <ele>4.6</ele>
        <time>2023-07-05T15:22:55Z</time>
      </trkpt>
      <trkpt lat="49.28651" lon="-0.11947">
        <ele>4.6</ele>
        <time>2023-07-05T15:22:56Z</time>
      </trkpt>
      <trkpt lat="49.28651" lon="-0.11946">
        <ele>4.6</ele>
        <time>2023-07-05T15:22:57Z</time>
      </trkpt>
      <trkpt lat="49.28651" lon="-0.11945">
        <ele>4.6</ele>
        <time>2023-07-05T15:22:58Z</time>
      </trkpt>
      <trkpt lat="49.28651" lon="-0.11945">
        <ele>4.6</ele>
        <time>2023-07-05T15:22:59Z</time>
      </trkpt>
      <trkpt lat="49.28651" lon="-0.11944">
        <ele>4.6</ele>
        <time>2023-07-05T15:23:00Z</time>
      </trkpt>
      <trkpt lat="49.28651" lon="-0.11944">
        <ele>4.6</ele>
        <time>2023-07-05T15:23:01Z</time>
      </trkpt>
      <trkpt lat="49.28652" lon="-0.11943">
        <ele>4.6</ele>
        <time>2023-07-05T15:23:02Z</time>
      </trkpt>
      <trkpt lat="49.28652" lon="-0.11942">
        <ele>4.6</ele>
        <time>2023-07-05T15:23:03Z</time>
      </trkpt>
      <trkpt lat="49.28652" lon="-0.11942">
        <ele>4.6</ele>
        <time>2023-07-05T15:23:04Z</time>
      </trkpt>
      <trkpt lat="49.28652" lon="-0.11941">
        <ele>4.6</ele>
        <time>2023-07-05T15:23:05Z</time>
      </trkpt>
      <trkpt lat="49.28652" lon="-0.11941">
        <ele>4.6</ele>
        <time>2023-07-05T15:23:06Z</time>
      </trkpt>
      <trkpt lat="49.28652" lon="-0.1194">
        <ele>4.6</ele>
        <time>2023-07-05T15:23:07Z</time>
      </trkpt>
      <trkpt lat="49.28652" lon="-0.1194">
        <ele>4.6</ele>
        <time>2023-07-05T15:23:08Z</time>
      </trkpt>
      <trkpt lat="49.28652" lon="-0.11939">
        <ele>4.6</ele>
        <time>2023-07-05T15:23:09Z</time>
      </trkpt>
      <trkpt lat="49.28652" lon="-0.11938">
        <ele>4.6</ele>
        <time>2023-07-05T15:23:33Z</time>
      </trkpt>
      <trkpt lat="49.28652" lon="-0.11938">
        <ele>4.6</ele>
        <time>2023-07-05T15:23:34Z</time>
      </trkpt>
      <trkpt lat="49.28652" lon="-0.11937">
        <ele>4.6</ele>
        <time>2023-07-05T15:23:35Z</time>
      </trkpt>
      <trkpt lat="49.28653" lon="-0.11932">
        <ele>4.6</ele>
        <time>2023-07-05T15:23:36Z</time>
      </trkpt>
      <trkpt lat="49.28655" lon="-0.11928">
        <ele>4.6</ele>
        <time>2023-07-05T15:23:37Z</time>
      </trkpt>
      <trkpt lat="49.28656" lon="-0.11922">
        <ele>4.6</ele>
        <time>2023-07-05T15:23:38Z</time>
      </trkpt>
      <trkpt lat="49.28657" lon="-0.11917">
        <ele>4.6</ele>
        <time>2023-07-05T15:23:39Z</time>
      </trkpt>
      <trkpt lat="49.28658" lon="-0.11911">
        <ele>4.6</ele>
        <time>2023-07-05T15:23:40Z</time>
      </trkpt>
      <trkpt lat="49.2866" lon="-0.11906">
        <ele>4.6</ele>
        <time>2023-07-05T15:23:41Z</time>
      </trkpt>
      <trkpt lat="49.28661" lon="-0.11902">
        <ele>4.6</ele>
        <time>2023-07-05T15:23:42Z</time>
      </trkpt>
      <trkpt lat="49.28662" lon="-0.11898">
        <ele>4.6</ele>
        <time>2023-07-05T15:23:43Z</time>
      </trkpt>
      <trkpt lat="49.28664" lon="-0.11893">
        <ele>4.6</ele>
        <time>2023-07-05T15:23:44Z</time>
      </trkpt>
      <trkpt lat="49.28665" lon="-0.11889">
        <ele>4.6</ele>
        <time>2023-07-05T15:23:45Z</time>
      </trkpt>
      <trkpt lat="49.28666" lon="-0.11885">
        <ele>4.6</ele>
        <time>2023-07-05T15:23:46Z</time>
      </trkpt>
      <trkpt lat="49.28667" lon="-0.11879">
        <ele>4.6</ele>
        <time>2023-07-05T15:23:47Z</time>
      </trkpt>
      <trkpt lat="49.28668" lon="-0.11874">
        <ele>4.6</ele>
        <time>2023-07-05T15:23:48Z</time>
      </trkpt>
      <trkpt lat="49.28669" lon="-0.11868">
        <ele>4.6</ele>
        <time>2023-07-05T15:23:49Z</time>
      </trkpt>
      <trkpt lat="49.2867" lon="-0.11863">
        <ele>4.6</ele>
        <time>2023-07-05T15:23:50Z</time>
      </trkpt>
      <trkpt lat="49.28671" lon="-0.11858">
        <ele>4.6</ele>
        <time>2023-07-05T15:23:51Z</time>
      </trkpt>
      <trkpt lat="49.28672" lon="-0.11852">
        <ele>4.6</ele>
        <time>2023-07-05T15:23:52Z</time>
      </trkpt>
      <trkpt lat="49.28673" lon="-0.11847">
        <ele>4.6</ele>
        <time>2023-07-05T15:23:53Z</time>
      </trkpt>
      <trkpt lat="49.28674" lon="-0.11843">
        <ele>4.6</ele>
        <time>2023-07-05T15:23:54Z</time>
      </trkpt>
      <trkpt lat="49.28676" lon="-0.11838">
        <ele>4.6</ele>
        <time>2023-07-05T15:23:55Z</time>
      </trkpt>
      <trkpt lat="49.28677" lon="-0.11833">
        <ele>4.6</ele>
        <time>2023-07-05T15:23:56Z</time>
      </trkpt>
      <trkpt lat="49.28677" lon="-0.11828">
        <ele>4.6</ele>
        <time>2023-07-05T15:23:57Z</time>
      </trkpt>
      <trkpt lat="49.28678" lon="-0.11823">
        <ele>4.6</ele>
        <time>2023-07-05T15:23:58Z</time>
      </trkpt>
      <trkpt lat="49.28679" lon="-0.11817">
        <ele>4.7</ele>
        <time>2023-07-05T15:23:59Z</time>
      </trkpt>
      <trkpt lat="49.2868" lon="-0.11811">
        <ele>4.7</ele>
        <time>2023-07-05T15:24:00Z</time>
      </trkpt>
      <trkpt lat="49.28681" lon="-0.11804">
        <ele>4.7</ele>
        <time>2023-07-05T15:24:01Z</time>
      </trkpt>
      <trkpt lat="49.28681" lon="-0.11796">
        <ele>4.7</ele>
        <time>2023-07-05T15:24:02Z</time>
      </trkpt>
      <trkpt lat="49.28681" lon="-0.11789">
        <ele>4.7</ele>
        <time>2023-07-05T15:24:03Z</time>
      </trkpt>
      <trkpt lat="49.28682" lon="-0.11781">
        <ele>4.7</ele>
        <time>2023-07-05T15:24:04Z</time>
      </trkpt>
      <trkpt lat="49.28682" lon="-0.11774">
        <ele>4.7</ele>
        <time>2023-07-05T15:24:05Z</time>
      </trkpt>
      <trkpt lat="49.28682" lon="-0.11766">
        <ele>4.7</ele>
        <time>2023-07-05T15:24:06Z</time>
      </trkpt>
      <trkpt lat="49.28682" lon="-0.11758">
        <ele>4.7</ele>
        <time>2023-07-05T15:24:07Z</time>
      </trkpt>
      <trkpt lat="49.28682" lon="-0.11751">
        <ele>4.8</ele>
        <time>2023-07-05T15:24:08Z</time>
      </trkpt>
      <trkpt lat="49.28682" lon="-0.11744">
        <ele>4.8</ele>
        <time>2023-07-05T15:24:09Z</time>
      </trkpt>
      <trkpt lat="49.28682" lon="-0.11738">
        <ele>4.8</ele>
        <time>2023-07-05T15:24:10Z</time>
      </trkpt>
      <trkpt lat="49.28682" lon="-0.11732">
        <ele>4.8</ele>
        <time>2023-07-05T15:24:11Z</time>
      </trkpt>
      <trkpt lat="49.28682" lon="-0.11727">
        <ele>4.8</ele>
        <time>2023-07-05T15:24:12Z</time>
      </trkpt>
      <trkpt lat="49.28682" lon="-0.11724">
        <ele>4.9</ele>
        <time>2023-07-05T15:24:13Z</time>
      </trkpt>
      <trkpt lat="49.28681" lon="-0.11722">
        <ele>4.9</ele>
        <time>2023-07-05T15:24:14Z</time>
      </trkpt>
      <trkpt lat="49.28681" lon="-0.11722">
        <ele>4.9</ele>
        <time>2023-07-05T15:24:15Z</time>
      </trkpt>
      <trkpt lat="49.28681" lon="-0.11722">
        <ele>4.9</ele>
        <time>2023-07-05T15:24:16Z</time>
      </trkpt>
      <trkpt lat="49.28681" lon="-0.11722">
        <ele>4.9</ele>
        <time>2023-07-05T15:24:17Z</time>
      </trkpt>
      <trkpt lat="49.28681" lon="-0.11722">
        <ele>4.9</ele>
        <time>2023-07-05T15:24:18Z</time>
      </trkpt>
      <trkpt lat="49.28681" lon="-0.11722">
        <ele>4.9</ele>
        <time>2023-07-05T15:24:19Z</time>
      </trkpt>
      <trkpt lat="49.28681" lon="-0.11722">
        <ele>4.9</ele>
        <time>2023-07-05T15:24:20Z</time>
      </trkpt>
      <trkpt lat="49.28681" lon="-0.11722">
        <ele>4.9</ele>
        <time>2023-07-05T15:24:21Z</time>
      </trkpt>
      <trkpt lat="49.28681" lon="-0.11722">
        <ele>4.9</ele>
        <time>2023-07-05T15:24:22Z</time>
      </trkpt>
      <trkpt lat="49.28681" lon="-0.11722">
        <ele>4.9</ele>
        <time>2023-07-05T15:24:23Z</time>
      </trkpt>
      <trkpt lat="49.28681" lon="-0.11722">
        <ele>4.9</ele>
        <time>2023-07-05T15:24:24Z</time>
      </trkpt>
      <trkpt lat="49.28681" lon="-0.11722">
        <ele>4.9</ele>
        <time>2023-07-05T15:24:25Z</time>
      </trkpt>
      <trkpt lat="49.28681" lon="-0.11722">
        <ele>4.9</ele>
        <time>2023-07-05T15:24:26Z</time>
      </trkpt>
    </trkseg>
  </trk>
</gpx>